<?xml version="1.0" encoding="UTF-8" standalone="no" ?>
<gpx xmlns="http://www.topografix.com/GPX/1/1" xmlns:xsi="http://www.w3.org/2001/XMLSchema-instance" xsi:schemaLocation="http://www.topografix.com/GPX/1/1 http://www.topografix.com/GPX/1/1/gpx.xsd" version="1.1" creator="VisuGPX - https://www.visugpx.com">
  <metadata>
    <name>Tour de Lara</name>
    <desc><![CDATA[Avec Norbert & Hocine.]]></desc>
  </metadata>
  <trk>
    <name><![CDATA[Trace 1766910037000]]></name>
    <trkseg>
      <trkpt lat="42.98716" lon="1.13917">
        <ele>439.3</ele>
        <time>2025-12-28T08:20:37.000Z</time>
      </trkpt>
      <trkpt lat="42.98716" lon="1.13918">
        <ele>438.1</ele>
        <time>2025-12-28T08:20:38.000Z</time>
      </trkpt>
      <trkpt lat="42.98716" lon="1.13918">
        <ele>438</ele>
        <time>2025-12-28T08:20:39.000Z</time>
      </trkpt>
      <trkpt lat="42.98717" lon="1.13918">
        <ele>437.8</ele>
        <time>2025-12-28T08:20:40.000Z</time>
      </trkpt>
      <trkpt lat="42.98716" lon="1.13918">
        <ele>438.2</ele>
        <time>2025-12-28T08:20:41.000Z</time>
      </trkpt>
      <trkpt lat="42.98716" lon="1.13918">
        <ele>440</ele>
        <time>2025-12-28T08:20:42.000Z</time>
      </trkpt>
      <trkpt lat="42.98716" lon="1.13918">
        <ele>440.9</ele>
        <time>2025-12-28T08:20:43.000Z</time>
      </trkpt>
      <trkpt lat="42.98715" lon="1.13918">
        <ele>441.2</ele>
        <time>2025-12-28T08:20:44.000Z</time>
      </trkpt>
      <trkpt lat="42.98715" lon="1.13918">
        <ele>441.8</ele>
        <time>2025-12-28T08:20:45.000Z</time>
      </trkpt>
      <trkpt lat="42.98715" lon="1.13917">
        <ele>443.2</ele>
        <time>2025-12-28T08:21:07.000Z</time>
      </trkpt>
      <trkpt lat="42.98716" lon="1.13916">
        <ele>443</ele>
        <time>2025-12-28T08:21:08.000Z</time>
      </trkpt>
      <trkpt lat="42.98716" lon="1.13915">
        <ele>442.8</ele>
        <time>2025-12-28T08:21:09.000Z</time>
      </trkpt>
      <trkpt lat="42.98716" lon="1.13916">
        <ele>443.1</ele>
        <time>2025-12-28T08:21:10.000Z</time>
      </trkpt>
      <trkpt lat="42.98717" lon="1.13916">
        <ele>443.4</ele>
        <time>2025-12-28T08:21:11.000Z</time>
      </trkpt>
      <trkpt lat="42.98717" lon="1.13916">
        <ele>443.1</ele>
        <time>2025-12-28T08:21:12.000Z</time>
      </trkpt>
      <trkpt lat="42.98717" lon="1.13915">
        <ele>443.4</ele>
        <time>2025-12-28T08:21:13.000Z</time>
      </trkpt>
      <trkpt lat="42.98718" lon="1.13914">
        <ele>443.5</ele>
        <time>2025-12-28T08:21:14.000Z</time>
      </trkpt>
      <trkpt lat="42.98719" lon="1.13914">
        <ele>443.3</ele>
        <time>2025-12-28T08:21:15.000Z</time>
      </trkpt>
      <trkpt lat="42.98719" lon="1.13912">
        <ele>443.7</ele>
        <time>2025-12-28T08:21:16.000Z</time>
      </trkpt>
      <trkpt lat="42.9872" lon="1.13911">
        <ele>443.9</ele>
        <time>2025-12-28T08:21:17.000Z</time>
      </trkpt>
      <trkpt lat="42.98721" lon="1.1391">
        <ele>444</ele>
        <time>2025-12-28T08:21:18.000Z</time>
      </trkpt>
      <trkpt lat="42.98722" lon="1.13908">
        <ele>443.7</ele>
        <time>2025-12-28T08:21:19.000Z</time>
      </trkpt>
      <trkpt lat="42.98723" lon="1.13908">
        <ele>443.6</ele>
        <time>2025-12-28T08:21:20.000Z</time>
      </trkpt>
      <trkpt lat="42.98724" lon="1.13907">
        <ele>443.7</ele>
        <time>2025-12-28T08:21:21.000Z</time>
      </trkpt>
      <trkpt lat="42.98725" lon="1.13906">
        <ele>444.1</ele>
        <time>2025-12-28T08:21:22.000Z</time>
      </trkpt>
      <trkpt lat="42.98726" lon="1.13905">
        <ele>443.7</ele>
        <time>2025-12-28T08:21:23.000Z</time>
      </trkpt>
      <trkpt lat="42.98727" lon="1.13904">
        <ele>443.9</ele>
        <time>2025-12-28T08:21:24.000Z</time>
      </trkpt>
      <trkpt lat="42.98728" lon="1.13904">
        <ele>444</ele>
        <time>2025-12-28T08:21:25.000Z</time>
      </trkpt>
      <trkpt lat="42.9873" lon="1.13902">
        <ele>444.2</ele>
        <time>2025-12-28T08:21:26.000Z</time>
      </trkpt>
      <trkpt lat="42.98731" lon="1.13901">
        <ele>444.5</ele>
        <time>2025-12-28T08:21:27.000Z</time>
      </trkpt>
      <trkpt lat="42.98733" lon="1.139">
        <ele>444.2</ele>
        <time>2025-12-28T08:21:28.000Z</time>
      </trkpt>
      <trkpt lat="42.98735" lon="1.13899">
        <ele>444.6</ele>
        <time>2025-12-28T08:21:29.000Z</time>
      </trkpt>
      <trkpt lat="42.98736" lon="1.13899">
        <ele>444.5</ele>
        <time>2025-12-28T08:21:30.000Z</time>
      </trkpt>
      <trkpt lat="42.98738" lon="1.13899">
        <ele>444.7</ele>
        <time>2025-12-28T08:21:31.000Z</time>
      </trkpt>
      <trkpt lat="42.9874" lon="1.13899">
        <ele>444.8</ele>
        <time>2025-12-28T08:21:32.000Z</time>
      </trkpt>
      <trkpt lat="42.98742" lon="1.13898">
        <ele>444.9</ele>
        <time>2025-12-28T08:21:33.000Z</time>
      </trkpt>
      <trkpt lat="42.98744" lon="1.13897">
        <ele>443.7</ele>
        <time>2025-12-28T08:21:34.000Z</time>
      </trkpt>
      <trkpt lat="42.98745" lon="1.13896">
        <ele>443.9</ele>
        <time>2025-12-28T08:21:35.000Z</time>
      </trkpt>
      <trkpt lat="42.98745" lon="1.13896">
        <ele>444.2</ele>
        <time>2025-12-28T08:21:36.000Z</time>
      </trkpt>
      <trkpt lat="42.98745" lon="1.13896">
        <ele>444.4</ele>
        <time>2025-12-28T08:21:37.000Z</time>
      </trkpt>
      <trkpt lat="42.98745" lon="1.13896">
        <ele>444.6</ele>
        <time>2025-12-28T08:21:38.000Z</time>
      </trkpt>
      <trkpt lat="42.98745" lon="1.13896">
        <ele>444.7</ele>
        <time>2025-12-28T08:21:39.000Z</time>
      </trkpt>
      <trkpt lat="42.98745" lon="1.13896">
        <ele>445.1</ele>
        <time>2025-12-28T08:21:40.000Z</time>
      </trkpt>
      <trkpt lat="42.98747" lon="1.13896">
        <ele>445.7</ele>
        <time>2025-12-28T08:21:41.000Z</time>
      </trkpt>
      <trkpt lat="42.98749" lon="1.13896">
        <ele>446.1</ele>
        <time>2025-12-28T08:21:42.000Z</time>
      </trkpt>
      <trkpt lat="42.98752" lon="1.13895">
        <ele>446</ele>
        <time>2025-12-28T08:21:43.000Z</time>
      </trkpt>
      <trkpt lat="42.98756" lon="1.13894">
        <ele>446.3</ele>
        <time>2025-12-28T08:21:44.000Z</time>
      </trkpt>
      <trkpt lat="42.9876" lon="1.13892">
        <ele>446.7</ele>
        <time>2025-12-28T08:21:45.000Z</time>
      </trkpt>
      <trkpt lat="42.98765" lon="1.13891">
        <ele>446.7</ele>
        <time>2025-12-28T08:21:46.000Z</time>
      </trkpt>
      <trkpt lat="42.9877" lon="1.13889">
        <ele>446.7</ele>
        <time>2025-12-28T08:21:47.000Z</time>
      </trkpt>
      <trkpt lat="42.98775" lon="1.13887">
        <ele>446.8</ele>
        <time>2025-12-28T08:21:48.000Z</time>
      </trkpt>
      <trkpt lat="42.98779" lon="1.13886">
        <ele>446.9</ele>
        <time>2025-12-28T08:21:49.000Z</time>
      </trkpt>
      <trkpt lat="42.98784" lon="1.13885">
        <ele>446.6</ele>
        <time>2025-12-28T08:21:50.000Z</time>
      </trkpt>
      <trkpt lat="42.98788" lon="1.13885">
        <ele>446.6</ele>
        <time>2025-12-28T08:21:51.000Z</time>
      </trkpt>
      <trkpt lat="42.98793" lon="1.13886">
        <ele>446.5</ele>
        <time>2025-12-28T08:21:52.000Z</time>
      </trkpt>
      <trkpt lat="42.98797" lon="1.13889">
        <ele>446.5</ele>
        <time>2025-12-28T08:21:53.000Z</time>
      </trkpt>
      <trkpt lat="42.98797" lon="1.13896">
        <ele>446.7</ele>
        <time>2025-12-28T08:21:54.000Z</time>
      </trkpt>
      <trkpt lat="42.98798" lon="1.13901">
        <ele>447</ele>
        <time>2025-12-28T08:21:55.000Z</time>
      </trkpt>
      <trkpt lat="42.98799" lon="1.13906">
        <ele>446.9</ele>
        <time>2025-12-28T08:21:56.000Z</time>
      </trkpt>
      <trkpt lat="42.98801" lon="1.13912">
        <ele>446.7</ele>
        <time>2025-12-28T08:21:57.000Z</time>
      </trkpt>
      <trkpt lat="42.98803" lon="1.13916">
        <ele>446.3</ele>
        <time>2025-12-28T08:21:58.000Z</time>
      </trkpt>
      <trkpt lat="42.98804" lon="1.1392">
        <ele>447.7</ele>
        <time>2025-12-28T08:21:59.000Z</time>
      </trkpt>
      <trkpt lat="42.98806" lon="1.13923">
        <ele>448.2</ele>
        <time>2025-12-28T08:22:00.000Z</time>
      </trkpt>
      <trkpt lat="42.98809" lon="1.13925">
        <ele>448.9</ele>
        <time>2025-12-28T08:22:01.000Z</time>
      </trkpt>
      <trkpt lat="42.98812" lon="1.13925">
        <ele>449.9</ele>
        <time>2025-12-28T08:22:02.000Z</time>
      </trkpt>
      <trkpt lat="42.98815" lon="1.13924">
        <ele>450.3</ele>
        <time>2025-12-28T08:22:03.000Z</time>
      </trkpt>
      <trkpt lat="42.98819" lon="1.13922">
        <ele>450.2</ele>
        <time>2025-12-28T08:22:04.000Z</time>
      </trkpt>
      <trkpt lat="42.98822" lon="1.13921">
        <ele>449.8</ele>
        <time>2025-12-28T08:22:05.000Z</time>
      </trkpt>
      <trkpt lat="42.98825" lon="1.13919">
        <ele>449.3</ele>
        <time>2025-12-28T08:22:06.000Z</time>
      </trkpt>
      <trkpt lat="42.98828" lon="1.13917">
        <ele>449</ele>
        <time>2025-12-28T08:22:07.000Z</time>
      </trkpt>
      <trkpt lat="42.98831" lon="1.13916">
        <ele>448.8</ele>
        <time>2025-12-28T08:22:08.000Z</time>
      </trkpt>
      <trkpt lat="42.98834" lon="1.13915">
        <ele>448</ele>
        <time>2025-12-28T08:22:09.000Z</time>
      </trkpt>
      <trkpt lat="42.98836" lon="1.13913">
        <ele>447.6</ele>
        <time>2025-12-28T08:22:10.000Z</time>
      </trkpt>
      <trkpt lat="42.98839" lon="1.13912">
        <ele>447</ele>
        <time>2025-12-28T08:22:11.000Z</time>
      </trkpt>
      <trkpt lat="42.98842" lon="1.1391">
        <ele>447</ele>
        <time>2025-12-28T08:22:12.000Z</time>
      </trkpt>
      <trkpt lat="42.98844" lon="1.13907">
        <ele>445.5</ele>
        <time>2025-12-28T08:22:13.000Z</time>
      </trkpt>
      <trkpt lat="42.98846" lon="1.13903">
        <ele>444.8</ele>
        <time>2025-12-28T08:22:14.000Z</time>
      </trkpt>
      <trkpt lat="42.98846" lon="1.13899">
        <ele>445.4</ele>
        <time>2025-12-28T08:22:15.000Z</time>
      </trkpt>
      <trkpt lat="42.98845" lon="1.13896">
        <ele>445.2</ele>
        <time>2025-12-28T08:22:16.000Z</time>
      </trkpt>
      <trkpt lat="42.98844" lon="1.13892">
        <ele>446.1</ele>
        <time>2025-12-28T08:22:17.000Z</time>
      </trkpt>
      <trkpt lat="42.98843" lon="1.13889">
        <ele>445.6</ele>
        <time>2025-12-28T08:22:18.000Z</time>
      </trkpt>
      <trkpt lat="42.98842" lon="1.13885">
        <ele>445.1</ele>
        <time>2025-12-28T08:22:19.000Z</time>
      </trkpt>
      <trkpt lat="42.98841" lon="1.13881">
        <ele>445</ele>
        <time>2025-12-28T08:22:20.000Z</time>
      </trkpt>
      <trkpt lat="42.98841" lon="1.13877">
        <ele>445.5</ele>
        <time>2025-12-28T08:22:21.000Z</time>
      </trkpt>
      <trkpt lat="42.98841" lon="1.13874">
        <ele>445.9</ele>
        <time>2025-12-28T08:22:22.000Z</time>
      </trkpt>
      <trkpt lat="42.98842" lon="1.1387">
        <ele>446</ele>
        <time>2025-12-28T08:22:23.000Z</time>
      </trkpt>
      <trkpt lat="42.98843" lon="1.13867">
        <ele>446.4</ele>
        <time>2025-12-28T08:22:24.000Z</time>
      </trkpt>
      <trkpt lat="42.98845" lon="1.13864">
        <ele>446.2</ele>
        <time>2025-12-28T08:22:25.000Z</time>
      </trkpt>
      <trkpt lat="42.98845" lon="1.13861">
        <ele>445.9</ele>
        <time>2025-12-28T08:22:26.000Z</time>
      </trkpt>
      <trkpt lat="42.98846" lon="1.13858">
        <ele>446.1</ele>
        <time>2025-12-28T08:22:27.000Z</time>
      </trkpt>
      <trkpt lat="42.98845" lon="1.13856">
        <ele>446.1</ele>
        <time>2025-12-28T08:22:28.000Z</time>
      </trkpt>
      <trkpt lat="42.98846" lon="1.13854">
        <ele>445.9</ele>
        <time>2025-12-28T08:22:29.000Z</time>
      </trkpt>
      <trkpt lat="42.98847" lon="1.13852">
        <ele>447</ele>
        <time>2025-12-28T08:22:30.000Z</time>
      </trkpt>
      <trkpt lat="42.9885" lon="1.13849">
        <ele>446.2</ele>
        <time>2025-12-28T08:22:31.000Z</time>
      </trkpt>
      <trkpt lat="42.98854" lon="1.13847">
        <ele>445.8</ele>
        <time>2025-12-28T08:22:32.000Z</time>
      </trkpt>
      <trkpt lat="42.98857" lon="1.13846">
        <ele>445.7</ele>
        <time>2025-12-28T08:22:33.000Z</time>
      </trkpt>
      <trkpt lat="42.98861" lon="1.13844">
        <ele>445.2</ele>
        <time>2025-12-28T08:22:34.000Z</time>
      </trkpt>
      <trkpt lat="42.98864" lon="1.13842">
        <ele>444.6</ele>
        <time>2025-12-28T08:22:35.000Z</time>
      </trkpt>
      <trkpt lat="42.98868" lon="1.1384">
        <ele>443.5</ele>
        <time>2025-12-28T08:22:36.000Z</time>
      </trkpt>
      <trkpt lat="42.98871" lon="1.13838">
        <ele>443.3</ele>
        <time>2025-12-28T08:22:37.000Z</time>
      </trkpt>
      <trkpt lat="42.98876" lon="1.13836">
        <ele>443.3</ele>
        <time>2025-12-28T08:22:38.000Z</time>
      </trkpt>
      <trkpt lat="42.9888" lon="1.13835">
        <ele>442.4</ele>
        <time>2025-12-28T08:22:39.000Z</time>
      </trkpt>
      <trkpt lat="42.98884" lon="1.13833">
        <ele>442</ele>
        <time>2025-12-28T08:22:40.000Z</time>
      </trkpt>
      <trkpt lat="42.98888" lon="1.13831">
        <ele>441.8</ele>
        <time>2025-12-28T08:22:41.000Z</time>
      </trkpt>
      <trkpt lat="42.98892" lon="1.13829">
        <ele>442.1</ele>
        <time>2025-12-28T08:22:42.000Z</time>
      </trkpt>
      <trkpt lat="42.98896" lon="1.13829">
        <ele>442.7</ele>
        <time>2025-12-28T08:22:43.000Z</time>
      </trkpt>
      <trkpt lat="42.989" lon="1.13828">
        <ele>443.1</ele>
        <time>2025-12-28T08:22:44.000Z</time>
      </trkpt>
      <trkpt lat="42.98904" lon="1.13827">
        <ele>442.8</ele>
        <time>2025-12-28T08:22:45.000Z</time>
      </trkpt>
      <trkpt lat="42.98907" lon="1.13826">
        <ele>443.1</ele>
        <time>2025-12-28T08:22:46.000Z</time>
      </trkpt>
      <trkpt lat="42.98912" lon="1.13825">
        <ele>443</ele>
        <time>2025-12-28T08:22:47.000Z</time>
      </trkpt>
      <trkpt lat="42.98916" lon="1.13824">
        <ele>443.5</ele>
        <time>2025-12-28T08:22:48.000Z</time>
      </trkpt>
      <trkpt lat="42.9892" lon="1.13823">
        <ele>442.7</ele>
        <time>2025-12-28T08:22:49.000Z</time>
      </trkpt>
      <trkpt lat="42.98923" lon="1.13821">
        <ele>442.5</ele>
        <time>2025-12-28T08:22:50.000Z</time>
      </trkpt>
      <trkpt lat="42.98927" lon="1.1382">
        <ele>442.4</ele>
        <time>2025-12-28T08:22:51.000Z</time>
      </trkpt>
      <trkpt lat="42.98931" lon="1.13819">
        <ele>442.6</ele>
        <time>2025-12-28T08:22:52.000Z</time>
      </trkpt>
      <trkpt lat="42.98934" lon="1.13819">
        <ele>441.9</ele>
        <time>2025-12-28T08:22:53.000Z</time>
      </trkpt>
      <trkpt lat="42.98938" lon="1.13818">
        <ele>441.3</ele>
        <time>2025-12-28T08:22:54.000Z</time>
      </trkpt>
      <trkpt lat="42.98942" lon="1.13817">
        <ele>441.1</ele>
        <time>2025-12-28T08:22:55.000Z</time>
      </trkpt>
      <trkpt lat="42.98946" lon="1.13815">
        <ele>441.5</ele>
        <time>2025-12-28T08:22:56.000Z</time>
      </trkpt>
      <trkpt lat="42.9895" lon="1.13814">
        <ele>441</ele>
        <time>2025-12-28T08:22:57.000Z</time>
      </trkpt>
      <trkpt lat="42.98954" lon="1.13813">
        <ele>440.8</ele>
        <time>2025-12-28T08:22:58.000Z</time>
      </trkpt>
      <trkpt lat="42.98958" lon="1.13812">
        <ele>441</ele>
        <time>2025-12-28T08:22:59.000Z</time>
      </trkpt>
      <trkpt lat="42.98962" lon="1.13811">
        <ele>440.9</ele>
        <time>2025-12-28T08:23:00.000Z</time>
      </trkpt>
      <trkpt lat="42.98965" lon="1.13811">
        <ele>440.5</ele>
        <time>2025-12-28T08:23:01.000Z</time>
      </trkpt>
      <trkpt lat="42.98969" lon="1.13811">
        <ele>440.7</ele>
        <time>2025-12-28T08:23:02.000Z</time>
      </trkpt>
      <trkpt lat="42.98972" lon="1.1381">
        <ele>440.7</ele>
        <time>2025-12-28T08:23:03.000Z</time>
      </trkpt>
      <trkpt lat="42.98976" lon="1.13809">
        <ele>440.4</ele>
        <time>2025-12-28T08:23:04.000Z</time>
      </trkpt>
      <trkpt lat="42.98979" lon="1.13807">
        <ele>440</ele>
        <time>2025-12-28T08:23:05.000Z</time>
      </trkpt>
      <trkpt lat="42.98982" lon="1.13806">
        <ele>440</ele>
        <time>2025-12-28T08:23:06.000Z</time>
      </trkpt>
      <trkpt lat="42.98986" lon="1.13805">
        <ele>440.1</ele>
        <time>2025-12-28T08:23:07.000Z</time>
      </trkpt>
      <trkpt lat="42.9899" lon="1.13804">
        <ele>440.4</ele>
        <time>2025-12-28T08:23:08.000Z</time>
      </trkpt>
      <trkpt lat="42.98994" lon="1.13804">
        <ele>440.3</ele>
        <time>2025-12-28T08:23:09.000Z</time>
      </trkpt>
      <trkpt lat="42.98997" lon="1.13803">
        <ele>440.5</ele>
        <time>2025-12-28T08:23:10.000Z</time>
      </trkpt>
      <trkpt lat="42.99001" lon="1.13803">
        <ele>441.1</ele>
        <time>2025-12-28T08:23:11.000Z</time>
      </trkpt>
      <trkpt lat="42.99004" lon="1.13802">
        <ele>440.9</ele>
        <time>2025-12-28T08:23:12.000Z</time>
      </trkpt>
      <trkpt lat="42.99007" lon="1.13801">
        <ele>440.9</ele>
        <time>2025-12-28T08:23:13.000Z</time>
      </trkpt>
      <trkpt lat="42.99011" lon="1.13799">
        <ele>440.6</ele>
        <time>2025-12-28T08:23:14.000Z</time>
      </trkpt>
      <trkpt lat="42.99014" lon="1.13799">
        <ele>440.5</ele>
        <time>2025-12-28T08:23:15.000Z</time>
      </trkpt>
      <trkpt lat="42.99018" lon="1.13798">
        <ele>440.4</ele>
        <time>2025-12-28T08:23:16.000Z</time>
      </trkpt>
      <trkpt lat="42.99022" lon="1.13798">
        <ele>440.4</ele>
        <time>2025-12-28T08:23:17.000Z</time>
      </trkpt>
      <trkpt lat="42.99026" lon="1.13797">
        <ele>440.4</ele>
        <time>2025-12-28T08:23:18.000Z</time>
      </trkpt>
      <trkpt lat="42.99029" lon="1.13797">
        <ele>440.2</ele>
        <time>2025-12-28T08:23:19.000Z</time>
      </trkpt>
      <trkpt lat="42.99033" lon="1.13796">
        <ele>440.2</ele>
        <time>2025-12-28T08:23:20.000Z</time>
      </trkpt>
      <trkpt lat="42.99037" lon="1.13796">
        <ele>440</ele>
        <time>2025-12-28T08:23:21.000Z</time>
      </trkpt>
      <trkpt lat="42.99041" lon="1.13795">
        <ele>440.1</ele>
        <time>2025-12-28T08:23:22.000Z</time>
      </trkpt>
      <trkpt lat="42.99045" lon="1.13794">
        <ele>439.3</ele>
        <time>2025-12-28T08:23:23.000Z</time>
      </trkpt>
      <trkpt lat="42.99049" lon="1.13793">
        <ele>439.6</ele>
        <time>2025-12-28T08:23:24.000Z</time>
      </trkpt>
      <trkpt lat="42.99053" lon="1.13793">
        <ele>439.6</ele>
        <time>2025-12-28T08:23:25.000Z</time>
      </trkpt>
      <trkpt lat="42.99057" lon="1.13793">
        <ele>439.7</ele>
        <time>2025-12-28T08:23:26.000Z</time>
      </trkpt>
      <trkpt lat="42.99061" lon="1.13793">
        <ele>440.4</ele>
        <time>2025-12-28T08:23:27.000Z</time>
      </trkpt>
      <trkpt lat="42.99065" lon="1.13792">
        <ele>440.1</ele>
        <time>2025-12-28T08:23:28.000Z</time>
      </trkpt>
      <trkpt lat="42.99069" lon="1.13792">
        <ele>440</ele>
        <time>2025-12-28T08:23:29.000Z</time>
      </trkpt>
      <trkpt lat="42.99073" lon="1.13791">
        <ele>440.2</ele>
        <time>2025-12-28T08:23:30.000Z</time>
      </trkpt>
      <trkpt lat="42.99077" lon="1.1379">
        <ele>440.7</ele>
        <time>2025-12-28T08:23:31.000Z</time>
      </trkpt>
      <trkpt lat="42.9908" lon="1.13789">
        <ele>440.6</ele>
        <time>2025-12-28T08:23:32.000Z</time>
      </trkpt>
      <trkpt lat="42.99084" lon="1.13788">
        <ele>440.8</ele>
        <time>2025-12-28T08:23:33.000Z</time>
      </trkpt>
      <trkpt lat="42.99087" lon="1.13786">
        <ele>440.7</ele>
        <time>2025-12-28T08:23:34.000Z</time>
      </trkpt>
      <trkpt lat="42.99091" lon="1.13786">
        <ele>440.8</ele>
        <time>2025-12-28T08:23:35.000Z</time>
      </trkpt>
      <trkpt lat="42.99094" lon="1.13786">
        <ele>440.4</ele>
        <time>2025-12-28T08:23:36.000Z</time>
      </trkpt>
      <trkpt lat="42.99097" lon="1.13786">
        <ele>440.1</ele>
        <time>2025-12-28T08:23:37.000Z</time>
      </trkpt>
      <trkpt lat="42.99101" lon="1.13786">
        <ele>440.8</ele>
        <time>2025-12-28T08:23:38.000Z</time>
      </trkpt>
      <trkpt lat="42.99104" lon="1.13786">
        <ele>440.6</ele>
        <time>2025-12-28T08:23:39.000Z</time>
      </trkpt>
      <trkpt lat="42.99107" lon="1.13786">
        <ele>440.4</ele>
        <time>2025-12-28T08:23:40.000Z</time>
      </trkpt>
      <trkpt lat="42.99111" lon="1.13785">
        <ele>440.4</ele>
        <time>2025-12-28T08:23:41.000Z</time>
      </trkpt>
      <trkpt lat="42.99114" lon="1.13785">
        <ele>440.5</ele>
        <time>2025-12-28T08:23:42.000Z</time>
      </trkpt>
      <trkpt lat="42.99117" lon="1.13785">
        <ele>440.5</ele>
        <time>2025-12-28T08:23:43.000Z</time>
      </trkpt>
      <trkpt lat="42.99121" lon="1.13784">
        <ele>440.2</ele>
        <time>2025-12-28T08:23:44.000Z</time>
      </trkpt>
      <trkpt lat="42.99125" lon="1.13784">
        <ele>439.8</ele>
        <time>2025-12-28T08:23:45.000Z</time>
      </trkpt>
      <trkpt lat="42.99128" lon="1.13784">
        <ele>440.1</ele>
        <time>2025-12-28T08:23:46.000Z</time>
      </trkpt>
      <trkpt lat="42.99132" lon="1.13783">
        <ele>440</ele>
        <time>2025-12-28T08:23:47.000Z</time>
      </trkpt>
      <trkpt lat="42.99135" lon="1.13782">
        <ele>440</ele>
        <time>2025-12-28T08:23:48.000Z</time>
      </trkpt>
      <trkpt lat="42.99138" lon="1.1378">
        <ele>440</ele>
        <time>2025-12-28T08:23:49.000Z</time>
      </trkpt>
      <trkpt lat="42.99142" lon="1.13779">
        <ele>440</ele>
        <time>2025-12-28T08:23:50.000Z</time>
      </trkpt>
      <trkpt lat="42.99145" lon="1.13778">
        <ele>439.9</ele>
        <time>2025-12-28T08:23:51.000Z</time>
      </trkpt>
      <trkpt lat="42.99148" lon="1.13777">
        <ele>439.8</ele>
        <time>2025-12-28T08:23:52.000Z</time>
      </trkpt>
      <trkpt lat="42.99151" lon="1.13775">
        <ele>440.3</ele>
        <time>2025-12-28T08:23:53.000Z</time>
      </trkpt>
      <trkpt lat="42.99154" lon="1.13774">
        <ele>440.4</ele>
        <time>2025-12-28T08:23:54.000Z</time>
      </trkpt>
      <trkpt lat="42.99156" lon="1.13773">
        <ele>440.2</ele>
        <time>2025-12-28T08:23:55.000Z</time>
      </trkpt>
      <trkpt lat="42.99159" lon="1.13771">
        <ele>440</ele>
        <time>2025-12-28T08:23:56.000Z</time>
      </trkpt>
      <trkpt lat="42.99162" lon="1.1377">
        <ele>440</ele>
        <time>2025-12-28T08:23:57.000Z</time>
      </trkpt>
      <trkpt lat="42.99165" lon="1.13768">
        <ele>439.8</ele>
        <time>2025-12-28T08:23:58.000Z</time>
      </trkpt>
      <trkpt lat="42.99168" lon="1.13766">
        <ele>440</ele>
        <time>2025-12-28T08:23:59.000Z</time>
      </trkpt>
      <trkpt lat="42.9917" lon="1.13763">
        <ele>440.1</ele>
        <time>2025-12-28T08:24:00.000Z</time>
      </trkpt>
      <trkpt lat="42.99172" lon="1.1376">
        <ele>440.3</ele>
        <time>2025-12-28T08:24:01.000Z</time>
      </trkpt>
      <trkpt lat="42.99175" lon="1.13756">
        <ele>440.7</ele>
        <time>2025-12-28T08:24:02.000Z</time>
      </trkpt>
      <trkpt lat="42.99177" lon="1.13753">
        <ele>440.5</ele>
        <time>2025-12-28T08:24:03.000Z</time>
      </trkpt>
      <trkpt lat="42.9918" lon="1.13749">
        <ele>440.4</ele>
        <time>2025-12-28T08:24:04.000Z</time>
      </trkpt>
      <trkpt lat="42.99183" lon="1.13747">
        <ele>440.1</ele>
        <time>2025-12-28T08:24:05.000Z</time>
      </trkpt>
      <trkpt lat="42.99187" lon="1.13745">
        <ele>440.3</ele>
        <time>2025-12-28T08:24:06.000Z</time>
      </trkpt>
      <trkpt lat="42.99191" lon="1.13744">
        <ele>439.6</ele>
        <time>2025-12-28T08:24:07.000Z</time>
      </trkpt>
      <trkpt lat="42.99194" lon="1.13743">
        <ele>439.1</ele>
        <time>2025-12-28T08:24:08.000Z</time>
      </trkpt>
      <trkpt lat="42.99197" lon="1.13743">
        <ele>439.6</ele>
        <time>2025-12-28T08:24:09.000Z</time>
      </trkpt>
      <trkpt lat="42.992" lon="1.13743">
        <ele>440</ele>
        <time>2025-12-28T08:24:10.000Z</time>
      </trkpt>
      <trkpt lat="42.99203" lon="1.13741">
        <ele>439.6</ele>
        <time>2025-12-28T08:24:11.000Z</time>
      </trkpt>
      <trkpt lat="42.99206" lon="1.13739">
        <ele>439.4</ele>
        <time>2025-12-28T08:24:12.000Z</time>
      </trkpt>
      <trkpt lat="42.99209" lon="1.13738">
        <ele>439.6</ele>
        <time>2025-12-28T08:24:13.000Z</time>
      </trkpt>
      <trkpt lat="42.99212" lon="1.13737">
        <ele>439.9</ele>
        <time>2025-12-28T08:24:14.000Z</time>
      </trkpt>
      <trkpt lat="42.99216" lon="1.13736">
        <ele>440.3</ele>
        <time>2025-12-28T08:24:15.000Z</time>
      </trkpt>
      <trkpt lat="42.99219" lon="1.13736">
        <ele>440.2</ele>
        <time>2025-12-28T08:24:16.000Z</time>
      </trkpt>
      <trkpt lat="42.99223" lon="1.13735">
        <ele>440.5</ele>
        <time>2025-12-28T08:24:17.000Z</time>
      </trkpt>
      <trkpt lat="42.99227" lon="1.13734">
        <ele>440.3</ele>
        <time>2025-12-28T08:24:18.000Z</time>
      </trkpt>
      <trkpt lat="42.9923" lon="1.13732">
        <ele>440.2</ele>
        <time>2025-12-28T08:24:19.000Z</time>
      </trkpt>
      <trkpt lat="42.99233" lon="1.13731">
        <ele>440.1</ele>
        <time>2025-12-28T08:24:20.000Z</time>
      </trkpt>
      <trkpt lat="42.99236" lon="1.13729">
        <ele>440.1</ele>
        <time>2025-12-28T08:24:21.000Z</time>
      </trkpt>
      <trkpt lat="42.99239" lon="1.13728">
        <ele>439.7</ele>
        <time>2025-12-28T08:24:22.000Z</time>
      </trkpt>
      <trkpt lat="42.99242" lon="1.13727">
        <ele>439.7</ele>
        <time>2025-12-28T08:24:23.000Z</time>
      </trkpt>
      <trkpt lat="42.99245" lon="1.13725">
        <ele>439.3</ele>
        <time>2025-12-28T08:24:24.000Z</time>
      </trkpt>
      <trkpt lat="42.99248" lon="1.13724">
        <ele>439</ele>
        <time>2025-12-28T08:24:25.000Z</time>
      </trkpt>
      <trkpt lat="42.99251" lon="1.13723">
        <ele>439.1</ele>
        <time>2025-12-28T08:24:26.000Z</time>
      </trkpt>
      <trkpt lat="42.99253" lon="1.13722">
        <ele>439.1</ele>
        <time>2025-12-28T08:24:27.000Z</time>
      </trkpt>
      <trkpt lat="42.99256" lon="1.13721">
        <ele>438.9</ele>
        <time>2025-12-28T08:24:28.000Z</time>
      </trkpt>
      <trkpt lat="42.99259" lon="1.1372">
        <ele>438.8</ele>
        <time>2025-12-28T08:24:29.000Z</time>
      </trkpt>
      <trkpt lat="42.99262" lon="1.13718">
        <ele>438.9</ele>
        <time>2025-12-28T08:24:30.000Z</time>
      </trkpt>
      <trkpt lat="42.99264" lon="1.13717">
        <ele>439</ele>
        <time>2025-12-28T08:24:31.000Z</time>
      </trkpt>
      <trkpt lat="42.99267" lon="1.13716">
        <ele>438.8</ele>
        <time>2025-12-28T08:24:32.000Z</time>
      </trkpt>
      <trkpt lat="42.99269" lon="1.13715">
        <ele>438.8</ele>
        <time>2025-12-28T08:24:33.000Z</time>
      </trkpt>
      <trkpt lat="42.99272" lon="1.13714">
        <ele>438.6</ele>
        <time>2025-12-28T08:24:34.000Z</time>
      </trkpt>
      <trkpt lat="42.99275" lon="1.13713">
        <ele>438.4</ele>
        <time>2025-12-28T08:24:35.000Z</time>
      </trkpt>
      <trkpt lat="42.99277" lon="1.13712">
        <ele>438.3</ele>
        <time>2025-12-28T08:24:36.000Z</time>
      </trkpt>
      <trkpt lat="42.9928" lon="1.13712">
        <ele>437.8</ele>
        <time>2025-12-28T08:24:37.000Z</time>
      </trkpt>
      <trkpt lat="42.99282" lon="1.13711">
        <ele>438</ele>
        <time>2025-12-28T08:24:38.000Z</time>
      </trkpt>
      <trkpt lat="42.99285" lon="1.1371">
        <ele>438.2</ele>
        <time>2025-12-28T08:24:39.000Z</time>
      </trkpt>
      <trkpt lat="42.99287" lon="1.13709">
        <ele>438</ele>
        <time>2025-12-28T08:24:40.000Z</time>
      </trkpt>
      <trkpt lat="42.99289" lon="1.13708">
        <ele>438.4</ele>
        <time>2025-12-28T08:24:41.000Z</time>
      </trkpt>
      <trkpt lat="42.99292" lon="1.13706">
        <ele>438.5</ele>
        <time>2025-12-28T08:24:42.000Z</time>
      </trkpt>
      <trkpt lat="42.99295" lon="1.13706">
        <ele>438.7</ele>
        <time>2025-12-28T08:24:43.000Z</time>
      </trkpt>
      <trkpt lat="42.99297" lon="1.13705">
        <ele>439</ele>
        <time>2025-12-28T08:24:44.000Z</time>
      </trkpt>
      <trkpt lat="42.993" lon="1.13704">
        <ele>439</ele>
        <time>2025-12-28T08:24:45.000Z</time>
      </trkpt>
      <trkpt lat="42.99303" lon="1.13702">
        <ele>439.1</ele>
        <time>2025-12-28T08:24:46.000Z</time>
      </trkpt>
      <trkpt lat="42.99306" lon="1.13701">
        <ele>438.9</ele>
        <time>2025-12-28T08:24:47.000Z</time>
      </trkpt>
      <trkpt lat="42.99308" lon="1.137">
        <ele>439.1</ele>
        <time>2025-12-28T08:24:48.000Z</time>
      </trkpt>
      <trkpt lat="42.99311" lon="1.13698">
        <ele>439.1</ele>
        <time>2025-12-28T08:24:49.000Z</time>
      </trkpt>
      <trkpt lat="42.99314" lon="1.13697">
        <ele>438.8</ele>
        <time>2025-12-28T08:24:50.000Z</time>
      </trkpt>
      <trkpt lat="42.99317" lon="1.13696">
        <ele>439.2</ele>
        <time>2025-12-28T08:24:51.000Z</time>
      </trkpt>
      <trkpt lat="42.99319" lon="1.13695">
        <ele>439.4</ele>
        <time>2025-12-28T08:24:52.000Z</time>
      </trkpt>
      <trkpt lat="42.99322" lon="1.13694">
        <ele>439.5</ele>
        <time>2025-12-28T08:24:53.000Z</time>
      </trkpt>
      <trkpt lat="42.99325" lon="1.13693">
        <ele>439.7</ele>
        <time>2025-12-28T08:24:54.000Z</time>
      </trkpt>
      <trkpt lat="42.99328" lon="1.13692">
        <ele>439.7</ele>
        <time>2025-12-28T08:24:55.000Z</time>
      </trkpt>
      <trkpt lat="42.99331" lon="1.1369">
        <ele>439.7</ele>
        <time>2025-12-28T08:24:56.000Z</time>
      </trkpt>
      <trkpt lat="42.99334" lon="1.13689">
        <ele>439.6</ele>
        <time>2025-12-28T08:24:57.000Z</time>
      </trkpt>
      <trkpt lat="42.99336" lon="1.13689">
        <ele>439.5</ele>
        <time>2025-12-28T08:24:58.000Z</time>
      </trkpt>
      <trkpt lat="42.99339" lon="1.13687">
        <ele>439.6</ele>
        <time>2025-12-28T08:24:59.000Z</time>
      </trkpt>
      <trkpt lat="42.99342" lon="1.13686">
        <ele>439.6</ele>
        <time>2025-12-28T08:25:00.000Z</time>
      </trkpt>
      <trkpt lat="42.99345" lon="1.13685">
        <ele>439.8</ele>
        <time>2025-12-28T08:25:01.000Z</time>
      </trkpt>
      <trkpt lat="42.99348" lon="1.13684">
        <ele>440.1</ele>
        <time>2025-12-28T08:25:02.000Z</time>
      </trkpt>
      <trkpt lat="42.9935" lon="1.13683">
        <ele>439.8</ele>
        <time>2025-12-28T08:25:03.000Z</time>
      </trkpt>
      <trkpt lat="42.99353" lon="1.13682">
        <ele>440</ele>
        <time>2025-12-28T08:25:04.000Z</time>
      </trkpt>
      <trkpt lat="42.99356" lon="1.13681">
        <ele>439.9</ele>
        <time>2025-12-28T08:25:05.000Z</time>
      </trkpt>
      <trkpt lat="42.99358" lon="1.1368">
        <ele>440.3</ele>
        <time>2025-12-28T08:25:06.000Z</time>
      </trkpt>
      <trkpt lat="42.99361" lon="1.13679">
        <ele>440.5</ele>
        <time>2025-12-28T08:25:07.000Z</time>
      </trkpt>
      <trkpt lat="42.99363" lon="1.13678">
        <ele>440.3</ele>
        <time>2025-12-28T08:25:08.000Z</time>
      </trkpt>
      <trkpt lat="42.99366" lon="1.13677">
        <ele>440.4</ele>
        <time>2025-12-28T08:25:09.000Z</time>
      </trkpt>
      <trkpt lat="42.99368" lon="1.13675">
        <ele>441.4</ele>
        <time>2025-12-28T08:25:10.000Z</time>
      </trkpt>
      <trkpt lat="42.99371" lon="1.13674">
        <ele>441.7</ele>
        <time>2025-12-28T08:25:11.000Z</time>
      </trkpt>
      <trkpt lat="42.99375" lon="1.13673">
        <ele>441.3</ele>
        <time>2025-12-28T08:25:12.000Z</time>
      </trkpt>
      <trkpt lat="42.99378" lon="1.13672">
        <ele>441.3</ele>
        <time>2025-12-28T08:25:13.000Z</time>
      </trkpt>
      <trkpt lat="42.99381" lon="1.13671">
        <ele>441.7</ele>
        <time>2025-12-28T08:25:14.000Z</time>
      </trkpt>
      <trkpt lat="42.99384" lon="1.1367">
        <ele>441.6</ele>
        <time>2025-12-28T08:25:15.000Z</time>
      </trkpt>
      <trkpt lat="42.99387" lon="1.13668">
        <ele>441.7</ele>
        <time>2025-12-28T08:25:16.000Z</time>
      </trkpt>
      <trkpt lat="42.9939" lon="1.13667">
        <ele>442.1</ele>
        <time>2025-12-28T08:25:17.000Z</time>
      </trkpt>
      <trkpt lat="42.99392" lon="1.13666">
        <ele>442.4</ele>
        <time>2025-12-28T08:25:18.000Z</time>
      </trkpt>
      <trkpt lat="42.99395" lon="1.13665">
        <ele>442</ele>
        <time>2025-12-28T08:25:19.000Z</time>
      </trkpt>
      <trkpt lat="42.99398" lon="1.13664">
        <ele>442.2</ele>
        <time>2025-12-28T08:25:20.000Z</time>
      </trkpt>
      <trkpt lat="42.99401" lon="1.13663">
        <ele>442.2</ele>
        <time>2025-12-28T08:25:21.000Z</time>
      </trkpt>
      <trkpt lat="42.99404" lon="1.13662">
        <ele>442</ele>
        <time>2025-12-28T08:25:22.000Z</time>
      </trkpt>
      <trkpt lat="42.99407" lon="1.13661">
        <ele>441.9</ele>
        <time>2025-12-28T08:25:23.000Z</time>
      </trkpt>
      <trkpt lat="42.9941" lon="1.1366">
        <ele>442.1</ele>
        <time>2025-12-28T08:25:24.000Z</time>
      </trkpt>
      <trkpt lat="42.99412" lon="1.13659">
        <ele>442.5</ele>
        <time>2025-12-28T08:25:25.000Z</time>
      </trkpt>
      <trkpt lat="42.99415" lon="1.13659">
        <ele>442.7</ele>
        <time>2025-12-28T08:25:26.000Z</time>
      </trkpt>
      <trkpt lat="42.99417" lon="1.13658">
        <ele>442.3</ele>
        <time>2025-12-28T08:25:27.000Z</time>
      </trkpt>
      <trkpt lat="42.9942" lon="1.13657">
        <ele>442.3</ele>
        <time>2025-12-28T08:25:28.000Z</time>
      </trkpt>
      <trkpt lat="42.99423" lon="1.13657">
        <ele>442.5</ele>
        <time>2025-12-28T08:25:29.000Z</time>
      </trkpt>
      <trkpt lat="42.99425" lon="1.13656">
        <ele>442.6</ele>
        <time>2025-12-28T08:25:30.000Z</time>
      </trkpt>
      <trkpt lat="42.99428" lon="1.13656">
        <ele>442.5</ele>
        <time>2025-12-28T08:25:31.000Z</time>
      </trkpt>
      <trkpt lat="42.99431" lon="1.13655">
        <ele>442.2</ele>
        <time>2025-12-28T08:25:32.000Z</time>
      </trkpt>
      <trkpt lat="42.99433" lon="1.13655">
        <ele>442.9</ele>
        <time>2025-12-28T08:25:33.000Z</time>
      </trkpt>
      <trkpt lat="42.99435" lon="1.13654">
        <ele>442.6</ele>
        <time>2025-12-28T08:25:34.000Z</time>
      </trkpt>
      <trkpt lat="42.99438" lon="1.13654">
        <ele>442</ele>
        <time>2025-12-28T08:25:35.000Z</time>
      </trkpt>
      <trkpt lat="42.99441" lon="1.13652">
        <ele>441.4</ele>
        <time>2025-12-28T08:25:36.000Z</time>
      </trkpt>
      <trkpt lat="42.99444" lon="1.1365">
        <ele>441.1</ele>
        <time>2025-12-28T08:25:37.000Z</time>
      </trkpt>
      <trkpt lat="42.99447" lon="1.13648">
        <ele>441.7</ele>
        <time>2025-12-28T08:25:38.000Z</time>
      </trkpt>
      <trkpt lat="42.99449" lon="1.13647">
        <ele>441.4</ele>
        <time>2025-12-28T08:25:39.000Z</time>
      </trkpt>
      <trkpt lat="42.99452" lon="1.13646">
        <ele>441.2</ele>
        <time>2025-12-28T08:25:40.000Z</time>
      </trkpt>
      <trkpt lat="42.99455" lon="1.13645">
        <ele>441.6</ele>
        <time>2025-12-28T08:25:41.000Z</time>
      </trkpt>
      <trkpt lat="42.99457" lon="1.13644">
        <ele>441.8</ele>
        <time>2025-12-28T08:25:42.000Z</time>
      </trkpt>
      <trkpt lat="42.9946" lon="1.13643">
        <ele>442.6</ele>
        <time>2025-12-28T08:25:43.000Z</time>
      </trkpt>
      <trkpt lat="42.99463" lon="1.13642">
        <ele>442.7</ele>
        <time>2025-12-28T08:25:44.000Z</time>
      </trkpt>
      <trkpt lat="42.99465" lon="1.13641">
        <ele>442</ele>
        <time>2025-12-28T08:25:45.000Z</time>
      </trkpt>
      <trkpt lat="42.99468" lon="1.1364">
        <ele>441.8</ele>
        <time>2025-12-28T08:25:46.000Z</time>
      </trkpt>
      <trkpt lat="42.99471" lon="1.13639">
        <ele>442.2</ele>
        <time>2025-12-28T08:25:47.000Z</time>
      </trkpt>
      <trkpt lat="42.99474" lon="1.13639">
        <ele>442</ele>
        <time>2025-12-28T08:25:48.000Z</time>
      </trkpt>
      <trkpt lat="42.99477" lon="1.13638">
        <ele>441.7</ele>
        <time>2025-12-28T08:25:49.000Z</time>
      </trkpt>
      <trkpt lat="42.99479" lon="1.13637">
        <ele>441.4</ele>
        <time>2025-12-28T08:25:50.000Z</time>
      </trkpt>
      <trkpt lat="42.99482" lon="1.13635">
        <ele>442.1</ele>
        <time>2025-12-28T08:25:51.000Z</time>
      </trkpt>
      <trkpt lat="42.99484" lon="1.13635">
        <ele>442.6</ele>
        <time>2025-12-28T08:25:52.000Z</time>
      </trkpt>
      <trkpt lat="42.99487" lon="1.13634">
        <ele>442</ele>
        <time>2025-12-28T08:25:53.000Z</time>
      </trkpt>
      <trkpt lat="42.99489" lon="1.13633">
        <ele>441.5</ele>
        <time>2025-12-28T08:25:54.000Z</time>
      </trkpt>
      <trkpt lat="42.99492" lon="1.13632">
        <ele>441</ele>
        <time>2025-12-28T08:25:55.000Z</time>
      </trkpt>
      <trkpt lat="42.99494" lon="1.13631">
        <ele>440.9</ele>
        <time>2025-12-28T08:25:56.000Z</time>
      </trkpt>
      <trkpt lat="42.99497" lon="1.1363">
        <ele>440.1</ele>
        <time>2025-12-28T08:25:57.000Z</time>
      </trkpt>
      <trkpt lat="42.995" lon="1.13629">
        <ele>440.1</ele>
        <time>2025-12-28T08:25:58.000Z</time>
      </trkpt>
      <trkpt lat="42.99503" lon="1.13628">
        <ele>440.5</ele>
        <time>2025-12-28T08:25:59.000Z</time>
      </trkpt>
      <trkpt lat="42.99507" lon="1.13627">
        <ele>440.3</ele>
        <time>2025-12-28T08:26:00.000Z</time>
      </trkpt>
      <trkpt lat="42.9951" lon="1.13625">
        <ele>439.9</ele>
        <time>2025-12-28T08:26:01.000Z</time>
      </trkpt>
      <trkpt lat="42.99514" lon="1.13624">
        <ele>440.5</ele>
        <time>2025-12-28T08:26:02.000Z</time>
      </trkpt>
      <trkpt lat="42.99517" lon="1.13623">
        <ele>440</ele>
        <time>2025-12-28T08:26:03.000Z</time>
      </trkpt>
      <trkpt lat="42.9952" lon="1.13622">
        <ele>439.7</ele>
        <time>2025-12-28T08:26:04.000Z</time>
      </trkpt>
      <trkpt lat="42.99524" lon="1.13621">
        <ele>439.1</ele>
        <time>2025-12-28T08:26:05.000Z</time>
      </trkpt>
      <trkpt lat="42.99527" lon="1.13621">
        <ele>438.7</ele>
        <time>2025-12-28T08:26:06.000Z</time>
      </trkpt>
      <trkpt lat="42.9953" lon="1.1362">
        <ele>439.1</ele>
        <time>2025-12-28T08:26:07.000Z</time>
      </trkpt>
      <trkpt lat="42.99533" lon="1.1362">
        <ele>439.2</ele>
        <time>2025-12-28T08:26:08.000Z</time>
      </trkpt>
      <trkpt lat="42.99536" lon="1.13619">
        <ele>439.1</ele>
        <time>2025-12-28T08:26:09.000Z</time>
      </trkpt>
      <trkpt lat="42.9954" lon="1.13618">
        <ele>439.1</ele>
        <time>2025-12-28T08:26:10.000Z</time>
      </trkpt>
      <trkpt lat="42.99543" lon="1.13617">
        <ele>439.3</ele>
        <time>2025-12-28T08:26:11.000Z</time>
      </trkpt>
      <trkpt lat="42.99546" lon="1.13616">
        <ele>438.6</ele>
        <time>2025-12-28T08:26:12.000Z</time>
      </trkpt>
      <trkpt lat="42.9955" lon="1.13616">
        <ele>438.8</ele>
        <time>2025-12-28T08:26:13.000Z</time>
      </trkpt>
      <trkpt lat="42.99553" lon="1.13615">
        <ele>437.9</ele>
        <time>2025-12-28T08:26:14.000Z</time>
      </trkpt>
      <trkpt lat="42.99557" lon="1.13614">
        <ele>437.9</ele>
        <time>2025-12-28T08:26:15.000Z</time>
      </trkpt>
      <trkpt lat="42.9956" lon="1.13613">
        <ele>437.4</ele>
        <time>2025-12-28T08:26:16.000Z</time>
      </trkpt>
      <trkpt lat="42.99563" lon="1.13612">
        <ele>437.7</ele>
        <time>2025-12-28T08:26:17.000Z</time>
      </trkpt>
      <trkpt lat="42.99567" lon="1.13612">
        <ele>438.4</ele>
        <time>2025-12-28T08:26:18.000Z</time>
      </trkpt>
      <trkpt lat="42.9957" lon="1.13611">
        <ele>439.5</ele>
        <time>2025-12-28T08:26:19.000Z</time>
      </trkpt>
      <trkpt lat="42.99574" lon="1.13611">
        <ele>439</ele>
        <time>2025-12-28T08:26:20.000Z</time>
      </trkpt>
      <trkpt lat="42.99578" lon="1.13611">
        <ele>437.9</ele>
        <time>2025-12-28T08:26:21.000Z</time>
      </trkpt>
      <trkpt lat="42.99582" lon="1.1361">
        <ele>436.9</ele>
        <time>2025-12-28T08:26:22.000Z</time>
      </trkpt>
      <trkpt lat="42.99585" lon="1.13609">
        <ele>437.4</ele>
        <time>2025-12-28T08:26:23.000Z</time>
      </trkpt>
      <trkpt lat="42.99589" lon="1.13609">
        <ele>437.3</ele>
        <time>2025-12-28T08:26:24.000Z</time>
      </trkpt>
      <trkpt lat="42.99592" lon="1.13608">
        <ele>437.2</ele>
        <time>2025-12-28T08:26:25.000Z</time>
      </trkpt>
      <trkpt lat="42.99596" lon="1.13607">
        <ele>436.9</ele>
        <time>2025-12-28T08:26:26.000Z</time>
      </trkpt>
      <trkpt lat="42.996" lon="1.13606">
        <ele>436</ele>
        <time>2025-12-28T08:26:27.000Z</time>
      </trkpt>
      <trkpt lat="42.99603" lon="1.13605">
        <ele>435.7</ele>
        <time>2025-12-28T08:26:28.000Z</time>
      </trkpt>
      <trkpt lat="42.99606" lon="1.13604">
        <ele>435.5</ele>
        <time>2025-12-28T08:26:29.000Z</time>
      </trkpt>
      <trkpt lat="42.9961" lon="1.13604">
        <ele>434.9</ele>
        <time>2025-12-28T08:26:30.000Z</time>
      </trkpt>
      <trkpt lat="42.99613" lon="1.13603">
        <ele>435.1</ele>
        <time>2025-12-28T08:26:31.000Z</time>
      </trkpt>
      <trkpt lat="42.99617" lon="1.13603">
        <ele>434.7</ele>
        <time>2025-12-28T08:26:32.000Z</time>
      </trkpt>
      <trkpt lat="42.99621" lon="1.13602">
        <ele>434.8</ele>
        <time>2025-12-28T08:26:33.000Z</time>
      </trkpt>
      <trkpt lat="42.99624" lon="1.13601">
        <ele>435.2</ele>
        <time>2025-12-28T08:26:34.000Z</time>
      </trkpt>
      <trkpt lat="42.99627" lon="1.13601">
        <ele>436</ele>
        <time>2025-12-28T08:26:35.000Z</time>
      </trkpt>
      <trkpt lat="42.9963" lon="1.13601">
        <ele>436.7</ele>
        <time>2025-12-28T08:26:36.000Z</time>
      </trkpt>
      <trkpt lat="42.99633" lon="1.136">
        <ele>437</ele>
        <time>2025-12-28T08:26:37.000Z</time>
      </trkpt>
      <trkpt lat="42.99636" lon="1.13598">
        <ele>435.9</ele>
        <time>2025-12-28T08:26:38.000Z</time>
      </trkpt>
      <trkpt lat="42.9964" lon="1.13597">
        <ele>436.6</ele>
        <time>2025-12-28T08:26:39.000Z</time>
      </trkpt>
      <trkpt lat="42.99644" lon="1.13595">
        <ele>435</ele>
        <time>2025-12-28T08:26:40.000Z</time>
      </trkpt>
      <trkpt lat="42.99647" lon="1.13593">
        <ele>435.3</ele>
        <time>2025-12-28T08:26:41.000Z</time>
      </trkpt>
      <trkpt lat="42.99651" lon="1.13591">
        <ele>435.5</ele>
        <time>2025-12-28T08:26:42.000Z</time>
      </trkpt>
      <trkpt lat="42.99654" lon="1.13589">
        <ele>435.8</ele>
        <time>2025-12-28T08:26:43.000Z</time>
      </trkpt>
      <trkpt lat="42.99658" lon="1.13588">
        <ele>436.2</ele>
        <time>2025-12-28T08:26:44.000Z</time>
      </trkpt>
      <trkpt lat="42.99661" lon="1.13586">
        <ele>436.4</ele>
        <time>2025-12-28T08:26:45.000Z</time>
      </trkpt>
      <trkpt lat="42.99664" lon="1.13585">
        <ele>436.6</ele>
        <time>2025-12-28T08:26:46.000Z</time>
      </trkpt>
      <trkpt lat="42.99668" lon="1.13583">
        <ele>435.8</ele>
        <time>2025-12-28T08:26:47.000Z</time>
      </trkpt>
      <trkpt lat="42.99671" lon="1.13582">
        <ele>436.9</ele>
        <time>2025-12-28T08:26:48.000Z</time>
      </trkpt>
      <trkpt lat="42.99674" lon="1.13581">
        <ele>437.4</ele>
        <time>2025-12-28T08:26:49.000Z</time>
      </trkpt>
      <trkpt lat="42.99677" lon="1.1358">
        <ele>437</ele>
        <time>2025-12-28T08:26:50.000Z</time>
      </trkpt>
      <trkpt lat="42.9968" lon="1.13578">
        <ele>436.3</ele>
        <time>2025-12-28T08:26:51.000Z</time>
      </trkpt>
      <trkpt lat="42.99683" lon="1.13577">
        <ele>436.1</ele>
        <time>2025-12-28T08:26:52.000Z</time>
      </trkpt>
      <trkpt lat="42.99686" lon="1.13575">
        <ele>436.4</ele>
        <time>2025-12-28T08:26:53.000Z</time>
      </trkpt>
      <trkpt lat="42.9969" lon="1.13574">
        <ele>436.2</ele>
        <time>2025-12-28T08:26:54.000Z</time>
      </trkpt>
      <trkpt lat="42.99693" lon="1.13572">
        <ele>435.9</ele>
        <time>2025-12-28T08:26:55.000Z</time>
      </trkpt>
      <trkpt lat="42.99696" lon="1.13571">
        <ele>435.6</ele>
        <time>2025-12-28T08:26:56.000Z</time>
      </trkpt>
      <trkpt lat="42.997" lon="1.13569">
        <ele>436.3</ele>
        <time>2025-12-28T08:26:57.000Z</time>
      </trkpt>
      <trkpt lat="42.99703" lon="1.13568">
        <ele>436.1</ele>
        <time>2025-12-28T08:26:58.000Z</time>
      </trkpt>
      <trkpt lat="42.99706" lon="1.13566">
        <ele>435.7</ele>
        <time>2025-12-28T08:26:59.000Z</time>
      </trkpt>
      <trkpt lat="42.9971" lon="1.13564">
        <ele>435</ele>
        <time>2025-12-28T08:27:00.000Z</time>
      </trkpt>
      <trkpt lat="42.99713" lon="1.13563">
        <ele>435.8</ele>
        <time>2025-12-28T08:27:01.000Z</time>
      </trkpt>
      <trkpt lat="42.99717" lon="1.13561">
        <ele>436.1</ele>
        <time>2025-12-28T08:27:02.000Z</time>
      </trkpt>
      <trkpt lat="42.9972" lon="1.13559">
        <ele>435.6</ele>
        <time>2025-12-28T08:27:03.000Z</time>
      </trkpt>
      <trkpt lat="42.99723" lon="1.13558">
        <ele>435.9</ele>
        <time>2025-12-28T08:27:04.000Z</time>
      </trkpt>
      <trkpt lat="42.99727" lon="1.13556">
        <ele>436.3</ele>
        <time>2025-12-28T08:27:05.000Z</time>
      </trkpt>
      <trkpt lat="42.9973" lon="1.13554">
        <ele>436.4</ele>
        <time>2025-12-28T08:27:06.000Z</time>
      </trkpt>
      <trkpt lat="42.99734" lon="1.13552">
        <ele>435.9</ele>
        <time>2025-12-28T08:27:07.000Z</time>
      </trkpt>
      <trkpt lat="42.99737" lon="1.1355">
        <ele>435.7</ele>
        <time>2025-12-28T08:27:08.000Z</time>
      </trkpt>
      <trkpt lat="42.99741" lon="1.13548">
        <ele>436.1</ele>
        <time>2025-12-28T08:27:09.000Z</time>
      </trkpt>
      <trkpt lat="42.99744" lon="1.13546">
        <ele>434.6</ele>
        <time>2025-12-28T08:27:10.000Z</time>
      </trkpt>
      <trkpt lat="42.99747" lon="1.13545">
        <ele>434.7</ele>
        <time>2025-12-28T08:27:11.000Z</time>
      </trkpt>
      <trkpt lat="42.9975" lon="1.13543">
        <ele>435.2</ele>
        <time>2025-12-28T08:27:12.000Z</time>
      </trkpt>
      <trkpt lat="42.99754" lon="1.13541">
        <ele>434.6</ele>
        <time>2025-12-28T08:27:13.000Z</time>
      </trkpt>
      <trkpt lat="42.99757" lon="1.1354">
        <ele>435.2</ele>
        <time>2025-12-28T08:27:14.000Z</time>
      </trkpt>
      <trkpt lat="42.9976" lon="1.13538">
        <ele>434.8</ele>
        <time>2025-12-28T08:27:15.000Z</time>
      </trkpt>
      <trkpt lat="42.99763" lon="1.13536">
        <ele>435.1</ele>
        <time>2025-12-28T08:27:16.000Z</time>
      </trkpt>
      <trkpt lat="42.99767" lon="1.13535">
        <ele>435.3</ele>
        <time>2025-12-28T08:27:17.000Z</time>
      </trkpt>
      <trkpt lat="42.9977" lon="1.13533">
        <ele>435.2</ele>
        <time>2025-12-28T08:27:18.000Z</time>
      </trkpt>
      <trkpt lat="42.99773" lon="1.13532">
        <ele>435.5</ele>
        <time>2025-12-28T08:27:19.000Z</time>
      </trkpt>
      <trkpt lat="42.99777" lon="1.1353">
        <ele>435.5</ele>
        <time>2025-12-28T08:27:20.000Z</time>
      </trkpt>
      <trkpt lat="42.9978" lon="1.13528">
        <ele>435.5</ele>
        <time>2025-12-28T08:27:21.000Z</time>
      </trkpt>
      <trkpt lat="42.99783" lon="1.13527">
        <ele>434.4</ele>
        <time>2025-12-28T08:27:22.000Z</time>
      </trkpt>
      <trkpt lat="42.99786" lon="1.13525">
        <ele>434.9</ele>
        <time>2025-12-28T08:27:23.000Z</time>
      </trkpt>
      <trkpt lat="42.9979" lon="1.13523">
        <ele>434.8</ele>
        <time>2025-12-28T08:27:24.000Z</time>
      </trkpt>
      <trkpt lat="42.99793" lon="1.13522">
        <ele>434.7</ele>
        <time>2025-12-28T08:27:25.000Z</time>
      </trkpt>
      <trkpt lat="42.99796" lon="1.1352">
        <ele>435</ele>
        <time>2025-12-28T08:27:26.000Z</time>
      </trkpt>
      <trkpt lat="42.998" lon="1.13519">
        <ele>435.4</ele>
        <time>2025-12-28T08:27:27.000Z</time>
      </trkpt>
      <trkpt lat="42.99804" lon="1.13517">
        <ele>434.3</ele>
        <time>2025-12-28T08:27:28.000Z</time>
      </trkpt>
      <trkpt lat="42.99807" lon="1.13516">
        <ele>434.9</ele>
        <time>2025-12-28T08:27:29.000Z</time>
      </trkpt>
      <trkpt lat="42.9981" lon="1.13515">
        <ele>434.4</ele>
        <time>2025-12-28T08:27:30.000Z</time>
      </trkpt>
      <trkpt lat="42.99813" lon="1.13513">
        <ele>435.3</ele>
        <time>2025-12-28T08:27:31.000Z</time>
      </trkpt>
      <trkpt lat="42.99817" lon="1.13512">
        <ele>434.4</ele>
        <time>2025-12-28T08:27:32.000Z</time>
      </trkpt>
      <trkpt lat="42.9982" lon="1.1351">
        <ele>434.7</ele>
        <time>2025-12-28T08:27:33.000Z</time>
      </trkpt>
      <trkpt lat="42.99823" lon="1.13508">
        <ele>434.5</ele>
        <time>2025-12-28T08:27:34.000Z</time>
      </trkpt>
      <trkpt lat="42.99826" lon="1.13506">
        <ele>433.9</ele>
        <time>2025-12-28T08:27:35.000Z</time>
      </trkpt>
      <trkpt lat="42.99829" lon="1.13505">
        <ele>434.2</ele>
        <time>2025-12-28T08:27:36.000Z</time>
      </trkpt>
      <trkpt lat="42.99832" lon="1.13503">
        <ele>434.5</ele>
        <time>2025-12-28T08:27:37.000Z</time>
      </trkpt>
      <trkpt lat="42.99836" lon="1.13502">
        <ele>434.6</ele>
        <time>2025-12-28T08:27:38.000Z</time>
      </trkpt>
      <trkpt lat="42.99839" lon="1.135">
        <ele>434.4</ele>
        <time>2025-12-28T08:27:39.000Z</time>
      </trkpt>
      <trkpt lat="42.99842" lon="1.13499">
        <ele>434.5</ele>
        <time>2025-12-28T08:27:40.000Z</time>
      </trkpt>
      <trkpt lat="42.99845" lon="1.13497">
        <ele>434.5</ele>
        <time>2025-12-28T08:27:41.000Z</time>
      </trkpt>
      <trkpt lat="42.99848" lon="1.13496">
        <ele>434</ele>
        <time>2025-12-28T08:27:42.000Z</time>
      </trkpt>
      <trkpt lat="42.99851" lon="1.13495">
        <ele>433.8</ele>
        <time>2025-12-28T08:27:43.000Z</time>
      </trkpt>
      <trkpt lat="42.99855" lon="1.13493">
        <ele>434.1</ele>
        <time>2025-12-28T08:27:44.000Z</time>
      </trkpt>
      <trkpt lat="42.99858" lon="1.13492">
        <ele>434</ele>
        <time>2025-12-28T08:27:45.000Z</time>
      </trkpt>
      <trkpt lat="42.99861" lon="1.13491">
        <ele>434.4</ele>
        <time>2025-12-28T08:27:46.000Z</time>
      </trkpt>
      <trkpt lat="42.99865" lon="1.1349">
        <ele>434</ele>
        <time>2025-12-28T08:27:47.000Z</time>
      </trkpt>
      <trkpt lat="42.99868" lon="1.13488">
        <ele>434.3</ele>
        <time>2025-12-28T08:27:48.000Z</time>
      </trkpt>
      <trkpt lat="42.99871" lon="1.13487">
        <ele>434.9</ele>
        <time>2025-12-28T08:27:49.000Z</time>
      </trkpt>
      <trkpt lat="42.99874" lon="1.13486">
        <ele>435.3</ele>
        <time>2025-12-28T08:27:50.000Z</time>
      </trkpt>
      <trkpt lat="42.99877" lon="1.13485">
        <ele>436.1</ele>
        <time>2025-12-28T08:27:51.000Z</time>
      </trkpt>
      <trkpt lat="42.99881" lon="1.13484">
        <ele>435.8</ele>
        <time>2025-12-28T08:27:52.000Z</time>
      </trkpt>
      <trkpt lat="42.99884" lon="1.13483">
        <ele>435.1</ele>
        <time>2025-12-28T08:27:53.000Z</time>
      </trkpt>
      <trkpt lat="42.99887" lon="1.13482">
        <ele>435.2</ele>
        <time>2025-12-28T08:27:54.000Z</time>
      </trkpt>
      <trkpt lat="42.99891" lon="1.13481">
        <ele>435.2</ele>
        <time>2025-12-28T08:27:55.000Z</time>
      </trkpt>
      <trkpt lat="42.99894" lon="1.1348">
        <ele>435.3</ele>
        <time>2025-12-28T08:27:56.000Z</time>
      </trkpt>
      <trkpt lat="42.99897" lon="1.13478">
        <ele>435.2</ele>
        <time>2025-12-28T08:27:57.000Z</time>
      </trkpt>
      <trkpt lat="42.99901" lon="1.13477">
        <ele>435.1</ele>
        <time>2025-12-28T08:27:58.000Z</time>
      </trkpt>
      <trkpt lat="42.99904" lon="1.13476">
        <ele>435.1</ele>
        <time>2025-12-28T08:27:59.000Z</time>
      </trkpt>
      <trkpt lat="42.99907" lon="1.13474">
        <ele>435.3</ele>
        <time>2025-12-28T08:28:00.000Z</time>
      </trkpt>
      <trkpt lat="42.99911" lon="1.13473">
        <ele>435.1</ele>
        <time>2025-12-28T08:28:01.000Z</time>
      </trkpt>
      <trkpt lat="42.99914" lon="1.13472">
        <ele>435.4</ele>
        <time>2025-12-28T08:28:02.000Z</time>
      </trkpt>
      <trkpt lat="42.99917" lon="1.13471">
        <ele>435.6</ele>
        <time>2025-12-28T08:28:03.000Z</time>
      </trkpt>
      <trkpt lat="42.99921" lon="1.1347">
        <ele>435.6</ele>
        <time>2025-12-28T08:28:04.000Z</time>
      </trkpt>
      <trkpt lat="42.99924" lon="1.13469">
        <ele>435.7</ele>
        <time>2025-12-28T08:28:05.000Z</time>
      </trkpt>
      <trkpt lat="42.99927" lon="1.13468">
        <ele>435.8</ele>
        <time>2025-12-28T08:28:06.000Z</time>
      </trkpt>
      <trkpt lat="42.99931" lon="1.13467">
        <ele>436.9</ele>
        <time>2025-12-28T08:28:07.000Z</time>
      </trkpt>
      <trkpt lat="42.99934" lon="1.13465">
        <ele>436.8</ele>
        <time>2025-12-28T08:28:08.000Z</time>
      </trkpt>
      <trkpt lat="42.99938" lon="1.13464">
        <ele>437</ele>
        <time>2025-12-28T08:28:09.000Z</time>
      </trkpt>
      <trkpt lat="42.99941" lon="1.13464">
        <ele>437.6</ele>
        <time>2025-12-28T08:28:10.000Z</time>
      </trkpt>
      <trkpt lat="42.99944" lon="1.13463">
        <ele>437.4</ele>
        <time>2025-12-28T08:28:11.000Z</time>
      </trkpt>
      <trkpt lat="42.99948" lon="1.13462">
        <ele>437.9</ele>
        <time>2025-12-28T08:28:12.000Z</time>
      </trkpt>
      <trkpt lat="42.99951" lon="1.1346">
        <ele>437.7</ele>
        <time>2025-12-28T08:28:13.000Z</time>
      </trkpt>
      <trkpt lat="42.99954" lon="1.13459">
        <ele>437.1</ele>
        <time>2025-12-28T08:28:14.000Z</time>
      </trkpt>
      <trkpt lat="42.99957" lon="1.13457">
        <ele>437</ele>
        <time>2025-12-28T08:28:15.000Z</time>
      </trkpt>
      <trkpt lat="42.9996" lon="1.13456">
        <ele>436.3</ele>
        <time>2025-12-28T08:28:16.000Z</time>
      </trkpt>
      <trkpt lat="42.99964" lon="1.13455">
        <ele>436.9</ele>
        <time>2025-12-28T08:28:17.000Z</time>
      </trkpt>
      <trkpt lat="42.99967" lon="1.13454">
        <ele>436.4</ele>
        <time>2025-12-28T08:28:18.000Z</time>
      </trkpt>
      <trkpt lat="42.9997" lon="1.13452">
        <ele>435.9</ele>
        <time>2025-12-28T08:28:19.000Z</time>
      </trkpt>
      <trkpt lat="42.99973" lon="1.13451">
        <ele>435.8</ele>
        <time>2025-12-28T08:28:20.000Z</time>
      </trkpt>
      <trkpt lat="42.99977" lon="1.1345">
        <ele>435.6</ele>
        <time>2025-12-28T08:28:21.000Z</time>
      </trkpt>
      <trkpt lat="42.9998" lon="1.13448">
        <ele>435.8</ele>
        <time>2025-12-28T08:28:22.000Z</time>
      </trkpt>
      <trkpt lat="42.99983" lon="1.13447">
        <ele>435.7</ele>
        <time>2025-12-28T08:28:23.000Z</time>
      </trkpt>
      <trkpt lat="42.99986" lon="1.13446">
        <ele>435.3</ele>
        <time>2025-12-28T08:28:24.000Z</time>
      </trkpt>
      <trkpt lat="42.9999" lon="1.13445">
        <ele>435.3</ele>
        <time>2025-12-28T08:28:25.000Z</time>
      </trkpt>
      <trkpt lat="42.99993" lon="1.13444">
        <ele>435.1</ele>
        <time>2025-12-28T08:28:26.000Z</time>
      </trkpt>
      <trkpt lat="42.99996" lon="1.13442">
        <ele>435</ele>
        <time>2025-12-28T08:28:27.000Z</time>
      </trkpt>
      <trkpt lat="42.99998" lon="1.13441">
        <ele>434.7</ele>
        <time>2025-12-28T08:28:28.000Z</time>
      </trkpt>
      <trkpt lat="43.00001" lon="1.1344">
        <ele>434.7</ele>
        <time>2025-12-28T08:28:29.000Z</time>
      </trkpt>
      <trkpt lat="43.00004" lon="1.13439">
        <ele>434.6</ele>
        <time>2025-12-28T08:28:30.000Z</time>
      </trkpt>
      <trkpt lat="43.00007" lon="1.13438">
        <ele>434.4</ele>
        <time>2025-12-28T08:28:31.000Z</time>
      </trkpt>
      <trkpt lat="43.0001" lon="1.13437">
        <ele>434</ele>
        <time>2025-12-28T08:28:32.000Z</time>
      </trkpt>
      <trkpt lat="43.00013" lon="1.13436">
        <ele>433.7</ele>
        <time>2025-12-28T08:28:33.000Z</time>
      </trkpt>
      <trkpt lat="43.00016" lon="1.13435">
        <ele>433.6</ele>
        <time>2025-12-28T08:28:34.000Z</time>
      </trkpt>
      <trkpt lat="43.00019" lon="1.13434">
        <ele>433.7</ele>
        <time>2025-12-28T08:28:35.000Z</time>
      </trkpt>
      <trkpt lat="43.00022" lon="1.13433">
        <ele>434</ele>
        <time>2025-12-28T08:28:36.000Z</time>
      </trkpt>
      <trkpt lat="43.00025" lon="1.13432">
        <ele>433.5</ele>
        <time>2025-12-28T08:28:37.000Z</time>
      </trkpt>
      <trkpt lat="43.00028" lon="1.13431">
        <ele>433.9</ele>
        <time>2025-12-28T08:28:38.000Z</time>
      </trkpt>
      <trkpt lat="43.00031" lon="1.1343">
        <ele>434.1</ele>
        <time>2025-12-28T08:28:39.000Z</time>
      </trkpt>
      <trkpt lat="43.00034" lon="1.13429">
        <ele>434</ele>
        <time>2025-12-28T08:28:40.000Z</time>
      </trkpt>
      <trkpt lat="43.00037" lon="1.13427">
        <ele>433.9</ele>
        <time>2025-12-28T08:28:41.000Z</time>
      </trkpt>
      <trkpt lat="43.00041" lon="1.13426">
        <ele>433</ele>
        <time>2025-12-28T08:28:42.000Z</time>
      </trkpt>
      <trkpt lat="43.00045" lon="1.13424">
        <ele>433.3</ele>
        <time>2025-12-28T08:28:43.000Z</time>
      </trkpt>
      <trkpt lat="43.00049" lon="1.13423">
        <ele>433.2</ele>
        <time>2025-12-28T08:28:44.000Z</time>
      </trkpt>
      <trkpt lat="43.00053" lon="1.13421">
        <ele>432.9</ele>
        <time>2025-12-28T08:28:45.000Z</time>
      </trkpt>
      <trkpt lat="43.00057" lon="1.13419">
        <ele>433.1</ele>
        <time>2025-12-28T08:28:46.000Z</time>
      </trkpt>
      <trkpt lat="43.00061" lon="1.13417">
        <ele>433.2</ele>
        <time>2025-12-28T08:28:47.000Z</time>
      </trkpt>
      <trkpt lat="43.00066" lon="1.13414">
        <ele>432.7</ele>
        <time>2025-12-28T08:28:48.000Z</time>
      </trkpt>
      <trkpt lat="43.0007" lon="1.13412">
        <ele>432.9</ele>
        <time>2025-12-28T08:28:49.000Z</time>
      </trkpt>
      <trkpt lat="43.00074" lon="1.1341">
        <ele>432.9</ele>
        <time>2025-12-28T08:28:50.000Z</time>
      </trkpt>
      <trkpt lat="43.00079" lon="1.13408">
        <ele>432.7</ele>
        <time>2025-12-28T08:28:51.000Z</time>
      </trkpt>
      <trkpt lat="43.00082" lon="1.13407">
        <ele>433.2</ele>
        <time>2025-12-28T08:28:52.000Z</time>
      </trkpt>
      <trkpt lat="43.00087" lon="1.13405">
        <ele>432.6</ele>
        <time>2025-12-28T08:28:53.000Z</time>
      </trkpt>
      <trkpt lat="43.0009" lon="1.13402">
        <ele>432</ele>
        <time>2025-12-28T08:28:54.000Z</time>
      </trkpt>
      <trkpt lat="43.00094" lon="1.13397">
        <ele>431</ele>
        <time>2025-12-28T08:28:55.000Z</time>
      </trkpt>
      <trkpt lat="43.00098" lon="1.13394">
        <ele>430.3</ele>
        <time>2025-12-28T08:28:56.000Z</time>
      </trkpt>
      <trkpt lat="43.00102" lon="1.13391">
        <ele>430.6</ele>
        <time>2025-12-28T08:28:57.000Z</time>
      </trkpt>
      <trkpt lat="43.00106" lon="1.13389">
        <ele>430.9</ele>
        <time>2025-12-28T08:28:58.000Z</time>
      </trkpt>
      <trkpt lat="43.00109" lon="1.13387">
        <ele>430.9</ele>
        <time>2025-12-28T08:28:59.000Z</time>
      </trkpt>
      <trkpt lat="43.00112" lon="1.13385">
        <ele>430.9</ele>
        <time>2025-12-28T08:29:00.000Z</time>
      </trkpt>
      <trkpt lat="43.00115" lon="1.13384">
        <ele>431.2</ele>
        <time>2025-12-28T08:29:01.000Z</time>
      </trkpt>
      <trkpt lat="43.00117" lon="1.13386">
        <ele>431.1</ele>
        <time>2025-12-28T08:29:02.000Z</time>
      </trkpt>
      <trkpt lat="43.00118" lon="1.13389">
        <ele>430.9</ele>
        <time>2025-12-28T08:29:03.000Z</time>
      </trkpt>
      <trkpt lat="43.00118" lon="1.13393">
        <ele>431.3</ele>
        <time>2025-12-28T08:29:04.000Z</time>
      </trkpt>
      <trkpt lat="43.00113" lon="1.13397">
        <ele>430.9</ele>
        <time>2025-12-28T08:29:05.000Z</time>
      </trkpt>
      <trkpt lat="43.00108" lon="1.134">
        <ele>430.7</ele>
        <time>2025-12-28T08:29:06.000Z</time>
      </trkpt>
      <trkpt lat="43.00103" lon="1.13404">
        <ele>430.7</ele>
        <time>2025-12-28T08:29:07.000Z</time>
      </trkpt>
      <trkpt lat="43.00098" lon="1.13408">
        <ele>430.7</ele>
        <time>2025-12-28T08:29:08.000Z</time>
      </trkpt>
      <trkpt lat="43.00092" lon="1.1341">
        <ele>429.9</ele>
        <time>2025-12-28T08:29:09.000Z</time>
      </trkpt>
      <trkpt lat="43.00087" lon="1.13413">
        <ele>430</ele>
        <time>2025-12-28T08:29:10.000Z</time>
      </trkpt>
      <trkpt lat="43.00082" lon="1.13415">
        <ele>429.5</ele>
        <time>2025-12-28T08:29:11.000Z</time>
      </trkpt>
      <trkpt lat="43.00077" lon="1.13418">
        <ele>429.6</ele>
        <time>2025-12-28T08:29:12.000Z</time>
      </trkpt>
      <trkpt lat="43.00071" lon="1.1342">
        <ele>429.8</ele>
        <time>2025-12-28T08:29:13.000Z</time>
      </trkpt>
      <trkpt lat="43.00066" lon="1.13422">
        <ele>429.9</ele>
        <time>2025-12-28T08:29:14.000Z</time>
      </trkpt>
      <trkpt lat="43.00062" lon="1.13425">
        <ele>430.2</ele>
        <time>2025-12-28T08:29:15.000Z</time>
      </trkpt>
      <trkpt lat="43.00057" lon="1.13427">
        <ele>430</ele>
        <time>2025-12-28T08:29:16.000Z</time>
      </trkpt>
      <trkpt lat="43.00053" lon="1.1343">
        <ele>429.5</ele>
        <time>2025-12-28T08:29:17.000Z</time>
      </trkpt>
      <trkpt lat="43.00048" lon="1.13432">
        <ele>429.4</ele>
        <time>2025-12-28T08:29:18.000Z</time>
      </trkpt>
      <trkpt lat="43.00044" lon="1.13435">
        <ele>429.9</ele>
        <time>2025-12-28T08:29:19.000Z</time>
      </trkpt>
      <trkpt lat="43.0004" lon="1.13437">
        <ele>430</ele>
        <time>2025-12-28T08:29:20.000Z</time>
      </trkpt>
      <trkpt lat="43.00036" lon="1.1344">
        <ele>430.2</ele>
        <time>2025-12-28T08:29:21.000Z</time>
      </trkpt>
      <trkpt lat="43.00033" lon="1.13445">
        <ele>430</ele>
        <time>2025-12-28T08:29:22.000Z</time>
      </trkpt>
      <trkpt lat="43.00032" lon="1.13451">
        <ele>430.6</ele>
        <time>2025-12-28T08:29:23.000Z</time>
      </trkpt>
      <trkpt lat="43.00033" lon="1.13457">
        <ele>430.8</ele>
        <time>2025-12-28T08:29:24.000Z</time>
      </trkpt>
      <trkpt lat="43.00035" lon="1.13462">
        <ele>431.3</ele>
        <time>2025-12-28T08:29:25.000Z</time>
      </trkpt>
      <trkpt lat="43.00037" lon="1.13468">
        <ele>432.5</ele>
        <time>2025-12-28T08:29:26.000Z</time>
      </trkpt>
      <trkpt lat="43.00038" lon="1.13474">
        <ele>433.4</ele>
        <time>2025-12-28T08:29:27.000Z</time>
      </trkpt>
      <trkpt lat="43.0004" lon="1.13479">
        <ele>433.9</ele>
        <time>2025-12-28T08:29:28.000Z</time>
      </trkpt>
      <trkpt lat="43.00042" lon="1.13484">
        <ele>434.3</ele>
        <time>2025-12-28T08:29:29.000Z</time>
      </trkpt>
      <trkpt lat="43.00043" lon="1.1349">
        <ele>434.5</ele>
        <time>2025-12-28T08:29:30.000Z</time>
      </trkpt>
      <trkpt lat="43.00044" lon="1.13496">
        <ele>434.4</ele>
        <time>2025-12-28T08:29:31.000Z</time>
      </trkpt>
      <trkpt lat="43.00046" lon="1.13502">
        <ele>434.2</ele>
        <time>2025-12-28T08:29:32.000Z</time>
      </trkpt>
      <trkpt lat="43.00046" lon="1.13509">
        <ele>434.3</ele>
        <time>2025-12-28T08:29:33.000Z</time>
      </trkpt>
      <trkpt lat="43.00045" lon="1.13517">
        <ele>434.5</ele>
        <time>2025-12-28T08:29:34.000Z</time>
      </trkpt>
      <trkpt lat="43.00043" lon="1.13524">
        <ele>434.8</ele>
        <time>2025-12-28T08:29:35.000Z</time>
      </trkpt>
      <trkpt lat="43.00042" lon="1.13531">
        <ele>435.7</ele>
        <time>2025-12-28T08:29:36.000Z</time>
      </trkpt>
      <trkpt lat="43.0004" lon="1.13537">
        <ele>436.1</ele>
        <time>2025-12-28T08:29:37.000Z</time>
      </trkpt>
      <trkpt lat="43.00038" lon="1.13542">
        <ele>436.2</ele>
        <time>2025-12-28T08:29:38.000Z</time>
      </trkpt>
      <trkpt lat="43.00036" lon="1.13548">
        <ele>436.8</ele>
        <time>2025-12-28T08:29:39.000Z</time>
      </trkpt>
      <trkpt lat="43.00034" lon="1.13553">
        <ele>437.1</ele>
        <time>2025-12-28T08:29:40.000Z</time>
      </trkpt>
      <trkpt lat="43.00032" lon="1.13559">
        <ele>437.5</ele>
        <time>2025-12-28T08:29:41.000Z</time>
      </trkpt>
      <trkpt lat="43.0003" lon="1.13564">
        <ele>438.3</ele>
        <time>2025-12-28T08:29:42.000Z</time>
      </trkpt>
      <trkpt lat="43.00029" lon="1.13569">
        <ele>438.5</ele>
        <time>2025-12-28T08:29:43.000Z</time>
      </trkpt>
      <trkpt lat="43.00028" lon="1.13573">
        <ele>439</ele>
        <time>2025-12-28T08:29:44.000Z</time>
      </trkpt>
      <trkpt lat="43.00026" lon="1.13578">
        <ele>439.3</ele>
        <time>2025-12-28T08:29:45.000Z</time>
      </trkpt>
      <trkpt lat="43.00025" lon="1.13582">
        <ele>440.4</ele>
        <time>2025-12-28T08:29:46.000Z</time>
      </trkpt>
      <trkpt lat="43.00023" lon="1.13587">
        <ele>440.9</ele>
        <time>2025-12-28T08:29:47.000Z</time>
      </trkpt>
      <trkpt lat="43.00022" lon="1.13592">
        <ele>441.4</ele>
        <time>2025-12-28T08:29:48.000Z</time>
      </trkpt>
      <trkpt lat="43.0002" lon="1.13597">
        <ele>441.4</ele>
        <time>2025-12-28T08:29:49.000Z</time>
      </trkpt>
      <trkpt lat="43.00019" lon="1.13602">
        <ele>441.6</ele>
        <time>2025-12-28T08:29:50.000Z</time>
      </trkpt>
      <trkpt lat="43.00018" lon="1.13606">
        <ele>442.6</ele>
        <time>2025-12-28T08:29:51.000Z</time>
      </trkpt>
      <trkpt lat="43.00017" lon="1.13611">
        <ele>442.8</ele>
        <time>2025-12-28T08:29:52.000Z</time>
      </trkpt>
      <trkpt lat="43.00015" lon="1.13615">
        <ele>442.5</ele>
        <time>2025-12-28T08:29:53.000Z</time>
      </trkpt>
      <trkpt lat="43.00014" lon="1.1362">
        <ele>443.4</ele>
        <time>2025-12-28T08:29:54.000Z</time>
      </trkpt>
      <trkpt lat="43.00013" lon="1.13624">
        <ele>444.2</ele>
        <time>2025-12-28T08:29:55.000Z</time>
      </trkpt>
      <trkpt lat="43.00012" lon="1.13629">
        <ele>446.1</ele>
        <time>2025-12-28T08:29:56.000Z</time>
      </trkpt>
      <trkpt lat="43.00011" lon="1.13634">
        <ele>446.9</ele>
        <time>2025-12-28T08:29:57.000Z</time>
      </trkpt>
      <trkpt lat="43.00009" lon="1.13639">
        <ele>447.6</ele>
        <time>2025-12-28T08:29:58.000Z</time>
      </trkpt>
      <trkpt lat="43.00008" lon="1.13644">
        <ele>447.9</ele>
        <time>2025-12-28T08:29:59.000Z</time>
      </trkpt>
      <trkpt lat="43.00005" lon="1.13649">
        <ele>449.3</ele>
        <time>2025-12-28T08:30:00.000Z</time>
      </trkpt>
      <trkpt lat="43.00004" lon="1.13653">
        <ele>450.5</ele>
        <time>2025-12-28T08:30:01.000Z</time>
      </trkpt>
      <trkpt lat="43.00002" lon="1.13657">
        <ele>451.7</ele>
        <time>2025-12-28T08:30:02.000Z</time>
      </trkpt>
      <trkpt lat="43" lon="1.13662">
        <ele>452</ele>
        <time>2025-12-28T08:30:03.000Z</time>
      </trkpt>
      <trkpt lat="42.99999" lon="1.13667">
        <ele>451.4</ele>
        <time>2025-12-28T08:30:04.000Z</time>
      </trkpt>
      <trkpt lat="42.99997" lon="1.13672">
        <ele>451.3</ele>
        <time>2025-12-28T08:30:05.000Z</time>
      </trkpt>
      <trkpt lat="42.99994" lon="1.13676">
        <ele>452.7</ele>
        <time>2025-12-28T08:30:06.000Z</time>
      </trkpt>
      <trkpt lat="42.99992" lon="1.13681">
        <ele>452.9</ele>
        <time>2025-12-28T08:30:07.000Z</time>
      </trkpt>
      <trkpt lat="42.9999" lon="1.13685">
        <ele>452.5</ele>
        <time>2025-12-28T08:30:08.000Z</time>
      </trkpt>
      <trkpt lat="42.99987" lon="1.13689">
        <ele>454</ele>
        <time>2025-12-28T08:30:09.000Z</time>
      </trkpt>
      <trkpt lat="42.99985" lon="1.13693">
        <ele>455.6</ele>
        <time>2025-12-28T08:30:10.000Z</time>
      </trkpt>
      <trkpt lat="42.99983" lon="1.13697">
        <ele>455.4</ele>
        <time>2025-12-28T08:30:11.000Z</time>
      </trkpt>
      <trkpt lat="42.99981" lon="1.137">
        <ele>456.7</ele>
        <time>2025-12-28T08:30:12.000Z</time>
      </trkpt>
      <trkpt lat="42.9998" lon="1.13705">
        <ele>456.7</ele>
        <time>2025-12-28T08:30:13.000Z</time>
      </trkpt>
      <trkpt lat="42.9998" lon="1.1371">
        <ele>456.8</ele>
        <time>2025-12-28T08:30:14.000Z</time>
      </trkpt>
      <trkpt lat="42.9998" lon="1.13714">
        <ele>456.6</ele>
        <time>2025-12-28T08:30:15.000Z</time>
      </trkpt>
      <trkpt lat="42.99981" lon="1.13718">
        <ele>456.7</ele>
        <time>2025-12-28T08:30:16.000Z</time>
      </trkpt>
      <trkpt lat="42.99983" lon="1.13723">
        <ele>456.8</ele>
        <time>2025-12-28T08:30:17.000Z</time>
      </trkpt>
      <trkpt lat="42.99984" lon="1.13727">
        <ele>457.5</ele>
        <time>2025-12-28T08:30:18.000Z</time>
      </trkpt>
      <trkpt lat="42.99986" lon="1.13732">
        <ele>457</ele>
        <time>2025-12-28T08:30:19.000Z</time>
      </trkpt>
      <trkpt lat="42.99988" lon="1.13736">
        <ele>458</ele>
        <time>2025-12-28T08:30:20.000Z</time>
      </trkpt>
      <trkpt lat="42.9999" lon="1.1374">
        <ele>458.5</ele>
        <time>2025-12-28T08:30:21.000Z</time>
      </trkpt>
      <trkpt lat="42.99991" lon="1.13744">
        <ele>458.5</ele>
        <time>2025-12-28T08:30:22.000Z</time>
      </trkpt>
      <trkpt lat="42.99993" lon="1.13749">
        <ele>457.7</ele>
        <time>2025-12-28T08:30:23.000Z</time>
      </trkpt>
      <trkpt lat="42.99996" lon="1.13751">
        <ele>457</ele>
        <time>2025-12-28T08:30:24.000Z</time>
      </trkpt>
      <trkpt lat="42.99999" lon="1.13752">
        <ele>457.3</ele>
        <time>2025-12-28T08:30:25.000Z</time>
      </trkpt>
      <trkpt lat="43.00003" lon="1.13752">
        <ele>456.8</ele>
        <time>2025-12-28T08:30:26.000Z</time>
      </trkpt>
      <trkpt lat="43.00007" lon="1.13751">
        <ele>457.1</ele>
        <time>2025-12-28T08:30:27.000Z</time>
      </trkpt>
      <trkpt lat="43.0001" lon="1.13748">
        <ele>456.8</ele>
        <time>2025-12-28T08:30:28.000Z</time>
      </trkpt>
      <trkpt lat="43.00014" lon="1.13744">
        <ele>457</ele>
        <time>2025-12-28T08:30:29.000Z</time>
      </trkpt>
      <trkpt lat="43.00017" lon="1.13741">
        <ele>458.2</ele>
        <time>2025-12-28T08:30:30.000Z</time>
      </trkpt>
      <trkpt lat="43.00021" lon="1.13738">
        <ele>458.6</ele>
        <time>2025-12-28T08:30:31.000Z</time>
      </trkpt>
      <trkpt lat="43.00025" lon="1.13735">
        <ele>458.2</ele>
        <time>2025-12-28T08:30:32.000Z</time>
      </trkpt>
      <trkpt lat="43.00029" lon="1.13732">
        <ele>458.6</ele>
        <time>2025-12-28T08:30:33.000Z</time>
      </trkpt>
      <trkpt lat="43.00032" lon="1.13729">
        <ele>458.7</ele>
        <time>2025-12-28T08:30:34.000Z</time>
      </trkpt>
      <trkpt lat="43.00036" lon="1.13726">
        <ele>458.6</ele>
        <time>2025-12-28T08:30:35.000Z</time>
      </trkpt>
      <trkpt lat="43.0004" lon="1.13723">
        <ele>459.2</ele>
        <time>2025-12-28T08:30:36.000Z</time>
      </trkpt>
      <trkpt lat="43.00043" lon="1.1372">
        <ele>459.7</ele>
        <time>2025-12-28T08:30:37.000Z</time>
      </trkpt>
      <trkpt lat="43.00047" lon="1.13717">
        <ele>459.5</ele>
        <time>2025-12-28T08:30:38.000Z</time>
      </trkpt>
      <trkpt lat="43.0005" lon="1.13714">
        <ele>460.4</ele>
        <time>2025-12-28T08:30:39.000Z</time>
      </trkpt>
      <trkpt lat="43.00053" lon="1.13711">
        <ele>460.8</ele>
        <time>2025-12-28T08:30:40.000Z</time>
      </trkpt>
      <trkpt lat="43.00057" lon="1.13708">
        <ele>460.8</ele>
        <time>2025-12-28T08:30:41.000Z</time>
      </trkpt>
      <trkpt lat="43.0006" lon="1.13706">
        <ele>461.7</ele>
        <time>2025-12-28T08:30:42.000Z</time>
      </trkpt>
      <trkpt lat="43.00064" lon="1.13703">
        <ele>462.1</ele>
        <time>2025-12-28T08:30:43.000Z</time>
      </trkpt>
      <trkpt lat="43.00067" lon="1.137">
        <ele>462.7</ele>
        <time>2025-12-28T08:30:44.000Z</time>
      </trkpt>
      <trkpt lat="43.00071" lon="1.13698">
        <ele>463.2</ele>
        <time>2025-12-28T08:30:45.000Z</time>
      </trkpt>
      <trkpt lat="43.00075" lon="1.137">
        <ele>463.5</ele>
        <time>2025-12-28T08:30:46.000Z</time>
      </trkpt>
      <trkpt lat="43.00077" lon="1.13705">
        <ele>463.7</ele>
        <time>2025-12-28T08:30:47.000Z</time>
      </trkpt>
      <trkpt lat="43.00078" lon="1.13711">
        <ele>463</ele>
        <time>2025-12-28T08:30:48.000Z</time>
      </trkpt>
      <trkpt lat="43.00078" lon="1.13717">
        <ele>463.3</ele>
        <time>2025-12-28T08:30:49.000Z</time>
      </trkpt>
      <trkpt lat="43.00078" lon="1.13723">
        <ele>463.8</ele>
        <time>2025-12-28T08:30:50.000Z</time>
      </trkpt>
      <trkpt lat="43.00077" lon="1.13729">
        <ele>464</ele>
        <time>2025-12-28T08:30:51.000Z</time>
      </trkpt>
      <trkpt lat="43.00077" lon="1.13734">
        <ele>464.3</ele>
        <time>2025-12-28T08:30:52.000Z</time>
      </trkpt>
      <trkpt lat="43.00077" lon="1.1374">
        <ele>464</ele>
        <time>2025-12-28T08:30:53.000Z</time>
      </trkpt>
      <trkpt lat="43.00077" lon="1.13745">
        <ele>464</ele>
        <time>2025-12-28T08:30:54.000Z</time>
      </trkpt>
      <trkpt lat="43.00077" lon="1.1375">
        <ele>464.3</ele>
        <time>2025-12-28T08:30:55.000Z</time>
      </trkpt>
      <trkpt lat="43.00076" lon="1.13755">
        <ele>464.7</ele>
        <time>2025-12-28T08:30:56.000Z</time>
      </trkpt>
      <trkpt lat="43.00076" lon="1.1376">
        <ele>464.9</ele>
        <time>2025-12-28T08:30:57.000Z</time>
      </trkpt>
      <trkpt lat="43.00076" lon="1.13764">
        <ele>465.4</ele>
        <time>2025-12-28T08:30:58.000Z</time>
      </trkpt>
      <trkpt lat="43.00075" lon="1.13768">
        <ele>466</ele>
        <time>2025-12-28T08:30:59.000Z</time>
      </trkpt>
      <trkpt lat="43.00075" lon="1.13771">
        <ele>467.1</ele>
        <time>2025-12-28T08:31:00.000Z</time>
      </trkpt>
      <trkpt lat="43.00074" lon="1.13774">
        <ele>467.7</ele>
        <time>2025-12-28T08:31:01.000Z</time>
      </trkpt>
      <trkpt lat="43.00074" lon="1.13776">
        <ele>467.7</ele>
        <time>2025-12-28T08:31:02.000Z</time>
      </trkpt>
      <trkpt lat="43.00074" lon="1.13779">
        <ele>467.8</ele>
        <time>2025-12-28T08:31:03.000Z</time>
      </trkpt>
      <trkpt lat="43.00077" lon="1.13781">
        <ele>468.2</ele>
        <time>2025-12-28T08:31:04.000Z</time>
      </trkpt>
      <trkpt lat="43.00082" lon="1.13781">
        <ele>468.4</ele>
        <time>2025-12-28T08:31:05.000Z</time>
      </trkpt>
      <trkpt lat="43.00086" lon="1.13781">
        <ele>468.5</ele>
        <time>2025-12-28T08:31:06.000Z</time>
      </trkpt>
      <trkpt lat="43.0009" lon="1.13782">
        <ele>468.6</ele>
        <time>2025-12-28T08:31:07.000Z</time>
      </trkpt>
      <trkpt lat="43.00095" lon="1.13783">
        <ele>468</ele>
        <time>2025-12-28T08:31:08.000Z</time>
      </trkpt>
      <trkpt lat="43.00098" lon="1.13784">
        <ele>468.7</ele>
        <time>2025-12-28T08:31:09.000Z</time>
      </trkpt>
      <trkpt lat="43.00103" lon="1.13785">
        <ele>468.8</ele>
        <time>2025-12-28T08:31:10.000Z</time>
      </trkpt>
      <trkpt lat="43.00106" lon="1.13785">
        <ele>468.9</ele>
        <time>2025-12-28T08:31:11.000Z</time>
      </trkpt>
      <trkpt lat="43.0011" lon="1.13786">
        <ele>469.2</ele>
        <time>2025-12-28T08:31:12.000Z</time>
      </trkpt>
      <trkpt lat="43.00114" lon="1.13787">
        <ele>469.7</ele>
        <time>2025-12-28T08:31:13.000Z</time>
      </trkpt>
      <trkpt lat="43.00117" lon="1.13788">
        <ele>470</ele>
        <time>2025-12-28T08:31:14.000Z</time>
      </trkpt>
      <trkpt lat="43.00121" lon="1.13789">
        <ele>470.6</ele>
        <time>2025-12-28T08:31:15.000Z</time>
      </trkpt>
      <trkpt lat="43.00124" lon="1.13789">
        <ele>471.3</ele>
        <time>2025-12-28T08:31:16.000Z</time>
      </trkpt>
      <trkpt lat="43.00127" lon="1.1379">
        <ele>471.7</ele>
        <time>2025-12-28T08:31:17.000Z</time>
      </trkpt>
      <trkpt lat="43.0013" lon="1.13791">
        <ele>472</ele>
        <time>2025-12-28T08:31:18.000Z</time>
      </trkpt>
      <trkpt lat="43.00133" lon="1.13791">
        <ele>472.7</ele>
        <time>2025-12-28T08:31:19.000Z</time>
      </trkpt>
      <trkpt lat="43.00136" lon="1.13791">
        <ele>473.3</ele>
        <time>2025-12-28T08:31:20.000Z</time>
      </trkpt>
      <trkpt lat="43.00139" lon="1.13791">
        <ele>474.1</ele>
        <time>2025-12-28T08:31:21.000Z</time>
      </trkpt>
      <trkpt lat="43.00142" lon="1.13791">
        <ele>474.5</ele>
        <time>2025-12-28T08:31:22.000Z</time>
      </trkpt>
      <trkpt lat="43.00145" lon="1.13791">
        <ele>474.8</ele>
        <time>2025-12-28T08:31:23.000Z</time>
      </trkpt>
      <trkpt lat="43.00147" lon="1.1379">
        <ele>475.7</ele>
        <time>2025-12-28T08:31:24.000Z</time>
      </trkpt>
      <trkpt lat="43.00151" lon="1.1379">
        <ele>476.1</ele>
        <time>2025-12-28T08:31:25.000Z</time>
      </trkpt>
      <trkpt lat="43.00154" lon="1.1379">
        <ele>476.4</ele>
        <time>2025-12-28T08:31:26.000Z</time>
      </trkpt>
      <trkpt lat="43.00157" lon="1.1379">
        <ele>477</ele>
        <time>2025-12-28T08:31:27.000Z</time>
      </trkpt>
      <trkpt lat="43.0016" lon="1.1379">
        <ele>477.7</ele>
        <time>2025-12-28T08:31:28.000Z</time>
      </trkpt>
      <trkpt lat="43.00164" lon="1.1379">
        <ele>478</ele>
        <time>2025-12-28T08:31:29.000Z</time>
      </trkpt>
      <trkpt lat="43.00167" lon="1.1379">
        <ele>478.2</ele>
        <time>2025-12-28T08:31:30.000Z</time>
      </trkpt>
      <trkpt lat="43.0017" lon="1.1379">
        <ele>478.4</ele>
        <time>2025-12-28T08:31:31.000Z</time>
      </trkpt>
      <trkpt lat="43.00174" lon="1.1379">
        <ele>478.3</ele>
        <time>2025-12-28T08:31:32.000Z</time>
      </trkpt>
      <trkpt lat="43.00177" lon="1.1379">
        <ele>478.9</ele>
        <time>2025-12-28T08:31:33.000Z</time>
      </trkpt>
      <trkpt lat="43.00181" lon="1.13789">
        <ele>479.4</ele>
        <time>2025-12-28T08:31:34.000Z</time>
      </trkpt>
      <trkpt lat="43.00184" lon="1.13789">
        <ele>479.9</ele>
        <time>2025-12-28T08:31:35.000Z</time>
      </trkpt>
      <trkpt lat="43.00187" lon="1.13789">
        <ele>480.5</ele>
        <time>2025-12-28T08:31:36.000Z</time>
      </trkpt>
      <trkpt lat="43.0019" lon="1.13789">
        <ele>480.6</ele>
        <time>2025-12-28T08:31:37.000Z</time>
      </trkpt>
      <trkpt lat="43.00194" lon="1.13788">
        <ele>481.4</ele>
        <time>2025-12-28T08:31:38.000Z</time>
      </trkpt>
      <trkpt lat="43.00197" lon="1.13787">
        <ele>481.6</ele>
        <time>2025-12-28T08:31:39.000Z</time>
      </trkpt>
      <trkpt lat="43.002" lon="1.13787">
        <ele>481.8</ele>
        <time>2025-12-28T08:31:40.000Z</time>
      </trkpt>
      <trkpt lat="43.00203" lon="1.13787">
        <ele>482.4</ele>
        <time>2025-12-28T08:31:41.000Z</time>
      </trkpt>
      <trkpt lat="43.00207" lon="1.13788">
        <ele>483</ele>
        <time>2025-12-28T08:31:42.000Z</time>
      </trkpt>
      <trkpt lat="43.0021" lon="1.13788">
        <ele>483.8</ele>
        <time>2025-12-28T08:31:43.000Z</time>
      </trkpt>
      <trkpt lat="43.00213" lon="1.1379">
        <ele>483.9</ele>
        <time>2025-12-28T08:31:44.000Z</time>
      </trkpt>
      <trkpt lat="43.00217" lon="1.13792">
        <ele>484</ele>
        <time>2025-12-28T08:31:45.000Z</time>
      </trkpt>
      <trkpt lat="43.0022" lon="1.13795">
        <ele>483.9</ele>
        <time>2025-12-28T08:31:46.000Z</time>
      </trkpt>
      <trkpt lat="43.00222" lon="1.13797">
        <ele>484.5</ele>
        <time>2025-12-28T08:31:47.000Z</time>
      </trkpt>
      <trkpt lat="43.00225" lon="1.138">
        <ele>484.3</ele>
        <time>2025-12-28T08:31:48.000Z</time>
      </trkpt>
      <trkpt lat="43.00228" lon="1.13803">
        <ele>484.5</ele>
        <time>2025-12-28T08:31:49.000Z</time>
      </trkpt>
      <trkpt lat="43.00231" lon="1.13807">
        <ele>484.9</ele>
        <time>2025-12-28T08:31:50.000Z</time>
      </trkpt>
      <trkpt lat="43.00233" lon="1.1381">
        <ele>485.7</ele>
        <time>2025-12-28T08:31:51.000Z</time>
      </trkpt>
      <trkpt lat="43.00236" lon="1.13814">
        <ele>486.7</ele>
        <time>2025-12-28T08:31:52.000Z</time>
      </trkpt>
      <trkpt lat="43.00239" lon="1.13817">
        <ele>486.4</ele>
        <time>2025-12-28T08:31:53.000Z</time>
      </trkpt>
      <trkpt lat="43.00242" lon="1.1382">
        <ele>486</ele>
        <time>2025-12-28T08:31:54.000Z</time>
      </trkpt>
      <trkpt lat="43.00244" lon="1.13823">
        <ele>485.9</ele>
        <time>2025-12-28T08:31:55.000Z</time>
      </trkpt>
      <trkpt lat="43.00247" lon="1.13826">
        <ele>486</ele>
        <time>2025-12-28T08:31:56.000Z</time>
      </trkpt>
      <trkpt lat="43.0025" lon="1.13829">
        <ele>486</ele>
        <time>2025-12-28T08:31:57.000Z</time>
      </trkpt>
      <trkpt lat="43.00253" lon="1.13832">
        <ele>485.7</ele>
        <time>2025-12-28T08:31:58.000Z</time>
      </trkpt>
      <trkpt lat="43.00255" lon="1.13835">
        <ele>486</ele>
        <time>2025-12-28T08:31:59.000Z</time>
      </trkpt>
      <trkpt lat="43.00258" lon="1.13838">
        <ele>485.8</ele>
        <time>2025-12-28T08:32:00.000Z</time>
      </trkpt>
      <trkpt lat="43.0026" lon="1.13841">
        <ele>485.8</ele>
        <time>2025-12-28T08:32:01.000Z</time>
      </trkpt>
      <trkpt lat="43.00263" lon="1.13844">
        <ele>485.8</ele>
        <time>2025-12-28T08:32:02.000Z</time>
      </trkpt>
      <trkpt lat="43.00265" lon="1.13847">
        <ele>486.5</ele>
        <time>2025-12-28T08:32:03.000Z</time>
      </trkpt>
      <trkpt lat="43.00267" lon="1.1385">
        <ele>486.7</ele>
        <time>2025-12-28T08:32:04.000Z</time>
      </trkpt>
      <trkpt lat="43.00269" lon="1.13853">
        <ele>488.2</ele>
        <time>2025-12-28T08:32:05.000Z</time>
      </trkpt>
      <trkpt lat="43.00272" lon="1.13856">
        <ele>488.8</ele>
        <time>2025-12-28T08:32:06.000Z</time>
      </trkpt>
      <trkpt lat="43.00274" lon="1.13859">
        <ele>489.2</ele>
        <time>2025-12-28T08:32:07.000Z</time>
      </trkpt>
      <trkpt lat="43.00276" lon="1.13862">
        <ele>489.8</ele>
        <time>2025-12-28T08:32:08.000Z</time>
      </trkpt>
      <trkpt lat="43.00279" lon="1.13865">
        <ele>490.5</ele>
        <time>2025-12-28T08:32:09.000Z</time>
      </trkpt>
      <trkpt lat="43.00281" lon="1.13868">
        <ele>490.5</ele>
        <time>2025-12-28T08:32:10.000Z</time>
      </trkpt>
      <trkpt lat="43.00284" lon="1.13871">
        <ele>490.7</ele>
        <time>2025-12-28T08:32:11.000Z</time>
      </trkpt>
      <trkpt lat="43.00286" lon="1.13874">
        <ele>491.1</ele>
        <time>2025-12-28T08:32:12.000Z</time>
      </trkpt>
      <trkpt lat="43.00288" lon="1.13877">
        <ele>491.5</ele>
        <time>2025-12-28T08:32:13.000Z</time>
      </trkpt>
      <trkpt lat="43.0029" lon="1.1388">
        <ele>490.9</ele>
        <time>2025-12-28T08:32:14.000Z</time>
      </trkpt>
      <trkpt lat="43.00292" lon="1.13883">
        <ele>490.5</ele>
        <time>2025-12-28T08:32:15.000Z</time>
      </trkpt>
      <trkpt lat="43.00295" lon="1.13885">
        <ele>490.7</ele>
        <time>2025-12-28T08:32:16.000Z</time>
      </trkpt>
      <trkpt lat="43.00297" lon="1.13888">
        <ele>490.7</ele>
        <time>2025-12-28T08:32:17.000Z</time>
      </trkpt>
      <trkpt lat="43.003" lon="1.13891">
        <ele>491</ele>
        <time>2025-12-28T08:32:18.000Z</time>
      </trkpt>
      <trkpt lat="43.00303" lon="1.13892">
        <ele>490.7</ele>
        <time>2025-12-28T08:32:19.000Z</time>
      </trkpt>
      <trkpt lat="43.00306" lon="1.13892">
        <ele>490.9</ele>
        <time>2025-12-28T08:32:20.000Z</time>
      </trkpt>
      <trkpt lat="43.00309" lon="1.13891">
        <ele>491.5</ele>
        <time>2025-12-28T08:32:21.000Z</time>
      </trkpt>
      <trkpt lat="43.00312" lon="1.1389">
        <ele>491.7</ele>
        <time>2025-12-28T08:32:22.000Z</time>
      </trkpt>
      <trkpt lat="43.00314" lon="1.13887">
        <ele>492.1</ele>
        <time>2025-12-28T08:32:23.000Z</time>
      </trkpt>
      <trkpt lat="43.00317" lon="1.13885">
        <ele>492.2</ele>
        <time>2025-12-28T08:32:24.000Z</time>
      </trkpt>
      <trkpt lat="43.00319" lon="1.13883">
        <ele>492.3</ele>
        <time>2025-12-28T08:32:25.000Z</time>
      </trkpt>
      <trkpt lat="43.00322" lon="1.1388">
        <ele>492.4</ele>
        <time>2025-12-28T08:32:26.000Z</time>
      </trkpt>
      <trkpt lat="43.00324" lon="1.13878">
        <ele>492.6</ele>
        <time>2025-12-28T08:32:27.000Z</time>
      </trkpt>
      <trkpt lat="43.00327" lon="1.13876">
        <ele>492.7</ele>
        <time>2025-12-28T08:32:28.000Z</time>
      </trkpt>
      <trkpt lat="43.0033" lon="1.13874">
        <ele>493.3</ele>
        <time>2025-12-28T08:32:29.000Z</time>
      </trkpt>
      <trkpt lat="43.00333" lon="1.13873">
        <ele>493.7</ele>
        <time>2025-12-28T08:32:30.000Z</time>
      </trkpt>
      <trkpt lat="43.00336" lon="1.13872">
        <ele>493.9</ele>
        <time>2025-12-28T08:32:31.000Z</time>
      </trkpt>
      <trkpt lat="43.00338" lon="1.13871">
        <ele>494.4</ele>
        <time>2025-12-28T08:32:32.000Z</time>
      </trkpt>
      <trkpt lat="43.00341" lon="1.13869">
        <ele>494.2</ele>
        <time>2025-12-28T08:32:33.000Z</time>
      </trkpt>
      <trkpt lat="43.00344" lon="1.13868">
        <ele>494.8</ele>
        <time>2025-12-28T08:32:34.000Z</time>
      </trkpt>
      <trkpt lat="43.00347" lon="1.13866">
        <ele>495</ele>
        <time>2025-12-28T08:32:35.000Z</time>
      </trkpt>
      <trkpt lat="43.0035" lon="1.13864">
        <ele>493.8</ele>
        <time>2025-12-28T08:32:36.000Z</time>
      </trkpt>
      <trkpt lat="43.00352" lon="1.13862">
        <ele>494</ele>
        <time>2025-12-28T08:32:37.000Z</time>
      </trkpt>
      <trkpt lat="43.00354" lon="1.1386">
        <ele>494.2</ele>
        <time>2025-12-28T08:32:38.000Z</time>
      </trkpt>
      <trkpt lat="43.00357" lon="1.13859">
        <ele>494</ele>
        <time>2025-12-28T08:32:39.000Z</time>
      </trkpt>
      <trkpt lat="43.00359" lon="1.13857">
        <ele>494.3</ele>
        <time>2025-12-28T08:32:40.000Z</time>
      </trkpt>
      <trkpt lat="43.00361" lon="1.13856">
        <ele>494.2</ele>
        <time>2025-12-28T08:32:41.000Z</time>
      </trkpt>
      <trkpt lat="43.00363" lon="1.13853">
        <ele>493.5</ele>
        <time>2025-12-28T08:32:42.000Z</time>
      </trkpt>
      <trkpt lat="43.00365" lon="1.1385">
        <ele>494.1</ele>
        <time>2025-12-28T08:32:43.000Z</time>
      </trkpt>
      <trkpt lat="43.00367" lon="1.13847">
        <ele>494.4</ele>
        <time>2025-12-28T08:32:44.000Z</time>
      </trkpt>
      <trkpt lat="43.00368" lon="1.13844">
        <ele>495.2</ele>
        <time>2025-12-28T08:32:45.000Z</time>
      </trkpt>
      <trkpt lat="43.0037" lon="1.13842">
        <ele>494.4</ele>
        <time>2025-12-28T08:32:46.000Z</time>
      </trkpt>
      <trkpt lat="43.00372" lon="1.13841">
        <ele>494.7</ele>
        <time>2025-12-28T08:32:47.000Z</time>
      </trkpt>
      <trkpt lat="43.00373" lon="1.13839">
        <ele>495.8</ele>
        <time>2025-12-28T08:32:48.000Z</time>
      </trkpt>
      <trkpt lat="43.00376" lon="1.13837">
        <ele>496.8</ele>
        <time>2025-12-28T08:32:49.000Z</time>
      </trkpt>
      <trkpt lat="43.00378" lon="1.13835">
        <ele>497.1</ele>
        <time>2025-12-28T08:32:50.000Z</time>
      </trkpt>
      <trkpt lat="43.0038" lon="1.13833">
        <ele>497.3</ele>
        <time>2025-12-28T08:32:51.000Z</time>
      </trkpt>
      <trkpt lat="43.00382" lon="1.13833">
        <ele>497.5</ele>
        <time>2025-12-28T08:32:52.000Z</time>
      </trkpt>
      <trkpt lat="43.00385" lon="1.13834">
        <ele>497.7</ele>
        <time>2025-12-28T08:32:53.000Z</time>
      </trkpt>
      <trkpt lat="43.00387" lon="1.13834">
        <ele>499.1</ele>
        <time>2025-12-28T08:32:54.000Z</time>
      </trkpt>
      <trkpt lat="43.0039" lon="1.13834">
        <ele>500.2</ele>
        <time>2025-12-28T08:32:55.000Z</time>
      </trkpt>
      <trkpt lat="43.00392" lon="1.13834">
        <ele>499.3</ele>
        <time>2025-12-28T08:32:56.000Z</time>
      </trkpt>
      <trkpt lat="43.00395" lon="1.13833">
        <ele>500.6</ele>
        <time>2025-12-28T08:32:57.000Z</time>
      </trkpt>
      <trkpt lat="43.00397" lon="1.13831">
        <ele>499.2</ele>
        <time>2025-12-28T08:32:58.000Z</time>
      </trkpt>
      <trkpt lat="43.004" lon="1.13829">
        <ele>499.7</ele>
        <time>2025-12-28T08:32:59.000Z</time>
      </trkpt>
      <trkpt lat="43.00402" lon="1.13826">
        <ele>500.2</ele>
        <time>2025-12-28T08:33:00.000Z</time>
      </trkpt>
      <trkpt lat="43.00405" lon="1.13824">
        <ele>500</ele>
        <time>2025-12-28T08:33:01.000Z</time>
      </trkpt>
      <trkpt lat="43.00408" lon="1.13822">
        <ele>499.2</ele>
        <time>2025-12-28T08:33:02.000Z</time>
      </trkpt>
      <trkpt lat="43.0041" lon="1.1382">
        <ele>499.2</ele>
        <time>2025-12-28T08:33:03.000Z</time>
      </trkpt>
      <trkpt lat="43.00412" lon="1.13818">
        <ele>500.2</ele>
        <time>2025-12-28T08:33:04.000Z</time>
      </trkpt>
      <trkpt lat="43.00415" lon="1.13818">
        <ele>500.9</ele>
        <time>2025-12-28T08:33:05.000Z</time>
      </trkpt>
      <trkpt lat="43.00418" lon="1.13818">
        <ele>501</ele>
        <time>2025-12-28T08:33:06.000Z</time>
      </trkpt>
      <trkpt lat="43.00421" lon="1.13819">
        <ele>502.6</ele>
        <time>2025-12-28T08:33:07.000Z</time>
      </trkpt>
      <trkpt lat="43.00424" lon="1.13821">
        <ele>502.6</ele>
        <time>2025-12-28T08:33:08.000Z</time>
      </trkpt>
      <trkpt lat="43.00426" lon="1.13823">
        <ele>503.5</ele>
        <time>2025-12-28T08:33:09.000Z</time>
      </trkpt>
      <trkpt lat="43.00427" lon="1.13825">
        <ele>503.3</ele>
        <time>2025-12-28T08:33:10.000Z</time>
      </trkpt>
      <trkpt lat="43.00429" lon="1.13826">
        <ele>503.4</ele>
        <time>2025-12-28T08:33:11.000Z</time>
      </trkpt>
      <trkpt lat="43.00431" lon="1.13828">
        <ele>504.4</ele>
        <time>2025-12-28T08:33:12.000Z</time>
      </trkpt>
      <trkpt lat="43.00433" lon="1.1383">
        <ele>504.9</ele>
        <time>2025-12-28T08:33:13.000Z</time>
      </trkpt>
      <trkpt lat="43.00435" lon="1.13832">
        <ele>505.7</ele>
        <time>2025-12-28T08:33:14.000Z</time>
      </trkpt>
      <trkpt lat="43.00438" lon="1.13835">
        <ele>505.5</ele>
        <time>2025-12-28T08:33:15.000Z</time>
      </trkpt>
      <trkpt lat="43.00441" lon="1.13838">
        <ele>506.2</ele>
        <time>2025-12-28T08:33:16.000Z</time>
      </trkpt>
      <trkpt lat="43.00444" lon="1.13841">
        <ele>505.8</ele>
        <time>2025-12-28T08:33:17.000Z</time>
      </trkpt>
      <trkpt lat="43.00446" lon="1.13844">
        <ele>507.1</ele>
        <time>2025-12-28T08:33:18.000Z</time>
      </trkpt>
      <trkpt lat="43.00449" lon="1.13847">
        <ele>507.4</ele>
        <time>2025-12-28T08:33:19.000Z</time>
      </trkpt>
      <trkpt lat="43.00451" lon="1.13849">
        <ele>507.9</ele>
        <time>2025-12-28T08:33:20.000Z</time>
      </trkpt>
      <trkpt lat="43.00454" lon="1.13852">
        <ele>509.4</ele>
        <time>2025-12-28T08:33:21.000Z</time>
      </trkpt>
      <trkpt lat="43.00456" lon="1.13854">
        <ele>509.2</ele>
        <time>2025-12-28T08:33:22.000Z</time>
      </trkpt>
      <trkpt lat="43.00458" lon="1.13857">
        <ele>509.9</ele>
        <time>2025-12-28T08:33:23.000Z</time>
      </trkpt>
      <trkpt lat="43.00461" lon="1.13859">
        <ele>510</ele>
        <time>2025-12-28T08:33:24.000Z</time>
      </trkpt>
      <trkpt lat="43.00463" lon="1.13862">
        <ele>509.6</ele>
        <time>2025-12-28T08:33:25.000Z</time>
      </trkpt>
      <trkpt lat="43.00465" lon="1.13864">
        <ele>510.5</ele>
        <time>2025-12-28T08:33:26.000Z</time>
      </trkpt>
      <trkpt lat="43.00467" lon="1.13866">
        <ele>511.4</ele>
        <time>2025-12-28T08:33:27.000Z</time>
      </trkpt>
      <trkpt lat="43.00469" lon="1.13868">
        <ele>511.5</ele>
        <time>2025-12-28T08:33:28.000Z</time>
      </trkpt>
      <trkpt lat="43.00471" lon="1.1387">
        <ele>511.7</ele>
        <time>2025-12-28T08:33:29.000Z</time>
      </trkpt>
      <trkpt lat="43.00474" lon="1.13873">
        <ele>511.8</ele>
        <time>2025-12-28T08:33:30.000Z</time>
      </trkpt>
      <trkpt lat="43.00477" lon="1.13875">
        <ele>511.4</ele>
        <time>2025-12-28T08:33:31.000Z</time>
      </trkpt>
      <trkpt lat="43.00481" lon="1.13876">
        <ele>511.7</ele>
        <time>2025-12-28T08:33:32.000Z</time>
      </trkpt>
      <trkpt lat="43.00484" lon="1.13877">
        <ele>512.3</ele>
        <time>2025-12-28T08:33:33.000Z</time>
      </trkpt>
      <trkpt lat="43.00488" lon="1.13877">
        <ele>512.2</ele>
        <time>2025-12-28T08:33:34.000Z</time>
      </trkpt>
      <trkpt lat="43.0049" lon="1.13878">
        <ele>511.5</ele>
        <time>2025-12-28T08:33:35.000Z</time>
      </trkpt>
      <trkpt lat="43.00493" lon="1.13879">
        <ele>511.2</ele>
        <time>2025-12-28T08:33:36.000Z</time>
      </trkpt>
      <trkpt lat="43.00496" lon="1.13879">
        <ele>510.8</ele>
        <time>2025-12-28T08:33:37.000Z</time>
      </trkpt>
      <trkpt lat="43.00499" lon="1.1388">
        <ele>510</ele>
        <time>2025-12-28T08:33:38.000Z</time>
      </trkpt>
      <trkpt lat="43.00501" lon="1.13881">
        <ele>509.9</ele>
        <time>2025-12-28T08:33:39.000Z</time>
      </trkpt>
      <trkpt lat="43.00503" lon="1.13883">
        <ele>509.6</ele>
        <time>2025-12-28T08:33:40.000Z</time>
      </trkpt>
      <trkpt lat="43.00505" lon="1.13885">
        <ele>507.8</ele>
        <time>2025-12-28T08:33:41.000Z</time>
      </trkpt>
      <trkpt lat="43.00507" lon="1.13888">
        <ele>506.7</ele>
        <time>2025-12-28T08:33:42.000Z</time>
      </trkpt>
      <trkpt lat="43.0051" lon="1.13888">
        <ele>505.1</ele>
        <time>2025-12-28T08:33:43.000Z</time>
      </trkpt>
      <trkpt lat="43.00513" lon="1.13888">
        <ele>503.6</ele>
        <time>2025-12-28T08:33:44.000Z</time>
      </trkpt>
      <trkpt lat="43.00516" lon="1.13888">
        <ele>502.9</ele>
        <time>2025-12-28T08:33:45.000Z</time>
      </trkpt>
      <trkpt lat="43.0052" lon="1.13889">
        <ele>503.6</ele>
        <time>2025-12-28T08:33:46.000Z</time>
      </trkpt>
      <trkpt lat="43.00521" lon="1.13888">
        <ele>502.1</ele>
        <time>2025-12-28T08:33:47.000Z</time>
      </trkpt>
      <trkpt lat="43.00523" lon="1.13887">
        <ele>501</ele>
        <time>2025-12-28T08:33:48.000Z</time>
      </trkpt>
      <trkpt lat="43.00526" lon="1.13887">
        <ele>500.8</ele>
        <time>2025-12-28T08:33:49.000Z</time>
      </trkpt>
      <trkpt lat="43.00529" lon="1.13886">
        <ele>499.5</ele>
        <time>2025-12-28T08:33:50.000Z</time>
      </trkpt>
      <trkpt lat="43.0053" lon="1.13883">
        <ele>500.9</ele>
        <time>2025-12-28T08:33:51.000Z</time>
      </trkpt>
      <trkpt lat="43.00532" lon="1.13881">
        <ele>500.7</ele>
        <time>2025-12-28T08:33:52.000Z</time>
      </trkpt>
      <trkpt lat="43.00534" lon="1.13881">
        <ele>502.2</ele>
        <time>2025-12-28T08:33:53.000Z</time>
      </trkpt>
      <trkpt lat="43.00537" lon="1.13883">
        <ele>501.6</ele>
        <time>2025-12-28T08:33:54.000Z</time>
      </trkpt>
      <trkpt lat="43.00539" lon="1.13886">
        <ele>499.7</ele>
        <time>2025-12-28T08:33:55.000Z</time>
      </trkpt>
      <trkpt lat="43.00541" lon="1.13892">
        <ele>497.9</ele>
        <time>2025-12-28T08:33:56.000Z</time>
      </trkpt>
      <trkpt lat="43.00543" lon="1.13896">
        <ele>496.1</ele>
        <time>2025-12-28T08:33:57.000Z</time>
      </trkpt>
      <trkpt lat="43.00546" lon="1.139">
        <ele>496.1</ele>
        <time>2025-12-28T08:33:58.000Z</time>
      </trkpt>
      <trkpt lat="43.00549" lon="1.13905">
        <ele>494.4</ele>
        <time>2025-12-28T08:33:59.000Z</time>
      </trkpt>
      <trkpt lat="43.00552" lon="1.1391">
        <ele>494.6</ele>
        <time>2025-12-28T08:34:00.000Z</time>
      </trkpt>
      <trkpt lat="43.00555" lon="1.13915">
        <ele>493.6</ele>
        <time>2025-12-28T08:34:01.000Z</time>
      </trkpt>
      <trkpt lat="43.00557" lon="1.1392">
        <ele>492</ele>
        <time>2025-12-28T08:34:02.000Z</time>
      </trkpt>
      <trkpt lat="43.0056" lon="1.13923">
        <ele>491.3</ele>
        <time>2025-12-28T08:34:03.000Z</time>
      </trkpt>
      <trkpt lat="43.00562" lon="1.13925">
        <ele>490.7</ele>
        <time>2025-12-28T08:34:04.000Z</time>
      </trkpt>
      <trkpt lat="43.00565" lon="1.13927">
        <ele>489.7</ele>
        <time>2025-12-28T08:34:05.000Z</time>
      </trkpt>
      <trkpt lat="43.00569" lon="1.1393">
        <ele>489</ele>
        <time>2025-12-28T08:34:06.000Z</time>
      </trkpt>
      <trkpt lat="43.00574" lon="1.13936">
        <ele>487.7</ele>
        <time>2025-12-28T08:34:07.000Z</time>
      </trkpt>
      <trkpt lat="43.00578" lon="1.13943">
        <ele>487.5</ele>
        <time>2025-12-28T08:34:08.000Z</time>
      </trkpt>
      <trkpt lat="43.00581" lon="1.13949">
        <ele>485.7</ele>
        <time>2025-12-28T08:34:09.000Z</time>
      </trkpt>
      <trkpt lat="43.00585" lon="1.13955">
        <ele>485.9</ele>
        <time>2025-12-28T08:34:10.000Z</time>
      </trkpt>
      <trkpt lat="43.0059" lon="1.13961">
        <ele>486</ele>
        <time>2025-12-28T08:34:11.000Z</time>
      </trkpt>
      <trkpt lat="43.00594" lon="1.13966">
        <ele>485.7</ele>
        <time>2025-12-28T08:34:12.000Z</time>
      </trkpt>
      <trkpt lat="43.00599" lon="1.13971">
        <ele>484.9</ele>
        <time>2025-12-28T08:34:13.000Z</time>
      </trkpt>
      <trkpt lat="43.00603" lon="1.13976">
        <ele>484.3</ele>
        <time>2025-12-28T08:34:14.000Z</time>
      </trkpt>
      <trkpt lat="43.00608" lon="1.13982">
        <ele>483.7</ele>
        <time>2025-12-28T08:34:15.000Z</time>
      </trkpt>
      <trkpt lat="43.00613" lon="1.13988">
        <ele>484.6</ele>
        <time>2025-12-28T08:34:16.000Z</time>
      </trkpt>
      <trkpt lat="43.00617" lon="1.13994">
        <ele>484.5</ele>
        <time>2025-12-28T08:34:17.000Z</time>
      </trkpt>
      <trkpt lat="43.0062" lon="1.13999">
        <ele>484.4</ele>
        <time>2025-12-28T08:34:18.000Z</time>
      </trkpt>
      <trkpt lat="43.00623" lon="1.14005">
        <ele>484.4</ele>
        <time>2025-12-28T08:34:19.000Z</time>
      </trkpt>
      <trkpt lat="43.00627" lon="1.14011">
        <ele>484.6</ele>
        <time>2025-12-28T08:34:20.000Z</time>
      </trkpt>
      <trkpt lat="43.0063" lon="1.14016">
        <ele>485.2</ele>
        <time>2025-12-28T08:34:21.000Z</time>
      </trkpt>
      <trkpt lat="43.00633" lon="1.14022">
        <ele>485.6</ele>
        <time>2025-12-28T08:34:22.000Z</time>
      </trkpt>
      <trkpt lat="43.00636" lon="1.14026">
        <ele>486.8</ele>
        <time>2025-12-28T08:34:23.000Z</time>
      </trkpt>
      <trkpt lat="43.00638" lon="1.1403">
        <ele>487.2</ele>
        <time>2025-12-28T08:34:24.000Z</time>
      </trkpt>
      <trkpt lat="43.0064" lon="1.14034">
        <ele>487.5</ele>
        <time>2025-12-28T08:34:25.000Z</time>
      </trkpt>
      <trkpt lat="43.00642" lon="1.14037">
        <ele>487.5</ele>
        <time>2025-12-28T08:34:26.000Z</time>
      </trkpt>
      <trkpt lat="43.00644" lon="1.14041">
        <ele>488.1</ele>
        <time>2025-12-28T08:34:27.000Z</time>
      </trkpt>
      <trkpt lat="43.00646" lon="1.14045">
        <ele>487.4</ele>
        <time>2025-12-28T08:34:28.000Z</time>
      </trkpt>
      <trkpt lat="43.00647" lon="1.14048">
        <ele>487.7</ele>
        <time>2025-12-28T08:34:29.000Z</time>
      </trkpt>
      <trkpt lat="43.00649" lon="1.14052">
        <ele>487.6</ele>
        <time>2025-12-28T08:34:30.000Z</time>
      </trkpt>
      <trkpt lat="43.00651" lon="1.14055">
        <ele>487.7</ele>
        <time>2025-12-28T08:34:31.000Z</time>
      </trkpt>
      <trkpt lat="43.00652" lon="1.14059">
        <ele>489.3</ele>
        <time>2025-12-28T08:34:32.000Z</time>
      </trkpt>
      <trkpt lat="43.00654" lon="1.14062">
        <ele>490.3</ele>
        <time>2025-12-28T08:34:33.000Z</time>
      </trkpt>
      <trkpt lat="43.00656" lon="1.14065">
        <ele>492.1</ele>
        <time>2025-12-28T08:34:34.000Z</time>
      </trkpt>
      <trkpt lat="43.00657" lon="1.14067">
        <ele>492.1</ele>
        <time>2025-12-28T08:34:35.000Z</time>
      </trkpt>
      <trkpt lat="43.00658" lon="1.14069">
        <ele>492.8</ele>
        <time>2025-12-28T08:34:36.000Z</time>
      </trkpt>
      <trkpt lat="43.0066" lon="1.14071">
        <ele>493.7</ele>
        <time>2025-12-28T08:34:37.000Z</time>
      </trkpt>
      <trkpt lat="43.00663" lon="1.14074">
        <ele>494.9</ele>
        <time>2025-12-28T08:34:38.000Z</time>
      </trkpt>
      <trkpt lat="43.00667" lon="1.14079">
        <ele>494.1</ele>
        <time>2025-12-28T08:34:39.000Z</time>
      </trkpt>
      <trkpt lat="43.00669" lon="1.14082">
        <ele>491.4</ele>
        <time>2025-12-28T08:34:40.000Z</time>
      </trkpt>
      <trkpt lat="43.0067" lon="1.14087">
        <ele>491.2</ele>
        <time>2025-12-28T08:34:41.000Z</time>
      </trkpt>
      <trkpt lat="43.00672" lon="1.14091">
        <ele>491.3</ele>
        <time>2025-12-28T08:34:42.000Z</time>
      </trkpt>
      <trkpt lat="43.00674" lon="1.14096">
        <ele>490.7</ele>
        <time>2025-12-28T08:34:43.000Z</time>
      </trkpt>
      <trkpt lat="43.00676" lon="1.14102">
        <ele>490.1</ele>
        <time>2025-12-28T08:34:44.000Z</time>
      </trkpt>
      <trkpt lat="43.00679" lon="1.14107">
        <ele>490.1</ele>
        <time>2025-12-28T08:34:45.000Z</time>
      </trkpt>
      <trkpt lat="43.00681" lon="1.14111">
        <ele>489.6</ele>
        <time>2025-12-28T08:34:46.000Z</time>
      </trkpt>
      <trkpt lat="43.00684" lon="1.14114">
        <ele>487.5</ele>
        <time>2025-12-28T08:34:47.000Z</time>
      </trkpt>
      <trkpt lat="43.00688" lon="1.14117">
        <ele>487.7</ele>
        <time>2025-12-28T08:34:48.000Z</time>
      </trkpt>
      <trkpt lat="43.00692" lon="1.1412">
        <ele>488</ele>
        <time>2025-12-28T08:34:49.000Z</time>
      </trkpt>
      <trkpt lat="43.00696" lon="1.14122">
        <ele>489.2</ele>
        <time>2025-12-28T08:34:50.000Z</time>
      </trkpt>
      <trkpt lat="43.00699" lon="1.14125">
        <ele>490.9</ele>
        <time>2025-12-28T08:34:51.000Z</time>
      </trkpt>
      <trkpt lat="43.00702" lon="1.14128">
        <ele>491.4</ele>
        <time>2025-12-28T08:34:52.000Z</time>
      </trkpt>
      <trkpt lat="43.00705" lon="1.14132">
        <ele>491.6</ele>
        <time>2025-12-28T08:34:53.000Z</time>
      </trkpt>
      <trkpt lat="43.00709" lon="1.14135">
        <ele>492.3</ele>
        <time>2025-12-28T08:34:54.000Z</time>
      </trkpt>
      <trkpt lat="43.00713" lon="1.14138">
        <ele>493</ele>
        <time>2025-12-28T08:34:55.000Z</time>
      </trkpt>
      <trkpt lat="43.00716" lon="1.14141">
        <ele>494.3</ele>
        <time>2025-12-28T08:34:56.000Z</time>
      </trkpt>
      <trkpt lat="43.00719" lon="1.14144">
        <ele>494.8</ele>
        <time>2025-12-28T08:34:57.000Z</time>
      </trkpt>
      <trkpt lat="43.00722" lon="1.14148">
        <ele>494.5</ele>
        <time>2025-12-28T08:34:58.000Z</time>
      </trkpt>
      <trkpt lat="43.00725" lon="1.1415">
        <ele>494.8</ele>
        <time>2025-12-28T08:34:59.000Z</time>
      </trkpt>
      <trkpt lat="43.00727" lon="1.14153">
        <ele>496.3</ele>
        <time>2025-12-28T08:35:00.000Z</time>
      </trkpt>
      <trkpt lat="43.00728" lon="1.14154">
        <ele>499.6</ele>
        <time>2025-12-28T08:35:01.000Z</time>
      </trkpt>
      <trkpt lat="43.0073" lon="1.14156">
        <ele>499.7</ele>
        <time>2025-12-28T08:35:02.000Z</time>
      </trkpt>
      <trkpt lat="43.00731" lon="1.14159">
        <ele>499.5</ele>
        <time>2025-12-28T08:35:03.000Z</time>
      </trkpt>
      <trkpt lat="43.00734" lon="1.14162">
        <ele>500</ele>
        <time>2025-12-28T08:35:04.000Z</time>
      </trkpt>
      <trkpt lat="43.00736" lon="1.14164">
        <ele>501</ele>
        <time>2025-12-28T08:35:05.000Z</time>
      </trkpt>
      <trkpt lat="43.00739" lon="1.14167">
        <ele>500.7</ele>
        <time>2025-12-28T08:35:06.000Z</time>
      </trkpt>
      <trkpt lat="43.00741" lon="1.14169">
        <ele>501.3</ele>
        <time>2025-12-28T08:35:07.000Z</time>
      </trkpt>
      <trkpt lat="43.00743" lon="1.14173">
        <ele>501.1</ele>
        <time>2025-12-28T08:35:08.000Z</time>
      </trkpt>
      <trkpt lat="43.00745" lon="1.14177">
        <ele>501</ele>
        <time>2025-12-28T08:35:09.000Z</time>
      </trkpt>
      <trkpt lat="43.00748" lon="1.1418">
        <ele>501</ele>
        <time>2025-12-28T08:35:10.000Z</time>
      </trkpt>
      <trkpt lat="43.0075" lon="1.14182">
        <ele>501.4</ele>
        <time>2025-12-28T08:35:11.000Z</time>
      </trkpt>
      <trkpt lat="43.00753" lon="1.14184">
        <ele>503</ele>
        <time>2025-12-28T08:35:12.000Z</time>
      </trkpt>
      <trkpt lat="43.00755" lon="1.14186">
        <ele>504.4</ele>
        <time>2025-12-28T08:35:13.000Z</time>
      </trkpt>
      <trkpt lat="43.00758" lon="1.14188">
        <ele>505.3</ele>
        <time>2025-12-28T08:35:14.000Z</time>
      </trkpt>
      <trkpt lat="43.00761" lon="1.1419">
        <ele>505.3</ele>
        <time>2025-12-28T08:35:15.000Z</time>
      </trkpt>
      <trkpt lat="43.00765" lon="1.14193">
        <ele>504.8</ele>
        <time>2025-12-28T08:35:16.000Z</time>
      </trkpt>
      <trkpt lat="43.00768" lon="1.14195">
        <ele>505.3</ele>
        <time>2025-12-28T08:35:17.000Z</time>
      </trkpt>
      <trkpt lat="43.00771" lon="1.14198">
        <ele>505.8</ele>
        <time>2025-12-28T08:35:18.000Z</time>
      </trkpt>
      <trkpt lat="43.00774" lon="1.14201">
        <ele>505.9</ele>
        <time>2025-12-28T08:35:19.000Z</time>
      </trkpt>
      <trkpt lat="43.00778" lon="1.14204">
        <ele>506.8</ele>
        <time>2025-12-28T08:35:20.000Z</time>
      </trkpt>
      <trkpt lat="43.00781" lon="1.14207">
        <ele>507.4</ele>
        <time>2025-12-28T08:35:21.000Z</time>
      </trkpt>
      <trkpt lat="43.00783" lon="1.1421">
        <ele>509.6</ele>
        <time>2025-12-28T08:35:22.000Z</time>
      </trkpt>
      <trkpt lat="43.00786" lon="1.14213">
        <ele>510.9</ele>
        <time>2025-12-28T08:35:23.000Z</time>
      </trkpt>
      <trkpt lat="43.00789" lon="1.14216">
        <ele>510.8</ele>
        <time>2025-12-28T08:35:24.000Z</time>
      </trkpt>
      <trkpt lat="43.00791" lon="1.14219">
        <ele>510.9</ele>
        <time>2025-12-28T08:35:25.000Z</time>
      </trkpt>
      <trkpt lat="43.00793" lon="1.14222">
        <ele>512.8</ele>
        <time>2025-12-28T08:35:26.000Z</time>
      </trkpt>
      <trkpt lat="43.00795" lon="1.14228">
        <ele>514.8</ele>
        <time>2025-12-28T08:35:27.000Z</time>
      </trkpt>
      <trkpt lat="43.00798" lon="1.14229">
        <ele>515.2</ele>
        <time>2025-12-28T08:35:28.000Z</time>
      </trkpt>
      <trkpt lat="43.00801" lon="1.14233">
        <ele>515.5</ele>
        <time>2025-12-28T08:35:29.000Z</time>
      </trkpt>
      <trkpt lat="43.00803" lon="1.14236">
        <ele>515.6</ele>
        <time>2025-12-28T08:35:30.000Z</time>
      </trkpt>
      <trkpt lat="43.00806" lon="1.1424">
        <ele>514.7</ele>
        <time>2025-12-28T08:35:31.000Z</time>
      </trkpt>
      <trkpt lat="43.00809" lon="1.14242">
        <ele>515.6</ele>
        <time>2025-12-28T08:35:32.000Z</time>
      </trkpt>
      <trkpt lat="43.00812" lon="1.14247">
        <ele>514.4</ele>
        <time>2025-12-28T08:35:33.000Z</time>
      </trkpt>
      <trkpt lat="43.00818" lon="1.14253">
        <ele>512.9</ele>
        <time>2025-12-28T08:35:34.000Z</time>
      </trkpt>
      <trkpt lat="43.00823" lon="1.14256">
        <ele>510.2</ele>
        <time>2025-12-28T08:35:35.000Z</time>
      </trkpt>
      <trkpt lat="43.00825" lon="1.14262">
        <ele>509.4</ele>
        <time>2025-12-28T08:35:36.000Z</time>
      </trkpt>
      <trkpt lat="43.00828" lon="1.14269">
        <ele>510.3</ele>
        <time>2025-12-28T08:35:37.000Z</time>
      </trkpt>
      <trkpt lat="43.00831" lon="1.14274">
        <ele>509.5</ele>
        <time>2025-12-28T08:35:38.000Z</time>
      </trkpt>
      <trkpt lat="43.00833" lon="1.14279">
        <ele>510</ele>
        <time>2025-12-28T08:35:39.000Z</time>
      </trkpt>
      <trkpt lat="43.00835" lon="1.14285">
        <ele>509.7</ele>
        <time>2025-12-28T08:35:40.000Z</time>
      </trkpt>
      <trkpt lat="43.00836" lon="1.14288">
        <ele>510.9</ele>
        <time>2025-12-28T08:35:41.000Z</time>
      </trkpt>
      <trkpt lat="43.00837" lon="1.14292">
        <ele>510.1</ele>
        <time>2025-12-28T08:35:42.000Z</time>
      </trkpt>
      <trkpt lat="43.00838" lon="1.14297">
        <ele>510.3</ele>
        <time>2025-12-28T08:35:43.000Z</time>
      </trkpt>
      <trkpt lat="43.0084" lon="1.14302">
        <ele>511.7</ele>
        <time>2025-12-28T08:35:44.000Z</time>
      </trkpt>
      <trkpt lat="43.00841" lon="1.14306">
        <ele>511.8</ele>
        <time>2025-12-28T08:35:45.000Z</time>
      </trkpt>
      <trkpt lat="43.00842" lon="1.14312">
        <ele>512.4</ele>
        <time>2025-12-28T08:35:46.000Z</time>
      </trkpt>
      <trkpt lat="43.00842" lon="1.14316">
        <ele>514.5</ele>
        <time>2025-12-28T08:35:47.000Z</time>
      </trkpt>
      <trkpt lat="43.00843" lon="1.14319">
        <ele>514.5</ele>
        <time>2025-12-28T08:35:48.000Z</time>
      </trkpt>
      <trkpt lat="43.00843" lon="1.14323">
        <ele>514.8</ele>
        <time>2025-12-28T08:35:49.000Z</time>
      </trkpt>
      <trkpt lat="43.00843" lon="1.14327">
        <ele>514</ele>
        <time>2025-12-28T08:35:50.000Z</time>
      </trkpt>
      <trkpt lat="43.00844" lon="1.14332">
        <ele>515</ele>
        <time>2025-12-28T08:35:51.000Z</time>
      </trkpt>
      <trkpt lat="43.00844" lon="1.14335">
        <ele>515</ele>
        <time>2025-12-28T08:35:52.000Z</time>
      </trkpt>
      <trkpt lat="43.00843" lon="1.14339">
        <ele>516.3</ele>
        <time>2025-12-28T08:35:53.000Z</time>
      </trkpt>
      <trkpt lat="43.00843" lon="1.14342">
        <ele>517</ele>
        <time>2025-12-28T08:35:54.000Z</time>
      </trkpt>
      <trkpt lat="43.00843" lon="1.14346">
        <ele>517.1</ele>
        <time>2025-12-28T08:35:55.000Z</time>
      </trkpt>
      <trkpt lat="43.00843" lon="1.14351">
        <ele>517.4</ele>
        <time>2025-12-28T08:35:56.000Z</time>
      </trkpt>
      <trkpt lat="43.00842" lon="1.14355">
        <ele>518.3</ele>
        <time>2025-12-28T08:35:57.000Z</time>
      </trkpt>
      <trkpt lat="43.00842" lon="1.14359">
        <ele>520.1</ele>
        <time>2025-12-28T08:35:58.000Z</time>
      </trkpt>
      <trkpt lat="43.00841" lon="1.14362">
        <ele>518.8</ele>
        <time>2025-12-28T08:35:59.000Z</time>
      </trkpt>
      <trkpt lat="43.0084" lon="1.14366">
        <ele>520.1</ele>
        <time>2025-12-28T08:36:00.000Z</time>
      </trkpt>
      <trkpt lat="43.0084" lon="1.14371">
        <ele>519.9</ele>
        <time>2025-12-28T08:36:01.000Z</time>
      </trkpt>
      <trkpt lat="43.00839" lon="1.14375">
        <ele>520.7</ele>
        <time>2025-12-28T08:36:02.000Z</time>
      </trkpt>
      <trkpt lat="43.00839" lon="1.1438">
        <ele>520.8</ele>
        <time>2025-12-28T08:36:03.000Z</time>
      </trkpt>
      <trkpt lat="43.0084" lon="1.14384">
        <ele>522.2</ele>
        <time>2025-12-28T08:36:04.000Z</time>
      </trkpt>
      <trkpt lat="43.0084" lon="1.14387">
        <ele>522.6</ele>
        <time>2025-12-28T08:36:05.000Z</time>
      </trkpt>
      <trkpt lat="43.00841" lon="1.14391">
        <ele>522.8</ele>
        <time>2025-12-28T08:36:06.000Z</time>
      </trkpt>
      <trkpt lat="43.00842" lon="1.14393">
        <ele>522.2</ele>
        <time>2025-12-28T08:36:07.000Z</time>
      </trkpt>
      <trkpt lat="43.00843" lon="1.14394">
        <ele>522.4</ele>
        <time>2025-12-28T08:36:08.000Z</time>
      </trkpt>
      <trkpt lat="43.00843" lon="1.14393">
        <ele>522.2</ele>
        <time>2025-12-28T08:36:09.000Z</time>
      </trkpt>
      <trkpt lat="43.00843" lon="1.14393">
        <ele>522.4</ele>
        <time>2025-12-28T08:36:10.000Z</time>
      </trkpt>
      <trkpt lat="43.00843" lon="1.14392">
        <ele>522.6</ele>
        <time>2025-12-28T08:36:11.000Z</time>
      </trkpt>
      <trkpt lat="43.00845" lon="1.14391">
        <ele>523.1</ele>
        <time>2025-12-28T08:36:12.000Z</time>
      </trkpt>
      <trkpt lat="43.00846" lon="1.1439">
        <ele>524.8</ele>
        <time>2025-12-28T08:36:13.000Z</time>
      </trkpt>
      <trkpt lat="43.00846" lon="1.14391">
        <ele>525.8</ele>
        <time>2025-12-28T08:36:14.000Z</time>
      </trkpt>
      <trkpt lat="43.00845" lon="1.14393">
        <ele>525.4</ele>
        <time>2025-12-28T08:36:15.000Z</time>
      </trkpt>
      <trkpt lat="43.00844" lon="1.14394">
        <ele>525.3</ele>
        <time>2025-12-28T08:36:16.000Z</time>
      </trkpt>
      <trkpt lat="43.00843" lon="1.14395">
        <ele>525.5</ele>
        <time>2025-12-28T08:36:17.000Z</time>
      </trkpt>
      <trkpt lat="43.00843" lon="1.14396">
        <ele>525.4</ele>
        <time>2025-12-28T08:36:18.000Z</time>
      </trkpt>
      <trkpt lat="43.00844" lon="1.14397">
        <ele>525.4</ele>
        <time>2025-12-28T08:36:19.000Z</time>
      </trkpt>
      <trkpt lat="43.00846" lon="1.14397">
        <ele>525.1</ele>
        <time>2025-12-28T08:36:20.000Z</time>
      </trkpt>
      <trkpt lat="43.00848" lon="1.14397">
        <ele>525.3</ele>
        <time>2025-12-28T08:36:21.000Z</time>
      </trkpt>
      <trkpt lat="43.0085" lon="1.14396">
        <ele>526.2</ele>
        <time>2025-12-28T08:36:22.000Z</time>
      </trkpt>
      <trkpt lat="43.00852" lon="1.14396">
        <ele>526.6</ele>
        <time>2025-12-28T08:36:23.000Z</time>
      </trkpt>
      <trkpt lat="43.00854" lon="1.14394">
        <ele>526.6</ele>
        <time>2025-12-28T08:36:24.000Z</time>
      </trkpt>
      <trkpt lat="43.00856" lon="1.14392">
        <ele>527.5</ele>
        <time>2025-12-28T08:36:25.000Z</time>
      </trkpt>
      <trkpt lat="43.00858" lon="1.14392">
        <ele>528.9</ele>
        <time>2025-12-28T08:36:26.000Z</time>
      </trkpt>
      <trkpt lat="43.00859" lon="1.14393">
        <ele>528.9</ele>
        <time>2025-12-28T08:36:27.000Z</time>
      </trkpt>
      <trkpt lat="43.00861" lon="1.14395">
        <ele>526.4</ele>
        <time>2025-12-28T08:36:28.000Z</time>
      </trkpt>
      <trkpt lat="43.00861" lon="1.14397">
        <ele>527.1</ele>
        <time>2025-12-28T08:36:29.000Z</time>
      </trkpt>
      <trkpt lat="43.00861" lon="1.14399">
        <ele>526.5</ele>
        <time>2025-12-28T08:36:30.000Z</time>
      </trkpt>
      <trkpt lat="43.00861" lon="1.14402">
        <ele>526.7</ele>
        <time>2025-12-28T08:36:31.000Z</time>
      </trkpt>
      <trkpt lat="43.00861" lon="1.14405">
        <ele>527.4</ele>
        <time>2025-12-28T08:36:32.000Z</time>
      </trkpt>
      <trkpt lat="43.00862" lon="1.14409">
        <ele>528.3</ele>
        <time>2025-12-28T08:36:33.000Z</time>
      </trkpt>
      <trkpt lat="43.00862" lon="1.14411">
        <ele>528.6</ele>
        <time>2025-12-28T08:36:34.000Z</time>
      </trkpt>
      <trkpt lat="43.00862" lon="1.14415">
        <ele>529.2</ele>
        <time>2025-12-28T08:36:35.000Z</time>
      </trkpt>
      <trkpt lat="43.00861" lon="1.14418">
        <ele>531.1</ele>
        <time>2025-12-28T08:36:36.000Z</time>
      </trkpt>
      <trkpt lat="43.00861" lon="1.14421">
        <ele>532.3</ele>
        <time>2025-12-28T08:36:37.000Z</time>
      </trkpt>
      <trkpt lat="43.00861" lon="1.14424">
        <ele>532.1</ele>
        <time>2025-12-28T08:36:38.000Z</time>
      </trkpt>
      <trkpt lat="43.00861" lon="1.14428">
        <ele>531.7</ele>
        <time>2025-12-28T08:36:39.000Z</time>
      </trkpt>
      <trkpt lat="43.00861" lon="1.14431">
        <ele>532.6</ele>
        <time>2025-12-28T08:36:40.000Z</time>
      </trkpt>
      <trkpt lat="43.00861" lon="1.14434">
        <ele>533.4</ele>
        <time>2025-12-28T08:36:41.000Z</time>
      </trkpt>
      <trkpt lat="43.00861" lon="1.14437">
        <ele>533.8</ele>
        <time>2025-12-28T08:36:42.000Z</time>
      </trkpt>
      <trkpt lat="43.00862" lon="1.14441">
        <ele>534.2</ele>
        <time>2025-12-28T08:36:43.000Z</time>
      </trkpt>
      <trkpt lat="43.00862" lon="1.14444">
        <ele>534.9</ele>
        <time>2025-12-28T08:36:44.000Z</time>
      </trkpt>
      <trkpt lat="43.00863" lon="1.14445">
        <ele>533.1</ele>
        <time>2025-12-28T08:36:45.000Z</time>
      </trkpt>
      <trkpt lat="43.00865" lon="1.14446">
        <ele>532.3</ele>
        <time>2025-12-28T08:36:46.000Z</time>
      </trkpt>
      <trkpt lat="43.00867" lon="1.14446">
        <ele>532.4</ele>
        <time>2025-12-28T08:36:47.000Z</time>
      </trkpt>
      <trkpt lat="43.0087" lon="1.14446">
        <ele>532.4</ele>
        <time>2025-12-28T08:36:48.000Z</time>
      </trkpt>
      <trkpt lat="43.00872" lon="1.14446">
        <ele>533.1</ele>
        <time>2025-12-28T08:36:49.000Z</time>
      </trkpt>
      <trkpt lat="43.00874" lon="1.14446">
        <ele>534.3</ele>
        <time>2025-12-28T08:36:50.000Z</time>
      </trkpt>
      <trkpt lat="43.00875" lon="1.14446">
        <ele>534.3</ele>
        <time>2025-12-28T08:36:51.000Z</time>
      </trkpt>
      <trkpt lat="43.00876" lon="1.14445">
        <ele>535.8</ele>
        <time>2025-12-28T08:36:52.000Z</time>
      </trkpt>
      <trkpt lat="43.00877" lon="1.14445">
        <ele>537</ele>
        <time>2025-12-28T08:36:53.000Z</time>
      </trkpt>
      <trkpt lat="43.00879" lon="1.14444">
        <ele>537.4</ele>
        <time>2025-12-28T08:36:54.000Z</time>
      </trkpt>
      <trkpt lat="43.0088" lon="1.14442">
        <ele>539.3</ele>
        <time>2025-12-28T08:36:55.000Z</time>
      </trkpt>
      <trkpt lat="43.00881" lon="1.1444">
        <ele>539.7</ele>
        <time>2025-12-28T08:36:56.000Z</time>
      </trkpt>
      <trkpt lat="43.00882" lon="1.14438">
        <ele>541.2</ele>
        <time>2025-12-28T08:36:57.000Z</time>
      </trkpt>
      <trkpt lat="43.00883" lon="1.14436">
        <ele>540.5</ele>
        <time>2025-12-28T08:36:58.000Z</time>
      </trkpt>
      <trkpt lat="43.00884" lon="1.14433">
        <ele>540.1</ele>
        <time>2025-12-28T08:36:59.000Z</time>
      </trkpt>
      <trkpt lat="43.00884" lon="1.1443">
        <ele>541</ele>
        <time>2025-12-28T08:37:00.000Z</time>
      </trkpt>
      <trkpt lat="43.00885" lon="1.14427">
        <ele>541.1</ele>
        <time>2025-12-28T08:37:01.000Z</time>
      </trkpt>
      <trkpt lat="43.00886" lon="1.14424">
        <ele>541.8</ele>
        <time>2025-12-28T08:37:02.000Z</time>
      </trkpt>
      <trkpt lat="43.00887" lon="1.14421">
        <ele>542.6</ele>
        <time>2025-12-28T08:37:03.000Z</time>
      </trkpt>
      <trkpt lat="43.0089" lon="1.14418">
        <ele>542.3</ele>
        <time>2025-12-28T08:37:04.000Z</time>
      </trkpt>
      <trkpt lat="43.00893" lon="1.14415">
        <ele>540.5</ele>
        <time>2025-12-28T08:37:05.000Z</time>
      </trkpt>
      <trkpt lat="43.00897" lon="1.14413">
        <ele>542.6</ele>
        <time>2025-12-28T08:37:06.000Z</time>
      </trkpt>
      <trkpt lat="43.00901" lon="1.14413">
        <ele>543.2</ele>
        <time>2025-12-28T08:37:07.000Z</time>
      </trkpt>
      <trkpt lat="43.00904" lon="1.14413">
        <ele>543.1</ele>
        <time>2025-12-28T08:37:08.000Z</time>
      </trkpt>
      <trkpt lat="43.00906" lon="1.14414">
        <ele>544.7</ele>
        <time>2025-12-28T08:37:09.000Z</time>
      </trkpt>
      <trkpt lat="43.00907" lon="1.14414">
        <ele>545.6</ele>
        <time>2025-12-28T08:37:10.000Z</time>
      </trkpt>
      <trkpt lat="43.00908" lon="1.14415">
        <ele>546.6</ele>
        <time>2025-12-28T08:37:11.000Z</time>
      </trkpt>
      <trkpt lat="43.0091" lon="1.14416">
        <ele>547</ele>
        <time>2025-12-28T08:37:12.000Z</time>
      </trkpt>
      <trkpt lat="43.00912" lon="1.14417">
        <ele>547.7</ele>
        <time>2025-12-28T08:37:13.000Z</time>
      </trkpt>
      <trkpt lat="43.00913" lon="1.14419">
        <ele>547.6</ele>
        <time>2025-12-28T08:37:14.000Z</time>
      </trkpt>
      <trkpt lat="43.00915" lon="1.14421">
        <ele>548.6</ele>
        <time>2025-12-28T08:37:15.000Z</time>
      </trkpt>
      <trkpt lat="43.00917" lon="1.14423">
        <ele>548.9</ele>
        <time>2025-12-28T08:37:16.000Z</time>
      </trkpt>
      <trkpt lat="43.00919" lon="1.14425">
        <ele>548.5</ele>
        <time>2025-12-28T08:37:17.000Z</time>
      </trkpt>
      <trkpt lat="43.0092" lon="1.14427">
        <ele>549.5</ele>
        <time>2025-12-28T08:37:18.000Z</time>
      </trkpt>
      <trkpt lat="43.00921" lon="1.14428">
        <ele>549.8</ele>
        <time>2025-12-28T08:37:19.000Z</time>
      </trkpt>
      <trkpt lat="43.00922" lon="1.1443">
        <ele>549.8</ele>
        <time>2025-12-28T08:37:20.000Z</time>
      </trkpt>
      <trkpt lat="43.00923" lon="1.1443">
        <ele>548.5</ele>
        <time>2025-12-28T08:37:21.000Z</time>
      </trkpt>
      <trkpt lat="43.00924" lon="1.1443">
        <ele>547.7</ele>
        <time>2025-12-28T08:37:22.000Z</time>
      </trkpt>
      <trkpt lat="43.00924" lon="1.14429">
        <ele>549.1</ele>
        <time>2025-12-28T08:37:23.000Z</time>
      </trkpt>
      <trkpt lat="43.00924" lon="1.14429">
        <ele>549</ele>
        <time>2025-12-28T08:37:24.000Z</time>
      </trkpt>
      <trkpt lat="43.00925" lon="1.14429">
        <ele>549.2</ele>
        <time>2025-12-28T08:37:25.000Z</time>
      </trkpt>
      <trkpt lat="43.00925" lon="1.14429">
        <ele>548.7</ele>
        <time>2025-12-28T08:37:26.000Z</time>
      </trkpt>
      <trkpt lat="43.00925" lon="1.1443">
        <ele>548.6</ele>
        <time>2025-12-28T08:37:27.000Z</time>
      </trkpt>
      <trkpt lat="43.00925" lon="1.1443">
        <ele>548.8</ele>
        <time>2025-12-28T08:37:28.000Z</time>
      </trkpt>
      <trkpt lat="43.00925" lon="1.1443">
        <ele>548.9</ele>
        <time>2025-12-28T08:37:29.000Z</time>
      </trkpt>
      <trkpt lat="43.00925" lon="1.14431">
        <ele>548</ele>
        <time>2025-12-28T08:37:30.000Z</time>
      </trkpt>
      <trkpt lat="43.00925" lon="1.14432">
        <ele>548.1</ele>
        <time>2025-12-28T08:37:31.000Z</time>
      </trkpt>
      <trkpt lat="43.00926" lon="1.14435">
        <ele>548.1</ele>
        <time>2025-12-28T08:37:32.000Z</time>
      </trkpt>
      <trkpt lat="43.00926" lon="1.14439">
        <ele>548.9</ele>
        <time>2025-12-28T08:37:33.000Z</time>
      </trkpt>
      <trkpt lat="43.00927" lon="1.14442">
        <ele>550.4</ele>
        <time>2025-12-28T08:37:34.000Z</time>
      </trkpt>
      <trkpt lat="43.00928" lon="1.14445">
        <ele>551.3</ele>
        <time>2025-12-28T08:37:35.000Z</time>
      </trkpt>
      <trkpt lat="43.0093" lon="1.14448">
        <ele>551.8</ele>
        <time>2025-12-28T08:37:36.000Z</time>
      </trkpt>
      <trkpt lat="43.00931" lon="1.14451">
        <ele>551.6</ele>
        <time>2025-12-28T08:37:37.000Z</time>
      </trkpt>
      <trkpt lat="43.00932" lon="1.14455">
        <ele>551.5</ele>
        <time>2025-12-28T08:37:38.000Z</time>
      </trkpt>
      <trkpt lat="43.00934" lon="1.1446">
        <ele>550.2</ele>
        <time>2025-12-28T08:37:39.000Z</time>
      </trkpt>
      <trkpt lat="43.00936" lon="1.14466">
        <ele>551.4</ele>
        <time>2025-12-28T08:37:40.000Z</time>
      </trkpt>
      <trkpt lat="43.00938" lon="1.14471">
        <ele>551.1</ele>
        <time>2025-12-28T08:37:41.000Z</time>
      </trkpt>
      <trkpt lat="43.0094" lon="1.14476">
        <ele>550.7</ele>
        <time>2025-12-28T08:37:42.000Z</time>
      </trkpt>
      <trkpt lat="43.00942" lon="1.14481">
        <ele>550.2</ele>
        <time>2025-12-28T08:37:43.000Z</time>
      </trkpt>
      <trkpt lat="43.00944" lon="1.14486">
        <ele>551.9</ele>
        <time>2025-12-28T08:37:44.000Z</time>
      </trkpt>
      <trkpt lat="43.00946" lon="1.14491">
        <ele>552.3</ele>
        <time>2025-12-28T08:37:45.000Z</time>
      </trkpt>
      <trkpt lat="43.00948" lon="1.14497">
        <ele>552.1</ele>
        <time>2025-12-28T08:37:46.000Z</time>
      </trkpt>
      <trkpt lat="43.0095" lon="1.14504">
        <ele>552.7</ele>
        <time>2025-12-28T08:37:47.000Z</time>
      </trkpt>
      <trkpt lat="43.00952" lon="1.14509">
        <ele>552.3</ele>
        <time>2025-12-28T08:37:48.000Z</time>
      </trkpt>
      <trkpt lat="43.00954" lon="1.14511">
        <ele>553.2</ele>
        <time>2025-12-28T08:37:49.000Z</time>
      </trkpt>
      <trkpt lat="43.00956" lon="1.14512">
        <ele>552.1</ele>
        <time>2025-12-28T08:37:50.000Z</time>
      </trkpt>
      <trkpt lat="43.00959" lon="1.14515">
        <ele>554.2</ele>
        <time>2025-12-28T08:37:51.000Z</time>
      </trkpt>
      <trkpt lat="43.00961" lon="1.14518">
        <ele>554.7</ele>
        <time>2025-12-28T08:37:52.000Z</time>
      </trkpt>
      <trkpt lat="43.00963" lon="1.1452">
        <ele>555.1</ele>
        <time>2025-12-28T08:37:53.000Z</time>
      </trkpt>
      <trkpt lat="43.00965" lon="1.14523">
        <ele>554.7</ele>
        <time>2025-12-28T08:37:54.000Z</time>
      </trkpt>
      <trkpt lat="43.00966" lon="1.14527">
        <ele>555.9</ele>
        <time>2025-12-28T08:37:55.000Z</time>
      </trkpt>
      <trkpt lat="43.00968" lon="1.14533">
        <ele>556.3</ele>
        <time>2025-12-28T08:37:56.000Z</time>
      </trkpt>
      <trkpt lat="43.00969" lon="1.14538">
        <ele>555.8</ele>
        <time>2025-12-28T08:37:57.000Z</time>
      </trkpt>
      <trkpt lat="43.00972" lon="1.14541">
        <ele>557.7</ele>
        <time>2025-12-28T08:37:58.000Z</time>
      </trkpt>
      <trkpt lat="43.00974" lon="1.14543">
        <ele>558.5</ele>
        <time>2025-12-28T08:37:59.000Z</time>
      </trkpt>
      <trkpt lat="43.00976" lon="1.14547">
        <ele>558.2</ele>
        <time>2025-12-28T08:38:00.000Z</time>
      </trkpt>
      <trkpt lat="43.00978" lon="1.14551">
        <ele>557.8</ele>
        <time>2025-12-28T08:38:01.000Z</time>
      </trkpt>
      <trkpt lat="43.00979" lon="1.14555">
        <ele>558.4</ele>
        <time>2025-12-28T08:38:02.000Z</time>
      </trkpt>
      <trkpt lat="43.0098" lon="1.14559">
        <ele>558.8</ele>
        <time>2025-12-28T08:38:03.000Z</time>
      </trkpt>
      <trkpt lat="43.00982" lon="1.14562">
        <ele>558.5</ele>
        <time>2025-12-28T08:38:04.000Z</time>
      </trkpt>
      <trkpt lat="43.00984" lon="1.14563">
        <ele>558.7</ele>
        <time>2025-12-28T08:38:05.000Z</time>
      </trkpt>
      <trkpt lat="43.00985" lon="1.14563">
        <ele>558.8</ele>
        <time>2025-12-28T08:38:06.000Z</time>
      </trkpt>
      <trkpt lat="43.00987" lon="1.14564">
        <ele>558</ele>
        <time>2025-12-28T08:38:07.000Z</time>
      </trkpt>
      <trkpt lat="43.00989" lon="1.14564">
        <ele>557.9</ele>
        <time>2025-12-28T08:38:08.000Z</time>
      </trkpt>
      <trkpt lat="43.0099" lon="1.14565">
        <ele>559.1</ele>
        <time>2025-12-28T08:38:09.000Z</time>
      </trkpt>
      <trkpt lat="43.00992" lon="1.14566">
        <ele>560.2</ele>
        <time>2025-12-28T08:38:10.000Z</time>
      </trkpt>
      <trkpt lat="43.00993" lon="1.14567">
        <ele>560.5</ele>
        <time>2025-12-28T08:38:11.000Z</time>
      </trkpt>
      <trkpt lat="43.00994" lon="1.1457">
        <ele>560.5</ele>
        <time>2025-12-28T08:38:12.000Z</time>
      </trkpt>
      <trkpt lat="43.00995" lon="1.14572">
        <ele>561.3</ele>
        <time>2025-12-28T08:38:13.000Z</time>
      </trkpt>
      <trkpt lat="43.00996" lon="1.14574">
        <ele>561.3</ele>
        <time>2025-12-28T08:38:14.000Z</time>
      </trkpt>
      <trkpt lat="43.00997" lon="1.14577">
        <ele>562.2</ele>
        <time>2025-12-28T08:38:15.000Z</time>
      </trkpt>
      <trkpt lat="43.00998" lon="1.14578">
        <ele>562.3</ele>
        <time>2025-12-28T08:38:16.000Z</time>
      </trkpt>
      <trkpt lat="43.01" lon="1.14579">
        <ele>563.5</ele>
        <time>2025-12-28T08:38:17.000Z</time>
      </trkpt>
      <trkpt lat="43.01001" lon="1.14581">
        <ele>564.1</ele>
        <time>2025-12-28T08:38:18.000Z</time>
      </trkpt>
      <trkpt lat="43.01002" lon="1.14582">
        <ele>564.6</ele>
        <time>2025-12-28T08:38:19.000Z</time>
      </trkpt>
      <trkpt lat="43.01003" lon="1.14583">
        <ele>565</ele>
        <time>2025-12-28T08:38:20.000Z</time>
      </trkpt>
      <trkpt lat="43.01005" lon="1.14584">
        <ele>565.1</ele>
        <time>2025-12-28T08:38:21.000Z</time>
      </trkpt>
      <trkpt lat="43.01007" lon="1.14586">
        <ele>566</ele>
        <time>2025-12-28T08:38:22.000Z</time>
      </trkpt>
      <trkpt lat="43.01008" lon="1.1459">
        <ele>565.8</ele>
        <time>2025-12-28T08:38:23.000Z</time>
      </trkpt>
      <trkpt lat="43.01009" lon="1.14593">
        <ele>566.3</ele>
        <time>2025-12-28T08:38:24.000Z</time>
      </trkpt>
      <trkpt lat="43.01011" lon="1.14597">
        <ele>567.2</ele>
        <time>2025-12-28T08:38:25.000Z</time>
      </trkpt>
      <trkpt lat="43.01013" lon="1.14601">
        <ele>566.9</ele>
        <time>2025-12-28T08:38:26.000Z</time>
      </trkpt>
      <trkpt lat="43.01015" lon="1.14605">
        <ele>565.3</ele>
        <time>2025-12-28T08:38:27.000Z</time>
      </trkpt>
      <trkpt lat="43.01017" lon="1.14608">
        <ele>564.9</ele>
        <time>2025-12-28T08:38:28.000Z</time>
      </trkpt>
      <trkpt lat="43.01019" lon="1.1461">
        <ele>564.7</ele>
        <time>2025-12-28T08:38:29.000Z</time>
      </trkpt>
      <trkpt lat="43.01021" lon="1.14611">
        <ele>565.3</ele>
        <time>2025-12-28T08:38:30.000Z</time>
      </trkpt>
      <trkpt lat="43.01023" lon="1.14613">
        <ele>566</ele>
        <time>2025-12-28T08:38:31.000Z</time>
      </trkpt>
      <trkpt lat="43.01025" lon="1.14615">
        <ele>566.5</ele>
        <time>2025-12-28T08:38:32.000Z</time>
      </trkpt>
      <trkpt lat="43.01026" lon="1.14617">
        <ele>567.6</ele>
        <time>2025-12-28T08:38:33.000Z</time>
      </trkpt>
      <trkpt lat="43.01028" lon="1.1462">
        <ele>568.1</ele>
        <time>2025-12-28T08:38:34.000Z</time>
      </trkpt>
      <trkpt lat="43.01029" lon="1.14622">
        <ele>568.4</ele>
        <time>2025-12-28T08:38:35.000Z</time>
      </trkpt>
      <trkpt lat="43.01029" lon="1.14625">
        <ele>568.5</ele>
        <time>2025-12-28T08:38:36.000Z</time>
      </trkpt>
      <trkpt lat="43.01029" lon="1.14629">
        <ele>569.4</ele>
        <time>2025-12-28T08:38:37.000Z</time>
      </trkpt>
      <trkpt lat="43.0103" lon="1.14633">
        <ele>570.4</ele>
        <time>2025-12-28T08:38:38.000Z</time>
      </trkpt>
      <trkpt lat="43.01032" lon="1.14638">
        <ele>570.1</ele>
        <time>2025-12-28T08:38:39.000Z</time>
      </trkpt>
      <trkpt lat="43.01033" lon="1.14642">
        <ele>569.5</ele>
        <time>2025-12-28T08:38:40.000Z</time>
      </trkpt>
      <trkpt lat="43.01036" lon="1.14644">
        <ele>570.1</ele>
        <time>2025-12-28T08:38:41.000Z</time>
      </trkpt>
      <trkpt lat="43.01039" lon="1.14647">
        <ele>568.5</ele>
        <time>2025-12-28T08:38:42.000Z</time>
      </trkpt>
      <trkpt lat="43.01041" lon="1.1465">
        <ele>569.1</ele>
        <time>2025-12-28T08:38:43.000Z</time>
      </trkpt>
      <trkpt lat="43.01042" lon="1.14653">
        <ele>570</ele>
        <time>2025-12-28T08:38:44.000Z</time>
      </trkpt>
      <trkpt lat="43.01043" lon="1.14655">
        <ele>570.1</ele>
        <time>2025-12-28T08:38:45.000Z</time>
      </trkpt>
      <trkpt lat="43.01044" lon="1.14658">
        <ele>570.3</ele>
        <time>2025-12-28T08:38:46.000Z</time>
      </trkpt>
      <trkpt lat="43.01046" lon="1.1466">
        <ele>571.2</ele>
        <time>2025-12-28T08:38:47.000Z</time>
      </trkpt>
      <trkpt lat="43.01047" lon="1.14662">
        <ele>571.3</ele>
        <time>2025-12-28T08:38:48.000Z</time>
      </trkpt>
      <trkpt lat="43.01047" lon="1.14664">
        <ele>572.8</ele>
        <time>2025-12-28T08:38:49.000Z</time>
      </trkpt>
      <trkpt lat="43.01048" lon="1.14666">
        <ele>573.8</ele>
        <time>2025-12-28T08:38:50.000Z</time>
      </trkpt>
      <trkpt lat="43.01049" lon="1.14669">
        <ele>573.4</ele>
        <time>2025-12-28T08:38:51.000Z</time>
      </trkpt>
      <trkpt lat="43.0105" lon="1.14672">
        <ele>573.2</ele>
        <time>2025-12-28T08:38:52.000Z</time>
      </trkpt>
      <trkpt lat="43.01052" lon="1.14674">
        <ele>573.1</ele>
        <time>2025-12-28T08:38:53.000Z</time>
      </trkpt>
      <trkpt lat="43.01054" lon="1.14676">
        <ele>573.3</ele>
        <time>2025-12-28T08:38:54.000Z</time>
      </trkpt>
      <trkpt lat="43.01055" lon="1.14678">
        <ele>574.2</ele>
        <time>2025-12-28T08:38:55.000Z</time>
      </trkpt>
      <trkpt lat="43.01056" lon="1.14679">
        <ele>574.4</ele>
        <time>2025-12-28T08:38:56.000Z</time>
      </trkpt>
      <trkpt lat="43.01057" lon="1.1468">
        <ele>575.8</ele>
        <time>2025-12-28T08:38:57.000Z</time>
      </trkpt>
      <trkpt lat="43.01059" lon="1.14681">
        <ele>576.8</ele>
        <time>2025-12-28T08:38:58.000Z</time>
      </trkpt>
      <trkpt lat="43.01061" lon="1.14683">
        <ele>578.8</ele>
        <time>2025-12-28T08:38:59.000Z</time>
      </trkpt>
      <trkpt lat="43.01062" lon="1.14686">
        <ele>578.3</ele>
        <time>2025-12-28T08:39:00.000Z</time>
      </trkpt>
      <trkpt lat="43.01063" lon="1.1469">
        <ele>579.7</ele>
        <time>2025-12-28T08:39:01.000Z</time>
      </trkpt>
      <trkpt lat="43.01065" lon="1.14693">
        <ele>579.8</ele>
        <time>2025-12-28T08:39:02.000Z</time>
      </trkpt>
      <trkpt lat="43.01066" lon="1.14696">
        <ele>579.6</ele>
        <time>2025-12-28T08:39:03.000Z</time>
      </trkpt>
      <trkpt lat="43.01068" lon="1.14699">
        <ele>580.2</ele>
        <time>2025-12-28T08:39:04.000Z</time>
      </trkpt>
      <trkpt lat="43.01071" lon="1.14702">
        <ele>580.1</ele>
        <time>2025-12-28T08:39:05.000Z</time>
      </trkpt>
      <trkpt lat="43.01073" lon="1.14704">
        <ele>580.9</ele>
        <time>2025-12-28T08:39:06.000Z</time>
      </trkpt>
      <trkpt lat="43.01075" lon="1.14705">
        <ele>582.4</ele>
        <time>2025-12-28T08:39:07.000Z</time>
      </trkpt>
      <trkpt lat="43.01078" lon="1.14707">
        <ele>581.1</ele>
        <time>2025-12-28T08:39:08.000Z</time>
      </trkpt>
      <trkpt lat="43.01081" lon="1.14709">
        <ele>581.7</ele>
        <time>2025-12-28T08:39:09.000Z</time>
      </trkpt>
      <trkpt lat="43.01084" lon="1.1471">
        <ele>581.4</ele>
        <time>2025-12-28T08:39:10.000Z</time>
      </trkpt>
      <trkpt lat="43.01086" lon="1.14712">
        <ele>581.1</ele>
        <time>2025-12-28T08:39:11.000Z</time>
      </trkpt>
      <trkpt lat="43.01087" lon="1.14713">
        <ele>581.2</ele>
        <time>2025-12-28T08:39:12.000Z</time>
      </trkpt>
      <trkpt lat="43.0109" lon="1.14715">
        <ele>581.8</ele>
        <time>2025-12-28T08:39:13.000Z</time>
      </trkpt>
      <trkpt lat="43.01091" lon="1.14719">
        <ele>581.5</ele>
        <time>2025-12-28T08:39:14.000Z</time>
      </trkpt>
      <trkpt lat="43.01092" lon="1.14723">
        <ele>582.3</ele>
        <time>2025-12-28T08:39:15.000Z</time>
      </trkpt>
      <trkpt lat="43.01094" lon="1.14727">
        <ele>581.9</ele>
        <time>2025-12-28T08:39:16.000Z</time>
      </trkpt>
      <trkpt lat="43.01096" lon="1.14732">
        <ele>579.8</ele>
        <time>2025-12-28T08:39:17.000Z</time>
      </trkpt>
      <trkpt lat="43.01098" lon="1.14736">
        <ele>579.7</ele>
        <time>2025-12-28T08:39:18.000Z</time>
      </trkpt>
      <trkpt lat="43.01099" lon="1.14739">
        <ele>579.6</ele>
        <time>2025-12-28T08:39:19.000Z</time>
      </trkpt>
      <trkpt lat="43.01101" lon="1.14742">
        <ele>580.2</ele>
        <time>2025-12-28T08:39:20.000Z</time>
      </trkpt>
      <trkpt lat="43.01103" lon="1.14745">
        <ele>580.2</ele>
        <time>2025-12-28T08:39:21.000Z</time>
      </trkpt>
      <trkpt lat="43.01105" lon="1.14748">
        <ele>581.1</ele>
        <time>2025-12-28T08:39:22.000Z</time>
      </trkpt>
      <trkpt lat="43.01106" lon="1.14751">
        <ele>581.5</ele>
        <time>2025-12-28T08:39:23.000Z</time>
      </trkpt>
      <trkpt lat="43.01107" lon="1.14754">
        <ele>581.2</ele>
        <time>2025-12-28T08:39:24.000Z</time>
      </trkpt>
      <trkpt lat="43.01109" lon="1.14759">
        <ele>580.3</ele>
        <time>2025-12-28T08:39:25.000Z</time>
      </trkpt>
      <trkpt lat="43.0111" lon="1.14762">
        <ele>580.7</ele>
        <time>2025-12-28T08:39:26.000Z</time>
      </trkpt>
      <trkpt lat="43.01112" lon="1.14767">
        <ele>581.1</ele>
        <time>2025-12-28T08:39:27.000Z</time>
      </trkpt>
      <trkpt lat="43.01114" lon="1.14771">
        <ele>581.8</ele>
        <time>2025-12-28T08:39:28.000Z</time>
      </trkpt>
      <trkpt lat="43.01115" lon="1.14775">
        <ele>581.1</ele>
        <time>2025-12-28T08:39:29.000Z</time>
      </trkpt>
      <trkpt lat="43.01117" lon="1.14779">
        <ele>580.7</ele>
        <time>2025-12-28T08:39:30.000Z</time>
      </trkpt>
      <trkpt lat="43.01118" lon="1.14784">
        <ele>582</ele>
        <time>2025-12-28T08:39:31.000Z</time>
      </trkpt>
      <trkpt lat="43.0112" lon="1.14788">
        <ele>583.6</ele>
        <time>2025-12-28T08:39:32.000Z</time>
      </trkpt>
      <trkpt lat="43.0112" lon="1.14792">
        <ele>583.5</ele>
        <time>2025-12-28T08:39:33.000Z</time>
      </trkpt>
      <trkpt lat="43.0112" lon="1.14795">
        <ele>583.6</ele>
        <time>2025-12-28T08:39:34.000Z</time>
      </trkpt>
      <trkpt lat="43.01121" lon="1.14799">
        <ele>583.2</ele>
        <time>2025-12-28T08:39:35.000Z</time>
      </trkpt>
      <trkpt lat="43.01123" lon="1.14801">
        <ele>583.5</ele>
        <time>2025-12-28T08:39:36.000Z</time>
      </trkpt>
      <trkpt lat="43.01124" lon="1.14804">
        <ele>583.3</ele>
        <time>2025-12-28T08:39:37.000Z</time>
      </trkpt>
      <trkpt lat="43.01125" lon="1.14808">
        <ele>584.6</ele>
        <time>2025-12-28T08:39:38.000Z</time>
      </trkpt>
      <trkpt lat="43.01126" lon="1.14812">
        <ele>585.3</ele>
        <time>2025-12-28T08:39:39.000Z</time>
      </trkpt>
      <trkpt lat="43.01127" lon="1.14815">
        <ele>583.9</ele>
        <time>2025-12-28T08:39:40.000Z</time>
      </trkpt>
      <trkpt lat="43.0113" lon="1.14817">
        <ele>584.8</ele>
        <time>2025-12-28T08:39:41.000Z</time>
      </trkpt>
      <trkpt lat="43.01132" lon="1.14819">
        <ele>584.1</ele>
        <time>2025-12-28T08:39:42.000Z</time>
      </trkpt>
      <trkpt lat="43.01134" lon="1.14822">
        <ele>584.6</ele>
        <time>2025-12-28T08:39:43.000Z</time>
      </trkpt>
      <trkpt lat="43.01135" lon="1.14826">
        <ele>585.5</ele>
        <time>2025-12-28T08:39:44.000Z</time>
      </trkpt>
      <trkpt lat="43.01137" lon="1.14829">
        <ele>585.7</ele>
        <time>2025-12-28T08:39:45.000Z</time>
      </trkpt>
      <trkpt lat="43.01139" lon="1.14832">
        <ele>585.8</ele>
        <time>2025-12-28T08:39:46.000Z</time>
      </trkpt>
      <trkpt lat="43.01141" lon="1.14835">
        <ele>587</ele>
        <time>2025-12-28T08:39:47.000Z</time>
      </trkpt>
      <trkpt lat="43.01142" lon="1.14838">
        <ele>585.6</ele>
        <time>2025-12-28T08:39:48.000Z</time>
      </trkpt>
      <trkpt lat="43.01143" lon="1.14841">
        <ele>586.1</ele>
        <time>2025-12-28T08:39:49.000Z</time>
      </trkpt>
      <trkpt lat="43.01144" lon="1.14846">
        <ele>584.8</ele>
        <time>2025-12-28T08:39:50.000Z</time>
      </trkpt>
      <trkpt lat="43.01145" lon="1.1485">
        <ele>584.5</ele>
        <time>2025-12-28T08:39:51.000Z</time>
      </trkpt>
      <trkpt lat="43.01146" lon="1.14853">
        <ele>584.9</ele>
        <time>2025-12-28T08:39:52.000Z</time>
      </trkpt>
      <trkpt lat="43.01148" lon="1.14857">
        <ele>583.9</ele>
        <time>2025-12-28T08:39:53.000Z</time>
      </trkpt>
      <trkpt lat="43.01149" lon="1.14861">
        <ele>584.1</ele>
        <time>2025-12-28T08:39:54.000Z</time>
      </trkpt>
      <trkpt lat="43.01148" lon="1.14864">
        <ele>586.2</ele>
        <time>2025-12-28T08:39:55.000Z</time>
      </trkpt>
      <trkpt lat="43.01147" lon="1.14864">
        <ele>587.4</ele>
        <time>2025-12-28T08:39:56.000Z</time>
      </trkpt>
      <trkpt lat="43.01145" lon="1.14864">
        <ele>587.3</ele>
        <time>2025-12-28T08:39:57.000Z</time>
      </trkpt>
      <trkpt lat="43.01143" lon="1.14863">
        <ele>587.3</ele>
        <time>2025-12-28T08:39:58.000Z</time>
      </trkpt>
      <trkpt lat="43.0114" lon="1.14862">
        <ele>588.1</ele>
        <time>2025-12-28T08:39:59.000Z</time>
      </trkpt>
      <trkpt lat="43.01137" lon="1.14862">
        <ele>588.6</ele>
        <time>2025-12-28T08:40:00.000Z</time>
      </trkpt>
      <trkpt lat="43.01135" lon="1.14861">
        <ele>588.1</ele>
        <time>2025-12-28T08:40:01.000Z</time>
      </trkpt>
      <trkpt lat="43.01133" lon="1.14861">
        <ele>588.5</ele>
        <time>2025-12-28T08:40:02.000Z</time>
      </trkpt>
      <trkpt lat="43.01131" lon="1.14861">
        <ele>588.5</ele>
        <time>2025-12-28T08:40:03.000Z</time>
      </trkpt>
      <trkpt lat="43.0113" lon="1.14861">
        <ele>588</ele>
        <time>2025-12-28T08:40:04.000Z</time>
      </trkpt>
      <trkpt lat="43.01128" lon="1.1486">
        <ele>588.2</ele>
        <time>2025-12-28T08:40:05.000Z</time>
      </trkpt>
      <trkpt lat="43.01128" lon="1.14861">
        <ele>588.4</ele>
        <time>2025-12-28T08:40:06.000Z</time>
      </trkpt>
      <trkpt lat="43.01128" lon="1.14861">
        <ele>589</ele>
        <time>2025-12-28T08:40:07.000Z</time>
      </trkpt>
      <trkpt lat="43.01127" lon="1.14862">
        <ele>588.8</ele>
        <time>2025-12-28T08:40:08.000Z</time>
      </trkpt>
      <trkpt lat="43.01127" lon="1.14862">
        <ele>588.7</ele>
        <time>2025-12-28T08:40:09.000Z</time>
      </trkpt>
      <trkpt lat="43.01127" lon="1.14862">
        <ele>588.5</ele>
        <time>2025-12-28T08:40:10.000Z</time>
      </trkpt>
      <trkpt lat="43.01127" lon="1.14862">
        <ele>588.2</ele>
        <time>2025-12-28T08:40:11.000Z</time>
      </trkpt>
      <trkpt lat="43.01127" lon="1.14862">
        <ele>588.4</ele>
        <time>2025-12-28T08:40:12.000Z</time>
      </trkpt>
      <trkpt lat="43.01127" lon="1.14862">
        <ele>588</ele>
        <time>2025-12-28T08:40:13.000Z</time>
      </trkpt>
      <trkpt lat="43.01127" lon="1.14862">
        <ele>587.9</ele>
        <time>2025-12-28T08:40:14.000Z</time>
      </trkpt>
      <trkpt lat="43.01126" lon="1.14861">
        <ele>588.3</ele>
        <time>2025-12-28T08:40:15.000Z</time>
      </trkpt>
      <trkpt lat="43.01126" lon="1.14861">
        <ele>587.7</ele>
        <time>2025-12-28T08:40:16.000Z</time>
      </trkpt>
      <trkpt lat="43.01125" lon="1.14861">
        <ele>587.2</ele>
        <time>2025-12-28T08:40:17.000Z</time>
      </trkpt>
      <trkpt lat="43.01123" lon="1.14861">
        <ele>586.6</ele>
        <time>2025-12-28T08:40:18.000Z</time>
      </trkpt>
      <trkpt lat="43.01122" lon="1.14861">
        <ele>587.6</ele>
        <time>2025-12-28T08:40:19.000Z</time>
      </trkpt>
      <trkpt lat="43.0112" lon="1.1486">
        <ele>587.7</ele>
        <time>2025-12-28T08:40:20.000Z</time>
      </trkpt>
      <trkpt lat="43.01118" lon="1.1486">
        <ele>587.9</ele>
        <time>2025-12-28T08:40:21.000Z</time>
      </trkpt>
      <trkpt lat="43.01117" lon="1.14859">
        <ele>588.2</ele>
        <time>2025-12-28T08:40:22.000Z</time>
      </trkpt>
      <trkpt lat="43.01116" lon="1.14858">
        <ele>588.5</ele>
        <time>2025-12-28T08:40:23.000Z</time>
      </trkpt>
      <trkpt lat="43.01114" lon="1.14857">
        <ele>587.4</ele>
        <time>2025-12-28T08:40:24.000Z</time>
      </trkpt>
      <trkpt lat="43.01112" lon="1.14855">
        <ele>587.5</ele>
        <time>2025-12-28T08:40:25.000Z</time>
      </trkpt>
      <trkpt lat="43.01111" lon="1.14853">
        <ele>586.6</ele>
        <time>2025-12-28T08:40:26.000Z</time>
      </trkpt>
      <trkpt lat="43.0111" lon="1.14851">
        <ele>587.2</ele>
        <time>2025-12-28T08:40:27.000Z</time>
      </trkpt>
      <trkpt lat="43.01109" lon="1.14849">
        <ele>586.7</ele>
        <time>2025-12-28T08:40:28.000Z</time>
      </trkpt>
      <trkpt lat="43.01107" lon="1.14848">
        <ele>588.3</ele>
        <time>2025-12-28T08:40:29.000Z</time>
      </trkpt>
      <trkpt lat="43.01106" lon="1.14849">
        <ele>587.8</ele>
        <time>2025-12-28T08:40:30.000Z</time>
      </trkpt>
      <trkpt lat="43.01105" lon="1.1485">
        <ele>585.5</ele>
        <time>2025-12-28T08:40:46.000Z</time>
      </trkpt>
      <trkpt lat="43.01104" lon="1.1485">
        <ele>585.7</ele>
        <time>2025-12-28T08:40:47.000Z</time>
      </trkpt>
      <trkpt lat="43.01102" lon="1.1485">
        <ele>586.4</ele>
        <time>2025-12-28T08:40:48.000Z</time>
      </trkpt>
      <trkpt lat="43.011" lon="1.14851">
        <ele>585.4</ele>
        <time>2025-12-28T08:40:49.000Z</time>
      </trkpt>
      <trkpt lat="43.01099" lon="1.14851">
        <ele>586.3</ele>
        <time>2025-12-28T08:40:50.000Z</time>
      </trkpt>
      <trkpt lat="43.01097" lon="1.14851">
        <ele>586.6</ele>
        <time>2025-12-28T08:41:43.000Z</time>
      </trkpt>
      <trkpt lat="43.01096" lon="1.14852">
        <ele>586.3</ele>
        <time>2025-12-28T08:41:44.000Z</time>
      </trkpt>
      <trkpt lat="43.01093" lon="1.14853">
        <ele>585.8</ele>
        <time>2025-12-28T08:41:45.000Z</time>
      </trkpt>
      <trkpt lat="43.01088" lon="1.14856">
        <ele>585.1</ele>
        <time>2025-12-28T08:41:46.000Z</time>
      </trkpt>
      <trkpt lat="43.01084" lon="1.14858">
        <ele>585</ele>
        <time>2025-12-28T08:41:47.000Z</time>
      </trkpt>
      <trkpt lat="43.01079" lon="1.14859">
        <ele>584.2</ele>
        <time>2025-12-28T08:41:48.000Z</time>
      </trkpt>
      <trkpt lat="43.01076" lon="1.14861">
        <ele>583.5</ele>
        <time>2025-12-28T08:41:49.000Z</time>
      </trkpt>
      <trkpt lat="43.01072" lon="1.14864">
        <ele>582.8</ele>
        <time>2025-12-28T08:41:50.000Z</time>
      </trkpt>
      <trkpt lat="43.01067" lon="1.14867">
        <ele>582.5</ele>
        <time>2025-12-28T08:41:51.000Z</time>
      </trkpt>
      <trkpt lat="43.01063" lon="1.14871">
        <ele>581.1</ele>
        <time>2025-12-28T08:41:52.000Z</time>
      </trkpt>
      <trkpt lat="43.0106" lon="1.14877">
        <ele>580.3</ele>
        <time>2025-12-28T08:41:53.000Z</time>
      </trkpt>
      <trkpt lat="43.01058" lon="1.14885">
        <ele>578.7</ele>
        <time>2025-12-28T08:41:54.000Z</time>
      </trkpt>
      <trkpt lat="43.01055" lon="1.14891">
        <ele>577.9</ele>
        <time>2025-12-28T08:41:55.000Z</time>
      </trkpt>
      <trkpt lat="43.01052" lon="1.14898">
        <ele>577.1</ele>
        <time>2025-12-28T08:41:56.000Z</time>
      </trkpt>
      <trkpt lat="43.0105" lon="1.14904">
        <ele>576.9</ele>
        <time>2025-12-28T08:41:57.000Z</time>
      </trkpt>
      <trkpt lat="43.01047" lon="1.1491">
        <ele>576.6</ele>
        <time>2025-12-28T08:41:58.000Z</time>
      </trkpt>
      <trkpt lat="43.01043" lon="1.14913">
        <ele>576.3</ele>
        <time>2025-12-28T08:41:59.000Z</time>
      </trkpt>
      <trkpt lat="43.01039" lon="1.14917">
        <ele>575.5</ele>
        <time>2025-12-28T08:42:00.000Z</time>
      </trkpt>
      <trkpt lat="43.01035" lon="1.14921">
        <ele>575.3</ele>
        <time>2025-12-28T08:42:01.000Z</time>
      </trkpt>
      <trkpt lat="43.01032" lon="1.14925">
        <ele>575.1</ele>
        <time>2025-12-28T08:42:02.000Z</time>
      </trkpt>
      <trkpt lat="43.01028" lon="1.14929">
        <ele>574.7</ele>
        <time>2025-12-28T08:42:03.000Z</time>
      </trkpt>
      <trkpt lat="43.01024" lon="1.14933">
        <ele>574.3</ele>
        <time>2025-12-28T08:42:04.000Z</time>
      </trkpt>
      <trkpt lat="43.01022" lon="1.14939">
        <ele>573.4</ele>
        <time>2025-12-28T08:42:05.000Z</time>
      </trkpt>
      <trkpt lat="43.01019" lon="1.14945">
        <ele>573.1</ele>
        <time>2025-12-28T08:42:06.000Z</time>
      </trkpt>
      <trkpt lat="43.01017" lon="1.1495">
        <ele>573.7</ele>
        <time>2025-12-28T08:42:07.000Z</time>
      </trkpt>
      <trkpt lat="43.01012" lon="1.14954">
        <ele>572.4</ele>
        <time>2025-12-28T08:42:08.000Z</time>
      </trkpt>
      <trkpt lat="43.01008" lon="1.14957">
        <ele>572.1</ele>
        <time>2025-12-28T08:42:09.000Z</time>
      </trkpt>
      <trkpt lat="43.01005" lon="1.1496">
        <ele>572.4</ele>
        <time>2025-12-28T08:42:10.000Z</time>
      </trkpt>
      <trkpt lat="43.01002" lon="1.14963">
        <ele>572.5</ele>
        <time>2025-12-28T08:42:11.000Z</time>
      </trkpt>
      <trkpt lat="43.00998" lon="1.14965">
        <ele>573</ele>
        <time>2025-12-28T08:42:12.000Z</time>
      </trkpt>
      <trkpt lat="43.00994" lon="1.14969">
        <ele>573.8</ele>
        <time>2025-12-28T08:42:13.000Z</time>
      </trkpt>
      <trkpt lat="43.00989" lon="1.14973">
        <ele>573.9</ele>
        <time>2025-12-28T08:42:14.000Z</time>
      </trkpt>
      <trkpt lat="43.00984" lon="1.14978">
        <ele>573.3</ele>
        <time>2025-12-28T08:42:15.000Z</time>
      </trkpt>
      <trkpt lat="43.0098" lon="1.14981">
        <ele>573</ele>
        <time>2025-12-28T08:42:16.000Z</time>
      </trkpt>
      <trkpt lat="43.00975" lon="1.14986">
        <ele>572.6</ele>
        <time>2025-12-28T08:42:17.000Z</time>
      </trkpt>
      <trkpt lat="43.0097" lon="1.14989">
        <ele>571.3</ele>
        <time>2025-12-28T08:42:18.000Z</time>
      </trkpt>
      <trkpt lat="43.00963" lon="1.14991">
        <ele>571.6</ele>
        <time>2025-12-28T08:42:19.000Z</time>
      </trkpt>
      <trkpt lat="43.00957" lon="1.14993">
        <ele>570.9</ele>
        <time>2025-12-28T08:42:20.000Z</time>
      </trkpt>
      <trkpt lat="43.00951" lon="1.14994">
        <ele>570.3</ele>
        <time>2025-12-28T08:42:21.000Z</time>
      </trkpt>
      <trkpt lat="43.00945" lon="1.14995">
        <ele>569.2</ele>
        <time>2025-12-28T08:42:22.000Z</time>
      </trkpt>
      <trkpt lat="43.00939" lon="1.14994">
        <ele>568.8</ele>
        <time>2025-12-28T08:42:23.000Z</time>
      </trkpt>
      <trkpt lat="43.00933" lon="1.14993">
        <ele>568.4</ele>
        <time>2025-12-28T08:42:24.000Z</time>
      </trkpt>
      <trkpt lat="43.00927" lon="1.14992">
        <ele>567.2</ele>
        <time>2025-12-28T08:42:25.000Z</time>
      </trkpt>
      <trkpt lat="43.00921" lon="1.14992">
        <ele>566.6</ele>
        <time>2025-12-28T08:42:26.000Z</time>
      </trkpt>
      <trkpt lat="43.00915" lon="1.14993">
        <ele>565.8</ele>
        <time>2025-12-28T08:42:27.000Z</time>
      </trkpt>
      <trkpt lat="43.00909" lon="1.14993">
        <ele>565</ele>
        <time>2025-12-28T08:42:28.000Z</time>
      </trkpt>
      <trkpt lat="43.00902" lon="1.14992">
        <ele>564.3</ele>
        <time>2025-12-28T08:42:29.000Z</time>
      </trkpt>
      <trkpt lat="43.00895" lon="1.1499">
        <ele>563.4</ele>
        <time>2025-12-28T08:42:30.000Z</time>
      </trkpt>
      <trkpt lat="43.00888" lon="1.14988">
        <ele>562.8</ele>
        <time>2025-12-28T08:42:31.000Z</time>
      </trkpt>
      <trkpt lat="43.00881" lon="1.14985">
        <ele>562</ele>
        <time>2025-12-28T08:42:32.000Z</time>
      </trkpt>
      <trkpt lat="43.00874" lon="1.14983">
        <ele>561.1</ele>
        <time>2025-12-28T08:42:33.000Z</time>
      </trkpt>
      <trkpt lat="43.00867" lon="1.1498">
        <ele>560.1</ele>
        <time>2025-12-28T08:42:34.000Z</time>
      </trkpt>
      <trkpt lat="43.0086" lon="1.14978">
        <ele>559.6</ele>
        <time>2025-12-28T08:42:35.000Z</time>
      </trkpt>
      <trkpt lat="43.00853" lon="1.14975">
        <ele>558.6</ele>
        <time>2025-12-28T08:42:36.000Z</time>
      </trkpt>
      <trkpt lat="43.00846" lon="1.14973">
        <ele>558</ele>
        <time>2025-12-28T08:42:37.000Z</time>
      </trkpt>
      <trkpt lat="43.00839" lon="1.14971">
        <ele>557.6</ele>
        <time>2025-12-28T08:42:38.000Z</time>
      </trkpt>
      <trkpt lat="43.00833" lon="1.14969">
        <ele>556.7</ele>
        <time>2025-12-28T08:42:39.000Z</time>
      </trkpt>
      <trkpt lat="43.00827" lon="1.14968">
        <ele>555.8</ele>
        <time>2025-12-28T08:42:40.000Z</time>
      </trkpt>
      <trkpt lat="43.00821" lon="1.14967">
        <ele>554.8</ele>
        <time>2025-12-28T08:42:41.000Z</time>
      </trkpt>
      <trkpt lat="43.00816" lon="1.14967">
        <ele>554.8</ele>
        <time>2025-12-28T08:42:42.000Z</time>
      </trkpt>
      <trkpt lat="43.00812" lon="1.14969">
        <ele>554</ele>
        <time>2025-12-28T08:42:43.000Z</time>
      </trkpt>
      <trkpt lat="43.0081" lon="1.14972">
        <ele>553.4</ele>
        <time>2025-12-28T08:42:44.000Z</time>
      </trkpt>
      <trkpt lat="43.00807" lon="1.14974">
        <ele>552.9</ele>
        <time>2025-12-28T08:42:45.000Z</time>
      </trkpt>
      <trkpt lat="43.00805" lon="1.14977">
        <ele>552.9</ele>
        <time>2025-12-28T08:42:46.000Z</time>
      </trkpt>
      <trkpt lat="43.00803" lon="1.14978">
        <ele>553.2</ele>
        <time>2025-12-28T08:42:47.000Z</time>
      </trkpt>
      <trkpt lat="43.00802" lon="1.1498">
        <ele>552.6</ele>
        <time>2025-12-28T08:42:48.000Z</time>
      </trkpt>
      <trkpt lat="43.00801" lon="1.14981">
        <ele>553.6</ele>
        <time>2025-12-28T08:42:49.000Z</time>
      </trkpt>
      <trkpt lat="43.00801" lon="1.14983">
        <ele>553.8</ele>
        <time>2025-12-28T08:42:50.000Z</time>
      </trkpt>
      <trkpt lat="43.00801" lon="1.14984">
        <ele>555.5</ele>
        <time>2025-12-28T08:42:51.000Z</time>
      </trkpt>
      <trkpt lat="43.00802" lon="1.14984">
        <ele>555.4</ele>
        <time>2025-12-28T08:42:52.000Z</time>
      </trkpt>
      <trkpt lat="43.00804" lon="1.14984">
        <ele>555.3</ele>
        <time>2025-12-28T08:42:53.000Z</time>
      </trkpt>
      <trkpt lat="43.00804" lon="1.14984">
        <ele>553.5</ele>
        <time>2025-12-28T08:42:54.000Z</time>
      </trkpt>
      <trkpt lat="43.00805" lon="1.14985">
        <ele>554.5</ele>
        <time>2025-12-28T08:42:55.000Z</time>
      </trkpt>
      <trkpt lat="43.00804" lon="1.14985">
        <ele>554.7</ele>
        <time>2025-12-28T08:42:56.000Z</time>
      </trkpt>
      <trkpt lat="43.00806" lon="1.14986">
        <ele>554.2</ele>
        <time>2025-12-28T08:43:30.000Z</time>
      </trkpt>
      <trkpt lat="43.00807" lon="1.14986">
        <ele>554.7</ele>
        <time>2025-12-28T08:43:31.000Z</time>
      </trkpt>
      <trkpt lat="43.00807" lon="1.14986">
        <ele>554.1</ele>
        <time>2025-12-28T08:43:32.000Z</time>
      </trkpt>
      <trkpt lat="43.00807" lon="1.14985">
        <ele>554.9</ele>
        <time>2025-12-28T08:43:33.000Z</time>
      </trkpt>
      <trkpt lat="43.00807" lon="1.14985">
        <ele>554.8</ele>
        <time>2025-12-28T08:43:34.000Z</time>
      </trkpt>
      <trkpt lat="43.00807" lon="1.14985">
        <ele>555</ele>
        <time>2025-12-28T08:43:35.000Z</time>
      </trkpt>
      <trkpt lat="43.00807" lon="1.14985">
        <ele>555.3</ele>
        <time>2025-12-28T08:43:36.000Z</time>
      </trkpt>
      <trkpt lat="43.00807" lon="1.14985">
        <ele>555.2</ele>
        <time>2025-12-28T08:43:37.000Z</time>
      </trkpt>
      <trkpt lat="43.00808" lon="1.14985">
        <ele>554.6</ele>
        <time>2025-12-28T08:43:38.000Z</time>
      </trkpt>
      <trkpt lat="43.00809" lon="1.14985">
        <ele>554.4</ele>
        <time>2025-12-28T08:43:39.000Z</time>
      </trkpt>
      <trkpt lat="43.0081" lon="1.14985">
        <ele>554.9</ele>
        <time>2025-12-28T08:43:40.000Z</time>
      </trkpt>
      <trkpt lat="43.00811" lon="1.14984">
        <ele>555</ele>
        <time>2025-12-28T08:43:41.000Z</time>
      </trkpt>
      <trkpt lat="43.00811" lon="1.14984">
        <ele>555.1</ele>
        <time>2025-12-28T08:43:42.000Z</time>
      </trkpt>
      <trkpt lat="43.00812" lon="1.14987">
        <ele>555.4</ele>
        <time>2025-12-28T08:46:45.000Z</time>
      </trkpt>
      <trkpt lat="43.00813" lon="1.14988">
        <ele>555.5</ele>
        <time>2025-12-28T08:46:46.000Z</time>
      </trkpt>
      <trkpt lat="43.00814" lon="1.14989">
        <ele>555.8</ele>
        <time>2025-12-28T08:46:47.000Z</time>
      </trkpt>
      <trkpt lat="43.00815" lon="1.14991">
        <ele>556</ele>
        <time>2025-12-28T08:46:48.000Z</time>
      </trkpt>
      <trkpt lat="43.00816" lon="1.14992">
        <ele>555.5</ele>
        <time>2025-12-28T08:46:49.000Z</time>
      </trkpt>
      <trkpt lat="43.00816" lon="1.14993">
        <ele>555.1</ele>
        <time>2025-12-28T08:46:50.000Z</time>
      </trkpt>
      <trkpt lat="43.00818" lon="1.14994">
        <ele>556.4</ele>
        <time>2025-12-28T08:46:51.000Z</time>
      </trkpt>
      <trkpt lat="43.0082" lon="1.14996">
        <ele>556.5</ele>
        <time>2025-12-28T08:46:52.000Z</time>
      </trkpt>
      <trkpt lat="43.00822" lon="1.14997">
        <ele>556</ele>
        <time>2025-12-28T08:46:53.000Z</time>
      </trkpt>
      <trkpt lat="43.00825" lon="1.15">
        <ele>555.7</ele>
        <time>2025-12-28T08:46:54.000Z</time>
      </trkpt>
      <trkpt lat="43.00827" lon="1.15002">
        <ele>555.4</ele>
        <time>2025-12-28T08:46:55.000Z</time>
      </trkpt>
      <trkpt lat="43.00829" lon="1.15005">
        <ele>556.4</ele>
        <time>2025-12-28T08:46:56.000Z</time>
      </trkpt>
      <trkpt lat="43.00832" lon="1.15008">
        <ele>557</ele>
        <time>2025-12-28T08:46:57.000Z</time>
      </trkpt>
      <trkpt lat="43.00837" lon="1.15012">
        <ele>557.1</ele>
        <time>2025-12-28T08:46:58.000Z</time>
      </trkpt>
      <trkpt lat="43.00843" lon="1.15019">
        <ele>556</ele>
        <time>2025-12-28T08:46:59.000Z</time>
      </trkpt>
      <trkpt lat="43.00847" lon="1.15023">
        <ele>553.5</ele>
        <time>2025-12-28T08:47:00.000Z</time>
      </trkpt>
      <trkpt lat="43.00852" lon="1.15028">
        <ele>551.8</ele>
        <time>2025-12-28T08:47:01.000Z</time>
      </trkpt>
      <trkpt lat="43.00857" lon="1.15034">
        <ele>551</ele>
        <time>2025-12-28T08:47:02.000Z</time>
      </trkpt>
      <trkpt lat="43.00861" lon="1.15041">
        <ele>551.3</ele>
        <time>2025-12-28T08:47:03.000Z</time>
      </trkpt>
      <trkpt lat="43.00865" lon="1.15046">
        <ele>549.8</ele>
        <time>2025-12-28T08:47:04.000Z</time>
      </trkpt>
      <trkpt lat="43.00871" lon="1.15054">
        <ele>549.6</ele>
        <time>2025-12-28T08:47:05.000Z</time>
      </trkpt>
      <trkpt lat="43.00874" lon="1.1506">
        <ele>549.6</ele>
        <time>2025-12-28T08:47:06.000Z</time>
      </trkpt>
      <trkpt lat="43.00879" lon="1.15064">
        <ele>549.1</ele>
        <time>2025-12-28T08:47:07.000Z</time>
      </trkpt>
      <trkpt lat="43.00883" lon="1.15069">
        <ele>547.9</ele>
        <time>2025-12-28T08:47:08.000Z</time>
      </trkpt>
      <trkpt lat="43.00887" lon="1.15074">
        <ele>548.1</ele>
        <time>2025-12-28T08:47:09.000Z</time>
      </trkpt>
      <trkpt lat="43.00891" lon="1.15079">
        <ele>548.5</ele>
        <time>2025-12-28T08:47:10.000Z</time>
      </trkpt>
      <trkpt lat="43.00897" lon="1.15082">
        <ele>547.8</ele>
        <time>2025-12-28T08:47:11.000Z</time>
      </trkpt>
      <trkpt lat="43.00903" lon="1.15085">
        <ele>546.3</ele>
        <time>2025-12-28T08:47:12.000Z</time>
      </trkpt>
      <trkpt lat="43.00909" lon="1.1509">
        <ele>545</ele>
        <time>2025-12-28T08:47:13.000Z</time>
      </trkpt>
      <trkpt lat="43.00915" lon="1.15097">
        <ele>543.9</ele>
        <time>2025-12-28T08:47:14.000Z</time>
      </trkpt>
      <trkpt lat="43.00923" lon="1.15102">
        <ele>543.5</ele>
        <time>2025-12-28T08:47:15.000Z</time>
      </trkpt>
      <trkpt lat="43.0093" lon="1.15107">
        <ele>542.6</ele>
        <time>2025-12-28T08:47:16.000Z</time>
      </trkpt>
      <trkpt lat="43.00937" lon="1.1511">
        <ele>541.7</ele>
        <time>2025-12-28T08:47:17.000Z</time>
      </trkpt>
      <trkpt lat="43.00939" lon="1.15111">
        <ele>540.9</ele>
        <time>2025-12-28T08:47:18.000Z</time>
      </trkpt>
      <trkpt lat="43.00944" lon="1.15116">
        <ele>540</ele>
        <time>2025-12-28T08:47:19.000Z</time>
      </trkpt>
      <trkpt lat="43.00949" lon="1.15118">
        <ele>538.7</ele>
        <time>2025-12-28T08:47:20.000Z</time>
      </trkpt>
      <trkpt lat="43.00955" lon="1.15121">
        <ele>539</ele>
        <time>2025-12-28T08:47:21.000Z</time>
      </trkpt>
      <trkpt lat="43.00962" lon="1.15124">
        <ele>538.7</ele>
        <time>2025-12-28T08:47:22.000Z</time>
      </trkpt>
      <trkpt lat="43.00966" lon="1.1513">
        <ele>539.9</ele>
        <time>2025-12-28T08:47:23.000Z</time>
      </trkpt>
      <trkpt lat="43.0097" lon="1.15134">
        <ele>538.9</ele>
        <time>2025-12-28T08:47:24.000Z</time>
      </trkpt>
      <trkpt lat="43.00973" lon="1.15137">
        <ele>537.9</ele>
        <time>2025-12-28T08:47:25.000Z</time>
      </trkpt>
      <trkpt lat="43.00976" lon="1.15141">
        <ele>537.9</ele>
        <time>2025-12-28T08:47:26.000Z</time>
      </trkpt>
      <trkpt lat="43.00979" lon="1.15144">
        <ele>538.7</ele>
        <time>2025-12-28T08:47:27.000Z</time>
      </trkpt>
      <trkpt lat="43.00982" lon="1.15147">
        <ele>538.5</ele>
        <time>2025-12-28T08:47:28.000Z</time>
      </trkpt>
      <trkpt lat="43.00985" lon="1.15149">
        <ele>537.3</ele>
        <time>2025-12-28T08:47:29.000Z</time>
      </trkpt>
      <trkpt lat="43.00988" lon="1.15152">
        <ele>537.1</ele>
        <time>2025-12-28T08:47:30.000Z</time>
      </trkpt>
      <trkpt lat="43.00991" lon="1.15155">
        <ele>537.1</ele>
        <time>2025-12-28T08:47:31.000Z</time>
      </trkpt>
      <trkpt lat="43.00997" lon="1.15159">
        <ele>534.8</ele>
        <time>2025-12-28T08:47:32.000Z</time>
      </trkpt>
      <trkpt lat="43.01001" lon="1.15163">
        <ele>534.3</ele>
        <time>2025-12-28T08:47:33.000Z</time>
      </trkpt>
      <trkpt lat="43.01006" lon="1.15168">
        <ele>533.4</ele>
        <time>2025-12-28T08:47:34.000Z</time>
      </trkpt>
      <trkpt lat="43.01011" lon="1.15172">
        <ele>531.9</ele>
        <time>2025-12-28T08:47:35.000Z</time>
      </trkpt>
      <trkpt lat="43.01015" lon="1.15176">
        <ele>531.8</ele>
        <time>2025-12-28T08:47:36.000Z</time>
      </trkpt>
      <trkpt lat="43.0102" lon="1.15182">
        <ele>530.7</ele>
        <time>2025-12-28T08:47:37.000Z</time>
      </trkpt>
      <trkpt lat="43.01025" lon="1.15188">
        <ele>529.3</ele>
        <time>2025-12-28T08:47:38.000Z</time>
      </trkpt>
      <trkpt lat="43.01028" lon="1.15195">
        <ele>528.7</ele>
        <time>2025-12-28T08:47:39.000Z</time>
      </trkpt>
      <trkpt lat="43.01031" lon="1.15203">
        <ele>528.2</ele>
        <time>2025-12-28T08:47:40.000Z</time>
      </trkpt>
      <trkpt lat="43.01033" lon="1.15211">
        <ele>527.3</ele>
        <time>2025-12-28T08:47:41.000Z</time>
      </trkpt>
      <trkpt lat="43.01036" lon="1.1522">
        <ele>525.7</ele>
        <time>2025-12-28T08:47:42.000Z</time>
      </trkpt>
      <trkpt lat="43.01039" lon="1.15228">
        <ele>525.2</ele>
        <time>2025-12-28T08:47:43.000Z</time>
      </trkpt>
      <trkpt lat="43.01044" lon="1.15235">
        <ele>524.4</ele>
        <time>2025-12-28T08:47:44.000Z</time>
      </trkpt>
      <trkpt lat="43.01048" lon="1.15241">
        <ele>524.4</ele>
        <time>2025-12-28T08:47:45.000Z</time>
      </trkpt>
      <trkpt lat="43.01053" lon="1.15249">
        <ele>524.2</ele>
        <time>2025-12-28T08:47:46.000Z</time>
      </trkpt>
      <trkpt lat="43.01055" lon="1.15257">
        <ele>524.3</ele>
        <time>2025-12-28T08:47:47.000Z</time>
      </trkpt>
      <trkpt lat="43.01057" lon="1.15265">
        <ele>524.3</ele>
        <time>2025-12-28T08:47:48.000Z</time>
      </trkpt>
      <trkpt lat="43.01058" lon="1.15272">
        <ele>523.9</ele>
        <time>2025-12-28T08:47:49.000Z</time>
      </trkpt>
      <trkpt lat="43.01059" lon="1.15279">
        <ele>523.4</ele>
        <time>2025-12-28T08:47:50.000Z</time>
      </trkpt>
      <trkpt lat="43.0106" lon="1.15287">
        <ele>523.7</ele>
        <time>2025-12-28T08:47:51.000Z</time>
      </trkpt>
      <trkpt lat="43.0106" lon="1.15294">
        <ele>523.7</ele>
        <time>2025-12-28T08:47:52.000Z</time>
      </trkpt>
      <trkpt lat="43.01061" lon="1.15302">
        <ele>524</ele>
        <time>2025-12-28T08:47:53.000Z</time>
      </trkpt>
      <trkpt lat="43.01063" lon="1.1531">
        <ele>524.1</ele>
        <time>2025-12-28T08:47:54.000Z</time>
      </trkpt>
      <trkpt lat="43.01065" lon="1.15318">
        <ele>524.2</ele>
        <time>2025-12-28T08:47:55.000Z</time>
      </trkpt>
      <trkpt lat="43.01068" lon="1.15325">
        <ele>524.7</ele>
        <time>2025-12-28T08:47:56.000Z</time>
      </trkpt>
      <trkpt lat="43.0107" lon="1.15333">
        <ele>525</ele>
        <time>2025-12-28T08:47:57.000Z</time>
      </trkpt>
      <trkpt lat="43.01073" lon="1.1534">
        <ele>525.5</ele>
        <time>2025-12-28T08:47:58.000Z</time>
      </trkpt>
      <trkpt lat="43.01075" lon="1.15348">
        <ele>526</ele>
        <time>2025-12-28T08:47:59.000Z</time>
      </trkpt>
      <trkpt lat="43.01078" lon="1.15356">
        <ele>525.9</ele>
        <time>2025-12-28T08:48:00.000Z</time>
      </trkpt>
      <trkpt lat="43.0108" lon="1.15363">
        <ele>526.1</ele>
        <time>2025-12-28T08:48:01.000Z</time>
      </trkpt>
      <trkpt lat="43.01084" lon="1.1537">
        <ele>526.4</ele>
        <time>2025-12-28T08:48:02.000Z</time>
      </trkpt>
      <trkpt lat="43.01087" lon="1.15377">
        <ele>526.6</ele>
        <time>2025-12-28T08:48:03.000Z</time>
      </trkpt>
      <trkpt lat="43.01091" lon="1.15382">
        <ele>526.9</ele>
        <time>2025-12-28T08:48:04.000Z</time>
      </trkpt>
      <trkpt lat="43.01094" lon="1.15388">
        <ele>526.9</ele>
        <time>2025-12-28T08:48:05.000Z</time>
      </trkpt>
      <trkpt lat="43.01097" lon="1.15392">
        <ele>527.2</ele>
        <time>2025-12-28T08:48:06.000Z</time>
      </trkpt>
      <trkpt lat="43.011" lon="1.15396">
        <ele>526.8</ele>
        <time>2025-12-28T08:48:07.000Z</time>
      </trkpt>
      <trkpt lat="43.01102" lon="1.154">
        <ele>526.9</ele>
        <time>2025-12-28T08:48:08.000Z</time>
      </trkpt>
      <trkpt lat="43.01105" lon="1.15404">
        <ele>527</ele>
        <time>2025-12-28T08:48:09.000Z</time>
      </trkpt>
      <trkpt lat="43.01107" lon="1.15408">
        <ele>527.1</ele>
        <time>2025-12-28T08:48:10.000Z</time>
      </trkpt>
      <trkpt lat="43.0111" lon="1.15413">
        <ele>527</ele>
        <time>2025-12-28T08:48:11.000Z</time>
      </trkpt>
      <trkpt lat="43.01113" lon="1.15417">
        <ele>526.6</ele>
        <time>2025-12-28T08:48:12.000Z</time>
      </trkpt>
      <trkpt lat="43.01116" lon="1.15421">
        <ele>526.3</ele>
        <time>2025-12-28T08:48:13.000Z</time>
      </trkpt>
      <trkpt lat="43.01119" lon="1.15426">
        <ele>526.1</ele>
        <time>2025-12-28T08:48:14.000Z</time>
      </trkpt>
      <trkpt lat="43.01122" lon="1.1543">
        <ele>525.9</ele>
        <time>2025-12-28T08:48:15.000Z</time>
      </trkpt>
      <trkpt lat="43.01125" lon="1.15435">
        <ele>526</ele>
        <time>2025-12-28T08:48:16.000Z</time>
      </trkpt>
      <trkpt lat="43.01129" lon="1.15439">
        <ele>525.7</ele>
        <time>2025-12-28T08:48:17.000Z</time>
      </trkpt>
      <trkpt lat="43.01132" lon="1.15443">
        <ele>525.6</ele>
        <time>2025-12-28T08:48:18.000Z</time>
      </trkpt>
      <trkpt lat="43.01136" lon="1.15447">
        <ele>525.3</ele>
        <time>2025-12-28T08:48:19.000Z</time>
      </trkpt>
      <trkpt lat="43.01139" lon="1.15452">
        <ele>525.1</ele>
        <time>2025-12-28T08:48:20.000Z</time>
      </trkpt>
      <trkpt lat="43.01144" lon="1.15456">
        <ele>524.8</ele>
        <time>2025-12-28T08:48:21.000Z</time>
      </trkpt>
      <trkpt lat="43.01149" lon="1.15458">
        <ele>525.3</ele>
        <time>2025-12-28T08:48:22.000Z</time>
      </trkpt>
      <trkpt lat="43.01155" lon="1.15462">
        <ele>524.7</ele>
        <time>2025-12-28T08:48:23.000Z</time>
      </trkpt>
      <trkpt lat="43.0116" lon="1.15464">
        <ele>523.9</ele>
        <time>2025-12-28T08:48:24.000Z</time>
      </trkpt>
      <trkpt lat="43.01166" lon="1.15464">
        <ele>522.5</ele>
        <time>2025-12-28T08:48:25.000Z</time>
      </trkpt>
      <trkpt lat="43.01171" lon="1.15465">
        <ele>521.7</ele>
        <time>2025-12-28T08:48:26.000Z</time>
      </trkpt>
      <trkpt lat="43.01177" lon="1.15466">
        <ele>520.9</ele>
        <time>2025-12-28T08:48:27.000Z</time>
      </trkpt>
      <trkpt lat="43.01183" lon="1.15465">
        <ele>520.5</ele>
        <time>2025-12-28T08:48:28.000Z</time>
      </trkpt>
      <trkpt lat="43.01189" lon="1.15463">
        <ele>519.8</ele>
        <time>2025-12-28T08:48:29.000Z</time>
      </trkpt>
      <trkpt lat="43.01195" lon="1.15462">
        <ele>519.1</ele>
        <time>2025-12-28T08:48:30.000Z</time>
      </trkpt>
      <trkpt lat="43.01201" lon="1.15463">
        <ele>518.7</ele>
        <time>2025-12-28T08:48:31.000Z</time>
      </trkpt>
      <trkpt lat="43.01207" lon="1.15463">
        <ele>518.4</ele>
        <time>2025-12-28T08:48:32.000Z</time>
      </trkpt>
      <trkpt lat="43.01213" lon="1.15462">
        <ele>519</ele>
        <time>2025-12-28T08:48:33.000Z</time>
      </trkpt>
      <trkpt lat="43.01219" lon="1.15461">
        <ele>519.7</ele>
        <time>2025-12-28T08:48:34.000Z</time>
      </trkpt>
      <trkpt lat="43.01224" lon="1.15459">
        <ele>519.9</ele>
        <time>2025-12-28T08:48:35.000Z</time>
      </trkpt>
      <trkpt lat="43.01229" lon="1.15457">
        <ele>519.9</ele>
        <time>2025-12-28T08:48:36.000Z</time>
      </trkpt>
      <trkpt lat="43.01234" lon="1.15455">
        <ele>520.5</ele>
        <time>2025-12-28T08:48:37.000Z</time>
      </trkpt>
      <trkpt lat="43.0124" lon="1.15454">
        <ele>520.8</ele>
        <time>2025-12-28T08:48:38.000Z</time>
      </trkpt>
      <trkpt lat="43.01246" lon="1.15452">
        <ele>520.3</ele>
        <time>2025-12-28T08:48:39.000Z</time>
      </trkpt>
      <trkpt lat="43.01252" lon="1.15451">
        <ele>520.2</ele>
        <time>2025-12-28T08:48:40.000Z</time>
      </trkpt>
      <trkpt lat="43.01258" lon="1.15452">
        <ele>521.2</ele>
        <time>2025-12-28T08:48:41.000Z</time>
      </trkpt>
      <trkpt lat="43.01264" lon="1.15452">
        <ele>520.6</ele>
        <time>2025-12-28T08:48:42.000Z</time>
      </trkpt>
      <trkpt lat="43.0127" lon="1.15453">
        <ele>520.2</ele>
        <time>2025-12-28T08:48:43.000Z</time>
      </trkpt>
      <trkpt lat="43.01276" lon="1.15455">
        <ele>519.5</ele>
        <time>2025-12-28T08:48:44.000Z</time>
      </trkpt>
      <trkpt lat="43.01281" lon="1.15457">
        <ele>519.8</ele>
        <time>2025-12-28T08:48:45.000Z</time>
      </trkpt>
      <trkpt lat="43.01287" lon="1.1546">
        <ele>519.7</ele>
        <time>2025-12-28T08:48:46.000Z</time>
      </trkpt>
      <trkpt lat="43.01293" lon="1.15463">
        <ele>519.7</ele>
        <time>2025-12-28T08:48:47.000Z</time>
      </trkpt>
      <trkpt lat="43.01298" lon="1.15466">
        <ele>521</ele>
        <time>2025-12-28T08:48:48.000Z</time>
      </trkpt>
      <trkpt lat="43.01304" lon="1.15469">
        <ele>521.1</ele>
        <time>2025-12-28T08:48:49.000Z</time>
      </trkpt>
      <trkpt lat="43.01309" lon="1.15471">
        <ele>521.2</ele>
        <time>2025-12-28T08:48:50.000Z</time>
      </trkpt>
      <trkpt lat="43.01315" lon="1.15473">
        <ele>521.7</ele>
        <time>2025-12-28T08:48:51.000Z</time>
      </trkpt>
      <trkpt lat="43.0132" lon="1.15475">
        <ele>522</ele>
        <time>2025-12-28T08:48:52.000Z</time>
      </trkpt>
      <trkpt lat="43.01325" lon="1.15476">
        <ele>522</ele>
        <time>2025-12-28T08:48:53.000Z</time>
      </trkpt>
      <trkpt lat="43.0133" lon="1.15477">
        <ele>521.9</ele>
        <time>2025-12-28T08:48:54.000Z</time>
      </trkpt>
      <trkpt lat="43.01335" lon="1.15478">
        <ele>522.1</ele>
        <time>2025-12-28T08:48:55.000Z</time>
      </trkpt>
      <trkpt lat="43.0134" lon="1.15479">
        <ele>522.3</ele>
        <time>2025-12-28T08:48:56.000Z</time>
      </trkpt>
      <trkpt lat="43.01345" lon="1.1548">
        <ele>522.6</ele>
        <time>2025-12-28T08:48:57.000Z</time>
      </trkpt>
      <trkpt lat="43.0135" lon="1.1548">
        <ele>522.3</ele>
        <time>2025-12-28T08:48:58.000Z</time>
      </trkpt>
      <trkpt lat="43.01355" lon="1.1548">
        <ele>521.6</ele>
        <time>2025-12-28T08:48:59.000Z</time>
      </trkpt>
      <trkpt lat="43.0136" lon="1.1548">
        <ele>521.6</ele>
        <time>2025-12-28T08:49:00.000Z</time>
      </trkpt>
      <trkpt lat="43.01365" lon="1.15481">
        <ele>521.9</ele>
        <time>2025-12-28T08:49:01.000Z</time>
      </trkpt>
      <trkpt lat="43.0137" lon="1.1548">
        <ele>522.2</ele>
        <time>2025-12-28T08:49:02.000Z</time>
      </trkpt>
      <trkpt lat="43.01375" lon="1.1548">
        <ele>522.5</ele>
        <time>2025-12-28T08:49:03.000Z</time>
      </trkpt>
      <trkpt lat="43.0138" lon="1.1548">
        <ele>522.7</ele>
        <time>2025-12-28T08:49:04.000Z</time>
      </trkpt>
      <trkpt lat="43.01384" lon="1.15479">
        <ele>523.2</ele>
        <time>2025-12-28T08:49:05.000Z</time>
      </trkpt>
      <trkpt lat="43.0139" lon="1.1548">
        <ele>523.1</ele>
        <time>2025-12-28T08:49:06.000Z</time>
      </trkpt>
      <trkpt lat="43.01395" lon="1.1548">
        <ele>522.1</ele>
        <time>2025-12-28T08:49:07.000Z</time>
      </trkpt>
      <trkpt lat="43.01398" lon="1.1548">
        <ele>521.3</ele>
        <time>2025-12-28T08:49:08.000Z</time>
      </trkpt>
      <trkpt lat="43.01402" lon="1.15481">
        <ele>521.4</ele>
        <time>2025-12-28T08:49:09.000Z</time>
      </trkpt>
      <trkpt lat="43.01405" lon="1.15479">
        <ele>522.5</ele>
        <time>2025-12-28T08:49:10.000Z</time>
      </trkpt>
      <trkpt lat="43.01409" lon="1.15479">
        <ele>523.3</ele>
        <time>2025-12-28T08:49:11.000Z</time>
      </trkpt>
      <trkpt lat="43.01411" lon="1.15478">
        <ele>524.1</ele>
        <time>2025-12-28T08:49:12.000Z</time>
      </trkpt>
      <trkpt lat="43.01414" lon="1.15477">
        <ele>523.6</ele>
        <time>2025-12-28T08:49:13.000Z</time>
      </trkpt>
      <trkpt lat="43.01417" lon="1.15477">
        <ele>522.7</ele>
        <time>2025-12-28T08:49:14.000Z</time>
      </trkpt>
      <trkpt lat="43.01419" lon="1.15477">
        <ele>522.4</ele>
        <time>2025-12-28T08:49:15.000Z</time>
      </trkpt>
      <trkpt lat="43.01422" lon="1.15477">
        <ele>523.2</ele>
        <time>2025-12-28T08:49:16.000Z</time>
      </trkpt>
      <trkpt lat="43.01424" lon="1.15477">
        <ele>523.9</ele>
        <time>2025-12-28T08:49:17.000Z</time>
      </trkpt>
      <trkpt lat="43.01427" lon="1.15477">
        <ele>523.6</ele>
        <time>2025-12-28T08:49:18.000Z</time>
      </trkpt>
      <trkpt lat="43.0143" lon="1.15478">
        <ele>522.7</ele>
        <time>2025-12-28T08:49:19.000Z</time>
      </trkpt>
      <trkpt lat="43.01432" lon="1.15478">
        <ele>522.4</ele>
        <time>2025-12-28T08:49:20.000Z</time>
      </trkpt>
      <trkpt lat="43.01435" lon="1.15478">
        <ele>522.9</ele>
        <time>2025-12-28T08:49:21.000Z</time>
      </trkpt>
      <trkpt lat="43.01438" lon="1.15478">
        <ele>522.9</ele>
        <time>2025-12-28T08:49:22.000Z</time>
      </trkpt>
      <trkpt lat="43.01441" lon="1.15477">
        <ele>523.7</ele>
        <time>2025-12-28T08:49:23.000Z</time>
      </trkpt>
      <trkpt lat="43.01444" lon="1.15477">
        <ele>523.6</ele>
        <time>2025-12-28T08:49:24.000Z</time>
      </trkpt>
      <trkpt lat="43.01448" lon="1.15476">
        <ele>523.6</ele>
        <time>2025-12-28T08:49:25.000Z</time>
      </trkpt>
      <trkpt lat="43.01451" lon="1.15475">
        <ele>523.9</ele>
        <time>2025-12-28T08:49:26.000Z</time>
      </trkpt>
      <trkpt lat="43.01454" lon="1.15475">
        <ele>524.3</ele>
        <time>2025-12-28T08:49:27.000Z</time>
      </trkpt>
      <trkpt lat="43.01457" lon="1.15473">
        <ele>524.3</ele>
        <time>2025-12-28T08:49:28.000Z</time>
      </trkpt>
      <trkpt lat="43.01461" lon="1.15472">
        <ele>524.4</ele>
        <time>2025-12-28T08:49:29.000Z</time>
      </trkpt>
      <trkpt lat="43.01465" lon="1.15471">
        <ele>524.9</ele>
        <time>2025-12-28T08:49:30.000Z</time>
      </trkpt>
      <trkpt lat="43.01468" lon="1.15469">
        <ele>525.3</ele>
        <time>2025-12-28T08:49:31.000Z</time>
      </trkpt>
      <trkpt lat="43.01471" lon="1.15468">
        <ele>526.2</ele>
        <time>2025-12-28T08:49:32.000Z</time>
      </trkpt>
      <trkpt lat="43.01475" lon="1.15465">
        <ele>526.9</ele>
        <time>2025-12-28T08:49:33.000Z</time>
      </trkpt>
      <trkpt lat="43.01479" lon="1.15464">
        <ele>527</ele>
        <time>2025-12-28T08:49:34.000Z</time>
      </trkpt>
      <trkpt lat="43.01482" lon="1.15462">
        <ele>527.3</ele>
        <time>2025-12-28T08:49:35.000Z</time>
      </trkpt>
      <trkpt lat="43.01486" lon="1.1546">
        <ele>527.3</ele>
        <time>2025-12-28T08:49:36.000Z</time>
      </trkpt>
      <trkpt lat="43.0149" lon="1.15459">
        <ele>527.3</ele>
        <time>2025-12-28T08:49:37.000Z</time>
      </trkpt>
      <trkpt lat="43.01493" lon="1.15457">
        <ele>527.1</ele>
        <time>2025-12-28T08:49:38.000Z</time>
      </trkpt>
      <trkpt lat="43.01497" lon="1.15455">
        <ele>527.1</ele>
        <time>2025-12-28T08:49:39.000Z</time>
      </trkpt>
      <trkpt lat="43.01501" lon="1.15452">
        <ele>527</ele>
        <time>2025-12-28T08:49:40.000Z</time>
      </trkpt>
      <trkpt lat="43.01504" lon="1.1545">
        <ele>527.2</ele>
        <time>2025-12-28T08:49:41.000Z</time>
      </trkpt>
      <trkpt lat="43.01507" lon="1.15448">
        <ele>527.9</ele>
        <time>2025-12-28T08:49:42.000Z</time>
      </trkpt>
      <trkpt lat="43.0151" lon="1.15446">
        <ele>528.7</ele>
        <time>2025-12-28T08:49:43.000Z</time>
      </trkpt>
      <trkpt lat="43.01513" lon="1.15443">
        <ele>528.5</ele>
        <time>2025-12-28T08:49:44.000Z</time>
      </trkpt>
      <trkpt lat="43.01517" lon="1.15441">
        <ele>529.2</ele>
        <time>2025-12-28T08:49:45.000Z</time>
      </trkpt>
      <trkpt lat="43.0152" lon="1.15439">
        <ele>529.7</ele>
        <time>2025-12-28T08:49:46.000Z</time>
      </trkpt>
      <trkpt lat="43.01522" lon="1.15437">
        <ele>530.8</ele>
        <time>2025-12-28T08:49:47.000Z</time>
      </trkpt>
      <trkpt lat="43.01525" lon="1.15435">
        <ele>531.4</ele>
        <time>2025-12-28T08:49:48.000Z</time>
      </trkpt>
      <trkpt lat="43.01528" lon="1.15433">
        <ele>531.4</ele>
        <time>2025-12-28T08:49:49.000Z</time>
      </trkpt>
      <trkpt lat="43.01532" lon="1.1543">
        <ele>530.9</ele>
        <time>2025-12-28T08:49:50.000Z</time>
      </trkpt>
      <trkpt lat="43.01536" lon="1.15428">
        <ele>530.9</ele>
        <time>2025-12-28T08:49:51.000Z</time>
      </trkpt>
      <trkpt lat="43.01539" lon="1.15425">
        <ele>531.3</ele>
        <time>2025-12-28T08:49:52.000Z</time>
      </trkpt>
      <trkpt lat="43.01543" lon="1.15422">
        <ele>531.5</ele>
        <time>2025-12-28T08:49:53.000Z</time>
      </trkpt>
      <trkpt lat="43.01547" lon="1.15419">
        <ele>530.9</ele>
        <time>2025-12-28T08:49:54.000Z</time>
      </trkpt>
      <trkpt lat="43.01552" lon="1.15417">
        <ele>530.3</ele>
        <time>2025-12-28T08:49:55.000Z</time>
      </trkpt>
      <trkpt lat="43.01556" lon="1.15414">
        <ele>529.8</ele>
        <time>2025-12-28T08:49:56.000Z</time>
      </trkpt>
      <trkpt lat="43.0156" lon="1.15411">
        <ele>530</ele>
        <time>2025-12-28T08:49:57.000Z</time>
      </trkpt>
      <trkpt lat="43.01564" lon="1.15409">
        <ele>530.3</ele>
        <time>2025-12-28T08:49:58.000Z</time>
      </trkpt>
      <trkpt lat="43.01568" lon="1.15406">
        <ele>530.4</ele>
        <time>2025-12-28T08:49:59.000Z</time>
      </trkpt>
      <trkpt lat="43.01572" lon="1.15403">
        <ele>530.5</ele>
        <time>2025-12-28T08:50:00.000Z</time>
      </trkpt>
      <trkpt lat="43.01576" lon="1.154">
        <ele>530.6</ele>
        <time>2025-12-28T08:50:01.000Z</time>
      </trkpt>
      <trkpt lat="43.0158" lon="1.15398">
        <ele>530.6</ele>
        <time>2025-12-28T08:50:02.000Z</time>
      </trkpt>
      <trkpt lat="43.01584" lon="1.15395">
        <ele>530.7</ele>
        <time>2025-12-28T08:50:03.000Z</time>
      </trkpt>
      <trkpt lat="43.01588" lon="1.15392">
        <ele>530.7</ele>
        <time>2025-12-28T08:50:04.000Z</time>
      </trkpt>
      <trkpt lat="43.01592" lon="1.15389">
        <ele>530.2</ele>
        <time>2025-12-28T08:50:05.000Z</time>
      </trkpt>
      <trkpt lat="43.01596" lon="1.15386">
        <ele>530.4</ele>
        <time>2025-12-28T08:50:06.000Z</time>
      </trkpt>
      <trkpt lat="43.016" lon="1.15384">
        <ele>530.8</ele>
        <time>2025-12-28T08:50:07.000Z</time>
      </trkpt>
      <trkpt lat="43.01603" lon="1.15381">
        <ele>531.1</ele>
        <time>2025-12-28T08:50:08.000Z</time>
      </trkpt>
      <trkpt lat="43.01607" lon="1.15378">
        <ele>531.8</ele>
        <time>2025-12-28T08:50:09.000Z</time>
      </trkpt>
      <trkpt lat="43.01611" lon="1.15375">
        <ele>531.5</ele>
        <time>2025-12-28T08:50:10.000Z</time>
      </trkpt>
      <trkpt lat="43.01615" lon="1.15372">
        <ele>531.4</ele>
        <time>2025-12-28T08:50:11.000Z</time>
      </trkpt>
      <trkpt lat="43.01618" lon="1.1537">
        <ele>531.4</ele>
        <time>2025-12-28T08:50:12.000Z</time>
      </trkpt>
      <trkpt lat="43.01622" lon="1.15367">
        <ele>531.9</ele>
        <time>2025-12-28T08:50:13.000Z</time>
      </trkpt>
      <trkpt lat="43.01626" lon="1.15364">
        <ele>531.9</ele>
        <time>2025-12-28T08:50:14.000Z</time>
      </trkpt>
      <trkpt lat="43.0163" lon="1.15362">
        <ele>531.9</ele>
        <time>2025-12-28T08:50:15.000Z</time>
      </trkpt>
      <trkpt lat="43.01634" lon="1.15359">
        <ele>532.3</ele>
        <time>2025-12-28T08:50:16.000Z</time>
      </trkpt>
      <trkpt lat="43.01638" lon="1.15357">
        <ele>532.4</ele>
        <time>2025-12-28T08:50:17.000Z</time>
      </trkpt>
      <trkpt lat="43.01642" lon="1.15355">
        <ele>532.6</ele>
        <time>2025-12-28T08:50:18.000Z</time>
      </trkpt>
      <trkpt lat="43.01645" lon="1.15353">
        <ele>532.8</ele>
        <time>2025-12-28T08:50:19.000Z</time>
      </trkpt>
      <trkpt lat="43.01649" lon="1.15351">
        <ele>533.1</ele>
        <time>2025-12-28T08:50:20.000Z</time>
      </trkpt>
      <trkpt lat="43.01653" lon="1.15349">
        <ele>533.5</ele>
        <time>2025-12-28T08:50:21.000Z</time>
      </trkpt>
      <trkpt lat="43.01657" lon="1.15347">
        <ele>533.4</ele>
        <time>2025-12-28T08:50:22.000Z</time>
      </trkpt>
      <trkpt lat="43.01661" lon="1.15346">
        <ele>533.4</ele>
        <time>2025-12-28T08:50:23.000Z</time>
      </trkpt>
      <trkpt lat="43.01665" lon="1.15344">
        <ele>533.6</ele>
        <time>2025-12-28T08:50:24.000Z</time>
      </trkpt>
      <trkpt lat="43.01669" lon="1.15342">
        <ele>533.7</ele>
        <time>2025-12-28T08:50:25.000Z</time>
      </trkpt>
      <trkpt lat="43.01672" lon="1.1534">
        <ele>533.7</ele>
        <time>2025-12-28T08:50:26.000Z</time>
      </trkpt>
      <trkpt lat="43.01676" lon="1.15338">
        <ele>533.8</ele>
        <time>2025-12-28T08:50:27.000Z</time>
      </trkpt>
      <trkpt lat="43.0168" lon="1.15337">
        <ele>534.5</ele>
        <time>2025-12-28T08:50:28.000Z</time>
      </trkpt>
      <trkpt lat="43.01684" lon="1.15335">
        <ele>534.3</ele>
        <time>2025-12-28T08:50:29.000Z</time>
      </trkpt>
      <trkpt lat="43.01688" lon="1.15332">
        <ele>533.8</ele>
        <time>2025-12-28T08:50:30.000Z</time>
      </trkpt>
      <trkpt lat="43.01691" lon="1.1533">
        <ele>534</ele>
        <time>2025-12-28T08:50:31.000Z</time>
      </trkpt>
      <trkpt lat="43.01695" lon="1.15328">
        <ele>534</ele>
        <time>2025-12-28T08:50:32.000Z</time>
      </trkpt>
      <trkpt lat="43.01698" lon="1.15325">
        <ele>534.2</ele>
        <time>2025-12-28T08:50:33.000Z</time>
      </trkpt>
      <trkpt lat="43.01702" lon="1.15322">
        <ele>534.6</ele>
        <time>2025-12-28T08:50:34.000Z</time>
      </trkpt>
      <trkpt lat="43.01705" lon="1.15319">
        <ele>534.7</ele>
        <time>2025-12-28T08:50:35.000Z</time>
      </trkpt>
      <trkpt lat="43.01709" lon="1.15316">
        <ele>535.1</ele>
        <time>2025-12-28T08:50:36.000Z</time>
      </trkpt>
      <trkpt lat="43.01712" lon="1.15313">
        <ele>535.3</ele>
        <time>2025-12-28T08:50:37.000Z</time>
      </trkpt>
      <trkpt lat="43.01716" lon="1.1531">
        <ele>535.4</ele>
        <time>2025-12-28T08:50:38.000Z</time>
      </trkpt>
      <trkpt lat="43.01719" lon="1.15307">
        <ele>535.7</ele>
        <time>2025-12-28T08:50:39.000Z</time>
      </trkpt>
      <trkpt lat="43.01722" lon="1.15304">
        <ele>536.1</ele>
        <time>2025-12-28T08:50:40.000Z</time>
      </trkpt>
      <trkpt lat="43.01725" lon="1.153">
        <ele>536.3</ele>
        <time>2025-12-28T08:50:41.000Z</time>
      </trkpt>
      <trkpt lat="43.01729" lon="1.15297">
        <ele>536.5</ele>
        <time>2025-12-28T08:50:42.000Z</time>
      </trkpt>
      <trkpt lat="43.01732" lon="1.15293">
        <ele>536.7</ele>
        <time>2025-12-28T08:50:43.000Z</time>
      </trkpt>
      <trkpt lat="43.01736" lon="1.1529">
        <ele>536.9</ele>
        <time>2025-12-28T08:50:44.000Z</time>
      </trkpt>
      <trkpt lat="43.01739" lon="1.15287">
        <ele>537.1</ele>
        <time>2025-12-28T08:50:45.000Z</time>
      </trkpt>
      <trkpt lat="43.01742" lon="1.15283">
        <ele>537.6</ele>
        <time>2025-12-28T08:50:46.000Z</time>
      </trkpt>
      <trkpt lat="43.01745" lon="1.1528">
        <ele>537.7</ele>
        <time>2025-12-28T08:50:47.000Z</time>
      </trkpt>
      <trkpt lat="43.01749" lon="1.15276">
        <ele>538.2</ele>
        <time>2025-12-28T08:50:48.000Z</time>
      </trkpt>
      <trkpt lat="43.01752" lon="1.15273">
        <ele>538.6</ele>
        <time>2025-12-28T08:50:49.000Z</time>
      </trkpt>
      <trkpt lat="43.01755" lon="1.1527">
        <ele>538.9</ele>
        <time>2025-12-28T08:50:50.000Z</time>
      </trkpt>
      <trkpt lat="43.01758" lon="1.15266">
        <ele>539.1</ele>
        <time>2025-12-28T08:50:51.000Z</time>
      </trkpt>
      <trkpt lat="43.01762" lon="1.15262">
        <ele>539.5</ele>
        <time>2025-12-28T08:50:52.000Z</time>
      </trkpt>
      <trkpt lat="43.01765" lon="1.15258">
        <ele>540</ele>
        <time>2025-12-28T08:50:53.000Z</time>
      </trkpt>
      <trkpt lat="43.01768" lon="1.15254">
        <ele>540.2</ele>
        <time>2025-12-28T08:50:54.000Z</time>
      </trkpt>
      <trkpt lat="43.01772" lon="1.1525">
        <ele>540.6</ele>
        <time>2025-12-28T08:50:55.000Z</time>
      </trkpt>
      <trkpt lat="43.01775" lon="1.15247">
        <ele>541.1</ele>
        <time>2025-12-28T08:50:56.000Z</time>
      </trkpt>
      <trkpt lat="43.01778" lon="1.15243">
        <ele>541.2</ele>
        <time>2025-12-28T08:50:57.000Z</time>
      </trkpt>
      <trkpt lat="43.01781" lon="1.15239">
        <ele>541.4</ele>
        <time>2025-12-28T08:50:58.000Z</time>
      </trkpt>
      <trkpt lat="43.01784" lon="1.15235">
        <ele>541.5</ele>
        <time>2025-12-28T08:50:59.000Z</time>
      </trkpt>
      <trkpt lat="43.01787" lon="1.15231">
        <ele>542</ele>
        <time>2025-12-28T08:51:00.000Z</time>
      </trkpt>
      <trkpt lat="43.01791" lon="1.15227">
        <ele>542.3</ele>
        <time>2025-12-28T08:51:01.000Z</time>
      </trkpt>
      <trkpt lat="43.01794" lon="1.15224">
        <ele>542.7</ele>
        <time>2025-12-28T08:51:02.000Z</time>
      </trkpt>
      <trkpt lat="43.01797" lon="1.1522">
        <ele>543</ele>
        <time>2025-12-28T08:51:03.000Z</time>
      </trkpt>
      <trkpt lat="43.018" lon="1.15217">
        <ele>543.3</ele>
        <time>2025-12-28T08:51:04.000Z</time>
      </trkpt>
      <trkpt lat="43.01803" lon="1.15213">
        <ele>543.8</ele>
        <time>2025-12-28T08:51:05.000Z</time>
      </trkpt>
      <trkpt lat="43.01806" lon="1.15209">
        <ele>544</ele>
        <time>2025-12-28T08:51:06.000Z</time>
      </trkpt>
      <trkpt lat="43.01809" lon="1.15205">
        <ele>544.5</ele>
        <time>2025-12-28T08:51:07.000Z</time>
      </trkpt>
      <trkpt lat="43.01812" lon="1.15202">
        <ele>545.1</ele>
        <time>2025-12-28T08:51:08.000Z</time>
      </trkpt>
      <trkpt lat="43.01815" lon="1.15199">
        <ele>545.7</ele>
        <time>2025-12-28T08:51:09.000Z</time>
      </trkpt>
      <trkpt lat="43.01818" lon="1.15195">
        <ele>546.2</ele>
        <time>2025-12-28T08:51:10.000Z</time>
      </trkpt>
      <trkpt lat="43.01821" lon="1.15191">
        <ele>546.6</ele>
        <time>2025-12-28T08:51:11.000Z</time>
      </trkpt>
      <trkpt lat="43.01824" lon="1.15187">
        <ele>547</ele>
        <time>2025-12-28T08:51:12.000Z</time>
      </trkpt>
      <trkpt lat="43.01827" lon="1.15184">
        <ele>547.5</ele>
        <time>2025-12-28T08:51:13.000Z</time>
      </trkpt>
      <trkpt lat="43.01831" lon="1.1518">
        <ele>547.7</ele>
        <time>2025-12-28T08:51:14.000Z</time>
      </trkpt>
      <trkpt lat="43.01834" lon="1.15176">
        <ele>547.7</ele>
        <time>2025-12-28T08:51:15.000Z</time>
      </trkpt>
      <trkpt lat="43.01838" lon="1.15172">
        <ele>548.1</ele>
        <time>2025-12-28T08:51:16.000Z</time>
      </trkpt>
      <trkpt lat="43.01841" lon="1.15168">
        <ele>548.3</ele>
        <time>2025-12-28T08:51:17.000Z</time>
      </trkpt>
      <trkpt lat="43.01844" lon="1.15164">
        <ele>548.7</ele>
        <time>2025-12-28T08:51:18.000Z</time>
      </trkpt>
      <trkpt lat="43.01847" lon="1.15161">
        <ele>549.1</ele>
        <time>2025-12-28T08:51:19.000Z</time>
      </trkpt>
      <trkpt lat="43.0185" lon="1.15157">
        <ele>549.3</ele>
        <time>2025-12-28T08:51:20.000Z</time>
      </trkpt>
      <trkpt lat="43.01853" lon="1.15154">
        <ele>549.7</ele>
        <time>2025-12-28T08:51:21.000Z</time>
      </trkpt>
      <trkpt lat="43.01856" lon="1.15151">
        <ele>550.3</ele>
        <time>2025-12-28T08:51:22.000Z</time>
      </trkpt>
      <trkpt lat="43.01859" lon="1.15148">
        <ele>550.6</ele>
        <time>2025-12-28T08:51:23.000Z</time>
      </trkpt>
      <trkpt lat="43.01862" lon="1.15144">
        <ele>550.8</ele>
        <time>2025-12-28T08:51:24.000Z</time>
      </trkpt>
      <trkpt lat="43.01865" lon="1.15141">
        <ele>551.3</ele>
        <time>2025-12-28T08:51:25.000Z</time>
      </trkpt>
      <trkpt lat="43.01868" lon="1.15137">
        <ele>551.6</ele>
        <time>2025-12-28T08:51:26.000Z</time>
      </trkpt>
      <trkpt lat="43.01871" lon="1.15134">
        <ele>551.6</ele>
        <time>2025-12-28T08:51:27.000Z</time>
      </trkpt>
      <trkpt lat="43.01874" lon="1.1513">
        <ele>552</ele>
        <time>2025-12-28T08:51:28.000Z</time>
      </trkpt>
      <trkpt lat="43.01877" lon="1.15127">
        <ele>551.8</ele>
        <time>2025-12-28T08:51:29.000Z</time>
      </trkpt>
      <trkpt lat="43.0188" lon="1.15124">
        <ele>552.7</ele>
        <time>2025-12-28T08:51:30.000Z</time>
      </trkpt>
      <trkpt lat="43.01883" lon="1.1512">
        <ele>553</ele>
        <time>2025-12-28T08:51:31.000Z</time>
      </trkpt>
      <trkpt lat="43.01886" lon="1.15117">
        <ele>553.6</ele>
        <time>2025-12-28T08:51:32.000Z</time>
      </trkpt>
      <trkpt lat="43.01889" lon="1.15114">
        <ele>554.1</ele>
        <time>2025-12-28T08:51:33.000Z</time>
      </trkpt>
      <trkpt lat="43.01892" lon="1.15111">
        <ele>554.6</ele>
        <time>2025-12-28T08:51:34.000Z</time>
      </trkpt>
      <trkpt lat="43.01896" lon="1.15109">
        <ele>554.8</ele>
        <time>2025-12-28T08:51:35.000Z</time>
      </trkpt>
      <trkpt lat="43.01899" lon="1.15107">
        <ele>555.1</ele>
        <time>2025-12-28T08:51:36.000Z</time>
      </trkpt>
      <trkpt lat="43.01903" lon="1.15106">
        <ele>555.6</ele>
        <time>2025-12-28T08:51:37.000Z</time>
      </trkpt>
      <trkpt lat="43.01907" lon="1.15104">
        <ele>555.2</ele>
        <time>2025-12-28T08:51:38.000Z</time>
      </trkpt>
      <trkpt lat="43.0191" lon="1.15102">
        <ele>555.7</ele>
        <time>2025-12-28T08:51:39.000Z</time>
      </trkpt>
      <trkpt lat="43.01914" lon="1.15102">
        <ele>555.6</ele>
        <time>2025-12-28T08:51:40.000Z</time>
      </trkpt>
      <trkpt lat="43.01918" lon="1.15101">
        <ele>556.2</ele>
        <time>2025-12-28T08:51:41.000Z</time>
      </trkpt>
      <trkpt lat="43.01922" lon="1.15101">
        <ele>556.1</ele>
        <time>2025-12-28T08:51:42.000Z</time>
      </trkpt>
      <trkpt lat="43.01926" lon="1.15101">
        <ele>556.2</ele>
        <time>2025-12-28T08:51:43.000Z</time>
      </trkpt>
      <trkpt lat="43.0193" lon="1.15101">
        <ele>556.5</ele>
        <time>2025-12-28T08:51:44.000Z</time>
      </trkpt>
      <trkpt lat="43.01934" lon="1.15101">
        <ele>556.6</ele>
        <time>2025-12-28T08:51:45.000Z</time>
      </trkpt>
      <trkpt lat="43.01937" lon="1.15102">
        <ele>556.4</ele>
        <time>2025-12-28T08:51:46.000Z</time>
      </trkpt>
      <trkpt lat="43.01941" lon="1.15102">
        <ele>556.6</ele>
        <time>2025-12-28T08:51:47.000Z</time>
      </trkpt>
      <trkpt lat="43.01944" lon="1.15103">
        <ele>557.9</ele>
        <time>2025-12-28T08:51:48.000Z</time>
      </trkpt>
      <trkpt lat="43.01948" lon="1.15104">
        <ele>558</ele>
        <time>2025-12-28T08:51:49.000Z</time>
      </trkpt>
      <trkpt lat="43.01952" lon="1.15105">
        <ele>557.9</ele>
        <time>2025-12-28T08:51:50.000Z</time>
      </trkpt>
      <trkpt lat="43.01955" lon="1.15106">
        <ele>558.1</ele>
        <time>2025-12-28T08:51:51.000Z</time>
      </trkpt>
      <trkpt lat="43.01958" lon="1.15106">
        <ele>557.8</ele>
        <time>2025-12-28T08:51:52.000Z</time>
      </trkpt>
      <trkpt lat="43.01962" lon="1.15107">
        <ele>558</ele>
        <time>2025-12-28T08:51:53.000Z</time>
      </trkpt>
      <trkpt lat="43.01965" lon="1.15108">
        <ele>558.9</ele>
        <time>2025-12-28T08:51:54.000Z</time>
      </trkpt>
      <trkpt lat="43.01969" lon="1.15109">
        <ele>559.2</ele>
        <time>2025-12-28T08:51:55.000Z</time>
      </trkpt>
      <trkpt lat="43.01972" lon="1.15109">
        <ele>559.7</ele>
        <time>2025-12-28T08:51:56.000Z</time>
      </trkpt>
      <trkpt lat="43.01975" lon="1.1511">
        <ele>560.1</ele>
        <time>2025-12-28T08:51:57.000Z</time>
      </trkpt>
      <trkpt lat="43.01978" lon="1.1511">
        <ele>560.3</ele>
        <time>2025-12-28T08:51:58.000Z</time>
      </trkpt>
      <trkpt lat="43.01981" lon="1.1511">
        <ele>560.5</ele>
        <time>2025-12-28T08:51:59.000Z</time>
      </trkpt>
      <trkpt lat="43.01983" lon="1.15111">
        <ele>561.9</ele>
        <time>2025-12-28T08:52:00.000Z</time>
      </trkpt>
      <trkpt lat="43.01986" lon="1.15114">
        <ele>562.2</ele>
        <time>2025-12-28T08:52:01.000Z</time>
      </trkpt>
      <trkpt lat="43.01988" lon="1.15118">
        <ele>561.9</ele>
        <time>2025-12-28T08:52:02.000Z</time>
      </trkpt>
      <trkpt lat="43.01989" lon="1.15122">
        <ele>561</ele>
        <time>2025-12-28T08:52:03.000Z</time>
      </trkpt>
      <trkpt lat="43.01989" lon="1.15126">
        <ele>561.2</ele>
        <time>2025-12-28T08:52:04.000Z</time>
      </trkpt>
      <trkpt lat="43.01989" lon="1.1513">
        <ele>561.5</ele>
        <time>2025-12-28T08:52:05.000Z</time>
      </trkpt>
      <trkpt lat="43.01989" lon="1.15135">
        <ele>561.8</ele>
        <time>2025-12-28T08:52:06.000Z</time>
      </trkpt>
      <trkpt lat="43.01989" lon="1.15139">
        <ele>562.1</ele>
        <time>2025-12-28T08:52:07.000Z</time>
      </trkpt>
      <trkpt lat="43.0199" lon="1.15144">
        <ele>562.8</ele>
        <time>2025-12-28T08:52:08.000Z</time>
      </trkpt>
      <trkpt lat="43.0199" lon="1.15149">
        <ele>562.8</ele>
        <time>2025-12-28T08:52:09.000Z</time>
      </trkpt>
      <trkpt lat="43.0199" lon="1.15154">
        <ele>563.6</ele>
        <time>2025-12-28T08:52:10.000Z</time>
      </trkpt>
      <trkpt lat="43.0199" lon="1.15158">
        <ele>563.5</ele>
        <time>2025-12-28T08:52:11.000Z</time>
      </trkpt>
      <trkpt lat="43.0199" lon="1.15163">
        <ele>563.4</ele>
        <time>2025-12-28T08:52:12.000Z</time>
      </trkpt>
      <trkpt lat="43.01989" lon="1.15168">
        <ele>563.4</ele>
        <time>2025-12-28T08:52:13.000Z</time>
      </trkpt>
      <trkpt lat="43.01989" lon="1.15173">
        <ele>563.2</ele>
        <time>2025-12-28T08:52:14.000Z</time>
      </trkpt>
      <trkpt lat="43.01989" lon="1.15178">
        <ele>563.5</ele>
        <time>2025-12-28T08:52:15.000Z</time>
      </trkpt>
      <trkpt lat="43.01989" lon="1.15183">
        <ele>563.9</ele>
        <time>2025-12-28T08:52:16.000Z</time>
      </trkpt>
      <trkpt lat="43.01989" lon="1.15188">
        <ele>564.4</ele>
        <time>2025-12-28T08:52:17.000Z</time>
      </trkpt>
      <trkpt lat="43.01989" lon="1.15193">
        <ele>564.6</ele>
        <time>2025-12-28T08:52:18.000Z</time>
      </trkpt>
      <trkpt lat="43.01989" lon="1.15198">
        <ele>563.9</ele>
        <time>2025-12-28T08:52:19.000Z</time>
      </trkpt>
      <trkpt lat="43.01989" lon="1.15202">
        <ele>563.9</ele>
        <time>2025-12-28T08:52:20.000Z</time>
      </trkpt>
      <trkpt lat="43.01988" lon="1.15207">
        <ele>564.4</ele>
        <time>2025-12-28T08:52:21.000Z</time>
      </trkpt>
      <trkpt lat="43.01988" lon="1.15212">
        <ele>564.7</ele>
        <time>2025-12-28T08:52:22.000Z</time>
      </trkpt>
      <trkpt lat="43.01988" lon="1.15217">
        <ele>565.2</ele>
        <time>2025-12-28T08:52:23.000Z</time>
      </trkpt>
      <trkpt lat="43.01988" lon="1.15221">
        <ele>565.4</ele>
        <time>2025-12-28T08:52:24.000Z</time>
      </trkpt>
      <trkpt lat="43.01987" lon="1.15226">
        <ele>565.3</ele>
        <time>2025-12-28T08:52:25.000Z</time>
      </trkpt>
      <trkpt lat="43.01987" lon="1.15231">
        <ele>565.3</ele>
        <time>2025-12-28T08:52:26.000Z</time>
      </trkpt>
      <trkpt lat="43.01987" lon="1.15235">
        <ele>565.5</ele>
        <time>2025-12-28T08:52:27.000Z</time>
      </trkpt>
      <trkpt lat="43.01987" lon="1.15239">
        <ele>565.5</ele>
        <time>2025-12-28T08:52:28.000Z</time>
      </trkpt>
      <trkpt lat="43.01987" lon="1.15243">
        <ele>566.1</ele>
        <time>2025-12-28T08:52:29.000Z</time>
      </trkpt>
      <trkpt lat="43.01987" lon="1.15246">
        <ele>565.9</ele>
        <time>2025-12-28T08:52:30.000Z</time>
      </trkpt>
      <trkpt lat="43.01986" lon="1.15251">
        <ele>566.3</ele>
        <time>2025-12-28T08:52:31.000Z</time>
      </trkpt>
      <trkpt lat="43.01986" lon="1.15255">
        <ele>567.5</ele>
        <time>2025-12-28T08:52:32.000Z</time>
      </trkpt>
      <trkpt lat="43.01985" lon="1.15259">
        <ele>568.1</ele>
        <time>2025-12-28T08:52:33.000Z</time>
      </trkpt>
      <trkpt lat="43.01985" lon="1.15263">
        <ele>567.7</ele>
        <time>2025-12-28T08:52:34.000Z</time>
      </trkpt>
      <trkpt lat="43.01984" lon="1.15267">
        <ele>568.2</ele>
        <time>2025-12-28T08:52:35.000Z</time>
      </trkpt>
      <trkpt lat="43.01983" lon="1.1527">
        <ele>568.5</ele>
        <time>2025-12-28T08:52:36.000Z</time>
      </trkpt>
      <trkpt lat="43.01983" lon="1.15273">
        <ele>568.3</ele>
        <time>2025-12-28T08:52:37.000Z</time>
      </trkpt>
      <trkpt lat="43.01982" lon="1.15277">
        <ele>569.2</ele>
        <time>2025-12-28T08:52:38.000Z</time>
      </trkpt>
      <trkpt lat="43.01981" lon="1.1528">
        <ele>571</ele>
        <time>2025-12-28T08:52:39.000Z</time>
      </trkpt>
      <trkpt lat="43.0198" lon="1.15283">
        <ele>571.5</ele>
        <time>2025-12-28T08:52:40.000Z</time>
      </trkpt>
      <trkpt lat="43.01978" lon="1.15287">
        <ele>571.5</ele>
        <time>2025-12-28T08:52:41.000Z</time>
      </trkpt>
      <trkpt lat="43.01976" lon="1.15291">
        <ele>570.6</ele>
        <time>2025-12-28T08:52:42.000Z</time>
      </trkpt>
      <trkpt lat="43.01974" lon="1.15295">
        <ele>570.5</ele>
        <time>2025-12-28T08:52:43.000Z</time>
      </trkpt>
      <trkpt lat="43.01972" lon="1.153">
        <ele>570.9</ele>
        <time>2025-12-28T08:52:44.000Z</time>
      </trkpt>
      <trkpt lat="43.01969" lon="1.15305">
        <ele>570.8</ele>
        <time>2025-12-28T08:52:45.000Z</time>
      </trkpt>
      <trkpt lat="43.01968" lon="1.1531">
        <ele>571.7</ele>
        <time>2025-12-28T08:52:46.000Z</time>
      </trkpt>
      <trkpt lat="43.01966" lon="1.15314">
        <ele>572.5</ele>
        <time>2025-12-28T08:52:47.000Z</time>
      </trkpt>
      <trkpt lat="43.01964" lon="1.15319">
        <ele>571.9</ele>
        <time>2025-12-28T08:52:48.000Z</time>
      </trkpt>
      <trkpt lat="43.01963" lon="1.15323">
        <ele>572.4</ele>
        <time>2025-12-28T08:52:49.000Z</time>
      </trkpt>
      <trkpt lat="43.01962" lon="1.15327">
        <ele>573.2</ele>
        <time>2025-12-28T08:52:50.000Z</time>
      </trkpt>
      <trkpt lat="43.0196" lon="1.15331">
        <ele>571.8</ele>
        <time>2025-12-28T08:52:51.000Z</time>
      </trkpt>
      <trkpt lat="43.0196" lon="1.15334">
        <ele>572.6</ele>
        <time>2025-12-28T08:52:52.000Z</time>
      </trkpt>
      <trkpt lat="43.01958" lon="1.15338">
        <ele>574.4</ele>
        <time>2025-12-28T08:52:53.000Z</time>
      </trkpt>
      <trkpt lat="43.01957" lon="1.15342">
        <ele>575.3</ele>
        <time>2025-12-28T08:52:54.000Z</time>
      </trkpt>
      <trkpt lat="43.01956" lon="1.15347">
        <ele>575.1</ele>
        <time>2025-12-28T08:52:55.000Z</time>
      </trkpt>
      <trkpt lat="43.01955" lon="1.15351">
        <ele>574.7</ele>
        <time>2025-12-28T08:52:56.000Z</time>
      </trkpt>
      <trkpt lat="43.01955" lon="1.15355">
        <ele>574.6</ele>
        <time>2025-12-28T08:52:57.000Z</time>
      </trkpt>
      <trkpt lat="43.01954" lon="1.1536">
        <ele>573.8</ele>
        <time>2025-12-28T08:52:58.000Z</time>
      </trkpt>
      <trkpt lat="43.01954" lon="1.15364">
        <ele>575.1</ele>
        <time>2025-12-28T08:52:59.000Z</time>
      </trkpt>
      <trkpt lat="43.01954" lon="1.15368">
        <ele>576</ele>
        <time>2025-12-28T08:53:00.000Z</time>
      </trkpt>
      <trkpt lat="43.01954" lon="1.15372">
        <ele>576.7</ele>
        <time>2025-12-28T08:53:01.000Z</time>
      </trkpt>
      <trkpt lat="43.01954" lon="1.15376">
        <ele>577.6</ele>
        <time>2025-12-28T08:53:02.000Z</time>
      </trkpt>
      <trkpt lat="43.01954" lon="1.15379">
        <ele>577.7</ele>
        <time>2025-12-28T08:53:03.000Z</time>
      </trkpt>
      <trkpt lat="43.01955" lon="1.15383">
        <ele>578.5</ele>
        <time>2025-12-28T08:53:04.000Z</time>
      </trkpt>
      <trkpt lat="43.01955" lon="1.15386">
        <ele>578.6</ele>
        <time>2025-12-28T08:53:05.000Z</time>
      </trkpt>
      <trkpt lat="43.01956" lon="1.1539">
        <ele>579.2</ele>
        <time>2025-12-28T08:53:06.000Z</time>
      </trkpt>
      <trkpt lat="43.01956" lon="1.15393">
        <ele>580.6</ele>
        <time>2025-12-28T08:53:07.000Z</time>
      </trkpt>
      <trkpt lat="43.01957" lon="1.15397">
        <ele>581.9</ele>
        <time>2025-12-28T08:53:08.000Z</time>
      </trkpt>
      <trkpt lat="43.01958" lon="1.154">
        <ele>582.8</ele>
        <time>2025-12-28T08:53:09.000Z</time>
      </trkpt>
      <trkpt lat="43.01958" lon="1.15405">
        <ele>582.3</ele>
        <time>2025-12-28T08:53:10.000Z</time>
      </trkpt>
      <trkpt lat="43.01959" lon="1.15408">
        <ele>584</ele>
        <time>2025-12-28T08:53:11.000Z</time>
      </trkpt>
      <trkpt lat="43.01958" lon="1.15413">
        <ele>584.1</ele>
        <time>2025-12-28T08:53:12.000Z</time>
      </trkpt>
      <trkpt lat="43.01958" lon="1.15416">
        <ele>585</ele>
        <time>2025-12-28T08:53:13.000Z</time>
      </trkpt>
      <trkpt lat="43.01958" lon="1.1542">
        <ele>585.2</ele>
        <time>2025-12-28T08:53:14.000Z</time>
      </trkpt>
      <trkpt lat="43.01957" lon="1.15424">
        <ele>585.9</ele>
        <time>2025-12-28T08:53:15.000Z</time>
      </trkpt>
      <trkpt lat="43.01957" lon="1.15428">
        <ele>585.8</ele>
        <time>2025-12-28T08:53:16.000Z</time>
      </trkpt>
      <trkpt lat="43.01957" lon="1.15432">
        <ele>585.3</ele>
        <time>2025-12-28T08:53:17.000Z</time>
      </trkpt>
      <trkpt lat="43.01956" lon="1.15435">
        <ele>586</ele>
        <time>2025-12-28T08:53:18.000Z</time>
      </trkpt>
      <trkpt lat="43.01956" lon="1.15439">
        <ele>585.4</ele>
        <time>2025-12-28T08:53:19.000Z</time>
      </trkpt>
      <trkpt lat="43.01955" lon="1.15442">
        <ele>586.2</ele>
        <time>2025-12-28T08:53:20.000Z</time>
      </trkpt>
      <trkpt lat="43.01955" lon="1.15446">
        <ele>586.6</ele>
        <time>2025-12-28T08:53:21.000Z</time>
      </trkpt>
      <trkpt lat="43.01954" lon="1.1545">
        <ele>586.9</ele>
        <time>2025-12-28T08:53:22.000Z</time>
      </trkpt>
      <trkpt lat="43.01954" lon="1.15453">
        <ele>588.7</ele>
        <time>2025-12-28T08:53:23.000Z</time>
      </trkpt>
      <trkpt lat="43.01954" lon="1.15456">
        <ele>589.3</ele>
        <time>2025-12-28T08:53:24.000Z</time>
      </trkpt>
      <trkpt lat="43.01953" lon="1.15459">
        <ele>589.2</ele>
        <time>2025-12-28T08:53:25.000Z</time>
      </trkpt>
      <trkpt lat="43.01953" lon="1.15463">
        <ele>588.9</ele>
        <time>2025-12-28T08:53:26.000Z</time>
      </trkpt>
      <trkpt lat="43.01952" lon="1.15466">
        <ele>589.4</ele>
        <time>2025-12-28T08:53:27.000Z</time>
      </trkpt>
      <trkpt lat="43.01951" lon="1.15469">
        <ele>590.3</ele>
        <time>2025-12-28T08:53:28.000Z</time>
      </trkpt>
      <trkpt lat="43.01951" lon="1.15472">
        <ele>591.6</ele>
        <time>2025-12-28T08:53:29.000Z</time>
      </trkpt>
      <trkpt lat="43.0195" lon="1.15476">
        <ele>591.8</ele>
        <time>2025-12-28T08:53:30.000Z</time>
      </trkpt>
      <trkpt lat="43.01949" lon="1.1548">
        <ele>592.5</ele>
        <time>2025-12-28T08:53:31.000Z</time>
      </trkpt>
      <trkpt lat="43.01948" lon="1.15483">
        <ele>592.3</ele>
        <time>2025-12-28T08:53:32.000Z</time>
      </trkpt>
      <trkpt lat="43.01947" lon="1.15487">
        <ele>592.9</ele>
        <time>2025-12-28T08:53:33.000Z</time>
      </trkpt>
      <trkpt lat="43.01946" lon="1.1549">
        <ele>593</ele>
        <time>2025-12-28T08:53:34.000Z</time>
      </trkpt>
      <trkpt lat="43.01945" lon="1.15494">
        <ele>593.1</ele>
        <time>2025-12-28T08:53:35.000Z</time>
      </trkpt>
      <trkpt lat="43.01944" lon="1.15496">
        <ele>594.5</ele>
        <time>2025-12-28T08:53:36.000Z</time>
      </trkpt>
      <trkpt lat="43.01943" lon="1.15499">
        <ele>595.1</ele>
        <time>2025-12-28T08:53:37.000Z</time>
      </trkpt>
      <trkpt lat="43.01942" lon="1.15502">
        <ele>595.9</ele>
        <time>2025-12-28T08:53:38.000Z</time>
      </trkpt>
      <trkpt lat="43.0194" lon="1.15504">
        <ele>596.9</ele>
        <time>2025-12-28T08:53:39.000Z</time>
      </trkpt>
      <trkpt lat="43.01939" lon="1.15508">
        <ele>597.2</ele>
        <time>2025-12-28T08:53:40.000Z</time>
      </trkpt>
      <trkpt lat="43.01937" lon="1.15512">
        <ele>597.7</ele>
        <time>2025-12-28T08:53:41.000Z</time>
      </trkpt>
      <trkpt lat="43.01935" lon="1.15515">
        <ele>598.4</ele>
        <time>2025-12-28T08:53:42.000Z</time>
      </trkpt>
      <trkpt lat="43.01933" lon="1.15517">
        <ele>598.9</ele>
        <time>2025-12-28T08:53:43.000Z</time>
      </trkpt>
      <trkpt lat="43.01932" lon="1.1552">
        <ele>599</ele>
        <time>2025-12-28T08:53:44.000Z</time>
      </trkpt>
      <trkpt lat="43.0193" lon="1.15523">
        <ele>597.7</ele>
        <time>2025-12-28T08:53:45.000Z</time>
      </trkpt>
      <trkpt lat="43.01928" lon="1.15527">
        <ele>597.4</ele>
        <time>2025-12-28T08:53:46.000Z</time>
      </trkpt>
      <trkpt lat="43.01927" lon="1.1553">
        <ele>596.4</ele>
        <time>2025-12-28T08:53:47.000Z</time>
      </trkpt>
      <trkpt lat="43.01927" lon="1.15532">
        <ele>595.1</ele>
        <time>2025-12-28T08:53:48.000Z</time>
      </trkpt>
      <trkpt lat="43.01926" lon="1.15535">
        <ele>594.2</ele>
        <time>2025-12-28T08:53:49.000Z</time>
      </trkpt>
      <trkpt lat="43.01925" lon="1.15539">
        <ele>594.4</ele>
        <time>2025-12-28T08:53:50.000Z</time>
      </trkpt>
      <trkpt lat="43.01924" lon="1.15543">
        <ele>594.7</ele>
        <time>2025-12-28T08:53:51.000Z</time>
      </trkpt>
      <trkpt lat="43.01924" lon="1.15545">
        <ele>593.8</ele>
        <time>2025-12-28T08:53:52.000Z</time>
      </trkpt>
      <trkpt lat="43.01922" lon="1.15553">
        <ele>593.6</ele>
        <time>2025-12-28T08:53:53.000Z</time>
      </trkpt>
      <trkpt lat="43.0192" lon="1.15558">
        <ele>594.2</ele>
        <time>2025-12-28T08:53:54.000Z</time>
      </trkpt>
      <trkpt lat="43.01917" lon="1.15563">
        <ele>594.1</ele>
        <time>2025-12-28T08:53:55.000Z</time>
      </trkpt>
      <trkpt lat="43.01915" lon="1.15568">
        <ele>594.7</ele>
        <time>2025-12-28T08:53:56.000Z</time>
      </trkpt>
      <trkpt lat="43.01912" lon="1.15573">
        <ele>592.8</ele>
        <time>2025-12-28T08:53:57.000Z</time>
      </trkpt>
      <trkpt lat="43.01909" lon="1.1558">
        <ele>592.8</ele>
        <time>2025-12-28T08:53:58.000Z</time>
      </trkpt>
      <trkpt lat="43.01907" lon="1.15585">
        <ele>591.3</ele>
        <time>2025-12-28T08:53:59.000Z</time>
      </trkpt>
      <trkpt lat="43.01905" lon="1.15592">
        <ele>591.6</ele>
        <time>2025-12-28T08:54:00.000Z</time>
      </trkpt>
      <trkpt lat="43.01904" lon="1.15599">
        <ele>591.6</ele>
        <time>2025-12-28T08:54:01.000Z</time>
      </trkpt>
      <trkpt lat="43.01902" lon="1.15605">
        <ele>591.8</ele>
        <time>2025-12-28T08:54:02.000Z</time>
      </trkpt>
      <trkpt lat="43.01902" lon="1.15611">
        <ele>592.8</ele>
        <time>2025-12-28T08:54:03.000Z</time>
      </trkpt>
      <trkpt lat="43.01902" lon="1.15616">
        <ele>594.5</ele>
        <time>2025-12-28T08:54:04.000Z</time>
      </trkpt>
      <trkpt lat="43.01903" lon="1.15621">
        <ele>595.2</ele>
        <time>2025-12-28T08:54:05.000Z</time>
      </trkpt>
      <trkpt lat="43.01904" lon="1.15627">
        <ele>594.6</ele>
        <time>2025-12-28T08:54:06.000Z</time>
      </trkpt>
      <trkpt lat="43.01905" lon="1.15631">
        <ele>597.1</ele>
        <time>2025-12-28T08:54:07.000Z</time>
      </trkpt>
      <trkpt lat="43.01907" lon="1.15635">
        <ele>596.4</ele>
        <time>2025-12-28T08:54:08.000Z</time>
      </trkpt>
      <trkpt lat="43.01909" lon="1.15639">
        <ele>596</ele>
        <time>2025-12-28T08:54:09.000Z</time>
      </trkpt>
      <trkpt lat="43.01912" lon="1.15643">
        <ele>596.6</ele>
        <time>2025-12-28T08:54:10.000Z</time>
      </trkpt>
      <trkpt lat="43.01913" lon="1.15646">
        <ele>597</ele>
        <time>2025-12-28T08:54:11.000Z</time>
      </trkpt>
      <trkpt lat="43.01916" lon="1.1565">
        <ele>597.8</ele>
        <time>2025-12-28T08:54:12.000Z</time>
      </trkpt>
      <trkpt lat="43.01917" lon="1.15654">
        <ele>597.4</ele>
        <time>2025-12-28T08:54:13.000Z</time>
      </trkpt>
      <trkpt lat="43.01919" lon="1.15658">
        <ele>596.5</ele>
        <time>2025-12-28T08:54:14.000Z</time>
      </trkpt>
      <trkpt lat="43.01921" lon="1.15663">
        <ele>596.8</ele>
        <time>2025-12-28T08:54:15.000Z</time>
      </trkpt>
      <trkpt lat="43.01922" lon="1.15668">
        <ele>596.3</ele>
        <time>2025-12-28T08:54:16.000Z</time>
      </trkpt>
      <trkpt lat="43.01922" lon="1.15672">
        <ele>596.8</ele>
        <time>2025-12-28T08:54:17.000Z</time>
      </trkpt>
      <trkpt lat="43.01923" lon="1.15676">
        <ele>597.8</ele>
        <time>2025-12-28T08:54:18.000Z</time>
      </trkpt>
      <trkpt lat="43.01924" lon="1.15681">
        <ele>599</ele>
        <time>2025-12-28T08:54:19.000Z</time>
      </trkpt>
      <trkpt lat="43.01925" lon="1.15686">
        <ele>600.7</ele>
        <time>2025-12-28T08:54:20.000Z</time>
      </trkpt>
      <trkpt lat="43.01926" lon="1.15691">
        <ele>601</ele>
        <time>2025-12-28T08:54:21.000Z</time>
      </trkpt>
      <trkpt lat="43.01927" lon="1.15696">
        <ele>600.2</ele>
        <time>2025-12-28T08:54:22.000Z</time>
      </trkpt>
      <trkpt lat="43.01929" lon="1.15701">
        <ele>599.2</ele>
        <time>2025-12-28T08:54:23.000Z</time>
      </trkpt>
      <trkpt lat="43.0193" lon="1.15705">
        <ele>599.6</ele>
        <time>2025-12-28T08:54:24.000Z</time>
      </trkpt>
      <trkpt lat="43.0193" lon="1.1571">
        <ele>599</ele>
        <time>2025-12-28T08:54:25.000Z</time>
      </trkpt>
      <trkpt lat="43.01928" lon="1.15714">
        <ele>599.2</ele>
        <time>2025-12-28T08:54:26.000Z</time>
      </trkpt>
      <trkpt lat="43.01926" lon="1.15716">
        <ele>600.5</ele>
        <time>2025-12-28T08:54:27.000Z</time>
      </trkpt>
      <trkpt lat="43.01923" lon="1.15719">
        <ele>601.7</ele>
        <time>2025-12-28T08:54:28.000Z</time>
      </trkpt>
      <trkpt lat="43.0192" lon="1.15722">
        <ele>601.8</ele>
        <time>2025-12-28T08:54:29.000Z</time>
      </trkpt>
      <trkpt lat="43.01918" lon="1.15725">
        <ele>602.7</ele>
        <time>2025-12-28T08:54:30.000Z</time>
      </trkpt>
      <trkpt lat="43.01915" lon="1.15728">
        <ele>604.9</ele>
        <time>2025-12-28T08:54:31.000Z</time>
      </trkpt>
      <trkpt lat="43.01913" lon="1.15732">
        <ele>605.7</ele>
        <time>2025-12-28T08:54:32.000Z</time>
      </trkpt>
      <trkpt lat="43.01909" lon="1.15736">
        <ele>606.3</ele>
        <time>2025-12-28T08:54:33.000Z</time>
      </trkpt>
      <trkpt lat="43.01905" lon="1.1574">
        <ele>607</ele>
        <time>2025-12-28T08:54:34.000Z</time>
      </trkpt>
      <trkpt lat="43.01899" lon="1.15745">
        <ele>606.7</ele>
        <time>2025-12-28T08:54:35.000Z</time>
      </trkpt>
      <trkpt lat="43.01894" lon="1.15749">
        <ele>607.6</ele>
        <time>2025-12-28T08:54:36.000Z</time>
      </trkpt>
      <trkpt lat="43.0189" lon="1.15751">
        <ele>607.6</ele>
        <time>2025-12-28T08:54:37.000Z</time>
      </trkpt>
      <trkpt lat="43.01885" lon="1.15754">
        <ele>606.5</ele>
        <time>2025-12-28T08:54:38.000Z</time>
      </trkpt>
      <trkpt lat="43.01884" lon="1.15756">
        <ele>608.3</ele>
        <time>2025-12-28T08:54:39.000Z</time>
      </trkpt>
      <trkpt lat="43.0188" lon="1.15756">
        <ele>607.2</ele>
        <time>2025-12-28T08:54:40.000Z</time>
      </trkpt>
      <trkpt lat="43.01876" lon="1.15757">
        <ele>607.1</ele>
        <time>2025-12-28T08:54:41.000Z</time>
      </trkpt>
      <trkpt lat="43.01874" lon="1.15758">
        <ele>608.1</ele>
        <time>2025-12-28T08:54:42.000Z</time>
      </trkpt>
      <trkpt lat="43.01871" lon="1.1576">
        <ele>607.9</ele>
        <time>2025-12-28T08:54:43.000Z</time>
      </trkpt>
      <trkpt lat="43.0187" lon="1.15761">
        <ele>607.6</ele>
        <time>2025-12-28T08:54:44.000Z</time>
      </trkpt>
      <trkpt lat="43.01867" lon="1.15762">
        <ele>607.1</ele>
        <time>2025-12-28T08:54:45.000Z</time>
      </trkpt>
      <trkpt lat="43.01865" lon="1.15763">
        <ele>607.8</ele>
        <time>2025-12-28T08:54:46.000Z</time>
      </trkpt>
      <trkpt lat="43.01862" lon="1.15763">
        <ele>608.3</ele>
        <time>2025-12-28T08:54:47.000Z</time>
      </trkpt>
      <trkpt lat="43.0186" lon="1.15763">
        <ele>608.2</ele>
        <time>2025-12-28T08:54:48.000Z</time>
      </trkpt>
      <trkpt lat="43.01859" lon="1.15764">
        <ele>608.8</ele>
        <time>2025-12-28T08:54:49.000Z</time>
      </trkpt>
      <trkpt lat="43.01858" lon="1.15764">
        <ele>607.8</ele>
        <time>2025-12-28T08:54:50.000Z</time>
      </trkpt>
      <trkpt lat="43.01856" lon="1.15764">
        <ele>607.5</ele>
        <time>2025-12-28T08:54:51.000Z</time>
      </trkpt>
      <trkpt lat="43.01854" lon="1.15764">
        <ele>609.6</ele>
        <time>2025-12-28T08:54:52.000Z</time>
      </trkpt>
      <trkpt lat="43.01853" lon="1.15765">
        <ele>608.3</ele>
        <time>2025-12-28T08:54:53.000Z</time>
      </trkpt>
      <trkpt lat="43.01853" lon="1.15766">
        <ele>607.8</ele>
        <time>2025-12-28T08:54:54.000Z</time>
      </trkpt>
      <trkpt lat="43.01853" lon="1.15768">
        <ele>608</ele>
        <time>2025-12-28T08:54:55.000Z</time>
      </trkpt>
      <trkpt lat="43.01854" lon="1.15766">
        <ele>609.1</ele>
        <time>2025-12-28T08:54:56.000Z</time>
      </trkpt>
      <trkpt lat="43.01856" lon="1.15765">
        <ele>607.4</ele>
        <time>2025-12-28T08:54:57.000Z</time>
      </trkpt>
      <trkpt lat="43.01857" lon="1.15764">
        <ele>608.3</ele>
        <time>2025-12-28T08:54:58.000Z</time>
      </trkpt>
      <trkpt lat="43.01858" lon="1.15763">
        <ele>608.4</ele>
        <time>2025-12-28T08:54:59.000Z</time>
      </trkpt>
      <trkpt lat="43.01859" lon="1.15763">
        <ele>609</ele>
        <time>2025-12-28T08:55:00.000Z</time>
      </trkpt>
      <trkpt lat="43.0186" lon="1.15765">
        <ele>608.7</ele>
        <time>2025-12-28T08:55:01.000Z</time>
      </trkpt>
      <trkpt lat="43.01862" lon="1.15765">
        <ele>611.2</ele>
        <time>2025-12-28T08:55:02.000Z</time>
      </trkpt>
      <trkpt lat="43.01863" lon="1.15766">
        <ele>612.4</ele>
        <time>2025-12-28T08:55:03.000Z</time>
      </trkpt>
      <trkpt lat="43.01866" lon="1.15766">
        <ele>613.1</ele>
        <time>2025-12-28T08:55:04.000Z</time>
      </trkpt>
      <trkpt lat="43.01868" lon="1.15767">
        <ele>611.5</ele>
        <time>2025-12-28T08:55:05.000Z</time>
      </trkpt>
      <trkpt lat="43.01871" lon="1.15768">
        <ele>611.4</ele>
        <time>2025-12-28T08:55:06.000Z</time>
      </trkpt>
      <trkpt lat="43.01873" lon="1.15768">
        <ele>612</ele>
        <time>2025-12-28T08:55:07.000Z</time>
      </trkpt>
      <trkpt lat="43.01876" lon="1.15769">
        <ele>611</ele>
        <time>2025-12-28T08:55:08.000Z</time>
      </trkpt>
      <trkpt lat="43.01879" lon="1.15769">
        <ele>611.1</ele>
        <time>2025-12-28T08:55:09.000Z</time>
      </trkpt>
      <trkpt lat="43.01882" lon="1.1577">
        <ele>611.8</ele>
        <time>2025-12-28T08:55:10.000Z</time>
      </trkpt>
      <trkpt lat="43.01885" lon="1.15771">
        <ele>610.2</ele>
        <time>2025-12-28T08:55:11.000Z</time>
      </trkpt>
      <trkpt lat="43.01887" lon="1.15772">
        <ele>610.1</ele>
        <time>2025-12-28T08:55:12.000Z</time>
      </trkpt>
      <trkpt lat="43.0189" lon="1.15772">
        <ele>611</ele>
        <time>2025-12-28T08:55:13.000Z</time>
      </trkpt>
      <trkpt lat="43.01893" lon="1.15772">
        <ele>610.2</ele>
        <time>2025-12-28T08:55:14.000Z</time>
      </trkpt>
      <trkpt lat="43.01895" lon="1.15772">
        <ele>611.5</ele>
        <time>2025-12-28T08:55:15.000Z</time>
      </trkpt>
      <trkpt lat="43.01898" lon="1.15773">
        <ele>612.8</ele>
        <time>2025-12-28T08:55:16.000Z</time>
      </trkpt>
      <trkpt lat="43.01901" lon="1.15774">
        <ele>614.8</ele>
        <time>2025-12-28T08:55:17.000Z</time>
      </trkpt>
      <trkpt lat="43.01904" lon="1.15774">
        <ele>615.1</ele>
        <time>2025-12-28T08:55:18.000Z</time>
      </trkpt>
      <trkpt lat="43.01907" lon="1.15775">
        <ele>615.6</ele>
        <time>2025-12-28T08:55:19.000Z</time>
      </trkpt>
      <trkpt lat="43.01909" lon="1.15776">
        <ele>617.6</ele>
        <time>2025-12-28T08:55:20.000Z</time>
      </trkpt>
      <trkpt lat="43.01912" lon="1.15776">
        <ele>617.8</ele>
        <time>2025-12-28T08:55:21.000Z</time>
      </trkpt>
      <trkpt lat="43.01914" lon="1.15778">
        <ele>617.2</ele>
        <time>2025-12-28T08:55:22.000Z</time>
      </trkpt>
      <trkpt lat="43.01916" lon="1.15779">
        <ele>617.4</ele>
        <time>2025-12-28T08:55:23.000Z</time>
      </trkpt>
      <trkpt lat="43.01919" lon="1.1578">
        <ele>619.2</ele>
        <time>2025-12-28T08:55:24.000Z</time>
      </trkpt>
      <trkpt lat="43.01921" lon="1.15781">
        <ele>620.2</ele>
        <time>2025-12-28T08:55:25.000Z</time>
      </trkpt>
      <trkpt lat="43.01924" lon="1.15782">
        <ele>621.6</ele>
        <time>2025-12-28T08:55:26.000Z</time>
      </trkpt>
      <trkpt lat="43.01927" lon="1.15783">
        <ele>622</ele>
        <time>2025-12-28T08:55:27.000Z</time>
      </trkpt>
      <trkpt lat="43.0193" lon="1.15783">
        <ele>622.1</ele>
        <time>2025-12-28T08:55:28.000Z</time>
      </trkpt>
      <trkpt lat="43.01934" lon="1.15785">
        <ele>622.3</ele>
        <time>2025-12-28T08:55:29.000Z</time>
      </trkpt>
      <trkpt lat="43.01939" lon="1.15788">
        <ele>620.4</ele>
        <time>2025-12-28T08:55:30.000Z</time>
      </trkpt>
      <trkpt lat="43.01944" lon="1.1579">
        <ele>621.3</ele>
        <time>2025-12-28T08:55:31.000Z</time>
      </trkpt>
      <trkpt lat="43.01947" lon="1.15791">
        <ele>620.9</ele>
        <time>2025-12-28T08:55:32.000Z</time>
      </trkpt>
      <trkpt lat="43.01949" lon="1.15793">
        <ele>622.9</ele>
        <time>2025-12-28T08:55:33.000Z</time>
      </trkpt>
      <trkpt lat="43.0195" lon="1.15794">
        <ele>622.4</ele>
        <time>2025-12-28T08:55:34.000Z</time>
      </trkpt>
      <trkpt lat="43.01953" lon="1.15796">
        <ele>622.6</ele>
        <time>2025-12-28T08:55:35.000Z</time>
      </trkpt>
      <trkpt lat="43.01955" lon="1.15797">
        <ele>623.3</ele>
        <time>2025-12-28T08:55:36.000Z</time>
      </trkpt>
      <trkpt lat="43.01957" lon="1.15799">
        <ele>622.9</ele>
        <time>2025-12-28T08:55:37.000Z</time>
      </trkpt>
      <trkpt lat="43.01959" lon="1.15801">
        <ele>623.5</ele>
        <time>2025-12-28T08:55:38.000Z</time>
      </trkpt>
      <trkpt lat="43.01962" lon="1.15803">
        <ele>624.1</ele>
        <time>2025-12-28T08:55:39.000Z</time>
      </trkpt>
      <trkpt lat="43.01965" lon="1.15804">
        <ele>623.1</ele>
        <time>2025-12-28T08:55:40.000Z</time>
      </trkpt>
      <trkpt lat="43.01966" lon="1.15804">
        <ele>623.2</ele>
        <time>2025-12-28T08:55:41.000Z</time>
      </trkpt>
      <trkpt lat="43.01968" lon="1.15805">
        <ele>623.2</ele>
        <time>2025-12-28T08:55:42.000Z</time>
      </trkpt>
      <trkpt lat="43.01971" lon="1.15807">
        <ele>624.4</ele>
        <time>2025-12-28T08:55:43.000Z</time>
      </trkpt>
      <trkpt lat="43.01972" lon="1.1581">
        <ele>625.2</ele>
        <time>2025-12-28T08:55:44.000Z</time>
      </trkpt>
      <trkpt lat="43.01974" lon="1.15811">
        <ele>625.3</ele>
        <time>2025-12-28T08:55:45.000Z</time>
      </trkpt>
      <trkpt lat="43.01976" lon="1.15812">
        <ele>625.5</ele>
        <time>2025-12-28T08:55:46.000Z</time>
      </trkpt>
      <trkpt lat="43.01978" lon="1.15813">
        <ele>624.9</ele>
        <time>2025-12-28T08:55:47.000Z</time>
      </trkpt>
      <trkpt lat="43.01981" lon="1.15815">
        <ele>625.3</ele>
        <time>2025-12-28T08:55:48.000Z</time>
      </trkpt>
      <trkpt lat="43.01983" lon="1.15817">
        <ele>625.3</ele>
        <time>2025-12-28T08:55:49.000Z</time>
      </trkpt>
      <trkpt lat="43.01986" lon="1.15819">
        <ele>625.3</ele>
        <time>2025-12-28T08:55:50.000Z</time>
      </trkpt>
      <trkpt lat="43.01988" lon="1.15821">
        <ele>625.9</ele>
        <time>2025-12-28T08:55:51.000Z</time>
      </trkpt>
      <trkpt lat="43.01991" lon="1.15823">
        <ele>627.3</ele>
        <time>2025-12-28T08:55:52.000Z</time>
      </trkpt>
      <trkpt lat="43.01994" lon="1.15825">
        <ele>627.5</ele>
        <time>2025-12-28T08:55:53.000Z</time>
      </trkpt>
      <trkpt lat="43.01997" lon="1.15827">
        <ele>628.5</ele>
        <time>2025-12-28T08:55:54.000Z</time>
      </trkpt>
      <trkpt lat="43.01999" lon="1.15829">
        <ele>629.9</ele>
        <time>2025-12-28T08:55:55.000Z</time>
      </trkpt>
      <trkpt lat="43.02001" lon="1.1583">
        <ele>630.8</ele>
        <time>2025-12-28T08:55:56.000Z</time>
      </trkpt>
      <trkpt lat="43.02004" lon="1.15832">
        <ele>630.5</ele>
        <time>2025-12-28T08:55:57.000Z</time>
      </trkpt>
      <trkpt lat="43.02005" lon="1.15832">
        <ele>630.6</ele>
        <time>2025-12-28T08:55:58.000Z</time>
      </trkpt>
      <trkpt lat="43.02008" lon="1.15833">
        <ele>631.5</ele>
        <time>2025-12-28T08:55:59.000Z</time>
      </trkpt>
      <trkpt lat="43.02011" lon="1.15835">
        <ele>631.8</ele>
        <time>2025-12-28T08:56:00.000Z</time>
      </trkpt>
      <trkpt lat="43.02014" lon="1.15835">
        <ele>631</ele>
        <time>2025-12-28T08:56:01.000Z</time>
      </trkpt>
      <trkpt lat="43.02017" lon="1.15835">
        <ele>631.1</ele>
        <time>2025-12-28T08:56:02.000Z</time>
      </trkpt>
      <trkpt lat="43.02019" lon="1.15834">
        <ele>631.1</ele>
        <time>2025-12-28T08:56:03.000Z</time>
      </trkpt>
      <trkpt lat="43.02022" lon="1.15834">
        <ele>631.2</ele>
        <time>2025-12-28T08:56:04.000Z</time>
      </trkpt>
      <trkpt lat="43.02026" lon="1.15835">
        <ele>630.9</ele>
        <time>2025-12-28T08:56:05.000Z</time>
      </trkpt>
      <trkpt lat="43.0203" lon="1.15837">
        <ele>629.6</ele>
        <time>2025-12-28T08:56:06.000Z</time>
      </trkpt>
      <trkpt lat="43.02036" lon="1.15842">
        <ele>628</ele>
        <time>2025-12-28T08:56:07.000Z</time>
      </trkpt>
      <trkpt lat="43.02039" lon="1.15847">
        <ele>628.8</ele>
        <time>2025-12-28T08:56:08.000Z</time>
      </trkpt>
      <trkpt lat="43.02041" lon="1.15852">
        <ele>627.8</ele>
        <time>2025-12-28T08:56:09.000Z</time>
      </trkpt>
      <trkpt lat="43.02043" lon="1.15856">
        <ele>628</ele>
        <time>2025-12-28T08:56:10.000Z</time>
      </trkpt>
      <trkpt lat="43.02046" lon="1.1586">
        <ele>627.7</ele>
        <time>2025-12-28T08:56:11.000Z</time>
      </trkpt>
      <trkpt lat="43.02049" lon="1.15864">
        <ele>627.4</ele>
        <time>2025-12-28T08:56:12.000Z</time>
      </trkpt>
      <trkpt lat="43.02052" lon="1.15868">
        <ele>627</ele>
        <time>2025-12-28T08:56:13.000Z</time>
      </trkpt>
      <trkpt lat="43.02056" lon="1.15877">
        <ele>625.7</ele>
        <time>2025-12-28T08:56:14.000Z</time>
      </trkpt>
      <trkpt lat="43.02059" lon="1.15882">
        <ele>625.5</ele>
        <time>2025-12-28T08:56:15.000Z</time>
      </trkpt>
      <trkpt lat="43.02061" lon="1.15885">
        <ele>626.1</ele>
        <time>2025-12-28T08:56:16.000Z</time>
      </trkpt>
      <trkpt lat="43.02064" lon="1.1589">
        <ele>625.1</ele>
        <time>2025-12-28T08:56:17.000Z</time>
      </trkpt>
      <trkpt lat="43.02068" lon="1.15894">
        <ele>624.2</ele>
        <time>2025-12-28T08:56:18.000Z</time>
      </trkpt>
      <trkpt lat="43.02071" lon="1.15901">
        <ele>621.8</ele>
        <time>2025-12-28T08:56:19.000Z</time>
      </trkpt>
      <trkpt lat="43.02074" lon="1.15905">
        <ele>621.6</ele>
        <time>2025-12-28T08:56:20.000Z</time>
      </trkpt>
      <trkpt lat="43.02076" lon="1.1591">
        <ele>621.2</ele>
        <time>2025-12-28T08:56:21.000Z</time>
      </trkpt>
      <trkpt lat="43.02081" lon="1.15919">
        <ele>620.3</ele>
        <time>2025-12-28T08:56:22.000Z</time>
      </trkpt>
      <trkpt lat="43.02084" lon="1.15923">
        <ele>618.6</ele>
        <time>2025-12-28T08:56:23.000Z</time>
      </trkpt>
      <trkpt lat="43.02087" lon="1.15927">
        <ele>618.3</ele>
        <time>2025-12-28T08:56:24.000Z</time>
      </trkpt>
      <trkpt lat="43.0209" lon="1.15933">
        <ele>616.7</ele>
        <time>2025-12-28T08:56:25.000Z</time>
      </trkpt>
      <trkpt lat="43.02094" lon="1.15939">
        <ele>614.7</ele>
        <time>2025-12-28T08:56:26.000Z</time>
      </trkpt>
      <trkpt lat="43.02098" lon="1.15946">
        <ele>615.2</ele>
        <time>2025-12-28T08:56:27.000Z</time>
      </trkpt>
      <trkpt lat="43.02103" lon="1.15954">
        <ele>616.4</ele>
        <time>2025-12-28T08:56:28.000Z</time>
      </trkpt>
      <trkpt lat="43.02107" lon="1.15961">
        <ele>616.9</ele>
        <time>2025-12-28T08:56:29.000Z</time>
      </trkpt>
      <trkpt lat="43.0211" lon="1.15965">
        <ele>617.5</ele>
        <time>2025-12-28T08:56:30.000Z</time>
      </trkpt>
      <trkpt lat="43.02112" lon="1.15967">
        <ele>617.1</ele>
        <time>2025-12-28T08:56:31.000Z</time>
      </trkpt>
      <trkpt lat="43.02115" lon="1.1597">
        <ele>617.4</ele>
        <time>2025-12-28T08:56:32.000Z</time>
      </trkpt>
      <trkpt lat="43.02118" lon="1.15972">
        <ele>617.5</ele>
        <time>2025-12-28T08:56:33.000Z</time>
      </trkpt>
      <trkpt lat="43.0212" lon="1.15974">
        <ele>617.6</ele>
        <time>2025-12-28T08:56:34.000Z</time>
      </trkpt>
      <trkpt lat="43.02122" lon="1.15976">
        <ele>615.8</ele>
        <time>2025-12-28T08:56:35.000Z</time>
      </trkpt>
      <trkpt lat="43.02124" lon="1.15979">
        <ele>614</ele>
        <time>2025-12-28T08:56:36.000Z</time>
      </trkpt>
      <trkpt lat="43.02126" lon="1.15981">
        <ele>612.7</ele>
        <time>2025-12-28T08:56:37.000Z</time>
      </trkpt>
      <trkpt lat="43.02128" lon="1.15981">
        <ele>611.3</ele>
        <time>2025-12-28T08:56:38.000Z</time>
      </trkpt>
      <trkpt lat="43.0213" lon="1.15981">
        <ele>610.8</ele>
        <time>2025-12-28T08:56:39.000Z</time>
      </trkpt>
      <trkpt lat="43.02132" lon="1.15982">
        <ele>611.1</ele>
        <time>2025-12-28T08:56:40.000Z</time>
      </trkpt>
      <trkpt lat="43.02135" lon="1.15981">
        <ele>608.3</ele>
        <time>2025-12-28T08:56:41.000Z</time>
      </trkpt>
      <trkpt lat="43.02137" lon="1.15981">
        <ele>607.5</ele>
        <time>2025-12-28T08:56:42.000Z</time>
      </trkpt>
      <trkpt lat="43.02139" lon="1.1598">
        <ele>607.2</ele>
        <time>2025-12-28T08:56:43.000Z</time>
      </trkpt>
      <trkpt lat="43.02142" lon="1.15979">
        <ele>607.2</ele>
        <time>2025-12-28T08:56:44.000Z</time>
      </trkpt>
      <trkpt lat="43.02145" lon="1.15977">
        <ele>606.9</ele>
        <time>2025-12-28T08:56:45.000Z</time>
      </trkpt>
      <trkpt lat="43.02148" lon="1.15976">
        <ele>606.5</ele>
        <time>2025-12-28T08:56:46.000Z</time>
      </trkpt>
      <trkpt lat="43.02151" lon="1.15974">
        <ele>606.2</ele>
        <time>2025-12-28T08:56:47.000Z</time>
      </trkpt>
      <trkpt lat="43.02155" lon="1.15972">
        <ele>605.8</ele>
        <time>2025-12-28T08:56:48.000Z</time>
      </trkpt>
      <trkpt lat="43.02158" lon="1.15967">
        <ele>603.8</ele>
        <time>2025-12-28T08:56:49.000Z</time>
      </trkpt>
      <trkpt lat="43.02162" lon="1.15962">
        <ele>602.3</ele>
        <time>2025-12-28T08:56:50.000Z</time>
      </trkpt>
      <trkpt lat="43.02165" lon="1.15958">
        <ele>601.1</ele>
        <time>2025-12-28T08:56:51.000Z</time>
      </trkpt>
      <trkpt lat="43.02169" lon="1.15956">
        <ele>600.2</ele>
        <time>2025-12-28T08:56:52.000Z</time>
      </trkpt>
      <trkpt lat="43.02173" lon="1.15955">
        <ele>600.7</ele>
        <time>2025-12-28T08:56:53.000Z</time>
      </trkpt>
      <trkpt lat="43.02176" lon="1.15954">
        <ele>599.2</ele>
        <time>2025-12-28T08:56:54.000Z</time>
      </trkpt>
      <trkpt lat="43.02178" lon="1.15945">
        <ele>599.2</ele>
        <time>2025-12-28T08:56:55.000Z</time>
      </trkpt>
      <trkpt lat="43.02175" lon="1.15937">
        <ele>597.9</ele>
        <time>2025-12-28T08:56:56.000Z</time>
      </trkpt>
      <trkpt lat="43.02172" lon="1.15931">
        <ele>596.7</ele>
        <time>2025-12-28T08:56:57.000Z</time>
      </trkpt>
      <trkpt lat="43.02173" lon="1.1593">
        <ele>592.9</ele>
        <time>2025-12-28T08:56:58.000Z</time>
      </trkpt>
      <trkpt lat="43.02175" lon="1.15928">
        <ele>591.3</ele>
        <time>2025-12-28T08:56:59.000Z</time>
      </trkpt>
      <trkpt lat="43.02178" lon="1.15927">
        <ele>589.3</ele>
        <time>2025-12-28T08:57:00.000Z</time>
      </trkpt>
      <trkpt lat="43.02179" lon="1.15926">
        <ele>588.6</ele>
        <time>2025-12-28T08:57:01.000Z</time>
      </trkpt>
      <trkpt lat="43.02182" lon="1.15925">
        <ele>586.3</ele>
        <time>2025-12-28T08:57:02.000Z</time>
      </trkpt>
      <trkpt lat="43.02182" lon="1.15923">
        <ele>585.1</ele>
        <time>2025-12-28T08:57:03.000Z</time>
      </trkpt>
      <trkpt lat="43.02183" lon="1.15922">
        <ele>583.6</ele>
        <time>2025-12-28T08:57:04.000Z</time>
      </trkpt>
      <trkpt lat="43.02183" lon="1.15921">
        <ele>583.3</ele>
        <time>2025-12-28T08:57:05.000Z</time>
      </trkpt>
      <trkpt lat="43.02186" lon="1.15921">
        <ele>582.6</ele>
        <time>2025-12-28T08:57:06.000Z</time>
      </trkpt>
      <trkpt lat="43.02187" lon="1.15919">
        <ele>581.1</ele>
        <time>2025-12-28T08:57:07.000Z</time>
      </trkpt>
      <trkpt lat="43.02189" lon="1.15917">
        <ele>579.5</ele>
        <time>2025-12-28T08:57:08.000Z</time>
      </trkpt>
      <trkpt lat="43.02192" lon="1.15916">
        <ele>578.2</ele>
        <time>2025-12-28T08:57:09.000Z</time>
      </trkpt>
      <trkpt lat="43.02193" lon="1.15913">
        <ele>577.1</ele>
        <time>2025-12-28T08:57:10.000Z</time>
      </trkpt>
      <trkpt lat="43.02195" lon="1.15912">
        <ele>575.9</ele>
        <time>2025-12-28T08:57:11.000Z</time>
      </trkpt>
      <trkpt lat="43.02197" lon="1.1591">
        <ele>573.2</ele>
        <time>2025-12-28T08:57:12.000Z</time>
      </trkpt>
      <trkpt lat="43.02199" lon="1.15908">
        <ele>570.4</ele>
        <time>2025-12-28T08:57:13.000Z</time>
      </trkpt>
      <trkpt lat="43.02201" lon="1.15906">
        <ele>566.8</ele>
        <time>2025-12-28T08:57:14.000Z</time>
      </trkpt>
      <trkpt lat="43.02205" lon="1.15904">
        <ele>566.9</ele>
        <time>2025-12-28T08:57:15.000Z</time>
      </trkpt>
      <trkpt lat="43.02211" lon="1.15902">
        <ele>565.8</ele>
        <time>2025-12-28T08:57:16.000Z</time>
      </trkpt>
      <trkpt lat="43.02216" lon="1.159">
        <ele>563.4</ele>
        <time>2025-12-28T08:57:17.000Z</time>
      </trkpt>
      <trkpt lat="43.02221" lon="1.15899">
        <ele>561.6</ele>
        <time>2025-12-28T08:57:18.000Z</time>
      </trkpt>
      <trkpt lat="43.02225" lon="1.15897">
        <ele>559.3</ele>
        <time>2025-12-28T08:57:19.000Z</time>
      </trkpt>
      <trkpt lat="43.02229" lon="1.15896">
        <ele>558.8</ele>
        <time>2025-12-28T08:57:20.000Z</time>
      </trkpt>
      <trkpt lat="43.02232" lon="1.15893">
        <ele>556.7</ele>
        <time>2025-12-28T08:57:21.000Z</time>
      </trkpt>
      <trkpt lat="43.02291" lon="1.15896">
        <ele>586.9</ele>
        <time>2025-12-28T08:57:22.000Z</time>
      </trkpt>
      <trkpt lat="43.02296" lon="1.15895">
        <ele>586.3</ele>
        <time>2025-12-28T08:57:23.000Z</time>
      </trkpt>
      <trkpt lat="43.02302" lon="1.15893">
        <ele>585.4</ele>
        <time>2025-12-28T08:57:24.000Z</time>
      </trkpt>
      <trkpt lat="43.02308" lon="1.15892">
        <ele>583</ele>
        <time>2025-12-28T08:57:25.000Z</time>
      </trkpt>
      <trkpt lat="43.02314" lon="1.15891">
        <ele>582.5</ele>
        <time>2025-12-28T08:57:26.000Z</time>
      </trkpt>
      <trkpt lat="43.0232" lon="1.15889">
        <ele>579.6</ele>
        <time>2025-12-28T08:57:27.000Z</time>
      </trkpt>
      <trkpt lat="43.02327" lon="1.15888">
        <ele>578.8</ele>
        <time>2025-12-28T08:57:28.000Z</time>
      </trkpt>
      <trkpt lat="43.02332" lon="1.15886">
        <ele>578.6</ele>
        <time>2025-12-28T08:57:29.000Z</time>
      </trkpt>
      <trkpt lat="43.02336" lon="1.15886">
        <ele>578.6</ele>
        <time>2025-12-28T08:57:30.000Z</time>
      </trkpt>
      <trkpt lat="43.02343" lon="1.15884">
        <ele>577.8</ele>
        <time>2025-12-28T08:57:31.000Z</time>
      </trkpt>
      <trkpt lat="43.02349" lon="1.15882">
        <ele>576.3</ele>
        <time>2025-12-28T08:57:32.000Z</time>
      </trkpt>
      <trkpt lat="43.02354" lon="1.1588">
        <ele>576.4</ele>
        <time>2025-12-28T08:57:33.000Z</time>
      </trkpt>
      <trkpt lat="43.0236" lon="1.15878">
        <ele>576.5</ele>
        <time>2025-12-28T08:57:34.000Z</time>
      </trkpt>
      <trkpt lat="43.02366" lon="1.15877">
        <ele>575.2</ele>
        <time>2025-12-28T08:57:35.000Z</time>
      </trkpt>
      <trkpt lat="43.02373" lon="1.15876">
        <ele>574.2</ele>
        <time>2025-12-28T08:57:36.000Z</time>
      </trkpt>
      <trkpt lat="43.02378" lon="1.15874">
        <ele>573.9</ele>
        <time>2025-12-28T08:57:37.000Z</time>
      </trkpt>
      <trkpt lat="43.02382" lon="1.15872">
        <ele>572.6</ele>
        <time>2025-12-28T08:57:38.000Z</time>
      </trkpt>
      <trkpt lat="43.02387" lon="1.15871">
        <ele>571.8</ele>
        <time>2025-12-28T08:57:39.000Z</time>
      </trkpt>
      <trkpt lat="43.02392" lon="1.15868">
        <ele>571.6</ele>
        <time>2025-12-28T08:57:40.000Z</time>
      </trkpt>
      <trkpt lat="43.02398" lon="1.15868">
        <ele>570.9</ele>
        <time>2025-12-28T08:57:41.000Z</time>
      </trkpt>
      <trkpt lat="43.02404" lon="1.15865">
        <ele>570.9</ele>
        <time>2025-12-28T08:57:42.000Z</time>
      </trkpt>
      <trkpt lat="43.0241" lon="1.15862">
        <ele>567.1</ele>
        <time>2025-12-28T08:57:43.000Z</time>
      </trkpt>
      <trkpt lat="43.02416" lon="1.1586">
        <ele>566.2</ele>
        <time>2025-12-28T08:57:44.000Z</time>
      </trkpt>
      <trkpt lat="43.02424" lon="1.15858">
        <ele>565.2</ele>
        <time>2025-12-28T08:57:45.000Z</time>
      </trkpt>
      <trkpt lat="43.02429" lon="1.15856">
        <ele>565.2</ele>
        <time>2025-12-28T08:57:46.000Z</time>
      </trkpt>
      <trkpt lat="43.02434" lon="1.15854">
        <ele>564.9</ele>
        <time>2025-12-28T08:57:47.000Z</time>
      </trkpt>
      <trkpt lat="43.02438" lon="1.15852">
        <ele>564.7</ele>
        <time>2025-12-28T08:57:48.000Z</time>
      </trkpt>
      <trkpt lat="43.02444" lon="1.15847">
        <ele>563.5</ele>
        <time>2025-12-28T08:57:49.000Z</time>
      </trkpt>
      <trkpt lat="43.02447" lon="1.15843">
        <ele>562.5</ele>
        <time>2025-12-28T08:57:50.000Z</time>
      </trkpt>
      <trkpt lat="43.0245" lon="1.1584">
        <ele>564.2</ele>
        <time>2025-12-28T08:57:51.000Z</time>
      </trkpt>
      <trkpt lat="43.02454" lon="1.15836">
        <ele>562.3</ele>
        <time>2025-12-28T08:57:52.000Z</time>
      </trkpt>
      <trkpt lat="43.02457" lon="1.15833">
        <ele>564.3</ele>
        <time>2025-12-28T08:57:53.000Z</time>
      </trkpt>
      <trkpt lat="43.02464" lon="1.15829">
        <ele>562.4</ele>
        <time>2025-12-28T08:57:54.000Z</time>
      </trkpt>
      <trkpt lat="43.02471" lon="1.15824">
        <ele>562</ele>
        <time>2025-12-28T08:57:55.000Z</time>
      </trkpt>
      <trkpt lat="43.02478" lon="1.1582">
        <ele>561.5</ele>
        <time>2025-12-28T08:57:56.000Z</time>
      </trkpt>
      <trkpt lat="43.02484" lon="1.15817">
        <ele>560.2</ele>
        <time>2025-12-28T08:57:57.000Z</time>
      </trkpt>
      <trkpt lat="43.0249" lon="1.15813">
        <ele>559.7</ele>
        <time>2025-12-28T08:57:58.000Z</time>
      </trkpt>
      <trkpt lat="43.02496" lon="1.1581">
        <ele>558.4</ele>
        <time>2025-12-28T08:57:59.000Z</time>
      </trkpt>
      <trkpt lat="43.02502" lon="1.15806">
        <ele>558.7</ele>
        <time>2025-12-28T08:58:00.000Z</time>
      </trkpt>
      <trkpt lat="43.02506" lon="1.15801">
        <ele>557</ele>
        <time>2025-12-28T08:58:01.000Z</time>
      </trkpt>
      <trkpt lat="43.02512" lon="1.15801">
        <ele>555.5</ele>
        <time>2025-12-28T08:58:02.000Z</time>
      </trkpt>
      <trkpt lat="43.02516" lon="1.15799">
        <ele>555.1</ele>
        <time>2025-12-28T08:58:03.000Z</time>
      </trkpt>
      <trkpt lat="43.02522" lon="1.15797">
        <ele>554.4</ele>
        <time>2025-12-28T08:58:04.000Z</time>
      </trkpt>
      <trkpt lat="43.0253" lon="1.15796">
        <ele>553.6</ele>
        <time>2025-12-28T08:58:05.000Z</time>
      </trkpt>
      <trkpt lat="43.02537" lon="1.15794">
        <ele>552.8</ele>
        <time>2025-12-28T08:58:06.000Z</time>
      </trkpt>
      <trkpt lat="43.02541" lon="1.15794">
        <ele>553.5</ele>
        <time>2025-12-28T08:58:07.000Z</time>
      </trkpt>
      <trkpt lat="43.02545" lon="1.1579">
        <ele>551.9</ele>
        <time>2025-12-28T08:58:08.000Z</time>
      </trkpt>
      <trkpt lat="43.02551" lon="1.15788">
        <ele>550.9</ele>
        <time>2025-12-28T08:58:09.000Z</time>
      </trkpt>
      <trkpt lat="43.02557" lon="1.1579">
        <ele>549.9</ele>
        <time>2025-12-28T08:58:10.000Z</time>
      </trkpt>
      <trkpt lat="43.0256" lon="1.15788">
        <ele>549.7</ele>
        <time>2025-12-28T08:58:11.000Z</time>
      </trkpt>
      <trkpt lat="43.02567" lon="1.15786">
        <ele>546.1</ele>
        <time>2025-12-28T08:58:12.000Z</time>
      </trkpt>
      <trkpt lat="43.0257" lon="1.15783">
        <ele>546.1</ele>
        <time>2025-12-28T08:58:13.000Z</time>
      </trkpt>
      <trkpt lat="43.02576" lon="1.15783">
        <ele>544.9</ele>
        <time>2025-12-28T08:58:14.000Z</time>
      </trkpt>
      <trkpt lat="43.02583" lon="1.15783">
        <ele>544.3</ele>
        <time>2025-12-28T08:58:15.000Z</time>
      </trkpt>
      <trkpt lat="43.02589" lon="1.15782">
        <ele>544.1</ele>
        <time>2025-12-28T08:58:16.000Z</time>
      </trkpt>
      <trkpt lat="43.02595" lon="1.1578">
        <ele>543.1</ele>
        <time>2025-12-28T08:58:17.000Z</time>
      </trkpt>
      <trkpt lat="43.02601" lon="1.15778">
        <ele>544.4</ele>
        <time>2025-12-28T08:58:18.000Z</time>
      </trkpt>
      <trkpt lat="43.02608" lon="1.15779">
        <ele>544.1</ele>
        <time>2025-12-28T08:58:19.000Z</time>
      </trkpt>
      <trkpt lat="43.02615" lon="1.15777">
        <ele>542.5</ele>
        <time>2025-12-28T08:58:20.000Z</time>
      </trkpt>
      <trkpt lat="43.02622" lon="1.15775">
        <ele>542.9</ele>
        <time>2025-12-28T08:58:21.000Z</time>
      </trkpt>
      <trkpt lat="43.02628" lon="1.15775">
        <ele>542.9</ele>
        <time>2025-12-28T08:58:22.000Z</time>
      </trkpt>
      <trkpt lat="43.02635" lon="1.15776">
        <ele>542.2</ele>
        <time>2025-12-28T08:58:23.000Z</time>
      </trkpt>
      <trkpt lat="43.0264" lon="1.1578">
        <ele>541.6</ele>
        <time>2025-12-28T08:58:24.000Z</time>
      </trkpt>
      <trkpt lat="43.02645" lon="1.15783">
        <ele>540.1</ele>
        <time>2025-12-28T08:58:25.000Z</time>
      </trkpt>
      <trkpt lat="43.02651" lon="1.15789">
        <ele>538.7</ele>
        <time>2025-12-28T08:58:26.000Z</time>
      </trkpt>
      <trkpt lat="43.02656" lon="1.15794">
        <ele>537.3</ele>
        <time>2025-12-28T08:58:27.000Z</time>
      </trkpt>
      <trkpt lat="43.02662" lon="1.15799">
        <ele>536.3</ele>
        <time>2025-12-28T08:58:28.000Z</time>
      </trkpt>
      <trkpt lat="43.02667" lon="1.15804">
        <ele>536.3</ele>
        <time>2025-12-28T08:58:29.000Z</time>
      </trkpt>
      <trkpt lat="43.02673" lon="1.1581">
        <ele>535.7</ele>
        <time>2025-12-28T08:58:30.000Z</time>
      </trkpt>
      <trkpt lat="43.02678" lon="1.15814">
        <ele>535.9</ele>
        <time>2025-12-28T08:58:31.000Z</time>
      </trkpt>
      <trkpt lat="43.02683" lon="1.15818">
        <ele>535.4</ele>
        <time>2025-12-28T08:58:32.000Z</time>
      </trkpt>
      <trkpt lat="43.02688" lon="1.15822">
        <ele>535.4</ele>
        <time>2025-12-28T08:58:33.000Z</time>
      </trkpt>
      <trkpt lat="43.02692" lon="1.15825">
        <ele>535.2</ele>
        <time>2025-12-28T08:58:34.000Z</time>
      </trkpt>
      <trkpt lat="43.02697" lon="1.15829">
        <ele>534.7</ele>
        <time>2025-12-28T08:58:35.000Z</time>
      </trkpt>
      <trkpt lat="43.02701" lon="1.15833">
        <ele>534.9</ele>
        <time>2025-12-28T08:58:36.000Z</time>
      </trkpt>
      <trkpt lat="43.02704" lon="1.15836">
        <ele>535</ele>
        <time>2025-12-28T08:58:37.000Z</time>
      </trkpt>
      <trkpt lat="43.02708" lon="1.15839">
        <ele>535.2</ele>
        <time>2025-12-28T08:58:38.000Z</time>
      </trkpt>
      <trkpt lat="43.02712" lon="1.1584">
        <ele>535.1</ele>
        <time>2025-12-28T08:58:39.000Z</time>
      </trkpt>
      <trkpt lat="43.02717" lon="1.1584">
        <ele>535.1</ele>
        <time>2025-12-28T08:58:40.000Z</time>
      </trkpt>
      <trkpt lat="43.02721" lon="1.15842">
        <ele>535.2</ele>
        <time>2025-12-28T08:58:41.000Z</time>
      </trkpt>
      <trkpt lat="43.02725" lon="1.15844">
        <ele>535.4</ele>
        <time>2025-12-28T08:58:42.000Z</time>
      </trkpt>
      <trkpt lat="43.0273" lon="1.15846">
        <ele>535.8</ele>
        <time>2025-12-28T08:58:43.000Z</time>
      </trkpt>
      <trkpt lat="43.02734" lon="1.15846">
        <ele>536.5</ele>
        <time>2025-12-28T08:58:44.000Z</time>
      </trkpt>
      <trkpt lat="43.02738" lon="1.15844">
        <ele>536.7</ele>
        <time>2025-12-28T08:58:45.000Z</time>
      </trkpt>
      <trkpt lat="43.02742" lon="1.15841">
        <ele>537.4</ele>
        <time>2025-12-28T08:58:46.000Z</time>
      </trkpt>
      <trkpt lat="43.02745" lon="1.15838">
        <ele>537.4</ele>
        <time>2025-12-28T08:58:47.000Z</time>
      </trkpt>
      <trkpt lat="43.02747" lon="1.15836">
        <ele>537.4</ele>
        <time>2025-12-28T08:58:48.000Z</time>
      </trkpt>
      <trkpt lat="43.0275" lon="1.15833">
        <ele>537.4</ele>
        <time>2025-12-28T08:58:49.000Z</time>
      </trkpt>
      <trkpt lat="43.02753" lon="1.1583">
        <ele>537.3</ele>
        <time>2025-12-28T08:58:50.000Z</time>
      </trkpt>
      <trkpt lat="43.02754" lon="1.15829">
        <ele>537.8</ele>
        <time>2025-12-28T08:58:51.000Z</time>
      </trkpt>
      <trkpt lat="43.02756" lon="1.15828">
        <ele>538.1</ele>
        <time>2025-12-28T08:58:52.000Z</time>
      </trkpt>
      <trkpt lat="43.02757" lon="1.15827">
        <ele>538</ele>
        <time>2025-12-28T08:58:53.000Z</time>
      </trkpt>
      <trkpt lat="43.02758" lon="1.15826">
        <ele>538.1</ele>
        <time>2025-12-28T08:58:54.000Z</time>
      </trkpt>
      <trkpt lat="43.02759" lon="1.15824">
        <ele>538.2</ele>
        <time>2025-12-28T08:58:55.000Z</time>
      </trkpt>
      <trkpt lat="43.02761" lon="1.15822">
        <ele>538</ele>
        <time>2025-12-28T08:58:56.000Z</time>
      </trkpt>
      <trkpt lat="43.02762" lon="1.1582">
        <ele>538.1</ele>
        <time>2025-12-28T08:58:57.000Z</time>
      </trkpt>
      <trkpt lat="43.02764" lon="1.15818">
        <ele>537.9</ele>
        <time>2025-12-28T08:58:58.000Z</time>
      </trkpt>
      <trkpt lat="43.02766" lon="1.15815">
        <ele>537.9</ele>
        <time>2025-12-28T08:58:59.000Z</time>
      </trkpt>
      <trkpt lat="43.02768" lon="1.15813">
        <ele>537.7</ele>
        <time>2025-12-28T08:59:00.000Z</time>
      </trkpt>
      <trkpt lat="43.02771" lon="1.1581">
        <ele>537.8</ele>
        <time>2025-12-28T08:59:01.000Z</time>
      </trkpt>
      <trkpt lat="43.02774" lon="1.15807">
        <ele>537.4</ele>
        <time>2025-12-28T08:59:02.000Z</time>
      </trkpt>
      <trkpt lat="43.02776" lon="1.15804">
        <ele>537.1</ele>
        <time>2025-12-28T08:59:03.000Z</time>
      </trkpt>
      <trkpt lat="43.02779" lon="1.15801">
        <ele>537</ele>
        <time>2025-12-28T08:59:04.000Z</time>
      </trkpt>
      <trkpt lat="43.02782" lon="1.15798">
        <ele>536.6</ele>
        <time>2025-12-28T08:59:05.000Z</time>
      </trkpt>
      <trkpt lat="43.02784" lon="1.15795">
        <ele>536.7</ele>
        <time>2025-12-28T08:59:06.000Z</time>
      </trkpt>
      <trkpt lat="43.02788" lon="1.15793">
        <ele>536.8</ele>
        <time>2025-12-28T08:59:07.000Z</time>
      </trkpt>
      <trkpt lat="43.02791" lon="1.15791">
        <ele>536.6</ele>
        <time>2025-12-28T08:59:08.000Z</time>
      </trkpt>
      <trkpt lat="43.02794" lon="1.15788">
        <ele>536.4</ele>
        <time>2025-12-28T08:59:09.000Z</time>
      </trkpt>
      <trkpt lat="43.02797" lon="1.15786">
        <ele>536.3</ele>
        <time>2025-12-28T08:59:10.000Z</time>
      </trkpt>
      <trkpt lat="43.02801" lon="1.15783">
        <ele>536.1</ele>
        <time>2025-12-28T08:59:11.000Z</time>
      </trkpt>
      <trkpt lat="43.02804" lon="1.15781">
        <ele>536.1</ele>
        <time>2025-12-28T08:59:12.000Z</time>
      </trkpt>
      <trkpt lat="43.02807" lon="1.15779">
        <ele>536.1</ele>
        <time>2025-12-28T08:59:13.000Z</time>
      </trkpt>
      <trkpt lat="43.02811" lon="1.15777">
        <ele>536.1</ele>
        <time>2025-12-28T08:59:14.000Z</time>
      </trkpt>
      <trkpt lat="43.02814" lon="1.15774">
        <ele>535.9</ele>
        <time>2025-12-28T08:59:15.000Z</time>
      </trkpt>
      <trkpt lat="43.02817" lon="1.15771">
        <ele>535.9</ele>
        <time>2025-12-28T08:59:16.000Z</time>
      </trkpt>
      <trkpt lat="43.02819" lon="1.15769">
        <ele>536</ele>
        <time>2025-12-28T08:59:17.000Z</time>
      </trkpt>
      <trkpt lat="43.02821" lon="1.15768">
        <ele>536.3</ele>
        <time>2025-12-28T08:59:18.000Z</time>
      </trkpt>
      <trkpt lat="43.02823" lon="1.15766">
        <ele>536.5</ele>
        <time>2025-12-28T08:59:19.000Z</time>
      </trkpt>
      <trkpt lat="43.02826" lon="1.15765">
        <ele>536.6</ele>
        <time>2025-12-28T08:59:20.000Z</time>
      </trkpt>
      <trkpt lat="43.02828" lon="1.15763">
        <ele>536.9</ele>
        <time>2025-12-28T08:59:21.000Z</time>
      </trkpt>
      <trkpt lat="43.02831" lon="1.15762">
        <ele>536.8</ele>
        <time>2025-12-28T08:59:22.000Z</time>
      </trkpt>
      <trkpt lat="43.02834" lon="1.1576">
        <ele>536.2</ele>
        <time>2025-12-28T08:59:23.000Z</time>
      </trkpt>
      <trkpt lat="43.02836" lon="1.15757">
        <ele>536.3</ele>
        <time>2025-12-28T08:59:24.000Z</time>
      </trkpt>
      <trkpt lat="43.0284" lon="1.15753">
        <ele>536.5</ele>
        <time>2025-12-28T08:59:25.000Z</time>
      </trkpt>
      <trkpt lat="43.02843" lon="1.15749">
        <ele>536.7</ele>
        <time>2025-12-28T08:59:26.000Z</time>
      </trkpt>
      <trkpt lat="43.02847" lon="1.15745">
        <ele>537</ele>
        <time>2025-12-28T08:59:27.000Z</time>
      </trkpt>
      <trkpt lat="43.0285" lon="1.1574">
        <ele>537.2</ele>
        <time>2025-12-28T08:59:28.000Z</time>
      </trkpt>
      <trkpt lat="43.02853" lon="1.15735">
        <ele>537.7</ele>
        <time>2025-12-28T08:59:29.000Z</time>
      </trkpt>
      <trkpt lat="43.02856" lon="1.15729">
        <ele>538</ele>
        <time>2025-12-28T08:59:30.000Z</time>
      </trkpt>
      <trkpt lat="43.02859" lon="1.15725">
        <ele>538.8</ele>
        <time>2025-12-28T08:59:31.000Z</time>
      </trkpt>
      <trkpt lat="43.02863" lon="1.15721">
        <ele>539.1</ele>
        <time>2025-12-28T08:59:32.000Z</time>
      </trkpt>
      <trkpt lat="43.02866" lon="1.15718">
        <ele>539.5</ele>
        <time>2025-12-28T08:59:33.000Z</time>
      </trkpt>
      <trkpt lat="43.0287" lon="1.15715">
        <ele>540.2</ele>
        <time>2025-12-28T08:59:34.000Z</time>
      </trkpt>
      <trkpt lat="43.02875" lon="1.15714">
        <ele>540.5</ele>
        <time>2025-12-28T08:59:35.000Z</time>
      </trkpt>
      <trkpt lat="43.02879" lon="1.15714">
        <ele>540.1</ele>
        <time>2025-12-28T08:59:36.000Z</time>
      </trkpt>
      <trkpt lat="43.02882" lon="1.15715">
        <ele>540.7</ele>
        <time>2025-12-28T08:59:37.000Z</time>
      </trkpt>
      <trkpt lat="43.02886" lon="1.15717">
        <ele>540.6</ele>
        <time>2025-12-28T08:59:38.000Z</time>
      </trkpt>
      <trkpt lat="43.0289" lon="1.15719">
        <ele>541.6</ele>
        <time>2025-12-28T08:59:39.000Z</time>
      </trkpt>
      <trkpt lat="43.02893" lon="1.15722">
        <ele>542.5</ele>
        <time>2025-12-28T08:59:40.000Z</time>
      </trkpt>
      <trkpt lat="43.02897" lon="1.15724">
        <ele>543</ele>
        <time>2025-12-28T08:59:41.000Z</time>
      </trkpt>
      <trkpt lat="43.029" lon="1.15726">
        <ele>543.8</ele>
        <time>2025-12-28T08:59:42.000Z</time>
      </trkpt>
      <trkpt lat="43.02903" lon="1.15728">
        <ele>544.4</ele>
        <time>2025-12-28T08:59:43.000Z</time>
      </trkpt>
      <trkpt lat="43.02907" lon="1.15731">
        <ele>545.2</ele>
        <time>2025-12-28T08:59:44.000Z</time>
      </trkpt>
      <trkpt lat="43.0291" lon="1.15733">
        <ele>545.7</ele>
        <time>2025-12-28T08:59:45.000Z</time>
      </trkpt>
      <trkpt lat="43.02913" lon="1.15736">
        <ele>546.4</ele>
        <time>2025-12-28T08:59:46.000Z</time>
      </trkpt>
      <trkpt lat="43.02915" lon="1.15739">
        <ele>547.2</ele>
        <time>2025-12-28T08:59:47.000Z</time>
      </trkpt>
      <trkpt lat="43.02918" lon="1.15742">
        <ele>548.1</ele>
        <time>2025-12-28T08:59:48.000Z</time>
      </trkpt>
      <trkpt lat="43.02921" lon="1.15746">
        <ele>548.6</ele>
        <time>2025-12-28T08:59:49.000Z</time>
      </trkpt>
      <trkpt lat="43.02923" lon="1.1575">
        <ele>548.2</ele>
        <time>2025-12-28T08:59:50.000Z</time>
      </trkpt>
      <trkpt lat="43.02925" lon="1.15754">
        <ele>548.8</ele>
        <time>2025-12-28T08:59:51.000Z</time>
      </trkpt>
      <trkpt lat="43.02928" lon="1.15758">
        <ele>549.2</ele>
        <time>2025-12-28T08:59:52.000Z</time>
      </trkpt>
      <trkpt lat="43.0293" lon="1.15762">
        <ele>550.4</ele>
        <time>2025-12-28T08:59:53.000Z</time>
      </trkpt>
      <trkpt lat="43.02933" lon="1.15766">
        <ele>551.6</ele>
        <time>2025-12-28T08:59:54.000Z</time>
      </trkpt>
      <trkpt lat="43.02937" lon="1.1577">
        <ele>551.8</ele>
        <time>2025-12-28T08:59:55.000Z</time>
      </trkpt>
      <trkpt lat="43.0294" lon="1.15773">
        <ele>551.1</ele>
        <time>2025-12-28T08:59:56.000Z</time>
      </trkpt>
      <trkpt lat="43.02945" lon="1.15776">
        <ele>551.3</ele>
        <time>2025-12-28T08:59:57.000Z</time>
      </trkpt>
      <trkpt lat="43.02949" lon="1.15778">
        <ele>551.8</ele>
        <time>2025-12-28T08:59:58.000Z</time>
      </trkpt>
      <trkpt lat="43.02952" lon="1.15781">
        <ele>552.4</ele>
        <time>2025-12-28T08:59:59.000Z</time>
      </trkpt>
      <trkpt lat="43.02956" lon="1.15784">
        <ele>553.2</ele>
        <time>2025-12-28T09:00:00.000Z</time>
      </trkpt>
      <trkpt lat="43.02959" lon="1.15787">
        <ele>553.8</ele>
        <time>2025-12-28T09:00:01.000Z</time>
      </trkpt>
      <trkpt lat="43.02961" lon="1.1579">
        <ele>554.5</ele>
        <time>2025-12-28T09:00:02.000Z</time>
      </trkpt>
      <trkpt lat="43.02963" lon="1.15794">
        <ele>555.1</ele>
        <time>2025-12-28T09:00:03.000Z</time>
      </trkpt>
      <trkpt lat="43.02966" lon="1.15799">
        <ele>555.6</ele>
        <time>2025-12-28T09:00:04.000Z</time>
      </trkpt>
      <trkpt lat="43.02968" lon="1.15803">
        <ele>555.9</ele>
        <time>2025-12-28T09:00:05.000Z</time>
      </trkpt>
      <trkpt lat="43.02971" lon="1.15807">
        <ele>555.6</ele>
        <time>2025-12-28T09:00:06.000Z</time>
      </trkpt>
      <trkpt lat="43.02973" lon="1.15811">
        <ele>555.9</ele>
        <time>2025-12-28T09:00:07.000Z</time>
      </trkpt>
      <trkpt lat="43.02975" lon="1.15815">
        <ele>556.1</ele>
        <time>2025-12-28T09:00:08.000Z</time>
      </trkpt>
      <trkpt lat="43.02978" lon="1.1582">
        <ele>556.3</ele>
        <time>2025-12-28T09:00:09.000Z</time>
      </trkpt>
      <trkpt lat="43.02981" lon="1.15823">
        <ele>556.8</ele>
        <time>2025-12-28T09:00:10.000Z</time>
      </trkpt>
      <trkpt lat="43.02984" lon="1.15826">
        <ele>557.3</ele>
        <time>2025-12-28T09:00:11.000Z</time>
      </trkpt>
      <trkpt lat="43.02987" lon="1.15829">
        <ele>557.4</ele>
        <time>2025-12-28T09:00:12.000Z</time>
      </trkpt>
      <trkpt lat="43.02991" lon="1.15832">
        <ele>557.9</ele>
        <time>2025-12-28T09:00:13.000Z</time>
      </trkpt>
      <trkpt lat="43.02994" lon="1.15835">
        <ele>558.1</ele>
        <time>2025-12-28T09:00:14.000Z</time>
      </trkpt>
      <trkpt lat="43.02998" lon="1.15838">
        <ele>558.5</ele>
        <time>2025-12-28T09:00:15.000Z</time>
      </trkpt>
      <trkpt lat="43.03" lon="1.15841">
        <ele>559.3</ele>
        <time>2025-12-28T09:00:16.000Z</time>
      </trkpt>
      <trkpt lat="43.03003" lon="1.15844">
        <ele>560.1</ele>
        <time>2025-12-28T09:00:17.000Z</time>
      </trkpt>
      <trkpt lat="43.03006" lon="1.15846">
        <ele>560.9</ele>
        <time>2025-12-28T09:00:18.000Z</time>
      </trkpt>
      <trkpt lat="43.03009" lon="1.15848">
        <ele>561.7</ele>
        <time>2025-12-28T09:00:19.000Z</time>
      </trkpt>
      <trkpt lat="43.03013" lon="1.1585">
        <ele>562.5</ele>
        <time>2025-12-28T09:00:20.000Z</time>
      </trkpt>
      <trkpt lat="43.03016" lon="1.15853">
        <ele>563.4</ele>
        <time>2025-12-28T09:00:21.000Z</time>
      </trkpt>
      <trkpt lat="43.03019" lon="1.15855">
        <ele>563.6</ele>
        <time>2025-12-28T09:00:22.000Z</time>
      </trkpt>
      <trkpt lat="43.03022" lon="1.15857">
        <ele>563.3</ele>
        <time>2025-12-28T09:00:23.000Z</time>
      </trkpt>
      <trkpt lat="43.03025" lon="1.15861">
        <ele>563.7</ele>
        <time>2025-12-28T09:00:24.000Z</time>
      </trkpt>
      <trkpt lat="43.03026" lon="1.15865">
        <ele>564.2</ele>
        <time>2025-12-28T09:00:25.000Z</time>
      </trkpt>
      <trkpt lat="43.03027" lon="1.1587">
        <ele>564.5</ele>
        <time>2025-12-28T09:00:26.000Z</time>
      </trkpt>
      <trkpt lat="43.03028" lon="1.15874">
        <ele>565.5</ele>
        <time>2025-12-28T09:00:27.000Z</time>
      </trkpt>
      <trkpt lat="43.03028" lon="1.15878">
        <ele>566</ele>
        <time>2025-12-28T09:00:28.000Z</time>
      </trkpt>
      <trkpt lat="43.03029" lon="1.15882">
        <ele>566.2</ele>
        <time>2025-12-28T09:00:29.000Z</time>
      </trkpt>
      <trkpt lat="43.0303" lon="1.15887">
        <ele>565.8</ele>
        <time>2025-12-28T09:00:30.000Z</time>
      </trkpt>
      <trkpt lat="43.03031" lon="1.15892">
        <ele>566.3</ele>
        <time>2025-12-28T09:00:31.000Z</time>
      </trkpt>
      <trkpt lat="43.03033" lon="1.15896">
        <ele>565.8</ele>
        <time>2025-12-28T09:00:32.000Z</time>
      </trkpt>
      <trkpt lat="43.03034" lon="1.15901">
        <ele>566.1</ele>
        <time>2025-12-28T09:00:33.000Z</time>
      </trkpt>
      <trkpt lat="43.03036" lon="1.15906">
        <ele>566.7</ele>
        <time>2025-12-28T09:00:34.000Z</time>
      </trkpt>
      <trkpt lat="43.03037" lon="1.1591">
        <ele>566.9</ele>
        <time>2025-12-28T09:00:35.000Z</time>
      </trkpt>
      <trkpt lat="43.03039" lon="1.15914">
        <ele>567.3</ele>
        <time>2025-12-28T09:00:36.000Z</time>
      </trkpt>
      <trkpt lat="43.0304" lon="1.15918">
        <ele>567.8</ele>
        <time>2025-12-28T09:00:37.000Z</time>
      </trkpt>
      <trkpt lat="43.03042" lon="1.15922">
        <ele>567.5</ele>
        <time>2025-12-28T09:00:38.000Z</time>
      </trkpt>
      <trkpt lat="43.03044" lon="1.15926">
        <ele>567.9</ele>
        <time>2025-12-28T09:00:39.000Z</time>
      </trkpt>
      <trkpt lat="43.03046" lon="1.1593">
        <ele>568.1</ele>
        <time>2025-12-28T09:00:40.000Z</time>
      </trkpt>
      <trkpt lat="43.03049" lon="1.15933">
        <ele>568.9</ele>
        <time>2025-12-28T09:00:41.000Z</time>
      </trkpt>
      <trkpt lat="43.03052" lon="1.15936">
        <ele>569.1</ele>
        <time>2025-12-28T09:00:42.000Z</time>
      </trkpt>
      <trkpt lat="43.03054" lon="1.15939">
        <ele>569.8</ele>
        <time>2025-12-28T09:00:43.000Z</time>
      </trkpt>
      <trkpt lat="43.03057" lon="1.15942">
        <ele>569.9</ele>
        <time>2025-12-28T09:00:44.000Z</time>
      </trkpt>
      <trkpt lat="43.03058" lon="1.15947">
        <ele>571.7</ele>
        <time>2025-12-28T09:00:45.000Z</time>
      </trkpt>
      <trkpt lat="43.03058" lon="1.15952">
        <ele>571.1</ele>
        <time>2025-12-28T09:00:46.000Z</time>
      </trkpt>
      <trkpt lat="43.03059" lon="1.15957">
        <ele>571.4</ele>
        <time>2025-12-28T09:00:47.000Z</time>
      </trkpt>
      <trkpt lat="43.03061" lon="1.15962">
        <ele>571.7</ele>
        <time>2025-12-28T09:00:48.000Z</time>
      </trkpt>
      <trkpt lat="43.03062" lon="1.15966">
        <ele>571.5</ele>
        <time>2025-12-28T09:00:49.000Z</time>
      </trkpt>
      <trkpt lat="43.03065" lon="1.1597">
        <ele>572.2</ele>
        <time>2025-12-28T09:00:50.000Z</time>
      </trkpt>
      <trkpt lat="43.03067" lon="1.15973">
        <ele>572.5</ele>
        <time>2025-12-28T09:00:51.000Z</time>
      </trkpt>
      <trkpt lat="43.0307" lon="1.15975">
        <ele>573.4</ele>
        <time>2025-12-28T09:00:52.000Z</time>
      </trkpt>
      <trkpt lat="43.03073" lon="1.15977">
        <ele>572.9</ele>
        <time>2025-12-28T09:00:53.000Z</time>
      </trkpt>
      <trkpt lat="43.03075" lon="1.15979">
        <ele>573.1</ele>
        <time>2025-12-28T09:00:54.000Z</time>
      </trkpt>
      <trkpt lat="43.03078" lon="1.15982">
        <ele>572.6</ele>
        <time>2025-12-28T09:00:55.000Z</time>
      </trkpt>
      <trkpt lat="43.0308" lon="1.15986">
        <ele>573.5</ele>
        <time>2025-12-28T09:00:56.000Z</time>
      </trkpt>
      <trkpt lat="43.03082" lon="1.1599">
        <ele>573.6</ele>
        <time>2025-12-28T09:00:57.000Z</time>
      </trkpt>
      <trkpt lat="43.03084" lon="1.15994">
        <ele>574.2</ele>
        <time>2025-12-28T09:00:58.000Z</time>
      </trkpt>
      <trkpt lat="43.03086" lon="1.15999">
        <ele>573.4</ele>
        <time>2025-12-28T09:00:59.000Z</time>
      </trkpt>
      <trkpt lat="43.03088" lon="1.16003">
        <ele>573.4</ele>
        <time>2025-12-28T09:01:00.000Z</time>
      </trkpt>
      <trkpt lat="43.0309" lon="1.16008">
        <ele>573.6</ele>
        <time>2025-12-28T09:01:01.000Z</time>
      </trkpt>
      <trkpt lat="43.03092" lon="1.16013">
        <ele>573.5</ele>
        <time>2025-12-28T09:01:02.000Z</time>
      </trkpt>
      <trkpt lat="43.03094" lon="1.16018">
        <ele>573.6</ele>
        <time>2025-12-28T09:01:03.000Z</time>
      </trkpt>
      <trkpt lat="43.03096" lon="1.16024">
        <ele>573.7</ele>
        <time>2025-12-28T09:01:04.000Z</time>
      </trkpt>
      <trkpt lat="43.03098" lon="1.16029">
        <ele>573.6</ele>
        <time>2025-12-28T09:01:05.000Z</time>
      </trkpt>
      <trkpt lat="43.031" lon="1.16035">
        <ele>573.2</ele>
        <time>2025-12-28T09:01:06.000Z</time>
      </trkpt>
      <trkpt lat="43.03103" lon="1.1604">
        <ele>573.2</ele>
        <time>2025-12-28T09:01:07.000Z</time>
      </trkpt>
      <trkpt lat="43.03105" lon="1.16045">
        <ele>573.2</ele>
        <time>2025-12-28T09:01:08.000Z</time>
      </trkpt>
      <trkpt lat="43.03107" lon="1.1605">
        <ele>573.2</ele>
        <time>2025-12-28T09:01:09.000Z</time>
      </trkpt>
      <trkpt lat="43.0311" lon="1.16054">
        <ele>572.5</ele>
        <time>2025-12-28T09:01:10.000Z</time>
      </trkpt>
      <trkpt lat="43.03113" lon="1.16058">
        <ele>572.7</ele>
        <time>2025-12-28T09:01:11.000Z</time>
      </trkpt>
      <trkpt lat="43.03116" lon="1.16061">
        <ele>573.1</ele>
        <time>2025-12-28T09:01:12.000Z</time>
      </trkpt>
      <trkpt lat="43.03118" lon="1.16063">
        <ele>574.3</ele>
        <time>2025-12-28T09:01:13.000Z</time>
      </trkpt>
      <trkpt lat="43.03121" lon="1.16067">
        <ele>575.2</ele>
        <time>2025-12-28T09:01:14.000Z</time>
      </trkpt>
      <trkpt lat="43.03124" lon="1.1607">
        <ele>575.4</ele>
        <time>2025-12-28T09:01:15.000Z</time>
      </trkpt>
      <trkpt lat="43.03127" lon="1.16075">
        <ele>575.4</ele>
        <time>2025-12-28T09:01:16.000Z</time>
      </trkpt>
      <trkpt lat="43.0313" lon="1.16079">
        <ele>575.4</ele>
        <time>2025-12-28T09:01:17.000Z</time>
      </trkpt>
      <trkpt lat="43.03133" lon="1.16082">
        <ele>575</ele>
        <time>2025-12-28T09:01:18.000Z</time>
      </trkpt>
      <trkpt lat="43.03137" lon="1.16084">
        <ele>574.7</ele>
        <time>2025-12-28T09:01:19.000Z</time>
      </trkpt>
      <trkpt lat="43.03141" lon="1.16085">
        <ele>575</ele>
        <time>2025-12-28T09:01:20.000Z</time>
      </trkpt>
      <trkpt lat="43.03145" lon="1.16083">
        <ele>575.4</ele>
        <time>2025-12-28T09:01:21.000Z</time>
      </trkpt>
      <trkpt lat="43.03149" lon="1.1608">
        <ele>575.1</ele>
        <time>2025-12-28T09:01:22.000Z</time>
      </trkpt>
      <trkpt lat="43.03153" lon="1.16075">
        <ele>575.1</ele>
        <time>2025-12-28T09:01:23.000Z</time>
      </trkpt>
      <trkpt lat="43.03157" lon="1.16071">
        <ele>575.1</ele>
        <time>2025-12-28T09:01:24.000Z</time>
      </trkpt>
      <trkpt lat="43.0316" lon="1.16068">
        <ele>574.9</ele>
        <time>2025-12-28T09:01:25.000Z</time>
      </trkpt>
      <trkpt lat="43.03164" lon="1.16064">
        <ele>574.9</ele>
        <time>2025-12-28T09:01:26.000Z</time>
      </trkpt>
      <trkpt lat="43.03167" lon="1.1606">
        <ele>574.9</ele>
        <time>2025-12-28T09:01:27.000Z</time>
      </trkpt>
      <trkpt lat="43.03171" lon="1.16057">
        <ele>574.6</ele>
        <time>2025-12-28T09:01:28.000Z</time>
      </trkpt>
      <trkpt lat="43.03174" lon="1.16054">
        <ele>574.6</ele>
        <time>2025-12-28T09:01:29.000Z</time>
      </trkpt>
      <trkpt lat="43.03176" lon="1.16051">
        <ele>574.7</ele>
        <time>2025-12-28T09:01:30.000Z</time>
      </trkpt>
      <trkpt lat="43.03179" lon="1.16047">
        <ele>574.5</ele>
        <time>2025-12-28T09:01:31.000Z</time>
      </trkpt>
      <trkpt lat="43.03182" lon="1.16044">
        <ele>574.3</ele>
        <time>2025-12-28T09:01:32.000Z</time>
      </trkpt>
      <trkpt lat="43.03184" lon="1.16042">
        <ele>574.2</ele>
        <time>2025-12-28T09:01:33.000Z</time>
      </trkpt>
      <trkpt lat="43.03187" lon="1.16039">
        <ele>574.1</ele>
        <time>2025-12-28T09:01:34.000Z</time>
      </trkpt>
      <trkpt lat="43.0319" lon="1.16037">
        <ele>574.1</ele>
        <time>2025-12-28T09:01:35.000Z</time>
      </trkpt>
      <trkpt lat="43.03193" lon="1.16035">
        <ele>573.8</ele>
        <time>2025-12-28T09:01:36.000Z</time>
      </trkpt>
      <trkpt lat="43.03196" lon="1.16034">
        <ele>574</ele>
        <time>2025-12-28T09:01:37.000Z</time>
      </trkpt>
      <trkpt lat="43.032" lon="1.16032">
        <ele>574.5</ele>
        <time>2025-12-28T09:01:38.000Z</time>
      </trkpt>
      <trkpt lat="43.03203" lon="1.1603">
        <ele>575</ele>
        <time>2025-12-28T09:01:39.000Z</time>
      </trkpt>
      <trkpt lat="43.03206" lon="1.16027">
        <ele>575.4</ele>
        <time>2025-12-28T09:01:40.000Z</time>
      </trkpt>
      <trkpt lat="43.0321" lon="1.16024">
        <ele>574.5</ele>
        <time>2025-12-28T09:01:41.000Z</time>
      </trkpt>
      <trkpt lat="43.03213" lon="1.16022">
        <ele>574</ele>
        <time>2025-12-28T09:01:42.000Z</time>
      </trkpt>
      <trkpt lat="43.03217" lon="1.16022">
        <ele>574.6</ele>
        <time>2025-12-28T09:01:43.000Z</time>
      </trkpt>
      <trkpt lat="43.03221" lon="1.16023">
        <ele>574.9</ele>
        <time>2025-12-28T09:01:44.000Z</time>
      </trkpt>
      <trkpt lat="43.03223" lon="1.16025">
        <ele>576.1</ele>
        <time>2025-12-28T09:01:45.000Z</time>
      </trkpt>
      <trkpt lat="43.03226" lon="1.16028">
        <ele>576.2</ele>
        <time>2025-12-28T09:01:46.000Z</time>
      </trkpt>
      <trkpt lat="43.03228" lon="1.16031">
        <ele>577.5</ele>
        <time>2025-12-28T09:01:47.000Z</time>
      </trkpt>
      <trkpt lat="43.03231" lon="1.16033">
        <ele>579.7</ele>
        <time>2025-12-28T09:01:48.000Z</time>
      </trkpt>
      <trkpt lat="43.03233" lon="1.16035">
        <ele>579.5</ele>
        <time>2025-12-28T09:01:49.000Z</time>
      </trkpt>
      <trkpt lat="43.03236" lon="1.16037">
        <ele>581.4</ele>
        <time>2025-12-28T09:01:50.000Z</time>
      </trkpt>
      <trkpt lat="43.03239" lon="1.16041">
        <ele>581</ele>
        <time>2025-12-28T09:01:51.000Z</time>
      </trkpt>
      <trkpt lat="43.03243" lon="1.16045">
        <ele>581.4</ele>
        <time>2025-12-28T09:01:52.000Z</time>
      </trkpt>
      <trkpt lat="43.03246" lon="1.1605">
        <ele>581.9</ele>
        <time>2025-12-28T09:01:53.000Z</time>
      </trkpt>
      <trkpt lat="43.0325" lon="1.16055">
        <ele>581.4</ele>
        <time>2025-12-28T09:01:54.000Z</time>
      </trkpt>
      <trkpt lat="43.03253" lon="1.16059">
        <ele>582.8</ele>
        <time>2025-12-28T09:01:55.000Z</time>
      </trkpt>
      <trkpt lat="43.03255" lon="1.16064">
        <ele>583.1</ele>
        <time>2025-12-28T09:01:56.000Z</time>
      </trkpt>
      <trkpt lat="43.03257" lon="1.1607">
        <ele>583.4</ele>
        <time>2025-12-28T09:01:57.000Z</time>
      </trkpt>
      <trkpt lat="43.0326" lon="1.16075">
        <ele>583.3</ele>
        <time>2025-12-28T09:01:58.000Z</time>
      </trkpt>
      <trkpt lat="43.03264" lon="1.16078">
        <ele>582.4</ele>
        <time>2025-12-28T09:01:59.000Z</time>
      </trkpt>
      <trkpt lat="43.03268" lon="1.16079">
        <ele>580.7</ele>
        <time>2025-12-28T09:02:00.000Z</time>
      </trkpt>
      <trkpt lat="43.03272" lon="1.1608">
        <ele>581.4</ele>
        <time>2025-12-28T09:02:01.000Z</time>
      </trkpt>
      <trkpt lat="43.03276" lon="1.16082">
        <ele>582</ele>
        <time>2025-12-28T09:02:02.000Z</time>
      </trkpt>
      <trkpt lat="43.03278" lon="1.16083">
        <ele>583.5</ele>
        <time>2025-12-28T09:02:03.000Z</time>
      </trkpt>
      <trkpt lat="43.03281" lon="1.16085">
        <ele>584</ele>
        <time>2025-12-28T09:02:04.000Z</time>
      </trkpt>
      <trkpt lat="43.03285" lon="1.16088">
        <ele>584.4</ele>
        <time>2025-12-28T09:02:05.000Z</time>
      </trkpt>
      <trkpt lat="43.03289" lon="1.16091">
        <ele>583.9</ele>
        <time>2025-12-28T09:02:06.000Z</time>
      </trkpt>
      <trkpt lat="43.03292" lon="1.16094">
        <ele>584.6</ele>
        <time>2025-12-28T09:02:07.000Z</time>
      </trkpt>
      <trkpt lat="43.03294" lon="1.16098">
        <ele>585.4</ele>
        <time>2025-12-28T09:02:08.000Z</time>
      </trkpt>
      <trkpt lat="43.03297" lon="1.16101">
        <ele>586.9</ele>
        <time>2025-12-28T09:02:09.000Z</time>
      </trkpt>
      <trkpt lat="43.033" lon="1.16104">
        <ele>586.8</ele>
        <time>2025-12-28T09:02:10.000Z</time>
      </trkpt>
      <trkpt lat="43.03302" lon="1.16105">
        <ele>587.3</ele>
        <time>2025-12-28T09:02:11.000Z</time>
      </trkpt>
      <trkpt lat="43.03304" lon="1.16108">
        <ele>587.3</ele>
        <time>2025-12-28T09:02:12.000Z</time>
      </trkpt>
      <trkpt lat="43.03308" lon="1.16109">
        <ele>587.1</ele>
        <time>2025-12-28T09:02:13.000Z</time>
      </trkpt>
      <trkpt lat="43.03312" lon="1.1611">
        <ele>588.4</ele>
        <time>2025-12-28T09:02:14.000Z</time>
      </trkpt>
      <trkpt lat="43.03316" lon="1.1611">
        <ele>589.2</ele>
        <time>2025-12-28T09:02:15.000Z</time>
      </trkpt>
      <trkpt lat="43.03319" lon="1.16112">
        <ele>588.6</ele>
        <time>2025-12-28T09:02:16.000Z</time>
      </trkpt>
      <trkpt lat="43.03322" lon="1.16113">
        <ele>588.8</ele>
        <time>2025-12-28T09:02:17.000Z</time>
      </trkpt>
      <trkpt lat="43.03325" lon="1.16115">
        <ele>588</ele>
        <time>2025-12-28T09:02:18.000Z</time>
      </trkpt>
      <trkpt lat="43.03328" lon="1.16117">
        <ele>588.9</ele>
        <time>2025-12-28T09:02:19.000Z</time>
      </trkpt>
      <trkpt lat="43.0333" lon="1.16118">
        <ele>588.8</ele>
        <time>2025-12-28T09:02:20.000Z</time>
      </trkpt>
      <trkpt lat="43.03333" lon="1.16122">
        <ele>589.7</ele>
        <time>2025-12-28T09:02:21.000Z</time>
      </trkpt>
      <trkpt lat="43.03335" lon="1.16125">
        <ele>591.2</ele>
        <time>2025-12-28T09:02:22.000Z</time>
      </trkpt>
      <trkpt lat="43.03338" lon="1.1613">
        <ele>591.7</ele>
        <time>2025-12-28T09:02:23.000Z</time>
      </trkpt>
      <trkpt lat="43.03341" lon="1.16135">
        <ele>592.2</ele>
        <time>2025-12-28T09:02:24.000Z</time>
      </trkpt>
      <trkpt lat="43.03344" lon="1.1614">
        <ele>591.5</ele>
        <time>2025-12-28T09:02:25.000Z</time>
      </trkpt>
      <trkpt lat="43.03346" lon="1.16143">
        <ele>591.7</ele>
        <time>2025-12-28T09:02:26.000Z</time>
      </trkpt>
      <trkpt lat="43.03348" lon="1.16148">
        <ele>592.2</ele>
        <time>2025-12-28T09:02:27.000Z</time>
      </trkpt>
      <trkpt lat="43.03349" lon="1.16152">
        <ele>592.4</ele>
        <time>2025-12-28T09:02:28.000Z</time>
      </trkpt>
      <trkpt lat="43.0335" lon="1.16156">
        <ele>593</ele>
        <time>2025-12-28T09:02:29.000Z</time>
      </trkpt>
      <trkpt lat="43.03352" lon="1.16161">
        <ele>594.8</ele>
        <time>2025-12-28T09:02:30.000Z</time>
      </trkpt>
      <trkpt lat="43.03354" lon="1.16166">
        <ele>594.5</ele>
        <time>2025-12-28T09:02:31.000Z</time>
      </trkpt>
      <trkpt lat="43.03356" lon="1.16171">
        <ele>593.9</ele>
        <time>2025-12-28T09:02:32.000Z</time>
      </trkpt>
      <trkpt lat="43.03358" lon="1.16176">
        <ele>593.8</ele>
        <time>2025-12-28T09:02:33.000Z</time>
      </trkpt>
      <trkpt lat="43.0336" lon="1.1618">
        <ele>596.4</ele>
        <time>2025-12-28T09:02:34.000Z</time>
      </trkpt>
      <trkpt lat="43.03363" lon="1.16184">
        <ele>596.9</ele>
        <time>2025-12-28T09:02:35.000Z</time>
      </trkpt>
      <trkpt lat="43.03365" lon="1.16189">
        <ele>597.4</ele>
        <time>2025-12-28T09:02:36.000Z</time>
      </trkpt>
      <trkpt lat="43.03368" lon="1.16194">
        <ele>598.7</ele>
        <time>2025-12-28T09:02:37.000Z</time>
      </trkpt>
      <trkpt lat="43.0337" lon="1.16198">
        <ele>599.6</ele>
        <time>2025-12-28T09:02:38.000Z</time>
      </trkpt>
      <trkpt lat="43.03373" lon="1.16201">
        <ele>599.5</ele>
        <time>2025-12-28T09:02:39.000Z</time>
      </trkpt>
      <trkpt lat="43.03376" lon="1.16201">
        <ele>600.6</ele>
        <time>2025-12-28T09:02:40.000Z</time>
      </trkpt>
      <trkpt lat="43.03379" lon="1.162">
        <ele>601.1</ele>
        <time>2025-12-28T09:02:41.000Z</time>
      </trkpt>
      <trkpt lat="43.03383" lon="1.16198">
        <ele>601.8</ele>
        <time>2025-12-28T09:02:42.000Z</time>
      </trkpt>
      <trkpt lat="43.03387" lon="1.16197">
        <ele>602.5</ele>
        <time>2025-12-28T09:02:43.000Z</time>
      </trkpt>
      <trkpt lat="43.03391" lon="1.16197">
        <ele>601.3</ele>
        <time>2025-12-28T09:02:44.000Z</time>
      </trkpt>
      <trkpt lat="43.03395" lon="1.16198">
        <ele>600.9</ele>
        <time>2025-12-28T09:02:45.000Z</time>
      </trkpt>
      <trkpt lat="43.03402" lon="1.16199">
        <ele>599.7</ele>
        <time>2025-12-28T09:02:46.000Z</time>
      </trkpt>
      <trkpt lat="43.03408" lon="1.16201">
        <ele>597.8</ele>
        <time>2025-12-28T09:02:47.000Z</time>
      </trkpt>
      <trkpt lat="43.0341" lon="1.16201">
        <ele>599.7</ele>
        <time>2025-12-28T09:02:48.000Z</time>
      </trkpt>
      <trkpt lat="43.03413" lon="1.16203">
        <ele>599</ele>
        <time>2025-12-28T09:02:49.000Z</time>
      </trkpt>
      <trkpt lat="43.03416" lon="1.16206">
        <ele>600.7</ele>
        <time>2025-12-28T09:02:50.000Z</time>
      </trkpt>
      <trkpt lat="43.03419" lon="1.16209">
        <ele>601.5</ele>
        <time>2025-12-28T09:02:51.000Z</time>
      </trkpt>
      <trkpt lat="43.03421" lon="1.16211">
        <ele>602.5</ele>
        <time>2025-12-28T09:02:52.000Z</time>
      </trkpt>
      <trkpt lat="43.03424" lon="1.16213">
        <ele>602.6</ele>
        <time>2025-12-28T09:02:53.000Z</time>
      </trkpt>
      <trkpt lat="43.03427" lon="1.16215">
        <ele>602.7</ele>
        <time>2025-12-28T09:02:54.000Z</time>
      </trkpt>
      <trkpt lat="43.03431" lon="1.16217">
        <ele>602.3</ele>
        <time>2025-12-28T09:02:55.000Z</time>
      </trkpt>
      <trkpt lat="43.03434" lon="1.16219">
        <ele>603.5</ele>
        <time>2025-12-28T09:02:56.000Z</time>
      </trkpt>
      <trkpt lat="43.03437" lon="1.16222">
        <ele>602.2</ele>
        <time>2025-12-28T09:02:57.000Z</time>
      </trkpt>
      <trkpt lat="43.03441" lon="1.16225">
        <ele>602.6</ele>
        <time>2025-12-28T09:02:58.000Z</time>
      </trkpt>
      <trkpt lat="43.03444" lon="1.16229">
        <ele>602.7</ele>
        <time>2025-12-28T09:02:59.000Z</time>
      </trkpt>
      <trkpt lat="43.03447" lon="1.16231">
        <ele>603.4</ele>
        <time>2025-12-28T09:03:00.000Z</time>
      </trkpt>
      <trkpt lat="43.03451" lon="1.16234">
        <ele>603.9</ele>
        <time>2025-12-28T09:03:01.000Z</time>
      </trkpt>
      <trkpt lat="43.03456" lon="1.16237">
        <ele>604.2</ele>
        <time>2025-12-28T09:03:02.000Z</time>
      </trkpt>
      <trkpt lat="43.0346" lon="1.1624">
        <ele>603.8</ele>
        <time>2025-12-28T09:03:03.000Z</time>
      </trkpt>
      <trkpt lat="43.03463" lon="1.16243">
        <ele>603.3</ele>
        <time>2025-12-28T09:03:04.000Z</time>
      </trkpt>
      <trkpt lat="43.03467" lon="1.16246">
        <ele>602.3</ele>
        <time>2025-12-28T09:03:05.000Z</time>
      </trkpt>
      <trkpt lat="43.03471" lon="1.16249">
        <ele>602</ele>
        <time>2025-12-28T09:03:06.000Z</time>
      </trkpt>
      <trkpt lat="43.03474" lon="1.16251">
        <ele>601.9</ele>
        <time>2025-12-28T09:03:07.000Z</time>
      </trkpt>
      <trkpt lat="43.03477" lon="1.1625">
        <ele>601.5</ele>
        <time>2025-12-28T09:03:08.000Z</time>
      </trkpt>
      <trkpt lat="43.0348" lon="1.16249">
        <ele>600.6</ele>
        <time>2025-12-28T09:03:09.000Z</time>
      </trkpt>
      <trkpt lat="43.03483" lon="1.16246">
        <ele>601.1</ele>
        <time>2025-12-28T09:03:10.000Z</time>
      </trkpt>
      <trkpt lat="43.03485" lon="1.16245">
        <ele>598.6</ele>
        <time>2025-12-28T09:03:11.000Z</time>
      </trkpt>
      <trkpt lat="43.03488" lon="1.16247">
        <ele>597.6</ele>
        <time>2025-12-28T09:03:12.000Z</time>
      </trkpt>
      <trkpt lat="43.03491" lon="1.1625">
        <ele>597.7</ele>
        <time>2025-12-28T09:03:13.000Z</time>
      </trkpt>
      <trkpt lat="43.03493" lon="1.16251">
        <ele>597.7</ele>
        <time>2025-12-28T09:03:14.000Z</time>
      </trkpt>
      <trkpt lat="43.03494" lon="1.16252">
        <ele>598.9</ele>
        <time>2025-12-28T09:03:15.000Z</time>
      </trkpt>
      <trkpt lat="43.03496" lon="1.16253">
        <ele>599.6</ele>
        <time>2025-12-28T09:03:16.000Z</time>
      </trkpt>
      <trkpt lat="43.03498" lon="1.16255">
        <ele>600.1</ele>
        <time>2025-12-28T09:03:17.000Z</time>
      </trkpt>
      <trkpt lat="43.03501" lon="1.16258">
        <ele>601.3</ele>
        <time>2025-12-28T09:03:18.000Z</time>
      </trkpt>
      <trkpt lat="43.03504" lon="1.16261">
        <ele>600.6</ele>
        <time>2025-12-28T09:03:19.000Z</time>
      </trkpt>
      <trkpt lat="43.03506" lon="1.16264">
        <ele>601.1</ele>
        <time>2025-12-28T09:03:20.000Z</time>
      </trkpt>
      <trkpt lat="43.03508" lon="1.16268">
        <ele>600.5</ele>
        <time>2025-12-28T09:03:21.000Z</time>
      </trkpt>
      <trkpt lat="43.03511" lon="1.16272">
        <ele>599</ele>
        <time>2025-12-28T09:03:22.000Z</time>
      </trkpt>
      <trkpt lat="43.03515" lon="1.16281">
        <ele>598.3</ele>
        <time>2025-12-28T09:03:23.000Z</time>
      </trkpt>
      <trkpt lat="43.03518" lon="1.16289">
        <ele>597.3</ele>
        <time>2025-12-28T09:03:24.000Z</time>
      </trkpt>
      <trkpt lat="43.03521" lon="1.16296">
        <ele>596.6</ele>
        <time>2025-12-28T09:03:25.000Z</time>
      </trkpt>
      <trkpt lat="43.03526" lon="1.16305">
        <ele>595.8</ele>
        <time>2025-12-28T09:03:26.000Z</time>
      </trkpt>
      <trkpt lat="43.03528" lon="1.16314">
        <ele>593.7</ele>
        <time>2025-12-28T09:03:27.000Z</time>
      </trkpt>
      <trkpt lat="43.03531" lon="1.16323">
        <ele>593</ele>
        <time>2025-12-28T09:03:28.000Z</time>
      </trkpt>
      <trkpt lat="43.03532" lon="1.16333">
        <ele>593.8</ele>
        <time>2025-12-28T09:03:29.000Z</time>
      </trkpt>
      <trkpt lat="43.03535" lon="1.16339">
        <ele>593.6</ele>
        <time>2025-12-28T09:03:30.000Z</time>
      </trkpt>
      <trkpt lat="43.03537" lon="1.16346">
        <ele>593.4</ele>
        <time>2025-12-28T09:03:31.000Z</time>
      </trkpt>
      <trkpt lat="43.03541" lon="1.16354">
        <ele>593.2</ele>
        <time>2025-12-28T09:03:32.000Z</time>
      </trkpt>
      <trkpt lat="43.03544" lon="1.16358">
        <ele>591.7</ele>
        <time>2025-12-28T09:03:33.000Z</time>
      </trkpt>
      <trkpt lat="43.03546" lon="1.16364">
        <ele>592.4</ele>
        <time>2025-12-28T09:03:34.000Z</time>
      </trkpt>
      <trkpt lat="43.03549" lon="1.16371">
        <ele>593.1</ele>
        <time>2025-12-28T09:03:35.000Z</time>
      </trkpt>
      <trkpt lat="43.03552" lon="1.16376">
        <ele>592.1</ele>
        <time>2025-12-28T09:03:36.000Z</time>
      </trkpt>
      <trkpt lat="43.03557" lon="1.16381">
        <ele>592.6</ele>
        <time>2025-12-28T09:03:37.000Z</time>
      </trkpt>
      <trkpt lat="43.03562" lon="1.16385">
        <ele>592.1</ele>
        <time>2025-12-28T09:03:38.000Z</time>
      </trkpt>
      <trkpt lat="43.03568" lon="1.1639">
        <ele>591.9</ele>
        <time>2025-12-28T09:03:39.000Z</time>
      </trkpt>
      <trkpt lat="43.03574" lon="1.16397">
        <ele>590.6</ele>
        <time>2025-12-28T09:03:40.000Z</time>
      </trkpt>
      <trkpt lat="43.03583" lon="1.16402">
        <ele>590.5</ele>
        <time>2025-12-28T09:03:41.000Z</time>
      </trkpt>
      <trkpt lat="43.0359" lon="1.16407">
        <ele>590</ele>
        <time>2025-12-28T09:03:42.000Z</time>
      </trkpt>
      <trkpt lat="43.03595" lon="1.16412">
        <ele>590.5</ele>
        <time>2025-12-28T09:03:43.000Z</time>
      </trkpt>
      <trkpt lat="43.03598" lon="1.16415">
        <ele>590.1</ele>
        <time>2025-12-28T09:03:44.000Z</time>
      </trkpt>
      <trkpt lat="43.03602" lon="1.16418">
        <ele>590.5</ele>
        <time>2025-12-28T09:03:45.000Z</time>
      </trkpt>
      <trkpt lat="43.03608" lon="1.16422">
        <ele>590</ele>
        <time>2025-12-28T09:03:46.000Z</time>
      </trkpt>
      <trkpt lat="43.03609" lon="1.16422">
        <ele>590.9</ele>
        <time>2025-12-28T09:03:47.000Z</time>
      </trkpt>
      <trkpt lat="43.03613" lon="1.16424">
        <ele>591.5</ele>
        <time>2025-12-28T09:03:48.000Z</time>
      </trkpt>
      <trkpt lat="43.03616" lon="1.16426">
        <ele>591.3</ele>
        <time>2025-12-28T09:03:49.000Z</time>
      </trkpt>
      <trkpt lat="43.03619" lon="1.1643">
        <ele>592.3</ele>
        <time>2025-12-28T09:03:50.000Z</time>
      </trkpt>
      <trkpt lat="43.03625" lon="1.16434">
        <ele>591.2</ele>
        <time>2025-12-28T09:03:51.000Z</time>
      </trkpt>
      <trkpt lat="43.03629" lon="1.16437">
        <ele>592.3</ele>
        <time>2025-12-28T09:03:52.000Z</time>
      </trkpt>
      <trkpt lat="43.03636" lon="1.16436">
        <ele>592.2</ele>
        <time>2025-12-28T09:03:53.000Z</time>
      </trkpt>
      <trkpt lat="43.0364" lon="1.16432">
        <ele>590.5</ele>
        <time>2025-12-28T09:03:54.000Z</time>
      </trkpt>
      <trkpt lat="43.03641" lon="1.16426">
        <ele>592</ele>
        <time>2025-12-28T09:03:55.000Z</time>
      </trkpt>
      <trkpt lat="43.03643" lon="1.1642">
        <ele>591.5</ele>
        <time>2025-12-28T09:03:56.000Z</time>
      </trkpt>
      <trkpt lat="43.03645" lon="1.16416">
        <ele>592</ele>
        <time>2025-12-28T09:03:57.000Z</time>
      </trkpt>
      <trkpt lat="43.03648" lon="1.16411">
        <ele>592.3</ele>
        <time>2025-12-28T09:03:58.000Z</time>
      </trkpt>
      <trkpt lat="43.03651" lon="1.16406">
        <ele>593.2</ele>
        <time>2025-12-28T09:03:59.000Z</time>
      </trkpt>
      <trkpt lat="43.03654" lon="1.16401">
        <ele>592.5</ele>
        <time>2025-12-28T09:04:00.000Z</time>
      </trkpt>
      <trkpt lat="43.03657" lon="1.16397">
        <ele>592.4</ele>
        <time>2025-12-28T09:04:01.000Z</time>
      </trkpt>
      <trkpt lat="43.0366" lon="1.16392">
        <ele>592.6</ele>
        <time>2025-12-28T09:04:02.000Z</time>
      </trkpt>
      <trkpt lat="43.03663" lon="1.16388">
        <ele>593.3</ele>
        <time>2025-12-28T09:04:03.000Z</time>
      </trkpt>
      <trkpt lat="43.03666" lon="1.16384">
        <ele>594.1</ele>
        <time>2025-12-28T09:04:04.000Z</time>
      </trkpt>
      <trkpt lat="43.03669" lon="1.16379">
        <ele>594.5</ele>
        <time>2025-12-28T09:04:05.000Z</time>
      </trkpt>
      <trkpt lat="43.03671" lon="1.16374">
        <ele>594.9</ele>
        <time>2025-12-28T09:04:06.000Z</time>
      </trkpt>
      <trkpt lat="43.03674" lon="1.16369">
        <ele>595.2</ele>
        <time>2025-12-28T09:04:07.000Z</time>
      </trkpt>
      <trkpt lat="43.03677" lon="1.16365">
        <ele>595.6</ele>
        <time>2025-12-28T09:04:08.000Z</time>
      </trkpt>
      <trkpt lat="43.0368" lon="1.1636">
        <ele>595.1</ele>
        <time>2025-12-28T09:04:09.000Z</time>
      </trkpt>
      <trkpt lat="43.03683" lon="1.16356">
        <ele>594.8</ele>
        <time>2025-12-28T09:04:10.000Z</time>
      </trkpt>
      <trkpt lat="43.03685" lon="1.16352">
        <ele>595.1</ele>
        <time>2025-12-28T09:04:11.000Z</time>
      </trkpt>
      <trkpt lat="43.03688" lon="1.1635">
        <ele>595</ele>
        <time>2025-12-28T09:04:12.000Z</time>
      </trkpt>
      <trkpt lat="43.03691" lon="1.1635">
        <ele>595</ele>
        <time>2025-12-28T09:04:13.000Z</time>
      </trkpt>
      <trkpt lat="43.03694" lon="1.16352">
        <ele>594.8</ele>
        <time>2025-12-28T09:04:14.000Z</time>
      </trkpt>
      <trkpt lat="43.03698" lon="1.16356">
        <ele>594.8</ele>
        <time>2025-12-28T09:04:15.000Z</time>
      </trkpt>
      <trkpt lat="43.03702" lon="1.16359">
        <ele>595.1</ele>
        <time>2025-12-28T09:04:16.000Z</time>
      </trkpt>
      <trkpt lat="43.03706" lon="1.16364">
        <ele>595.7</ele>
        <time>2025-12-28T09:04:17.000Z</time>
      </trkpt>
      <trkpt lat="43.0371" lon="1.16368">
        <ele>595.9</ele>
        <time>2025-12-28T09:04:18.000Z</time>
      </trkpt>
      <trkpt lat="43.03715" lon="1.16372">
        <ele>596.3</ele>
        <time>2025-12-28T09:04:19.000Z</time>
      </trkpt>
      <trkpt lat="43.03718" lon="1.16375">
        <ele>596.2</ele>
        <time>2025-12-28T09:04:20.000Z</time>
      </trkpt>
      <trkpt lat="43.03722" lon="1.1638">
        <ele>597.1</ele>
        <time>2025-12-28T09:04:21.000Z</time>
      </trkpt>
      <trkpt lat="43.03726" lon="1.16382">
        <ele>597.3</ele>
        <time>2025-12-28T09:04:22.000Z</time>
      </trkpt>
      <trkpt lat="43.03729" lon="1.16385">
        <ele>598.2</ele>
        <time>2025-12-28T09:04:23.000Z</time>
      </trkpt>
      <trkpt lat="43.03733" lon="1.16389">
        <ele>598.8</ele>
        <time>2025-12-28T09:04:24.000Z</time>
      </trkpt>
      <trkpt lat="43.03735" lon="1.16392">
        <ele>599.4</ele>
        <time>2025-12-28T09:04:25.000Z</time>
      </trkpt>
      <trkpt lat="43.0374" lon="1.16395">
        <ele>599.8</ele>
        <time>2025-12-28T09:04:26.000Z</time>
      </trkpt>
      <trkpt lat="43.03742" lon="1.164">
        <ele>599.4</ele>
        <time>2025-12-28T09:04:27.000Z</time>
      </trkpt>
      <trkpt lat="43.03745" lon="1.16401">
        <ele>601.4</ele>
        <time>2025-12-28T09:04:28.000Z</time>
      </trkpt>
      <trkpt lat="43.03747" lon="1.16404">
        <ele>602.2</ele>
        <time>2025-12-28T09:04:29.000Z</time>
      </trkpt>
      <trkpt lat="43.0375" lon="1.16406">
        <ele>602.7</ele>
        <time>2025-12-28T09:04:30.000Z</time>
      </trkpt>
      <trkpt lat="43.03753" lon="1.16407">
        <ele>602.8</ele>
        <time>2025-12-28T09:04:31.000Z</time>
      </trkpt>
      <trkpt lat="43.03756" lon="1.16407">
        <ele>602.8</ele>
        <time>2025-12-28T09:04:32.000Z</time>
      </trkpt>
      <trkpt lat="43.0376" lon="1.16407">
        <ele>602.2</ele>
        <time>2025-12-28T09:04:33.000Z</time>
      </trkpt>
      <trkpt lat="43.03762" lon="1.16406">
        <ele>602.7</ele>
        <time>2025-12-28T09:04:34.000Z</time>
      </trkpt>
      <trkpt lat="43.03764" lon="1.16405">
        <ele>603.6</ele>
        <time>2025-12-28T09:04:35.000Z</time>
      </trkpt>
      <trkpt lat="43.03768" lon="1.16403">
        <ele>605</ele>
        <time>2025-12-28T09:04:36.000Z</time>
      </trkpt>
      <trkpt lat="43.03771" lon="1.16399">
        <ele>605.4</ele>
        <time>2025-12-28T09:04:37.000Z</time>
      </trkpt>
      <trkpt lat="43.03773" lon="1.16395">
        <ele>605.2</ele>
        <time>2025-12-28T09:04:38.000Z</time>
      </trkpt>
      <trkpt lat="43.03776" lon="1.1639">
        <ele>605.2</ele>
        <time>2025-12-28T09:04:39.000Z</time>
      </trkpt>
      <trkpt lat="43.03778" lon="1.16386">
        <ele>606.7</ele>
        <time>2025-12-28T09:04:40.000Z</time>
      </trkpt>
      <trkpt lat="43.0378" lon="1.16382">
        <ele>606.1</ele>
        <time>2025-12-28T09:04:41.000Z</time>
      </trkpt>
      <trkpt lat="43.03782" lon="1.16377">
        <ele>605.2</ele>
        <time>2025-12-28T09:04:42.000Z</time>
      </trkpt>
      <trkpt lat="43.03784" lon="1.16373">
        <ele>605.2</ele>
        <time>2025-12-28T09:04:43.000Z</time>
      </trkpt>
      <trkpt lat="43.03786" lon="1.16368">
        <ele>603.6</ele>
        <time>2025-12-28T09:04:44.000Z</time>
      </trkpt>
      <trkpt lat="43.03788" lon="1.16364">
        <ele>604.2</ele>
        <time>2025-12-28T09:04:45.000Z</time>
      </trkpt>
      <trkpt lat="43.03789" lon="1.1636">
        <ele>606.1</ele>
        <time>2025-12-28T09:04:46.000Z</time>
      </trkpt>
      <trkpt lat="43.03791" lon="1.16358">
        <ele>607.1</ele>
        <time>2025-12-28T09:04:47.000Z</time>
      </trkpt>
      <trkpt lat="43.03792" lon="1.16355">
        <ele>608</ele>
        <time>2025-12-28T09:04:48.000Z</time>
      </trkpt>
      <trkpt lat="43.03794" lon="1.16351">
        <ele>607.4</ele>
        <time>2025-12-28T09:04:49.000Z</time>
      </trkpt>
      <trkpt lat="43.03796" lon="1.16347">
        <ele>606.6</ele>
        <time>2025-12-28T09:04:50.000Z</time>
      </trkpt>
      <trkpt lat="43.03798" lon="1.16342">
        <ele>606.4</ele>
        <time>2025-12-28T09:04:51.000Z</time>
      </trkpt>
      <trkpt lat="43.038" lon="1.16337">
        <ele>606.2</ele>
        <time>2025-12-28T09:04:52.000Z</time>
      </trkpt>
      <trkpt lat="43.03802" lon="1.16333">
        <ele>605.8</ele>
        <time>2025-12-28T09:04:53.000Z</time>
      </trkpt>
      <trkpt lat="43.03804" lon="1.16329">
        <ele>605.2</ele>
        <time>2025-12-28T09:04:54.000Z</time>
      </trkpt>
      <trkpt lat="43.03806" lon="1.16326">
        <ele>606.6</ele>
        <time>2025-12-28T09:04:55.000Z</time>
      </trkpt>
      <trkpt lat="43.03808" lon="1.16323">
        <ele>605.2</ele>
        <time>2025-12-28T09:04:56.000Z</time>
      </trkpt>
      <trkpt lat="43.03811" lon="1.16319">
        <ele>605.7</ele>
        <time>2025-12-28T09:04:57.000Z</time>
      </trkpt>
      <trkpt lat="43.03814" lon="1.16316">
        <ele>605.6</ele>
        <time>2025-12-28T09:04:58.000Z</time>
      </trkpt>
      <trkpt lat="43.03817" lon="1.16312">
        <ele>605</ele>
        <time>2025-12-28T09:04:59.000Z</time>
      </trkpt>
      <trkpt lat="43.03819" lon="1.16309">
        <ele>604.6</ele>
        <time>2025-12-28T09:05:00.000Z</time>
      </trkpt>
      <trkpt lat="43.03822" lon="1.16306">
        <ele>604.5</ele>
        <time>2025-12-28T09:05:01.000Z</time>
      </trkpt>
      <trkpt lat="43.03825" lon="1.16303">
        <ele>605.2</ele>
        <time>2025-12-28T09:05:02.000Z</time>
      </trkpt>
      <trkpt lat="43.03828" lon="1.16302">
        <ele>604.2</ele>
        <time>2025-12-28T09:05:03.000Z</time>
      </trkpt>
      <trkpt lat="43.03832" lon="1.16303">
        <ele>604.3</ele>
        <time>2025-12-28T09:05:04.000Z</time>
      </trkpt>
      <trkpt lat="43.03835" lon="1.16304">
        <ele>604.2</ele>
        <time>2025-12-28T09:05:05.000Z</time>
      </trkpt>
      <trkpt lat="43.03839" lon="1.16306">
        <ele>605</ele>
        <time>2025-12-28T09:05:06.000Z</time>
      </trkpt>
      <trkpt lat="43.03842" lon="1.16308">
        <ele>605.2</ele>
        <time>2025-12-28T09:05:07.000Z</time>
      </trkpt>
      <trkpt lat="43.03845" lon="1.16308">
        <ele>605.3</ele>
        <time>2025-12-28T09:05:08.000Z</time>
      </trkpt>
      <trkpt lat="43.03848" lon="1.16309">
        <ele>605.2</ele>
        <time>2025-12-28T09:05:09.000Z</time>
      </trkpt>
      <trkpt lat="43.03851" lon="1.1631">
        <ele>605.5</ele>
        <time>2025-12-28T09:05:10.000Z</time>
      </trkpt>
      <trkpt lat="43.03855" lon="1.16312">
        <ele>605.5</ele>
        <time>2025-12-28T09:05:11.000Z</time>
      </trkpt>
      <trkpt lat="43.03858" lon="1.16313">
        <ele>604.9</ele>
        <time>2025-12-28T09:05:12.000Z</time>
      </trkpt>
      <trkpt lat="43.03862" lon="1.16313">
        <ele>603.9</ele>
        <time>2025-12-28T09:05:13.000Z</time>
      </trkpt>
      <trkpt lat="43.03865" lon="1.16315">
        <ele>604.2</ele>
        <time>2025-12-28T09:05:14.000Z</time>
      </trkpt>
      <trkpt lat="43.03868" lon="1.16316">
        <ele>604.1</ele>
        <time>2025-12-28T09:05:15.000Z</time>
      </trkpt>
      <trkpt lat="43.03871" lon="1.16317">
        <ele>604.5</ele>
        <time>2025-12-28T09:05:16.000Z</time>
      </trkpt>
      <trkpt lat="43.03874" lon="1.16317">
        <ele>604.6</ele>
        <time>2025-12-28T09:05:17.000Z</time>
      </trkpt>
      <trkpt lat="43.03878" lon="1.16317">
        <ele>604.7</ele>
        <time>2025-12-28T09:05:18.000Z</time>
      </trkpt>
      <trkpt lat="43.03881" lon="1.16318">
        <ele>604.6</ele>
        <time>2025-12-28T09:05:19.000Z</time>
      </trkpt>
      <trkpt lat="43.03884" lon="1.1632">
        <ele>605.1</ele>
        <time>2025-12-28T09:05:20.000Z</time>
      </trkpt>
      <trkpt lat="43.03886" lon="1.16323">
        <ele>604.8</ele>
        <time>2025-12-28T09:05:21.000Z</time>
      </trkpt>
      <trkpt lat="43.03888" lon="1.16327">
        <ele>605.1</ele>
        <time>2025-12-28T09:05:22.000Z</time>
      </trkpt>
      <trkpt lat="43.03889" lon="1.16332">
        <ele>604.6</ele>
        <time>2025-12-28T09:05:23.000Z</time>
      </trkpt>
      <trkpt lat="43.0389" lon="1.16336">
        <ele>604.5</ele>
        <time>2025-12-28T09:05:24.000Z</time>
      </trkpt>
      <trkpt lat="43.03891" lon="1.16341">
        <ele>604.7</ele>
        <time>2025-12-28T09:05:25.000Z</time>
      </trkpt>
      <trkpt lat="43.03891" lon="1.16345">
        <ele>605</ele>
        <time>2025-12-28T09:05:26.000Z</time>
      </trkpt>
      <trkpt lat="43.03892" lon="1.1635">
        <ele>604.6</ele>
        <time>2025-12-28T09:05:27.000Z</time>
      </trkpt>
      <trkpt lat="43.03893" lon="1.16355">
        <ele>604.7</ele>
        <time>2025-12-28T09:05:28.000Z</time>
      </trkpt>
      <trkpt lat="43.03893" lon="1.16359">
        <ele>604.3</ele>
        <time>2025-12-28T09:05:29.000Z</time>
      </trkpt>
      <trkpt lat="43.03894" lon="1.16364">
        <ele>604.4</ele>
        <time>2025-12-28T09:05:30.000Z</time>
      </trkpt>
      <trkpt lat="43.03895" lon="1.1637">
        <ele>604.3</ele>
        <time>2025-12-28T09:05:31.000Z</time>
      </trkpt>
      <trkpt lat="43.03896" lon="1.16375">
        <ele>604.5</ele>
        <time>2025-12-28T09:05:32.000Z</time>
      </trkpt>
      <trkpt lat="43.03896" lon="1.1638">
        <ele>604.5</ele>
        <time>2025-12-28T09:05:33.000Z</time>
      </trkpt>
      <trkpt lat="43.03897" lon="1.16385">
        <ele>604.3</ele>
        <time>2025-12-28T09:05:34.000Z</time>
      </trkpt>
      <trkpt lat="43.03897" lon="1.1639">
        <ele>604.4</ele>
        <time>2025-12-28T09:05:35.000Z</time>
      </trkpt>
      <trkpt lat="43.03897" lon="1.16395">
        <ele>604.2</ele>
        <time>2025-12-28T09:05:36.000Z</time>
      </trkpt>
      <trkpt lat="43.03897" lon="1.164">
        <ele>604.2</ele>
        <time>2025-12-28T09:05:37.000Z</time>
      </trkpt>
      <trkpt lat="43.03897" lon="1.16405">
        <ele>604.3</ele>
        <time>2025-12-28T09:05:38.000Z</time>
      </trkpt>
      <trkpt lat="43.03897" lon="1.1641">
        <ele>604</ele>
        <time>2025-12-28T09:05:39.000Z</time>
      </trkpt>
      <trkpt lat="43.03897" lon="1.16415">
        <ele>603.9</ele>
        <time>2025-12-28T09:05:40.000Z</time>
      </trkpt>
      <trkpt lat="43.03898" lon="1.16419">
        <ele>603.7</ele>
        <time>2025-12-28T09:05:41.000Z</time>
      </trkpt>
      <trkpt lat="43.03897" lon="1.16424">
        <ele>603.4</ele>
        <time>2025-12-28T09:05:42.000Z</time>
      </trkpt>
      <trkpt lat="43.03897" lon="1.16428">
        <ele>603.1</ele>
        <time>2025-12-28T09:05:43.000Z</time>
      </trkpt>
      <trkpt lat="43.03897" lon="1.16433">
        <ele>602.9</ele>
        <time>2025-12-28T09:05:44.000Z</time>
      </trkpt>
      <trkpt lat="43.03897" lon="1.16438">
        <ele>602.7</ele>
        <time>2025-12-28T09:05:45.000Z</time>
      </trkpt>
      <trkpt lat="43.03896" lon="1.16443">
        <ele>602.4</ele>
        <time>2025-12-28T09:05:46.000Z</time>
      </trkpt>
      <trkpt lat="43.03896" lon="1.16448">
        <ele>602.3</ele>
        <time>2025-12-28T09:05:47.000Z</time>
      </trkpt>
      <trkpt lat="43.03895" lon="1.16453">
        <ele>603.3</ele>
        <time>2025-12-28T09:05:48.000Z</time>
      </trkpt>
      <trkpt lat="43.03895" lon="1.16458">
        <ele>602.9</ele>
        <time>2025-12-28T09:05:49.000Z</time>
      </trkpt>
      <trkpt lat="43.03895" lon="1.16463">
        <ele>602.3</ele>
        <time>2025-12-28T09:05:50.000Z</time>
      </trkpt>
      <trkpt lat="43.03894" lon="1.16469">
        <ele>602.1</ele>
        <time>2025-12-28T09:05:51.000Z</time>
      </trkpt>
      <trkpt lat="43.03894" lon="1.16474">
        <ele>601.6</ele>
        <time>2025-12-28T09:05:52.000Z</time>
      </trkpt>
      <trkpt lat="43.03894" lon="1.16479">
        <ele>601.4</ele>
        <time>2025-12-28T09:05:53.000Z</time>
      </trkpt>
      <trkpt lat="43.03893" lon="1.16484">
        <ele>600.7</ele>
        <time>2025-12-28T09:05:54.000Z</time>
      </trkpt>
      <trkpt lat="43.03892" lon="1.1649">
        <ele>600.5</ele>
        <time>2025-12-28T09:05:55.000Z</time>
      </trkpt>
      <trkpt lat="43.03892" lon="1.16495">
        <ele>600.6</ele>
        <time>2025-12-28T09:05:56.000Z</time>
      </trkpt>
      <trkpt lat="43.03892" lon="1.16501">
        <ele>601</ele>
        <time>2025-12-28T09:05:57.000Z</time>
      </trkpt>
      <trkpt lat="43.03891" lon="1.16506">
        <ele>600.5</ele>
        <time>2025-12-28T09:05:58.000Z</time>
      </trkpt>
      <trkpt lat="43.0389" lon="1.16512">
        <ele>600.5</ele>
        <time>2025-12-28T09:05:59.000Z</time>
      </trkpt>
      <trkpt lat="43.0389" lon="1.16517">
        <ele>600.5</ele>
        <time>2025-12-28T09:06:00.000Z</time>
      </trkpt>
      <trkpt lat="43.03889" lon="1.16523">
        <ele>600.7</ele>
        <time>2025-12-28T09:06:01.000Z</time>
      </trkpt>
      <trkpt lat="43.03889" lon="1.16529">
        <ele>600.5</ele>
        <time>2025-12-28T09:06:02.000Z</time>
      </trkpt>
      <trkpt lat="43.03888" lon="1.16534">
        <ele>600.2</ele>
        <time>2025-12-28T09:06:03.000Z</time>
      </trkpt>
      <trkpt lat="43.03888" lon="1.1654">
        <ele>599.9</ele>
        <time>2025-12-28T09:06:04.000Z</time>
      </trkpt>
      <trkpt lat="43.03887" lon="1.16545">
        <ele>599.5</ele>
        <time>2025-12-28T09:06:05.000Z</time>
      </trkpt>
      <trkpt lat="43.03887" lon="1.16551">
        <ele>599.2</ele>
        <time>2025-12-28T09:06:06.000Z</time>
      </trkpt>
      <trkpt lat="43.03887" lon="1.16557">
        <ele>599.5</ele>
        <time>2025-12-28T09:06:07.000Z</time>
      </trkpt>
      <trkpt lat="43.03886" lon="1.16563">
        <ele>599.3</ele>
        <time>2025-12-28T09:06:08.000Z</time>
      </trkpt>
      <trkpt lat="43.03886" lon="1.16568">
        <ele>599.3</ele>
        <time>2025-12-28T09:06:09.000Z</time>
      </trkpt>
      <trkpt lat="43.03886" lon="1.16574">
        <ele>598.6</ele>
        <time>2025-12-28T09:06:10.000Z</time>
      </trkpt>
      <trkpt lat="43.03886" lon="1.1658">
        <ele>598.3</ele>
        <time>2025-12-28T09:06:11.000Z</time>
      </trkpt>
      <trkpt lat="43.03886" lon="1.16586">
        <ele>598.2</ele>
        <time>2025-12-28T09:06:12.000Z</time>
      </trkpt>
      <trkpt lat="43.03886" lon="1.16592">
        <ele>597.5</ele>
        <time>2025-12-28T09:06:13.000Z</time>
      </trkpt>
      <trkpt lat="43.03886" lon="1.16597">
        <ele>597.5</ele>
        <time>2025-12-28T09:06:14.000Z</time>
      </trkpt>
      <trkpt lat="43.03886" lon="1.16603">
        <ele>597.7</ele>
        <time>2025-12-28T09:06:15.000Z</time>
      </trkpt>
      <trkpt lat="43.03886" lon="1.16609">
        <ele>597.7</ele>
        <time>2025-12-28T09:06:16.000Z</time>
      </trkpt>
      <trkpt lat="43.03886" lon="1.16615">
        <ele>597.3</ele>
        <time>2025-12-28T09:06:17.000Z</time>
      </trkpt>
      <trkpt lat="43.03886" lon="1.16621">
        <ele>597.1</ele>
        <time>2025-12-28T09:06:18.000Z</time>
      </trkpt>
      <trkpt lat="43.03886" lon="1.16627">
        <ele>597</ele>
        <time>2025-12-28T09:06:19.000Z</time>
      </trkpt>
      <trkpt lat="43.03887" lon="1.16633">
        <ele>596.9</ele>
        <time>2025-12-28T09:06:20.000Z</time>
      </trkpt>
      <trkpt lat="43.03887" lon="1.16639">
        <ele>596.5</ele>
        <time>2025-12-28T09:06:21.000Z</time>
      </trkpt>
      <trkpt lat="43.03887" lon="1.16646">
        <ele>596.3</ele>
        <time>2025-12-28T09:06:22.000Z</time>
      </trkpt>
      <trkpt lat="43.03887" lon="1.16652">
        <ele>596</ele>
        <time>2025-12-28T09:06:23.000Z</time>
      </trkpt>
      <trkpt lat="43.03888" lon="1.16659">
        <ele>596</ele>
        <time>2025-12-28T09:06:24.000Z</time>
      </trkpt>
      <trkpt lat="43.03888" lon="1.16666">
        <ele>595.5</ele>
        <time>2025-12-28T09:06:25.000Z</time>
      </trkpt>
      <trkpt lat="43.03889" lon="1.16673">
        <ele>595.3</ele>
        <time>2025-12-28T09:06:26.000Z</time>
      </trkpt>
      <trkpt lat="43.03889" lon="1.1668">
        <ele>595</ele>
        <time>2025-12-28T09:06:27.000Z</time>
      </trkpt>
      <trkpt lat="43.03891" lon="1.16687">
        <ele>595.3</ele>
        <time>2025-12-28T09:06:28.000Z</time>
      </trkpt>
      <trkpt lat="43.03891" lon="1.16694">
        <ele>595.2</ele>
        <time>2025-12-28T09:06:29.000Z</time>
      </trkpt>
      <trkpt lat="43.03892" lon="1.16702">
        <ele>595.2</ele>
        <time>2025-12-28T09:06:30.000Z</time>
      </trkpt>
      <trkpt lat="43.03893" lon="1.16709">
        <ele>595</ele>
        <time>2025-12-28T09:06:31.000Z</time>
      </trkpt>
      <trkpt lat="43.03894" lon="1.16717">
        <ele>594.5</ele>
        <time>2025-12-28T09:06:32.000Z</time>
      </trkpt>
      <trkpt lat="43.03895" lon="1.16724">
        <ele>594.2</ele>
        <time>2025-12-28T09:06:33.000Z</time>
      </trkpt>
      <trkpt lat="43.03896" lon="1.16731">
        <ele>593.9</ele>
        <time>2025-12-28T09:06:34.000Z</time>
      </trkpt>
      <trkpt lat="43.03897" lon="1.16739">
        <ele>593.7</ele>
        <time>2025-12-28T09:06:35.000Z</time>
      </trkpt>
      <trkpt lat="43.03898" lon="1.16747">
        <ele>593.8</ele>
        <time>2025-12-28T09:06:36.000Z</time>
      </trkpt>
      <trkpt lat="43.039" lon="1.16755">
        <ele>593.7</ele>
        <time>2025-12-28T09:06:37.000Z</time>
      </trkpt>
      <trkpt lat="43.03901" lon="1.16763">
        <ele>593.5</ele>
        <time>2025-12-28T09:06:38.000Z</time>
      </trkpt>
      <trkpt lat="43.03902" lon="1.1677">
        <ele>592.5</ele>
        <time>2025-12-28T09:06:39.000Z</time>
      </trkpt>
      <trkpt lat="43.03903" lon="1.16777">
        <ele>592.7</ele>
        <time>2025-12-28T09:06:40.000Z</time>
      </trkpt>
      <trkpt lat="43.03904" lon="1.16785">
        <ele>592.4</ele>
        <time>2025-12-28T09:06:41.000Z</time>
      </trkpt>
      <trkpt lat="43.03904" lon="1.16792">
        <ele>592</ele>
        <time>2025-12-28T09:06:42.000Z</time>
      </trkpt>
      <trkpt lat="43.03904" lon="1.16799">
        <ele>591.5</ele>
        <time>2025-12-28T09:06:43.000Z</time>
      </trkpt>
      <trkpt lat="43.03905" lon="1.16806">
        <ele>590.7</ele>
        <time>2025-12-28T09:06:44.000Z</time>
      </trkpt>
      <trkpt lat="43.03905" lon="1.16813">
        <ele>590</ele>
        <time>2025-12-28T09:06:45.000Z</time>
      </trkpt>
      <trkpt lat="43.03906" lon="1.16819">
        <ele>589.3</ele>
        <time>2025-12-28T09:06:46.000Z</time>
      </trkpt>
      <trkpt lat="43.03906" lon="1.16824">
        <ele>589</ele>
        <time>2025-12-28T09:06:47.000Z</time>
      </trkpt>
      <trkpt lat="43.03907" lon="1.16831">
        <ele>589.2</ele>
        <time>2025-12-28T09:06:48.000Z</time>
      </trkpt>
      <trkpt lat="43.03909" lon="1.16835">
        <ele>589</ele>
        <time>2025-12-28T09:06:49.000Z</time>
      </trkpt>
      <trkpt lat="43.03912" lon="1.16837">
        <ele>589.3</ele>
        <time>2025-12-28T09:06:50.000Z</time>
      </trkpt>
      <trkpt lat="43.03915" lon="1.16839">
        <ele>588.9</ele>
        <time>2025-12-28T09:06:51.000Z</time>
      </trkpt>
      <trkpt lat="43.0392" lon="1.16837">
        <ele>589.8</ele>
        <time>2025-12-28T09:06:52.000Z</time>
      </trkpt>
      <trkpt lat="43.03925" lon="1.16834">
        <ele>589.7</ele>
        <time>2025-12-28T09:06:53.000Z</time>
      </trkpt>
      <trkpt lat="43.03931" lon="1.16829">
        <ele>588.5</ele>
        <time>2025-12-28T09:06:54.000Z</time>
      </trkpt>
      <trkpt lat="43.03936" lon="1.16823">
        <ele>587.5</ele>
        <time>2025-12-28T09:06:55.000Z</time>
      </trkpt>
      <trkpt lat="43.03941" lon="1.16819">
        <ele>587.1</ele>
        <time>2025-12-28T09:06:56.000Z</time>
      </trkpt>
      <trkpt lat="43.03946" lon="1.16815">
        <ele>586.7</ele>
        <time>2025-12-28T09:06:57.000Z</time>
      </trkpt>
      <trkpt lat="43.03952" lon="1.16811">
        <ele>586</ele>
        <time>2025-12-28T09:06:58.000Z</time>
      </trkpt>
      <trkpt lat="43.03957" lon="1.16807">
        <ele>584.7</ele>
        <time>2025-12-28T09:06:59.000Z</time>
      </trkpt>
      <trkpt lat="43.03963" lon="1.16803">
        <ele>584.3</ele>
        <time>2025-12-28T09:07:00.000Z</time>
      </trkpt>
      <trkpt lat="43.03967" lon="1.16799">
        <ele>584.3</ele>
        <time>2025-12-28T09:07:01.000Z</time>
      </trkpt>
      <trkpt lat="43.03973" lon="1.16797">
        <ele>584.2</ele>
        <time>2025-12-28T09:07:02.000Z</time>
      </trkpt>
      <trkpt lat="43.03977" lon="1.168">
        <ele>584.2</ele>
        <time>2025-12-28T09:07:03.000Z</time>
      </trkpt>
      <trkpt lat="43.03979" lon="1.16804">
        <ele>584</ele>
        <time>2025-12-28T09:07:04.000Z</time>
      </trkpt>
      <trkpt lat="43.03982" lon="1.16808">
        <ele>583.7</ele>
        <time>2025-12-28T09:07:05.000Z</time>
      </trkpt>
      <trkpt lat="43.03984" lon="1.1681">
        <ele>584.1</ele>
        <time>2025-12-28T09:07:06.000Z</time>
      </trkpt>
      <trkpt lat="43.03987" lon="1.16814">
        <ele>584.8</ele>
        <time>2025-12-28T09:07:07.000Z</time>
      </trkpt>
      <trkpt lat="43.03989" lon="1.16817">
        <ele>584.8</ele>
        <time>2025-12-28T09:07:08.000Z</time>
      </trkpt>
      <trkpt lat="43.03991" lon="1.1682">
        <ele>584.9</ele>
        <time>2025-12-28T09:07:09.000Z</time>
      </trkpt>
      <trkpt lat="43.03993" lon="1.16823">
        <ele>584.8</ele>
        <time>2025-12-28T09:07:10.000Z</time>
      </trkpt>
      <trkpt lat="43.03996" lon="1.16826">
        <ele>585.4</ele>
        <time>2025-12-28T09:07:11.000Z</time>
      </trkpt>
      <trkpt lat="43.03998" lon="1.1683">
        <ele>585.2</ele>
        <time>2025-12-28T09:07:12.000Z</time>
      </trkpt>
      <trkpt lat="43.04" lon="1.16834">
        <ele>585</ele>
        <time>2025-12-28T09:07:13.000Z</time>
      </trkpt>
      <trkpt lat="43.04002" lon="1.16838">
        <ele>585</ele>
        <time>2025-12-28T09:07:14.000Z</time>
      </trkpt>
      <trkpt lat="43.04003" lon="1.16842">
        <ele>585.6</ele>
        <time>2025-12-28T09:07:15.000Z</time>
      </trkpt>
      <trkpt lat="43.04004" lon="1.16847">
        <ele>585.7</ele>
        <time>2025-12-28T09:07:16.000Z</time>
      </trkpt>
      <trkpt lat="43.04005" lon="1.16852">
        <ele>586.1</ele>
        <time>2025-12-28T09:07:17.000Z</time>
      </trkpt>
      <trkpt lat="43.04005" lon="1.16857">
        <ele>586.4</ele>
        <time>2025-12-28T09:07:18.000Z</time>
      </trkpt>
      <trkpt lat="43.04006" lon="1.16861">
        <ele>586.3</ele>
        <time>2025-12-28T09:07:19.000Z</time>
      </trkpt>
      <trkpt lat="43.04006" lon="1.16865">
        <ele>586.4</ele>
        <time>2025-12-28T09:07:20.000Z</time>
      </trkpt>
      <trkpt lat="43.04006" lon="1.1687">
        <ele>586.5</ele>
        <time>2025-12-28T09:07:21.000Z</time>
      </trkpt>
      <trkpt lat="43.04007" lon="1.16875">
        <ele>586.7</ele>
        <time>2025-12-28T09:07:22.000Z</time>
      </trkpt>
      <trkpt lat="43.04007" lon="1.16879">
        <ele>586.4</ele>
        <time>2025-12-28T09:07:23.000Z</time>
      </trkpt>
      <trkpt lat="43.04008" lon="1.16884">
        <ele>586.5</ele>
        <time>2025-12-28T09:07:24.000Z</time>
      </trkpt>
      <trkpt lat="43.04008" lon="1.16889">
        <ele>586.2</ele>
        <time>2025-12-28T09:07:25.000Z</time>
      </trkpt>
      <trkpt lat="43.04009" lon="1.16893">
        <ele>586.1</ele>
        <time>2025-12-28T09:07:26.000Z</time>
      </trkpt>
      <trkpt lat="43.04009" lon="1.16898">
        <ele>585.9</ele>
        <time>2025-12-28T09:07:27.000Z</time>
      </trkpt>
      <trkpt lat="43.0401" lon="1.16903">
        <ele>585.3</ele>
        <time>2025-12-28T09:07:28.000Z</time>
      </trkpt>
      <trkpt lat="43.0401" lon="1.16908">
        <ele>585.6</ele>
        <time>2025-12-28T09:07:29.000Z</time>
      </trkpt>
      <trkpt lat="43.04011" lon="1.16912">
        <ele>585.4</ele>
        <time>2025-12-28T09:07:30.000Z</time>
      </trkpt>
      <trkpt lat="43.04011" lon="1.16917">
        <ele>585.9</ele>
        <time>2025-12-28T09:07:31.000Z</time>
      </trkpt>
      <trkpt lat="43.04011" lon="1.16921">
        <ele>586.1</ele>
        <time>2025-12-28T09:07:32.000Z</time>
      </trkpt>
      <trkpt lat="43.04011" lon="1.16925">
        <ele>586</ele>
        <time>2025-12-28T09:07:33.000Z</time>
      </trkpt>
      <trkpt lat="43.04012" lon="1.16929">
        <ele>585.8</ele>
        <time>2025-12-28T09:07:34.000Z</time>
      </trkpt>
      <trkpt lat="43.04012" lon="1.16933">
        <ele>585.7</ele>
        <time>2025-12-28T09:07:35.000Z</time>
      </trkpt>
      <trkpt lat="43.04012" lon="1.16933">
        <ele>585.9</ele>
        <time>2025-12-28T09:07:36.000Z</time>
      </trkpt>
      <trkpt lat="43.04012" lon="1.16941">
        <ele>585.6</ele>
        <time>2025-12-28T09:07:37.000Z</time>
      </trkpt>
      <trkpt lat="43.04012" lon="1.16945">
        <ele>586.4</ele>
        <time>2025-12-28T09:07:38.000Z</time>
      </trkpt>
      <trkpt lat="43.04012" lon="1.1695">
        <ele>586.2</ele>
        <time>2025-12-28T09:07:39.000Z</time>
      </trkpt>
      <trkpt lat="43.04012" lon="1.16956">
        <ele>586.4</ele>
        <time>2025-12-28T09:07:40.000Z</time>
      </trkpt>
      <trkpt lat="43.04011" lon="1.1696">
        <ele>586.4</ele>
        <time>2025-12-28T09:07:41.000Z</time>
      </trkpt>
      <trkpt lat="43.04011" lon="1.16965">
        <ele>586.4</ele>
        <time>2025-12-28T09:07:42.000Z</time>
      </trkpt>
      <trkpt lat="43.0401" lon="1.1697">
        <ele>586.6</ele>
        <time>2025-12-28T09:07:43.000Z</time>
      </trkpt>
      <trkpt lat="43.0401" lon="1.16975">
        <ele>586.3</ele>
        <time>2025-12-28T09:07:44.000Z</time>
      </trkpt>
      <trkpt lat="43.0401" lon="1.1698">
        <ele>586.4</ele>
        <time>2025-12-28T09:07:45.000Z</time>
      </trkpt>
      <trkpt lat="43.04009" lon="1.16986">
        <ele>586.2</ele>
        <time>2025-12-28T09:07:46.000Z</time>
      </trkpt>
      <trkpt lat="43.04009" lon="1.16991">
        <ele>586.2</ele>
        <time>2025-12-28T09:07:47.000Z</time>
      </trkpt>
      <trkpt lat="43.04008" lon="1.16996">
        <ele>586.6</ele>
        <time>2025-12-28T09:07:48.000Z</time>
      </trkpt>
      <trkpt lat="43.04009" lon="1.17002">
        <ele>584.9</ele>
        <time>2025-12-28T09:07:49.000Z</time>
      </trkpt>
      <trkpt lat="43.04008" lon="1.17008">
        <ele>584.7</ele>
        <time>2025-12-28T09:07:50.000Z</time>
      </trkpt>
      <trkpt lat="43.04008" lon="1.17014">
        <ele>584.2</ele>
        <time>2025-12-28T09:07:51.000Z</time>
      </trkpt>
      <trkpt lat="43.04005" lon="1.17023">
        <ele>583.9</ele>
        <time>2025-12-28T09:07:52.000Z</time>
      </trkpt>
      <trkpt lat="43.04004" lon="1.17028">
        <ele>583.8</ele>
        <time>2025-12-28T09:07:53.000Z</time>
      </trkpt>
      <trkpt lat="43.04001" lon="1.17037">
        <ele>583.3</ele>
        <time>2025-12-28T09:07:54.000Z</time>
      </trkpt>
      <trkpt lat="43.03997" lon="1.17045">
        <ele>584</ele>
        <time>2025-12-28T09:07:55.000Z</time>
      </trkpt>
      <trkpt lat="43.03995" lon="1.17051">
        <ele>583.7</ele>
        <time>2025-12-28T09:07:56.000Z</time>
      </trkpt>
      <trkpt lat="43.03993" lon="1.17058">
        <ele>583.8</ele>
        <time>2025-12-28T09:07:57.000Z</time>
      </trkpt>
      <trkpt lat="43.03991" lon="1.17065">
        <ele>583.4</ele>
        <time>2025-12-28T09:07:58.000Z</time>
      </trkpt>
      <trkpt lat="43.03988" lon="1.1707">
        <ele>582.4</ele>
        <time>2025-12-28T09:07:59.000Z</time>
      </trkpt>
      <trkpt lat="43.03986" lon="1.17076">
        <ele>582.4</ele>
        <time>2025-12-28T09:08:00.000Z</time>
      </trkpt>
      <trkpt lat="43.03984" lon="1.17082">
        <ele>582.8</ele>
        <time>2025-12-28T09:08:01.000Z</time>
      </trkpt>
      <trkpt lat="43.03982" lon="1.17088">
        <ele>582.8</ele>
        <time>2025-12-28T09:08:02.000Z</time>
      </trkpt>
      <trkpt lat="43.03979" lon="1.17094">
        <ele>583.1</ele>
        <time>2025-12-28T09:08:03.000Z</time>
      </trkpt>
      <trkpt lat="43.03977" lon="1.171">
        <ele>583.5</ele>
        <time>2025-12-28T09:08:04.000Z</time>
      </trkpt>
      <trkpt lat="43.03976" lon="1.17104">
        <ele>584</ele>
        <time>2025-12-28T09:08:05.000Z</time>
      </trkpt>
      <trkpt lat="43.03974" lon="1.17109">
        <ele>583.7</ele>
        <time>2025-12-28T09:08:06.000Z</time>
      </trkpt>
      <trkpt lat="43.03973" lon="1.17115">
        <ele>583.6</ele>
        <time>2025-12-28T09:08:07.000Z</time>
      </trkpt>
      <trkpt lat="43.03972" lon="1.1712">
        <ele>584</ele>
        <time>2025-12-28T09:08:08.000Z</time>
      </trkpt>
      <trkpt lat="43.03971" lon="1.17124">
        <ele>584.1</ele>
        <time>2025-12-28T09:08:09.000Z</time>
      </trkpt>
      <trkpt lat="43.03968" lon="1.17129">
        <ele>584.3</ele>
        <time>2025-12-28T09:08:10.000Z</time>
      </trkpt>
      <trkpt lat="43.03966" lon="1.17135">
        <ele>584.4</ele>
        <time>2025-12-28T09:08:11.000Z</time>
      </trkpt>
      <trkpt lat="43.03965" lon="1.17141">
        <ele>582.3</ele>
        <time>2025-12-28T09:08:12.000Z</time>
      </trkpt>
      <trkpt lat="43.03963" lon="1.17146">
        <ele>582.3</ele>
        <time>2025-12-28T09:08:13.000Z</time>
      </trkpt>
      <trkpt lat="43.03961" lon="1.17152">
        <ele>582.4</ele>
        <time>2025-12-28T09:08:14.000Z</time>
      </trkpt>
      <trkpt lat="43.0396" lon="1.17157">
        <ele>582</ele>
        <time>2025-12-28T09:08:15.000Z</time>
      </trkpt>
      <trkpt lat="43.03958" lon="1.17163">
        <ele>582.4</ele>
        <time>2025-12-28T09:08:16.000Z</time>
      </trkpt>
      <trkpt lat="43.03955" lon="1.17169">
        <ele>581.5</ele>
        <time>2025-12-28T09:08:17.000Z</time>
      </trkpt>
      <trkpt lat="43.03953" lon="1.17175">
        <ele>582.4</ele>
        <time>2025-12-28T09:08:18.000Z</time>
      </trkpt>
      <trkpt lat="43.03949" lon="1.17181">
        <ele>581.2</ele>
        <time>2025-12-28T09:08:19.000Z</time>
      </trkpt>
      <trkpt lat="43.03945" lon="1.17185">
        <ele>582</ele>
        <time>2025-12-28T09:08:20.000Z</time>
      </trkpt>
      <trkpt lat="43.0394" lon="1.17191">
        <ele>581.4</ele>
        <time>2025-12-28T09:08:21.000Z</time>
      </trkpt>
      <trkpt lat="43.03935" lon="1.17195">
        <ele>581.3</ele>
        <time>2025-12-28T09:08:22.000Z</time>
      </trkpt>
      <trkpt lat="43.0393" lon="1.17195">
        <ele>581.2</ele>
        <time>2025-12-28T09:08:23.000Z</time>
      </trkpt>
      <trkpt lat="43.03925" lon="1.17199">
        <ele>580.6</ele>
        <time>2025-12-28T09:08:24.000Z</time>
      </trkpt>
      <trkpt lat="43.0392" lon="1.17203">
        <ele>580.1</ele>
        <time>2025-12-28T09:08:25.000Z</time>
      </trkpt>
      <trkpt lat="43.03916" lon="1.17206">
        <ele>579.8</ele>
        <time>2025-12-28T09:08:26.000Z</time>
      </trkpt>
      <trkpt lat="43.03911" lon="1.1721">
        <ele>579.4</ele>
        <time>2025-12-28T09:08:27.000Z</time>
      </trkpt>
      <trkpt lat="43.03906" lon="1.17213">
        <ele>579.4</ele>
        <time>2025-12-28T09:08:28.000Z</time>
      </trkpt>
      <trkpt lat="43.03902" lon="1.17217">
        <ele>579</ele>
        <time>2025-12-28T09:08:29.000Z</time>
      </trkpt>
      <trkpt lat="43.03898" lon="1.17221">
        <ele>579.8</ele>
        <time>2025-12-28T09:08:30.000Z</time>
      </trkpt>
      <trkpt lat="43.03894" lon="1.17225">
        <ele>579.9</ele>
        <time>2025-12-28T09:08:31.000Z</time>
      </trkpt>
      <trkpt lat="43.03892" lon="1.17231">
        <ele>580.4</ele>
        <time>2025-12-28T09:08:32.000Z</time>
      </trkpt>
      <trkpt lat="43.03891" lon="1.17238">
        <ele>579.3</ele>
        <time>2025-12-28T09:08:33.000Z</time>
      </trkpt>
      <trkpt lat="43.03891" lon="1.17246">
        <ele>579.1</ele>
        <time>2025-12-28T09:08:34.000Z</time>
      </trkpt>
      <trkpt lat="43.03891" lon="1.17254">
        <ele>579.5</ele>
        <time>2025-12-28T09:08:35.000Z</time>
      </trkpt>
      <trkpt lat="43.0389" lon="1.17262">
        <ele>577.9</ele>
        <time>2025-12-28T09:08:36.000Z</time>
      </trkpt>
      <trkpt lat="43.03889" lon="1.1727">
        <ele>578</ele>
        <time>2025-12-28T09:08:37.000Z</time>
      </trkpt>
      <trkpt lat="43.03886" lon="1.17276">
        <ele>576.9</ele>
        <time>2025-12-28T09:08:38.000Z</time>
      </trkpt>
      <trkpt lat="43.03886" lon="1.17283">
        <ele>575.6</ele>
        <time>2025-12-28T09:08:39.000Z</time>
      </trkpt>
      <trkpt lat="43.03883" lon="1.1729">
        <ele>575.9</ele>
        <time>2025-12-28T09:08:40.000Z</time>
      </trkpt>
      <trkpt lat="43.0388" lon="1.17298">
        <ele>575.2</ele>
        <time>2025-12-28T09:08:41.000Z</time>
      </trkpt>
      <trkpt lat="43.03876" lon="1.17305">
        <ele>574</ele>
        <time>2025-12-28T09:08:42.000Z</time>
      </trkpt>
      <trkpt lat="43.03874" lon="1.17313">
        <ele>573.7</ele>
        <time>2025-12-28T09:08:43.000Z</time>
      </trkpt>
      <trkpt lat="43.03872" lon="1.17321">
        <ele>572.4</ele>
        <time>2025-12-28T09:08:44.000Z</time>
      </trkpt>
      <trkpt lat="43.03872" lon="1.17331">
        <ele>572.8</ele>
        <time>2025-12-28T09:08:45.000Z</time>
      </trkpt>
      <trkpt lat="43.03872" lon="1.17339">
        <ele>573.1</ele>
        <time>2025-12-28T09:08:46.000Z</time>
      </trkpt>
      <trkpt lat="43.03872" lon="1.17349">
        <ele>571.3</ele>
        <time>2025-12-28T09:08:47.000Z</time>
      </trkpt>
      <trkpt lat="43.03872" lon="1.17359">
        <ele>570.8</ele>
        <time>2025-12-28T09:08:48.000Z</time>
      </trkpt>
      <trkpt lat="43.03872" lon="1.17368">
        <ele>570.4</ele>
        <time>2025-12-28T09:08:49.000Z</time>
      </trkpt>
      <trkpt lat="43.03871" lon="1.17377">
        <ele>570.3</ele>
        <time>2025-12-28T09:08:50.000Z</time>
      </trkpt>
      <trkpt lat="43.03871" lon="1.17384">
        <ele>569.2</ele>
        <time>2025-12-28T09:08:51.000Z</time>
      </trkpt>
      <trkpt lat="43.03872" lon="1.17392">
        <ele>569.7</ele>
        <time>2025-12-28T09:08:52.000Z</time>
      </trkpt>
      <trkpt lat="43.03872" lon="1.17401">
        <ele>570.1</ele>
        <time>2025-12-28T09:08:53.000Z</time>
      </trkpt>
      <trkpt lat="43.03873" lon="1.17409">
        <ele>570</ele>
        <time>2025-12-28T09:08:54.000Z</time>
      </trkpt>
      <trkpt lat="43.03872" lon="1.17419">
        <ele>570.9</ele>
        <time>2025-12-28T09:08:55.000Z</time>
      </trkpt>
      <trkpt lat="43.03871" lon="1.17426">
        <ele>571.2</ele>
        <time>2025-12-28T09:08:56.000Z</time>
      </trkpt>
      <trkpt lat="43.0387" lon="1.17435">
        <ele>570</ele>
        <time>2025-12-28T09:08:57.000Z</time>
      </trkpt>
      <trkpt lat="43.0387" lon="1.17442">
        <ele>569.4</ele>
        <time>2025-12-28T09:08:58.000Z</time>
      </trkpt>
      <trkpt lat="43.0387" lon="1.17449">
        <ele>569.7</ele>
        <time>2025-12-28T09:08:59.000Z</time>
      </trkpt>
      <trkpt lat="43.0387" lon="1.17457">
        <ele>569.4</ele>
        <time>2025-12-28T09:09:00.000Z</time>
      </trkpt>
      <trkpt lat="43.0387" lon="1.17463">
        <ele>568.7</ele>
        <time>2025-12-28T09:09:01.000Z</time>
      </trkpt>
      <trkpt lat="43.03871" lon="1.17469">
        <ele>567.8</ele>
        <time>2025-12-28T09:09:02.000Z</time>
      </trkpt>
      <trkpt lat="43.0387" lon="1.17475">
        <ele>567.1</ele>
        <time>2025-12-28T09:09:03.000Z</time>
      </trkpt>
      <trkpt lat="43.03868" lon="1.17484">
        <ele>567.4</ele>
        <time>2025-12-28T09:09:04.000Z</time>
      </trkpt>
      <trkpt lat="43.03865" lon="1.1749">
        <ele>566.9</ele>
        <time>2025-12-28T09:09:05.000Z</time>
      </trkpt>
      <trkpt lat="43.03863" lon="1.17498">
        <ele>566.8</ele>
        <time>2025-12-28T09:09:06.000Z</time>
      </trkpt>
      <trkpt lat="43.03861" lon="1.17508">
        <ele>566.2</ele>
        <time>2025-12-28T09:09:07.000Z</time>
      </trkpt>
      <trkpt lat="43.03857" lon="1.17516">
        <ele>563.9</ele>
        <time>2025-12-28T09:09:08.000Z</time>
      </trkpt>
      <trkpt lat="43.03852" lon="1.17523">
        <ele>562</ele>
        <time>2025-12-28T09:09:09.000Z</time>
      </trkpt>
      <trkpt lat="43.03848" lon="1.17531">
        <ele>562.3</ele>
        <time>2025-12-28T09:09:10.000Z</time>
      </trkpt>
      <trkpt lat="43.03842" lon="1.17539">
        <ele>561.9</ele>
        <time>2025-12-28T09:09:11.000Z</time>
      </trkpt>
      <trkpt lat="43.03839" lon="1.17545">
        <ele>562.6</ele>
        <time>2025-12-28T09:09:12.000Z</time>
      </trkpt>
      <trkpt lat="43.03834" lon="1.17553">
        <ele>562.2</ele>
        <time>2025-12-28T09:09:13.000Z</time>
      </trkpt>
      <trkpt lat="43.03832" lon="1.17561">
        <ele>562.6</ele>
        <time>2025-12-28T09:09:14.000Z</time>
      </trkpt>
      <trkpt lat="43.03829" lon="1.17568">
        <ele>562.2</ele>
        <time>2025-12-28T09:09:15.000Z</time>
      </trkpt>
      <trkpt lat="43.03828" lon="1.17577">
        <ele>563.2</ele>
        <time>2025-12-28T09:09:16.000Z</time>
      </trkpt>
      <trkpt lat="43.03826" lon="1.17584">
        <ele>561.3</ele>
        <time>2025-12-28T09:09:17.000Z</time>
      </trkpt>
      <trkpt lat="43.03823" lon="1.17593">
        <ele>560.1</ele>
        <time>2025-12-28T09:09:18.000Z</time>
      </trkpt>
      <trkpt lat="43.0382" lon="1.17601">
        <ele>558.7</ele>
        <time>2025-12-28T09:09:19.000Z</time>
      </trkpt>
      <trkpt lat="43.03817" lon="1.17609">
        <ele>556.6</ele>
        <time>2025-12-28T09:09:20.000Z</time>
      </trkpt>
      <trkpt lat="43.03815" lon="1.17618">
        <ele>555.9</ele>
        <time>2025-12-28T09:09:21.000Z</time>
      </trkpt>
      <trkpt lat="43.03813" lon="1.17628">
        <ele>555.3</ele>
        <time>2025-12-28T09:09:22.000Z</time>
      </trkpt>
      <trkpt lat="43.0381" lon="1.17636">
        <ele>554.3</ele>
        <time>2025-12-28T09:09:23.000Z</time>
      </trkpt>
      <trkpt lat="43.03807" lon="1.17644">
        <ele>553.5</ele>
        <time>2025-12-28T09:09:24.000Z</time>
      </trkpt>
      <trkpt lat="43.03804" lon="1.17651">
        <ele>552.5</ele>
        <time>2025-12-28T09:09:25.000Z</time>
      </trkpt>
      <trkpt lat="43.038" lon="1.17659">
        <ele>552.1</ele>
        <time>2025-12-28T09:09:26.000Z</time>
      </trkpt>
      <trkpt lat="43.03796" lon="1.17671">
        <ele>551.2</ele>
        <time>2025-12-28T09:09:27.000Z</time>
      </trkpt>
      <trkpt lat="43.03794" lon="1.1768">
        <ele>549.3</ele>
        <time>2025-12-28T09:09:28.000Z</time>
      </trkpt>
      <trkpt lat="43.03791" lon="1.17687">
        <ele>549</ele>
        <time>2025-12-28T09:09:29.000Z</time>
      </trkpt>
      <trkpt lat="43.03788" lon="1.17696">
        <ele>548.7</ele>
        <time>2025-12-28T09:09:30.000Z</time>
      </trkpt>
      <trkpt lat="43.03785" lon="1.17702">
        <ele>547.3</ele>
        <time>2025-12-28T09:09:31.000Z</time>
      </trkpt>
      <trkpt lat="43.03783" lon="1.17711">
        <ele>547.2</ele>
        <time>2025-12-28T09:09:32.000Z</time>
      </trkpt>
      <trkpt lat="43.03779" lon="1.17715">
        <ele>545.9</ele>
        <time>2025-12-28T09:09:33.000Z</time>
      </trkpt>
      <trkpt lat="43.03776" lon="1.1772">
        <ele>545.7</ele>
        <time>2025-12-28T09:09:34.000Z</time>
      </trkpt>
      <trkpt lat="43.03773" lon="1.17726">
        <ele>544.4</ele>
        <time>2025-12-28T09:09:35.000Z</time>
      </trkpt>
      <trkpt lat="43.03769" lon="1.17732">
        <ele>544.9</ele>
        <time>2025-12-28T09:09:36.000Z</time>
      </trkpt>
      <trkpt lat="43.03766" lon="1.17738">
        <ele>545</ele>
        <time>2025-12-28T09:09:37.000Z</time>
      </trkpt>
      <trkpt lat="43.03763" lon="1.17743">
        <ele>541.4</ele>
        <time>2025-12-28T09:09:38.000Z</time>
      </trkpt>
      <trkpt lat="43.03759" lon="1.17748">
        <ele>540</ele>
        <time>2025-12-28T09:09:39.000Z</time>
      </trkpt>
      <trkpt lat="43.03755" lon="1.17755">
        <ele>538.7</ele>
        <time>2025-12-28T09:09:40.000Z</time>
      </trkpt>
      <trkpt lat="43.03751" lon="1.1776">
        <ele>538.8</ele>
        <time>2025-12-28T09:09:41.000Z</time>
      </trkpt>
      <trkpt lat="43.03748" lon="1.17766">
        <ele>537</ele>
        <time>2025-12-28T09:09:42.000Z</time>
      </trkpt>
      <trkpt lat="43.03745" lon="1.17772">
        <ele>536.6</ele>
        <time>2025-12-28T09:09:43.000Z</time>
      </trkpt>
      <trkpt lat="43.03743" lon="1.1778">
        <ele>536.2</ele>
        <time>2025-12-28T09:09:44.000Z</time>
      </trkpt>
      <trkpt lat="43.03744" lon="1.17784">
        <ele>534.5</ele>
        <time>2025-12-28T09:09:45.000Z</time>
      </trkpt>
      <trkpt lat="43.03744" lon="1.17789">
        <ele>534.4</ele>
        <time>2025-12-28T09:09:46.000Z</time>
      </trkpt>
      <trkpt lat="43.03743" lon="1.17795">
        <ele>533.7</ele>
        <time>2025-12-28T09:09:47.000Z</time>
      </trkpt>
      <trkpt lat="43.03744" lon="1.178">
        <ele>532.5</ele>
        <time>2025-12-28T09:09:48.000Z</time>
      </trkpt>
      <trkpt lat="43.03745" lon="1.17806">
        <ele>530.7</ele>
        <time>2025-12-28T09:09:49.000Z</time>
      </trkpt>
      <trkpt lat="43.0375" lon="1.17806">
        <ele>530.8</ele>
        <time>2025-12-28T09:09:50.000Z</time>
      </trkpt>
      <trkpt lat="43.03754" lon="1.17807">
        <ele>530.3</ele>
        <time>2025-12-28T09:09:51.000Z</time>
      </trkpt>
      <trkpt lat="43.03758" lon="1.17808">
        <ele>530</ele>
        <time>2025-12-28T09:09:52.000Z</time>
      </trkpt>
      <trkpt lat="43.03762" lon="1.17809">
        <ele>529.7</ele>
        <time>2025-12-28T09:09:53.000Z</time>
      </trkpt>
      <trkpt lat="43.03766" lon="1.17811">
        <ele>529.4</ele>
        <time>2025-12-28T09:09:54.000Z</time>
      </trkpt>
      <trkpt lat="43.03769" lon="1.17813">
        <ele>529.3</ele>
        <time>2025-12-28T09:09:55.000Z</time>
      </trkpt>
      <trkpt lat="43.03773" lon="1.17815">
        <ele>529.4</ele>
        <time>2025-12-28T09:09:56.000Z</time>
      </trkpt>
      <trkpt lat="43.03776" lon="1.1782">
        <ele>529.1</ele>
        <time>2025-12-28T09:09:57.000Z</time>
      </trkpt>
      <trkpt lat="43.03779" lon="1.17825">
        <ele>529.2</ele>
        <time>2025-12-28T09:09:58.000Z</time>
      </trkpt>
      <trkpt lat="43.03781" lon="1.17832">
        <ele>528.9</ele>
        <time>2025-12-28T09:09:59.000Z</time>
      </trkpt>
      <trkpt lat="43.0378" lon="1.17838">
        <ele>530.3</ele>
        <time>2025-12-28T09:10:00.000Z</time>
      </trkpt>
      <trkpt lat="43.0378" lon="1.17844">
        <ele>531</ele>
        <time>2025-12-28T09:10:01.000Z</time>
      </trkpt>
      <trkpt lat="43.03781" lon="1.17849">
        <ele>532</ele>
        <time>2025-12-28T09:10:02.000Z</time>
      </trkpt>
      <trkpt lat="43.03782" lon="1.17854">
        <ele>531.8</ele>
        <time>2025-12-28T09:10:03.000Z</time>
      </trkpt>
      <trkpt lat="43.03784" lon="1.17857">
        <ele>531.7</ele>
        <time>2025-12-28T09:10:04.000Z</time>
      </trkpt>
      <trkpt lat="43.03785" lon="1.17863">
        <ele>532.4</ele>
        <time>2025-12-28T09:10:05.000Z</time>
      </trkpt>
      <trkpt lat="43.03787" lon="1.17867">
        <ele>533.9</ele>
        <time>2025-12-28T09:10:06.000Z</time>
      </trkpt>
      <trkpt lat="43.0379" lon="1.17869">
        <ele>535.2</ele>
        <time>2025-12-28T09:10:07.000Z</time>
      </trkpt>
      <trkpt lat="43.03793" lon="1.17873">
        <ele>535.8</ele>
        <time>2025-12-28T09:10:08.000Z</time>
      </trkpt>
      <trkpt lat="43.03795" lon="1.17876">
        <ele>535.5</ele>
        <time>2025-12-28T09:10:09.000Z</time>
      </trkpt>
      <trkpt lat="43.03797" lon="1.1788">
        <ele>535.6</ele>
        <time>2025-12-28T09:10:10.000Z</time>
      </trkpt>
      <trkpt lat="43.038" lon="1.17885">
        <ele>536</ele>
        <time>2025-12-28T09:10:11.000Z</time>
      </trkpt>
      <trkpt lat="43.03802" lon="1.17888">
        <ele>537.4</ele>
        <time>2025-12-28T09:10:12.000Z</time>
      </trkpt>
      <trkpt lat="43.03804" lon="1.17891">
        <ele>538.3</ele>
        <time>2025-12-28T09:10:13.000Z</time>
      </trkpt>
      <trkpt lat="43.03807" lon="1.17894">
        <ele>539</ele>
        <time>2025-12-28T09:10:14.000Z</time>
      </trkpt>
      <trkpt lat="43.0381" lon="1.17897">
        <ele>538.8</ele>
        <time>2025-12-28T09:10:15.000Z</time>
      </trkpt>
      <trkpt lat="43.03813" lon="1.17898">
        <ele>538</ele>
        <time>2025-12-28T09:10:16.000Z</time>
      </trkpt>
      <trkpt lat="43.03815" lon="1.17899">
        <ele>538.4</ele>
        <time>2025-12-28T09:10:17.000Z</time>
      </trkpt>
      <trkpt lat="43.03817" lon="1.179">
        <ele>537</ele>
        <time>2025-12-28T09:10:18.000Z</time>
      </trkpt>
      <trkpt lat="43.0382" lon="1.17901">
        <ele>537.7</ele>
        <time>2025-12-28T09:10:19.000Z</time>
      </trkpt>
      <trkpt lat="43.03822" lon="1.17902">
        <ele>537.5</ele>
        <time>2025-12-28T09:10:20.000Z</time>
      </trkpt>
      <trkpt lat="43.03825" lon="1.17902">
        <ele>538.3</ele>
        <time>2025-12-28T09:10:21.000Z</time>
      </trkpt>
      <trkpt lat="43.03827" lon="1.17902">
        <ele>537.8</ele>
        <time>2025-12-28T09:10:22.000Z</time>
      </trkpt>
      <trkpt lat="43.03831" lon="1.17903">
        <ele>538</ele>
        <time>2025-12-28T09:10:23.000Z</time>
      </trkpt>
      <trkpt lat="43.03835" lon="1.17904">
        <ele>537.3</ele>
        <time>2025-12-28T09:10:24.000Z</time>
      </trkpt>
      <trkpt lat="43.03839" lon="1.17904">
        <ele>537.8</ele>
        <time>2025-12-28T09:10:25.000Z</time>
      </trkpt>
      <trkpt lat="43.03843" lon="1.17905">
        <ele>538.4</ele>
        <time>2025-12-28T09:10:26.000Z</time>
      </trkpt>
      <trkpt lat="43.03845" lon="1.17905">
        <ele>538.3</ele>
        <time>2025-12-28T09:10:27.000Z</time>
      </trkpt>
      <trkpt lat="43.03847" lon="1.17906">
        <ele>538</ele>
        <time>2025-12-28T09:10:28.000Z</time>
      </trkpt>
      <trkpt lat="43.03848" lon="1.17905">
        <ele>537.5</ele>
        <time>2025-12-28T09:10:29.000Z</time>
      </trkpt>
      <trkpt lat="43.03847" lon="1.17902">
        <ele>536.5</ele>
        <time>2025-12-28T09:10:30.000Z</time>
      </trkpt>
      <trkpt lat="43.03846" lon="1.17901">
        <ele>536.4</ele>
        <time>2025-12-28T09:10:31.000Z</time>
      </trkpt>
      <trkpt lat="43.03844" lon="1.17902">
        <ele>536.2</ele>
        <time>2025-12-28T09:10:32.000Z</time>
      </trkpt>
      <trkpt lat="43.03841" lon="1.17902">
        <ele>535.8</ele>
        <time>2025-12-28T09:10:33.000Z</time>
      </trkpt>
      <trkpt lat="43.03837" lon="1.17902">
        <ele>535.6</ele>
        <time>2025-12-28T09:10:34.000Z</time>
      </trkpt>
      <trkpt lat="43.03833" lon="1.17903">
        <ele>535.9</ele>
        <time>2025-12-28T09:10:35.000Z</time>
      </trkpt>
      <trkpt lat="43.03829" lon="1.17903">
        <ele>535.6</ele>
        <time>2025-12-28T09:10:36.000Z</time>
      </trkpt>
      <trkpt lat="43.03825" lon="1.17903">
        <ele>535.4</ele>
        <time>2025-12-28T09:10:37.000Z</time>
      </trkpt>
      <trkpt lat="43.03821" lon="1.17902">
        <ele>536.1</ele>
        <time>2025-12-28T09:10:38.000Z</time>
      </trkpt>
      <trkpt lat="43.03817" lon="1.17902">
        <ele>536.7</ele>
        <time>2025-12-28T09:10:39.000Z</time>
      </trkpt>
      <trkpt lat="43.03813" lon="1.17901">
        <ele>536.3</ele>
        <time>2025-12-28T09:10:40.000Z</time>
      </trkpt>
      <trkpt lat="43.0381" lon="1.17898">
        <ele>536</ele>
        <time>2025-12-28T09:10:41.000Z</time>
      </trkpt>
      <trkpt lat="43.03807" lon="1.17896">
        <ele>535.8</ele>
        <time>2025-12-28T09:10:42.000Z</time>
      </trkpt>
      <trkpt lat="43.03804" lon="1.17892">
        <ele>535.3</ele>
        <time>2025-12-28T09:10:43.000Z</time>
      </trkpt>
      <trkpt lat="43.03802" lon="1.17889">
        <ele>536.2</ele>
        <time>2025-12-28T09:10:44.000Z</time>
      </trkpt>
      <trkpt lat="43.03799" lon="1.17885">
        <ele>536.6</ele>
        <time>2025-12-28T09:10:45.000Z</time>
      </trkpt>
      <trkpt lat="43.03795" lon="1.1788">
        <ele>536.9</ele>
        <time>2025-12-28T09:10:46.000Z</time>
      </trkpt>
      <trkpt lat="43.03793" lon="1.17875">
        <ele>536.9</ele>
        <time>2025-12-28T09:10:47.000Z</time>
      </trkpt>
      <trkpt lat="43.03792" lon="1.17873">
        <ele>536.8</ele>
        <time>2025-12-28T09:10:48.000Z</time>
      </trkpt>
      <trkpt lat="43.0379" lon="1.17869">
        <ele>536.2</ele>
        <time>2025-12-28T09:10:49.000Z</time>
      </trkpt>
      <trkpt lat="43.0379" lon="1.17867">
        <ele>535.7</ele>
        <time>2025-12-28T09:10:50.000Z</time>
      </trkpt>
      <trkpt lat="43.03788" lon="1.17864">
        <ele>535.3</ele>
        <time>2025-12-28T09:10:51.000Z</time>
      </trkpt>
      <trkpt lat="43.03786" lon="1.1786">
        <ele>535.4</ele>
        <time>2025-12-28T09:10:52.000Z</time>
      </trkpt>
      <trkpt lat="43.03785" lon="1.17854">
        <ele>534.7</ele>
        <time>2025-12-28T09:10:53.000Z</time>
      </trkpt>
      <trkpt lat="43.03784" lon="1.17846">
        <ele>534.2</ele>
        <time>2025-12-28T09:10:54.000Z</time>
      </trkpt>
      <trkpt lat="43.03784" lon="1.17841">
        <ele>533.5</ele>
        <time>2025-12-28T09:10:55.000Z</time>
      </trkpt>
      <trkpt lat="43.03784" lon="1.17835">
        <ele>532.8</ele>
        <time>2025-12-28T09:10:56.000Z</time>
      </trkpt>
      <trkpt lat="43.03783" lon="1.17829">
        <ele>532.5</ele>
        <time>2025-12-28T09:10:57.000Z</time>
      </trkpt>
      <trkpt lat="43.03782" lon="1.17825">
        <ele>530.9</ele>
        <time>2025-12-28T09:10:58.000Z</time>
      </trkpt>
      <trkpt lat="43.03779" lon="1.1782">
        <ele>530.4</ele>
        <time>2025-12-28T09:10:59.000Z</time>
      </trkpt>
      <trkpt lat="43.03776" lon="1.17817">
        <ele>530.5</ele>
        <time>2025-12-28T09:11:00.000Z</time>
      </trkpt>
      <trkpt lat="43.03772" lon="1.17814">
        <ele>530.3</ele>
        <time>2025-12-28T09:11:01.000Z</time>
      </trkpt>
      <trkpt lat="43.03768" lon="1.17811">
        <ele>530.8</ele>
        <time>2025-12-28T09:11:02.000Z</time>
      </trkpt>
      <trkpt lat="43.03764" lon="1.17808">
        <ele>530.4</ele>
        <time>2025-12-28T09:11:03.000Z</time>
      </trkpt>
      <trkpt lat="43.03761" lon="1.17806">
        <ele>529.8</ele>
        <time>2025-12-28T09:11:04.000Z</time>
      </trkpt>
      <trkpt lat="43.03757" lon="1.17805">
        <ele>529.9</ele>
        <time>2025-12-28T09:11:05.000Z</time>
      </trkpt>
      <trkpt lat="43.03753" lon="1.17805">
        <ele>530.8</ele>
        <time>2025-12-28T09:11:06.000Z</time>
      </trkpt>
      <trkpt lat="43.0375" lon="1.17803">
        <ele>531.1</ele>
        <time>2025-12-28T09:11:07.000Z</time>
      </trkpt>
      <trkpt lat="43.03747" lon="1.17802">
        <ele>531.1</ele>
        <time>2025-12-28T09:11:08.000Z</time>
      </trkpt>
      <trkpt lat="43.03744" lon="1.17801">
        <ele>531</ele>
        <time>2025-12-28T09:11:09.000Z</time>
      </trkpt>
      <trkpt lat="43.03742" lon="1.178">
        <ele>531.5</ele>
        <time>2025-12-28T09:11:10.000Z</time>
      </trkpt>
      <trkpt lat="43.03741" lon="1.17799">
        <ele>531.5</ele>
        <time>2025-12-28T09:11:11.000Z</time>
      </trkpt>
      <trkpt lat="43.0374" lon="1.17799">
        <ele>531.4</ele>
        <time>2025-12-28T09:11:12.000Z</time>
      </trkpt>
      <trkpt lat="43.0374" lon="1.17799">
        <ele>531</ele>
        <time>2025-12-28T09:11:13.000Z</time>
      </trkpt>
      <trkpt lat="43.0374" lon="1.178">
        <ele>531.1</ele>
        <time>2025-12-28T09:11:14.000Z</time>
      </trkpt>
      <trkpt lat="43.03739" lon="1.178">
        <ele>530.8</ele>
        <time>2025-12-28T09:11:15.000Z</time>
      </trkpt>
      <trkpt lat="43.03738" lon="1.17801">
        <ele>530.9</ele>
        <time>2025-12-28T09:11:16.000Z</time>
      </trkpt>
      <trkpt lat="43.03737" lon="1.17802">
        <ele>530.9</ele>
        <time>2025-12-28T09:11:17.000Z</time>
      </trkpt>
      <trkpt lat="43.03735" lon="1.17803">
        <ele>530.7</ele>
        <time>2025-12-28T09:11:18.000Z</time>
      </trkpt>
      <trkpt lat="43.03733" lon="1.17804">
        <ele>530.9</ele>
        <time>2025-12-28T09:11:19.000Z</time>
      </trkpt>
      <trkpt lat="43.0373" lon="1.17805">
        <ele>531.3</ele>
        <time>2025-12-28T09:11:20.000Z</time>
      </trkpt>
      <trkpt lat="43.03727" lon="1.17805">
        <ele>530.9</ele>
        <time>2025-12-28T09:11:21.000Z</time>
      </trkpt>
      <trkpt lat="43.03724" lon="1.17804">
        <ele>530.8</ele>
        <time>2025-12-28T09:11:22.000Z</time>
      </trkpt>
      <trkpt lat="43.0372" lon="1.17804">
        <ele>530.3</ele>
        <time>2025-12-28T09:11:23.000Z</time>
      </trkpt>
      <trkpt lat="43.03717" lon="1.17803">
        <ele>530.2</ele>
        <time>2025-12-28T09:11:24.000Z</time>
      </trkpt>
      <trkpt lat="43.03713" lon="1.17801">
        <ele>529.8</ele>
        <time>2025-12-28T09:11:25.000Z</time>
      </trkpt>
      <trkpt lat="43.03707" lon="1.17797">
        <ele>529</ele>
        <time>2025-12-28T09:11:26.000Z</time>
      </trkpt>
      <trkpt lat="43.03703" lon="1.17795">
        <ele>528.8</ele>
        <time>2025-12-28T09:11:27.000Z</time>
      </trkpt>
      <trkpt lat="43.03698" lon="1.17793">
        <ele>528</ele>
        <time>2025-12-28T09:11:28.000Z</time>
      </trkpt>
      <trkpt lat="43.03692" lon="1.17791">
        <ele>528</ele>
        <time>2025-12-28T09:11:29.000Z</time>
      </trkpt>
      <trkpt lat="43.03686" lon="1.17789">
        <ele>527.3</ele>
        <time>2025-12-28T09:11:30.000Z</time>
      </trkpt>
      <trkpt lat="43.03681" lon="1.17786">
        <ele>526.7</ele>
        <time>2025-12-28T09:11:31.000Z</time>
      </trkpt>
      <trkpt lat="43.03675" lon="1.17782">
        <ele>526.5</ele>
        <time>2025-12-28T09:11:32.000Z</time>
      </trkpt>
      <trkpt lat="43.03671" lon="1.17778">
        <ele>525.7</ele>
        <time>2025-12-28T09:11:33.000Z</time>
      </trkpt>
      <trkpt lat="43.03667" lon="1.17776">
        <ele>525.5</ele>
        <time>2025-12-28T09:11:34.000Z</time>
      </trkpt>
      <trkpt lat="43.03662" lon="1.17774">
        <ele>525.8</ele>
        <time>2025-12-28T09:11:35.000Z</time>
      </trkpt>
      <trkpt lat="43.03659" lon="1.17771">
        <ele>525.8</ele>
        <time>2025-12-28T09:11:36.000Z</time>
      </trkpt>
      <trkpt lat="43.03656" lon="1.1777">
        <ele>526.4</ele>
        <time>2025-12-28T09:11:37.000Z</time>
      </trkpt>
      <trkpt lat="43.03653" lon="1.17766">
        <ele>526.8</ele>
        <time>2025-12-28T09:11:38.000Z</time>
      </trkpt>
      <trkpt lat="43.0365" lon="1.17762">
        <ele>527</ele>
        <time>2025-12-28T09:11:39.000Z</time>
      </trkpt>
      <trkpt lat="43.03648" lon="1.17757">
        <ele>527.2</ele>
        <time>2025-12-28T09:11:40.000Z</time>
      </trkpt>
      <trkpt lat="43.03645" lon="1.17753">
        <ele>527.2</ele>
        <time>2025-12-28T09:11:41.000Z</time>
      </trkpt>
      <trkpt lat="43.03643" lon="1.17748">
        <ele>527.2</ele>
        <time>2025-12-28T09:11:42.000Z</time>
      </trkpt>
      <trkpt lat="43.0364" lon="1.17744">
        <ele>527.3</ele>
        <time>2025-12-28T09:11:43.000Z</time>
      </trkpt>
      <trkpt lat="43.03638" lon="1.17738">
        <ele>527.4</ele>
        <time>2025-12-28T09:11:44.000Z</time>
      </trkpt>
      <trkpt lat="43.03635" lon="1.17732">
        <ele>527.8</ele>
        <time>2025-12-28T09:11:45.000Z</time>
      </trkpt>
      <trkpt lat="43.03633" lon="1.17726">
        <ele>527.8</ele>
        <time>2025-12-28T09:11:46.000Z</time>
      </trkpt>
      <trkpt lat="43.0363" lon="1.17721">
        <ele>528.1</ele>
        <time>2025-12-28T09:11:47.000Z</time>
      </trkpt>
      <trkpt lat="43.03628" lon="1.17715">
        <ele>528.5</ele>
        <time>2025-12-28T09:11:48.000Z</time>
      </trkpt>
      <trkpt lat="43.03625" lon="1.17709">
        <ele>528.6</ele>
        <time>2025-12-28T09:11:49.000Z</time>
      </trkpt>
      <trkpt lat="43.03623" lon="1.17703">
        <ele>528.9</ele>
        <time>2025-12-28T09:11:50.000Z</time>
      </trkpt>
      <trkpt lat="43.03621" lon="1.17696">
        <ele>529.2</ele>
        <time>2025-12-28T09:11:51.000Z</time>
      </trkpt>
      <trkpt lat="43.03619" lon="1.17689">
        <ele>529.5</ele>
        <time>2025-12-28T09:11:52.000Z</time>
      </trkpt>
      <trkpt lat="43.03617" lon="1.17682">
        <ele>529.7</ele>
        <time>2025-12-28T09:11:53.000Z</time>
      </trkpt>
      <trkpt lat="43.03615" lon="1.17675">
        <ele>529.7</ele>
        <time>2025-12-28T09:11:54.000Z</time>
      </trkpt>
      <trkpt lat="43.03612" lon="1.17669">
        <ele>530</ele>
        <time>2025-12-28T09:11:55.000Z</time>
      </trkpt>
      <trkpt lat="43.03611" lon="1.17662">
        <ele>529.7</ele>
        <time>2025-12-28T09:11:56.000Z</time>
      </trkpt>
      <trkpt lat="43.03609" lon="1.17656">
        <ele>529.8</ele>
        <time>2025-12-28T09:11:57.000Z</time>
      </trkpt>
      <trkpt lat="43.03606" lon="1.17649">
        <ele>530.2</ele>
        <time>2025-12-28T09:11:58.000Z</time>
      </trkpt>
      <trkpt lat="43.03604" lon="1.17643">
        <ele>530.5</ele>
        <time>2025-12-28T09:11:59.000Z</time>
      </trkpt>
      <trkpt lat="43.03602" lon="1.17636">
        <ele>530.8</ele>
        <time>2025-12-28T09:12:00.000Z</time>
      </trkpt>
      <trkpt lat="43.036" lon="1.1763">
        <ele>530.8</ele>
        <time>2025-12-28T09:12:01.000Z</time>
      </trkpt>
      <trkpt lat="43.03597" lon="1.17623">
        <ele>531.1</ele>
        <time>2025-12-28T09:12:02.000Z</time>
      </trkpt>
      <trkpt lat="43.03595" lon="1.17616">
        <ele>531.1</ele>
        <time>2025-12-28T09:12:03.000Z</time>
      </trkpt>
      <trkpt lat="43.03593" lon="1.17609">
        <ele>531</ele>
        <time>2025-12-28T09:12:04.000Z</time>
      </trkpt>
      <trkpt lat="43.03591" lon="1.17601">
        <ele>530.9</ele>
        <time>2025-12-28T09:12:05.000Z</time>
      </trkpt>
      <trkpt lat="43.03589" lon="1.17595">
        <ele>530.6</ele>
        <time>2025-12-28T09:12:06.000Z</time>
      </trkpt>
      <trkpt lat="43.03586" lon="1.17588">
        <ele>531.2</ele>
        <time>2025-12-28T09:12:07.000Z</time>
      </trkpt>
      <trkpt lat="43.03583" lon="1.17581">
        <ele>531.1</ele>
        <time>2025-12-28T09:12:08.000Z</time>
      </trkpt>
      <trkpt lat="43.03581" lon="1.17573">
        <ele>531</ele>
        <time>2025-12-28T09:12:09.000Z</time>
      </trkpt>
      <trkpt lat="43.0358" lon="1.17568">
        <ele>532.4</ele>
        <time>2025-12-28T09:12:10.000Z</time>
      </trkpt>
      <trkpt lat="43.03577" lon="1.1756">
        <ele>532.7</ele>
        <time>2025-12-28T09:12:11.000Z</time>
      </trkpt>
      <trkpt lat="43.03575" lon="1.17554">
        <ele>533</ele>
        <time>2025-12-28T09:12:12.000Z</time>
      </trkpt>
      <trkpt lat="43.03574" lon="1.17547">
        <ele>532.5</ele>
        <time>2025-12-28T09:12:13.000Z</time>
      </trkpt>
      <trkpt lat="43.03572" lon="1.1754">
        <ele>533</ele>
        <time>2025-12-28T09:12:14.000Z</time>
      </trkpt>
      <trkpt lat="43.03569" lon="1.17533">
        <ele>533.2</ele>
        <time>2025-12-28T09:12:15.000Z</time>
      </trkpt>
      <trkpt lat="43.03567" lon="1.17526">
        <ele>533</ele>
        <time>2025-12-28T09:12:16.000Z</time>
      </trkpt>
      <trkpt lat="43.03565" lon="1.1752">
        <ele>533.2</ele>
        <time>2025-12-28T09:12:17.000Z</time>
      </trkpt>
      <trkpt lat="43.03562" lon="1.17513">
        <ele>534</ele>
        <time>2025-12-28T09:12:18.000Z</time>
      </trkpt>
      <trkpt lat="43.0356" lon="1.17506">
        <ele>534.2</ele>
        <time>2025-12-28T09:12:19.000Z</time>
      </trkpt>
      <trkpt lat="43.03558" lon="1.17499">
        <ele>534.3</ele>
        <time>2025-12-28T09:12:20.000Z</time>
      </trkpt>
      <trkpt lat="43.03556" lon="1.17491">
        <ele>534.8</ele>
        <time>2025-12-28T09:12:21.000Z</time>
      </trkpt>
      <trkpt lat="43.03553" lon="1.17484">
        <ele>534.7</ele>
        <time>2025-12-28T09:12:22.000Z</time>
      </trkpt>
      <trkpt lat="43.03551" lon="1.17477">
        <ele>535.1</ele>
        <time>2025-12-28T09:12:23.000Z</time>
      </trkpt>
      <trkpt lat="43.03548" lon="1.1747">
        <ele>535.5</ele>
        <time>2025-12-28T09:12:24.000Z</time>
      </trkpt>
      <trkpt lat="43.03546" lon="1.17464">
        <ele>535.6</ele>
        <time>2025-12-28T09:12:25.000Z</time>
      </trkpt>
      <trkpt lat="43.03544" lon="1.17457">
        <ele>536.6</ele>
        <time>2025-12-28T09:12:26.000Z</time>
      </trkpt>
      <trkpt lat="43.03541" lon="1.17451">
        <ele>536.7</ele>
        <time>2025-12-28T09:12:27.000Z</time>
      </trkpt>
      <trkpt lat="43.03539" lon="1.17444">
        <ele>537.7</ele>
        <time>2025-12-28T09:12:28.000Z</time>
      </trkpt>
      <trkpt lat="43.03537" lon="1.17437">
        <ele>538.4</ele>
        <time>2025-12-28T09:12:29.000Z</time>
      </trkpt>
      <trkpt lat="43.03534" lon="1.1743">
        <ele>538.1</ele>
        <time>2025-12-28T09:12:30.000Z</time>
      </trkpt>
      <trkpt lat="43.03532" lon="1.17423">
        <ele>537.9</ele>
        <time>2025-12-28T09:12:31.000Z</time>
      </trkpt>
      <trkpt lat="43.0353" lon="1.17417">
        <ele>537.9</ele>
        <time>2025-12-28T09:12:32.000Z</time>
      </trkpt>
      <trkpt lat="43.03528" lon="1.17411">
        <ele>537.9</ele>
        <time>2025-12-28T09:12:33.000Z</time>
      </trkpt>
      <trkpt lat="43.03526" lon="1.17405">
        <ele>538</ele>
        <time>2025-12-28T09:12:34.000Z</time>
      </trkpt>
      <trkpt lat="43.03525" lon="1.17399">
        <ele>538.1</ele>
        <time>2025-12-28T09:12:35.000Z</time>
      </trkpt>
      <trkpt lat="43.03523" lon="1.17394">
        <ele>538.5</ele>
        <time>2025-12-28T09:12:36.000Z</time>
      </trkpt>
      <trkpt lat="43.03522" lon="1.17387">
        <ele>538.3</ele>
        <time>2025-12-28T09:12:37.000Z</time>
      </trkpt>
      <trkpt lat="43.03521" lon="1.1738">
        <ele>538.7</ele>
        <time>2025-12-28T09:12:38.000Z</time>
      </trkpt>
      <trkpt lat="43.03521" lon="1.17373">
        <ele>539.1</ele>
        <time>2025-12-28T09:12:39.000Z</time>
      </trkpt>
      <trkpt lat="43.03522" lon="1.17365">
        <ele>539.1</ele>
        <time>2025-12-28T09:12:40.000Z</time>
      </trkpt>
      <trkpt lat="43.03523" lon="1.17359">
        <ele>539</ele>
        <time>2025-12-28T09:12:41.000Z</time>
      </trkpt>
      <trkpt lat="43.03522" lon="1.17353">
        <ele>538.6</ele>
        <time>2025-12-28T09:12:42.000Z</time>
      </trkpt>
      <trkpt lat="43.03521" lon="1.17351">
        <ele>538.8</ele>
        <time>2025-12-28T09:12:43.000Z</time>
      </trkpt>
      <trkpt lat="43.03519" lon="1.1735">
        <ele>538.4</ele>
        <time>2025-12-28T09:12:44.000Z</time>
      </trkpt>
      <trkpt lat="43.03519" lon="1.17348">
        <ele>537</ele>
        <time>2025-12-28T09:12:45.000Z</time>
      </trkpt>
      <trkpt lat="43.03515" lon="1.17348">
        <ele>536.9</ele>
        <time>2025-12-28T09:12:46.000Z</time>
      </trkpt>
      <trkpt lat="43.0351" lon="1.17348">
        <ele>537.4</ele>
        <time>2025-12-28T09:12:47.000Z</time>
      </trkpt>
      <trkpt lat="43.03506" lon="1.1735">
        <ele>537</ele>
        <time>2025-12-28T09:12:48.000Z</time>
      </trkpt>
      <trkpt lat="43.03502" lon="1.1735">
        <ele>537.6</ele>
        <time>2025-12-28T09:12:49.000Z</time>
      </trkpt>
      <trkpt lat="43.03498" lon="1.1735">
        <ele>537.9</ele>
        <time>2025-12-28T09:12:50.000Z</time>
      </trkpt>
      <trkpt lat="43.03493" lon="1.17351">
        <ele>537.5</ele>
        <time>2025-12-28T09:12:51.000Z</time>
      </trkpt>
      <trkpt lat="43.03489" lon="1.17352">
        <ele>536.7</ele>
        <time>2025-12-28T09:12:52.000Z</time>
      </trkpt>
      <trkpt lat="43.03485" lon="1.1735">
        <ele>537.1</ele>
        <time>2025-12-28T09:12:53.000Z</time>
      </trkpt>
      <trkpt lat="43.03481" lon="1.17348">
        <ele>536.9</ele>
        <time>2025-12-28T09:12:54.000Z</time>
      </trkpt>
      <trkpt lat="43.03476" lon="1.17347">
        <ele>537.2</ele>
        <time>2025-12-28T09:12:55.000Z</time>
      </trkpt>
      <trkpt lat="43.03472" lon="1.17345">
        <ele>537.8</ele>
        <time>2025-12-28T09:12:56.000Z</time>
      </trkpt>
      <trkpt lat="43.03468" lon="1.17344">
        <ele>537.4</ele>
        <time>2025-12-28T09:12:57.000Z</time>
      </trkpt>
      <trkpt lat="43.03465" lon="1.17342">
        <ele>537.7</ele>
        <time>2025-12-28T09:12:58.000Z</time>
      </trkpt>
      <trkpt lat="43.03462" lon="1.17341">
        <ele>538.2</ele>
        <time>2025-12-28T09:12:59.000Z</time>
      </trkpt>
      <trkpt lat="43.03459" lon="1.17338">
        <ele>538.1</ele>
        <time>2025-12-28T09:13:00.000Z</time>
      </trkpt>
      <trkpt lat="43.03456" lon="1.17336">
        <ele>538</ele>
        <time>2025-12-28T09:13:01.000Z</time>
      </trkpt>
      <trkpt lat="43.03453" lon="1.17334">
        <ele>537.7</ele>
        <time>2025-12-28T09:13:02.000Z</time>
      </trkpt>
      <trkpt lat="43.03451" lon="1.17334">
        <ele>537.6</ele>
        <time>2025-12-28T09:13:03.000Z</time>
      </trkpt>
      <trkpt lat="43.03449" lon="1.17338">
        <ele>537.4</ele>
        <time>2025-12-28T09:13:04.000Z</time>
      </trkpt>
      <trkpt lat="43.03448" lon="1.17344">
        <ele>537.4</ele>
        <time>2025-12-28T09:13:05.000Z</time>
      </trkpt>
      <trkpt lat="43.03446" lon="1.17349">
        <ele>537.1</ele>
        <time>2025-12-28T09:13:06.000Z</time>
      </trkpt>
      <trkpt lat="43.03444" lon="1.17354">
        <ele>536.8</ele>
        <time>2025-12-28T09:13:07.000Z</time>
      </trkpt>
      <trkpt lat="43.03442" lon="1.17358">
        <ele>537</ele>
        <time>2025-12-28T09:13:08.000Z</time>
      </trkpt>
      <trkpt lat="43.03441" lon="1.17363">
        <ele>536.6</ele>
        <time>2025-12-28T09:13:09.000Z</time>
      </trkpt>
      <trkpt lat="43.03438" lon="1.17368">
        <ele>536.7</ele>
        <time>2025-12-28T09:13:10.000Z</time>
      </trkpt>
      <trkpt lat="43.03435" lon="1.17372">
        <ele>536.6</ele>
        <time>2025-12-28T09:13:11.000Z</time>
      </trkpt>
      <trkpt lat="43.03433" lon="1.17376">
        <ele>536.1</ele>
        <time>2025-12-28T09:13:12.000Z</time>
      </trkpt>
      <trkpt lat="43.03431" lon="1.17381">
        <ele>535.7</ele>
        <time>2025-12-28T09:13:13.000Z</time>
      </trkpt>
      <trkpt lat="43.03429" lon="1.17386">
        <ele>535.4</ele>
        <time>2025-12-28T09:13:14.000Z</time>
      </trkpt>
      <trkpt lat="43.03427" lon="1.1739">
        <ele>535.1</ele>
        <time>2025-12-28T09:13:15.000Z</time>
      </trkpt>
      <trkpt lat="43.03424" lon="1.17396">
        <ele>535</ele>
        <time>2025-12-28T09:13:16.000Z</time>
      </trkpt>
      <trkpt lat="43.03422" lon="1.17402">
        <ele>535.4</ele>
        <time>2025-12-28T09:13:17.000Z</time>
      </trkpt>
      <trkpt lat="43.0342" lon="1.17408">
        <ele>535.2</ele>
        <time>2025-12-28T09:13:18.000Z</time>
      </trkpt>
      <trkpt lat="43.03419" lon="1.17415">
        <ele>535.2</ele>
        <time>2025-12-28T09:13:19.000Z</time>
      </trkpt>
      <trkpt lat="43.03418" lon="1.17422">
        <ele>535.2</ele>
        <time>2025-12-28T09:13:20.000Z</time>
      </trkpt>
      <trkpt lat="43.03418" lon="1.1743">
        <ele>535.4</ele>
        <time>2025-12-28T09:13:21.000Z</time>
      </trkpt>
      <trkpt lat="43.03418" lon="1.17436">
        <ele>536</ele>
        <time>2025-12-28T09:13:22.000Z</time>
      </trkpt>
      <trkpt lat="43.03418" lon="1.17444">
        <ele>535.9</ele>
        <time>2025-12-28T09:13:23.000Z</time>
      </trkpt>
      <trkpt lat="43.03418" lon="1.17451">
        <ele>535.8</ele>
        <time>2025-12-28T09:13:24.000Z</time>
      </trkpt>
      <trkpt lat="43.03419" lon="1.17458">
        <ele>535.9</ele>
        <time>2025-12-28T09:13:25.000Z</time>
      </trkpt>
      <trkpt lat="43.03419" lon="1.17466">
        <ele>536</ele>
        <time>2025-12-28T09:13:26.000Z</time>
      </trkpt>
      <trkpt lat="43.03419" lon="1.17473">
        <ele>536.7</ele>
        <time>2025-12-28T09:13:27.000Z</time>
      </trkpt>
      <trkpt lat="43.0342" lon="1.17479">
        <ele>537.1</ele>
        <time>2025-12-28T09:13:28.000Z</time>
      </trkpt>
      <trkpt lat="43.0342" lon="1.17486">
        <ele>537.3</ele>
        <time>2025-12-28T09:13:29.000Z</time>
      </trkpt>
      <trkpt lat="43.03421" lon="1.17493">
        <ele>537.7</ele>
        <time>2025-12-28T09:13:30.000Z</time>
      </trkpt>
      <trkpt lat="43.03421" lon="1.17499">
        <ele>537.5</ele>
        <time>2025-12-28T09:13:31.000Z</time>
      </trkpt>
      <trkpt lat="43.03421" lon="1.17506">
        <ele>538</ele>
        <time>2025-12-28T09:13:32.000Z</time>
      </trkpt>
      <trkpt lat="43.03421" lon="1.17513">
        <ele>537.7</ele>
        <time>2025-12-28T09:13:33.000Z</time>
      </trkpt>
      <trkpt lat="43.03421" lon="1.1752">
        <ele>537.7</ele>
        <time>2025-12-28T09:13:34.000Z</time>
      </trkpt>
      <trkpt lat="43.03421" lon="1.17526">
        <ele>537.5</ele>
        <time>2025-12-28T09:13:35.000Z</time>
      </trkpt>
      <trkpt lat="43.03422" lon="1.17533">
        <ele>537.1</ele>
        <time>2025-12-28T09:13:36.000Z</time>
      </trkpt>
      <trkpt lat="43.03422" lon="1.1754">
        <ele>536.9</ele>
        <time>2025-12-28T09:13:37.000Z</time>
      </trkpt>
      <trkpt lat="43.03423" lon="1.17547">
        <ele>536.7</ele>
        <time>2025-12-28T09:13:38.000Z</time>
      </trkpt>
      <trkpt lat="43.03425" lon="1.17554">
        <ele>536.9</ele>
        <time>2025-12-28T09:13:39.000Z</time>
      </trkpt>
      <trkpt lat="43.03427" lon="1.17562">
        <ele>536.7</ele>
        <time>2025-12-28T09:13:40.000Z</time>
      </trkpt>
      <trkpt lat="43.03429" lon="1.17569">
        <ele>536.2</ele>
        <time>2025-12-28T09:13:41.000Z</time>
      </trkpt>
      <trkpt lat="43.03432" lon="1.17576">
        <ele>536.1</ele>
        <time>2025-12-28T09:13:42.000Z</time>
      </trkpt>
      <trkpt lat="43.03434" lon="1.17583">
        <ele>536</ele>
        <time>2025-12-28T09:13:43.000Z</time>
      </trkpt>
      <trkpt lat="43.03436" lon="1.1759">
        <ele>535.3</ele>
        <time>2025-12-28T09:13:44.000Z</time>
      </trkpt>
      <trkpt lat="43.03438" lon="1.17597">
        <ele>535.3</ele>
        <time>2025-12-28T09:13:45.000Z</time>
      </trkpt>
      <trkpt lat="43.0344" lon="1.17605">
        <ele>535.1</ele>
        <time>2025-12-28T09:13:46.000Z</time>
      </trkpt>
      <trkpt lat="43.03442" lon="1.17613">
        <ele>534.8</ele>
        <time>2025-12-28T09:13:47.000Z</time>
      </trkpt>
      <trkpt lat="43.03443" lon="1.17621">
        <ele>535.1</ele>
        <time>2025-12-28T09:13:48.000Z</time>
      </trkpt>
      <trkpt lat="43.03444" lon="1.17628">
        <ele>535.3</ele>
        <time>2025-12-28T09:13:49.000Z</time>
      </trkpt>
      <trkpt lat="43.03445" lon="1.17636">
        <ele>535.7</ele>
        <time>2025-12-28T09:13:50.000Z</time>
      </trkpt>
      <trkpt lat="43.03445" lon="1.17643">
        <ele>534.9</ele>
        <time>2025-12-28T09:13:51.000Z</time>
      </trkpt>
      <trkpt lat="43.03447" lon="1.1765">
        <ele>534.6</ele>
        <time>2025-12-28T09:13:52.000Z</time>
      </trkpt>
      <trkpt lat="43.03449" lon="1.17658">
        <ele>534.5</ele>
        <time>2025-12-28T09:13:53.000Z</time>
      </trkpt>
      <trkpt lat="43.03452" lon="1.17665">
        <ele>534.6</ele>
        <time>2025-12-28T09:13:54.000Z</time>
      </trkpt>
      <trkpt lat="43.03454" lon="1.1767">
        <ele>534.4</ele>
        <time>2025-12-28T09:13:55.000Z</time>
      </trkpt>
      <trkpt lat="43.03457" lon="1.17677">
        <ele>534.6</ele>
        <time>2025-12-28T09:13:56.000Z</time>
      </trkpt>
      <trkpt lat="43.0346" lon="1.17684">
        <ele>535.1</ele>
        <time>2025-12-28T09:13:57.000Z</time>
      </trkpt>
      <trkpt lat="43.03463" lon="1.17691">
        <ele>535.4</ele>
        <time>2025-12-28T09:13:58.000Z</time>
      </trkpt>
      <trkpt lat="43.03466" lon="1.17697">
        <ele>536</ele>
        <time>2025-12-28T09:13:59.000Z</time>
      </trkpt>
      <trkpt lat="43.03469" lon="1.17704">
        <ele>536.4</ele>
        <time>2025-12-28T09:14:00.000Z</time>
      </trkpt>
      <trkpt lat="43.03472" lon="1.17709">
        <ele>536.6</ele>
        <time>2025-12-28T09:14:01.000Z</time>
      </trkpt>
      <trkpt lat="43.03474" lon="1.17716">
        <ele>536.7</ele>
        <time>2025-12-28T09:14:02.000Z</time>
      </trkpt>
      <trkpt lat="43.03477" lon="1.17722">
        <ele>536.9</ele>
        <time>2025-12-28T09:14:03.000Z</time>
      </trkpt>
      <trkpt lat="43.0348" lon="1.17727">
        <ele>536.9</ele>
        <time>2025-12-28T09:14:04.000Z</time>
      </trkpt>
      <trkpt lat="43.03483" lon="1.17733">
        <ele>537.2</ele>
        <time>2025-12-28T09:14:05.000Z</time>
      </trkpt>
      <trkpt lat="43.03485" lon="1.17738">
        <ele>537.3</ele>
        <time>2025-12-28T09:14:06.000Z</time>
      </trkpt>
      <trkpt lat="43.03488" lon="1.17743">
        <ele>537.8</ele>
        <time>2025-12-28T09:14:07.000Z</time>
      </trkpt>
      <trkpt lat="43.0349" lon="1.17748">
        <ele>538.1</ele>
        <time>2025-12-28T09:14:08.000Z</time>
      </trkpt>
      <trkpt lat="43.03493" lon="1.17753">
        <ele>538.3</ele>
        <time>2025-12-28T09:14:09.000Z</time>
      </trkpt>
      <trkpt lat="43.03495" lon="1.17757">
        <ele>538.5</ele>
        <time>2025-12-28T09:14:10.000Z</time>
      </trkpt>
      <trkpt lat="43.03497" lon="1.17763">
        <ele>538.4</ele>
        <time>2025-12-28T09:14:11.000Z</time>
      </trkpt>
      <trkpt lat="43.03498" lon="1.17768">
        <ele>539</ele>
        <time>2025-12-28T09:14:12.000Z</time>
      </trkpt>
      <trkpt lat="43.03499" lon="1.17773">
        <ele>539.6</ele>
        <time>2025-12-28T09:14:13.000Z</time>
      </trkpt>
      <trkpt lat="43.035" lon="1.17779">
        <ele>539.3</ele>
        <time>2025-12-28T09:14:14.000Z</time>
      </trkpt>
      <trkpt lat="43.035" lon="1.17785">
        <ele>538.8</ele>
        <time>2025-12-28T09:14:15.000Z</time>
      </trkpt>
      <trkpt lat="43.035" lon="1.17788">
        <ele>539.3</ele>
        <time>2025-12-28T09:14:16.000Z</time>
      </trkpt>
      <trkpt lat="43.035" lon="1.17792">
        <ele>540.1</ele>
        <time>2025-12-28T09:14:17.000Z</time>
      </trkpt>
      <trkpt lat="43.035" lon="1.17795">
        <ele>541.8</ele>
        <time>2025-12-28T09:14:18.000Z</time>
      </trkpt>
      <trkpt lat="43.03501" lon="1.17799">
        <ele>542.4</ele>
        <time>2025-12-28T09:14:19.000Z</time>
      </trkpt>
      <trkpt lat="43.03501" lon="1.17803">
        <ele>542.1</ele>
        <time>2025-12-28T09:14:20.000Z</time>
      </trkpt>
      <trkpt lat="43.03501" lon="1.17807">
        <ele>541.8</ele>
        <time>2025-12-28T09:14:21.000Z</time>
      </trkpt>
      <trkpt lat="43.03501" lon="1.1781">
        <ele>542.7</ele>
        <time>2025-12-28T09:14:22.000Z</time>
      </trkpt>
      <trkpt lat="43.03503" lon="1.17814">
        <ele>542.3</ele>
        <time>2025-12-28T09:14:23.000Z</time>
      </trkpt>
      <trkpt lat="43.03505" lon="1.17818">
        <ele>542.9</ele>
        <time>2025-12-28T09:14:24.000Z</time>
      </trkpt>
      <trkpt lat="43.03507" lon="1.17822">
        <ele>542.9</ele>
        <time>2025-12-28T09:14:25.000Z</time>
      </trkpt>
      <trkpt lat="43.03509" lon="1.17826">
        <ele>542.5</ele>
        <time>2025-12-28T09:14:26.000Z</time>
      </trkpt>
      <trkpt lat="43.03511" lon="1.17829">
        <ele>542.1</ele>
        <time>2025-12-28T09:14:27.000Z</time>
      </trkpt>
      <trkpt lat="43.03512" lon="1.17832">
        <ele>542.5</ele>
        <time>2025-12-28T09:14:28.000Z</time>
      </trkpt>
      <trkpt lat="43.03514" lon="1.17836">
        <ele>542.3</ele>
        <time>2025-12-28T09:14:29.000Z</time>
      </trkpt>
      <trkpt lat="43.03516" lon="1.17841">
        <ele>543.6</ele>
        <time>2025-12-28T09:14:30.000Z</time>
      </trkpt>
      <trkpt lat="43.03517" lon="1.17845">
        <ele>543.4</ele>
        <time>2025-12-28T09:14:31.000Z</time>
      </trkpt>
      <trkpt lat="43.03518" lon="1.1785">
        <ele>543.2</ele>
        <time>2025-12-28T09:14:32.000Z</time>
      </trkpt>
      <trkpt lat="43.03519" lon="1.17855">
        <ele>543</ele>
        <time>2025-12-28T09:14:33.000Z</time>
      </trkpt>
      <trkpt lat="43.03519" lon="1.17859">
        <ele>543.7</ele>
        <time>2025-12-28T09:14:34.000Z</time>
      </trkpt>
      <trkpt lat="43.0352" lon="1.17864">
        <ele>544</ele>
        <time>2025-12-28T09:14:35.000Z</time>
      </trkpt>
      <trkpt lat="43.03521" lon="1.17869">
        <ele>544.6</ele>
        <time>2025-12-28T09:14:36.000Z</time>
      </trkpt>
      <trkpt lat="43.03522" lon="1.17873">
        <ele>545.4</ele>
        <time>2025-12-28T09:14:37.000Z</time>
      </trkpt>
      <trkpt lat="43.03522" lon="1.17878">
        <ele>545.8</ele>
        <time>2025-12-28T09:14:38.000Z</time>
      </trkpt>
      <trkpt lat="43.03523" lon="1.17883">
        <ele>545.8</ele>
        <time>2025-12-28T09:14:39.000Z</time>
      </trkpt>
      <trkpt lat="43.03524" lon="1.17887">
        <ele>546</ele>
        <time>2025-12-28T09:14:40.000Z</time>
      </trkpt>
      <trkpt lat="43.03525" lon="1.17892">
        <ele>546.2</ele>
        <time>2025-12-28T09:14:41.000Z</time>
      </trkpt>
      <trkpt lat="43.03525" lon="1.17896">
        <ele>546.7</ele>
        <time>2025-12-28T09:14:42.000Z</time>
      </trkpt>
      <trkpt lat="43.03526" lon="1.179">
        <ele>547.2</ele>
        <time>2025-12-28T09:14:43.000Z</time>
      </trkpt>
      <trkpt lat="43.03527" lon="1.17905">
        <ele>547.5</ele>
        <time>2025-12-28T09:14:44.000Z</time>
      </trkpt>
      <trkpt lat="43.03527" lon="1.1791">
        <ele>547.9</ele>
        <time>2025-12-28T09:14:45.000Z</time>
      </trkpt>
      <trkpt lat="43.03527" lon="1.17914">
        <ele>548</ele>
        <time>2025-12-28T09:14:46.000Z</time>
      </trkpt>
      <trkpt lat="43.03528" lon="1.17919">
        <ele>548.2</ele>
        <time>2025-12-28T09:14:47.000Z</time>
      </trkpt>
      <trkpt lat="43.03528" lon="1.17924">
        <ele>548.8</ele>
        <time>2025-12-28T09:14:48.000Z</time>
      </trkpt>
      <trkpt lat="43.03528" lon="1.17928">
        <ele>549.7</ele>
        <time>2025-12-28T09:14:49.000Z</time>
      </trkpt>
      <trkpt lat="43.03528" lon="1.17933">
        <ele>549.6</ele>
        <time>2025-12-28T09:14:50.000Z</time>
      </trkpt>
      <trkpt lat="43.03527" lon="1.17937">
        <ele>549.7</ele>
        <time>2025-12-28T09:14:51.000Z</time>
      </trkpt>
      <trkpt lat="43.03527" lon="1.17941">
        <ele>549.8</ele>
        <time>2025-12-28T09:14:52.000Z</time>
      </trkpt>
      <trkpt lat="43.03527" lon="1.17946">
        <ele>550.6</ele>
        <time>2025-12-28T09:14:53.000Z</time>
      </trkpt>
      <trkpt lat="43.03527" lon="1.1795">
        <ele>551</ele>
        <time>2025-12-28T09:14:54.000Z</time>
      </trkpt>
      <trkpt lat="43.03526" lon="1.17954">
        <ele>551.7</ele>
        <time>2025-12-28T09:14:55.000Z</time>
      </trkpt>
      <trkpt lat="43.03526" lon="1.17959">
        <ele>552.2</ele>
        <time>2025-12-28T09:14:56.000Z</time>
      </trkpt>
      <trkpt lat="43.03526" lon="1.17964">
        <ele>552.3</ele>
        <time>2025-12-28T09:14:57.000Z</time>
      </trkpt>
      <trkpt lat="43.03525" lon="1.17969">
        <ele>552.6</ele>
        <time>2025-12-28T09:14:58.000Z</time>
      </trkpt>
      <trkpt lat="43.03524" lon="1.17973">
        <ele>554.2</ele>
        <time>2025-12-28T09:14:59.000Z</time>
      </trkpt>
      <trkpt lat="43.03524" lon="1.17976">
        <ele>554.5</ele>
        <time>2025-12-28T09:15:00.000Z</time>
      </trkpt>
      <trkpt lat="43.03523" lon="1.1798">
        <ele>554.8</ele>
        <time>2025-12-28T09:15:01.000Z</time>
      </trkpt>
      <trkpt lat="43.03521" lon="1.17983">
        <ele>554.9</ele>
        <time>2025-12-28T09:15:02.000Z</time>
      </trkpt>
      <trkpt lat="43.0352" lon="1.17987">
        <ele>555.3</ele>
        <time>2025-12-28T09:15:03.000Z</time>
      </trkpt>
      <trkpt lat="43.03519" lon="1.17991">
        <ele>556.1</ele>
        <time>2025-12-28T09:15:04.000Z</time>
      </trkpt>
      <trkpt lat="43.03517" lon="1.17995">
        <ele>555.7</ele>
        <time>2025-12-28T09:15:05.000Z</time>
      </trkpt>
      <trkpt lat="43.03516" lon="1.17999">
        <ele>556.4</ele>
        <time>2025-12-28T09:15:06.000Z</time>
      </trkpt>
      <trkpt lat="43.03515" lon="1.18004">
        <ele>556.7</ele>
        <time>2025-12-28T09:15:07.000Z</time>
      </trkpt>
      <trkpt lat="43.03513" lon="1.18008">
        <ele>556</ele>
        <time>2025-12-28T09:15:08.000Z</time>
      </trkpt>
      <trkpt lat="43.03512" lon="1.18012">
        <ele>555.5</ele>
        <time>2025-12-28T09:15:09.000Z</time>
      </trkpt>
      <trkpt lat="43.03511" lon="1.18016">
        <ele>555.7</ele>
        <time>2025-12-28T09:15:10.000Z</time>
      </trkpt>
      <trkpt lat="43.0351" lon="1.1802">
        <ele>556.3</ele>
        <time>2025-12-28T09:15:11.000Z</time>
      </trkpt>
      <trkpt lat="43.03508" lon="1.18024">
        <ele>556.7</ele>
        <time>2025-12-28T09:15:12.000Z</time>
      </trkpt>
      <trkpt lat="43.03507" lon="1.18028">
        <ele>556.6</ele>
        <time>2025-12-28T09:15:13.000Z</time>
      </trkpt>
      <trkpt lat="43.03506" lon="1.18032">
        <ele>557.2</ele>
        <time>2025-12-28T09:15:14.000Z</time>
      </trkpt>
      <trkpt lat="43.03505" lon="1.18036">
        <ele>557.2</ele>
        <time>2025-12-28T09:15:15.000Z</time>
      </trkpt>
      <trkpt lat="43.03503" lon="1.1804">
        <ele>557.7</ele>
        <time>2025-12-28T09:15:16.000Z</time>
      </trkpt>
      <trkpt lat="43.03502" lon="1.18044">
        <ele>557.8</ele>
        <time>2025-12-28T09:15:17.000Z</time>
      </trkpt>
      <trkpt lat="43.035" lon="1.18048">
        <ele>557.9</ele>
        <time>2025-12-28T09:15:18.000Z</time>
      </trkpt>
      <trkpt lat="43.03499" lon="1.18052">
        <ele>558.4</ele>
        <time>2025-12-28T09:15:19.000Z</time>
      </trkpt>
      <trkpt lat="43.03497" lon="1.18056">
        <ele>558.4</ele>
        <time>2025-12-28T09:15:20.000Z</time>
      </trkpt>
      <trkpt lat="43.03496" lon="1.1806">
        <ele>558.6</ele>
        <time>2025-12-28T09:15:21.000Z</time>
      </trkpt>
      <trkpt lat="43.03495" lon="1.18064">
        <ele>558.7</ele>
        <time>2025-12-28T09:15:22.000Z</time>
      </trkpt>
      <trkpt lat="43.03493" lon="1.18068">
        <ele>559</ele>
        <time>2025-12-28T09:15:23.000Z</time>
      </trkpt>
      <trkpt lat="43.03492" lon="1.18072">
        <ele>559.2</ele>
        <time>2025-12-28T09:15:24.000Z</time>
      </trkpt>
      <trkpt lat="43.03491" lon="1.18076">
        <ele>559.4</ele>
        <time>2025-12-28T09:15:25.000Z</time>
      </trkpt>
      <trkpt lat="43.03489" lon="1.1808">
        <ele>559.2</ele>
        <time>2025-12-28T09:15:26.000Z</time>
      </trkpt>
      <trkpt lat="43.03488" lon="1.18085">
        <ele>559.3</ele>
        <time>2025-12-28T09:15:27.000Z</time>
      </trkpt>
      <trkpt lat="43.03487" lon="1.18089">
        <ele>559.5</ele>
        <time>2025-12-28T09:15:28.000Z</time>
      </trkpt>
      <trkpt lat="43.03485" lon="1.18093">
        <ele>559.6</ele>
        <time>2025-12-28T09:15:29.000Z</time>
      </trkpt>
      <trkpt lat="43.03484" lon="1.18097">
        <ele>559.7</ele>
        <time>2025-12-28T09:15:30.000Z</time>
      </trkpt>
      <trkpt lat="43.03482" lon="1.181">
        <ele>560</ele>
        <time>2025-12-28T09:15:31.000Z</time>
      </trkpt>
      <trkpt lat="43.03481" lon="1.18104">
        <ele>559.8</ele>
        <time>2025-12-28T09:15:32.000Z</time>
      </trkpt>
      <trkpt lat="43.0348" lon="1.18107">
        <ele>559.7</ele>
        <time>2025-12-28T09:15:33.000Z</time>
      </trkpt>
      <trkpt lat="43.03479" lon="1.1811">
        <ele>559.7</ele>
        <time>2025-12-28T09:15:34.000Z</time>
      </trkpt>
      <trkpt lat="43.03477" lon="1.18112">
        <ele>560.2</ele>
        <time>2025-12-28T09:15:35.000Z</time>
      </trkpt>
      <trkpt lat="43.03474" lon="1.18112">
        <ele>561</ele>
        <time>2025-12-28T09:15:36.000Z</time>
      </trkpt>
      <trkpt lat="43.03471" lon="1.18111">
        <ele>561.9</ele>
        <time>2025-12-28T09:15:37.000Z</time>
      </trkpt>
      <trkpt lat="43.03469" lon="1.18109">
        <ele>561.8</ele>
        <time>2025-12-28T09:15:38.000Z</time>
      </trkpt>
      <trkpt lat="43.03468" lon="1.18107">
        <ele>562.4</ele>
        <time>2025-12-28T09:15:39.000Z</time>
      </trkpt>
      <trkpt lat="43.03467" lon="1.18105">
        <ele>563.2</ele>
        <time>2025-12-28T09:15:40.000Z</time>
      </trkpt>
      <trkpt lat="43.03465" lon="1.18103">
        <ele>563.1</ele>
        <time>2025-12-28T09:15:41.000Z</time>
      </trkpt>
      <trkpt lat="43.03463" lon="1.18101">
        <ele>561.9</ele>
        <time>2025-12-28T09:15:42.000Z</time>
      </trkpt>
      <trkpt lat="43.03461" lon="1.18098">
        <ele>561.3</ele>
        <time>2025-12-28T09:15:43.000Z</time>
      </trkpt>
      <trkpt lat="43.03458" lon="1.18096">
        <ele>561.7</ele>
        <time>2025-12-28T09:15:44.000Z</time>
      </trkpt>
      <trkpt lat="43.03456" lon="1.18093">
        <ele>561.7</ele>
        <time>2025-12-28T09:15:45.000Z</time>
      </trkpt>
      <trkpt lat="43.03453" lon="1.18091">
        <ele>561.5</ele>
        <time>2025-12-28T09:15:46.000Z</time>
      </trkpt>
      <trkpt lat="43.0345" lon="1.18088">
        <ele>560.7</ele>
        <time>2025-12-28T09:15:47.000Z</time>
      </trkpt>
      <trkpt lat="43.03447" lon="1.18086">
        <ele>561</ele>
        <time>2025-12-28T09:15:48.000Z</time>
      </trkpt>
      <trkpt lat="43.03444" lon="1.18083">
        <ele>561</ele>
        <time>2025-12-28T09:15:49.000Z</time>
      </trkpt>
      <trkpt lat="43.03441" lon="1.1808">
        <ele>560.9</ele>
        <time>2025-12-28T09:15:50.000Z</time>
      </trkpt>
      <trkpt lat="43.03438" lon="1.18078">
        <ele>560.3</ele>
        <time>2025-12-28T09:15:51.000Z</time>
      </trkpt>
      <trkpt lat="43.03435" lon="1.18075">
        <ele>559.2</ele>
        <time>2025-12-28T09:15:52.000Z</time>
      </trkpt>
      <trkpt lat="43.03432" lon="1.18071">
        <ele>558.8</ele>
        <time>2025-12-28T09:15:53.000Z</time>
      </trkpt>
      <trkpt lat="43.03429" lon="1.18068">
        <ele>557.6</ele>
        <time>2025-12-28T09:15:54.000Z</time>
      </trkpt>
      <trkpt lat="43.03426" lon="1.18065">
        <ele>556.5</ele>
        <time>2025-12-28T09:15:55.000Z</time>
      </trkpt>
      <trkpt lat="43.03424" lon="1.1806">
        <ele>556.4</ele>
        <time>2025-12-28T09:15:56.000Z</time>
      </trkpt>
      <trkpt lat="43.03422" lon="1.18057">
        <ele>556.2</ele>
        <time>2025-12-28T09:15:57.000Z</time>
      </trkpt>
      <trkpt lat="43.0342" lon="1.18053">
        <ele>556.4</ele>
        <time>2025-12-28T09:15:58.000Z</time>
      </trkpt>
      <trkpt lat="43.03418" lon="1.18048">
        <ele>557.3</ele>
        <time>2025-12-28T09:15:59.000Z</time>
      </trkpt>
      <trkpt lat="43.03416" lon="1.18044">
        <ele>558</ele>
        <time>2025-12-28T09:16:00.000Z</time>
      </trkpt>
      <trkpt lat="43.03414" lon="1.18041">
        <ele>556.8</ele>
        <time>2025-12-28T09:16:01.000Z</time>
      </trkpt>
      <trkpt lat="43.03411" lon="1.18037">
        <ele>555.7</ele>
        <time>2025-12-28T09:16:02.000Z</time>
      </trkpt>
      <trkpt lat="43.03408" lon="1.18034">
        <ele>554.5</ele>
        <time>2025-12-28T09:16:03.000Z</time>
      </trkpt>
      <trkpt lat="43.03405" lon="1.1803">
        <ele>553.5</ele>
        <time>2025-12-28T09:16:04.000Z</time>
      </trkpt>
      <trkpt lat="43.03402" lon="1.18026">
        <ele>551.7</ele>
        <time>2025-12-28T09:16:05.000Z</time>
      </trkpt>
      <trkpt lat="43.03398" lon="1.18023">
        <ele>552</ele>
        <time>2025-12-28T09:16:06.000Z</time>
      </trkpt>
      <trkpt lat="43.03392" lon="1.18019">
        <ele>551.3</ele>
        <time>2025-12-28T09:16:07.000Z</time>
      </trkpt>
      <trkpt lat="43.03389" lon="1.18016">
        <ele>552.1</ele>
        <time>2025-12-28T09:16:08.000Z</time>
      </trkpt>
      <trkpt lat="43.03385" lon="1.18013">
        <ele>553</ele>
        <time>2025-12-28T09:16:09.000Z</time>
      </trkpt>
      <trkpt lat="43.03381" lon="1.18009">
        <ele>553.9</ele>
        <time>2025-12-28T09:16:10.000Z</time>
      </trkpt>
      <trkpt lat="43.03376" lon="1.18006">
        <ele>553.5</ele>
        <time>2025-12-28T09:16:11.000Z</time>
      </trkpt>
      <trkpt lat="43.0337" lon="1.18">
        <ele>553</ele>
        <time>2025-12-28T09:16:12.000Z</time>
      </trkpt>
      <trkpt lat="43.0337" lon="1.17998">
        <ele>554.1</ele>
        <time>2025-12-28T09:16:13.000Z</time>
      </trkpt>
      <trkpt lat="43.03366" lon="1.17995">
        <ele>553.3</ele>
        <time>2025-12-28T09:16:14.000Z</time>
      </trkpt>
      <trkpt lat="43.03362" lon="1.17994">
        <ele>553.4</ele>
        <time>2025-12-28T09:16:15.000Z</time>
      </trkpt>
      <trkpt lat="43.03357" lon="1.17991">
        <ele>553</ele>
        <time>2025-12-28T09:16:16.000Z</time>
      </trkpt>
      <trkpt lat="43.03351" lon="1.1799">
        <ele>553.6</ele>
        <time>2025-12-28T09:16:17.000Z</time>
      </trkpt>
      <trkpt lat="43.03348" lon="1.17986">
        <ele>554.6</ele>
        <time>2025-12-28T09:16:18.000Z</time>
      </trkpt>
      <trkpt lat="43.03344" lon="1.17984">
        <ele>554.9</ele>
        <time>2025-12-28T09:16:19.000Z</time>
      </trkpt>
      <trkpt lat="43.03342" lon="1.17979">
        <ele>555.9</ele>
        <time>2025-12-28T09:16:20.000Z</time>
      </trkpt>
      <trkpt lat="43.0334" lon="1.17977">
        <ele>556.4</ele>
        <time>2025-12-28T09:16:21.000Z</time>
      </trkpt>
      <trkpt lat="43.03339" lon="1.17974">
        <ele>557.2</ele>
        <time>2025-12-28T09:16:22.000Z</time>
      </trkpt>
      <trkpt lat="43.03337" lon="1.17971">
        <ele>558</ele>
        <time>2025-12-28T09:16:23.000Z</time>
      </trkpt>
      <trkpt lat="43.03336" lon="1.17968">
        <ele>558.1</ele>
        <time>2025-12-28T09:16:24.000Z</time>
      </trkpt>
      <trkpt lat="43.03335" lon="1.17966">
        <ele>559.3</ele>
        <time>2025-12-28T09:16:25.000Z</time>
      </trkpt>
      <trkpt lat="43.03333" lon="1.17964">
        <ele>559.7</ele>
        <time>2025-12-28T09:16:26.000Z</time>
      </trkpt>
      <trkpt lat="43.03332" lon="1.17961">
        <ele>561.7</ele>
        <time>2025-12-28T09:16:27.000Z</time>
      </trkpt>
      <trkpt lat="43.03331" lon="1.17958">
        <ele>562.2</ele>
        <time>2025-12-28T09:16:28.000Z</time>
      </trkpt>
      <trkpt lat="43.03329" lon="1.17954">
        <ele>563.3</ele>
        <time>2025-12-28T09:16:29.000Z</time>
      </trkpt>
      <trkpt lat="43.03328" lon="1.17951">
        <ele>563.6</ele>
        <time>2025-12-28T09:16:30.000Z</time>
      </trkpt>
      <trkpt lat="43.03327" lon="1.17947">
        <ele>564</ele>
        <time>2025-12-28T09:16:31.000Z</time>
      </trkpt>
      <trkpt lat="43.03326" lon="1.17944">
        <ele>565.7</ele>
        <time>2025-12-28T09:16:32.000Z</time>
      </trkpt>
      <trkpt lat="43.03325" lon="1.17942">
        <ele>565.4</ele>
        <time>2025-12-28T09:16:33.000Z</time>
      </trkpt>
      <trkpt lat="43.03325" lon="1.17939">
        <ele>566.6</ele>
        <time>2025-12-28T09:16:34.000Z</time>
      </trkpt>
      <trkpt lat="43.03324" lon="1.17935">
        <ele>565.4</ele>
        <time>2025-12-28T09:16:35.000Z</time>
      </trkpt>
      <trkpt lat="43.03323" lon="1.17931">
        <ele>565.9</ele>
        <time>2025-12-28T09:16:36.000Z</time>
      </trkpt>
      <trkpt lat="43.03322" lon="1.17928">
        <ele>566.7</ele>
        <time>2025-12-28T09:16:37.000Z</time>
      </trkpt>
      <trkpt lat="43.03321" lon="1.17925">
        <ele>565.5</ele>
        <time>2025-12-28T09:16:38.000Z</time>
      </trkpt>
      <trkpt lat="43.03319" lon="1.17921">
        <ele>565.4</ele>
        <time>2025-12-28T09:16:39.000Z</time>
      </trkpt>
      <trkpt lat="43.03318" lon="1.17918">
        <ele>566</ele>
        <time>2025-12-28T09:16:40.000Z</time>
      </trkpt>
      <trkpt lat="43.03317" lon="1.17913">
        <ele>567</ele>
        <time>2025-12-28T09:16:41.000Z</time>
      </trkpt>
      <trkpt lat="43.03315" lon="1.17908">
        <ele>565.9</ele>
        <time>2025-12-28T09:16:42.000Z</time>
      </trkpt>
      <trkpt lat="43.03313" lon="1.17903">
        <ele>566.5</ele>
        <time>2025-12-28T09:16:43.000Z</time>
      </trkpt>
      <trkpt lat="43.0331" lon="1.17897">
        <ele>565.2</ele>
        <time>2025-12-28T09:16:44.000Z</time>
      </trkpt>
      <trkpt lat="43.03308" lon="1.17892">
        <ele>564</ele>
        <time>2025-12-28T09:16:45.000Z</time>
      </trkpt>
      <trkpt lat="43.03305" lon="1.17886">
        <ele>563.9</ele>
        <time>2025-12-28T09:16:46.000Z</time>
      </trkpt>
      <trkpt lat="43.03302" lon="1.17882">
        <ele>564.1</ele>
        <time>2025-12-28T09:16:47.000Z</time>
      </trkpt>
      <trkpt lat="43.03299" lon="1.17879">
        <ele>564.3</ele>
        <time>2025-12-28T09:16:48.000Z</time>
      </trkpt>
      <trkpt lat="43.03296" lon="1.17876">
        <ele>565</ele>
        <time>2025-12-28T09:16:49.000Z</time>
      </trkpt>
      <trkpt lat="43.03294" lon="1.17873">
        <ele>565.9</ele>
        <time>2025-12-28T09:16:50.000Z</time>
      </trkpt>
      <trkpt lat="43.03293" lon="1.1787">
        <ele>565.9</ele>
        <time>2025-12-28T09:16:51.000Z</time>
      </trkpt>
      <trkpt lat="43.03291" lon="1.17868">
        <ele>565.7</ele>
        <time>2025-12-28T09:16:52.000Z</time>
      </trkpt>
      <trkpt lat="43.03289" lon="1.17867">
        <ele>567.6</ele>
        <time>2025-12-28T09:16:53.000Z</time>
      </trkpt>
      <trkpt lat="43.03287" lon="1.17865">
        <ele>567.5</ele>
        <time>2025-12-28T09:16:54.000Z</time>
      </trkpt>
      <trkpt lat="43.03284" lon="1.17864">
        <ele>567.6</ele>
        <time>2025-12-28T09:16:55.000Z</time>
      </trkpt>
      <trkpt lat="43.03282" lon="1.17863">
        <ele>568.9</ele>
        <time>2025-12-28T09:16:56.000Z</time>
      </trkpt>
      <trkpt lat="43.03279" lon="1.17861">
        <ele>570.2</ele>
        <time>2025-12-28T09:16:57.000Z</time>
      </trkpt>
      <trkpt lat="43.03277" lon="1.17859">
        <ele>570.7</ele>
        <time>2025-12-28T09:16:58.000Z</time>
      </trkpt>
      <trkpt lat="43.03275" lon="1.17857">
        <ele>571.7</ele>
        <time>2025-12-28T09:16:59.000Z</time>
      </trkpt>
      <trkpt lat="43.03272" lon="1.17855">
        <ele>570.3</ele>
        <time>2025-12-28T09:17:00.000Z</time>
      </trkpt>
      <trkpt lat="43.03268" lon="1.17853">
        <ele>571.5</ele>
        <time>2025-12-28T09:17:01.000Z</time>
      </trkpt>
      <trkpt lat="43.03265" lon="1.17851">
        <ele>571</ele>
        <time>2025-12-28T09:17:02.000Z</time>
      </trkpt>
      <trkpt lat="43.03262" lon="1.1785">
        <ele>570.6</ele>
        <time>2025-12-28T09:17:03.000Z</time>
      </trkpt>
      <trkpt lat="43.0326" lon="1.17848">
        <ele>570.9</ele>
        <time>2025-12-28T09:17:04.000Z</time>
      </trkpt>
      <trkpt lat="43.03257" lon="1.17846">
        <ele>571.2</ele>
        <time>2025-12-28T09:17:05.000Z</time>
      </trkpt>
      <trkpt lat="43.03254" lon="1.17844">
        <ele>571.3</ele>
        <time>2025-12-28T09:17:06.000Z</time>
      </trkpt>
      <trkpt lat="43.03252" lon="1.17843">
        <ele>571.7</ele>
        <time>2025-12-28T09:17:07.000Z</time>
      </trkpt>
      <trkpt lat="43.03249" lon="1.17841">
        <ele>570.8</ele>
        <time>2025-12-28T09:17:08.000Z</time>
      </trkpt>
      <trkpt lat="43.03246" lon="1.1784">
        <ele>573</ele>
        <time>2025-12-28T09:17:09.000Z</time>
      </trkpt>
      <trkpt lat="43.03243" lon="1.1784">
        <ele>573.8</ele>
        <time>2025-12-28T09:17:10.000Z</time>
      </trkpt>
      <trkpt lat="43.03241" lon="1.17839">
        <ele>573.6</ele>
        <time>2025-12-28T09:17:11.000Z</time>
      </trkpt>
      <trkpt lat="43.03239" lon="1.17839">
        <ele>574.3</ele>
        <time>2025-12-28T09:17:12.000Z</time>
      </trkpt>
      <trkpt lat="43.03238" lon="1.17838">
        <ele>576.6</ele>
        <time>2025-12-28T09:17:13.000Z</time>
      </trkpt>
      <trkpt lat="43.03236" lon="1.17837">
        <ele>577.4</ele>
        <time>2025-12-28T09:17:14.000Z</time>
      </trkpt>
      <trkpt lat="43.03234" lon="1.17838">
        <ele>577.3</ele>
        <time>2025-12-28T09:17:15.000Z</time>
      </trkpt>
      <trkpt lat="43.03232" lon="1.17838">
        <ele>576.7</ele>
        <time>2025-12-28T09:17:16.000Z</time>
      </trkpt>
      <trkpt lat="43.03229" lon="1.17837">
        <ele>576.4</ele>
        <time>2025-12-28T09:17:17.000Z</time>
      </trkpt>
      <trkpt lat="43.03226" lon="1.17836">
        <ele>577.3</ele>
        <time>2025-12-28T09:17:18.000Z</time>
      </trkpt>
      <trkpt lat="43.03224" lon="1.17835">
        <ele>578.2</ele>
        <time>2025-12-28T09:17:19.000Z</time>
      </trkpt>
      <trkpt lat="43.03221" lon="1.17835">
        <ele>578.1</ele>
        <time>2025-12-28T09:17:20.000Z</time>
      </trkpt>
      <trkpt lat="43.03219" lon="1.17834">
        <ele>578</ele>
        <time>2025-12-28T09:17:21.000Z</time>
      </trkpt>
      <trkpt lat="43.03216" lon="1.17834">
        <ele>577.2</ele>
        <time>2025-12-28T09:17:22.000Z</time>
      </trkpt>
      <trkpt lat="43.03214" lon="1.17834">
        <ele>578.8</ele>
        <time>2025-12-28T09:17:23.000Z</time>
      </trkpt>
      <trkpt lat="43.03212" lon="1.17834">
        <ele>578.9</ele>
        <time>2025-12-28T09:17:24.000Z</time>
      </trkpt>
      <trkpt lat="43.03209" lon="1.17835">
        <ele>578.4</ele>
        <time>2025-12-28T09:17:25.000Z</time>
      </trkpt>
      <trkpt lat="43.03206" lon="1.17835">
        <ele>577.9</ele>
        <time>2025-12-28T09:17:26.000Z</time>
      </trkpt>
      <trkpt lat="43.03203" lon="1.17836">
        <ele>578.7</ele>
        <time>2025-12-28T09:17:27.000Z</time>
      </trkpt>
      <trkpt lat="43.03201" lon="1.17836">
        <ele>579</ele>
        <time>2025-12-28T09:17:28.000Z</time>
      </trkpt>
      <trkpt lat="43.03198" lon="1.17837">
        <ele>578</ele>
        <time>2025-12-28T09:17:29.000Z</time>
      </trkpt>
      <trkpt lat="43.03195" lon="1.17837">
        <ele>577.9</ele>
        <time>2025-12-28T09:17:30.000Z</time>
      </trkpt>
      <trkpt lat="43.03191" lon="1.17837">
        <ele>577.7</ele>
        <time>2025-12-28T09:17:31.000Z</time>
      </trkpt>
      <trkpt lat="43.03187" lon="1.17837">
        <ele>578.2</ele>
        <time>2025-12-28T09:17:32.000Z</time>
      </trkpt>
      <trkpt lat="43.03183" lon="1.17836">
        <ele>578.1</ele>
        <time>2025-12-28T09:17:33.000Z</time>
      </trkpt>
      <trkpt lat="43.0318" lon="1.17836">
        <ele>577.7</ele>
        <time>2025-12-28T09:17:34.000Z</time>
      </trkpt>
      <trkpt lat="43.03176" lon="1.17836">
        <ele>578.2</ele>
        <time>2025-12-28T09:17:35.000Z</time>
      </trkpt>
      <trkpt lat="43.03173" lon="1.17836">
        <ele>578.2</ele>
        <time>2025-12-28T09:17:36.000Z</time>
      </trkpt>
      <trkpt lat="43.0317" lon="1.17837">
        <ele>578.5</ele>
        <time>2025-12-28T09:17:37.000Z</time>
      </trkpt>
      <trkpt lat="43.03167" lon="1.17837">
        <ele>578.4</ele>
        <time>2025-12-28T09:17:38.000Z</time>
      </trkpt>
      <trkpt lat="43.03164" lon="1.17838">
        <ele>578.5</ele>
        <time>2025-12-28T09:17:39.000Z</time>
      </trkpt>
      <trkpt lat="43.03161" lon="1.17839">
        <ele>579.1</ele>
        <time>2025-12-28T09:17:40.000Z</time>
      </trkpt>
      <trkpt lat="43.03159" lon="1.17841">
        <ele>579.6</ele>
        <time>2025-12-28T09:17:41.000Z</time>
      </trkpt>
      <trkpt lat="43.03156" lon="1.17843">
        <ele>579.8</ele>
        <time>2025-12-28T09:17:42.000Z</time>
      </trkpt>
      <trkpt lat="43.03153" lon="1.17845">
        <ele>580.3</ele>
        <time>2025-12-28T09:17:43.000Z</time>
      </trkpt>
      <trkpt lat="43.0315" lon="1.17847">
        <ele>580.8</ele>
        <time>2025-12-28T09:17:44.000Z</time>
      </trkpt>
      <trkpt lat="43.03147" lon="1.17849">
        <ele>580.4</ele>
        <time>2025-12-28T09:17:45.000Z</time>
      </trkpt>
      <trkpt lat="43.03144" lon="1.17851">
        <ele>581.2</ele>
        <time>2025-12-28T09:17:46.000Z</time>
      </trkpt>
      <trkpt lat="43.03141" lon="1.17852">
        <ele>581.2</ele>
        <time>2025-12-28T09:17:47.000Z</time>
      </trkpt>
      <trkpt lat="43.03137" lon="1.17853">
        <ele>580.5</ele>
        <time>2025-12-28T09:17:48.000Z</time>
      </trkpt>
      <trkpt lat="43.03135" lon="1.17854">
        <ele>580.8</ele>
        <time>2025-12-28T09:17:49.000Z</time>
      </trkpt>
      <trkpt lat="43.03133" lon="1.17856">
        <ele>581.1</ele>
        <time>2025-12-28T09:17:50.000Z</time>
      </trkpt>
      <trkpt lat="43.0313" lon="1.17857">
        <ele>582</ele>
        <time>2025-12-28T09:17:51.000Z</time>
      </trkpt>
      <trkpt lat="43.03127" lon="1.17858">
        <ele>582.2</ele>
        <time>2025-12-28T09:17:52.000Z</time>
      </trkpt>
      <trkpt lat="43.03125" lon="1.17859">
        <ele>582.5</ele>
        <time>2025-12-28T09:17:53.000Z</time>
      </trkpt>
      <trkpt lat="43.03122" lon="1.1786">
        <ele>583.5</ele>
        <time>2025-12-28T09:17:54.000Z</time>
      </trkpt>
      <trkpt lat="43.03119" lon="1.17861">
        <ele>583.8</ele>
        <time>2025-12-28T09:17:55.000Z</time>
      </trkpt>
      <trkpt lat="43.03116" lon="1.17863">
        <ele>584.7</ele>
        <time>2025-12-28T09:17:56.000Z</time>
      </trkpt>
      <trkpt lat="43.03115" lon="1.17865">
        <ele>585</ele>
        <time>2025-12-28T09:17:57.000Z</time>
      </trkpt>
      <trkpt lat="43.03114" lon="1.17866">
        <ele>586.1</ele>
        <time>2025-12-28T09:17:58.000Z</time>
      </trkpt>
      <trkpt lat="43.03112" lon="1.17868">
        <ele>587.3</ele>
        <time>2025-12-28T09:17:59.000Z</time>
      </trkpt>
      <trkpt lat="43.03112" lon="1.17871">
        <ele>587.5</ele>
        <time>2025-12-28T09:18:00.000Z</time>
      </trkpt>
      <trkpt lat="43.03111" lon="1.17875">
        <ele>587.8</ele>
        <time>2025-12-28T09:18:01.000Z</time>
      </trkpt>
      <trkpt lat="43.0311" lon="1.17879">
        <ele>589</ele>
        <time>2025-12-28T09:18:02.000Z</time>
      </trkpt>
      <trkpt lat="43.03108" lon="1.17882">
        <ele>589.7</ele>
        <time>2025-12-28T09:18:03.000Z</time>
      </trkpt>
      <trkpt lat="43.03107" lon="1.17885">
        <ele>590.5</ele>
        <time>2025-12-28T09:18:04.000Z</time>
      </trkpt>
      <trkpt lat="43.03105" lon="1.17887">
        <ele>591.5</ele>
        <time>2025-12-28T09:18:05.000Z</time>
      </trkpt>
      <trkpt lat="43.03103" lon="1.17889">
        <ele>592.3</ele>
        <time>2025-12-28T09:18:06.000Z</time>
      </trkpt>
      <trkpt lat="43.03101" lon="1.17892">
        <ele>591.9</ele>
        <time>2025-12-28T09:18:07.000Z</time>
      </trkpt>
      <trkpt lat="43.031" lon="1.17895">
        <ele>592.8</ele>
        <time>2025-12-28T09:18:08.000Z</time>
      </trkpt>
      <trkpt lat="43.03098" lon="1.17899">
        <ele>591.8</ele>
        <time>2025-12-28T09:18:09.000Z</time>
      </trkpt>
      <trkpt lat="43.03097" lon="1.17901">
        <ele>591.4</ele>
        <time>2025-12-28T09:18:10.000Z</time>
      </trkpt>
      <trkpt lat="43.03095" lon="1.17904">
        <ele>592</ele>
        <time>2025-12-28T09:18:11.000Z</time>
      </trkpt>
      <trkpt lat="43.03093" lon="1.17907">
        <ele>593</ele>
        <time>2025-12-28T09:18:12.000Z</time>
      </trkpt>
      <trkpt lat="43.03091" lon="1.1791">
        <ele>592.3</ele>
        <time>2025-12-28T09:18:13.000Z</time>
      </trkpt>
      <trkpt lat="43.03089" lon="1.17912">
        <ele>592.2</ele>
        <time>2025-12-28T09:18:14.000Z</time>
      </trkpt>
      <trkpt lat="43.03087" lon="1.17915">
        <ele>593.1</ele>
        <time>2025-12-28T09:18:15.000Z</time>
      </trkpt>
      <trkpt lat="43.03085" lon="1.17918">
        <ele>593.5</ele>
        <time>2025-12-28T09:18:16.000Z</time>
      </trkpt>
      <trkpt lat="43.03083" lon="1.17921">
        <ele>593.7</ele>
        <time>2025-12-28T09:18:17.000Z</time>
      </trkpt>
      <trkpt lat="43.0308" lon="1.17924">
        <ele>593.8</ele>
        <time>2025-12-28T09:18:18.000Z</time>
      </trkpt>
      <trkpt lat="43.03078" lon="1.17926">
        <ele>594</ele>
        <time>2025-12-28T09:18:19.000Z</time>
      </trkpt>
      <trkpt lat="43.03076" lon="1.17928">
        <ele>594</ele>
        <time>2025-12-28T09:18:20.000Z</time>
      </trkpt>
      <trkpt lat="43.03074" lon="1.17929">
        <ele>593.3</ele>
        <time>2025-12-28T09:18:21.000Z</time>
      </trkpt>
      <trkpt lat="43.03072" lon="1.17931">
        <ele>594.1</ele>
        <time>2025-12-28T09:18:22.000Z</time>
      </trkpt>
      <trkpt lat="43.0307" lon="1.17933">
        <ele>594</ele>
        <time>2025-12-28T09:18:23.000Z</time>
      </trkpt>
      <trkpt lat="43.03067" lon="1.17936">
        <ele>593.1</ele>
        <time>2025-12-28T09:18:24.000Z</time>
      </trkpt>
      <trkpt lat="43.03065" lon="1.17939">
        <ele>592.1</ele>
        <time>2025-12-28T09:18:25.000Z</time>
      </trkpt>
      <trkpt lat="43.03062" lon="1.17941">
        <ele>591.2</ele>
        <time>2025-12-28T09:18:26.000Z</time>
      </trkpt>
      <trkpt lat="43.0306" lon="1.17944">
        <ele>591.3</ele>
        <time>2025-12-28T09:18:27.000Z</time>
      </trkpt>
      <trkpt lat="43.03057" lon="1.17946">
        <ele>590.7</ele>
        <time>2025-12-28T09:18:28.000Z</time>
      </trkpt>
      <trkpt lat="43.03055" lon="1.17949">
        <ele>591.7</ele>
        <time>2025-12-28T09:18:29.000Z</time>
      </trkpt>
      <trkpt lat="43.03052" lon="1.17951">
        <ele>591.8</ele>
        <time>2025-12-28T09:18:30.000Z</time>
      </trkpt>
      <trkpt lat="43.0305" lon="1.17954">
        <ele>591.7</ele>
        <time>2025-12-28T09:18:31.000Z</time>
      </trkpt>
      <trkpt lat="43.03047" lon="1.17956">
        <ele>591.9</ele>
        <time>2025-12-28T09:18:32.000Z</time>
      </trkpt>
      <trkpt lat="43.03044" lon="1.17958">
        <ele>591.7</ele>
        <time>2025-12-28T09:18:33.000Z</time>
      </trkpt>
      <trkpt lat="43.03041" lon="1.1796">
        <ele>592.4</ele>
        <time>2025-12-28T09:18:34.000Z</time>
      </trkpt>
      <trkpt lat="43.03039" lon="1.17961">
        <ele>592.9</ele>
        <time>2025-12-28T09:18:35.000Z</time>
      </trkpt>
      <trkpt lat="43.03036" lon="1.17963">
        <ele>592.5</ele>
        <time>2025-12-28T09:18:36.000Z</time>
      </trkpt>
      <trkpt lat="43.03033" lon="1.17965">
        <ele>592.1</ele>
        <time>2025-12-28T09:18:37.000Z</time>
      </trkpt>
      <trkpt lat="43.0303" lon="1.17967">
        <ele>591.8</ele>
        <time>2025-12-28T09:18:38.000Z</time>
      </trkpt>
      <trkpt lat="43.03026" lon="1.1797">
        <ele>590.4</ele>
        <time>2025-12-28T09:18:39.000Z</time>
      </trkpt>
      <trkpt lat="43.03023" lon="1.17973">
        <ele>589.9</ele>
        <time>2025-12-28T09:18:40.000Z</time>
      </trkpt>
      <trkpt lat="43.0302" lon="1.17976">
        <ele>589.4</ele>
        <time>2025-12-28T09:18:41.000Z</time>
      </trkpt>
      <trkpt lat="43.03016" lon="1.17979">
        <ele>589.1</ele>
        <time>2025-12-28T09:18:42.000Z</time>
      </trkpt>
      <trkpt lat="43.03012" lon="1.17981">
        <ele>589.3</ele>
        <time>2025-12-28T09:18:43.000Z</time>
      </trkpt>
      <trkpt lat="43.03008" lon="1.17982">
        <ele>588.9</ele>
        <time>2025-12-28T09:18:44.000Z</time>
      </trkpt>
      <trkpt lat="43.03004" lon="1.17982">
        <ele>588.8</ele>
        <time>2025-12-28T09:18:45.000Z</time>
      </trkpt>
      <trkpt lat="43.03" lon="1.1798">
        <ele>588.7</ele>
        <time>2025-12-28T09:18:46.000Z</time>
      </trkpt>
      <trkpt lat="43.02995" lon="1.17978">
        <ele>588.6</ele>
        <time>2025-12-28T09:18:47.000Z</time>
      </trkpt>
      <trkpt lat="43.02991" lon="1.17977">
        <ele>588.1</ele>
        <time>2025-12-28T09:18:48.000Z</time>
      </trkpt>
      <trkpt lat="43.02986" lon="1.17975">
        <ele>588.6</ele>
        <time>2025-12-28T09:18:49.000Z</time>
      </trkpt>
      <trkpt lat="43.02982" lon="1.17974">
        <ele>588.7</ele>
        <time>2025-12-28T09:18:50.000Z</time>
      </trkpt>
      <trkpt lat="43.02977" lon="1.17971">
        <ele>588.7</ele>
        <time>2025-12-28T09:18:51.000Z</time>
      </trkpt>
      <trkpt lat="43.02973" lon="1.17968">
        <ele>589.2</ele>
        <time>2025-12-28T09:18:52.000Z</time>
      </trkpt>
      <trkpt lat="43.02969" lon="1.17966">
        <ele>589.7</ele>
        <time>2025-12-28T09:18:53.000Z</time>
      </trkpt>
      <trkpt lat="43.02966" lon="1.17963">
        <ele>590.7</ele>
        <time>2025-12-28T09:18:54.000Z</time>
      </trkpt>
      <trkpt lat="43.02963" lon="1.17961">
        <ele>591.3</ele>
        <time>2025-12-28T09:18:55.000Z</time>
      </trkpt>
      <trkpt lat="43.02961" lon="1.17958">
        <ele>592</ele>
        <time>2025-12-28T09:18:56.000Z</time>
      </trkpt>
      <trkpt lat="43.02959" lon="1.17955">
        <ele>592.6</ele>
        <time>2025-12-28T09:18:57.000Z</time>
      </trkpt>
      <trkpt lat="43.02957" lon="1.17951">
        <ele>592.9</ele>
        <time>2025-12-28T09:18:58.000Z</time>
      </trkpt>
      <trkpt lat="43.02955" lon="1.17946">
        <ele>593.1</ele>
        <time>2025-12-28T09:18:59.000Z</time>
      </trkpt>
      <trkpt lat="43.02954" lon="1.17942">
        <ele>593.7</ele>
        <time>2025-12-28T09:19:00.000Z</time>
      </trkpt>
      <trkpt lat="43.02954" lon="1.17938">
        <ele>594.1</ele>
        <time>2025-12-28T09:19:01.000Z</time>
      </trkpt>
      <trkpt lat="43.02954" lon="1.17933">
        <ele>594.5</ele>
        <time>2025-12-28T09:19:02.000Z</time>
      </trkpt>
      <trkpt lat="43.02953" lon="1.17929">
        <ele>594.7</ele>
        <time>2025-12-28T09:19:03.000Z</time>
      </trkpt>
      <trkpt lat="43.02953" lon="1.17925">
        <ele>594.8</ele>
        <time>2025-12-28T09:19:04.000Z</time>
      </trkpt>
      <trkpt lat="43.02952" lon="1.17921">
        <ele>595</ele>
        <time>2025-12-28T09:19:05.000Z</time>
      </trkpt>
      <trkpt lat="43.02952" lon="1.17917">
        <ele>595.4</ele>
        <time>2025-12-28T09:19:06.000Z</time>
      </trkpt>
      <trkpt lat="43.02952" lon="1.17913">
        <ele>595.6</ele>
        <time>2025-12-28T09:19:07.000Z</time>
      </trkpt>
      <trkpt lat="43.02952" lon="1.17909">
        <ele>595.7</ele>
        <time>2025-12-28T09:19:08.000Z</time>
      </trkpt>
      <trkpt lat="43.02952" lon="1.17905">
        <ele>596.4</ele>
        <time>2025-12-28T09:19:09.000Z</time>
      </trkpt>
      <trkpt lat="43.02951" lon="1.17901">
        <ele>596.2</ele>
        <time>2025-12-28T09:19:10.000Z</time>
      </trkpt>
      <trkpt lat="43.02952" lon="1.17897">
        <ele>595.8</ele>
        <time>2025-12-28T09:19:11.000Z</time>
      </trkpt>
      <trkpt lat="43.02952" lon="1.17894">
        <ele>596</ele>
        <time>2025-12-28T09:19:12.000Z</time>
      </trkpt>
      <trkpt lat="43.02953" lon="1.17891">
        <ele>595.9</ele>
        <time>2025-12-28T09:19:13.000Z</time>
      </trkpt>
      <trkpt lat="43.02953" lon="1.17887">
        <ele>596.2</ele>
        <time>2025-12-28T09:19:14.000Z</time>
      </trkpt>
      <trkpt lat="43.02954" lon="1.17885">
        <ele>595.9</ele>
        <time>2025-12-28T09:19:15.000Z</time>
      </trkpt>
      <trkpt lat="43.02953" lon="1.17883">
        <ele>596.6</ele>
        <time>2025-12-28T09:19:16.000Z</time>
      </trkpt>
      <trkpt lat="43.02952" lon="1.17881">
        <ele>596.1</ele>
        <time>2025-12-28T09:19:17.000Z</time>
      </trkpt>
      <trkpt lat="43.0295" lon="1.17882">
        <ele>596.4</ele>
        <time>2025-12-28T09:19:18.000Z</time>
      </trkpt>
      <trkpt lat="43.02949" lon="1.17884">
        <ele>597</ele>
        <time>2025-12-28T09:19:19.000Z</time>
      </trkpt>
      <trkpt lat="43.02948" lon="1.17887">
        <ele>597.8</ele>
        <time>2025-12-28T09:19:20.000Z</time>
      </trkpt>
      <trkpt lat="43.02946" lon="1.1789">
        <ele>598.8</ele>
        <time>2025-12-28T09:19:21.000Z</time>
      </trkpt>
      <trkpt lat="43.02944" lon="1.17892">
        <ele>599.6</ele>
        <time>2025-12-28T09:19:22.000Z</time>
      </trkpt>
      <trkpt lat="43.02942" lon="1.17895">
        <ele>600.5</ele>
        <time>2025-12-28T09:19:23.000Z</time>
      </trkpt>
      <trkpt lat="43.0294" lon="1.17898">
        <ele>600.4</ele>
        <time>2025-12-28T09:19:24.000Z</time>
      </trkpt>
      <trkpt lat="43.02938" lon="1.179">
        <ele>600.9</ele>
        <time>2025-12-28T09:19:25.000Z</time>
      </trkpt>
      <trkpt lat="43.02936" lon="1.17903">
        <ele>601.5</ele>
        <time>2025-12-28T09:19:26.000Z</time>
      </trkpt>
      <trkpt lat="43.02935" lon="1.17906">
        <ele>602.2</ele>
        <time>2025-12-28T09:19:27.000Z</time>
      </trkpt>
      <trkpt lat="43.02933" lon="1.1791">
        <ele>602.7</ele>
        <time>2025-12-28T09:19:28.000Z</time>
      </trkpt>
      <trkpt lat="43.02931" lon="1.17913">
        <ele>603.2</ele>
        <time>2025-12-28T09:19:29.000Z</time>
      </trkpt>
      <trkpt lat="43.02929" lon="1.17916">
        <ele>603.6</ele>
        <time>2025-12-28T09:19:30.000Z</time>
      </trkpt>
      <trkpt lat="43.02927" lon="1.17918">
        <ele>604</ele>
        <time>2025-12-28T09:19:31.000Z</time>
      </trkpt>
      <trkpt lat="43.02926" lon="1.1792">
        <ele>604</ele>
        <time>2025-12-28T09:19:32.000Z</time>
      </trkpt>
      <trkpt lat="43.02924" lon="1.17923">
        <ele>604.5</ele>
        <time>2025-12-28T09:19:33.000Z</time>
      </trkpt>
      <trkpt lat="43.02922" lon="1.17925">
        <ele>604.9</ele>
        <time>2025-12-28T09:19:34.000Z</time>
      </trkpt>
      <trkpt lat="43.02921" lon="1.17928">
        <ele>605.3</ele>
        <time>2025-12-28T09:19:35.000Z</time>
      </trkpt>
      <trkpt lat="43.02919" lon="1.1793">
        <ele>605.9</ele>
        <time>2025-12-28T09:19:36.000Z</time>
      </trkpt>
      <trkpt lat="43.02918" lon="1.17933">
        <ele>606.5</ele>
        <time>2025-12-28T09:19:37.000Z</time>
      </trkpt>
      <trkpt lat="43.02916" lon="1.17936">
        <ele>606.8</ele>
        <time>2025-12-28T09:19:38.000Z</time>
      </trkpt>
      <trkpt lat="43.02914" lon="1.17938">
        <ele>607.5</ele>
        <time>2025-12-28T09:19:39.000Z</time>
      </trkpt>
      <trkpt lat="43.02913" lon="1.17941">
        <ele>607.8</ele>
        <time>2025-12-28T09:19:40.000Z</time>
      </trkpt>
      <trkpt lat="43.02911" lon="1.17944">
        <ele>608.3</ele>
        <time>2025-12-28T09:19:41.000Z</time>
      </trkpt>
      <trkpt lat="43.02909" lon="1.17947">
        <ele>608.8</ele>
        <time>2025-12-28T09:19:42.000Z</time>
      </trkpt>
      <trkpt lat="43.02908" lon="1.1795">
        <ele>609.4</ele>
        <time>2025-12-28T09:19:43.000Z</time>
      </trkpt>
      <trkpt lat="43.02906" lon="1.17953">
        <ele>609.8</ele>
        <time>2025-12-28T09:19:44.000Z</time>
      </trkpt>
      <trkpt lat="43.02904" lon="1.17956">
        <ele>610.6</ele>
        <time>2025-12-28T09:19:45.000Z</time>
      </trkpt>
      <trkpt lat="43.02903" lon="1.17959">
        <ele>610.9</ele>
        <time>2025-12-28T09:19:46.000Z</time>
      </trkpt>
      <trkpt lat="43.02901" lon="1.17962">
        <ele>611.7</ele>
        <time>2025-12-28T09:19:47.000Z</time>
      </trkpt>
      <trkpt lat="43.029" lon="1.17965">
        <ele>612.2</ele>
        <time>2025-12-28T09:19:48.000Z</time>
      </trkpt>
      <trkpt lat="43.02898" lon="1.17968">
        <ele>612.5</ele>
        <time>2025-12-28T09:19:49.000Z</time>
      </trkpt>
      <trkpt lat="43.02896" lon="1.17971">
        <ele>613.3</ele>
        <time>2025-12-28T09:19:50.000Z</time>
      </trkpt>
      <trkpt lat="43.02895" lon="1.17974">
        <ele>613.2</ele>
        <time>2025-12-28T09:19:51.000Z</time>
      </trkpt>
      <trkpt lat="43.02893" lon="1.17976">
        <ele>614.1</ele>
        <time>2025-12-28T09:19:52.000Z</time>
      </trkpt>
      <trkpt lat="43.02891" lon="1.17979">
        <ele>614.6</ele>
        <time>2025-12-28T09:19:53.000Z</time>
      </trkpt>
      <trkpt lat="43.02889" lon="1.17982">
        <ele>615.3</ele>
        <time>2025-12-28T09:19:54.000Z</time>
      </trkpt>
      <trkpt lat="43.02888" lon="1.17984">
        <ele>616.1</ele>
        <time>2025-12-28T09:19:55.000Z</time>
      </trkpt>
      <trkpt lat="43.02885" lon="1.17987">
        <ele>616.4</ele>
        <time>2025-12-28T09:19:56.000Z</time>
      </trkpt>
      <trkpt lat="43.02883" lon="1.17989">
        <ele>616.8</ele>
        <time>2025-12-28T09:19:57.000Z</time>
      </trkpt>
      <trkpt lat="43.0288" lon="1.17991">
        <ele>616.9</ele>
        <time>2025-12-28T09:19:58.000Z</time>
      </trkpt>
      <trkpt lat="43.02878" lon="1.17992">
        <ele>617.8</ele>
        <time>2025-12-28T09:19:59.000Z</time>
      </trkpt>
      <trkpt lat="43.02875" lon="1.17992">
        <ele>618.3</ele>
        <time>2025-12-28T09:20:00.000Z</time>
      </trkpt>
      <trkpt lat="43.02871" lon="1.17992">
        <ele>617.7</ele>
        <time>2025-12-28T09:20:01.000Z</time>
      </trkpt>
      <trkpt lat="43.02868" lon="1.17991">
        <ele>617.5</ele>
        <time>2025-12-28T09:20:02.000Z</time>
      </trkpt>
      <trkpt lat="43.02865" lon="1.1799">
        <ele>617.6</ele>
        <time>2025-12-28T09:20:03.000Z</time>
      </trkpt>
      <trkpt lat="43.02862" lon="1.17989">
        <ele>617.8</ele>
        <time>2025-12-28T09:20:04.000Z</time>
      </trkpt>
      <trkpt lat="43.02859" lon="1.17989">
        <ele>618.5</ele>
        <time>2025-12-28T09:20:05.000Z</time>
      </trkpt>
      <trkpt lat="43.02857" lon="1.17989">
        <ele>618.6</ele>
        <time>2025-12-28T09:20:06.000Z</time>
      </trkpt>
      <trkpt lat="43.02854" lon="1.17989">
        <ele>618.9</ele>
        <time>2025-12-28T09:20:07.000Z</time>
      </trkpt>
      <trkpt lat="43.02852" lon="1.1799">
        <ele>618.9</ele>
        <time>2025-12-28T09:20:08.000Z</time>
      </trkpt>
      <trkpt lat="43.02849" lon="1.17991">
        <ele>619.7</ele>
        <time>2025-12-28T09:20:09.000Z</time>
      </trkpt>
      <trkpt lat="43.02847" lon="1.17992">
        <ele>619.9</ele>
        <time>2025-12-28T09:20:10.000Z</time>
      </trkpt>
      <trkpt lat="43.02844" lon="1.17994">
        <ele>619.9</ele>
        <time>2025-12-28T09:20:11.000Z</time>
      </trkpt>
      <trkpt lat="43.02841" lon="1.17996">
        <ele>620.6</ele>
        <time>2025-12-28T09:20:12.000Z</time>
      </trkpt>
      <trkpt lat="43.02839" lon="1.17997">
        <ele>621.4</ele>
        <time>2025-12-28T09:20:13.000Z</time>
      </trkpt>
      <trkpt lat="43.02837" lon="1.17997">
        <ele>622.2</ele>
        <time>2025-12-28T09:20:14.000Z</time>
      </trkpt>
      <trkpt lat="43.02834" lon="1.17998">
        <ele>621.7</ele>
        <time>2025-12-28T09:20:15.000Z</time>
      </trkpt>
      <trkpt lat="43.02831" lon="1.17999">
        <ele>622</ele>
        <time>2025-12-28T09:20:16.000Z</time>
      </trkpt>
      <trkpt lat="43.02829" lon="1.18">
        <ele>623</ele>
        <time>2025-12-28T09:20:17.000Z</time>
      </trkpt>
      <trkpt lat="43.02826" lon="1.18003">
        <ele>622.5</ele>
        <time>2025-12-28T09:20:18.000Z</time>
      </trkpt>
      <trkpt lat="43.02824" lon="1.18005">
        <ele>622.4</ele>
        <time>2025-12-28T09:20:19.000Z</time>
      </trkpt>
      <trkpt lat="43.02821" lon="1.18006">
        <ele>622.8</ele>
        <time>2025-12-28T09:20:20.000Z</time>
      </trkpt>
      <trkpt lat="43.02819" lon="1.18008">
        <ele>623.9</ele>
        <time>2025-12-28T09:20:21.000Z</time>
      </trkpt>
      <trkpt lat="43.02816" lon="1.18009">
        <ele>624.1</ele>
        <time>2025-12-28T09:20:22.000Z</time>
      </trkpt>
      <trkpt lat="43.02814" lon="1.18009">
        <ele>624.9</ele>
        <time>2025-12-28T09:20:23.000Z</time>
      </trkpt>
      <trkpt lat="43.02811" lon="1.1801">
        <ele>625.4</ele>
        <time>2025-12-28T09:20:24.000Z</time>
      </trkpt>
      <trkpt lat="43.02809" lon="1.18011">
        <ele>625.7</ele>
        <time>2025-12-28T09:20:25.000Z</time>
      </trkpt>
      <trkpt lat="43.02806" lon="1.18012">
        <ele>626.3</ele>
        <time>2025-12-28T09:20:26.000Z</time>
      </trkpt>
      <trkpt lat="43.02803" lon="1.18012">
        <ele>626.7</ele>
        <time>2025-12-28T09:20:27.000Z</time>
      </trkpt>
      <trkpt lat="43.02801" lon="1.1801">
        <ele>627.2</ele>
        <time>2025-12-28T09:20:28.000Z</time>
      </trkpt>
      <trkpt lat="43.02798" lon="1.18009">
        <ele>627.2</ele>
        <time>2025-12-28T09:20:29.000Z</time>
      </trkpt>
      <trkpt lat="43.02796" lon="1.18008">
        <ele>627.3</ele>
        <time>2025-12-28T09:20:30.000Z</time>
      </trkpt>
      <trkpt lat="43.02793" lon="1.18007">
        <ele>626.9</ele>
        <time>2025-12-28T09:20:31.000Z</time>
      </trkpt>
      <trkpt lat="43.0279" lon="1.18007">
        <ele>627.4</ele>
        <time>2025-12-28T09:20:32.000Z</time>
      </trkpt>
      <trkpt lat="43.02788" lon="1.18007">
        <ele>627.4</ele>
        <time>2025-12-28T09:20:33.000Z</time>
      </trkpt>
      <trkpt lat="43.02785" lon="1.18007">
        <ele>626.9</ele>
        <time>2025-12-28T09:20:34.000Z</time>
      </trkpt>
      <trkpt lat="43.02782" lon="1.18007">
        <ele>626.6</ele>
        <time>2025-12-28T09:20:35.000Z</time>
      </trkpt>
      <trkpt lat="43.02779" lon="1.18007">
        <ele>626.4</ele>
        <time>2025-12-28T09:20:36.000Z</time>
      </trkpt>
      <trkpt lat="43.02776" lon="1.18007">
        <ele>626.2</ele>
        <time>2025-12-28T09:20:37.000Z</time>
      </trkpt>
      <trkpt lat="43.02773" lon="1.18006">
        <ele>625.9</ele>
        <time>2025-12-28T09:20:38.000Z</time>
      </trkpt>
      <trkpt lat="43.02771" lon="1.18006">
        <ele>626.8</ele>
        <time>2025-12-28T09:20:39.000Z</time>
      </trkpt>
      <trkpt lat="43.02768" lon="1.18006">
        <ele>626.9</ele>
        <time>2025-12-28T09:20:40.000Z</time>
      </trkpt>
      <trkpt lat="43.02766" lon="1.18005">
        <ele>627.8</ele>
        <time>2025-12-28T09:20:41.000Z</time>
      </trkpt>
      <trkpt lat="43.02763" lon="1.18005">
        <ele>628.5</ele>
        <time>2025-12-28T09:20:42.000Z</time>
      </trkpt>
      <trkpt lat="43.02761" lon="1.18005">
        <ele>629.1</ele>
        <time>2025-12-28T09:20:43.000Z</time>
      </trkpt>
      <trkpt lat="43.02758" lon="1.18005">
        <ele>628.4</ele>
        <time>2025-12-28T09:20:44.000Z</time>
      </trkpt>
      <trkpt lat="43.02755" lon="1.18004">
        <ele>628.4</ele>
        <time>2025-12-28T09:20:45.000Z</time>
      </trkpt>
      <trkpt lat="43.02753" lon="1.18004">
        <ele>627.9</ele>
        <time>2025-12-28T09:20:46.000Z</time>
      </trkpt>
      <trkpt lat="43.0275" lon="1.18004">
        <ele>628</ele>
        <time>2025-12-28T09:20:47.000Z</time>
      </trkpt>
      <trkpt lat="43.02746" lon="1.18003">
        <ele>627.6</ele>
        <time>2025-12-28T09:20:48.000Z</time>
      </trkpt>
      <trkpt lat="43.02744" lon="1.18002">
        <ele>628.6</ele>
        <time>2025-12-28T09:20:49.000Z</time>
      </trkpt>
      <trkpt lat="43.02741" lon="1.18001">
        <ele>628.9</ele>
        <time>2025-12-28T09:20:50.000Z</time>
      </trkpt>
      <trkpt lat="43.02738" lon="1.18">
        <ele>629.4</ele>
        <time>2025-12-28T09:20:51.000Z</time>
      </trkpt>
      <trkpt lat="43.02735" lon="1.17999">
        <ele>629.4</ele>
        <time>2025-12-28T09:20:52.000Z</time>
      </trkpt>
      <trkpt lat="43.02733" lon="1.17998">
        <ele>630.1</ele>
        <time>2025-12-28T09:20:53.000Z</time>
      </trkpt>
      <trkpt lat="43.02731" lon="1.17996">
        <ele>630</ele>
        <time>2025-12-28T09:20:54.000Z</time>
      </trkpt>
      <trkpt lat="43.02729" lon="1.17994">
        <ele>629.9</ele>
        <time>2025-12-28T09:20:55.000Z</time>
      </trkpt>
      <trkpt lat="43.02727" lon="1.17993">
        <ele>632.3</ele>
        <time>2025-12-28T09:20:56.000Z</time>
      </trkpt>
      <trkpt lat="43.02725" lon="1.17993">
        <ele>633.2</ele>
        <time>2025-12-28T09:20:57.000Z</time>
      </trkpt>
      <trkpt lat="43.02723" lon="1.17992">
        <ele>634.1</ele>
        <time>2025-12-28T09:20:58.000Z</time>
      </trkpt>
      <trkpt lat="43.02721" lon="1.1799">
        <ele>634.5</ele>
        <time>2025-12-28T09:20:59.000Z</time>
      </trkpt>
      <trkpt lat="43.02718" lon="1.17988">
        <ele>633.8</ele>
        <time>2025-12-28T09:21:00.000Z</time>
      </trkpt>
      <trkpt lat="43.02717" lon="1.17986">
        <ele>634.8</ele>
        <time>2025-12-28T09:21:01.000Z</time>
      </trkpt>
      <trkpt lat="43.02715" lon="1.17985">
        <ele>635</ele>
        <time>2025-12-28T09:21:02.000Z</time>
      </trkpt>
      <trkpt lat="43.02714" lon="1.17984">
        <ele>634.9</ele>
        <time>2025-12-28T09:21:03.000Z</time>
      </trkpt>
      <trkpt lat="43.02711" lon="1.17983">
        <ele>634.6</ele>
        <time>2025-12-28T09:21:04.000Z</time>
      </trkpt>
      <trkpt lat="43.02709" lon="1.17982">
        <ele>635.8</ele>
        <time>2025-12-28T09:21:05.000Z</time>
      </trkpt>
      <trkpt lat="43.02708" lon="1.17982">
        <ele>637</ele>
        <time>2025-12-28T09:21:06.000Z</time>
      </trkpt>
      <trkpt lat="43.02706" lon="1.17982">
        <ele>637.8</ele>
        <time>2025-12-28T09:21:07.000Z</time>
      </trkpt>
      <trkpt lat="43.02705" lon="1.17983">
        <ele>639.7</ele>
        <time>2025-12-28T09:21:08.000Z</time>
      </trkpt>
      <trkpt lat="43.02704" lon="1.17984">
        <ele>640.6</ele>
        <time>2025-12-28T09:21:09.000Z</time>
      </trkpt>
      <trkpt lat="43.02702" lon="1.17986">
        <ele>642.5</ele>
        <time>2025-12-28T09:21:10.000Z</time>
      </trkpt>
      <trkpt lat="43.02701" lon="1.17987">
        <ele>643.1</ele>
        <time>2025-12-28T09:21:11.000Z</time>
      </trkpt>
      <trkpt lat="43.02699" lon="1.17989">
        <ele>643.6</ele>
        <time>2025-12-28T09:21:12.000Z</time>
      </trkpt>
      <trkpt lat="43.02699" lon="1.17989">
        <ele>644.3</ele>
        <time>2025-12-28T09:21:13.000Z</time>
      </trkpt>
      <trkpt lat="43.02698" lon="1.1799">
        <ele>644.6</ele>
        <time>2025-12-28T09:21:14.000Z</time>
      </trkpt>
      <trkpt lat="43.02697" lon="1.17992">
        <ele>646</ele>
        <time>2025-12-28T09:21:15.000Z</time>
      </trkpt>
      <trkpt lat="43.02695" lon="1.17994">
        <ele>646.3</ele>
        <time>2025-12-28T09:21:16.000Z</time>
      </trkpt>
      <trkpt lat="43.02692" lon="1.17997">
        <ele>646.9</ele>
        <time>2025-12-28T09:21:17.000Z</time>
      </trkpt>
      <trkpt lat="43.0269" lon="1.18">
        <ele>647.7</ele>
        <time>2025-12-28T09:21:18.000Z</time>
      </trkpt>
      <trkpt lat="43.02688" lon="1.18004">
        <ele>648.7</ele>
        <time>2025-12-28T09:21:19.000Z</time>
      </trkpt>
      <trkpt lat="43.02687" lon="1.18006">
        <ele>649.3</ele>
        <time>2025-12-28T09:21:20.000Z</time>
      </trkpt>
      <trkpt lat="43.02686" lon="1.18008">
        <ele>649.2</ele>
        <time>2025-12-28T09:21:21.000Z</time>
      </trkpt>
      <trkpt lat="43.02685" lon="1.18009">
        <ele>650.4</ele>
        <time>2025-12-28T09:21:22.000Z</time>
      </trkpt>
      <trkpt lat="43.02684" lon="1.1801">
        <ele>650.8</ele>
        <time>2025-12-28T09:21:23.000Z</time>
      </trkpt>
      <trkpt lat="43.02684" lon="1.18011">
        <ele>651.7</ele>
        <time>2025-12-28T09:21:24.000Z</time>
      </trkpt>
      <trkpt lat="43.02684" lon="1.18013">
        <ele>652.4</ele>
        <time>2025-12-28T09:21:25.000Z</time>
      </trkpt>
      <trkpt lat="43.02684" lon="1.18016">
        <ele>653.2</ele>
        <time>2025-12-28T09:21:26.000Z</time>
      </trkpt>
      <trkpt lat="43.02684" lon="1.18018">
        <ele>653.7</ele>
        <time>2025-12-28T09:21:27.000Z</time>
      </trkpt>
      <trkpt lat="43.02684" lon="1.18019">
        <ele>655.7</ele>
        <time>2025-12-28T09:21:28.000Z</time>
      </trkpt>
      <trkpt lat="43.02685" lon="1.1802">
        <ele>656.3</ele>
        <time>2025-12-28T09:21:29.000Z</time>
      </trkpt>
      <trkpt lat="43.02684" lon="1.18022">
        <ele>656.1</ele>
        <time>2025-12-28T09:21:30.000Z</time>
      </trkpt>
      <trkpt lat="43.02683" lon="1.18024">
        <ele>655.7</ele>
        <time>2025-12-28T09:21:31.000Z</time>
      </trkpt>
      <trkpt lat="43.02682" lon="1.18026">
        <ele>655.6</ele>
        <time>2025-12-28T09:21:32.000Z</time>
      </trkpt>
      <trkpt lat="43.02681" lon="1.18028">
        <ele>656.4</ele>
        <time>2025-12-28T09:21:33.000Z</time>
      </trkpt>
      <trkpt lat="43.0268" lon="1.1803">
        <ele>656.3</ele>
        <time>2025-12-28T09:21:34.000Z</time>
      </trkpt>
      <trkpt lat="43.02679" lon="1.18031">
        <ele>657.7</ele>
        <time>2025-12-28T09:21:35.000Z</time>
      </trkpt>
      <trkpt lat="43.02678" lon="1.18033">
        <ele>656.3</ele>
        <time>2025-12-28T09:21:36.000Z</time>
      </trkpt>
      <trkpt lat="43.02677" lon="1.18036">
        <ele>656.9</ele>
        <time>2025-12-28T09:21:37.000Z</time>
      </trkpt>
      <trkpt lat="43.02676" lon="1.18038">
        <ele>657.1</ele>
        <time>2025-12-28T09:21:38.000Z</time>
      </trkpt>
      <trkpt lat="43.02676" lon="1.18041">
        <ele>658.5</ele>
        <time>2025-12-28T09:21:39.000Z</time>
      </trkpt>
      <trkpt lat="43.02675" lon="1.18043">
        <ele>658.5</ele>
        <time>2025-12-28T09:21:40.000Z</time>
      </trkpt>
      <trkpt lat="43.02674" lon="1.18045">
        <ele>657.2</ele>
        <time>2025-12-28T09:21:41.000Z</time>
      </trkpt>
      <trkpt lat="43.02672" lon="1.18048">
        <ele>657.3</ele>
        <time>2025-12-28T09:21:42.000Z</time>
      </trkpt>
      <trkpt lat="43.02671" lon="1.18051">
        <ele>657</ele>
        <time>2025-12-28T09:21:43.000Z</time>
      </trkpt>
      <trkpt lat="43.0267" lon="1.18052">
        <ele>656.9</ele>
        <time>2025-12-28T09:21:44.000Z</time>
      </trkpt>
      <trkpt lat="43.02669" lon="1.18054">
        <ele>659.7</ele>
        <time>2025-12-28T09:21:45.000Z</time>
      </trkpt>
      <trkpt lat="43.02669" lon="1.18056">
        <ele>659.7</ele>
        <time>2025-12-28T09:21:46.000Z</time>
      </trkpt>
      <trkpt lat="43.02668" lon="1.18058">
        <ele>658.6</ele>
        <time>2025-12-28T09:21:47.000Z</time>
      </trkpt>
      <trkpt lat="43.02667" lon="1.1806">
        <ele>658.9</ele>
        <time>2025-12-28T09:21:48.000Z</time>
      </trkpt>
      <trkpt lat="43.02666" lon="1.18064">
        <ele>659.7</ele>
        <time>2025-12-28T09:21:49.000Z</time>
      </trkpt>
      <trkpt lat="43.02665" lon="1.18066">
        <ele>660.4</ele>
        <time>2025-12-28T09:21:50.000Z</time>
      </trkpt>
      <trkpt lat="43.02664" lon="1.18069">
        <ele>660.8</ele>
        <time>2025-12-28T09:21:51.000Z</time>
      </trkpt>
      <trkpt lat="43.02664" lon="1.18071">
        <ele>662.3</ele>
        <time>2025-12-28T09:21:52.000Z</time>
      </trkpt>
      <trkpt lat="43.02664" lon="1.18072">
        <ele>664.1</ele>
        <time>2025-12-28T09:21:53.000Z</time>
      </trkpt>
      <trkpt lat="43.02663" lon="1.18075">
        <ele>664.3</ele>
        <time>2025-12-28T09:21:54.000Z</time>
      </trkpt>
      <trkpt lat="43.02661" lon="1.18077">
        <ele>663.7</ele>
        <time>2025-12-28T09:21:55.000Z</time>
      </trkpt>
      <trkpt lat="43.0266" lon="1.1808">
        <ele>665.7</ele>
        <time>2025-12-28T09:21:56.000Z</time>
      </trkpt>
      <trkpt lat="43.02659" lon="1.18082">
        <ele>666.2</ele>
        <time>2025-12-28T09:21:57.000Z</time>
      </trkpt>
      <trkpt lat="43.02657" lon="1.18083">
        <ele>667.5</ele>
        <time>2025-12-28T09:21:58.000Z</time>
      </trkpt>
      <trkpt lat="43.02656" lon="1.18085">
        <ele>668.6</ele>
        <time>2025-12-28T09:21:59.000Z</time>
      </trkpt>
      <trkpt lat="43.02655" lon="1.18087">
        <ele>670.2</ele>
        <time>2025-12-28T09:22:00.000Z</time>
      </trkpt>
      <trkpt lat="43.02654" lon="1.18089">
        <ele>670.3</ele>
        <time>2025-12-28T09:22:01.000Z</time>
      </trkpt>
      <trkpt lat="43.02653" lon="1.18091">
        <ele>670.6</ele>
        <time>2025-12-28T09:22:02.000Z</time>
      </trkpt>
      <trkpt lat="43.02651" lon="1.18093">
        <ele>671.1</ele>
        <time>2025-12-28T09:22:03.000Z</time>
      </trkpt>
      <trkpt lat="43.0265" lon="1.18096">
        <ele>671.7</ele>
        <time>2025-12-28T09:22:04.000Z</time>
      </trkpt>
      <trkpt lat="43.02648" lon="1.18099">
        <ele>671.5</ele>
        <time>2025-12-28T09:22:05.000Z</time>
      </trkpt>
      <trkpt lat="43.02646" lon="1.18101">
        <ele>672.3</ele>
        <time>2025-12-28T09:22:06.000Z</time>
      </trkpt>
      <trkpt lat="43.02644" lon="1.18103">
        <ele>672.9</ele>
        <time>2025-12-28T09:22:07.000Z</time>
      </trkpt>
      <trkpt lat="43.02643" lon="1.18104">
        <ele>673.4</ele>
        <time>2025-12-28T09:22:08.000Z</time>
      </trkpt>
      <trkpt lat="43.02643" lon="1.18106">
        <ele>674.1</ele>
        <time>2025-12-28T09:22:09.000Z</time>
      </trkpt>
      <trkpt lat="43.02642" lon="1.18107">
        <ele>672</ele>
        <time>2025-12-28T09:22:10.000Z</time>
      </trkpt>
      <trkpt lat="43.02641" lon="1.18108">
        <ele>672.1</ele>
        <time>2025-12-28T09:22:11.000Z</time>
      </trkpt>
      <trkpt lat="43.0264" lon="1.18109">
        <ele>671.4</ele>
        <time>2025-12-28T09:22:12.000Z</time>
      </trkpt>
      <trkpt lat="43.02638" lon="1.18111">
        <ele>672</ele>
        <time>2025-12-28T09:22:13.000Z</time>
      </trkpt>
      <trkpt lat="43.02636" lon="1.18113">
        <ele>671.2</ele>
        <time>2025-12-28T09:22:14.000Z</time>
      </trkpt>
      <trkpt lat="43.02633" lon="1.18116">
        <ele>670</ele>
        <time>2025-12-28T09:22:15.000Z</time>
      </trkpt>
      <trkpt lat="43.02631" lon="1.18118">
        <ele>668.3</ele>
        <time>2025-12-28T09:22:16.000Z</time>
      </trkpt>
      <trkpt lat="43.02629" lon="1.18119">
        <ele>668.8</ele>
        <time>2025-12-28T09:22:17.000Z</time>
      </trkpt>
      <trkpt lat="43.02628" lon="1.1812">
        <ele>668</ele>
        <time>2025-12-28T09:22:18.000Z</time>
      </trkpt>
      <trkpt lat="43.02626" lon="1.18122">
        <ele>667.2</ele>
        <time>2025-12-28T09:22:19.000Z</time>
      </trkpt>
      <trkpt lat="43.02623" lon="1.18125">
        <ele>666.8</ele>
        <time>2025-12-28T09:22:20.000Z</time>
      </trkpt>
      <trkpt lat="43.0262" lon="1.18127">
        <ele>666.3</ele>
        <time>2025-12-28T09:22:21.000Z</time>
      </trkpt>
      <trkpt lat="43.02618" lon="1.18129">
        <ele>666.6</ele>
        <time>2025-12-28T09:22:22.000Z</time>
      </trkpt>
      <trkpt lat="43.02616" lon="1.18131">
        <ele>667.1</ele>
        <time>2025-12-28T09:22:23.000Z</time>
      </trkpt>
      <trkpt lat="43.02615" lon="1.18133">
        <ele>667</ele>
        <time>2025-12-28T09:22:24.000Z</time>
      </trkpt>
      <trkpt lat="43.02613" lon="1.18136">
        <ele>667.6</ele>
        <time>2025-12-28T09:22:25.000Z</time>
      </trkpt>
      <trkpt lat="43.02611" lon="1.18139">
        <ele>667</ele>
        <time>2025-12-28T09:22:26.000Z</time>
      </trkpt>
      <trkpt lat="43.02609" lon="1.1814">
        <ele>668.6</ele>
        <time>2025-12-28T09:22:27.000Z</time>
      </trkpt>
      <trkpt lat="43.02608" lon="1.18143">
        <ele>668.5</ele>
        <time>2025-12-28T09:22:28.000Z</time>
      </trkpt>
      <trkpt lat="43.02607" lon="1.18146">
        <ele>668.4</ele>
        <time>2025-12-28T09:22:29.000Z</time>
      </trkpt>
      <trkpt lat="43.02605" lon="1.1815">
        <ele>667.3</ele>
        <time>2025-12-28T09:22:30.000Z</time>
      </trkpt>
      <trkpt lat="43.02604" lon="1.18153">
        <ele>665.6</ele>
        <time>2025-12-28T09:22:31.000Z</time>
      </trkpt>
      <trkpt lat="43.02602" lon="1.18157">
        <ele>664.4</ele>
        <time>2025-12-28T09:22:32.000Z</time>
      </trkpt>
      <trkpt lat="43.02601" lon="1.18159">
        <ele>665.6</ele>
        <time>2025-12-28T09:22:33.000Z</time>
      </trkpt>
      <trkpt lat="43.026" lon="1.18162">
        <ele>666.3</ele>
        <time>2025-12-28T09:22:34.000Z</time>
      </trkpt>
      <trkpt lat="43.02598" lon="1.18164">
        <ele>665</ele>
        <time>2025-12-28T09:22:35.000Z</time>
      </trkpt>
      <trkpt lat="43.02597" lon="1.18167">
        <ele>665.5</ele>
        <time>2025-12-28T09:22:36.000Z</time>
      </trkpt>
      <trkpt lat="43.02595" lon="1.18169">
        <ele>666.2</ele>
        <time>2025-12-28T09:22:37.000Z</time>
      </trkpt>
      <trkpt lat="43.02593" lon="1.18172">
        <ele>666</ele>
        <time>2025-12-28T09:22:38.000Z</time>
      </trkpt>
      <trkpt lat="43.0259" lon="1.18175">
        <ele>666.9</ele>
        <time>2025-12-28T09:22:39.000Z</time>
      </trkpt>
      <trkpt lat="43.02588" lon="1.18177">
        <ele>668.3</ele>
        <time>2025-12-28T09:22:40.000Z</time>
      </trkpt>
      <trkpt lat="43.02586" lon="1.18179">
        <ele>668.7</ele>
        <time>2025-12-28T09:22:41.000Z</time>
      </trkpt>
      <trkpt lat="43.02583" lon="1.18181">
        <ele>668</ele>
        <time>2025-12-28T09:22:42.000Z</time>
      </trkpt>
      <trkpt lat="43.02581" lon="1.18183">
        <ele>669.3</ele>
        <time>2025-12-28T09:22:43.000Z</time>
      </trkpt>
      <trkpt lat="43.02578" lon="1.18185">
        <ele>670.1</ele>
        <time>2025-12-28T09:22:44.000Z</time>
      </trkpt>
      <trkpt lat="43.02576" lon="1.18187">
        <ele>670</ele>
        <time>2025-12-28T09:22:45.000Z</time>
      </trkpt>
      <trkpt lat="43.02572" lon="1.1819">
        <ele>667.3</ele>
        <time>2025-12-28T09:22:46.000Z</time>
      </trkpt>
      <trkpt lat="43.02569" lon="1.18192">
        <ele>666</ele>
        <time>2025-12-28T09:22:47.000Z</time>
      </trkpt>
      <trkpt lat="43.02566" lon="1.18193">
        <ele>665.6</ele>
        <time>2025-12-28T09:22:48.000Z</time>
      </trkpt>
      <trkpt lat="43.02562" lon="1.18194">
        <ele>665.9</ele>
        <time>2025-12-28T09:22:49.000Z</time>
      </trkpt>
      <trkpt lat="43.02559" lon="1.18196">
        <ele>665.7</ele>
        <time>2025-12-28T09:22:50.000Z</time>
      </trkpt>
      <trkpt lat="43.02556" lon="1.18198">
        <ele>665.4</ele>
        <time>2025-12-28T09:22:51.000Z</time>
      </trkpt>
      <trkpt lat="43.02554" lon="1.18199">
        <ele>664.3</ele>
        <time>2025-12-28T09:22:52.000Z</time>
      </trkpt>
      <trkpt lat="43.02551" lon="1.18199">
        <ele>664.3</ele>
        <time>2025-12-28T09:22:53.000Z</time>
      </trkpt>
      <trkpt lat="43.02549" lon="1.182">
        <ele>664.2</ele>
        <time>2025-12-28T09:22:54.000Z</time>
      </trkpt>
      <trkpt lat="43.02547" lon="1.18201">
        <ele>664.8</ele>
        <time>2025-12-28T09:22:55.000Z</time>
      </trkpt>
      <trkpt lat="43.02546" lon="1.182">
        <ele>664.8</ele>
        <time>2025-12-28T09:22:56.000Z</time>
      </trkpt>
      <trkpt lat="43.02545" lon="1.18199">
        <ele>664.9</ele>
        <time>2025-12-28T09:22:57.000Z</time>
      </trkpt>
      <trkpt lat="43.02543" lon="1.182">
        <ele>665.4</ele>
        <time>2025-12-28T09:22:58.000Z</time>
      </trkpt>
      <trkpt lat="43.02541" lon="1.182">
        <ele>665.8</ele>
        <time>2025-12-28T09:22:59.000Z</time>
      </trkpt>
      <trkpt lat="43.0254" lon="1.182">
        <ele>665.1</ele>
        <time>2025-12-28T09:23:00.000Z</time>
      </trkpt>
      <trkpt lat="43.02537" lon="1.18198">
        <ele>665.2</ele>
        <time>2025-12-28T09:23:01.000Z</time>
      </trkpt>
      <trkpt lat="43.02534" lon="1.18197">
        <ele>664.2</ele>
        <time>2025-12-28T09:23:02.000Z</time>
      </trkpt>
      <trkpt lat="43.02531" lon="1.18195">
        <ele>664.2</ele>
        <time>2025-12-28T09:23:03.000Z</time>
      </trkpt>
      <trkpt lat="43.02529" lon="1.18195">
        <ele>665.7</ele>
        <time>2025-12-28T09:23:04.000Z</time>
      </trkpt>
      <trkpt lat="43.02527" lon="1.18195">
        <ele>666.3</ele>
        <time>2025-12-28T09:23:05.000Z</time>
      </trkpt>
      <trkpt lat="43.02525" lon="1.18195">
        <ele>668</ele>
        <time>2025-12-28T09:23:06.000Z</time>
      </trkpt>
      <trkpt lat="43.02524" lon="1.18194">
        <ele>666.9</ele>
        <time>2025-12-28T09:23:07.000Z</time>
      </trkpt>
      <trkpt lat="43.02521" lon="1.18193">
        <ele>668.1</ele>
        <time>2025-12-28T09:23:08.000Z</time>
      </trkpt>
      <trkpt lat="43.0252" lon="1.18193">
        <ele>666</ele>
        <time>2025-12-28T09:23:09.000Z</time>
      </trkpt>
      <trkpt lat="43.02518" lon="1.18192">
        <ele>666</ele>
        <time>2025-12-28T09:23:10.000Z</time>
      </trkpt>
      <trkpt lat="43.02516" lon="1.18192">
        <ele>665.9</ele>
        <time>2025-12-28T09:23:11.000Z</time>
      </trkpt>
      <trkpt lat="43.02514" lon="1.18193">
        <ele>666.1</ele>
        <time>2025-12-28T09:23:12.000Z</time>
      </trkpt>
      <trkpt lat="43.02511" lon="1.18195">
        <ele>665.9</ele>
        <time>2025-12-28T09:23:13.000Z</time>
      </trkpt>
      <trkpt lat="43.02509" lon="1.18196">
        <ele>665.9</ele>
        <time>2025-12-28T09:23:14.000Z</time>
      </trkpt>
      <trkpt lat="43.02506" lon="1.18198">
        <ele>666.4</ele>
        <time>2025-12-28T09:23:15.000Z</time>
      </trkpt>
      <trkpt lat="43.02505" lon="1.18199">
        <ele>667.2</ele>
        <time>2025-12-28T09:23:16.000Z</time>
      </trkpt>
      <trkpt lat="43.02502" lon="1.18202">
        <ele>667.6</ele>
        <time>2025-12-28T09:23:17.000Z</time>
      </trkpt>
      <trkpt lat="43.025" lon="1.18204">
        <ele>666.8</ele>
        <time>2025-12-28T09:23:18.000Z</time>
      </trkpt>
      <trkpt lat="43.02498" lon="1.18206">
        <ele>667.3</ele>
        <time>2025-12-28T09:23:19.000Z</time>
      </trkpt>
      <trkpt lat="43.02496" lon="1.18208">
        <ele>667</ele>
        <time>2025-12-28T09:23:20.000Z</time>
      </trkpt>
      <trkpt lat="43.02494" lon="1.1821">
        <ele>668.8</ele>
        <time>2025-12-28T09:23:21.000Z</time>
      </trkpt>
      <trkpt lat="43.02493" lon="1.18211">
        <ele>669.8</ele>
        <time>2025-12-28T09:23:22.000Z</time>
      </trkpt>
      <trkpt lat="43.0249" lon="1.18213">
        <ele>669.1</ele>
        <time>2025-12-28T09:23:23.000Z</time>
      </trkpt>
      <trkpt lat="43.02488" lon="1.18215">
        <ele>668.3</ele>
        <time>2025-12-28T09:23:24.000Z</time>
      </trkpt>
      <trkpt lat="43.02487" lon="1.18217">
        <ele>667.6</ele>
        <time>2025-12-28T09:23:25.000Z</time>
      </trkpt>
      <trkpt lat="43.02485" lon="1.1822">
        <ele>667.4</ele>
        <time>2025-12-28T09:23:26.000Z</time>
      </trkpt>
      <trkpt lat="43.02484" lon="1.18223">
        <ele>668</ele>
        <time>2025-12-28T09:23:27.000Z</time>
      </trkpt>
      <trkpt lat="43.02483" lon="1.18226">
        <ele>669.3</ele>
        <time>2025-12-28T09:23:28.000Z</time>
      </trkpt>
      <trkpt lat="43.02481" lon="1.18229">
        <ele>668.8</ele>
        <time>2025-12-28T09:23:29.000Z</time>
      </trkpt>
      <trkpt lat="43.0248" lon="1.18231">
        <ele>668.7</ele>
        <time>2025-12-28T09:23:30.000Z</time>
      </trkpt>
      <trkpt lat="43.02479" lon="1.18232">
        <ele>668.7</ele>
        <time>2025-12-28T09:23:31.000Z</time>
      </trkpt>
      <trkpt lat="43.02479" lon="1.18232">
        <ele>668.8</ele>
        <time>2025-12-28T09:23:32.000Z</time>
      </trkpt>
      <trkpt lat="43.02479" lon="1.18233">
        <ele>668.8</ele>
        <time>2025-12-28T09:23:33.000Z</time>
      </trkpt>
      <trkpt lat="43.02478" lon="1.18233">
        <ele>668.6</ele>
        <time>2025-12-28T09:23:34.000Z</time>
      </trkpt>
      <trkpt lat="43.02478" lon="1.18234">
        <ele>668.4</ele>
        <time>2025-12-28T09:23:35.000Z</time>
      </trkpt>
      <trkpt lat="43.02476" lon="1.18234">
        <ele>668.1</ele>
        <time>2025-12-28T09:23:36.000Z</time>
      </trkpt>
      <trkpt lat="43.02476" lon="1.18235">
        <ele>667.9</ele>
        <time>2025-12-28T09:23:37.000Z</time>
      </trkpt>
      <trkpt lat="43.02473" lon="1.18237">
        <ele>668.8</ele>
        <time>2025-12-28T09:23:38.000Z</time>
      </trkpt>
      <trkpt lat="43.02469" lon="1.18238">
        <ele>667.6</ele>
        <time>2025-12-28T09:23:39.000Z</time>
      </trkpt>
      <trkpt lat="43.02463" lon="1.1824">
        <ele>666</ele>
        <time>2025-12-28T09:23:40.000Z</time>
      </trkpt>
      <trkpt lat="43.02458" lon="1.18242">
        <ele>665.3</ele>
        <time>2025-12-28T09:23:41.000Z</time>
      </trkpt>
      <trkpt lat="43.02452" lon="1.18244">
        <ele>666.3</ele>
        <time>2025-12-28T09:23:42.000Z</time>
      </trkpt>
      <trkpt lat="43.02448" lon="1.18247">
        <ele>667.7</ele>
        <time>2025-12-28T09:23:43.000Z</time>
      </trkpt>
      <trkpt lat="43.02442" lon="1.18249">
        <ele>668.5</ele>
        <time>2025-12-28T09:23:44.000Z</time>
      </trkpt>
      <trkpt lat="43.02439" lon="1.18251">
        <ele>667.3</ele>
        <time>2025-12-28T09:23:45.000Z</time>
      </trkpt>
      <trkpt lat="43.02437" lon="1.18252">
        <ele>668.1</ele>
        <time>2025-12-28T09:23:46.000Z</time>
      </trkpt>
      <trkpt lat="43.02435" lon="1.18253">
        <ele>668.5</ele>
        <time>2025-12-28T09:23:47.000Z</time>
      </trkpt>
      <trkpt lat="43.02432" lon="1.18256">
        <ele>669.1</ele>
        <time>2025-12-28T09:23:48.000Z</time>
      </trkpt>
      <trkpt lat="43.02429" lon="1.18258">
        <ele>668.1</ele>
        <time>2025-12-28T09:23:49.000Z</time>
      </trkpt>
      <trkpt lat="43.02426" lon="1.1826">
        <ele>668.2</ele>
        <time>2025-12-28T09:23:50.000Z</time>
      </trkpt>
      <trkpt lat="43.02423" lon="1.18261">
        <ele>667.7</ele>
        <time>2025-12-28T09:23:51.000Z</time>
      </trkpt>
      <trkpt lat="43.0242" lon="1.18262">
        <ele>667.9</ele>
        <time>2025-12-28T09:23:52.000Z</time>
      </trkpt>
      <trkpt lat="43.02418" lon="1.18263">
        <ele>666.4</ele>
        <time>2025-12-28T09:23:53.000Z</time>
      </trkpt>
      <trkpt lat="43.02415" lon="1.18264">
        <ele>667.4</ele>
        <time>2025-12-28T09:23:54.000Z</time>
      </trkpt>
      <trkpt lat="43.02414" lon="1.18264">
        <ele>667.7</ele>
        <time>2025-12-28T09:23:55.000Z</time>
      </trkpt>
      <trkpt lat="43.02412" lon="1.18265">
        <ele>667.6</ele>
        <time>2025-12-28T09:23:56.000Z</time>
      </trkpt>
      <trkpt lat="43.02409" lon="1.18266">
        <ele>669.8</ele>
        <time>2025-12-28T09:23:57.000Z</time>
      </trkpt>
      <trkpt lat="43.02408" lon="1.18267">
        <ele>668.6</ele>
        <time>2025-12-28T09:23:58.000Z</time>
      </trkpt>
      <trkpt lat="43.02405" lon="1.18268">
        <ele>668.5</ele>
        <time>2025-12-28T09:23:59.000Z</time>
      </trkpt>
      <trkpt lat="43.02403" lon="1.1827">
        <ele>669.2</ele>
        <time>2025-12-28T09:24:00.000Z</time>
      </trkpt>
      <trkpt lat="43.02401" lon="1.18271">
        <ele>667.9</ele>
        <time>2025-12-28T09:24:01.000Z</time>
      </trkpt>
      <trkpt lat="43.02399" lon="1.18273">
        <ele>667.1</ele>
        <time>2025-12-28T09:24:02.000Z</time>
      </trkpt>
      <trkpt lat="43.02396" lon="1.18276">
        <ele>667.5</ele>
        <time>2025-12-28T09:24:03.000Z</time>
      </trkpt>
      <trkpt lat="43.02393" lon="1.18279">
        <ele>667.6</ele>
        <time>2025-12-28T09:24:04.000Z</time>
      </trkpt>
      <trkpt lat="43.02392" lon="1.1828">
        <ele>668.5</ele>
        <time>2025-12-28T09:24:05.000Z</time>
      </trkpt>
      <trkpt lat="43.02391" lon="1.18283">
        <ele>668.7</ele>
        <time>2025-12-28T09:24:06.000Z</time>
      </trkpt>
      <trkpt lat="43.02388" lon="1.18285">
        <ele>668.1</ele>
        <time>2025-12-28T09:24:07.000Z</time>
      </trkpt>
      <trkpt lat="43.02386" lon="1.18289">
        <ele>669.8</ele>
        <time>2025-12-28T09:24:08.000Z</time>
      </trkpt>
      <trkpt lat="43.02385" lon="1.18292">
        <ele>669.2</ele>
        <time>2025-12-28T09:24:09.000Z</time>
      </trkpt>
      <trkpt lat="43.02384" lon="1.18296">
        <ele>667.4</ele>
        <time>2025-12-28T09:24:10.000Z</time>
      </trkpt>
      <trkpt lat="43.02382" lon="1.18299">
        <ele>665.8</ele>
        <time>2025-12-28T09:24:11.000Z</time>
      </trkpt>
      <trkpt lat="43.02381" lon="1.18304">
        <ele>665.3</ele>
        <time>2025-12-28T09:24:12.000Z</time>
      </trkpt>
      <trkpt lat="43.02379" lon="1.18309">
        <ele>665</ele>
        <time>2025-12-28T09:24:13.000Z</time>
      </trkpt>
      <trkpt lat="43.02377" lon="1.18314">
        <ele>666.3</ele>
        <time>2025-12-28T09:24:14.000Z</time>
      </trkpt>
      <trkpt lat="43.02375" lon="1.18319">
        <ele>665.4</ele>
        <time>2025-12-28T09:24:15.000Z</time>
      </trkpt>
      <trkpt lat="43.02372" lon="1.18326">
        <ele>664.1</ele>
        <time>2025-12-28T09:24:16.000Z</time>
      </trkpt>
      <trkpt lat="43.0237" lon="1.18331">
        <ele>664.6</ele>
        <time>2025-12-28T09:24:17.000Z</time>
      </trkpt>
      <trkpt lat="43.02368" lon="1.18336">
        <ele>666.2</ele>
        <time>2025-12-28T09:24:18.000Z</time>
      </trkpt>
      <trkpt lat="43.02367" lon="1.18341">
        <ele>665</ele>
        <time>2025-12-28T09:24:19.000Z</time>
      </trkpt>
      <trkpt lat="43.02366" lon="1.18348">
        <ele>664.9</ele>
        <time>2025-12-28T09:24:20.000Z</time>
      </trkpt>
      <trkpt lat="43.02364" lon="1.18354">
        <ele>664.8</ele>
        <time>2025-12-28T09:24:21.000Z</time>
      </trkpt>
      <trkpt lat="43.02362" lon="1.18357">
        <ele>665</ele>
        <time>2025-12-28T09:24:22.000Z</time>
      </trkpt>
      <trkpt lat="43.02361" lon="1.18361">
        <ele>665.5</ele>
        <time>2025-12-28T09:24:23.000Z</time>
      </trkpt>
      <trkpt lat="43.02358" lon="1.18365">
        <ele>665.2</ele>
        <time>2025-12-28T09:24:24.000Z</time>
      </trkpt>
      <trkpt lat="43.02357" lon="1.18369">
        <ele>666.5</ele>
        <time>2025-12-28T09:24:25.000Z</time>
      </trkpt>
      <trkpt lat="43.02355" lon="1.18373">
        <ele>665.9</ele>
        <time>2025-12-28T09:24:26.000Z</time>
      </trkpt>
      <trkpt lat="43.02353" lon="1.18378">
        <ele>666.4</ele>
        <time>2025-12-28T09:24:27.000Z</time>
      </trkpt>
      <trkpt lat="43.02352" lon="1.18381">
        <ele>666.7</ele>
        <time>2025-12-28T09:24:28.000Z</time>
      </trkpt>
      <trkpt lat="43.02351" lon="1.18385">
        <ele>664.3</ele>
        <time>2025-12-28T09:24:29.000Z</time>
      </trkpt>
      <trkpt lat="43.02348" lon="1.18389">
        <ele>663.9</ele>
        <time>2025-12-28T09:24:30.000Z</time>
      </trkpt>
      <trkpt lat="43.02345" lon="1.18393">
        <ele>662.9</ele>
        <time>2025-12-28T09:24:31.000Z</time>
      </trkpt>
      <trkpt lat="43.02343" lon="1.18397">
        <ele>662.3</ele>
        <time>2025-12-28T09:24:32.000Z</time>
      </trkpt>
      <trkpt lat="43.02341" lon="1.18402">
        <ele>664</ele>
        <time>2025-12-28T09:24:33.000Z</time>
      </trkpt>
      <trkpt lat="43.0234" lon="1.18407">
        <ele>663.3</ele>
        <time>2025-12-28T09:24:34.000Z</time>
      </trkpt>
      <trkpt lat="43.02338" lon="1.18411">
        <ele>663.7</ele>
        <time>2025-12-28T09:24:35.000Z</time>
      </trkpt>
      <trkpt lat="43.02336" lon="1.18415">
        <ele>663.1</ele>
        <time>2025-12-28T09:24:36.000Z</time>
      </trkpt>
      <trkpt lat="43.02334" lon="1.1842">
        <ele>661.2</ele>
        <time>2025-12-28T09:24:37.000Z</time>
      </trkpt>
      <trkpt lat="43.02332" lon="1.18424">
        <ele>662.3</ele>
        <time>2025-12-28T09:24:38.000Z</time>
      </trkpt>
      <trkpt lat="43.02329" lon="1.18427">
        <ele>660.7</ele>
        <time>2025-12-28T09:24:39.000Z</time>
      </trkpt>
      <trkpt lat="43.02325" lon="1.1843">
        <ele>659.9</ele>
        <time>2025-12-28T09:24:40.000Z</time>
      </trkpt>
      <trkpt lat="43.02322" lon="1.18433">
        <ele>659.6</ele>
        <time>2025-12-28T09:24:41.000Z</time>
      </trkpt>
      <trkpt lat="43.02318" lon="1.18435">
        <ele>658.1</ele>
        <time>2025-12-28T09:24:42.000Z</time>
      </trkpt>
      <trkpt lat="43.02313" lon="1.18438">
        <ele>657.4</ele>
        <time>2025-12-28T09:24:43.000Z</time>
      </trkpt>
      <trkpt lat="43.02305" lon="1.18443">
        <ele>656.8</ele>
        <time>2025-12-28T09:24:44.000Z</time>
      </trkpt>
      <trkpt lat="43.02299" lon="1.18447">
        <ele>657</ele>
        <time>2025-12-28T09:24:45.000Z</time>
      </trkpt>
      <trkpt lat="43.02298" lon="1.18446">
        <ele>657.6</ele>
        <time>2025-12-28T09:24:46.000Z</time>
      </trkpt>
      <trkpt lat="43.02294" lon="1.18448">
        <ele>658.7</ele>
        <time>2025-12-28T09:24:47.000Z</time>
      </trkpt>
      <trkpt lat="43.0229" lon="1.18447">
        <ele>658.8</ele>
        <time>2025-12-28T09:24:48.000Z</time>
      </trkpt>
      <trkpt lat="43.02286" lon="1.18449">
        <ele>655.9</ele>
        <time>2025-12-28T09:24:49.000Z</time>
      </trkpt>
      <trkpt lat="43.02283" lon="1.18452">
        <ele>656.9</ele>
        <time>2025-12-28T09:24:50.000Z</time>
      </trkpt>
      <trkpt lat="43.0228" lon="1.18453">
        <ele>656</ele>
        <time>2025-12-28T09:24:51.000Z</time>
      </trkpt>
      <trkpt lat="43.02277" lon="1.18454">
        <ele>655.9</ele>
        <time>2025-12-28T09:24:52.000Z</time>
      </trkpt>
      <trkpt lat="43.02274" lon="1.18455">
        <ele>654.8</ele>
        <time>2025-12-28T09:24:53.000Z</time>
      </trkpt>
      <trkpt lat="43.0227" lon="1.18457">
        <ele>654.6</ele>
        <time>2025-12-28T09:24:54.000Z</time>
      </trkpt>
      <trkpt lat="43.02266" lon="1.18459">
        <ele>654.6</ele>
        <time>2025-12-28T09:24:55.000Z</time>
      </trkpt>
      <trkpt lat="43.02262" lon="1.18463">
        <ele>654.7</ele>
        <time>2025-12-28T09:24:56.000Z</time>
      </trkpt>
      <trkpt lat="43.02258" lon="1.18467">
        <ele>653.7</ele>
        <time>2025-12-28T09:24:57.000Z</time>
      </trkpt>
      <trkpt lat="43.02252" lon="1.18474">
        <ele>652.4</ele>
        <time>2025-12-28T09:24:58.000Z</time>
      </trkpt>
      <trkpt lat="43.02248" lon="1.18481">
        <ele>652.6</ele>
        <time>2025-12-28T09:24:59.000Z</time>
      </trkpt>
      <trkpt lat="43.02246" lon="1.18487">
        <ele>653.7</ele>
        <time>2025-12-28T09:25:00.000Z</time>
      </trkpt>
      <trkpt lat="43.02241" lon="1.18491">
        <ele>652.9</ele>
        <time>2025-12-28T09:25:01.000Z</time>
      </trkpt>
      <trkpt lat="43.02233" lon="1.18494">
        <ele>651.7</ele>
        <time>2025-12-28T09:25:02.000Z</time>
      </trkpt>
      <trkpt lat="43.02229" lon="1.18498">
        <ele>651.9</ele>
        <time>2025-12-28T09:25:03.000Z</time>
      </trkpt>
      <trkpt lat="43.02223" lon="1.18502">
        <ele>651.4</ele>
        <time>2025-12-28T09:25:04.000Z</time>
      </trkpt>
      <trkpt lat="43.02219" lon="1.18505">
        <ele>650.8</ele>
        <time>2025-12-28T09:25:05.000Z</time>
      </trkpt>
      <trkpt lat="43.02214" lon="1.18508">
        <ele>650.7</ele>
        <time>2025-12-28T09:25:06.000Z</time>
      </trkpt>
      <trkpt lat="43.02209" lon="1.18511">
        <ele>651.1</ele>
        <time>2025-12-28T09:25:07.000Z</time>
      </trkpt>
      <trkpt lat="43.02203" lon="1.18512">
        <ele>651.2</ele>
        <time>2025-12-28T09:25:08.000Z</time>
      </trkpt>
      <trkpt lat="43.02197" lon="1.18514">
        <ele>650.6</ele>
        <time>2025-12-28T09:25:09.000Z</time>
      </trkpt>
      <trkpt lat="43.02192" lon="1.18515">
        <ele>650.1</ele>
        <time>2025-12-28T09:25:10.000Z</time>
      </trkpt>
      <trkpt lat="43.02186" lon="1.18516">
        <ele>648.2</ele>
        <time>2025-12-28T09:25:11.000Z</time>
      </trkpt>
      <trkpt lat="43.02179" lon="1.18517">
        <ele>647.4</ele>
        <time>2025-12-28T09:25:12.000Z</time>
      </trkpt>
      <trkpt lat="43.02172" lon="1.18518">
        <ele>646.3</ele>
        <time>2025-12-28T09:25:13.000Z</time>
      </trkpt>
      <trkpt lat="43.02165" lon="1.18518">
        <ele>645.8</ele>
        <time>2025-12-28T09:25:14.000Z</time>
      </trkpt>
      <trkpt lat="43.02159" lon="1.1852">
        <ele>646.5</ele>
        <time>2025-12-28T09:25:15.000Z</time>
      </trkpt>
      <trkpt lat="43.02156" lon="1.18521">
        <ele>646.6</ele>
        <time>2025-12-28T09:25:16.000Z</time>
      </trkpt>
      <trkpt lat="43.02151" lon="1.18522">
        <ele>648</ele>
        <time>2025-12-28T09:25:17.000Z</time>
      </trkpt>
      <trkpt lat="43.02147" lon="1.18519">
        <ele>647.4</ele>
        <time>2025-12-28T09:25:18.000Z</time>
      </trkpt>
      <trkpt lat="43.02141" lon="1.18519">
        <ele>648.9</ele>
        <time>2025-12-28T09:25:19.000Z</time>
      </trkpt>
      <trkpt lat="43.02138" lon="1.18517">
        <ele>646.5</ele>
        <time>2025-12-28T09:25:20.000Z</time>
      </trkpt>
      <trkpt lat="43.02133" lon="1.18515">
        <ele>646.7</ele>
        <time>2025-12-28T09:25:21.000Z</time>
      </trkpt>
      <trkpt lat="43.02129" lon="1.18514">
        <ele>645.9</ele>
        <time>2025-12-28T09:25:22.000Z</time>
      </trkpt>
      <trkpt lat="43.02125" lon="1.18511">
        <ele>644.5</ele>
        <time>2025-12-28T09:25:23.000Z</time>
      </trkpt>
      <trkpt lat="43.02123" lon="1.18509">
        <ele>642.7</ele>
        <time>2025-12-28T09:25:24.000Z</time>
      </trkpt>
      <trkpt lat="43.0212" lon="1.18506">
        <ele>642.7</ele>
        <time>2025-12-28T09:25:25.000Z</time>
      </trkpt>
      <trkpt lat="43.02117" lon="1.18504">
        <ele>642.9</ele>
        <time>2025-12-28T09:25:26.000Z</time>
      </trkpt>
      <trkpt lat="43.02114" lon="1.18502">
        <ele>641.2</ele>
        <time>2025-12-28T09:25:27.000Z</time>
      </trkpt>
      <trkpt lat="43.02111" lon="1.18499">
        <ele>642</ele>
        <time>2025-12-28T09:25:28.000Z</time>
      </trkpt>
      <trkpt lat="43.02108" lon="1.18497">
        <ele>641.2</ele>
        <time>2025-12-28T09:25:29.000Z</time>
      </trkpt>
      <trkpt lat="43.02104" lon="1.18496">
        <ele>639</ele>
        <time>2025-12-28T09:25:30.000Z</time>
      </trkpt>
      <trkpt lat="43.021" lon="1.18494">
        <ele>638.4</ele>
        <time>2025-12-28T09:25:31.000Z</time>
      </trkpt>
      <trkpt lat="43.02095" lon="1.18493">
        <ele>637</ele>
        <time>2025-12-28T09:25:32.000Z</time>
      </trkpt>
      <trkpt lat="43.0209" lon="1.1849">
        <ele>636.5</ele>
        <time>2025-12-28T09:25:33.000Z</time>
      </trkpt>
      <trkpt lat="43.02085" lon="1.18487">
        <ele>635.6</ele>
        <time>2025-12-28T09:25:34.000Z</time>
      </trkpt>
      <trkpt lat="43.02078" lon="1.18484">
        <ele>635.5</ele>
        <time>2025-12-28T09:25:35.000Z</time>
      </trkpt>
      <trkpt lat="43.02073" lon="1.1848">
        <ele>634.1</ele>
        <time>2025-12-28T09:25:36.000Z</time>
      </trkpt>
      <trkpt lat="43.02068" lon="1.18478">
        <ele>633.2</ele>
        <time>2025-12-28T09:25:37.000Z</time>
      </trkpt>
      <trkpt lat="43.02064" lon="1.18475">
        <ele>633.4</ele>
        <time>2025-12-28T09:25:38.000Z</time>
      </trkpt>
      <trkpt lat="43.0206" lon="1.18476">
        <ele>632.6</ele>
        <time>2025-12-28T09:25:39.000Z</time>
      </trkpt>
      <trkpt lat="43.02055" lon="1.18474">
        <ele>632</ele>
        <time>2025-12-28T09:25:40.000Z</time>
      </trkpt>
      <trkpt lat="43.0205" lon="1.1847">
        <ele>631.2</ele>
        <time>2025-12-28T09:25:41.000Z</time>
      </trkpt>
      <trkpt lat="43.02046" lon="1.18467">
        <ele>632.9</ele>
        <time>2025-12-28T09:25:42.000Z</time>
      </trkpt>
      <trkpt lat="43.02043" lon="1.18465">
        <ele>632.4</ele>
        <time>2025-12-28T09:25:43.000Z</time>
      </trkpt>
      <trkpt lat="43.0204" lon="1.18461">
        <ele>633.1</ele>
        <time>2025-12-28T09:25:44.000Z</time>
      </trkpt>
      <trkpt lat="43.02039" lon="1.18456">
        <ele>634</ele>
        <time>2025-12-28T09:25:45.000Z</time>
      </trkpt>
      <trkpt lat="43.0204" lon="1.18451">
        <ele>633.4</ele>
        <time>2025-12-28T09:25:46.000Z</time>
      </trkpt>
      <trkpt lat="43.02041" lon="1.18446">
        <ele>632.6</ele>
        <time>2025-12-28T09:25:47.000Z</time>
      </trkpt>
      <trkpt lat="43.02043" lon="1.18442">
        <ele>631.7</ele>
        <time>2025-12-28T09:25:48.000Z</time>
      </trkpt>
      <trkpt lat="43.02043" lon="1.18436">
        <ele>630.6</ele>
        <time>2025-12-28T09:25:49.000Z</time>
      </trkpt>
      <trkpt lat="43.02042" lon="1.1843">
        <ele>628.3</ele>
        <time>2025-12-28T09:25:50.000Z</time>
      </trkpt>
      <trkpt lat="43.0204" lon="1.18426">
        <ele>627.1</ele>
        <time>2025-12-28T09:25:51.000Z</time>
      </trkpt>
      <trkpt lat="43.02038" lon="1.18424">
        <ele>626.2</ele>
        <time>2025-12-28T09:25:52.000Z</time>
      </trkpt>
      <trkpt lat="43.02035" lon="1.18423">
        <ele>625.6</ele>
        <time>2025-12-28T09:25:53.000Z</time>
      </trkpt>
      <trkpt lat="43.02033" lon="1.18423">
        <ele>624.6</ele>
        <time>2025-12-28T09:25:54.000Z</time>
      </trkpt>
      <trkpt lat="43.02031" lon="1.18421">
        <ele>623.7</ele>
        <time>2025-12-28T09:25:55.000Z</time>
      </trkpt>
      <trkpt lat="43.02031" lon="1.18417">
        <ele>625.3</ele>
        <time>2025-12-28T09:25:56.000Z</time>
      </trkpt>
      <trkpt lat="43.02032" lon="1.18411">
        <ele>624.9</ele>
        <time>2025-12-28T09:25:57.000Z</time>
      </trkpt>
      <trkpt lat="43.02032" lon="1.18405">
        <ele>622.3</ele>
        <time>2025-12-28T09:25:58.000Z</time>
      </trkpt>
      <trkpt lat="43.02032" lon="1.18399">
        <ele>621.4</ele>
        <time>2025-12-28T09:25:59.000Z</time>
      </trkpt>
      <trkpt lat="43.02033" lon="1.18393">
        <ele>620.8</ele>
        <time>2025-12-28T09:26:00.000Z</time>
      </trkpt>
      <trkpt lat="43.02033" lon="1.18391">
        <ele>620.4</ele>
        <time>2025-12-28T09:26:01.000Z</time>
      </trkpt>
      <trkpt lat="43.02033" lon="1.18391">
        <ele>621.7</ele>
        <time>2025-12-28T09:26:02.000Z</time>
      </trkpt>
      <trkpt lat="43.02033" lon="1.18392">
        <ele>622.8</ele>
        <time>2025-12-28T09:26:03.000Z</time>
      </trkpt>
      <trkpt lat="43.02032" lon="1.18393">
        <ele>623.5</ele>
        <time>2025-12-28T09:26:04.000Z</time>
      </trkpt>
      <trkpt lat="43.02032" lon="1.18393">
        <ele>623.4</ele>
        <time>2025-12-28T09:26:05.000Z</time>
      </trkpt>
      <trkpt lat="43.02033" lon="1.18394">
        <ele>622.2</ele>
        <time>2025-12-28T09:27:21.000Z</time>
      </trkpt>
      <trkpt lat="43.02033" lon="1.18393">
        <ele>622</ele>
        <time>2025-12-28T09:27:22.000Z</time>
      </trkpt>
      <trkpt lat="43.02033" lon="1.18393">
        <ele>621.7</ele>
        <time>2025-12-28T09:27:23.000Z</time>
      </trkpt>
      <trkpt lat="43.02034" lon="1.18392">
        <ele>620</ele>
        <time>2025-12-28T09:27:24.000Z</time>
      </trkpt>
      <trkpt lat="43.02035" lon="1.1839">
        <ele>619.1</ele>
        <time>2025-12-28T09:27:25.000Z</time>
      </trkpt>
      <trkpt lat="43.02036" lon="1.18388">
        <ele>619.4</ele>
        <time>2025-12-28T09:27:26.000Z</time>
      </trkpt>
      <trkpt lat="43.02037" lon="1.18385">
        <ele>619</ele>
        <time>2025-12-28T09:27:27.000Z</time>
      </trkpt>
      <trkpt lat="43.02037" lon="1.18381">
        <ele>619.9</ele>
        <time>2025-12-28T09:27:28.000Z</time>
      </trkpt>
      <trkpt lat="43.02038" lon="1.18378">
        <ele>619.3</ele>
        <time>2025-12-28T09:27:29.000Z</time>
      </trkpt>
      <trkpt lat="43.02039" lon="1.18375">
        <ele>618.6</ele>
        <time>2025-12-28T09:27:30.000Z</time>
      </trkpt>
      <trkpt lat="43.0204" lon="1.18371">
        <ele>618.5</ele>
        <time>2025-12-28T09:27:31.000Z</time>
      </trkpt>
      <trkpt lat="43.02042" lon="1.18367">
        <ele>618.2</ele>
        <time>2025-12-28T09:27:32.000Z</time>
      </trkpt>
      <trkpt lat="43.02043" lon="1.18364">
        <ele>617.8</ele>
        <time>2025-12-28T09:27:33.000Z</time>
      </trkpt>
      <trkpt lat="43.02044" lon="1.1836">
        <ele>618.6</ele>
        <time>2025-12-28T09:27:34.000Z</time>
      </trkpt>
      <trkpt lat="43.02045" lon="1.18357">
        <ele>618</ele>
        <time>2025-12-28T09:27:35.000Z</time>
      </trkpt>
      <trkpt lat="43.02046" lon="1.18353">
        <ele>619.1</ele>
        <time>2025-12-28T09:27:36.000Z</time>
      </trkpt>
      <trkpt lat="43.02047" lon="1.1835">
        <ele>618.4</ele>
        <time>2025-12-28T09:27:37.000Z</time>
      </trkpt>
      <trkpt lat="43.02047" lon="1.18347">
        <ele>618.4</ele>
        <time>2025-12-28T09:27:38.000Z</time>
      </trkpt>
      <trkpt lat="43.02048" lon="1.18343">
        <ele>617.5</ele>
        <time>2025-12-28T09:27:39.000Z</time>
      </trkpt>
      <trkpt lat="43.02049" lon="1.18339">
        <ele>617.6</ele>
        <time>2025-12-28T09:27:40.000Z</time>
      </trkpt>
      <trkpt lat="43.0205" lon="1.18334">
        <ele>616.9</ele>
        <time>2025-12-28T09:27:41.000Z</time>
      </trkpt>
      <trkpt lat="43.02051" lon="1.18322">
        <ele>615.9</ele>
        <time>2025-12-28T09:27:42.000Z</time>
      </trkpt>
      <trkpt lat="43.02053" lon="1.18313">
        <ele>615.1</ele>
        <time>2025-12-28T09:27:43.000Z</time>
      </trkpt>
      <trkpt lat="43.02053" lon="1.18305">
        <ele>613</ele>
        <time>2025-12-28T09:27:44.000Z</time>
      </trkpt>
      <trkpt lat="43.02053" lon="1.18298">
        <ele>613.8</ele>
        <time>2025-12-28T09:27:45.000Z</time>
      </trkpt>
      <trkpt lat="43.02053" lon="1.1829">
        <ele>612.3</ele>
        <time>2025-12-28T09:27:46.000Z</time>
      </trkpt>
      <trkpt lat="43.02053" lon="1.18284">
        <ele>611.6</ele>
        <time>2025-12-28T09:27:47.000Z</time>
      </trkpt>
      <trkpt lat="43.02055" lon="1.18278">
        <ele>610.3</ele>
        <time>2025-12-28T09:27:48.000Z</time>
      </trkpt>
      <trkpt lat="43.02058" lon="1.18268">
        <ele>609.3</ele>
        <time>2025-12-28T09:27:49.000Z</time>
      </trkpt>
      <trkpt lat="43.02062" lon="1.18265">
        <ele>609.1</ele>
        <time>2025-12-28T09:27:50.000Z</time>
      </trkpt>
      <trkpt lat="43.02064" lon="1.18257">
        <ele>608.3</ele>
        <time>2025-12-28T09:27:51.000Z</time>
      </trkpt>
      <trkpt lat="43.02066" lon="1.1825">
        <ele>607.7</ele>
        <time>2025-12-28T09:27:52.000Z</time>
      </trkpt>
      <trkpt lat="43.02066" lon="1.18244">
        <ele>607.2</ele>
        <time>2025-12-28T09:27:53.000Z</time>
      </trkpt>
      <trkpt lat="43.02068" lon="1.18235">
        <ele>606.2</ele>
        <time>2025-12-28T09:27:54.000Z</time>
      </trkpt>
      <trkpt lat="43.0207" lon="1.18227">
        <ele>605</ele>
        <time>2025-12-28T09:27:55.000Z</time>
      </trkpt>
      <trkpt lat="43.02072" lon="1.1822">
        <ele>604.6</ele>
        <time>2025-12-28T09:27:56.000Z</time>
      </trkpt>
      <trkpt lat="43.02076" lon="1.18218">
        <ele>603.4</ele>
        <time>2025-12-28T09:27:57.000Z</time>
      </trkpt>
      <trkpt lat="43.02078" lon="1.18216">
        <ele>603.3</ele>
        <time>2025-12-28T09:27:58.000Z</time>
      </trkpt>
      <trkpt lat="43.02079" lon="1.18218">
        <ele>602.5</ele>
        <time>2025-12-28T09:27:59.000Z</time>
      </trkpt>
      <trkpt lat="43.02082" lon="1.18219">
        <ele>602.8</ele>
        <time>2025-12-28T09:28:00.000Z</time>
      </trkpt>
      <trkpt lat="43.02084" lon="1.18222">
        <ele>602.3</ele>
        <time>2025-12-28T09:28:01.000Z</time>
      </trkpt>
      <trkpt lat="43.02087" lon="1.18224">
        <ele>602.4</ele>
        <time>2025-12-28T09:28:02.000Z</time>
      </trkpt>
      <trkpt lat="43.0209" lon="1.18226">
        <ele>602.4</ele>
        <time>2025-12-28T09:28:03.000Z</time>
      </trkpt>
      <trkpt lat="43.02094" lon="1.18225">
        <ele>603.2</ele>
        <time>2025-12-28T09:28:04.000Z</time>
      </trkpt>
      <trkpt lat="43.02098" lon="1.18221">
        <ele>604.2</ele>
        <time>2025-12-28T09:28:05.000Z</time>
      </trkpt>
      <trkpt lat="43.021" lon="1.18217">
        <ele>604.7</ele>
        <time>2025-12-28T09:28:06.000Z</time>
      </trkpt>
      <trkpt lat="43.02102" lon="1.18211">
        <ele>604.3</ele>
        <time>2025-12-28T09:28:07.000Z</time>
      </trkpt>
      <trkpt lat="43.02104" lon="1.18205">
        <ele>605</ele>
        <time>2025-12-28T09:28:08.000Z</time>
      </trkpt>
      <trkpt lat="43.02108" lon="1.18195">
        <ele>604.4</ele>
        <time>2025-12-28T09:28:09.000Z</time>
      </trkpt>
      <trkpt lat="43.02113" lon="1.18187">
        <ele>604</ele>
        <time>2025-12-28T09:28:10.000Z</time>
      </trkpt>
      <trkpt lat="43.02117" lon="1.18179">
        <ele>604.2</ele>
        <time>2025-12-28T09:28:11.000Z</time>
      </trkpt>
      <trkpt lat="43.02117" lon="1.1817">
        <ele>605</ele>
        <time>2025-12-28T09:28:12.000Z</time>
      </trkpt>
      <trkpt lat="43.02119" lon="1.18162">
        <ele>604.2</ele>
        <time>2025-12-28T09:28:13.000Z</time>
      </trkpt>
      <trkpt lat="43.0212" lon="1.18153">
        <ele>603.1</ele>
        <time>2025-12-28T09:28:14.000Z</time>
      </trkpt>
      <trkpt lat="43.02122" lon="1.18147">
        <ele>603.7</ele>
        <time>2025-12-28T09:28:15.000Z</time>
      </trkpt>
      <trkpt lat="43.02125" lon="1.1814">
        <ele>604.3</ele>
        <time>2025-12-28T09:28:16.000Z</time>
      </trkpt>
      <trkpt lat="43.02127" lon="1.18132">
        <ele>604.2</ele>
        <time>2025-12-28T09:28:17.000Z</time>
      </trkpt>
      <trkpt lat="43.02127" lon="1.18126">
        <ele>604.3</ele>
        <time>2025-12-28T09:28:18.000Z</time>
      </trkpt>
      <trkpt lat="43.02128" lon="1.1812">
        <ele>604</ele>
        <time>2025-12-28T09:28:19.000Z</time>
      </trkpt>
      <trkpt lat="43.0213" lon="1.18112">
        <ele>605.4</ele>
        <time>2025-12-28T09:28:20.000Z</time>
      </trkpt>
      <trkpt lat="43.02132" lon="1.18105">
        <ele>606</ele>
        <time>2025-12-28T09:28:21.000Z</time>
      </trkpt>
      <trkpt lat="43.02135" lon="1.18097">
        <ele>605.7</ele>
        <time>2025-12-28T09:28:22.000Z</time>
      </trkpt>
      <trkpt lat="43.02138" lon="1.18089">
        <ele>605</ele>
        <time>2025-12-28T09:28:23.000Z</time>
      </trkpt>
      <trkpt lat="43.0214" lon="1.18082">
        <ele>605.6</ele>
        <time>2025-12-28T09:28:24.000Z</time>
      </trkpt>
      <trkpt lat="43.02142" lon="1.18074">
        <ele>605.6</ele>
        <time>2025-12-28T09:28:25.000Z</time>
      </trkpt>
      <trkpt lat="43.02143" lon="1.18068">
        <ele>605.9</ele>
        <time>2025-12-28T09:28:26.000Z</time>
      </trkpt>
      <trkpt lat="43.02146" lon="1.18063">
        <ele>605.5</ele>
        <time>2025-12-28T09:28:27.000Z</time>
      </trkpt>
      <trkpt lat="43.02148" lon="1.18058">
        <ele>605.9</ele>
        <time>2025-12-28T09:28:28.000Z</time>
      </trkpt>
      <trkpt lat="43.02152" lon="1.18059">
        <ele>608.8</ele>
        <time>2025-12-28T09:28:29.000Z</time>
      </trkpt>
      <trkpt lat="43.02155" lon="1.18058">
        <ele>610.2</ele>
        <time>2025-12-28T09:28:30.000Z</time>
      </trkpt>
      <trkpt lat="43.02158" lon="1.18056">
        <ele>609.7</ele>
        <time>2025-12-28T09:28:31.000Z</time>
      </trkpt>
      <trkpt lat="43.02162" lon="1.18054">
        <ele>609.9</ele>
        <time>2025-12-28T09:28:32.000Z</time>
      </trkpt>
      <trkpt lat="43.02166" lon="1.18053">
        <ele>610.5</ele>
        <time>2025-12-28T09:28:33.000Z</time>
      </trkpt>
      <trkpt lat="43.02172" lon="1.18049">
        <ele>609</ele>
        <time>2025-12-28T09:28:34.000Z</time>
      </trkpt>
      <trkpt lat="43.02176" lon="1.18045">
        <ele>609.2</ele>
        <time>2025-12-28T09:28:35.000Z</time>
      </trkpt>
      <trkpt lat="43.02182" lon="1.18041">
        <ele>610</ele>
        <time>2025-12-28T09:28:36.000Z</time>
      </trkpt>
      <trkpt lat="43.02187" lon="1.18037">
        <ele>608.6</ele>
        <time>2025-12-28T09:28:37.000Z</time>
      </trkpt>
      <trkpt lat="43.02192" lon="1.18033">
        <ele>609.5</ele>
        <time>2025-12-28T09:28:38.000Z</time>
      </trkpt>
      <trkpt lat="43.02196" lon="1.18027">
        <ele>609.8</ele>
        <time>2025-12-28T09:28:39.000Z</time>
      </trkpt>
      <trkpt lat="43.02201" lon="1.18021">
        <ele>609.6</ele>
        <time>2025-12-28T09:28:40.000Z</time>
      </trkpt>
      <trkpt lat="43.02204" lon="1.18016">
        <ele>610.4</ele>
        <time>2025-12-28T09:28:41.000Z</time>
      </trkpt>
      <trkpt lat="43.02207" lon="1.18011">
        <ele>611.1</ele>
        <time>2025-12-28T09:28:42.000Z</time>
      </trkpt>
      <trkpt lat="43.02211" lon="1.18006">
        <ele>611.6</ele>
        <time>2025-12-28T09:28:43.000Z</time>
      </trkpt>
      <trkpt lat="43.02214" lon="1.18001">
        <ele>611.7</ele>
        <time>2025-12-28T09:28:44.000Z</time>
      </trkpt>
      <trkpt lat="43.02218" lon="1.17996">
        <ele>611.5</ele>
        <time>2025-12-28T09:28:45.000Z</time>
      </trkpt>
      <trkpt lat="43.02221" lon="1.1799">
        <ele>612</ele>
        <time>2025-12-28T09:28:46.000Z</time>
      </trkpt>
      <trkpt lat="43.02224" lon="1.17985">
        <ele>613.1</ele>
        <time>2025-12-28T09:28:47.000Z</time>
      </trkpt>
      <trkpt lat="43.02227" lon="1.1798">
        <ele>613.1</ele>
        <time>2025-12-28T09:28:48.000Z</time>
      </trkpt>
      <trkpt lat="43.0223" lon="1.17974">
        <ele>612.3</ele>
        <time>2025-12-28T09:28:49.000Z</time>
      </trkpt>
      <trkpt lat="43.02233" lon="1.17968">
        <ele>613.2</ele>
        <time>2025-12-28T09:28:50.000Z</time>
      </trkpt>
      <trkpt lat="43.02237" lon="1.17961">
        <ele>613.4</ele>
        <time>2025-12-28T09:28:51.000Z</time>
      </trkpt>
      <trkpt lat="43.0224" lon="1.17955">
        <ele>613.2</ele>
        <time>2025-12-28T09:28:52.000Z</time>
      </trkpt>
      <trkpt lat="43.02242" lon="1.17951">
        <ele>614.3</ele>
        <time>2025-12-28T09:28:53.000Z</time>
      </trkpt>
      <trkpt lat="43.02245" lon="1.17949">
        <ele>613.9</ele>
        <time>2025-12-28T09:28:54.000Z</time>
      </trkpt>
      <trkpt lat="43.02248" lon="1.17944">
        <ele>613.3</ele>
        <time>2025-12-28T09:28:55.000Z</time>
      </trkpt>
      <trkpt lat="43.0225" lon="1.17941">
        <ele>613</ele>
        <time>2025-12-28T09:28:56.000Z</time>
      </trkpt>
      <trkpt lat="43.02253" lon="1.17937">
        <ele>612.8</ele>
        <time>2025-12-28T09:28:57.000Z</time>
      </trkpt>
      <trkpt lat="43.02255" lon="1.17934">
        <ele>613.6</ele>
        <time>2025-12-28T09:28:58.000Z</time>
      </trkpt>
      <trkpt lat="43.02257" lon="1.1793">
        <ele>614.5</ele>
        <time>2025-12-28T09:28:59.000Z</time>
      </trkpt>
      <trkpt lat="43.0226" lon="1.17926">
        <ele>614.4</ele>
        <time>2025-12-28T09:29:00.000Z</time>
      </trkpt>
      <trkpt lat="43.02263" lon="1.17922">
        <ele>614.6</ele>
        <time>2025-12-28T09:29:01.000Z</time>
      </trkpt>
      <trkpt lat="43.02265" lon="1.17919">
        <ele>614.7</ele>
        <time>2025-12-28T09:29:02.000Z</time>
      </trkpt>
      <trkpt lat="43.02267" lon="1.17916">
        <ele>615.7</ele>
        <time>2025-12-28T09:29:03.000Z</time>
      </trkpt>
      <trkpt lat="43.02269" lon="1.17913">
        <ele>615.7</ele>
        <time>2025-12-28T09:29:04.000Z</time>
      </trkpt>
      <trkpt lat="43.02271" lon="1.1791">
        <ele>615.6</ele>
        <time>2025-12-28T09:29:05.000Z</time>
      </trkpt>
      <trkpt lat="43.02274" lon="1.17907">
        <ele>615.5</ele>
        <time>2025-12-28T09:29:06.000Z</time>
      </trkpt>
      <trkpt lat="43.02277" lon="1.17904">
        <ele>615.8</ele>
        <time>2025-12-28T09:29:07.000Z</time>
      </trkpt>
      <trkpt lat="43.0228" lon="1.17901">
        <ele>616.1</ele>
        <time>2025-12-28T09:29:08.000Z</time>
      </trkpt>
      <trkpt lat="43.02282" lon="1.17898">
        <ele>616.4</ele>
        <time>2025-12-28T09:29:09.000Z</time>
      </trkpt>
      <trkpt lat="43.02285" lon="1.17895">
        <ele>616.1</ele>
        <time>2025-12-28T09:29:10.000Z</time>
      </trkpt>
      <trkpt lat="43.02288" lon="1.17892">
        <ele>616.5</ele>
        <time>2025-12-28T09:29:11.000Z</time>
      </trkpt>
      <trkpt lat="43.0229" lon="1.17889">
        <ele>616.3</ele>
        <time>2025-12-28T09:29:12.000Z</time>
      </trkpt>
      <trkpt lat="43.02292" lon="1.17886">
        <ele>616.8</ele>
        <time>2025-12-28T09:29:13.000Z</time>
      </trkpt>
      <trkpt lat="43.02295" lon="1.17883">
        <ele>616.6</ele>
        <time>2025-12-28T09:29:14.000Z</time>
      </trkpt>
      <trkpt lat="43.02297" lon="1.1788">
        <ele>617.6</ele>
        <time>2025-12-28T09:29:15.000Z</time>
      </trkpt>
      <trkpt lat="43.023" lon="1.17877">
        <ele>617.8</ele>
        <time>2025-12-28T09:29:16.000Z</time>
      </trkpt>
      <trkpt lat="43.02302" lon="1.17872">
        <ele>617.6</ele>
        <time>2025-12-28T09:29:17.000Z</time>
      </trkpt>
      <trkpt lat="43.02304" lon="1.17868">
        <ele>617.6</ele>
        <time>2025-12-28T09:29:18.000Z</time>
      </trkpt>
      <trkpt lat="43.02306" lon="1.17863">
        <ele>618.2</ele>
        <time>2025-12-28T09:29:19.000Z</time>
      </trkpt>
      <trkpt lat="43.02308" lon="1.17858">
        <ele>618.1</ele>
        <time>2025-12-28T09:29:20.000Z</time>
      </trkpt>
      <trkpt lat="43.0231" lon="1.17854">
        <ele>617.6</ele>
        <time>2025-12-28T09:29:21.000Z</time>
      </trkpt>
      <trkpt lat="43.02312" lon="1.1785">
        <ele>617.7</ele>
        <time>2025-12-28T09:29:22.000Z</time>
      </trkpt>
      <trkpt lat="43.02314" lon="1.17845">
        <ele>617.5</ele>
        <time>2025-12-28T09:29:23.000Z</time>
      </trkpt>
      <trkpt lat="43.02315" lon="1.17841">
        <ele>618</ele>
        <time>2025-12-28T09:29:24.000Z</time>
      </trkpt>
      <trkpt lat="43.02317" lon="1.17837">
        <ele>619.2</ele>
        <time>2025-12-28T09:29:25.000Z</time>
      </trkpt>
      <trkpt lat="43.02318" lon="1.17833">
        <ele>618.1</ele>
        <time>2025-12-28T09:29:26.000Z</time>
      </trkpt>
      <trkpt lat="43.02319" lon="1.17829">
        <ele>617.1</ele>
        <time>2025-12-28T09:29:27.000Z</time>
      </trkpt>
      <trkpt lat="43.02319" lon="1.17824">
        <ele>617</ele>
        <time>2025-12-28T09:29:28.000Z</time>
      </trkpt>
      <trkpt lat="43.02319" lon="1.1782">
        <ele>617.2</ele>
        <time>2025-12-28T09:29:29.000Z</time>
      </trkpt>
      <trkpt lat="43.0232" lon="1.17814">
        <ele>616.6</ele>
        <time>2025-12-28T09:29:30.000Z</time>
      </trkpt>
      <trkpt lat="43.02316" lon="1.17807">
        <ele>616.3</ele>
        <time>2025-12-28T09:29:31.000Z</time>
      </trkpt>
      <trkpt lat="43.02313" lon="1.17802">
        <ele>615.4</ele>
        <time>2025-12-28T09:29:32.000Z</time>
      </trkpt>
      <trkpt lat="43.02311" lon="1.17798">
        <ele>615.5</ele>
        <time>2025-12-28T09:29:33.000Z</time>
      </trkpt>
      <trkpt lat="43.02308" lon="1.17793">
        <ele>614.6</ele>
        <time>2025-12-28T09:29:34.000Z</time>
      </trkpt>
      <trkpt lat="43.02305" lon="1.17789">
        <ele>613.5</ele>
        <time>2025-12-28T09:29:35.000Z</time>
      </trkpt>
      <trkpt lat="43.023" lon="1.17784">
        <ele>613.5</ele>
        <time>2025-12-28T09:29:36.000Z</time>
      </trkpt>
      <trkpt lat="43.023" lon="1.17781">
        <ele>614.1</ele>
        <time>2025-12-28T09:29:37.000Z</time>
      </trkpt>
      <trkpt lat="43.02298" lon="1.17779">
        <ele>612.9</ele>
        <time>2025-12-28T09:29:38.000Z</time>
      </trkpt>
      <trkpt lat="43.02297" lon="1.17779">
        <ele>612.3</ele>
        <time>2025-12-28T09:29:39.000Z</time>
      </trkpt>
      <trkpt lat="43.02297" lon="1.17779">
        <ele>612.5</ele>
        <time>2025-12-28T09:29:40.000Z</time>
      </trkpt>
      <trkpt lat="43.02297" lon="1.17779">
        <ele>612.4</ele>
        <time>2025-12-28T09:29:41.000Z</time>
      </trkpt>
      <trkpt lat="43.02297" lon="1.17778">
        <ele>612.7</ele>
        <time>2025-12-28T09:29:42.000Z</time>
      </trkpt>
      <trkpt lat="43.02297" lon="1.17778">
        <ele>613</ele>
        <time>2025-12-28T09:29:43.000Z</time>
      </trkpt>
      <trkpt lat="43.02296" lon="1.17776">
        <ele>612.3</ele>
        <time>2025-12-28T09:29:44.000Z</time>
      </trkpt>
      <trkpt lat="43.02294" lon="1.17773">
        <ele>613.3</ele>
        <time>2025-12-28T09:29:58.000Z</time>
      </trkpt>
      <trkpt lat="43.02292" lon="1.17772">
        <ele>613.2</ele>
        <time>2025-12-28T09:29:59.000Z</time>
      </trkpt>
      <trkpt lat="43.02292" lon="1.17771">
        <ele>613.3</ele>
        <time>2025-12-28T09:30:00.000Z</time>
      </trkpt>
      <trkpt lat="43.02292" lon="1.17769">
        <ele>614.4</ele>
        <time>2025-12-28T09:30:23.000Z</time>
      </trkpt>
      <trkpt lat="43.02291" lon="1.17768">
        <ele>614.2</ele>
        <time>2025-12-28T09:30:24.000Z</time>
      </trkpt>
      <trkpt lat="43.0229" lon="1.17768">
        <ele>614</ele>
        <time>2025-12-28T09:30:25.000Z</time>
      </trkpt>
      <trkpt lat="43.02289" lon="1.17767">
        <ele>615.1</ele>
        <time>2025-12-28T09:30:26.000Z</time>
      </trkpt>
      <trkpt lat="43.02288" lon="1.17764">
        <ele>614</ele>
        <time>2025-12-28T09:30:27.000Z</time>
      </trkpt>
      <trkpt lat="43.02286" lon="1.17762">
        <ele>613.8</ele>
        <time>2025-12-28T09:30:28.000Z</time>
      </trkpt>
      <trkpt lat="43.02284" lon="1.1776">
        <ele>614.4</ele>
        <time>2025-12-28T09:30:29.000Z</time>
      </trkpt>
      <trkpt lat="43.02282" lon="1.1776">
        <ele>613.3</ele>
        <time>2025-12-28T09:30:30.000Z</time>
      </trkpt>
      <trkpt lat="43.0228" lon="1.17761">
        <ele>613.8</ele>
        <time>2025-12-28T09:30:31.000Z</time>
      </trkpt>
      <trkpt lat="43.02279" lon="1.17763">
        <ele>614.5</ele>
        <time>2025-12-28T09:30:32.000Z</time>
      </trkpt>
      <trkpt lat="43.02276" lon="1.17765">
        <ele>614.9</ele>
        <time>2025-12-28T09:30:33.000Z</time>
      </trkpt>
      <trkpt lat="43.02274" lon="1.17766">
        <ele>614.9</ele>
        <time>2025-12-28T09:30:34.000Z</time>
      </trkpt>
      <trkpt lat="43.02272" lon="1.17769">
        <ele>616.3</ele>
        <time>2025-12-28T09:30:35.000Z</time>
      </trkpt>
      <trkpt lat="43.0227" lon="1.17771">
        <ele>616.8</ele>
        <time>2025-12-28T09:30:36.000Z</time>
      </trkpt>
      <trkpt lat="43.02267" lon="1.17772">
        <ele>616.4</ele>
        <time>2025-12-28T09:30:37.000Z</time>
      </trkpt>
      <trkpt lat="43.02264" lon="1.17774">
        <ele>617.2</ele>
        <time>2025-12-28T09:30:38.000Z</time>
      </trkpt>
      <trkpt lat="43.02256" lon="1.17776">
        <ele>616.9</ele>
        <time>2025-12-28T09:30:39.000Z</time>
      </trkpt>
      <trkpt lat="43.02252" lon="1.17777">
        <ele>616.2</ele>
        <time>2025-12-28T09:30:40.000Z</time>
      </trkpt>
      <trkpt lat="43.02247" lon="1.17779">
        <ele>615.8</ele>
        <time>2025-12-28T09:30:41.000Z</time>
      </trkpt>
      <trkpt lat="43.02243" lon="1.17781">
        <ele>615.6</ele>
        <time>2025-12-28T09:30:42.000Z</time>
      </trkpt>
      <trkpt lat="43.0224" lon="1.1778">
        <ele>613.4</ele>
        <time>2025-12-28T09:30:43.000Z</time>
      </trkpt>
      <trkpt lat="43.02236" lon="1.17782">
        <ele>612.6</ele>
        <time>2025-12-28T09:30:44.000Z</time>
      </trkpt>
      <trkpt lat="43.02234" lon="1.17785">
        <ele>613.3</ele>
        <time>2025-12-28T09:30:45.000Z</time>
      </trkpt>
      <trkpt lat="43.02232" lon="1.17787">
        <ele>613.5</ele>
        <time>2025-12-28T09:30:46.000Z</time>
      </trkpt>
      <trkpt lat="43.02231" lon="1.17788">
        <ele>613.8</ele>
        <time>2025-12-28T09:30:47.000Z</time>
      </trkpt>
      <trkpt lat="43.02229" lon="1.17789">
        <ele>615.5</ele>
        <time>2025-12-28T09:30:48.000Z</time>
      </trkpt>
      <trkpt lat="43.02229" lon="1.17792">
        <ele>613.8</ele>
        <time>2025-12-28T09:30:49.000Z</time>
      </trkpt>
      <trkpt lat="43.02228" lon="1.17795">
        <ele>612.7</ele>
        <time>2025-12-28T09:30:50.000Z</time>
      </trkpt>
      <trkpt lat="43.02226" lon="1.17799">
        <ele>613.5</ele>
        <time>2025-12-28T09:30:51.000Z</time>
      </trkpt>
      <trkpt lat="43.02224" lon="1.17802">
        <ele>614.1</ele>
        <time>2025-12-28T09:30:52.000Z</time>
      </trkpt>
      <trkpt lat="43.02222" lon="1.17804">
        <ele>614.9</ele>
        <time>2025-12-28T09:30:53.000Z</time>
      </trkpt>
      <trkpt lat="43.0222" lon="1.17807">
        <ele>616.5</ele>
        <time>2025-12-28T09:30:54.000Z</time>
      </trkpt>
      <trkpt lat="43.02216" lon="1.17808">
        <ele>616.4</ele>
        <time>2025-12-28T09:30:55.000Z</time>
      </trkpt>
      <trkpt lat="43.02213" lon="1.17807">
        <ele>618.1</ele>
        <time>2025-12-28T09:30:56.000Z</time>
      </trkpt>
      <trkpt lat="43.02209" lon="1.17805">
        <ele>618.3</ele>
        <time>2025-12-28T09:30:57.000Z</time>
      </trkpt>
      <trkpt lat="43.02206" lon="1.17803">
        <ele>620.5</ele>
        <time>2025-12-28T09:30:58.000Z</time>
      </trkpt>
      <trkpt lat="43.02203" lon="1.17803">
        <ele>621.5</ele>
        <time>2025-12-28T09:30:59.000Z</time>
      </trkpt>
      <trkpt lat="43.02201" lon="1.17803">
        <ele>621.5</ele>
        <time>2025-12-28T09:31:00.000Z</time>
      </trkpt>
      <trkpt lat="43.02199" lon="1.17804">
        <ele>623.2</ele>
        <time>2025-12-28T09:31:01.000Z</time>
      </trkpt>
      <trkpt lat="43.02197" lon="1.17805">
        <ele>624.5</ele>
        <time>2025-12-28T09:31:02.000Z</time>
      </trkpt>
      <trkpt lat="43.02195" lon="1.17806">
        <ele>624.2</ele>
        <time>2025-12-28T09:31:03.000Z</time>
      </trkpt>
      <trkpt lat="43.02191" lon="1.17806">
        <ele>625.1</ele>
        <time>2025-12-28T09:31:04.000Z</time>
      </trkpt>
      <trkpt lat="43.02188" lon="1.17806">
        <ele>626</ele>
        <time>2025-12-28T09:31:05.000Z</time>
      </trkpt>
      <trkpt lat="43.02185" lon="1.17808">
        <ele>625.6</ele>
        <time>2025-12-28T09:31:06.000Z</time>
      </trkpt>
      <trkpt lat="43.02181" lon="1.17809">
        <ele>625.3</ele>
        <time>2025-12-28T09:31:07.000Z</time>
      </trkpt>
      <trkpt lat="43.02178" lon="1.17809">
        <ele>626.6</ele>
        <time>2025-12-28T09:31:08.000Z</time>
      </trkpt>
      <trkpt lat="43.02174" lon="1.17809">
        <ele>626.9</ele>
        <time>2025-12-28T09:31:09.000Z</time>
      </trkpt>
      <trkpt lat="43.0217" lon="1.17808">
        <ele>627.3</ele>
        <time>2025-12-28T09:31:10.000Z</time>
      </trkpt>
      <trkpt lat="43.02168" lon="1.17808">
        <ele>626.8</ele>
        <time>2025-12-28T09:31:11.000Z</time>
      </trkpt>
      <trkpt lat="43.02166" lon="1.17807">
        <ele>626.9</ele>
        <time>2025-12-28T09:31:12.000Z</time>
      </trkpt>
      <trkpt lat="43.02164" lon="1.17807">
        <ele>628.8</ele>
        <time>2025-12-28T09:31:13.000Z</time>
      </trkpt>
      <trkpt lat="43.02162" lon="1.17806">
        <ele>628</ele>
        <time>2025-12-28T09:31:14.000Z</time>
      </trkpt>
      <trkpt lat="43.02159" lon="1.17807">
        <ele>628.5</ele>
        <time>2025-12-28T09:31:15.000Z</time>
      </trkpt>
      <trkpt lat="43.02157" lon="1.17807">
        <ele>629</ele>
        <time>2025-12-28T09:31:16.000Z</time>
      </trkpt>
      <trkpt lat="43.02154" lon="1.17807">
        <ele>628.8</ele>
        <time>2025-12-28T09:31:17.000Z</time>
      </trkpt>
      <trkpt lat="43.02151" lon="1.17807">
        <ele>629.8</ele>
        <time>2025-12-28T09:31:18.000Z</time>
      </trkpt>
      <trkpt lat="43.02148" lon="1.17806">
        <ele>630.3</ele>
        <time>2025-12-28T09:31:19.000Z</time>
      </trkpt>
      <trkpt lat="43.02146" lon="1.17804">
        <ele>631.5</ele>
        <time>2025-12-28T09:31:20.000Z</time>
      </trkpt>
      <trkpt lat="43.02144" lon="1.17804">
        <ele>631.6</ele>
        <time>2025-12-28T09:31:21.000Z</time>
      </trkpt>
      <trkpt lat="43.0214" lon="1.17803">
        <ele>631.8</ele>
        <time>2025-12-28T09:31:22.000Z</time>
      </trkpt>
      <trkpt lat="43.02137" lon="1.17802">
        <ele>633.1</ele>
        <time>2025-12-28T09:31:23.000Z</time>
      </trkpt>
      <trkpt lat="43.02134" lon="1.17801">
        <ele>633.4</ele>
        <time>2025-12-28T09:31:24.000Z</time>
      </trkpt>
      <trkpt lat="43.0213" lon="1.178">
        <ele>633</ele>
        <time>2025-12-28T09:31:25.000Z</time>
      </trkpt>
      <trkpt lat="43.02126" lon="1.17799">
        <ele>632.9</ele>
        <time>2025-12-28T09:31:26.000Z</time>
      </trkpt>
      <trkpt lat="43.02122" lon="1.17797">
        <ele>632.3</ele>
        <time>2025-12-28T09:31:27.000Z</time>
      </trkpt>
      <trkpt lat="43.02119" lon="1.17796">
        <ele>634.4</ele>
        <time>2025-12-28T09:31:28.000Z</time>
      </trkpt>
      <trkpt lat="43.02116" lon="1.17795">
        <ele>635.3</ele>
        <time>2025-12-28T09:31:29.000Z</time>
      </trkpt>
      <trkpt lat="43.02114" lon="1.17794">
        <ele>635.9</ele>
        <time>2025-12-28T09:31:30.000Z</time>
      </trkpt>
      <trkpt lat="43.02113" lon="1.17793">
        <ele>636.1</ele>
        <time>2025-12-28T09:31:31.000Z</time>
      </trkpt>
      <trkpt lat="43.02111" lon="1.17792">
        <ele>635.9</ele>
        <time>2025-12-28T09:31:32.000Z</time>
      </trkpt>
      <trkpt lat="43.02109" lon="1.1779">
        <ele>637.3</ele>
        <time>2025-12-28T09:31:33.000Z</time>
      </trkpt>
      <trkpt lat="43.02107" lon="1.17788">
        <ele>637</ele>
        <time>2025-12-28T09:31:34.000Z</time>
      </trkpt>
      <trkpt lat="43.02105" lon="1.17786">
        <ele>639.2</ele>
        <time>2025-12-28T09:31:35.000Z</time>
      </trkpt>
      <trkpt lat="43.02103" lon="1.17784">
        <ele>639.2</ele>
        <time>2025-12-28T09:31:36.000Z</time>
      </trkpt>
      <trkpt lat="43.02102" lon="1.17783">
        <ele>639.3</ele>
        <time>2025-12-28T09:31:37.000Z</time>
      </trkpt>
      <trkpt lat="43.02101" lon="1.17781">
        <ele>640.8</ele>
        <time>2025-12-28T09:31:38.000Z</time>
      </trkpt>
      <trkpt lat="43.021" lon="1.17779">
        <ele>641.6</ele>
        <time>2025-12-28T09:31:39.000Z</time>
      </trkpt>
      <trkpt lat="43.02098" lon="1.17778">
        <ele>641.3</ele>
        <time>2025-12-28T09:31:40.000Z</time>
      </trkpt>
      <trkpt lat="43.02096" lon="1.17776">
        <ele>641.6</ele>
        <time>2025-12-28T09:31:41.000Z</time>
      </trkpt>
      <trkpt lat="43.02093" lon="1.17774">
        <ele>642.8</ele>
        <time>2025-12-28T09:31:42.000Z</time>
      </trkpt>
      <trkpt lat="43.02091" lon="1.17772">
        <ele>644.6</ele>
        <time>2025-12-28T09:31:43.000Z</time>
      </trkpt>
      <trkpt lat="43.02088" lon="1.17771">
        <ele>645</ele>
        <time>2025-12-28T09:31:44.000Z</time>
      </trkpt>
      <trkpt lat="43.02085" lon="1.1777">
        <ele>644.6</ele>
        <time>2025-12-28T09:31:45.000Z</time>
      </trkpt>
      <trkpt lat="43.02083" lon="1.17772">
        <ele>643.8</ele>
        <time>2025-12-28T09:31:46.000Z</time>
      </trkpt>
      <trkpt lat="43.02079" lon="1.17775">
        <ele>643.6</ele>
        <time>2025-12-28T09:31:47.000Z</time>
      </trkpt>
      <trkpt lat="43.02077" lon="1.17777">
        <ele>644.4</ele>
        <time>2025-12-28T09:31:48.000Z</time>
      </trkpt>
      <trkpt lat="43.02075" lon="1.17779">
        <ele>643.2</ele>
        <time>2025-12-28T09:31:49.000Z</time>
      </trkpt>
      <trkpt lat="43.02073" lon="1.17782">
        <ele>642.4</ele>
        <time>2025-12-28T09:31:50.000Z</time>
      </trkpt>
      <trkpt lat="43.02071" lon="1.17785">
        <ele>642.3</ele>
        <time>2025-12-28T09:31:51.000Z</time>
      </trkpt>
      <trkpt lat="43.02068" lon="1.17788">
        <ele>642.2</ele>
        <time>2025-12-28T09:31:52.000Z</time>
      </trkpt>
      <trkpt lat="43.02063" lon="1.1779">
        <ele>641.1</ele>
        <time>2025-12-28T09:31:53.000Z</time>
      </trkpt>
      <trkpt lat="43.02057" lon="1.17793">
        <ele>640.9</ele>
        <time>2025-12-28T09:31:54.000Z</time>
      </trkpt>
      <trkpt lat="43.02051" lon="1.17797">
        <ele>640.7</ele>
        <time>2025-12-28T09:31:55.000Z</time>
      </trkpt>
      <trkpt lat="43.02046" lon="1.17795">
        <ele>641.5</ele>
        <time>2025-12-28T09:31:56.000Z</time>
      </trkpt>
      <trkpt lat="43.02042" lon="1.17795">
        <ele>640.2</ele>
        <time>2025-12-28T09:31:57.000Z</time>
      </trkpt>
      <trkpt lat="43.02037" lon="1.17794">
        <ele>639.7</ele>
        <time>2025-12-28T09:31:58.000Z</time>
      </trkpt>
      <trkpt lat="43.02036" lon="1.17792">
        <ele>639.6</ele>
        <time>2025-12-28T09:31:59.000Z</time>
      </trkpt>
      <trkpt lat="43.02035" lon="1.1779">
        <ele>640.1</ele>
        <time>2025-12-28T09:32:00.000Z</time>
      </trkpt>
      <trkpt lat="43.02034" lon="1.17789">
        <ele>639.2</ele>
        <time>2025-12-28T09:32:01.000Z</time>
      </trkpt>
      <trkpt lat="43.02032" lon="1.17787">
        <ele>639</ele>
        <time>2025-12-28T09:32:02.000Z</time>
      </trkpt>
      <trkpt lat="43.0203" lon="1.17784">
        <ele>639.1</ele>
        <time>2025-12-28T09:32:03.000Z</time>
      </trkpt>
      <trkpt lat="43.02028" lon="1.17782">
        <ele>638.4</ele>
        <time>2025-12-28T09:32:04.000Z</time>
      </trkpt>
      <trkpt lat="43.02026" lon="1.17779">
        <ele>638.7</ele>
        <time>2025-12-28T09:32:05.000Z</time>
      </trkpt>
      <trkpt lat="43.02024" lon="1.17778">
        <ele>638.9</ele>
        <time>2025-12-28T09:32:06.000Z</time>
      </trkpt>
      <trkpt lat="43.02022" lon="1.17775">
        <ele>638.6</ele>
        <time>2025-12-28T09:32:07.000Z</time>
      </trkpt>
      <trkpt lat="43.02021" lon="1.17771">
        <ele>638.4</ele>
        <time>2025-12-28T09:32:08.000Z</time>
      </trkpt>
      <trkpt lat="43.0202" lon="1.17766">
        <ele>638.4</ele>
        <time>2025-12-28T09:32:09.000Z</time>
      </trkpt>
      <trkpt lat="43.0202" lon="1.17761">
        <ele>636.6</ele>
        <time>2025-12-28T09:32:10.000Z</time>
      </trkpt>
      <trkpt lat="43.02019" lon="1.17755">
        <ele>635.9</ele>
        <time>2025-12-28T09:32:11.000Z</time>
      </trkpt>
      <trkpt lat="43.02018" lon="1.17751">
        <ele>637.5</ele>
        <time>2025-12-28T09:32:12.000Z</time>
      </trkpt>
      <trkpt lat="43.02018" lon="1.17745">
        <ele>636.5</ele>
        <time>2025-12-28T09:32:13.000Z</time>
      </trkpt>
      <trkpt lat="43.02018" lon="1.17741">
        <ele>635.8</ele>
        <time>2025-12-28T09:32:14.000Z</time>
      </trkpt>
      <trkpt lat="43.02017" lon="1.17737">
        <ele>636.7</ele>
        <time>2025-12-28T09:32:15.000Z</time>
      </trkpt>
      <trkpt lat="43.02016" lon="1.17734">
        <ele>636.5</ele>
        <time>2025-12-28T09:32:16.000Z</time>
      </trkpt>
      <trkpt lat="43.02016" lon="1.1773">
        <ele>636.7</ele>
        <time>2025-12-28T09:32:17.000Z</time>
      </trkpt>
      <trkpt lat="43.02015" lon="1.17726">
        <ele>636.6</ele>
        <time>2025-12-28T09:32:18.000Z</time>
      </trkpt>
      <trkpt lat="43.02014" lon="1.17723">
        <ele>637.2</ele>
        <time>2025-12-28T09:32:19.000Z</time>
      </trkpt>
      <trkpt lat="43.02012" lon="1.1772">
        <ele>636.3</ele>
        <time>2025-12-28T09:32:20.000Z</time>
      </trkpt>
      <trkpt lat="43.0201" lon="1.17717">
        <ele>635.8</ele>
        <time>2025-12-28T09:32:21.000Z</time>
      </trkpt>
      <trkpt lat="43.02007" lon="1.17713">
        <ele>634.2</ele>
        <time>2025-12-28T09:32:22.000Z</time>
      </trkpt>
      <trkpt lat="43.02005" lon="1.17709">
        <ele>635.7</ele>
        <time>2025-12-28T09:32:23.000Z</time>
      </trkpt>
      <trkpt lat="43.02003" lon="1.17705">
        <ele>635.9</ele>
        <time>2025-12-28T09:32:24.000Z</time>
      </trkpt>
      <trkpt lat="43.02001" lon="1.17701">
        <ele>635.9</ele>
        <time>2025-12-28T09:32:25.000Z</time>
      </trkpt>
      <trkpt lat="43.01998" lon="1.17698">
        <ele>637.1</ele>
        <time>2025-12-28T09:32:26.000Z</time>
      </trkpt>
      <trkpt lat="43.01995" lon="1.17695">
        <ele>636.6</ele>
        <time>2025-12-28T09:32:27.000Z</time>
      </trkpt>
      <trkpt lat="43.01993" lon="1.17693">
        <ele>636.9</ele>
        <time>2025-12-28T09:32:28.000Z</time>
      </trkpt>
      <trkpt lat="43.01992" lon="1.17688">
        <ele>635.5</ele>
        <time>2025-12-28T09:32:29.000Z</time>
      </trkpt>
      <trkpt lat="43.01991" lon="1.17684">
        <ele>635.3</ele>
        <time>2025-12-28T09:32:30.000Z</time>
      </trkpt>
      <trkpt lat="43.01989" lon="1.17679">
        <ele>635.1</ele>
        <time>2025-12-28T09:32:31.000Z</time>
      </trkpt>
      <trkpt lat="43.01987" lon="1.17674">
        <ele>634.1</ele>
        <time>2025-12-28T09:32:32.000Z</time>
      </trkpt>
      <trkpt lat="43.01981" lon="1.17666">
        <ele>632.9</ele>
        <time>2025-12-28T09:32:33.000Z</time>
      </trkpt>
      <trkpt lat="43.0198" lon="1.17662">
        <ele>633.1</ele>
        <time>2025-12-28T09:32:34.000Z</time>
      </trkpt>
      <trkpt lat="43.01978" lon="1.17658">
        <ele>633.4</ele>
        <time>2025-12-28T09:32:35.000Z</time>
      </trkpt>
      <trkpt lat="43.01975" lon="1.17655">
        <ele>633</ele>
        <time>2025-12-28T09:32:36.000Z</time>
      </trkpt>
      <trkpt lat="43.01974" lon="1.17652">
        <ele>633.1</ele>
        <time>2025-12-28T09:32:37.000Z</time>
      </trkpt>
      <trkpt lat="43.01973" lon="1.1765">
        <ele>633.2</ele>
        <time>2025-12-28T09:32:38.000Z</time>
      </trkpt>
      <trkpt lat="43.01971" lon="1.17648">
        <ele>632.5</ele>
        <time>2025-12-28T09:32:39.000Z</time>
      </trkpt>
      <trkpt lat="43.01969" lon="1.17646">
        <ele>631.8</ele>
        <time>2025-12-28T09:32:40.000Z</time>
      </trkpt>
      <trkpt lat="43.01966" lon="1.17644">
        <ele>631.1</ele>
        <time>2025-12-28T09:32:41.000Z</time>
      </trkpt>
      <trkpt lat="43.01963" lon="1.17644">
        <ele>630.7</ele>
        <time>2025-12-28T09:32:42.000Z</time>
      </trkpt>
      <trkpt lat="43.0196" lon="1.17646">
        <ele>631.4</ele>
        <time>2025-12-28T09:32:43.000Z</time>
      </trkpt>
      <trkpt lat="43.01958" lon="1.17649">
        <ele>631.1</ele>
        <time>2025-12-28T09:32:44.000Z</time>
      </trkpt>
      <trkpt lat="43.01955" lon="1.17651">
        <ele>630.7</ele>
        <time>2025-12-28T09:32:45.000Z</time>
      </trkpt>
      <trkpt lat="43.01951" lon="1.17653">
        <ele>629.6</ele>
        <time>2025-12-28T09:32:46.000Z</time>
      </trkpt>
      <trkpt lat="43.01947" lon="1.17655">
        <ele>628.8</ele>
        <time>2025-12-28T09:32:47.000Z</time>
      </trkpt>
      <trkpt lat="43.01942" lon="1.17658">
        <ele>628.5</ele>
        <time>2025-12-28T09:32:48.000Z</time>
      </trkpt>
      <trkpt lat="43.01938" lon="1.17661">
        <ele>626.9</ele>
        <time>2025-12-28T09:32:49.000Z</time>
      </trkpt>
      <trkpt lat="43.01933" lon="1.17665">
        <ele>625.9</ele>
        <time>2025-12-28T09:32:50.000Z</time>
      </trkpt>
      <trkpt lat="43.01926" lon="1.17666">
        <ele>625.1</ele>
        <time>2025-12-28T09:32:51.000Z</time>
      </trkpt>
      <trkpt lat="43.01921" lon="1.17668">
        <ele>624.7</ele>
        <time>2025-12-28T09:32:52.000Z</time>
      </trkpt>
      <trkpt lat="43.01916" lon="1.17669">
        <ele>622.6</ele>
        <time>2025-12-28T09:32:53.000Z</time>
      </trkpt>
      <trkpt lat="43.01912" lon="1.1767">
        <ele>622.8</ele>
        <time>2025-12-28T09:32:54.000Z</time>
      </trkpt>
      <trkpt lat="43.01907" lon="1.17671">
        <ele>622.1</ele>
        <time>2025-12-28T09:32:55.000Z</time>
      </trkpt>
      <trkpt lat="43.01903" lon="1.17672">
        <ele>620.5</ele>
        <time>2025-12-28T09:32:56.000Z</time>
      </trkpt>
      <trkpt lat="43.01898" lon="1.17671">
        <ele>619.2</ele>
        <time>2025-12-28T09:32:57.000Z</time>
      </trkpt>
      <trkpt lat="43.01894" lon="1.17669">
        <ele>618.5</ele>
        <time>2025-12-28T09:32:58.000Z</time>
      </trkpt>
      <trkpt lat="43.01889" lon="1.17668">
        <ele>617.5</ele>
        <time>2025-12-28T09:32:59.000Z</time>
      </trkpt>
      <trkpt lat="43.01883" lon="1.17671">
        <ele>614.2</ele>
        <time>2025-12-28T09:33:00.000Z</time>
      </trkpt>
      <trkpt lat="43.01878" lon="1.17672">
        <ele>611.4</ele>
        <time>2025-12-28T09:33:01.000Z</time>
      </trkpt>
      <trkpt lat="43.01873" lon="1.17673">
        <ele>609.1</ele>
        <time>2025-12-28T09:33:02.000Z</time>
      </trkpt>
      <trkpt lat="43.01867" lon="1.17674">
        <ele>608.1</ele>
        <time>2025-12-28T09:33:03.000Z</time>
      </trkpt>
      <trkpt lat="43.01861" lon="1.17674">
        <ele>606.5</ele>
        <time>2025-12-28T09:33:04.000Z</time>
      </trkpt>
      <trkpt lat="43.01855" lon="1.17673">
        <ele>605.1</ele>
        <time>2025-12-28T09:33:05.000Z</time>
      </trkpt>
      <trkpt lat="43.0185" lon="1.17675">
        <ele>603.6</ele>
        <time>2025-12-28T09:33:06.000Z</time>
      </trkpt>
      <trkpt lat="43.01845" lon="1.17674">
        <ele>601.1</ele>
        <time>2025-12-28T09:33:07.000Z</time>
      </trkpt>
      <trkpt lat="43.01842" lon="1.17672">
        <ele>600.8</ele>
        <time>2025-12-28T09:33:08.000Z</time>
      </trkpt>
      <trkpt lat="43.01836" lon="1.17673">
        <ele>600.6</ele>
        <time>2025-12-28T09:33:09.000Z</time>
      </trkpt>
      <trkpt lat="43.01831" lon="1.17673">
        <ele>600.1</ele>
        <time>2025-12-28T09:33:10.000Z</time>
      </trkpt>
      <trkpt lat="43.01826" lon="1.17671">
        <ele>598.4</ele>
        <time>2025-12-28T09:33:11.000Z</time>
      </trkpt>
      <trkpt lat="43.0182" lon="1.17672">
        <ele>597.5</ele>
        <time>2025-12-28T09:33:12.000Z</time>
      </trkpt>
      <trkpt lat="43.01815" lon="1.17671">
        <ele>596</ele>
        <time>2025-12-28T09:33:13.000Z</time>
      </trkpt>
      <trkpt lat="43.01812" lon="1.17672">
        <ele>595.5</ele>
        <time>2025-12-28T09:33:14.000Z</time>
      </trkpt>
      <trkpt lat="43.01808" lon="1.17675">
        <ele>595.5</ele>
        <time>2025-12-28T09:33:15.000Z</time>
      </trkpt>
      <trkpt lat="43.01804" lon="1.17678">
        <ele>594.9</ele>
        <time>2025-12-28T09:33:16.000Z</time>
      </trkpt>
      <trkpt lat="43.01799" lon="1.1768">
        <ele>596.2</ele>
        <time>2025-12-28T09:33:17.000Z</time>
      </trkpt>
      <trkpt lat="43.01794" lon="1.17683">
        <ele>595.2</ele>
        <time>2025-12-28T09:33:18.000Z</time>
      </trkpt>
      <trkpt lat="43.01789" lon="1.17687">
        <ele>595.6</ele>
        <time>2025-12-28T09:33:19.000Z</time>
      </trkpt>
      <trkpt lat="43.01786" lon="1.17691">
        <ele>594.6</ele>
        <time>2025-12-28T09:33:20.000Z</time>
      </trkpt>
      <trkpt lat="43.01783" lon="1.17696">
        <ele>593.3</ele>
        <time>2025-12-28T09:33:21.000Z</time>
      </trkpt>
      <trkpt lat="43.01778" lon="1.17699">
        <ele>591.6</ele>
        <time>2025-12-28T09:33:22.000Z</time>
      </trkpt>
      <trkpt lat="43.01774" lon="1.17702">
        <ele>590.5</ele>
        <time>2025-12-28T09:33:23.000Z</time>
      </trkpt>
      <trkpt lat="43.01769" lon="1.17706">
        <ele>589.9</ele>
        <time>2025-12-28T09:33:24.000Z</time>
      </trkpt>
      <trkpt lat="43.01764" lon="1.17709">
        <ele>588.9</ele>
        <time>2025-12-28T09:33:25.000Z</time>
      </trkpt>
      <trkpt lat="43.01759" lon="1.1771">
        <ele>587.3</ele>
        <time>2025-12-28T09:33:26.000Z</time>
      </trkpt>
      <trkpt lat="43.01755" lon="1.17711">
        <ele>586.5</ele>
        <time>2025-12-28T09:33:27.000Z</time>
      </trkpt>
      <trkpt lat="43.0175" lon="1.1771">
        <ele>585.8</ele>
        <time>2025-12-28T09:33:28.000Z</time>
      </trkpt>
      <trkpt lat="43.01746" lon="1.17707">
        <ele>584.3</ele>
        <time>2025-12-28T09:33:29.000Z</time>
      </trkpt>
      <trkpt lat="43.01742" lon="1.17706">
        <ele>583.6</ele>
        <time>2025-12-28T09:33:30.000Z</time>
      </trkpt>
      <trkpt lat="43.01738" lon="1.17704">
        <ele>583.2</ele>
        <time>2025-12-28T09:33:31.000Z</time>
      </trkpt>
      <trkpt lat="43.01734" lon="1.17701">
        <ele>581.3</ele>
        <time>2025-12-28T09:33:32.000Z</time>
      </trkpt>
      <trkpt lat="43.01731" lon="1.17702">
        <ele>581</ele>
        <time>2025-12-28T09:33:33.000Z</time>
      </trkpt>
      <trkpt lat="43.01729" lon="1.17701">
        <ele>579.7</ele>
        <time>2025-12-28T09:33:34.000Z</time>
      </trkpt>
      <trkpt lat="43.01729" lon="1.17702">
        <ele>579.9</ele>
        <time>2025-12-28T09:33:35.000Z</time>
      </trkpt>
      <trkpt lat="43.01729" lon="1.17702">
        <ele>580.1</ele>
        <time>2025-12-28T09:33:36.000Z</time>
      </trkpt>
      <trkpt lat="43.01724" lon="1.17701">
        <ele>575.7</ele>
        <time>2025-12-28T09:34:18.000Z</time>
      </trkpt>
      <trkpt lat="43.01721" lon="1.17704">
        <ele>576.2</ele>
        <time>2025-12-28T09:34:19.000Z</time>
      </trkpt>
      <trkpt lat="43.01717" lon="1.17706">
        <ele>573.9</ele>
        <time>2025-12-28T09:34:20.000Z</time>
      </trkpt>
      <trkpt lat="43.01711" lon="1.17708">
        <ele>576.4</ele>
        <time>2025-12-28T09:34:21.000Z</time>
      </trkpt>
      <trkpt lat="43.01706" lon="1.17709">
        <ele>574.9</ele>
        <time>2025-12-28T09:34:22.000Z</time>
      </trkpt>
      <trkpt lat="43.01703" lon="1.17715">
        <ele>575</ele>
        <time>2025-12-28T09:34:23.000Z</time>
      </trkpt>
      <trkpt lat="43.01702" lon="1.1772">
        <ele>575.1</ele>
        <time>2025-12-28T09:34:24.000Z</time>
      </trkpt>
      <trkpt lat="43.017" lon="1.17723">
        <ele>574.5</ele>
        <time>2025-12-28T09:34:25.000Z</time>
      </trkpt>
      <trkpt lat="43.01696" lon="1.17729">
        <ele>574.5</ele>
        <time>2025-12-28T09:34:26.000Z</time>
      </trkpt>
      <trkpt lat="43.01692" lon="1.17735">
        <ele>574.6</ele>
        <time>2025-12-28T09:34:27.000Z</time>
      </trkpt>
      <trkpt lat="43.01689" lon="1.17743">
        <ele>572.7</ele>
        <time>2025-12-28T09:34:28.000Z</time>
      </trkpt>
      <trkpt lat="43.01685" lon="1.17749">
        <ele>571.9</ele>
        <time>2025-12-28T09:34:29.000Z</time>
      </trkpt>
      <trkpt lat="43.01681" lon="1.17754">
        <ele>570.7</ele>
        <time>2025-12-28T09:34:30.000Z</time>
      </trkpt>
      <trkpt lat="43.01674" lon="1.17761">
        <ele>568.8</ele>
        <time>2025-12-28T09:34:31.000Z</time>
      </trkpt>
      <trkpt lat="43.01671" lon="1.17763">
        <ele>568</ele>
        <time>2025-12-28T09:34:32.000Z</time>
      </trkpt>
      <trkpt lat="43.01667" lon="1.17767">
        <ele>567.7</ele>
        <time>2025-12-28T09:34:33.000Z</time>
      </trkpt>
      <trkpt lat="43.01665" lon="1.17769">
        <ele>566.8</ele>
        <time>2025-12-28T09:34:34.000Z</time>
      </trkpt>
      <trkpt lat="43.01661" lon="1.17774">
        <ele>563.9</ele>
        <time>2025-12-28T09:34:35.000Z</time>
      </trkpt>
      <trkpt lat="43.01656" lon="1.17777">
        <ele>561</ele>
        <time>2025-12-28T09:34:36.000Z</time>
      </trkpt>
      <trkpt lat="43.01652" lon="1.17782">
        <ele>559</ele>
        <time>2025-12-28T09:34:37.000Z</time>
      </trkpt>
      <trkpt lat="43.01648" lon="1.17786">
        <ele>558.1</ele>
        <time>2025-12-28T09:34:38.000Z</time>
      </trkpt>
      <trkpt lat="43.01645" lon="1.17789">
        <ele>557.2</ele>
        <time>2025-12-28T09:34:39.000Z</time>
      </trkpt>
      <trkpt lat="43.01641" lon="1.17792">
        <ele>555.4</ele>
        <time>2025-12-28T09:34:40.000Z</time>
      </trkpt>
      <trkpt lat="43.01637" lon="1.17796">
        <ele>553.8</ele>
        <time>2025-12-28T09:34:41.000Z</time>
      </trkpt>
      <trkpt lat="43.01633" lon="1.17801">
        <ele>552.5</ele>
        <time>2025-12-28T09:34:42.000Z</time>
      </trkpt>
      <trkpt lat="43.01629" lon="1.17805">
        <ele>551.7</ele>
        <time>2025-12-28T09:34:43.000Z</time>
      </trkpt>
      <trkpt lat="43.01625" lon="1.17809">
        <ele>551.8</ele>
        <time>2025-12-28T09:34:44.000Z</time>
      </trkpt>
      <trkpt lat="43.01622" lon="1.17814">
        <ele>551.6</ele>
        <time>2025-12-28T09:34:45.000Z</time>
      </trkpt>
      <trkpt lat="43.01618" lon="1.17819">
        <ele>547.8</ele>
        <time>2025-12-28T09:34:46.000Z</time>
      </trkpt>
      <trkpt lat="43.01613" lon="1.17824">
        <ele>545.5</ele>
        <time>2025-12-28T09:34:47.000Z</time>
      </trkpt>
      <trkpt lat="43.01608" lon="1.17832">
        <ele>545.7</ele>
        <time>2025-12-28T09:34:48.000Z</time>
      </trkpt>
      <trkpt lat="43.01603" lon="1.17838">
        <ele>544.9</ele>
        <time>2025-12-28T09:34:49.000Z</time>
      </trkpt>
      <trkpt lat="43.01599" lon="1.17844">
        <ele>544.7</ele>
        <time>2025-12-28T09:34:50.000Z</time>
      </trkpt>
      <trkpt lat="43.01595" lon="1.17849">
        <ele>545.9</ele>
        <time>2025-12-28T09:34:51.000Z</time>
      </trkpt>
      <trkpt lat="43.01591" lon="1.17852">
        <ele>545.7</ele>
        <time>2025-12-28T09:34:52.000Z</time>
      </trkpt>
      <trkpt lat="43.01588" lon="1.17856">
        <ele>544.9</ele>
        <time>2025-12-28T09:34:53.000Z</time>
      </trkpt>
      <trkpt lat="43.01585" lon="1.17859">
        <ele>544.5</ele>
        <time>2025-12-28T09:34:54.000Z</time>
      </trkpt>
      <trkpt lat="43.01577" lon="1.17847">
        <ele>541.4</ele>
        <time>2025-12-28T09:34:55.000Z</time>
      </trkpt>
      <trkpt lat="43.01577" lon="1.17843">
        <ele>537.3</ele>
        <time>2025-12-28T09:34:56.000Z</time>
      </trkpt>
      <trkpt lat="43.01574" lon="1.17837">
        <ele>537.5</ele>
        <time>2025-12-28T09:34:57.000Z</time>
      </trkpt>
      <trkpt lat="43.0157" lon="1.17834">
        <ele>534.8</ele>
        <time>2025-12-28T09:34:58.000Z</time>
      </trkpt>
      <trkpt lat="43.01566" lon="1.17831">
        <ele>533.1</ele>
        <time>2025-12-28T09:34:59.000Z</time>
      </trkpt>
      <trkpt lat="43.01561" lon="1.17829">
        <ele>532.2</ele>
        <time>2025-12-28T09:35:00.000Z</time>
      </trkpt>
      <trkpt lat="43.01557" lon="1.17827">
        <ele>531.7</ele>
        <time>2025-12-28T09:35:01.000Z</time>
      </trkpt>
      <trkpt lat="43.01552" lon="1.17828">
        <ele>530.7</ele>
        <time>2025-12-28T09:35:02.000Z</time>
      </trkpt>
      <trkpt lat="43.01549" lon="1.17834">
        <ele>530.3</ele>
        <time>2025-12-28T09:35:03.000Z</time>
      </trkpt>
      <trkpt lat="43.01546" lon="1.17837">
        <ele>529.4</ele>
        <time>2025-12-28T09:35:04.000Z</time>
      </trkpt>
      <trkpt lat="43.01541" lon="1.17837">
        <ele>529.9</ele>
        <time>2025-12-28T09:35:05.000Z</time>
      </trkpt>
      <trkpt lat="43.01541" lon="1.17837">
        <ele>530.3</ele>
        <time>2025-12-28T09:35:06.000Z</time>
      </trkpt>
      <trkpt lat="43.01541" lon="1.1784">
        <ele>531</ele>
        <time>2025-12-28T09:35:07.000Z</time>
      </trkpt>
      <trkpt lat="43.01541" lon="1.17838">
        <ele>530.7</ele>
        <time>2025-12-28T09:35:08.000Z</time>
      </trkpt>
      <trkpt lat="43.01543" lon="1.17838">
        <ele>530.1</ele>
        <time>2025-12-28T09:35:09.000Z</time>
      </trkpt>
      <trkpt lat="43.01537" lon="1.17835">
        <ele>532.2</ele>
        <time>2025-12-28T09:35:44.000Z</time>
      </trkpt>
      <trkpt lat="43.01535" lon="1.17837">
        <ele>532.1</ele>
        <time>2025-12-28T09:35:45.000Z</time>
      </trkpt>
      <trkpt lat="43.01533" lon="1.17838">
        <ele>531.2</ele>
        <time>2025-12-28T09:35:46.000Z</time>
      </trkpt>
      <trkpt lat="43.01531" lon="1.1784">
        <ele>531.3</ele>
        <time>2025-12-28T09:35:47.000Z</time>
      </trkpt>
      <trkpt lat="43.01529" lon="1.17842">
        <ele>531.2</ele>
        <time>2025-12-28T09:35:48.000Z</time>
      </trkpt>
      <trkpt lat="43.01527" lon="1.17845">
        <ele>530.3</ele>
        <time>2025-12-28T09:35:49.000Z</time>
      </trkpt>
      <trkpt lat="43.01525" lon="1.17847">
        <ele>529.8</ele>
        <time>2025-12-28T09:35:50.000Z</time>
      </trkpt>
      <trkpt lat="43.01522" lon="1.1785">
        <ele>530.7</ele>
        <time>2025-12-28T09:35:51.000Z</time>
      </trkpt>
      <trkpt lat="43.01518" lon="1.17853">
        <ele>530.6</ele>
        <time>2025-12-28T09:35:52.000Z</time>
      </trkpt>
      <trkpt lat="43.01515" lon="1.17855">
        <ele>530.7</ele>
        <time>2025-12-28T09:35:53.000Z</time>
      </trkpt>
      <trkpt lat="43.01511" lon="1.17859">
        <ele>532</ele>
        <time>2025-12-28T09:35:54.000Z</time>
      </trkpt>
      <trkpt lat="43.01507" lon="1.17862">
        <ele>530.9</ele>
        <time>2025-12-28T09:35:55.000Z</time>
      </trkpt>
      <trkpt lat="43.01505" lon="1.17865">
        <ele>531.2</ele>
        <time>2025-12-28T09:35:56.000Z</time>
      </trkpt>
      <trkpt lat="43.01502" lon="1.17868">
        <ele>531.6</ele>
        <time>2025-12-28T09:35:57.000Z</time>
      </trkpt>
      <trkpt lat="43.01499" lon="1.17871">
        <ele>531.5</ele>
        <time>2025-12-28T09:35:58.000Z</time>
      </trkpt>
      <trkpt lat="43.01495" lon="1.17873">
        <ele>531.3</ele>
        <time>2025-12-28T09:35:59.000Z</time>
      </trkpt>
      <trkpt lat="43.01492" lon="1.17876">
        <ele>531.9</ele>
        <time>2025-12-28T09:36:00.000Z</time>
      </trkpt>
      <trkpt lat="43.01489" lon="1.1788">
        <ele>532.3</ele>
        <time>2025-12-28T09:36:01.000Z</time>
      </trkpt>
      <trkpt lat="43.01487" lon="1.17883">
        <ele>532.2</ele>
        <time>2025-12-28T09:36:02.000Z</time>
      </trkpt>
      <trkpt lat="43.01484" lon="1.17886">
        <ele>532.1</ele>
        <time>2025-12-28T09:36:03.000Z</time>
      </trkpt>
      <trkpt lat="43.01482" lon="1.17888">
        <ele>531</ele>
        <time>2025-12-28T09:36:04.000Z</time>
      </trkpt>
      <trkpt lat="43.0148" lon="1.17889">
        <ele>531.3</ele>
        <time>2025-12-28T09:36:05.000Z</time>
      </trkpt>
      <trkpt lat="43.01477" lon="1.1789">
        <ele>531.8</ele>
        <time>2025-12-28T09:36:06.000Z</time>
      </trkpt>
      <trkpt lat="43.01475" lon="1.17889">
        <ele>532.9</ele>
        <time>2025-12-28T09:36:07.000Z</time>
      </trkpt>
      <trkpt lat="43.01473" lon="1.17889">
        <ele>533.6</ele>
        <time>2025-12-28T09:36:08.000Z</time>
      </trkpt>
      <trkpt lat="43.01471" lon="1.17887">
        <ele>533.8</ele>
        <time>2025-12-28T09:36:09.000Z</time>
      </trkpt>
      <trkpt lat="43.01469" lon="1.17887">
        <ele>534.4</ele>
        <time>2025-12-28T09:36:10.000Z</time>
      </trkpt>
      <trkpt lat="43.01467" lon="1.17887">
        <ele>533.6</ele>
        <time>2025-12-28T09:36:11.000Z</time>
      </trkpt>
      <trkpt lat="43.01466" lon="1.17888">
        <ele>533.5</ele>
        <time>2025-12-28T09:36:12.000Z</time>
      </trkpt>
      <trkpt lat="43.01464" lon="1.17889">
        <ele>534.3</ele>
        <time>2025-12-28T09:36:13.000Z</time>
      </trkpt>
      <trkpt lat="43.01463" lon="1.17889">
        <ele>533.8</ele>
        <time>2025-12-28T09:36:14.000Z</time>
      </trkpt>
      <trkpt lat="43.01461" lon="1.1789">
        <ele>534.5</ele>
        <time>2025-12-28T09:36:15.000Z</time>
      </trkpt>
      <trkpt lat="43.0146" lon="1.17891">
        <ele>534.9</ele>
        <time>2025-12-28T09:36:16.000Z</time>
      </trkpt>
      <trkpt lat="43.01459" lon="1.17892">
        <ele>534</ele>
        <time>2025-12-28T09:36:17.000Z</time>
      </trkpt>
      <trkpt lat="43.01458" lon="1.17895">
        <ele>533.8</ele>
        <time>2025-12-28T09:36:18.000Z</time>
      </trkpt>
      <trkpt lat="43.01456" lon="1.17897">
        <ele>533.9</ele>
        <time>2025-12-28T09:36:19.000Z</time>
      </trkpt>
      <trkpt lat="43.01454" lon="1.17901">
        <ele>534</ele>
        <time>2025-12-28T09:36:20.000Z</time>
      </trkpt>
      <trkpt lat="43.01453" lon="1.17905">
        <ele>533.7</ele>
        <time>2025-12-28T09:36:21.000Z</time>
      </trkpt>
      <trkpt lat="43.01451" lon="1.17909">
        <ele>533.6</ele>
        <time>2025-12-28T09:36:22.000Z</time>
      </trkpt>
      <trkpt lat="43.0145" lon="1.17914">
        <ele>532.8</ele>
        <time>2025-12-28T09:36:23.000Z</time>
      </trkpt>
      <trkpt lat="43.01448" lon="1.17919">
        <ele>532.6</ele>
        <time>2025-12-28T09:36:24.000Z</time>
      </trkpt>
      <trkpt lat="43.01446" lon="1.17924">
        <ele>532.5</ele>
        <time>2025-12-28T09:36:25.000Z</time>
      </trkpt>
      <trkpt lat="43.01444" lon="1.17928">
        <ele>532.2</ele>
        <time>2025-12-28T09:36:26.000Z</time>
      </trkpt>
      <trkpt lat="43.01441" lon="1.17932">
        <ele>531.9</ele>
        <time>2025-12-28T09:36:27.000Z</time>
      </trkpt>
      <trkpt lat="43.01439" lon="1.17937">
        <ele>531.6</ele>
        <time>2025-12-28T09:36:28.000Z</time>
      </trkpt>
      <trkpt lat="43.01436" lon="1.17941">
        <ele>531.6</ele>
        <time>2025-12-28T09:36:29.000Z</time>
      </trkpt>
      <trkpt lat="43.01434" lon="1.17946">
        <ele>531.2</ele>
        <time>2025-12-28T09:36:30.000Z</time>
      </trkpt>
      <trkpt lat="43.01432" lon="1.1795">
        <ele>530</ele>
        <time>2025-12-28T09:36:31.000Z</time>
      </trkpt>
      <trkpt lat="43.0143" lon="1.17954">
        <ele>529.6</ele>
        <time>2025-12-28T09:36:32.000Z</time>
      </trkpt>
      <trkpt lat="43.01428" lon="1.17959">
        <ele>529.2</ele>
        <time>2025-12-28T09:36:33.000Z</time>
      </trkpt>
      <trkpt lat="43.01426" lon="1.17963">
        <ele>528.4</ele>
        <time>2025-12-28T09:36:34.000Z</time>
      </trkpt>
      <trkpt lat="43.01424" lon="1.17969">
        <ele>527.9</ele>
        <time>2025-12-28T09:36:35.000Z</time>
      </trkpt>
      <trkpt lat="43.01422" lon="1.17974">
        <ele>527.6</ele>
        <time>2025-12-28T09:36:36.000Z</time>
      </trkpt>
      <trkpt lat="43.01419" lon="1.17979">
        <ele>527.7</ele>
        <time>2025-12-28T09:36:37.000Z</time>
      </trkpt>
      <trkpt lat="43.01417" lon="1.17985">
        <ele>527.6</ele>
        <time>2025-12-28T09:36:38.000Z</time>
      </trkpt>
      <trkpt lat="43.01415" lon="1.1799">
        <ele>527.5</ele>
        <time>2025-12-28T09:36:39.000Z</time>
      </trkpt>
      <trkpt lat="43.01412" lon="1.17995">
        <ele>527.1</ele>
        <time>2025-12-28T09:36:40.000Z</time>
      </trkpt>
      <trkpt lat="43.0141" lon="1.18001">
        <ele>527.1</ele>
        <time>2025-12-28T09:36:41.000Z</time>
      </trkpt>
      <trkpt lat="43.01408" lon="1.18007">
        <ele>527.3</ele>
        <time>2025-12-28T09:36:42.000Z</time>
      </trkpt>
      <trkpt lat="43.01406" lon="1.18013">
        <ele>527</ele>
        <time>2025-12-28T09:36:43.000Z</time>
      </trkpt>
      <trkpt lat="43.01403" lon="1.18019">
        <ele>526.7</ele>
        <time>2025-12-28T09:36:44.000Z</time>
      </trkpt>
      <trkpt lat="43.01401" lon="1.18025">
        <ele>526.2</ele>
        <time>2025-12-28T09:36:45.000Z</time>
      </trkpt>
      <trkpt lat="43.01398" lon="1.1803">
        <ele>526.1</ele>
        <time>2025-12-28T09:36:46.000Z</time>
      </trkpt>
      <trkpt lat="43.01396" lon="1.18036">
        <ele>526.2</ele>
        <time>2025-12-28T09:36:47.000Z</time>
      </trkpt>
      <trkpt lat="43.01394" lon="1.18042">
        <ele>525.8</ele>
        <time>2025-12-28T09:36:48.000Z</time>
      </trkpt>
      <trkpt lat="43.01391" lon="1.18047">
        <ele>525.9</ele>
        <time>2025-12-28T09:36:49.000Z</time>
      </trkpt>
      <trkpt lat="43.01389" lon="1.18053">
        <ele>526</ele>
        <time>2025-12-28T09:36:50.000Z</time>
      </trkpt>
      <trkpt lat="43.01386" lon="1.18058">
        <ele>525.9</ele>
        <time>2025-12-28T09:36:51.000Z</time>
      </trkpt>
      <trkpt lat="43.01383" lon="1.18064">
        <ele>525.5</ele>
        <time>2025-12-28T09:36:52.000Z</time>
      </trkpt>
      <trkpt lat="43.0138" lon="1.1807">
        <ele>525.3</ele>
        <time>2025-12-28T09:36:53.000Z</time>
      </trkpt>
      <trkpt lat="43.01378" lon="1.18076">
        <ele>525.4</ele>
        <time>2025-12-28T09:36:54.000Z</time>
      </trkpt>
      <trkpt lat="43.01376" lon="1.18082">
        <ele>525.4</ele>
        <time>2025-12-28T09:36:55.000Z</time>
      </trkpt>
      <trkpt lat="43.01373" lon="1.18087">
        <ele>525.3</ele>
        <time>2025-12-28T09:36:56.000Z</time>
      </trkpt>
      <trkpt lat="43.01371" lon="1.18093">
        <ele>525.3</ele>
        <time>2025-12-28T09:36:57.000Z</time>
      </trkpt>
      <trkpt lat="43.01368" lon="1.18099">
        <ele>524.6</ele>
        <time>2025-12-28T09:36:58.000Z</time>
      </trkpt>
      <trkpt lat="43.01366" lon="1.18105">
        <ele>524</ele>
        <time>2025-12-28T09:36:59.000Z</time>
      </trkpt>
      <trkpt lat="43.01363" lon="1.18111">
        <ele>523.8</ele>
        <time>2025-12-28T09:37:00.000Z</time>
      </trkpt>
      <trkpt lat="43.01361" lon="1.18116">
        <ele>523.6</ele>
        <time>2025-12-28T09:37:01.000Z</time>
      </trkpt>
      <trkpt lat="43.01359" lon="1.18122">
        <ele>523.2</ele>
        <time>2025-12-28T09:37:02.000Z</time>
      </trkpt>
      <trkpt lat="43.01356" lon="1.18128">
        <ele>522.9</ele>
        <time>2025-12-28T09:37:03.000Z</time>
      </trkpt>
      <trkpt lat="43.01354" lon="1.18134">
        <ele>522.6</ele>
        <time>2025-12-28T09:37:04.000Z</time>
      </trkpt>
      <trkpt lat="43.01351" lon="1.18137">
        <ele>522.3</ele>
        <time>2025-12-28T09:37:05.000Z</time>
      </trkpt>
      <trkpt lat="43.01349" lon="1.18139">
        <ele>522.4</ele>
        <time>2025-12-28T09:37:06.000Z</time>
      </trkpt>
      <trkpt lat="43.01345" lon="1.18138">
        <ele>523.2</ele>
        <time>2025-12-28T09:37:07.000Z</time>
      </trkpt>
      <trkpt lat="43.01342" lon="1.18137">
        <ele>524.7</ele>
        <time>2025-12-28T09:37:08.000Z</time>
      </trkpt>
      <trkpt lat="43.01339" lon="1.18137">
        <ele>524.7</ele>
        <time>2025-12-28T09:37:09.000Z</time>
      </trkpt>
      <trkpt lat="43.01335" lon="1.18138">
        <ele>524.2</ele>
        <time>2025-12-28T09:37:10.000Z</time>
      </trkpt>
      <trkpt lat="43.01331" lon="1.18139">
        <ele>523.9</ele>
        <time>2025-12-28T09:37:11.000Z</time>
      </trkpt>
      <trkpt lat="43.01327" lon="1.1814">
        <ele>524</ele>
        <time>2025-12-28T09:37:12.000Z</time>
      </trkpt>
      <trkpt lat="43.01321" lon="1.1814">
        <ele>523.9</ele>
        <time>2025-12-28T09:37:13.000Z</time>
      </trkpt>
      <trkpt lat="43.01294" lon="1.18138">
        <ele>517.9</ele>
        <time>2025-12-28T09:37:14.000Z</time>
      </trkpt>
      <trkpt lat="43.01288" lon="1.18141">
        <ele>517.8</ele>
        <time>2025-12-28T09:37:15.000Z</time>
      </trkpt>
      <trkpt lat="43.01282" lon="1.18144">
        <ele>517.7</ele>
        <time>2025-12-28T09:37:16.000Z</time>
      </trkpt>
      <trkpt lat="43.01277" lon="1.18148">
        <ele>517.6</ele>
        <time>2025-12-28T09:37:17.000Z</time>
      </trkpt>
      <trkpt lat="43.01273" lon="1.18152">
        <ele>518.1</ele>
        <time>2025-12-28T09:37:18.000Z</time>
      </trkpt>
      <trkpt lat="43.01268" lon="1.18155">
        <ele>518.4</ele>
        <time>2025-12-28T09:37:19.000Z</time>
      </trkpt>
      <trkpt lat="43.01264" lon="1.18157">
        <ele>518</ele>
        <time>2025-12-28T09:37:20.000Z</time>
      </trkpt>
      <trkpt lat="43.01258" lon="1.1815">
        <ele>518.1</ele>
        <time>2025-12-28T09:37:21.000Z</time>
      </trkpt>
      <trkpt lat="43.01256" lon="1.18144">
        <ele>517.6</ele>
        <time>2025-12-28T09:37:22.000Z</time>
      </trkpt>
      <trkpt lat="43.01253" lon="1.18136">
        <ele>517.3</ele>
        <time>2025-12-28T09:37:23.000Z</time>
      </trkpt>
      <trkpt lat="43.0125" lon="1.18129">
        <ele>517</ele>
        <time>2025-12-28T09:37:24.000Z</time>
      </trkpt>
      <trkpt lat="43.01245" lon="1.18122">
        <ele>516.8</ele>
        <time>2025-12-28T09:37:25.000Z</time>
      </trkpt>
      <trkpt lat="43.01239" lon="1.18117">
        <ele>516.2</ele>
        <time>2025-12-28T09:37:26.000Z</time>
      </trkpt>
      <trkpt lat="43.01233" lon="1.18113">
        <ele>515.9</ele>
        <time>2025-12-28T09:37:27.000Z</time>
      </trkpt>
      <trkpt lat="43.01228" lon="1.1811">
        <ele>515.9</ele>
        <time>2025-12-28T09:37:28.000Z</time>
      </trkpt>
      <trkpt lat="43.01222" lon="1.18107">
        <ele>515.8</ele>
        <time>2025-12-28T09:37:29.000Z</time>
      </trkpt>
      <trkpt lat="43.01217" lon="1.18104">
        <ele>515.7</ele>
        <time>2025-12-28T09:37:30.000Z</time>
      </trkpt>
      <trkpt lat="43.01212" lon="1.18101">
        <ele>515.4</ele>
        <time>2025-12-28T09:37:31.000Z</time>
      </trkpt>
      <trkpt lat="43.01207" lon="1.18097">
        <ele>514.6</ele>
        <time>2025-12-28T09:37:32.000Z</time>
      </trkpt>
      <trkpt lat="43.01202" lon="1.18094">
        <ele>514</ele>
        <time>2025-12-28T09:37:33.000Z</time>
      </trkpt>
      <trkpt lat="43.01197" lon="1.18092">
        <ele>513.4</ele>
        <time>2025-12-28T09:37:34.000Z</time>
      </trkpt>
      <trkpt lat="43.01191" lon="1.18089">
        <ele>512.8</ele>
        <time>2025-12-28T09:37:35.000Z</time>
      </trkpt>
      <trkpt lat="43.01185" lon="1.18086">
        <ele>512.1</ele>
        <time>2025-12-28T09:37:36.000Z</time>
      </trkpt>
      <trkpt lat="43.01181" lon="1.18084">
        <ele>511.4</ele>
        <time>2025-12-28T09:37:37.000Z</time>
      </trkpt>
      <trkpt lat="43.01177" lon="1.18081">
        <ele>511</ele>
        <time>2025-12-28T09:37:38.000Z</time>
      </trkpt>
      <trkpt lat="43.01174" lon="1.18079">
        <ele>510.5</ele>
        <time>2025-12-28T09:37:39.000Z</time>
      </trkpt>
      <trkpt lat="43.01172" lon="1.18077">
        <ele>510.5</ele>
        <time>2025-12-28T09:37:40.000Z</time>
      </trkpt>
      <trkpt lat="43.01171" lon="1.18075">
        <ele>510.7</ele>
        <time>2025-12-28T09:37:41.000Z</time>
      </trkpt>
      <trkpt lat="43.01171" lon="1.18075">
        <ele>510.7</ele>
        <time>2025-12-28T09:37:42.000Z</time>
      </trkpt>
      <trkpt lat="43.01169" lon="1.18074">
        <ele>510.8</ele>
        <time>2025-12-28T09:37:43.000Z</time>
      </trkpt>
      <trkpt lat="43.01168" lon="1.18072">
        <ele>511</ele>
        <time>2025-12-28T09:37:44.000Z</time>
      </trkpt>
      <trkpt lat="43.01165" lon="1.18068">
        <ele>511.2</ele>
        <time>2025-12-28T09:37:45.000Z</time>
      </trkpt>
      <trkpt lat="43.01163" lon="1.18065">
        <ele>511.4</ele>
        <time>2025-12-28T09:37:46.000Z</time>
      </trkpt>
      <trkpt lat="43.0116" lon="1.18062">
        <ele>511.4</ele>
        <time>2025-12-28T09:37:47.000Z</time>
      </trkpt>
      <trkpt lat="43.01158" lon="1.18059">
        <ele>510.7</ele>
        <time>2025-12-28T09:37:48.000Z</time>
      </trkpt>
      <trkpt lat="43.01156" lon="1.18058">
        <ele>511.4</ele>
        <time>2025-12-28T09:37:49.000Z</time>
      </trkpt>
      <trkpt lat="43.01154" lon="1.18057">
        <ele>512.4</ele>
        <time>2025-12-28T09:37:50.000Z</time>
      </trkpt>
      <trkpt lat="43.0115" lon="1.18054">
        <ele>513.1</ele>
        <time>2025-12-28T09:37:51.000Z</time>
      </trkpt>
      <trkpt lat="43.01147" lon="1.18052">
        <ele>513.1</ele>
        <time>2025-12-28T09:37:52.000Z</time>
      </trkpt>
      <trkpt lat="43.01143" lon="1.1805">
        <ele>513.6</ele>
        <time>2025-12-28T09:37:53.000Z</time>
      </trkpt>
      <trkpt lat="43.01139" lon="1.18048">
        <ele>513.9</ele>
        <time>2025-12-28T09:37:54.000Z</time>
      </trkpt>
      <trkpt lat="43.01136" lon="1.18046">
        <ele>514</ele>
        <time>2025-12-28T09:37:55.000Z</time>
      </trkpt>
      <trkpt lat="43.01133" lon="1.18043">
        <ele>514.6</ele>
        <time>2025-12-28T09:37:56.000Z</time>
      </trkpt>
      <trkpt lat="43.0113" lon="1.1804">
        <ele>515.2</ele>
        <time>2025-12-28T09:37:57.000Z</time>
      </trkpt>
      <trkpt lat="43.01127" lon="1.18038">
        <ele>515.4</ele>
        <time>2025-12-28T09:37:58.000Z</time>
      </trkpt>
      <trkpt lat="43.01124" lon="1.18036">
        <ele>515.5</ele>
        <time>2025-12-28T09:37:59.000Z</time>
      </trkpt>
      <trkpt lat="43.01121" lon="1.18034">
        <ele>515.7</ele>
        <time>2025-12-28T09:38:00.000Z</time>
      </trkpt>
      <trkpt lat="43.01118" lon="1.18032">
        <ele>516.8</ele>
        <time>2025-12-28T09:38:01.000Z</time>
      </trkpt>
      <trkpt lat="43.01116" lon="1.1803">
        <ele>516.8</ele>
        <time>2025-12-28T09:38:02.000Z</time>
      </trkpt>
      <trkpt lat="43.01113" lon="1.18028">
        <ele>517.1</ele>
        <time>2025-12-28T09:38:03.000Z</time>
      </trkpt>
      <trkpt lat="43.0111" lon="1.18027">
        <ele>517.5</ele>
        <time>2025-12-28T09:38:04.000Z</time>
      </trkpt>
      <trkpt lat="43.01107" lon="1.18026">
        <ele>517.3</ele>
        <time>2025-12-28T09:38:05.000Z</time>
      </trkpt>
      <trkpt lat="43.01104" lon="1.18024">
        <ele>517.6</ele>
        <time>2025-12-28T09:38:06.000Z</time>
      </trkpt>
      <trkpt lat="43.011" lon="1.18023">
        <ele>517.4</ele>
        <time>2025-12-28T09:38:07.000Z</time>
      </trkpt>
      <trkpt lat="43.01097" lon="1.18021">
        <ele>518.1</ele>
        <time>2025-12-28T09:38:08.000Z</time>
      </trkpt>
      <trkpt lat="43.01094" lon="1.18019">
        <ele>517.5</ele>
        <time>2025-12-28T09:38:09.000Z</time>
      </trkpt>
      <trkpt lat="43.0109" lon="1.18018">
        <ele>517.7</ele>
        <time>2025-12-28T09:38:10.000Z</time>
      </trkpt>
      <trkpt lat="43.01087" lon="1.18016">
        <ele>518</ele>
        <time>2025-12-28T09:38:11.000Z</time>
      </trkpt>
      <trkpt lat="43.01084" lon="1.18014">
        <ele>518.4</ele>
        <time>2025-12-28T09:38:12.000Z</time>
      </trkpt>
      <trkpt lat="43.01081" lon="1.18011">
        <ele>519.4</ele>
        <time>2025-12-28T09:38:13.000Z</time>
      </trkpt>
      <trkpt lat="43.01077" lon="1.18008">
        <ele>519.4</ele>
        <time>2025-12-28T09:38:14.000Z</time>
      </trkpt>
      <trkpt lat="43.01074" lon="1.18005">
        <ele>519.9</ele>
        <time>2025-12-28T09:38:15.000Z</time>
      </trkpt>
      <trkpt lat="43.0107" lon="1.18003">
        <ele>520.5</ele>
        <time>2025-12-28T09:38:16.000Z</time>
      </trkpt>
      <trkpt lat="43.01066" lon="1.18">
        <ele>520.4</ele>
        <time>2025-12-28T09:38:17.000Z</time>
      </trkpt>
      <trkpt lat="43.01063" lon="1.17997">
        <ele>520.7</ele>
        <time>2025-12-28T09:38:18.000Z</time>
      </trkpt>
      <trkpt lat="43.0106" lon="1.17995">
        <ele>521</ele>
        <time>2025-12-28T09:38:19.000Z</time>
      </trkpt>
      <trkpt lat="43.01057" lon="1.17992">
        <ele>521.3</ele>
        <time>2025-12-28T09:38:20.000Z</time>
      </trkpt>
      <trkpt lat="43.01054" lon="1.1799">
        <ele>521.4</ele>
        <time>2025-12-28T09:38:21.000Z</time>
      </trkpt>
      <trkpt lat="43.01052" lon="1.17988">
        <ele>521.8</ele>
        <time>2025-12-28T09:38:22.000Z</time>
      </trkpt>
      <trkpt lat="43.0105" lon="1.17986">
        <ele>522</ele>
        <time>2025-12-28T09:38:23.000Z</time>
      </trkpt>
      <trkpt lat="43.01048" lon="1.17984">
        <ele>521.6</ele>
        <time>2025-12-28T09:38:24.000Z</time>
      </trkpt>
      <trkpt lat="43.01045" lon="1.17982">
        <ele>520.7</ele>
        <time>2025-12-28T09:38:25.000Z</time>
      </trkpt>
      <trkpt lat="43.01043" lon="1.1798">
        <ele>521.9</ele>
        <time>2025-12-28T09:38:26.000Z</time>
      </trkpt>
      <trkpt lat="43.0104" lon="1.17978">
        <ele>522.2</ele>
        <time>2025-12-28T09:38:27.000Z</time>
      </trkpt>
      <trkpt lat="43.01038" lon="1.17977">
        <ele>522.5</ele>
        <time>2025-12-28T09:38:28.000Z</time>
      </trkpt>
      <trkpt lat="43.01035" lon="1.17975">
        <ele>522.3</ele>
        <time>2025-12-28T09:38:29.000Z</time>
      </trkpt>
      <trkpt lat="43.01031" lon="1.17973">
        <ele>522.4</ele>
        <time>2025-12-28T09:38:30.000Z</time>
      </trkpt>
      <trkpt lat="43.01029" lon="1.17971">
        <ele>523.2</ele>
        <time>2025-12-28T09:38:31.000Z</time>
      </trkpt>
      <trkpt lat="43.01025" lon="1.1797">
        <ele>521.8</ele>
        <time>2025-12-28T09:38:32.000Z</time>
      </trkpt>
      <trkpt lat="43.01022" lon="1.17967">
        <ele>521.5</ele>
        <time>2025-12-28T09:38:33.000Z</time>
      </trkpt>
      <trkpt lat="43.01019" lon="1.17965">
        <ele>521.9</ele>
        <time>2025-12-28T09:38:34.000Z</time>
      </trkpt>
      <trkpt lat="43.01016" lon="1.17963">
        <ele>522.5</ele>
        <time>2025-12-28T09:38:35.000Z</time>
      </trkpt>
      <trkpt lat="43.01013" lon="1.1796">
        <ele>522</ele>
        <time>2025-12-28T09:38:36.000Z</time>
      </trkpt>
      <trkpt lat="43.0101" lon="1.17954">
        <ele>523.2</ele>
        <time>2025-12-28T09:38:37.000Z</time>
      </trkpt>
      <trkpt lat="43.01007" lon="1.17949">
        <ele>524.1</ele>
        <time>2025-12-28T09:38:38.000Z</time>
      </trkpt>
      <trkpt lat="43.01004" lon="1.17942">
        <ele>523.8</ele>
        <time>2025-12-28T09:38:39.000Z</time>
      </trkpt>
      <trkpt lat="43.01003" lon="1.17936">
        <ele>524</ele>
        <time>2025-12-28T09:38:40.000Z</time>
      </trkpt>
      <trkpt lat="43.01001" lon="1.1793">
        <ele>525</ele>
        <time>2025-12-28T09:38:41.000Z</time>
      </trkpt>
      <trkpt lat="43.01" lon="1.17925">
        <ele>524.9</ele>
        <time>2025-12-28T09:38:42.000Z</time>
      </trkpt>
      <trkpt lat="43.00998" lon="1.1792">
        <ele>524.7</ele>
        <time>2025-12-28T09:38:43.000Z</time>
      </trkpt>
      <trkpt lat="43.00997" lon="1.17915">
        <ele>524.8</ele>
        <time>2025-12-28T09:38:44.000Z</time>
      </trkpt>
      <trkpt lat="43.00995" lon="1.1791">
        <ele>525.2</ele>
        <time>2025-12-28T09:38:45.000Z</time>
      </trkpt>
      <trkpt lat="43.00994" lon="1.17905">
        <ele>525.2</ele>
        <time>2025-12-28T09:38:46.000Z</time>
      </trkpt>
      <trkpt lat="43.00993" lon="1.179">
        <ele>525.4</ele>
        <time>2025-12-28T09:38:47.000Z</time>
      </trkpt>
      <trkpt lat="43.00991" lon="1.17895">
        <ele>525.6</ele>
        <time>2025-12-28T09:38:48.000Z</time>
      </trkpt>
      <trkpt lat="43.0099" lon="1.17891">
        <ele>525.7</ele>
        <time>2025-12-28T09:38:49.000Z</time>
      </trkpt>
      <trkpt lat="43.00989" lon="1.17886">
        <ele>525.8</ele>
        <time>2025-12-28T09:38:50.000Z</time>
      </trkpt>
      <trkpt lat="43.00987" lon="1.17882">
        <ele>525.9</ele>
        <time>2025-12-28T09:38:51.000Z</time>
      </trkpt>
      <trkpt lat="43.00986" lon="1.17877">
        <ele>525.8</ele>
        <time>2025-12-28T09:38:52.000Z</time>
      </trkpt>
      <trkpt lat="43.00985" lon="1.17873">
        <ele>525.6</ele>
        <time>2025-12-28T09:38:53.000Z</time>
      </trkpt>
      <trkpt lat="43.00983" lon="1.17868">
        <ele>525</ele>
        <time>2025-12-28T09:38:54.000Z</time>
      </trkpt>
      <trkpt lat="43.00982" lon="1.17863">
        <ele>525.8</ele>
        <time>2025-12-28T09:38:55.000Z</time>
      </trkpt>
      <trkpt lat="43.00981" lon="1.17858">
        <ele>526</ele>
        <time>2025-12-28T09:38:56.000Z</time>
      </trkpt>
      <trkpt lat="43.0098" lon="1.17853">
        <ele>526</ele>
        <time>2025-12-28T09:38:57.000Z</time>
      </trkpt>
      <trkpt lat="43.00981" lon="1.17847">
        <ele>526.1</ele>
        <time>2025-12-28T09:38:58.000Z</time>
      </trkpt>
      <trkpt lat="43.00982" lon="1.17842">
        <ele>526</ele>
        <time>2025-12-28T09:38:59.000Z</time>
      </trkpt>
      <trkpt lat="43.00982" lon="1.17837">
        <ele>526.8</ele>
        <time>2025-12-28T09:39:00.000Z</time>
      </trkpt>
      <trkpt lat="43.00983" lon="1.17832">
        <ele>527</ele>
        <time>2025-12-28T09:39:01.000Z</time>
      </trkpt>
      <trkpt lat="43.00984" lon="1.17827">
        <ele>527.1</ele>
        <time>2025-12-28T09:39:02.000Z</time>
      </trkpt>
      <trkpt lat="43.00984" lon="1.17823">
        <ele>527.1</ele>
        <time>2025-12-28T09:39:03.000Z</time>
      </trkpt>
      <trkpt lat="43.00985" lon="1.17819">
        <ele>527.2</ele>
        <time>2025-12-28T09:39:04.000Z</time>
      </trkpt>
      <trkpt lat="43.00985" lon="1.17815">
        <ele>527.4</ele>
        <time>2025-12-28T09:39:05.000Z</time>
      </trkpt>
      <trkpt lat="43.00986" lon="1.17811">
        <ele>527.8</ele>
        <time>2025-12-28T09:39:06.000Z</time>
      </trkpt>
      <trkpt lat="43.00987" lon="1.17808">
        <ele>527.4</ele>
        <time>2025-12-28T09:39:07.000Z</time>
      </trkpt>
      <trkpt lat="43.00987" lon="1.17804">
        <ele>527.3</ele>
        <time>2025-12-28T09:39:08.000Z</time>
      </trkpt>
      <trkpt lat="43.00988" lon="1.17801">
        <ele>527.1</ele>
        <time>2025-12-28T09:39:09.000Z</time>
      </trkpt>
      <trkpt lat="43.00987" lon="1.17795">
        <ele>527.4</ele>
        <time>2025-12-28T09:39:10.000Z</time>
      </trkpt>
      <trkpt lat="43.00986" lon="1.1779">
        <ele>527.8</ele>
        <time>2025-12-28T09:39:11.000Z</time>
      </trkpt>
      <trkpt lat="43.00984" lon="1.17786">
        <ele>527.6</ele>
        <time>2025-12-28T09:39:12.000Z</time>
      </trkpt>
      <trkpt lat="43.00981" lon="1.17783">
        <ele>527.4</ele>
        <time>2025-12-28T09:39:13.000Z</time>
      </trkpt>
      <trkpt lat="43.00979" lon="1.17781">
        <ele>527</ele>
        <time>2025-12-28T09:39:14.000Z</time>
      </trkpt>
      <trkpt lat="43.00976" lon="1.17778">
        <ele>526.9</ele>
        <time>2025-12-28T09:39:15.000Z</time>
      </trkpt>
      <trkpt lat="43.00973" lon="1.17775">
        <ele>526</ele>
        <time>2025-12-28T09:39:16.000Z</time>
      </trkpt>
      <trkpt lat="43.0097" lon="1.17772">
        <ele>527.3</ele>
        <time>2025-12-28T09:39:17.000Z</time>
      </trkpt>
      <trkpt lat="43.00968" lon="1.17769">
        <ele>527.3</ele>
        <time>2025-12-28T09:39:18.000Z</time>
      </trkpt>
      <trkpt lat="43.00965" lon="1.17766">
        <ele>527.4</ele>
        <time>2025-12-28T09:39:19.000Z</time>
      </trkpt>
      <trkpt lat="43.00962" lon="1.17762">
        <ele>526.5</ele>
        <time>2025-12-28T09:39:20.000Z</time>
      </trkpt>
      <trkpt lat="43.00959" lon="1.17758">
        <ele>526.5</ele>
        <time>2025-12-28T09:39:21.000Z</time>
      </trkpt>
      <trkpt lat="43.00955" lon="1.17755">
        <ele>526.3</ele>
        <time>2025-12-28T09:39:22.000Z</time>
      </trkpt>
      <trkpt lat="43.00952" lon="1.17751">
        <ele>526.3</ele>
        <time>2025-12-28T09:39:23.000Z</time>
      </trkpt>
      <trkpt lat="43.00949" lon="1.17747">
        <ele>526.7</ele>
        <time>2025-12-28T09:39:24.000Z</time>
      </trkpt>
      <trkpt lat="43.00946" lon="1.17743">
        <ele>527</ele>
        <time>2025-12-28T09:39:25.000Z</time>
      </trkpt>
      <trkpt lat="43.00942" lon="1.17739">
        <ele>527.3</ele>
        <time>2025-12-28T09:39:26.000Z</time>
      </trkpt>
      <trkpt lat="43.0094" lon="1.17735">
        <ele>526.7</ele>
        <time>2025-12-28T09:39:27.000Z</time>
      </trkpt>
      <trkpt lat="43.00937" lon="1.17732">
        <ele>526.6</ele>
        <time>2025-12-28T09:39:28.000Z</time>
      </trkpt>
      <trkpt lat="43.00934" lon="1.17728">
        <ele>526.9</ele>
        <time>2025-12-28T09:39:29.000Z</time>
      </trkpt>
      <trkpt lat="43.00931" lon="1.17724">
        <ele>527.6</ele>
        <time>2025-12-28T09:39:30.000Z</time>
      </trkpt>
      <trkpt lat="43.00928" lon="1.17721">
        <ele>528.5</ele>
        <time>2025-12-28T09:39:31.000Z</time>
      </trkpt>
      <trkpt lat="43.00926" lon="1.17717">
        <ele>528.6</ele>
        <time>2025-12-28T09:39:32.000Z</time>
      </trkpt>
      <trkpt lat="43.00924" lon="1.17713">
        <ele>528.6</ele>
        <time>2025-12-28T09:39:33.000Z</time>
      </trkpt>
      <trkpt lat="43.00922" lon="1.17709">
        <ele>528.3</ele>
        <time>2025-12-28T09:39:34.000Z</time>
      </trkpt>
      <trkpt lat="43.0092" lon="1.17704">
        <ele>528.9</ele>
        <time>2025-12-28T09:39:35.000Z</time>
      </trkpt>
      <trkpt lat="43.00917" lon="1.17699">
        <ele>528.7</ele>
        <time>2025-12-28T09:39:36.000Z</time>
      </trkpt>
      <trkpt lat="43.00915" lon="1.17693">
        <ele>528.1</ele>
        <time>2025-12-28T09:39:37.000Z</time>
      </trkpt>
      <trkpt lat="43.00913" lon="1.17687">
        <ele>527.8</ele>
        <time>2025-12-28T09:39:38.000Z</time>
      </trkpt>
      <trkpt lat="43.00911" lon="1.17681">
        <ele>528.2</ele>
        <time>2025-12-28T09:39:39.000Z</time>
      </trkpt>
      <trkpt lat="43.00909" lon="1.17675">
        <ele>528.4</ele>
        <time>2025-12-28T09:39:40.000Z</time>
      </trkpt>
      <trkpt lat="43.00907" lon="1.17671">
        <ele>528.4</ele>
        <time>2025-12-28T09:39:41.000Z</time>
      </trkpt>
      <trkpt lat="43.00906" lon="1.17666">
        <ele>528.2</ele>
        <time>2025-12-28T09:39:42.000Z</time>
      </trkpt>
      <trkpt lat="43.00904" lon="1.17661">
        <ele>527.6</ele>
        <time>2025-12-28T09:39:43.000Z</time>
      </trkpt>
      <trkpt lat="43.00903" lon="1.17657">
        <ele>527.5</ele>
        <time>2025-12-28T09:39:44.000Z</time>
      </trkpt>
      <trkpt lat="43.00901" lon="1.17652">
        <ele>526.9</ele>
        <time>2025-12-28T09:39:45.000Z</time>
      </trkpt>
      <trkpt lat="43.00899" lon="1.17648">
        <ele>526.6</ele>
        <time>2025-12-28T09:39:46.000Z</time>
      </trkpt>
      <trkpt lat="43.00898" lon="1.17644">
        <ele>526.4</ele>
        <time>2025-12-28T09:39:47.000Z</time>
      </trkpt>
      <trkpt lat="43.00896" lon="1.17639">
        <ele>526.9</ele>
        <time>2025-12-28T09:39:48.000Z</time>
      </trkpt>
      <trkpt lat="43.00894" lon="1.17636">
        <ele>528</ele>
        <time>2025-12-28T09:39:49.000Z</time>
      </trkpt>
      <trkpt lat="43.00892" lon="1.17632">
        <ele>526.9</ele>
        <time>2025-12-28T09:39:50.000Z</time>
      </trkpt>
      <trkpt lat="43.00892" lon="1.17626">
        <ele>524.7</ele>
        <time>2025-12-28T09:39:51.000Z</time>
      </trkpt>
      <trkpt lat="43.00891" lon="1.17621">
        <ele>522.2</ele>
        <time>2025-12-28T09:39:52.000Z</time>
      </trkpt>
      <trkpt lat="43.0089" lon="1.17616">
        <ele>522.4</ele>
        <time>2025-12-28T09:39:53.000Z</time>
      </trkpt>
      <trkpt lat="43.00889" lon="1.17612">
        <ele>522.6</ele>
        <time>2025-12-28T09:39:54.000Z</time>
      </trkpt>
      <trkpt lat="43.00889" lon="1.17608">
        <ele>521.1</ele>
        <time>2025-12-28T09:39:55.000Z</time>
      </trkpt>
      <trkpt lat="43.00888" lon="1.17603">
        <ele>520.9</ele>
        <time>2025-12-28T09:39:56.000Z</time>
      </trkpt>
      <trkpt lat="43.00887" lon="1.17597">
        <ele>521.8</ele>
        <time>2025-12-28T09:39:57.000Z</time>
      </trkpt>
      <trkpt lat="43.00887" lon="1.17592">
        <ele>522.6</ele>
        <time>2025-12-28T09:39:58.000Z</time>
      </trkpt>
      <trkpt lat="43.00885" lon="1.17587">
        <ele>522.1</ele>
        <time>2025-12-28T09:39:59.000Z</time>
      </trkpt>
      <trkpt lat="43.00884" lon="1.17582">
        <ele>521.8</ele>
        <time>2025-12-28T09:40:00.000Z</time>
      </trkpt>
      <trkpt lat="43.00883" lon="1.17576">
        <ele>522.5</ele>
        <time>2025-12-28T09:40:01.000Z</time>
      </trkpt>
      <trkpt lat="43.00882" lon="1.17568">
        <ele>522.9</ele>
        <time>2025-12-28T09:40:02.000Z</time>
      </trkpt>
      <trkpt lat="43.00882" lon="1.17562">
        <ele>523.9</ele>
        <time>2025-12-28T09:40:03.000Z</time>
      </trkpt>
      <trkpt lat="43.00881" lon="1.17554">
        <ele>524.8</ele>
        <time>2025-12-28T09:40:04.000Z</time>
      </trkpt>
      <trkpt lat="43.00881" lon="1.17546">
        <ele>524.9</ele>
        <time>2025-12-28T09:40:05.000Z</time>
      </trkpt>
      <trkpt lat="43.00881" lon="1.17537">
        <ele>524.2</ele>
        <time>2025-12-28T09:40:06.000Z</time>
      </trkpt>
      <trkpt lat="43.00881" lon="1.17534">
        <ele>524.7</ele>
        <time>2025-12-28T09:40:07.000Z</time>
      </trkpt>
      <trkpt lat="43.00881" lon="1.17531">
        <ele>524.9</ele>
        <time>2025-12-28T09:40:08.000Z</time>
      </trkpt>
      <trkpt lat="43.0088" lon="1.17525">
        <ele>525.1</ele>
        <time>2025-12-28T09:40:09.000Z</time>
      </trkpt>
      <trkpt lat="43.0088" lon="1.17521">
        <ele>524.1</ele>
        <time>2025-12-28T09:40:10.000Z</time>
      </trkpt>
      <trkpt lat="43.00878" lon="1.17516">
        <ele>524.3</ele>
        <time>2025-12-28T09:40:11.000Z</time>
      </trkpt>
      <trkpt lat="43.00878" lon="1.17511">
        <ele>524.9</ele>
        <time>2025-12-28T09:40:12.000Z</time>
      </trkpt>
      <trkpt lat="43.00877" lon="1.17507">
        <ele>525.8</ele>
        <time>2025-12-28T09:40:13.000Z</time>
      </trkpt>
      <trkpt lat="43.00876" lon="1.17502">
        <ele>525.3</ele>
        <time>2025-12-28T09:40:14.000Z</time>
      </trkpt>
      <trkpt lat="43.00875" lon="1.17498">
        <ele>526.2</ele>
        <time>2025-12-28T09:40:15.000Z</time>
      </trkpt>
      <trkpt lat="43.00874" lon="1.17493">
        <ele>525.2</ele>
        <time>2025-12-28T09:40:16.000Z</time>
      </trkpt>
      <trkpt lat="43.00873" lon="1.17489">
        <ele>525.4</ele>
        <time>2025-12-28T09:40:17.000Z</time>
      </trkpt>
      <trkpt lat="43.00871" lon="1.17485">
        <ele>524.9</ele>
        <time>2025-12-28T09:40:18.000Z</time>
      </trkpt>
      <trkpt lat="43.0087" lon="1.1748">
        <ele>524.4</ele>
        <time>2025-12-28T09:40:19.000Z</time>
      </trkpt>
      <trkpt lat="43.00868" lon="1.17475">
        <ele>525</ele>
        <time>2025-12-28T09:40:20.000Z</time>
      </trkpt>
      <trkpt lat="43.00866" lon="1.17471">
        <ele>524.1</ele>
        <time>2025-12-28T09:40:21.000Z</time>
      </trkpt>
      <trkpt lat="43.00864" lon="1.17468">
        <ele>525.5</ele>
        <time>2025-12-28T09:40:22.000Z</time>
      </trkpt>
      <trkpt lat="43.00861" lon="1.17464">
        <ele>525.1</ele>
        <time>2025-12-28T09:40:23.000Z</time>
      </trkpt>
      <trkpt lat="43.00859" lon="1.17461">
        <ele>525.7</ele>
        <time>2025-12-28T09:40:24.000Z</time>
      </trkpt>
      <trkpt lat="43.00856" lon="1.17458">
        <ele>525.7</ele>
        <time>2025-12-28T09:40:25.000Z</time>
      </trkpt>
      <trkpt lat="43.00853" lon="1.17454">
        <ele>525</ele>
        <time>2025-12-28T09:40:26.000Z</time>
      </trkpt>
      <trkpt lat="43.00849" lon="1.17451">
        <ele>525.4</ele>
        <time>2025-12-28T09:40:27.000Z</time>
      </trkpt>
      <trkpt lat="43.00845" lon="1.1745">
        <ele>524.7</ele>
        <time>2025-12-28T09:40:28.000Z</time>
      </trkpt>
      <trkpt lat="43.0084" lon="1.17449">
        <ele>525.4</ele>
        <time>2025-12-28T09:40:29.000Z</time>
      </trkpt>
      <trkpt lat="43.00836" lon="1.17448">
        <ele>525.2</ele>
        <time>2025-12-28T09:40:30.000Z</time>
      </trkpt>
      <trkpt lat="43.00831" lon="1.17447">
        <ele>524.7</ele>
        <time>2025-12-28T09:40:31.000Z</time>
      </trkpt>
      <trkpt lat="43.00825" lon="1.17447">
        <ele>525.4</ele>
        <time>2025-12-28T09:40:32.000Z</time>
      </trkpt>
      <trkpt lat="43.0082" lon="1.17445">
        <ele>525.4</ele>
        <time>2025-12-28T09:40:33.000Z</time>
      </trkpt>
      <trkpt lat="43.00817" lon="1.17443">
        <ele>525.5</ele>
        <time>2025-12-28T09:40:34.000Z</time>
      </trkpt>
      <trkpt lat="43.00812" lon="1.17443">
        <ele>525.7</ele>
        <time>2025-12-28T09:40:35.000Z</time>
      </trkpt>
      <trkpt lat="43.00809" lon="1.17443">
        <ele>525.7</ele>
        <time>2025-12-28T09:40:36.000Z</time>
      </trkpt>
      <trkpt lat="43.00807" lon="1.17444">
        <ele>526.3</ele>
        <time>2025-12-28T09:40:37.000Z</time>
      </trkpt>
      <trkpt lat="43.00805" lon="1.1744">
        <ele>528.5</ele>
        <time>2025-12-28T09:40:38.000Z</time>
      </trkpt>
      <trkpt lat="43.00802" lon="1.17439">
        <ele>528.9</ele>
        <time>2025-12-28T09:40:39.000Z</time>
      </trkpt>
      <trkpt lat="43.008" lon="1.17439">
        <ele>528.2</ele>
        <time>2025-12-28T09:40:40.000Z</time>
      </trkpt>
      <trkpt lat="43.00798" lon="1.17438">
        <ele>528.7</ele>
        <time>2025-12-28T09:40:41.000Z</time>
      </trkpt>
      <trkpt lat="43.00795" lon="1.17436">
        <ele>528.7</ele>
        <time>2025-12-28T09:40:42.000Z</time>
      </trkpt>
      <trkpt lat="43.00793" lon="1.17435">
        <ele>528.6</ele>
        <time>2025-12-28T09:40:43.000Z</time>
      </trkpt>
      <trkpt lat="43.00791" lon="1.17433">
        <ele>528.3</ele>
        <time>2025-12-28T09:40:44.000Z</time>
      </trkpt>
      <trkpt lat="43.00789" lon="1.17431">
        <ele>528.5</ele>
        <time>2025-12-28T09:40:45.000Z</time>
      </trkpt>
      <trkpt lat="43.00785" lon="1.17429">
        <ele>526.6</ele>
        <time>2025-12-28T09:40:46.000Z</time>
      </trkpt>
      <trkpt lat="43.00781" lon="1.17427">
        <ele>525.7</ele>
        <time>2025-12-28T09:40:47.000Z</time>
      </trkpt>
      <trkpt lat="43.00777" lon="1.17426">
        <ele>525.7</ele>
        <time>2025-12-28T09:40:48.000Z</time>
      </trkpt>
      <trkpt lat="43.00772" lon="1.17425">
        <ele>525.5</ele>
        <time>2025-12-28T09:40:49.000Z</time>
      </trkpt>
      <trkpt lat="43.00767" lon="1.17424">
        <ele>525.4</ele>
        <time>2025-12-28T09:40:50.000Z</time>
      </trkpt>
      <trkpt lat="43.00762" lon="1.17424">
        <ele>525</ele>
        <time>2025-12-28T09:40:51.000Z</time>
      </trkpt>
      <trkpt lat="43.00757" lon="1.17423">
        <ele>524.6</ele>
        <time>2025-12-28T09:40:52.000Z</time>
      </trkpt>
      <trkpt lat="43.00751" lon="1.17422">
        <ele>525</ele>
        <time>2025-12-28T09:40:53.000Z</time>
      </trkpt>
      <trkpt lat="43.00745" lon="1.17422">
        <ele>524.8</ele>
        <time>2025-12-28T09:40:54.000Z</time>
      </trkpt>
      <trkpt lat="43.0074" lon="1.17421">
        <ele>524.4</ele>
        <time>2025-12-28T09:40:55.000Z</time>
      </trkpt>
      <trkpt lat="43.00735" lon="1.1742">
        <ele>523.8</ele>
        <time>2025-12-28T09:40:56.000Z</time>
      </trkpt>
      <trkpt lat="43.0073" lon="1.1742">
        <ele>523.8</ele>
        <time>2025-12-28T09:40:57.000Z</time>
      </trkpt>
      <trkpt lat="43.00725" lon="1.17419">
        <ele>523.8</ele>
        <time>2025-12-28T09:40:58.000Z</time>
      </trkpt>
      <trkpt lat="43.0072" lon="1.17418">
        <ele>523.6</ele>
        <time>2025-12-28T09:40:59.000Z</time>
      </trkpt>
      <trkpt lat="43.00716" lon="1.17417">
        <ele>523.4</ele>
        <time>2025-12-28T09:41:00.000Z</time>
      </trkpt>
      <trkpt lat="43.00712" lon="1.17415">
        <ele>523.7</ele>
        <time>2025-12-28T09:41:01.000Z</time>
      </trkpt>
      <trkpt lat="43.00708" lon="1.17414">
        <ele>523.6</ele>
        <time>2025-12-28T09:41:02.000Z</time>
      </trkpt>
      <trkpt lat="43.00703" lon="1.17414">
        <ele>523.3</ele>
        <time>2025-12-28T09:41:03.000Z</time>
      </trkpt>
      <trkpt lat="43.00699" lon="1.17414">
        <ele>523.1</ele>
        <time>2025-12-28T09:41:04.000Z</time>
      </trkpt>
      <trkpt lat="43.00696" lon="1.17415">
        <ele>523.1</ele>
        <time>2025-12-28T09:41:05.000Z</time>
      </trkpt>
      <trkpt lat="43.00692" lon="1.17416">
        <ele>522.9</ele>
        <time>2025-12-28T09:41:06.000Z</time>
      </trkpt>
      <trkpt lat="43.00687" lon="1.17415">
        <ele>522.4</ele>
        <time>2025-12-28T09:41:07.000Z</time>
      </trkpt>
      <trkpt lat="43.00682" lon="1.17415">
        <ele>522</ele>
        <time>2025-12-28T09:41:08.000Z</time>
      </trkpt>
      <trkpt lat="43.00677" lon="1.17417">
        <ele>521.1</ele>
        <time>2025-12-28T09:41:09.000Z</time>
      </trkpt>
      <trkpt lat="43.00671" lon="1.1742">
        <ele>520.2</ele>
        <time>2025-12-28T09:41:10.000Z</time>
      </trkpt>
      <trkpt lat="43.00666" lon="1.17423">
        <ele>519.5</ele>
        <time>2025-12-28T09:41:11.000Z</time>
      </trkpt>
      <trkpt lat="43.0066" lon="1.17427">
        <ele>518.8</ele>
        <time>2025-12-28T09:41:12.000Z</time>
      </trkpt>
      <trkpt lat="43.00654" lon="1.17431">
        <ele>517.7</ele>
        <time>2025-12-28T09:41:13.000Z</time>
      </trkpt>
      <trkpt lat="43.00647" lon="1.17433">
        <ele>516.9</ele>
        <time>2025-12-28T09:41:14.000Z</time>
      </trkpt>
      <trkpt lat="43.00639" lon="1.17434">
        <ele>516.1</ele>
        <time>2025-12-28T09:41:15.000Z</time>
      </trkpt>
      <trkpt lat="43.00631" lon="1.17434">
        <ele>515.6</ele>
        <time>2025-12-28T09:41:16.000Z</time>
      </trkpt>
      <trkpt lat="43.00623" lon="1.17434">
        <ele>515.1</ele>
        <time>2025-12-28T09:41:17.000Z</time>
      </trkpt>
      <trkpt lat="43.00616" lon="1.17433">
        <ele>514.2</ele>
        <time>2025-12-28T09:41:18.000Z</time>
      </trkpt>
      <trkpt lat="43.00608" lon="1.1743">
        <ele>514.2</ele>
        <time>2025-12-28T09:41:19.000Z</time>
      </trkpt>
      <trkpt lat="43.00601" lon="1.17427">
        <ele>514.1</ele>
        <time>2025-12-28T09:41:20.000Z</time>
      </trkpt>
      <trkpt lat="43.00595" lon="1.17423">
        <ele>514.2</ele>
        <time>2025-12-28T09:41:21.000Z</time>
      </trkpt>
      <trkpt lat="43.00589" lon="1.1742">
        <ele>514.8</ele>
        <time>2025-12-28T09:41:22.000Z</time>
      </trkpt>
      <trkpt lat="43.00583" lon="1.17418">
        <ele>514.9</ele>
        <time>2025-12-28T09:41:23.000Z</time>
      </trkpt>
      <trkpt lat="43.00577" lon="1.17415">
        <ele>515.8</ele>
        <time>2025-12-28T09:41:24.000Z</time>
      </trkpt>
      <trkpt lat="43.00571" lon="1.17412">
        <ele>515.3</ele>
        <time>2025-12-28T09:41:25.000Z</time>
      </trkpt>
      <trkpt lat="43.00564" lon="1.1741">
        <ele>515.4</ele>
        <time>2025-12-28T09:41:26.000Z</time>
      </trkpt>
      <trkpt lat="43.00558" lon="1.17407">
        <ele>515.4</ele>
        <time>2025-12-28T09:41:27.000Z</time>
      </trkpt>
      <trkpt lat="43.00553" lon="1.17404">
        <ele>514.9</ele>
        <time>2025-12-28T09:41:28.000Z</time>
      </trkpt>
      <trkpt lat="43.00549" lon="1.17403">
        <ele>515.4</ele>
        <time>2025-12-28T09:41:29.000Z</time>
      </trkpt>
      <trkpt lat="43.00543" lon="1.17402">
        <ele>515.5</ele>
        <time>2025-12-28T09:41:30.000Z</time>
      </trkpt>
      <trkpt lat="43.00538" lon="1.17397">
        <ele>516.6</ele>
        <time>2025-12-28T09:41:31.000Z</time>
      </trkpt>
      <trkpt lat="43.00532" lon="1.17395">
        <ele>516.4</ele>
        <time>2025-12-28T09:41:32.000Z</time>
      </trkpt>
      <trkpt lat="43.00526" lon="1.17394">
        <ele>516.5</ele>
        <time>2025-12-28T09:41:33.000Z</time>
      </trkpt>
      <trkpt lat="43.00521" lon="1.17394">
        <ele>516.6</ele>
        <time>2025-12-28T09:41:34.000Z</time>
      </trkpt>
      <trkpt lat="43.00515" lon="1.17392">
        <ele>516.4</ele>
        <time>2025-12-28T09:41:35.000Z</time>
      </trkpt>
      <trkpt lat="43.00511" lon="1.1739">
        <ele>517.1</ele>
        <time>2025-12-28T09:41:36.000Z</time>
      </trkpt>
      <trkpt lat="43.00507" lon="1.17389">
        <ele>517</ele>
        <time>2025-12-28T09:41:37.000Z</time>
      </trkpt>
      <trkpt lat="43.00503" lon="1.17388">
        <ele>517.5</ele>
        <time>2025-12-28T09:41:38.000Z</time>
      </trkpt>
      <trkpt lat="43.00498" lon="1.17386">
        <ele>517.3</ele>
        <time>2025-12-28T09:41:39.000Z</time>
      </trkpt>
      <trkpt lat="43.00494" lon="1.17385">
        <ele>516.2</ele>
        <time>2025-12-28T09:41:40.000Z</time>
      </trkpt>
      <trkpt lat="43.0049" lon="1.17386">
        <ele>516.4</ele>
        <time>2025-12-28T09:41:41.000Z</time>
      </trkpt>
      <trkpt lat="43.00486" lon="1.17386">
        <ele>516.8</ele>
        <time>2025-12-28T09:41:42.000Z</time>
      </trkpt>
      <trkpt lat="43.00482" lon="1.17387">
        <ele>517.1</ele>
        <time>2025-12-28T09:41:43.000Z</time>
      </trkpt>
      <trkpt lat="43.00479" lon="1.17388">
        <ele>517</ele>
        <time>2025-12-28T09:41:44.000Z</time>
      </trkpt>
      <trkpt lat="43.00475" lon="1.1739">
        <ele>516.1</ele>
        <time>2025-12-28T09:41:45.000Z</time>
      </trkpt>
      <trkpt lat="43.00471" lon="1.17391">
        <ele>515.8</ele>
        <time>2025-12-28T09:41:46.000Z</time>
      </trkpt>
      <trkpt lat="43.00467" lon="1.17394">
        <ele>515.5</ele>
        <time>2025-12-28T09:41:47.000Z</time>
      </trkpt>
      <trkpt lat="43.00464" lon="1.17398">
        <ele>515.6</ele>
        <time>2025-12-28T09:41:48.000Z</time>
      </trkpt>
      <trkpt lat="43.00462" lon="1.17405">
        <ele>515.4</ele>
        <time>2025-12-28T09:41:49.000Z</time>
      </trkpt>
      <trkpt lat="43.00461" lon="1.17411">
        <ele>515.2</ele>
        <time>2025-12-28T09:41:50.000Z</time>
      </trkpt>
      <trkpt lat="43.00461" lon="1.17417">
        <ele>514.5</ele>
        <time>2025-12-28T09:41:51.000Z</time>
      </trkpt>
      <trkpt lat="43.0046" lon="1.17422">
        <ele>513.6</ele>
        <time>2025-12-28T09:41:52.000Z</time>
      </trkpt>
      <trkpt lat="43.00457" lon="1.17425">
        <ele>512.8</ele>
        <time>2025-12-28T09:41:53.000Z</time>
      </trkpt>
      <trkpt lat="43.00455" lon="1.17428">
        <ele>512.8</ele>
        <time>2025-12-28T09:41:54.000Z</time>
      </trkpt>
      <trkpt lat="43.00453" lon="1.17429">
        <ele>513</ele>
        <time>2025-12-28T09:41:55.000Z</time>
      </trkpt>
      <trkpt lat="43.00447" lon="1.17423">
        <ele>513.2</ele>
        <time>2025-12-28T09:41:56.000Z</time>
      </trkpt>
      <trkpt lat="43.00444" lon="1.1742">
        <ele>513.2</ele>
        <time>2025-12-28T09:41:57.000Z</time>
      </trkpt>
      <trkpt lat="43.0044" lon="1.17418">
        <ele>513.3</ele>
        <time>2025-12-28T09:41:58.000Z</time>
      </trkpt>
      <trkpt lat="43.00436" lon="1.17416">
        <ele>513.1</ele>
        <time>2025-12-28T09:41:59.000Z</time>
      </trkpt>
      <trkpt lat="43.00432" lon="1.17415">
        <ele>512.8</ele>
        <time>2025-12-28T09:42:00.000Z</time>
      </trkpt>
      <trkpt lat="43.00428" lon="1.17412">
        <ele>513.2</ele>
        <time>2025-12-28T09:42:01.000Z</time>
      </trkpt>
      <trkpt lat="43.00424" lon="1.17408">
        <ele>512.4</ele>
        <time>2025-12-28T09:42:02.000Z</time>
      </trkpt>
      <trkpt lat="43.00419" lon="1.17401">
        <ele>511.4</ele>
        <time>2025-12-28T09:42:03.000Z</time>
      </trkpt>
      <trkpt lat="43.00416" lon="1.17396">
        <ele>511.4</ele>
        <time>2025-12-28T09:42:04.000Z</time>
      </trkpt>
      <trkpt lat="43.0041" lon="1.17392">
        <ele>510.8</ele>
        <time>2025-12-28T09:42:05.000Z</time>
      </trkpt>
      <trkpt lat="43.00407" lon="1.17389">
        <ele>511.7</ele>
        <time>2025-12-28T09:42:06.000Z</time>
      </trkpt>
      <trkpt lat="43.00401" lon="1.17385">
        <ele>511.3</ele>
        <time>2025-12-28T09:42:07.000Z</time>
      </trkpt>
      <trkpt lat="43.00396" lon="1.1738">
        <ele>510.8</ele>
        <time>2025-12-28T09:42:08.000Z</time>
      </trkpt>
      <trkpt lat="43.0039" lon="1.17375">
        <ele>510.1</ele>
        <time>2025-12-28T09:42:09.000Z</time>
      </trkpt>
      <trkpt lat="43.00384" lon="1.17371">
        <ele>509.1</ele>
        <time>2025-12-28T09:42:10.000Z</time>
      </trkpt>
      <trkpt lat="43.00378" lon="1.17367">
        <ele>508.2</ele>
        <time>2025-12-28T09:42:11.000Z</time>
      </trkpt>
      <trkpt lat="43.00372" lon="1.17362">
        <ele>507</ele>
        <time>2025-12-28T09:42:12.000Z</time>
      </trkpt>
      <trkpt lat="43.00365" lon="1.17356">
        <ele>506.2</ele>
        <time>2025-12-28T09:42:13.000Z</time>
      </trkpt>
      <trkpt lat="43.00358" lon="1.1735">
        <ele>505.6</ele>
        <time>2025-12-28T09:42:14.000Z</time>
      </trkpt>
      <trkpt lat="43.00351" lon="1.17344">
        <ele>504.6</ele>
        <time>2025-12-28T09:42:15.000Z</time>
      </trkpt>
      <trkpt lat="43.00343" lon="1.17338">
        <ele>504.2</ele>
        <time>2025-12-28T09:42:16.000Z</time>
      </trkpt>
      <trkpt lat="43.00337" lon="1.17332">
        <ele>503.3</ele>
        <time>2025-12-28T09:42:17.000Z</time>
      </trkpt>
      <trkpt lat="43.00329" lon="1.17324">
        <ele>502.4</ele>
        <time>2025-12-28T09:42:18.000Z</time>
      </trkpt>
      <trkpt lat="43.00323" lon="1.17317">
        <ele>502.3</ele>
        <time>2025-12-28T09:42:19.000Z</time>
      </trkpt>
      <trkpt lat="43.00315" lon="1.17311">
        <ele>501.8</ele>
        <time>2025-12-28T09:42:20.000Z</time>
      </trkpt>
      <trkpt lat="43.0031" lon="1.17307">
        <ele>501.8</ele>
        <time>2025-12-28T09:42:21.000Z</time>
      </trkpt>
      <trkpt lat="43.00305" lon="1.17305">
        <ele>501.3</ele>
        <time>2025-12-28T09:42:22.000Z</time>
      </trkpt>
      <trkpt lat="43.00301" lon="1.17303">
        <ele>501.1</ele>
        <time>2025-12-28T09:42:23.000Z</time>
      </trkpt>
      <trkpt lat="43.00297" lon="1.17299">
        <ele>501.3</ele>
        <time>2025-12-28T09:42:24.000Z</time>
      </trkpt>
      <trkpt lat="43.00293" lon="1.17296">
        <ele>501.4</ele>
        <time>2025-12-28T09:42:25.000Z</time>
      </trkpt>
      <trkpt lat="43.00287" lon="1.17289">
        <ele>501.4</ele>
        <time>2025-12-28T09:42:26.000Z</time>
      </trkpt>
      <trkpt lat="43.00281" lon="1.17284">
        <ele>501.1</ele>
        <time>2025-12-28T09:42:27.000Z</time>
      </trkpt>
      <trkpt lat="43.00276" lon="1.17279">
        <ele>501.3</ele>
        <time>2025-12-28T09:42:28.000Z</time>
      </trkpt>
      <trkpt lat="43.00271" lon="1.17274">
        <ele>500.7</ele>
        <time>2025-12-28T09:42:29.000Z</time>
      </trkpt>
      <trkpt lat="43.00266" lon="1.17269">
        <ele>501.1</ele>
        <time>2025-12-28T09:42:30.000Z</time>
      </trkpt>
      <trkpt lat="43.0026" lon="1.17265">
        <ele>500.4</ele>
        <time>2025-12-28T09:42:31.000Z</time>
      </trkpt>
      <trkpt lat="43.00255" lon="1.1726">
        <ele>500.5</ele>
        <time>2025-12-28T09:42:32.000Z</time>
      </trkpt>
      <trkpt lat="43.0025" lon="1.17254">
        <ele>500.7</ele>
        <time>2025-12-28T09:42:33.000Z</time>
      </trkpt>
      <trkpt lat="43.00245" lon="1.17249">
        <ele>500.5</ele>
        <time>2025-12-28T09:42:34.000Z</time>
      </trkpt>
      <trkpt lat="43.0024" lon="1.17245">
        <ele>499.7</ele>
        <time>2025-12-28T09:42:35.000Z</time>
      </trkpt>
      <trkpt lat="43.00234" lon="1.1724">
        <ele>499.7</ele>
        <time>2025-12-28T09:42:36.000Z</time>
      </trkpt>
      <trkpt lat="43.00228" lon="1.17235">
        <ele>499.4</ele>
        <time>2025-12-28T09:42:37.000Z</time>
      </trkpt>
      <trkpt lat="43.00223" lon="1.17231">
        <ele>499.2</ele>
        <time>2025-12-28T09:42:38.000Z</time>
      </trkpt>
      <trkpt lat="43.00217" lon="1.17225">
        <ele>498.8</ele>
        <time>2025-12-28T09:42:39.000Z</time>
      </trkpt>
      <trkpt lat="43.00212" lon="1.1722">
        <ele>498.8</ele>
        <time>2025-12-28T09:42:40.000Z</time>
      </trkpt>
      <trkpt lat="43.00207" lon="1.17217">
        <ele>499</ele>
        <time>2025-12-28T09:42:41.000Z</time>
      </trkpt>
      <trkpt lat="43.00201" lon="1.17213">
        <ele>499</ele>
        <time>2025-12-28T09:42:42.000Z</time>
      </trkpt>
      <trkpt lat="43.00195" lon="1.17205">
        <ele>499.5</ele>
        <time>2025-12-28T09:42:43.000Z</time>
      </trkpt>
      <trkpt lat="43.00191" lon="1.17203">
        <ele>499.8</ele>
        <time>2025-12-28T09:42:44.000Z</time>
      </trkpt>
      <trkpt lat="43.00187" lon="1.172">
        <ele>499.6</ele>
        <time>2025-12-28T09:42:45.000Z</time>
      </trkpt>
      <trkpt lat="43.00183" lon="1.17197">
        <ele>499.8</ele>
        <time>2025-12-28T09:42:46.000Z</time>
      </trkpt>
      <trkpt lat="43.0018" lon="1.17194">
        <ele>499.1</ele>
        <time>2025-12-28T09:42:47.000Z</time>
      </trkpt>
      <trkpt lat="43.00176" lon="1.1719">
        <ele>499.3</ele>
        <time>2025-12-28T09:42:48.000Z</time>
      </trkpt>
      <trkpt lat="43.00172" lon="1.17188">
        <ele>499.7</ele>
        <time>2025-12-28T09:42:49.000Z</time>
      </trkpt>
      <trkpt lat="43.00168" lon="1.17185">
        <ele>499.5</ele>
        <time>2025-12-28T09:42:50.000Z</time>
      </trkpt>
      <trkpt lat="43.00164" lon="1.17183">
        <ele>500.1</ele>
        <time>2025-12-28T09:42:51.000Z</time>
      </trkpt>
      <trkpt lat="43.0016" lon="1.17181">
        <ele>500.3</ele>
        <time>2025-12-28T09:42:52.000Z</time>
      </trkpt>
      <trkpt lat="43.00157" lon="1.17178">
        <ele>500.4</ele>
        <time>2025-12-28T09:42:53.000Z</time>
      </trkpt>
      <trkpt lat="43.00154" lon="1.17175">
        <ele>500.6</ele>
        <time>2025-12-28T09:42:54.000Z</time>
      </trkpt>
      <trkpt lat="43.00151" lon="1.17172">
        <ele>500.4</ele>
        <time>2025-12-28T09:42:55.000Z</time>
      </trkpt>
      <trkpt lat="43.00148" lon="1.17169">
        <ele>500.6</ele>
        <time>2025-12-28T09:42:56.000Z</time>
      </trkpt>
      <trkpt lat="43.00145" lon="1.17167">
        <ele>501</ele>
        <time>2025-12-28T09:42:57.000Z</time>
      </trkpt>
      <trkpt lat="43.00142" lon="1.17164">
        <ele>501.1</ele>
        <time>2025-12-28T09:42:58.000Z</time>
      </trkpt>
      <trkpt lat="43.00139" lon="1.17161">
        <ele>500.7</ele>
        <time>2025-12-28T09:42:59.000Z</time>
      </trkpt>
      <trkpt lat="43.00135" lon="1.17159">
        <ele>500.8</ele>
        <time>2025-12-28T09:43:00.000Z</time>
      </trkpt>
      <trkpt lat="43.00131" lon="1.17156">
        <ele>501.2</ele>
        <time>2025-12-28T09:43:01.000Z</time>
      </trkpt>
      <trkpt lat="43.00128" lon="1.17153">
        <ele>501.7</ele>
        <time>2025-12-28T09:43:02.000Z</time>
      </trkpt>
      <trkpt lat="43.00124" lon="1.1715">
        <ele>502.6</ele>
        <time>2025-12-28T09:43:03.000Z</time>
      </trkpt>
      <trkpt lat="43.0012" lon="1.17147">
        <ele>502.5</ele>
        <time>2025-12-28T09:43:04.000Z</time>
      </trkpt>
      <trkpt lat="43.00116" lon="1.17143">
        <ele>502.6</ele>
        <time>2025-12-28T09:43:05.000Z</time>
      </trkpt>
      <trkpt lat="43.00112" lon="1.17138">
        <ele>501.7</ele>
        <time>2025-12-28T09:43:06.000Z</time>
      </trkpt>
      <trkpt lat="43.00107" lon="1.17134">
        <ele>501.9</ele>
        <time>2025-12-28T09:43:07.000Z</time>
      </trkpt>
      <trkpt lat="43.00102" lon="1.17128">
        <ele>501</ele>
        <time>2025-12-28T09:43:08.000Z</time>
      </trkpt>
      <trkpt lat="43.00097" lon="1.17124">
        <ele>500.9</ele>
        <time>2025-12-28T09:43:09.000Z</time>
      </trkpt>
      <trkpt lat="43.00091" lon="1.17119">
        <ele>499.5</ele>
        <time>2025-12-28T09:43:10.000Z</time>
      </trkpt>
      <trkpt lat="43.00086" lon="1.17113">
        <ele>499.7</ele>
        <time>2025-12-28T09:43:11.000Z</time>
      </trkpt>
      <trkpt lat="43.0008" lon="1.1711">
        <ele>499.2</ele>
        <time>2025-12-28T09:43:12.000Z</time>
      </trkpt>
      <trkpt lat="43.00074" lon="1.17106">
        <ele>498.1</ele>
        <time>2025-12-28T09:43:13.000Z</time>
      </trkpt>
      <trkpt lat="43.00068" lon="1.17103">
        <ele>498.1</ele>
        <time>2025-12-28T09:43:14.000Z</time>
      </trkpt>
      <trkpt lat="43.00063" lon="1.171">
        <ele>498</ele>
        <time>2025-12-28T09:43:15.000Z</time>
      </trkpt>
      <trkpt lat="43.00058" lon="1.17097">
        <ele>498.9</ele>
        <time>2025-12-28T09:43:16.000Z</time>
      </trkpt>
      <trkpt lat="43.00053" lon="1.17093">
        <ele>499</ele>
        <time>2025-12-28T09:43:17.000Z</time>
      </trkpt>
      <trkpt lat="43.00048" lon="1.1709">
        <ele>499.3</ele>
        <time>2025-12-28T09:43:18.000Z</time>
      </trkpt>
      <trkpt lat="43.00044" lon="1.17088">
        <ele>499.4</ele>
        <time>2025-12-28T09:43:19.000Z</time>
      </trkpt>
      <trkpt lat="43.0004" lon="1.17087">
        <ele>499.2</ele>
        <time>2025-12-28T09:43:20.000Z</time>
      </trkpt>
      <trkpt lat="43.00037" lon="1.17085">
        <ele>499</ele>
        <time>2025-12-28T09:43:21.000Z</time>
      </trkpt>
      <trkpt lat="43.00034" lon="1.17083">
        <ele>499.4</ele>
        <time>2025-12-28T09:43:22.000Z</time>
      </trkpt>
      <trkpt lat="43.00031" lon="1.17082">
        <ele>499.9</ele>
        <time>2025-12-28T09:43:23.000Z</time>
      </trkpt>
      <trkpt lat="43.00029" lon="1.17081">
        <ele>500.4</ele>
        <time>2025-12-28T09:43:24.000Z</time>
      </trkpt>
      <trkpt lat="43.00025" lon="1.17078">
        <ele>500.6</ele>
        <time>2025-12-28T09:43:25.000Z</time>
      </trkpt>
      <trkpt lat="43.00022" lon="1.17077">
        <ele>501.6</ele>
        <time>2025-12-28T09:43:26.000Z</time>
      </trkpt>
      <trkpt lat="43.00021" lon="1.17076">
        <ele>501.3</ele>
        <time>2025-12-28T09:43:27.000Z</time>
      </trkpt>
      <trkpt lat="43.00021" lon="1.17075">
        <ele>500.6</ele>
        <time>2025-12-28T09:43:28.000Z</time>
      </trkpt>
      <trkpt lat="43.0002" lon="1.17075">
        <ele>500.7</ele>
        <time>2025-12-28T09:43:29.000Z</time>
      </trkpt>
      <trkpt lat="43.0002" lon="1.17074">
        <ele>500.8</ele>
        <time>2025-12-28T09:43:30.000Z</time>
      </trkpt>
      <trkpt lat="43.0002" lon="1.17074">
        <ele>500.7</ele>
        <time>2025-12-28T09:43:31.000Z</time>
      </trkpt>
      <trkpt lat="43.0002" lon="1.17074">
        <ele>500.8</ele>
        <time>2025-12-28T09:43:32.000Z</time>
      </trkpt>
      <trkpt lat="43.00019" lon="1.17074">
        <ele>500.5</ele>
        <time>2025-12-28T09:43:33.000Z</time>
      </trkpt>
      <trkpt lat="43.00017" lon="1.17072">
        <ele>500</ele>
        <time>2025-12-28T09:43:53.000Z</time>
      </trkpt>
      <trkpt lat="43.00015" lon="1.1707">
        <ele>499.5</ele>
        <time>2025-12-28T09:43:54.000Z</time>
      </trkpt>
      <trkpt lat="43.00006" lon="1.17067">
        <ele>498.5</ele>
        <time>2025-12-28T09:43:55.000Z</time>
      </trkpt>
      <trkpt lat="43.00001" lon="1.17065">
        <ele>498.5</ele>
        <time>2025-12-28T09:43:56.000Z</time>
      </trkpt>
      <trkpt lat="42.99995" lon="1.17061">
        <ele>497.7</ele>
        <time>2025-12-28T09:43:57.000Z</time>
      </trkpt>
      <trkpt lat="42.99986" lon="1.17059">
        <ele>498</ele>
        <time>2025-12-28T09:43:58.000Z</time>
      </trkpt>
      <trkpt lat="42.99979" lon="1.17056">
        <ele>497.5</ele>
        <time>2025-12-28T09:43:59.000Z</time>
      </trkpt>
      <trkpt lat="42.99971" lon="1.17053">
        <ele>498.1</ele>
        <time>2025-12-28T09:44:00.000Z</time>
      </trkpt>
      <trkpt lat="42.99964" lon="1.17049">
        <ele>497.9</ele>
        <time>2025-12-28T09:44:01.000Z</time>
      </trkpt>
      <trkpt lat="42.99956" lon="1.17048">
        <ele>497.9</ele>
        <time>2025-12-28T09:44:02.000Z</time>
      </trkpt>
      <trkpt lat="42.99948" lon="1.17043">
        <ele>497.3</ele>
        <time>2025-12-28T09:44:03.000Z</time>
      </trkpt>
      <trkpt lat="42.9994" lon="1.17039">
        <ele>497</ele>
        <time>2025-12-28T09:44:04.000Z</time>
      </trkpt>
      <trkpt lat="42.99933" lon="1.17035">
        <ele>496.4</ele>
        <time>2025-12-28T09:44:05.000Z</time>
      </trkpt>
      <trkpt lat="42.99926" lon="1.17032">
        <ele>496</ele>
        <time>2025-12-28T09:44:06.000Z</time>
      </trkpt>
      <trkpt lat="42.99919" lon="1.17028">
        <ele>495.6</ele>
        <time>2025-12-28T09:44:07.000Z</time>
      </trkpt>
      <trkpt lat="42.99912" lon="1.17025">
        <ele>495.5</ele>
        <time>2025-12-28T09:44:08.000Z</time>
      </trkpt>
      <trkpt lat="42.99905" lon="1.17022">
        <ele>495.7</ele>
        <time>2025-12-28T09:44:09.000Z</time>
      </trkpt>
      <trkpt lat="42.99899" lon="1.17019">
        <ele>496</ele>
        <time>2025-12-28T09:44:10.000Z</time>
      </trkpt>
      <trkpt lat="42.99892" lon="1.17016">
        <ele>494.6</ele>
        <time>2025-12-28T09:44:11.000Z</time>
      </trkpt>
      <trkpt lat="42.99887" lon="1.17013">
        <ele>494.3</ele>
        <time>2025-12-28T09:44:12.000Z</time>
      </trkpt>
      <trkpt lat="42.99881" lon="1.17006">
        <ele>493.7</ele>
        <time>2025-12-28T09:44:13.000Z</time>
      </trkpt>
      <trkpt lat="42.99875" lon="1.17003">
        <ele>492.7</ele>
        <time>2025-12-28T09:44:14.000Z</time>
      </trkpt>
      <trkpt lat="42.99873" lon="1.17">
        <ele>492.7</ele>
        <time>2025-12-28T09:44:15.000Z</time>
      </trkpt>
      <trkpt lat="42.99873" lon="1.16996">
        <ele>493.2</ele>
        <time>2025-12-28T09:44:16.000Z</time>
      </trkpt>
      <trkpt lat="42.99872" lon="1.16995">
        <ele>493.9</ele>
        <time>2025-12-28T09:44:17.000Z</time>
      </trkpt>
      <trkpt lat="42.99875" lon="1.16991">
        <ele>493.9</ele>
        <time>2025-12-28T09:44:40.000Z</time>
      </trkpt>
      <trkpt lat="42.99876" lon="1.16989">
        <ele>494.8</ele>
        <time>2025-12-28T09:44:41.000Z</time>
      </trkpt>
      <trkpt lat="42.99877" lon="1.16986">
        <ele>494.9</ele>
        <time>2025-12-28T09:44:42.000Z</time>
      </trkpt>
      <trkpt lat="42.99878" lon="1.16982">
        <ele>495.5</ele>
        <time>2025-12-28T09:44:43.000Z</time>
      </trkpt>
      <trkpt lat="42.9988" lon="1.16979">
        <ele>495.2</ele>
        <time>2025-12-28T09:44:44.000Z</time>
      </trkpt>
      <trkpt lat="42.99881" lon="1.16976">
        <ele>495.3</ele>
        <time>2025-12-28T09:44:45.000Z</time>
      </trkpt>
      <trkpt lat="42.99882" lon="1.16973">
        <ele>495.4</ele>
        <time>2025-12-28T09:44:46.000Z</time>
      </trkpt>
      <trkpt lat="42.99883" lon="1.16967">
        <ele>495.6</ele>
        <time>2025-12-28T09:44:47.000Z</time>
      </trkpt>
      <trkpt lat="42.99884" lon="1.16962">
        <ele>495.1</ele>
        <time>2025-12-28T09:44:48.000Z</time>
      </trkpt>
      <trkpt lat="42.99884" lon="1.16956">
        <ele>493.7</ele>
        <time>2025-12-28T09:44:49.000Z</time>
      </trkpt>
      <trkpt lat="42.99886" lon="1.16951">
        <ele>494.3</ele>
        <time>2025-12-28T09:44:50.000Z</time>
      </trkpt>
      <trkpt lat="42.99888" lon="1.16946">
        <ele>495.5</ele>
        <time>2025-12-28T09:44:51.000Z</time>
      </trkpt>
      <trkpt lat="42.9989" lon="1.1694">
        <ele>495.7</ele>
        <time>2025-12-28T09:44:52.000Z</time>
      </trkpt>
      <trkpt lat="42.99892" lon="1.16931">
        <ele>495.9</ele>
        <time>2025-12-28T09:44:53.000Z</time>
      </trkpt>
      <trkpt lat="42.99894" lon="1.16924">
        <ele>494.3</ele>
        <time>2025-12-28T09:44:54.000Z</time>
      </trkpt>
      <trkpt lat="42.99896" lon="1.16917">
        <ele>494.9</ele>
        <time>2025-12-28T09:44:55.000Z</time>
      </trkpt>
      <trkpt lat="42.99896" lon="1.1691">
        <ele>494.6</ele>
        <time>2025-12-28T09:44:56.000Z</time>
      </trkpt>
      <trkpt lat="42.99898" lon="1.16903">
        <ele>494.1</ele>
        <time>2025-12-28T09:44:57.000Z</time>
      </trkpt>
      <trkpt lat="42.999" lon="1.16894">
        <ele>493.1</ele>
        <time>2025-12-28T09:44:58.000Z</time>
      </trkpt>
      <trkpt lat="42.99902" lon="1.16885">
        <ele>493.6</ele>
        <time>2025-12-28T09:44:59.000Z</time>
      </trkpt>
      <trkpt lat="42.99903" lon="1.16875">
        <ele>492.6</ele>
        <time>2025-12-28T09:45:00.000Z</time>
      </trkpt>
      <trkpt lat="42.99907" lon="1.16866">
        <ele>492.6</ele>
        <time>2025-12-28T09:45:01.000Z</time>
      </trkpt>
      <trkpt lat="42.99911" lon="1.16856">
        <ele>492.8</ele>
        <time>2025-12-28T09:45:02.000Z</time>
      </trkpt>
      <trkpt lat="42.99911" lon="1.16844">
        <ele>490.6</ele>
        <time>2025-12-28T09:45:03.000Z</time>
      </trkpt>
      <trkpt lat="42.99914" lon="1.16834">
        <ele>488.9</ele>
        <time>2025-12-28T09:45:04.000Z</time>
      </trkpt>
      <trkpt lat="42.99915" lon="1.16824">
        <ele>487.4</ele>
        <time>2025-12-28T09:45:05.000Z</time>
      </trkpt>
      <trkpt lat="42.99918" lon="1.16816">
        <ele>487.8</ele>
        <time>2025-12-28T09:45:06.000Z</time>
      </trkpt>
      <trkpt lat="42.99918" lon="1.1681">
        <ele>488.6</ele>
        <time>2025-12-28T09:45:07.000Z</time>
      </trkpt>
      <trkpt lat="42.9992" lon="1.16802">
        <ele>487.4</ele>
        <time>2025-12-28T09:45:08.000Z</time>
      </trkpt>
      <trkpt lat="42.9992" lon="1.16801">
        <ele>486.1</ele>
        <time>2025-12-28T09:45:09.000Z</time>
      </trkpt>
      <trkpt lat="42.99921" lon="1.16799">
        <ele>485.6</ele>
        <time>2025-12-28T09:45:10.000Z</time>
      </trkpt>
      <trkpt lat="42.99921" lon="1.16799">
        <ele>485.6</ele>
        <time>2025-12-28T09:45:11.000Z</time>
      </trkpt>
      <trkpt lat="42.99922" lon="1.16795">
        <ele>484.7</ele>
        <time>2025-12-28T09:45:12.000Z</time>
      </trkpt>
      <trkpt lat="42.99922" lon="1.16792">
        <ele>484.4</ele>
        <time>2025-12-28T09:45:13.000Z</time>
      </trkpt>
      <trkpt lat="42.99922" lon="1.16789">
        <ele>483.6</ele>
        <time>2025-12-28T09:45:14.000Z</time>
      </trkpt>
      <trkpt lat="42.99923" lon="1.16786">
        <ele>483.3</ele>
        <time>2025-12-28T09:45:15.000Z</time>
      </trkpt>
      <trkpt lat="42.99923" lon="1.16784">
        <ele>483</ele>
        <time>2025-12-28T09:45:16.000Z</time>
      </trkpt>
      <trkpt lat="42.99923" lon="1.1678">
        <ele>483.6</ele>
        <time>2025-12-28T09:45:17.000Z</time>
      </trkpt>
      <trkpt lat="42.99924" lon="1.16775">
        <ele>483.6</ele>
        <time>2025-12-28T09:45:18.000Z</time>
      </trkpt>
      <trkpt lat="42.99927" lon="1.16766">
        <ele>482.8</ele>
        <time>2025-12-28T09:45:19.000Z</time>
      </trkpt>
      <trkpt lat="42.99928" lon="1.1676">
        <ele>482.6</ele>
        <time>2025-12-28T09:45:20.000Z</time>
      </trkpt>
      <trkpt lat="42.99931" lon="1.16753">
        <ele>483.2</ele>
        <time>2025-12-28T09:45:21.000Z</time>
      </trkpt>
      <trkpt lat="42.99931" lon="1.16748">
        <ele>483.6</ele>
        <time>2025-12-28T09:45:22.000Z</time>
      </trkpt>
      <trkpt lat="42.99933" lon="1.16741">
        <ele>482.8</ele>
        <time>2025-12-28T09:45:23.000Z</time>
      </trkpt>
      <trkpt lat="42.99937" lon="1.16731">
        <ele>481.7</ele>
        <time>2025-12-28T09:45:24.000Z</time>
      </trkpt>
      <trkpt lat="42.99939" lon="1.16721">
        <ele>481.1</ele>
        <time>2025-12-28T09:45:25.000Z</time>
      </trkpt>
      <trkpt lat="42.99938" lon="1.16714">
        <ele>479.2</ele>
        <time>2025-12-28T09:45:26.000Z</time>
      </trkpt>
      <trkpt lat="42.99941" lon="1.16706">
        <ele>479</ele>
        <time>2025-12-28T09:45:27.000Z</time>
      </trkpt>
      <trkpt lat="42.99942" lon="1.16698">
        <ele>479.3</ele>
        <time>2025-12-28T09:45:28.000Z</time>
      </trkpt>
      <trkpt lat="42.99943" lon="1.16689">
        <ele>479.2</ele>
        <time>2025-12-28T09:45:29.000Z</time>
      </trkpt>
      <trkpt lat="42.99944" lon="1.16679">
        <ele>478.4</ele>
        <time>2025-12-28T09:45:30.000Z</time>
      </trkpt>
      <trkpt lat="42.99941" lon="1.16669">
        <ele>478.1</ele>
        <time>2025-12-28T09:45:31.000Z</time>
      </trkpt>
      <trkpt lat="42.99942" lon="1.16658">
        <ele>477.5</ele>
        <time>2025-12-28T09:45:32.000Z</time>
      </trkpt>
      <trkpt lat="42.99942" lon="1.16648">
        <ele>475</ele>
        <time>2025-12-28T09:45:33.000Z</time>
      </trkpt>
      <trkpt lat="42.99942" lon="1.16639">
        <ele>475</ele>
        <time>2025-12-28T09:45:34.000Z</time>
      </trkpt>
      <trkpt lat="42.99943" lon="1.1663">
        <ele>474.2</ele>
        <time>2025-12-28T09:45:35.000Z</time>
      </trkpt>
      <trkpt lat="42.99943" lon="1.16623">
        <ele>474.4</ele>
        <time>2025-12-28T09:45:36.000Z</time>
      </trkpt>
      <trkpt lat="42.99943" lon="1.16614">
        <ele>473.6</ele>
        <time>2025-12-28T09:45:37.000Z</time>
      </trkpt>
      <trkpt lat="42.99945" lon="1.16603">
        <ele>471.5</ele>
        <time>2025-12-28T09:45:38.000Z</time>
      </trkpt>
      <trkpt lat="42.99945" lon="1.16593">
        <ele>469.7</ele>
        <time>2025-12-28T09:45:39.000Z</time>
      </trkpt>
      <trkpt lat="42.99944" lon="1.16585">
        <ele>468.2</ele>
        <time>2025-12-28T09:45:40.000Z</time>
      </trkpt>
      <trkpt lat="42.99942" lon="1.16581">
        <ele>469.6</ele>
        <time>2025-12-28T09:45:41.000Z</time>
      </trkpt>
      <trkpt lat="42.99943" lon="1.16572">
        <ele>468.9</ele>
        <time>2025-12-28T09:45:42.000Z</time>
      </trkpt>
      <trkpt lat="42.99945" lon="1.16568">
        <ele>468.8</ele>
        <time>2025-12-28T09:45:43.000Z</time>
      </trkpt>
      <trkpt lat="42.99947" lon="1.16562">
        <ele>469.3</ele>
        <time>2025-12-28T09:45:44.000Z</time>
      </trkpt>
      <trkpt lat="42.99949" lon="1.16554">
        <ele>468.5</ele>
        <time>2025-12-28T09:45:45.000Z</time>
      </trkpt>
      <trkpt lat="42.99951" lon="1.16547">
        <ele>468.1</ele>
        <time>2025-12-28T09:45:46.000Z</time>
      </trkpt>
      <trkpt lat="42.99953" lon="1.16543">
        <ele>469.1</ele>
        <time>2025-12-28T09:45:47.000Z</time>
      </trkpt>
      <trkpt lat="42.99954" lon="1.16538">
        <ele>468.6</ele>
        <time>2025-12-28T09:45:48.000Z</time>
      </trkpt>
      <trkpt lat="42.99955" lon="1.16535">
        <ele>468.6</ele>
        <time>2025-12-28T09:45:49.000Z</time>
      </trkpt>
      <trkpt lat="42.99956" lon="1.16532">
        <ele>467.4</ele>
        <time>2025-12-28T09:45:50.000Z</time>
      </trkpt>
      <trkpt lat="42.99957" lon="1.16529">
        <ele>467.2</ele>
        <time>2025-12-28T09:45:51.000Z</time>
      </trkpt>
      <trkpt lat="42.99958" lon="1.16526">
        <ele>467</ele>
        <time>2025-12-28T09:45:52.000Z</time>
      </trkpt>
      <trkpt lat="42.99958" lon="1.16524">
        <ele>466.5</ele>
        <time>2025-12-28T09:45:53.000Z</time>
      </trkpt>
      <trkpt lat="42.99958" lon="1.16522">
        <ele>466</ele>
        <time>2025-12-28T09:45:54.000Z</time>
      </trkpt>
      <trkpt lat="42.99959" lon="1.16521">
        <ele>467</ele>
        <time>2025-12-28T09:45:55.000Z</time>
      </trkpt>
      <trkpt lat="42.9996" lon="1.16519">
        <ele>466.8</ele>
        <time>2025-12-28T09:45:56.000Z</time>
      </trkpt>
      <trkpt lat="42.99961" lon="1.16516">
        <ele>465.7</ele>
        <time>2025-12-28T09:45:57.000Z</time>
      </trkpt>
      <trkpt lat="42.99961" lon="1.16512">
        <ele>466.5</ele>
        <time>2025-12-28T09:45:58.000Z</time>
      </trkpt>
      <trkpt lat="42.99961" lon="1.16507">
        <ele>467.6</ele>
        <time>2025-12-28T09:45:59.000Z</time>
      </trkpt>
      <trkpt lat="42.99961" lon="1.16503">
        <ele>468.3</ele>
        <time>2025-12-28T09:46:00.000Z</time>
      </trkpt>
      <trkpt lat="42.99961" lon="1.165">
        <ele>468.7</ele>
        <time>2025-12-28T09:46:01.000Z</time>
      </trkpt>
      <trkpt lat="42.99961" lon="1.16499">
        <ele>468.7</ele>
        <time>2025-12-28T09:46:02.000Z</time>
      </trkpt>
      <trkpt lat="42.99961" lon="1.16491">
        <ele>470</ele>
        <time>2025-12-28T09:47:36.000Z</time>
      </trkpt>
      <trkpt lat="42.99961" lon="1.16488">
        <ele>470.9</ele>
        <time>2025-12-28T09:47:37.000Z</time>
      </trkpt>
      <trkpt lat="42.99961" lon="1.16485">
        <ele>471</ele>
        <time>2025-12-28T09:47:38.000Z</time>
      </trkpt>
      <trkpt lat="42.99961" lon="1.16482">
        <ele>470.4</ele>
        <time>2025-12-28T09:47:39.000Z</time>
      </trkpt>
      <trkpt lat="42.9996" lon="1.16477">
        <ele>470.3</ele>
        <time>2025-12-28T09:47:40.000Z</time>
      </trkpt>
      <trkpt lat="42.99959" lon="1.16472">
        <ele>470.1</ele>
        <time>2025-12-28T09:47:41.000Z</time>
      </trkpt>
      <trkpt lat="42.99958" lon="1.16467">
        <ele>470.5</ele>
        <time>2025-12-28T09:47:42.000Z</time>
      </trkpt>
      <trkpt lat="42.99957" lon="1.16462">
        <ele>470.2</ele>
        <time>2025-12-28T09:47:43.000Z</time>
      </trkpt>
      <trkpt lat="42.99957" lon="1.16457">
        <ele>470.7</ele>
        <time>2025-12-28T09:47:44.000Z</time>
      </trkpt>
      <trkpt lat="42.99958" lon="1.16451">
        <ele>471.2</ele>
        <time>2025-12-28T09:47:45.000Z</time>
      </trkpt>
      <trkpt lat="42.99958" lon="1.16446">
        <ele>471.2</ele>
        <time>2025-12-28T09:47:46.000Z</time>
      </trkpt>
      <trkpt lat="42.99958" lon="1.16441">
        <ele>470.7</ele>
        <time>2025-12-28T09:47:47.000Z</time>
      </trkpt>
      <trkpt lat="42.99958" lon="1.16436">
        <ele>471.3</ele>
        <time>2025-12-28T09:47:48.000Z</time>
      </trkpt>
      <trkpt lat="42.99958" lon="1.16432">
        <ele>471.4</ele>
        <time>2025-12-28T09:47:49.000Z</time>
      </trkpt>
      <trkpt lat="42.99958" lon="1.16429">
        <ele>473.6</ele>
        <time>2025-12-28T09:47:50.000Z</time>
      </trkpt>
      <trkpt lat="42.99958" lon="1.16424">
        <ele>472.7</ele>
        <time>2025-12-28T09:47:51.000Z</time>
      </trkpt>
      <trkpt lat="42.99958" lon="1.16419">
        <ele>472.6</ele>
        <time>2025-12-28T09:47:52.000Z</time>
      </trkpt>
      <trkpt lat="42.99958" lon="1.16414">
        <ele>471.4</ele>
        <time>2025-12-28T09:47:53.000Z</time>
      </trkpt>
      <trkpt lat="42.99958" lon="1.16409">
        <ele>471.8</ele>
        <time>2025-12-28T09:47:54.000Z</time>
      </trkpt>
      <trkpt lat="42.99958" lon="1.16403">
        <ele>472.7</ele>
        <time>2025-12-28T09:47:55.000Z</time>
      </trkpt>
      <trkpt lat="42.99958" lon="1.16396">
        <ele>472.6</ele>
        <time>2025-12-28T09:47:56.000Z</time>
      </trkpt>
      <trkpt lat="42.99958" lon="1.1639">
        <ele>473.9</ele>
        <time>2025-12-28T09:47:57.000Z</time>
      </trkpt>
      <trkpt lat="42.99958" lon="1.16386">
        <ele>474.7</ele>
        <time>2025-12-28T09:47:58.000Z</time>
      </trkpt>
      <trkpt lat="42.99958" lon="1.16382">
        <ele>475.7</ele>
        <time>2025-12-28T09:47:59.000Z</time>
      </trkpt>
      <trkpt lat="42.99959" lon="1.16376">
        <ele>475.6</ele>
        <time>2025-12-28T09:48:00.000Z</time>
      </trkpt>
      <trkpt lat="42.99962" lon="1.1637">
        <ele>475.9</ele>
        <time>2025-12-28T09:48:01.000Z</time>
      </trkpt>
      <trkpt lat="42.99965" lon="1.16365">
        <ele>475.6</ele>
        <time>2025-12-28T09:48:02.000Z</time>
      </trkpt>
      <trkpt lat="42.99969" lon="1.16362">
        <ele>476</ele>
        <time>2025-12-28T09:48:03.000Z</time>
      </trkpt>
      <trkpt lat="42.99973" lon="1.16361">
        <ele>474.4</ele>
        <time>2025-12-28T09:48:04.000Z</time>
      </trkpt>
      <trkpt lat="42.99977" lon="1.16363">
        <ele>475.2</ele>
        <time>2025-12-28T09:48:05.000Z</time>
      </trkpt>
      <trkpt lat="42.99982" lon="1.16367">
        <ele>475.1</ele>
        <time>2025-12-28T09:48:06.000Z</time>
      </trkpt>
      <trkpt lat="42.99986" lon="1.16368">
        <ele>476.2</ele>
        <time>2025-12-28T09:48:07.000Z</time>
      </trkpt>
      <trkpt lat="42.9999" lon="1.16367">
        <ele>475.9</ele>
        <time>2025-12-28T09:48:08.000Z</time>
      </trkpt>
      <trkpt lat="42.99993" lon="1.16367">
        <ele>476.6</ele>
        <time>2025-12-28T09:48:09.000Z</time>
      </trkpt>
      <trkpt lat="42.99997" lon="1.16368">
        <ele>476.9</ele>
        <time>2025-12-28T09:48:10.000Z</time>
      </trkpt>
      <trkpt lat="43" lon="1.16367">
        <ele>477</ele>
        <time>2025-12-28T09:48:11.000Z</time>
      </trkpt>
      <trkpt lat="43.00004" lon="1.16367">
        <ele>477</ele>
        <time>2025-12-28T09:48:12.000Z</time>
      </trkpt>
      <trkpt lat="43.00008" lon="1.16367">
        <ele>477.3</ele>
        <time>2025-12-28T09:48:13.000Z</time>
      </trkpt>
      <trkpt lat="43.00011" lon="1.16367">
        <ele>477.5</ele>
        <time>2025-12-28T09:48:14.000Z</time>
      </trkpt>
      <trkpt lat="43.00015" lon="1.16367">
        <ele>477.8</ele>
        <time>2025-12-28T09:48:15.000Z</time>
      </trkpt>
      <trkpt lat="43.00019" lon="1.16367">
        <ele>478.3</ele>
        <time>2025-12-28T09:48:16.000Z</time>
      </trkpt>
      <trkpt lat="43.00023" lon="1.16367">
        <ele>478.4</ele>
        <time>2025-12-28T09:48:17.000Z</time>
      </trkpt>
      <trkpt lat="43.00027" lon="1.16367">
        <ele>478.8</ele>
        <time>2025-12-28T09:48:18.000Z</time>
      </trkpt>
      <trkpt lat="43.00031" lon="1.16368">
        <ele>479.1</ele>
        <time>2025-12-28T09:48:19.000Z</time>
      </trkpt>
      <trkpt lat="43.00035" lon="1.16368">
        <ele>479.5</ele>
        <time>2025-12-28T09:48:20.000Z</time>
      </trkpt>
      <trkpt lat="43.00039" lon="1.16368">
        <ele>479.8</ele>
        <time>2025-12-28T09:48:21.000Z</time>
      </trkpt>
      <trkpt lat="43.00043" lon="1.16369">
        <ele>480.3</ele>
        <time>2025-12-28T09:48:22.000Z</time>
      </trkpt>
      <trkpt lat="43.00047" lon="1.16369">
        <ele>480.3</ele>
        <time>2025-12-28T09:48:23.000Z</time>
      </trkpt>
      <trkpt lat="43.00051" lon="1.16369">
        <ele>480.5</ele>
        <time>2025-12-28T09:48:24.000Z</time>
      </trkpt>
      <trkpt lat="43.00056" lon="1.16369">
        <ele>480.5</ele>
        <time>2025-12-28T09:48:25.000Z</time>
      </trkpt>
      <trkpt lat="43.0006" lon="1.16369">
        <ele>480.2</ele>
        <time>2025-12-28T09:48:26.000Z</time>
      </trkpt>
      <trkpt lat="43.00064" lon="1.16369">
        <ele>479.7</ele>
        <time>2025-12-28T09:48:27.000Z</time>
      </trkpt>
      <trkpt lat="43.00069" lon="1.16368">
        <ele>479.8</ele>
        <time>2025-12-28T09:48:28.000Z</time>
      </trkpt>
      <trkpt lat="43.00074" lon="1.16367">
        <ele>479.6</ele>
        <time>2025-12-28T09:48:29.000Z</time>
      </trkpt>
      <trkpt lat="43.00078" lon="1.16368">
        <ele>479.1</ele>
        <time>2025-12-28T09:48:30.000Z</time>
      </trkpt>
      <trkpt lat="43.00082" lon="1.16367">
        <ele>479.2</ele>
        <time>2025-12-28T09:48:31.000Z</time>
      </trkpt>
      <trkpt lat="43.00087" lon="1.16365">
        <ele>479.5</ele>
        <time>2025-12-28T09:48:32.000Z</time>
      </trkpt>
      <trkpt lat="43.00091" lon="1.16364">
        <ele>479.9</ele>
        <time>2025-12-28T09:48:33.000Z</time>
      </trkpt>
      <trkpt lat="43.00095" lon="1.16362">
        <ele>479.1</ele>
        <time>2025-12-28T09:48:34.000Z</time>
      </trkpt>
      <trkpt lat="43.00099" lon="1.16361">
        <ele>479.2</ele>
        <time>2025-12-28T09:48:35.000Z</time>
      </trkpt>
      <trkpt lat="43.00104" lon="1.1636">
        <ele>479.5</ele>
        <time>2025-12-28T09:48:36.000Z</time>
      </trkpt>
      <trkpt lat="43.00108" lon="1.16359">
        <ele>480.5</ele>
        <time>2025-12-28T09:48:37.000Z</time>
      </trkpt>
      <trkpt lat="43.00112" lon="1.16358">
        <ele>481.2</ele>
        <time>2025-12-28T09:48:38.000Z</time>
      </trkpt>
      <trkpt lat="43.00116" lon="1.16358">
        <ele>481.1</ele>
        <time>2025-12-28T09:48:39.000Z</time>
      </trkpt>
      <trkpt lat="43.0012" lon="1.16358">
        <ele>482.4</ele>
        <time>2025-12-28T09:48:40.000Z</time>
      </trkpt>
      <trkpt lat="43.00125" lon="1.16359">
        <ele>482.5</ele>
        <time>2025-12-28T09:48:41.000Z</time>
      </trkpt>
      <trkpt lat="43.0013" lon="1.16362">
        <ele>483.2</ele>
        <time>2025-12-28T09:48:42.000Z</time>
      </trkpt>
      <trkpt lat="43.00135" lon="1.16362">
        <ele>484.4</ele>
        <time>2025-12-28T09:48:43.000Z</time>
      </trkpt>
      <trkpt lat="43.00141" lon="1.16363">
        <ele>484.9</ele>
        <time>2025-12-28T09:48:44.000Z</time>
      </trkpt>
      <trkpt lat="43.00146" lon="1.16364">
        <ele>484.6</ele>
        <time>2025-12-28T09:48:45.000Z</time>
      </trkpt>
      <trkpt lat="43.00151" lon="1.16365">
        <ele>485.7</ele>
        <time>2025-12-28T09:48:46.000Z</time>
      </trkpt>
      <trkpt lat="43.00155" lon="1.16366">
        <ele>486.1</ele>
        <time>2025-12-28T09:48:47.000Z</time>
      </trkpt>
      <trkpt lat="43.00158" lon="1.16366">
        <ele>485.9</ele>
        <time>2025-12-28T09:48:48.000Z</time>
      </trkpt>
      <trkpt lat="43.00163" lon="1.16367">
        <ele>485.7</ele>
        <time>2025-12-28T09:48:49.000Z</time>
      </trkpt>
      <trkpt lat="43.00169" lon="1.16368">
        <ele>485.6</ele>
        <time>2025-12-28T09:48:50.000Z</time>
      </trkpt>
      <trkpt lat="43.00173" lon="1.1637">
        <ele>487.1</ele>
        <time>2025-12-28T09:48:51.000Z</time>
      </trkpt>
      <trkpt lat="43.00178" lon="1.16372">
        <ele>486.2</ele>
        <time>2025-12-28T09:48:52.000Z</time>
      </trkpt>
      <trkpt lat="43.00184" lon="1.16374">
        <ele>486</ele>
        <time>2025-12-28T09:48:53.000Z</time>
      </trkpt>
      <trkpt lat="43.00185" lon="1.16378">
        <ele>482.8</ele>
        <time>2025-12-28T09:48:54.000Z</time>
      </trkpt>
      <trkpt lat="43.00189" lon="1.16383">
        <ele>481</ele>
        <time>2025-12-28T09:48:55.000Z</time>
      </trkpt>
      <trkpt lat="43.00194" lon="1.1639">
        <ele>480</ele>
        <time>2025-12-28T09:48:56.000Z</time>
      </trkpt>
      <trkpt lat="43.00197" lon="1.16396">
        <ele>478.5</ele>
        <time>2025-12-28T09:48:57.000Z</time>
      </trkpt>
      <trkpt lat="43.00203" lon="1.16401">
        <ele>479.3</ele>
        <time>2025-12-28T09:48:58.000Z</time>
      </trkpt>
      <trkpt lat="43.00208" lon="1.16407">
        <ele>477.9</ele>
        <time>2025-12-28T09:48:59.000Z</time>
      </trkpt>
      <trkpt lat="43.00211" lon="1.16415">
        <ele>478.7</ele>
        <time>2025-12-28T09:49:00.000Z</time>
      </trkpt>
      <trkpt lat="43.00213" lon="1.16423">
        <ele>477</ele>
        <time>2025-12-28T09:49:01.000Z</time>
      </trkpt>
      <trkpt lat="43.00213" lon="1.16433">
        <ele>476.6</ele>
        <time>2025-12-28T09:49:02.000Z</time>
      </trkpt>
      <trkpt lat="43.00214" lon="1.16442">
        <ele>475.4</ele>
        <time>2025-12-28T09:49:03.000Z</time>
      </trkpt>
      <trkpt lat="43.00215" lon="1.16452">
        <ele>474.9</ele>
        <time>2025-12-28T09:49:04.000Z</time>
      </trkpt>
      <trkpt lat="43.00216" lon="1.16461">
        <ele>474.3</ele>
        <time>2025-12-28T09:49:05.000Z</time>
      </trkpt>
      <trkpt lat="43.00217" lon="1.16469">
        <ele>473.5</ele>
        <time>2025-12-28T09:49:06.000Z</time>
      </trkpt>
      <trkpt lat="43.00218" lon="1.16477">
        <ele>473.3</ele>
        <time>2025-12-28T09:49:07.000Z</time>
      </trkpt>
      <trkpt lat="43.00219" lon="1.16487">
        <ele>473.1</ele>
        <time>2025-12-28T09:49:08.000Z</time>
      </trkpt>
      <trkpt lat="43.00221" lon="1.16495">
        <ele>473.9</ele>
        <time>2025-12-28T09:49:09.000Z</time>
      </trkpt>
      <trkpt lat="43.00225" lon="1.16501">
        <ele>474.3</ele>
        <time>2025-12-28T09:49:10.000Z</time>
      </trkpt>
      <trkpt lat="43.00229" lon="1.16506">
        <ele>474.8</ele>
        <time>2025-12-28T09:49:11.000Z</time>
      </trkpt>
      <trkpt lat="43.00236" lon="1.16504">
        <ele>474.4</ele>
        <time>2025-12-28T09:49:12.000Z</time>
      </trkpt>
      <trkpt lat="43.00242" lon="1.16501">
        <ele>474.5</ele>
        <time>2025-12-28T09:49:13.000Z</time>
      </trkpt>
      <trkpt lat="43.00248" lon="1.16494">
        <ele>474.2</ele>
        <time>2025-12-28T09:49:14.000Z</time>
      </trkpt>
      <trkpt lat="43.00251" lon="1.16486">
        <ele>473.3</ele>
        <time>2025-12-28T09:49:15.000Z</time>
      </trkpt>
      <trkpt lat="43.00254" lon="1.16479">
        <ele>473.5</ele>
        <time>2025-12-28T09:49:16.000Z</time>
      </trkpt>
      <trkpt lat="43.00257" lon="1.16471">
        <ele>473.7</ele>
        <time>2025-12-28T09:49:17.000Z</time>
      </trkpt>
      <trkpt lat="43.0026" lon="1.16463">
        <ele>474</ele>
        <time>2025-12-28T09:49:18.000Z</time>
      </trkpt>
      <trkpt lat="43.00262" lon="1.16456">
        <ele>474</ele>
        <time>2025-12-28T09:49:19.000Z</time>
      </trkpt>
      <trkpt lat="43.00264" lon="1.16448">
        <ele>473.4</ele>
        <time>2025-12-28T09:49:20.000Z</time>
      </trkpt>
      <trkpt lat="43.00267" lon="1.16441">
        <ele>474.2</ele>
        <time>2025-12-28T09:49:21.000Z</time>
      </trkpt>
      <trkpt lat="43.0027" lon="1.16434">
        <ele>474</ele>
        <time>2025-12-28T09:49:22.000Z</time>
      </trkpt>
      <trkpt lat="43.00272" lon="1.16426">
        <ele>474</ele>
        <time>2025-12-28T09:49:23.000Z</time>
      </trkpt>
      <trkpt lat="43.00276" lon="1.1642">
        <ele>474.2</ele>
        <time>2025-12-28T09:49:24.000Z</time>
      </trkpt>
      <trkpt lat="43.00279" lon="1.16414">
        <ele>474.3</ele>
        <time>2025-12-28T09:49:25.000Z</time>
      </trkpt>
      <trkpt lat="43.00283" lon="1.16408">
        <ele>474.5</ele>
        <time>2025-12-28T09:49:26.000Z</time>
      </trkpt>
      <trkpt lat="43.00287" lon="1.16403">
        <ele>474.6</ele>
        <time>2025-12-28T09:49:27.000Z</time>
      </trkpt>
      <trkpt lat="43.00291" lon="1.16397">
        <ele>474.3</ele>
        <time>2025-12-28T09:49:28.000Z</time>
      </trkpt>
      <trkpt lat="43.00297" lon="1.16392">
        <ele>474.2</ele>
        <time>2025-12-28T09:49:29.000Z</time>
      </trkpt>
      <trkpt lat="43.00301" lon="1.16388">
        <ele>474.1</ele>
        <time>2025-12-28T09:49:30.000Z</time>
      </trkpt>
      <trkpt lat="43.00306" lon="1.16385">
        <ele>474.5</ele>
        <time>2025-12-28T09:49:31.000Z</time>
      </trkpt>
      <trkpt lat="43.00312" lon="1.16383">
        <ele>474.8</ele>
        <time>2025-12-28T09:49:32.000Z</time>
      </trkpt>
      <trkpt lat="43.00318" lon="1.16381">
        <ele>474.8</ele>
        <time>2025-12-28T09:49:33.000Z</time>
      </trkpt>
      <trkpt lat="43.00323" lon="1.16381">
        <ele>474.9</ele>
        <time>2025-12-28T09:49:34.000Z</time>
      </trkpt>
      <trkpt lat="43.00328" lon="1.16379">
        <ele>475.3</ele>
        <time>2025-12-28T09:49:35.000Z</time>
      </trkpt>
      <trkpt lat="43.00333" lon="1.16377">
        <ele>475.6</ele>
        <time>2025-12-28T09:49:36.000Z</time>
      </trkpt>
      <trkpt lat="43.00339" lon="1.16376">
        <ele>477.2</ele>
        <time>2025-12-28T09:49:37.000Z</time>
      </trkpt>
      <trkpt lat="43.00344" lon="1.16376">
        <ele>476.5</ele>
        <time>2025-12-28T09:49:38.000Z</time>
      </trkpt>
      <trkpt lat="43.00349" lon="1.16376">
        <ele>476.1</ele>
        <time>2025-12-28T09:49:39.000Z</time>
      </trkpt>
      <trkpt lat="43.00354" lon="1.16372">
        <ele>475.3</ele>
        <time>2025-12-28T09:49:40.000Z</time>
      </trkpt>
      <trkpt lat="43.00357" lon="1.16372">
        <ele>477.4</ele>
        <time>2025-12-28T09:49:41.000Z</time>
      </trkpt>
      <trkpt lat="43.00362" lon="1.16371">
        <ele>478.6</ele>
        <time>2025-12-28T09:49:42.000Z</time>
      </trkpt>
      <trkpt lat="43.00368" lon="1.16368">
        <ele>479.2</ele>
        <time>2025-12-28T09:49:43.000Z</time>
      </trkpt>
      <trkpt lat="43.00373" lon="1.16367">
        <ele>479.9</ele>
        <time>2025-12-28T09:49:44.000Z</time>
      </trkpt>
      <trkpt lat="43.00378" lon="1.16367">
        <ele>480.2</ele>
        <time>2025-12-28T09:49:45.000Z</time>
      </trkpt>
      <trkpt lat="43.00383" lon="1.16365">
        <ele>479.7</ele>
        <time>2025-12-28T09:49:46.000Z</time>
      </trkpt>
      <trkpt lat="43.00389" lon="1.16363">
        <ele>480</ele>
        <time>2025-12-28T09:49:47.000Z</time>
      </trkpt>
      <trkpt lat="43.00394" lon="1.16364">
        <ele>479</ele>
        <time>2025-12-28T09:49:48.000Z</time>
      </trkpt>
      <trkpt lat="43.00401" lon="1.16363">
        <ele>478.8</ele>
        <time>2025-12-28T09:49:49.000Z</time>
      </trkpt>
      <trkpt lat="43.00405" lon="1.1636">
        <ele>479.2</ele>
        <time>2025-12-28T09:49:50.000Z</time>
      </trkpt>
      <trkpt lat="43.00411" lon="1.16359">
        <ele>480.1</ele>
        <time>2025-12-28T09:49:51.000Z</time>
      </trkpt>
      <trkpt lat="43.00416" lon="1.16358">
        <ele>478.7</ele>
        <time>2025-12-28T09:49:52.000Z</time>
      </trkpt>
      <trkpt lat="43.00421" lon="1.16361">
        <ele>480.4</ele>
        <time>2025-12-28T09:49:53.000Z</time>
      </trkpt>
      <trkpt lat="43.00425" lon="1.16364">
        <ele>481.4</ele>
        <time>2025-12-28T09:49:54.000Z</time>
      </trkpt>
      <trkpt lat="43.00429" lon="1.16367">
        <ele>482.1</ele>
        <time>2025-12-28T09:49:55.000Z</time>
      </trkpt>
      <trkpt lat="43.00433" lon="1.16372">
        <ele>482.7</ele>
        <time>2025-12-28T09:49:56.000Z</time>
      </trkpt>
      <trkpt lat="43.00435" lon="1.16377">
        <ele>484</ele>
        <time>2025-12-28T09:49:57.000Z</time>
      </trkpt>
      <trkpt lat="43.00438" lon="1.16382">
        <ele>486.9</ele>
        <time>2025-12-28T09:49:58.000Z</time>
      </trkpt>
      <trkpt lat="43.00441" lon="1.16386">
        <ele>488.1</ele>
        <time>2025-12-28T09:49:59.000Z</time>
      </trkpt>
      <trkpt lat="43.00444" lon="1.16391">
        <ele>488.3</ele>
        <time>2025-12-28T09:50:00.000Z</time>
      </trkpt>
      <trkpt lat="43.00447" lon="1.16393">
        <ele>490.2</ele>
        <time>2025-12-28T09:50:01.000Z</time>
      </trkpt>
      <trkpt lat="43.0045" lon="1.16396">
        <ele>490.5</ele>
        <time>2025-12-28T09:50:02.000Z</time>
      </trkpt>
      <trkpt lat="43.00455" lon="1.16399">
        <ele>490.3</ele>
        <time>2025-12-28T09:50:03.000Z</time>
      </trkpt>
      <trkpt lat="43.0046" lon="1.16403">
        <ele>491</ele>
        <time>2025-12-28T09:50:04.000Z</time>
      </trkpt>
      <trkpt lat="43.00464" lon="1.16407">
        <ele>491.9</ele>
        <time>2025-12-28T09:50:05.000Z</time>
      </trkpt>
      <trkpt lat="43.00469" lon="1.16412">
        <ele>491.7</ele>
        <time>2025-12-28T09:50:06.000Z</time>
      </trkpt>
      <trkpt lat="43.00473" lon="1.16417">
        <ele>491.7</ele>
        <time>2025-12-28T09:50:07.000Z</time>
      </trkpt>
      <trkpt lat="43.00479" lon="1.16418">
        <ele>491.7</ele>
        <time>2025-12-28T09:50:08.000Z</time>
      </trkpt>
      <trkpt lat="43.00484" lon="1.1642">
        <ele>491.1</ele>
        <time>2025-12-28T09:50:09.000Z</time>
      </trkpt>
      <trkpt lat="43.00489" lon="1.16423">
        <ele>491.4</ele>
        <time>2025-12-28T09:50:10.000Z</time>
      </trkpt>
      <trkpt lat="43.00494" lon="1.16425">
        <ele>492.5</ele>
        <time>2025-12-28T09:50:11.000Z</time>
      </trkpt>
      <trkpt lat="43.005" lon="1.16429">
        <ele>492.5</ele>
        <time>2025-12-28T09:50:12.000Z</time>
      </trkpt>
      <trkpt lat="43.00505" lon="1.16429">
        <ele>493.4</ele>
        <time>2025-12-28T09:50:13.000Z</time>
      </trkpt>
      <trkpt lat="43.00509" lon="1.16428">
        <ele>492.7</ele>
        <time>2025-12-28T09:50:14.000Z</time>
      </trkpt>
      <trkpt lat="43.00515" lon="1.16425">
        <ele>492.1</ele>
        <time>2025-12-28T09:50:15.000Z</time>
      </trkpt>
      <trkpt lat="43.0052" lon="1.16422">
        <ele>490</ele>
        <time>2025-12-28T09:50:16.000Z</time>
      </trkpt>
      <trkpt lat="43.00524" lon="1.16417">
        <ele>488.9</ele>
        <time>2025-12-28T09:50:17.000Z</time>
      </trkpt>
      <trkpt lat="43.00527" lon="1.16413">
        <ele>489.2</ele>
        <time>2025-12-28T09:50:18.000Z</time>
      </trkpt>
      <trkpt lat="43.00531" lon="1.16408">
        <ele>489.2</ele>
        <time>2025-12-28T09:50:19.000Z</time>
      </trkpt>
      <trkpt lat="43.00536" lon="1.16403">
        <ele>489.2</ele>
        <time>2025-12-28T09:50:20.000Z</time>
      </trkpt>
      <trkpt lat="43.0054" lon="1.16397">
        <ele>487.8</ele>
        <time>2025-12-28T09:50:21.000Z</time>
      </trkpt>
      <trkpt lat="43.00544" lon="1.16391">
        <ele>486.6</ele>
        <time>2025-12-28T09:50:22.000Z</time>
      </trkpt>
      <trkpt lat="43.00549" lon="1.16387">
        <ele>486.8</ele>
        <time>2025-12-28T09:50:23.000Z</time>
      </trkpt>
      <trkpt lat="43.00553" lon="1.16382">
        <ele>487</ele>
        <time>2025-12-28T09:50:24.000Z</time>
      </trkpt>
      <trkpt lat="43.00557" lon="1.16378">
        <ele>487.5</ele>
        <time>2025-12-28T09:50:25.000Z</time>
      </trkpt>
      <trkpt lat="43.00562" lon="1.16372">
        <ele>488.4</ele>
        <time>2025-12-28T09:50:26.000Z</time>
      </trkpt>
      <trkpt lat="43.00566" lon="1.16367">
        <ele>488.4</ele>
        <time>2025-12-28T09:50:27.000Z</time>
      </trkpt>
      <trkpt lat="43.0057" lon="1.16361">
        <ele>488.5</ele>
        <time>2025-12-28T09:50:28.000Z</time>
      </trkpt>
      <trkpt lat="43.00576" lon="1.16357">
        <ele>490.2</ele>
        <time>2025-12-28T09:50:29.000Z</time>
      </trkpt>
      <trkpt lat="43.00581" lon="1.16353">
        <ele>490</ele>
        <time>2025-12-28T09:50:30.000Z</time>
      </trkpt>
      <trkpt lat="43.00586" lon="1.16347">
        <ele>488.8</ele>
        <time>2025-12-28T09:50:31.000Z</time>
      </trkpt>
      <trkpt lat="43.00589" lon="1.16343">
        <ele>488.9</ele>
        <time>2025-12-28T09:50:32.000Z</time>
      </trkpt>
      <trkpt lat="43.00593" lon="1.16339">
        <ele>487.8</ele>
        <time>2025-12-28T09:50:33.000Z</time>
      </trkpt>
      <trkpt lat="43.00596" lon="1.16336">
        <ele>488</ele>
        <time>2025-12-28T09:50:34.000Z</time>
      </trkpt>
      <trkpt lat="43.00601" lon="1.1633">
        <ele>489.3</ele>
        <time>2025-12-28T09:50:35.000Z</time>
      </trkpt>
      <trkpt lat="43.00605" lon="1.16327">
        <ele>490</ele>
        <time>2025-12-28T09:50:36.000Z</time>
      </trkpt>
      <trkpt lat="43.00608" lon="1.16323">
        <ele>489.7</ele>
        <time>2025-12-28T09:50:37.000Z</time>
      </trkpt>
      <trkpt lat="43.00613" lon="1.16317">
        <ele>490</ele>
        <time>2025-12-28T09:50:38.000Z</time>
      </trkpt>
      <trkpt lat="43.00617" lon="1.16313">
        <ele>491.5</ele>
        <time>2025-12-28T09:50:39.000Z</time>
      </trkpt>
      <trkpt lat="43.00621" lon="1.16308">
        <ele>492.3</ele>
        <time>2025-12-28T09:50:40.000Z</time>
      </trkpt>
      <trkpt lat="43.00624" lon="1.16302">
        <ele>491.8</ele>
        <time>2025-12-28T09:50:41.000Z</time>
      </trkpt>
      <trkpt lat="43.0063" lon="1.16298">
        <ele>491.8</ele>
        <time>2025-12-28T09:50:42.000Z</time>
      </trkpt>
      <trkpt lat="43.00634" lon="1.16295">
        <ele>492</ele>
        <time>2025-12-28T09:50:43.000Z</time>
      </trkpt>
      <trkpt lat="43.00637" lon="1.1629">
        <ele>491.9</ele>
        <time>2025-12-28T09:50:44.000Z</time>
      </trkpt>
      <trkpt lat="43.0064" lon="1.16285">
        <ele>492.5</ele>
        <time>2025-12-28T09:50:45.000Z</time>
      </trkpt>
      <trkpt lat="43.00644" lon="1.16277">
        <ele>494.1</ele>
        <time>2025-12-28T09:50:46.000Z</time>
      </trkpt>
      <trkpt lat="43.00647" lon="1.16271">
        <ele>494.6</ele>
        <time>2025-12-28T09:50:47.000Z</time>
      </trkpt>
      <trkpt lat="43.0065" lon="1.16266">
        <ele>494.7</ele>
        <time>2025-12-28T09:50:48.000Z</time>
      </trkpt>
      <trkpt lat="43.00652" lon="1.16259">
        <ele>494.5</ele>
        <time>2025-12-28T09:50:49.000Z</time>
      </trkpt>
      <trkpt lat="43.00655" lon="1.16254">
        <ele>495.9</ele>
        <time>2025-12-28T09:50:50.000Z</time>
      </trkpt>
      <trkpt lat="43.00658" lon="1.16248">
        <ele>496.4</ele>
        <time>2025-12-28T09:50:51.000Z</time>
      </trkpt>
      <trkpt lat="43.00661" lon="1.16243">
        <ele>496.3</ele>
        <time>2025-12-28T09:50:52.000Z</time>
      </trkpt>
      <trkpt lat="43.00665" lon="1.16237">
        <ele>496.1</ele>
        <time>2025-12-28T09:50:53.000Z</time>
      </trkpt>
      <trkpt lat="43.00669" lon="1.16231">
        <ele>496.3</ele>
        <time>2025-12-28T09:50:54.000Z</time>
      </trkpt>
      <trkpt lat="43.00673" lon="1.16225">
        <ele>496.3</ele>
        <time>2025-12-28T09:50:55.000Z</time>
      </trkpt>
      <trkpt lat="43.00677" lon="1.16219">
        <ele>496</ele>
        <time>2025-12-28T09:50:56.000Z</time>
      </trkpt>
      <trkpt lat="43.0068" lon="1.16211">
        <ele>496.3</ele>
        <time>2025-12-28T09:50:57.000Z</time>
      </trkpt>
      <trkpt lat="43.00682" lon="1.16205">
        <ele>496.9</ele>
        <time>2025-12-28T09:50:58.000Z</time>
      </trkpt>
      <trkpt lat="43.00686" lon="1.16199">
        <ele>496.9</ele>
        <time>2025-12-28T09:50:59.000Z</time>
      </trkpt>
      <trkpt lat="43.00688" lon="1.16192">
        <ele>497.5</ele>
        <time>2025-12-28T09:51:00.000Z</time>
      </trkpt>
      <trkpt lat="43.00691" lon="1.16188">
        <ele>497.8</ele>
        <time>2025-12-28T09:51:01.000Z</time>
      </trkpt>
      <trkpt lat="43.00694" lon="1.16183">
        <ele>498.4</ele>
        <time>2025-12-28T09:51:02.000Z</time>
      </trkpt>
      <trkpt lat="43.00696" lon="1.16178">
        <ele>498</ele>
        <time>2025-12-28T09:51:03.000Z</time>
      </trkpt>
      <trkpt lat="43.00698" lon="1.16173">
        <ele>498.3</ele>
        <time>2025-12-28T09:51:04.000Z</time>
      </trkpt>
      <trkpt lat="43.007" lon="1.16166">
        <ele>498.2</ele>
        <time>2025-12-28T09:51:05.000Z</time>
      </trkpt>
      <trkpt lat="43.00701" lon="1.1616">
        <ele>500.4</ele>
        <time>2025-12-28T09:51:06.000Z</time>
      </trkpt>
      <trkpt lat="43.00703" lon="1.16153">
        <ele>500.6</ele>
        <time>2025-12-28T09:51:07.000Z</time>
      </trkpt>
      <trkpt lat="43.00704" lon="1.16146">
        <ele>500.1</ele>
        <time>2025-12-28T09:51:08.000Z</time>
      </trkpt>
      <trkpt lat="43.00705" lon="1.1614">
        <ele>500.8</ele>
        <time>2025-12-28T09:51:09.000Z</time>
      </trkpt>
      <trkpt lat="43.00706" lon="1.16132">
        <ele>501.2</ele>
        <time>2025-12-28T09:51:10.000Z</time>
      </trkpt>
      <trkpt lat="43.00706" lon="1.16125">
        <ele>502.2</ele>
        <time>2025-12-28T09:51:11.000Z</time>
      </trkpt>
      <trkpt lat="43.00706" lon="1.16117">
        <ele>501.5</ele>
        <time>2025-12-28T09:51:12.000Z</time>
      </trkpt>
      <trkpt lat="43.00706" lon="1.16109">
        <ele>502.3</ele>
        <time>2025-12-28T09:51:13.000Z</time>
      </trkpt>
      <trkpt lat="43.00706" lon="1.16102">
        <ele>503</ele>
        <time>2025-12-28T09:51:14.000Z</time>
      </trkpt>
      <trkpt lat="43.00706" lon="1.16094">
        <ele>503.1</ele>
        <time>2025-12-28T09:51:15.000Z</time>
      </trkpt>
      <trkpt lat="43.00707" lon="1.16086">
        <ele>502</ele>
        <time>2025-12-28T09:51:16.000Z</time>
      </trkpt>
      <trkpt lat="43.00708" lon="1.16078">
        <ele>502.1</ele>
        <time>2025-12-28T09:51:17.000Z</time>
      </trkpt>
      <trkpt lat="43.00709" lon="1.16069">
        <ele>500.6</ele>
        <time>2025-12-28T09:51:18.000Z</time>
      </trkpt>
      <trkpt lat="43.00711" lon="1.16062">
        <ele>500</ele>
        <time>2025-12-28T09:51:19.000Z</time>
      </trkpt>
      <trkpt lat="43.00713" lon="1.16053">
        <ele>499.3</ele>
        <time>2025-12-28T09:51:20.000Z</time>
      </trkpt>
      <trkpt lat="43.00717" lon="1.16046">
        <ele>499.9</ele>
        <time>2025-12-28T09:51:21.000Z</time>
      </trkpt>
      <trkpt lat="43.00719" lon="1.16041">
        <ele>500.3</ele>
        <time>2025-12-28T09:51:22.000Z</time>
      </trkpt>
      <trkpt lat="43.00721" lon="1.16037">
        <ele>500.4</ele>
        <time>2025-12-28T09:51:23.000Z</time>
      </trkpt>
      <trkpt lat="43.00723" lon="1.16034">
        <ele>500.2</ele>
        <time>2025-12-28T09:51:24.000Z</time>
      </trkpt>
      <trkpt lat="43.00723" lon="1.16033">
        <ele>499.7</ele>
        <time>2025-12-28T09:51:25.000Z</time>
      </trkpt>
      <trkpt lat="43.00727" lon="1.16023">
        <ele>500.1</ele>
        <time>2025-12-28T09:51:39.000Z</time>
      </trkpt>
      <trkpt lat="43.00729" lon="1.16017">
        <ele>499.9</ele>
        <time>2025-12-28T09:51:40.000Z</time>
      </trkpt>
      <trkpt lat="43.00732" lon="1.16011">
        <ele>499.9</ele>
        <time>2025-12-28T09:51:41.000Z</time>
      </trkpt>
      <trkpt lat="43.00734" lon="1.16006">
        <ele>500.1</ele>
        <time>2025-12-28T09:51:42.000Z</time>
      </trkpt>
      <trkpt lat="43.00736" lon="1.16001">
        <ele>500.2</ele>
        <time>2025-12-28T09:51:43.000Z</time>
      </trkpt>
      <trkpt lat="43.00738" lon="1.15995">
        <ele>499.7</ele>
        <time>2025-12-28T09:51:44.000Z</time>
      </trkpt>
      <trkpt lat="43.0074" lon="1.1599">
        <ele>499.8</ele>
        <time>2025-12-28T09:51:45.000Z</time>
      </trkpt>
      <trkpt lat="43.00741" lon="1.15986">
        <ele>499.8</ele>
        <time>2025-12-28T09:51:46.000Z</time>
      </trkpt>
      <trkpt lat="43.00743" lon="1.15984">
        <ele>500.1</ele>
        <time>2025-12-28T09:51:47.000Z</time>
      </trkpt>
      <trkpt lat="43.00744" lon="1.15983">
        <ele>500.7</ele>
        <time>2025-12-28T09:51:48.000Z</time>
      </trkpt>
      <trkpt lat="43.00744" lon="1.15982">
        <ele>501.3</ele>
        <time>2025-12-28T09:51:49.000Z</time>
      </trkpt>
      <trkpt lat="43.00743" lon="1.15982">
        <ele>501.3</ele>
        <time>2025-12-28T09:51:50.000Z</time>
      </trkpt>
      <trkpt lat="43.00743" lon="1.15977">
        <ele>500.6</ele>
        <time>2025-12-28T09:52:16.000Z</time>
      </trkpt>
      <trkpt lat="43.00743" lon="1.15974">
        <ele>500.8</ele>
        <time>2025-12-28T09:52:17.000Z</time>
      </trkpt>
      <trkpt lat="43.00744" lon="1.1597">
        <ele>501</ele>
        <time>2025-12-28T09:52:18.000Z</time>
      </trkpt>
      <trkpt lat="43.00745" lon="1.15967">
        <ele>501.3</ele>
        <time>2025-12-28T09:52:19.000Z</time>
      </trkpt>
      <trkpt lat="43.00745" lon="1.15964">
        <ele>500.8</ele>
        <time>2025-12-28T09:52:20.000Z</time>
      </trkpt>
      <trkpt lat="43.00746" lon="1.15961">
        <ele>500.3</ele>
        <time>2025-12-28T09:52:21.000Z</time>
      </trkpt>
      <trkpt lat="43.00747" lon="1.15956">
        <ele>499.8</ele>
        <time>2025-12-28T09:52:22.000Z</time>
      </trkpt>
      <trkpt lat="43.00744" lon="1.15951">
        <ele>498.7</ele>
        <time>2025-12-28T09:52:23.000Z</time>
      </trkpt>
      <trkpt lat="43.00742" lon="1.15946">
        <ele>497.9</ele>
        <time>2025-12-28T09:52:24.000Z</time>
      </trkpt>
      <trkpt lat="43.00738" lon="1.15939">
        <ele>496.8</ele>
        <time>2025-12-28T09:52:25.000Z</time>
      </trkpt>
      <trkpt lat="43.0073" lon="1.15931">
        <ele>496.2</ele>
        <time>2025-12-28T09:52:26.000Z</time>
      </trkpt>
      <trkpt lat="43.00724" lon="1.15923">
        <ele>494.7</ele>
        <time>2025-12-28T09:52:27.000Z</time>
      </trkpt>
      <trkpt lat="43.00717" lon="1.15916">
        <ele>494.2</ele>
        <time>2025-12-28T09:52:28.000Z</time>
      </trkpt>
      <trkpt lat="43.00709" lon="1.15909">
        <ele>493.7</ele>
        <time>2025-12-28T09:52:29.000Z</time>
      </trkpt>
      <trkpt lat="43.00701" lon="1.15903">
        <ele>493.9</ele>
        <time>2025-12-28T09:52:30.000Z</time>
      </trkpt>
      <trkpt lat="43.00695" lon="1.15899">
        <ele>493.1</ele>
        <time>2025-12-28T09:52:31.000Z</time>
      </trkpt>
      <trkpt lat="43.00691" lon="1.15893">
        <ele>493.5</ele>
        <time>2025-12-28T09:52:32.000Z</time>
      </trkpt>
      <trkpt lat="43.00686" lon="1.15894">
        <ele>492</ele>
        <time>2025-12-28T09:52:33.000Z</time>
      </trkpt>
      <trkpt lat="43.00683" lon="1.15892">
        <ele>493.6</ele>
        <time>2025-12-28T09:52:34.000Z</time>
      </trkpt>
      <trkpt lat="43.00682" lon="1.15892">
        <ele>495</ele>
        <time>2025-12-28T09:52:35.000Z</time>
      </trkpt>
      <trkpt lat="43.0068" lon="1.1589">
        <ele>494.5</ele>
        <time>2025-12-28T09:52:36.000Z</time>
      </trkpt>
      <trkpt lat="43.00677" lon="1.15888">
        <ele>494.7</ele>
        <time>2025-12-28T09:52:37.000Z</time>
      </trkpt>
      <trkpt lat="43.00673" lon="1.15885">
        <ele>495.5</ele>
        <time>2025-12-28T09:52:38.000Z</time>
      </trkpt>
      <trkpt lat="43.0067" lon="1.15882">
        <ele>495.8</ele>
        <time>2025-12-28T09:52:39.000Z</time>
      </trkpt>
      <trkpt lat="43.00667" lon="1.1588">
        <ele>495.9</ele>
        <time>2025-12-28T09:52:40.000Z</time>
      </trkpt>
      <trkpt lat="43.00664" lon="1.15877">
        <ele>497.8</ele>
        <time>2025-12-28T09:52:41.000Z</time>
      </trkpt>
      <trkpt lat="43.00663" lon="1.15874">
        <ele>498.5</ele>
        <time>2025-12-28T09:52:42.000Z</time>
      </trkpt>
      <trkpt lat="43.0066" lon="1.15871">
        <ele>498.7</ele>
        <time>2025-12-28T09:52:43.000Z</time>
      </trkpt>
      <trkpt lat="43.00658" lon="1.15868">
        <ele>500.5</ele>
        <time>2025-12-28T09:52:44.000Z</time>
      </trkpt>
      <trkpt lat="43.00657" lon="1.15866">
        <ele>502.1</ele>
        <time>2025-12-28T09:52:45.000Z</time>
      </trkpt>
      <trkpt lat="43.00655" lon="1.15864">
        <ele>502.8</ele>
        <time>2025-12-28T09:52:46.000Z</time>
      </trkpt>
      <trkpt lat="43.00654" lon="1.1586">
        <ele>504.3</ele>
        <time>2025-12-28T09:52:47.000Z</time>
      </trkpt>
      <trkpt lat="43.00652" lon="1.15856">
        <ele>503.7</ele>
        <time>2025-12-28T09:52:48.000Z</time>
      </trkpt>
      <trkpt lat="43.00649" lon="1.15851">
        <ele>503.4</ele>
        <time>2025-12-28T09:52:49.000Z</time>
      </trkpt>
      <trkpt lat="43.00646" lon="1.15847">
        <ele>503.1</ele>
        <time>2025-12-28T09:52:50.000Z</time>
      </trkpt>
      <trkpt lat="43.00644" lon="1.15844">
        <ele>502.7</ele>
        <time>2025-12-28T09:52:51.000Z</time>
      </trkpt>
      <trkpt lat="43.00642" lon="1.15841">
        <ele>501.3</ele>
        <time>2025-12-28T09:52:52.000Z</time>
      </trkpt>
      <trkpt lat="43.0064" lon="1.15838">
        <ele>502.2</ele>
        <time>2025-12-28T09:52:53.000Z</time>
      </trkpt>
      <trkpt lat="43.00639" lon="1.15835">
        <ele>502.6</ele>
        <time>2025-12-28T09:52:54.000Z</time>
      </trkpt>
      <trkpt lat="43.00637" lon="1.15832">
        <ele>503</ele>
        <time>2025-12-28T09:52:55.000Z</time>
      </trkpt>
      <trkpt lat="43.00635" lon="1.15828">
        <ele>503.2</ele>
        <time>2025-12-28T09:52:56.000Z</time>
      </trkpt>
      <trkpt lat="43.00632" lon="1.15825">
        <ele>503.5</ele>
        <time>2025-12-28T09:52:57.000Z</time>
      </trkpt>
      <trkpt lat="43.00629" lon="1.15821">
        <ele>503.7</ele>
        <time>2025-12-28T09:52:58.000Z</time>
      </trkpt>
      <trkpt lat="43.00627" lon="1.15817">
        <ele>505.3</ele>
        <time>2025-12-28T09:52:59.000Z</time>
      </trkpt>
      <trkpt lat="43.00624" lon="1.15813">
        <ele>506.2</ele>
        <time>2025-12-28T09:53:00.000Z</time>
      </trkpt>
      <trkpt lat="43.00622" lon="1.1581">
        <ele>506.8</ele>
        <time>2025-12-28T09:53:01.000Z</time>
      </trkpt>
      <trkpt lat="43.00619" lon="1.15807">
        <ele>507.4</ele>
        <time>2025-12-28T09:53:02.000Z</time>
      </trkpt>
      <trkpt lat="43.00617" lon="1.15804">
        <ele>508.1</ele>
        <time>2025-12-28T09:53:03.000Z</time>
      </trkpt>
      <trkpt lat="43.00615" lon="1.158">
        <ele>507.8</ele>
        <time>2025-12-28T09:53:04.000Z</time>
      </trkpt>
      <trkpt lat="43.00613" lon="1.15797">
        <ele>508.8</ele>
        <time>2025-12-28T09:53:05.000Z</time>
      </trkpt>
      <trkpt lat="43.00612" lon="1.15794">
        <ele>509.5</ele>
        <time>2025-12-28T09:53:06.000Z</time>
      </trkpt>
      <trkpt lat="43.00611" lon="1.1579">
        <ele>510.5</ele>
        <time>2025-12-28T09:53:07.000Z</time>
      </trkpt>
      <trkpt lat="43.00613" lon="1.15786">
        <ele>510.2</ele>
        <time>2025-12-28T09:53:08.000Z</time>
      </trkpt>
      <trkpt lat="43.00615" lon="1.15783">
        <ele>509.9</ele>
        <time>2025-12-28T09:53:09.000Z</time>
      </trkpt>
      <trkpt lat="43.00618" lon="1.1578">
        <ele>510</ele>
        <time>2025-12-28T09:53:10.000Z</time>
      </trkpt>
      <trkpt lat="43.00622" lon="1.15776">
        <ele>510.3</ele>
        <time>2025-12-28T09:53:11.000Z</time>
      </trkpt>
      <trkpt lat="43.00625" lon="1.15773">
        <ele>510.5</ele>
        <time>2025-12-28T09:53:12.000Z</time>
      </trkpt>
      <trkpt lat="43.00628" lon="1.15771">
        <ele>510.1</ele>
        <time>2025-12-28T09:53:13.000Z</time>
      </trkpt>
      <trkpt lat="43.0063" lon="1.1577">
        <ele>509.3</ele>
        <time>2025-12-28T09:53:14.000Z</time>
      </trkpt>
      <trkpt lat="43.0063" lon="1.15769">
        <ele>509.7</ele>
        <time>2025-12-28T09:53:15.000Z</time>
      </trkpt>
      <trkpt lat="43.0063" lon="1.15769">
        <ele>509.4</ele>
        <time>2025-12-28T09:53:16.000Z</time>
      </trkpt>
      <trkpt lat="43.00629" lon="1.1577">
        <ele>509.5</ele>
        <time>2025-12-28T09:53:17.000Z</time>
      </trkpt>
      <trkpt lat="43.00629" lon="1.15769">
        <ele>509.5</ele>
        <time>2025-12-28T09:53:18.000Z</time>
      </trkpt>
      <trkpt lat="43.0063" lon="1.15769">
        <ele>509.6</ele>
        <time>2025-12-28T09:53:35.000Z</time>
      </trkpt>
      <trkpt lat="43.00632" lon="1.15768">
        <ele>509.3</ele>
        <time>2025-12-28T09:53:36.000Z</time>
      </trkpt>
      <trkpt lat="43.00632" lon="1.15767">
        <ele>509.4</ele>
        <time>2025-12-28T09:53:37.000Z</time>
      </trkpt>
      <trkpt lat="43.00632" lon="1.15767">
        <ele>509.5</ele>
        <time>2025-12-28T09:53:38.000Z</time>
      </trkpt>
      <trkpt lat="43.00632" lon="1.15767">
        <ele>509.6</ele>
        <time>2025-12-28T09:53:39.000Z</time>
      </trkpt>
      <trkpt lat="43.00633" lon="1.15767">
        <ele>509.8</ele>
        <time>2025-12-28T09:53:40.000Z</time>
      </trkpt>
      <trkpt lat="43.00634" lon="1.15766">
        <ele>509.6</ele>
        <time>2025-12-28T09:53:41.000Z</time>
      </trkpt>
      <trkpt lat="43.00636" lon="1.15764">
        <ele>509.9</ele>
        <time>2025-12-28T09:53:42.000Z</time>
      </trkpt>
      <trkpt lat="43.00638" lon="1.15762">
        <ele>510</ele>
        <time>2025-12-28T09:53:43.000Z</time>
      </trkpt>
      <trkpt lat="43.0064" lon="1.15761">
        <ele>509.7</ele>
        <time>2025-12-28T09:53:44.000Z</time>
      </trkpt>
      <trkpt lat="43.00643" lon="1.15759">
        <ele>509.8</ele>
        <time>2025-12-28T09:53:45.000Z</time>
      </trkpt>
      <trkpt lat="43.00646" lon="1.15757">
        <ele>509.7</ele>
        <time>2025-12-28T09:53:46.000Z</time>
      </trkpt>
      <trkpt lat="43.00648" lon="1.15755">
        <ele>509.5</ele>
        <time>2025-12-28T09:53:47.000Z</time>
      </trkpt>
      <trkpt lat="43.00651" lon="1.15753">
        <ele>509.7</ele>
        <time>2025-12-28T09:53:48.000Z</time>
      </trkpt>
      <trkpt lat="43.00654" lon="1.1575">
        <ele>509.2</ele>
        <time>2025-12-28T09:53:49.000Z</time>
      </trkpt>
      <trkpt lat="43.00658" lon="1.15748">
        <ele>509.3</ele>
        <time>2025-12-28T09:53:50.000Z</time>
      </trkpt>
      <trkpt lat="43.00661" lon="1.15746">
        <ele>509.4</ele>
        <time>2025-12-28T09:53:51.000Z</time>
      </trkpt>
      <trkpt lat="43.00665" lon="1.15744">
        <ele>508</ele>
        <time>2025-12-28T09:53:52.000Z</time>
      </trkpt>
      <trkpt lat="43.00669" lon="1.15742">
        <ele>508.1</ele>
        <time>2025-12-28T09:53:53.000Z</time>
      </trkpt>
      <trkpt lat="43.00672" lon="1.15739">
        <ele>508.4</ele>
        <time>2025-12-28T09:53:54.000Z</time>
      </trkpt>
      <trkpt lat="43.00676" lon="1.15737">
        <ele>508</ele>
        <time>2025-12-28T09:53:55.000Z</time>
      </trkpt>
      <trkpt lat="43.0068" lon="1.15734">
        <ele>508.1</ele>
        <time>2025-12-28T09:53:56.000Z</time>
      </trkpt>
      <trkpt lat="43.00684" lon="1.15731">
        <ele>507.7</ele>
        <time>2025-12-28T09:53:57.000Z</time>
      </trkpt>
      <trkpt lat="43.00687" lon="1.15726">
        <ele>507.8</ele>
        <time>2025-12-28T09:53:58.000Z</time>
      </trkpt>
      <trkpt lat="43.00691" lon="1.15722">
        <ele>507.7</ele>
        <time>2025-12-28T09:53:59.000Z</time>
      </trkpt>
      <trkpt lat="43.00694" lon="1.15718">
        <ele>507.1</ele>
        <time>2025-12-28T09:54:00.000Z</time>
      </trkpt>
      <trkpt lat="43.00698" lon="1.15713">
        <ele>506.7</ele>
        <time>2025-12-28T09:54:01.000Z</time>
      </trkpt>
      <trkpt lat="43.00702" lon="1.15707">
        <ele>506.6</ele>
        <time>2025-12-28T09:54:02.000Z</time>
      </trkpt>
      <trkpt lat="43.00706" lon="1.15702">
        <ele>505.9</ele>
        <time>2025-12-28T09:54:03.000Z</time>
      </trkpt>
      <trkpt lat="43.0071" lon="1.15697">
        <ele>504.9</ele>
        <time>2025-12-28T09:54:04.000Z</time>
      </trkpt>
      <trkpt lat="43.00714" lon="1.15693">
        <ele>504.4</ele>
        <time>2025-12-28T09:54:05.000Z</time>
      </trkpt>
      <trkpt lat="43.00719" lon="1.15689">
        <ele>504.9</ele>
        <time>2025-12-28T09:54:06.000Z</time>
      </trkpt>
      <trkpt lat="43.00724" lon="1.15686">
        <ele>504.9</ele>
        <time>2025-12-28T09:54:07.000Z</time>
      </trkpt>
      <trkpt lat="43.00728" lon="1.15683">
        <ele>504.7</ele>
        <time>2025-12-28T09:54:08.000Z</time>
      </trkpt>
      <trkpt lat="43.00732" lon="1.1568">
        <ele>504.6</ele>
        <time>2025-12-28T09:54:09.000Z</time>
      </trkpt>
      <trkpt lat="43.00737" lon="1.15677">
        <ele>504.7</ele>
        <time>2025-12-28T09:54:10.000Z</time>
      </trkpt>
      <trkpt lat="43.00741" lon="1.15675">
        <ele>505</ele>
        <time>2025-12-28T09:54:11.000Z</time>
      </trkpt>
      <trkpt lat="43.00745" lon="1.15672">
        <ele>504.8</ele>
        <time>2025-12-28T09:54:12.000Z</time>
      </trkpt>
      <trkpt lat="43.00749" lon="1.15671">
        <ele>504.8</ele>
        <time>2025-12-28T09:54:13.000Z</time>
      </trkpt>
      <trkpt lat="43.00753" lon="1.15668">
        <ele>504.8</ele>
        <time>2025-12-28T09:54:14.000Z</time>
      </trkpt>
      <trkpt lat="43.00757" lon="1.15666">
        <ele>504.8</ele>
        <time>2025-12-28T09:54:15.000Z</time>
      </trkpt>
      <trkpt lat="43.0076" lon="1.15665">
        <ele>504.8</ele>
        <time>2025-12-28T09:54:16.000Z</time>
      </trkpt>
      <trkpt lat="43.00764" lon="1.15663">
        <ele>504.8</ele>
        <time>2025-12-28T09:54:17.000Z</time>
      </trkpt>
      <trkpt lat="43.00768" lon="1.15662">
        <ele>504.8</ele>
        <time>2025-12-28T09:54:18.000Z</time>
      </trkpt>
      <trkpt lat="43.00772" lon="1.1566">
        <ele>504.8</ele>
        <time>2025-12-28T09:54:19.000Z</time>
      </trkpt>
      <trkpt lat="43.00775" lon="1.15659">
        <ele>504.6</ele>
        <time>2025-12-28T09:54:20.000Z</time>
      </trkpt>
      <trkpt lat="43.00779" lon="1.15658">
        <ele>504.3</ele>
        <time>2025-12-28T09:54:21.000Z</time>
      </trkpt>
      <trkpt lat="43.00783" lon="1.15657">
        <ele>504.2</ele>
        <time>2025-12-28T09:54:22.000Z</time>
      </trkpt>
      <trkpt lat="43.00787" lon="1.15656">
        <ele>504.1</ele>
        <time>2025-12-28T09:54:23.000Z</time>
      </trkpt>
      <trkpt lat="43.00791" lon="1.15655">
        <ele>503.5</ele>
        <time>2025-12-28T09:54:24.000Z</time>
      </trkpt>
      <trkpt lat="43.00796" lon="1.15654">
        <ele>503.1</ele>
        <time>2025-12-28T09:54:25.000Z</time>
      </trkpt>
      <trkpt lat="43.00801" lon="1.15653">
        <ele>503</ele>
        <time>2025-12-28T09:54:26.000Z</time>
      </trkpt>
      <trkpt lat="43.00806" lon="1.15651">
        <ele>503</ele>
        <time>2025-12-28T09:54:27.000Z</time>
      </trkpt>
      <trkpt lat="43.00812" lon="1.1565">
        <ele>502.6</ele>
        <time>2025-12-28T09:54:28.000Z</time>
      </trkpt>
      <trkpt lat="43.00817" lon="1.15648">
        <ele>502.7</ele>
        <time>2025-12-28T09:54:29.000Z</time>
      </trkpt>
      <trkpt lat="43.00822" lon="1.15645">
        <ele>502.4</ele>
        <time>2025-12-28T09:54:30.000Z</time>
      </trkpt>
      <trkpt lat="43.00826" lon="1.15644">
        <ele>502.8</ele>
        <time>2025-12-28T09:54:31.000Z</time>
      </trkpt>
      <trkpt lat="43.00832" lon="1.15641">
        <ele>502.6</ele>
        <time>2025-12-28T09:54:32.000Z</time>
      </trkpt>
      <trkpt lat="43.00837" lon="1.15638">
        <ele>502.5</ele>
        <time>2025-12-28T09:54:33.000Z</time>
      </trkpt>
      <trkpt lat="43.00842" lon="1.15635">
        <ele>502.3</ele>
        <time>2025-12-28T09:54:34.000Z</time>
      </trkpt>
      <trkpt lat="43.00847" lon="1.15633">
        <ele>502</ele>
        <time>2025-12-28T09:54:35.000Z</time>
      </trkpt>
      <trkpt lat="43.00852" lon="1.15631">
        <ele>501.7</ele>
        <time>2025-12-28T09:54:36.000Z</time>
      </trkpt>
      <trkpt lat="43.00857" lon="1.15627">
        <ele>501.3</ele>
        <time>2025-12-28T09:54:37.000Z</time>
      </trkpt>
      <trkpt lat="43.00863" lon="1.15624">
        <ele>501.1</ele>
        <time>2025-12-28T09:54:38.000Z</time>
      </trkpt>
      <trkpt lat="43.00867" lon="1.15622">
        <ele>500.7</ele>
        <time>2025-12-28T09:54:39.000Z</time>
      </trkpt>
      <trkpt lat="43.00873" lon="1.1562">
        <ele>500.6</ele>
        <time>2025-12-28T09:54:40.000Z</time>
      </trkpt>
      <trkpt lat="43.00878" lon="1.15617">
        <ele>500.6</ele>
        <time>2025-12-28T09:54:41.000Z</time>
      </trkpt>
      <trkpt lat="43.00883" lon="1.15614">
        <ele>499.6</ele>
        <time>2025-12-28T09:54:42.000Z</time>
      </trkpt>
      <trkpt lat="43.00888" lon="1.15611">
        <ele>499.1</ele>
        <time>2025-12-28T09:54:43.000Z</time>
      </trkpt>
      <trkpt lat="43.00894" lon="1.15608">
        <ele>499</ele>
        <time>2025-12-28T09:54:44.000Z</time>
      </trkpt>
      <trkpt lat="43.00899" lon="1.15607">
        <ele>499.1</ele>
        <time>2025-12-28T09:54:45.000Z</time>
      </trkpt>
      <trkpt lat="43.00905" lon="1.15606">
        <ele>499.5</ele>
        <time>2025-12-28T09:54:46.000Z</time>
      </trkpt>
      <trkpt lat="43.00911" lon="1.15602">
        <ele>499.9</ele>
        <time>2025-12-28T09:54:47.000Z</time>
      </trkpt>
      <trkpt lat="43.00916" lon="1.15601">
        <ele>499.6</ele>
        <time>2025-12-28T09:54:48.000Z</time>
      </trkpt>
      <trkpt lat="43.00922" lon="1.15599">
        <ele>499.5</ele>
        <time>2025-12-28T09:54:49.000Z</time>
      </trkpt>
      <trkpt lat="43.00927" lon="1.15598">
        <ele>499.7</ele>
        <time>2025-12-28T09:54:50.000Z</time>
      </trkpt>
      <trkpt lat="43.00932" lon="1.15596">
        <ele>499.8</ele>
        <time>2025-12-28T09:54:51.000Z</time>
      </trkpt>
      <trkpt lat="43.00938" lon="1.15595">
        <ele>499.4</ele>
        <time>2025-12-28T09:54:52.000Z</time>
      </trkpt>
      <trkpt lat="43.00943" lon="1.15593">
        <ele>499</ele>
        <time>2025-12-28T09:54:53.000Z</time>
      </trkpt>
      <trkpt lat="43.00949" lon="1.15591">
        <ele>498.9</ele>
        <time>2025-12-28T09:54:54.000Z</time>
      </trkpt>
      <trkpt lat="43.00954" lon="1.15589">
        <ele>499.7</ele>
        <time>2025-12-28T09:54:55.000Z</time>
      </trkpt>
      <trkpt lat="43.00961" lon="1.15586">
        <ele>500.2</ele>
        <time>2025-12-28T09:54:56.000Z</time>
      </trkpt>
      <trkpt lat="43.00966" lon="1.15584">
        <ele>499.7</ele>
        <time>2025-12-28T09:54:57.000Z</time>
      </trkpt>
      <trkpt lat="43.00971" lon="1.15582">
        <ele>500.6</ele>
        <time>2025-12-28T09:54:58.000Z</time>
      </trkpt>
      <trkpt lat="43.00977" lon="1.1558">
        <ele>500.7</ele>
        <time>2025-12-28T09:54:59.000Z</time>
      </trkpt>
      <trkpt lat="43.00983" lon="1.15579">
        <ele>500.5</ele>
        <time>2025-12-28T09:55:00.000Z</time>
      </trkpt>
      <trkpt lat="43.00988" lon="1.15576">
        <ele>500.8</ele>
        <time>2025-12-28T09:55:01.000Z</time>
      </trkpt>
      <trkpt lat="43.00993" lon="1.15574">
        <ele>501.6</ele>
        <time>2025-12-28T09:55:02.000Z</time>
      </trkpt>
      <trkpt lat="43.00998" lon="1.15571">
        <ele>501.8</ele>
        <time>2025-12-28T09:55:03.000Z</time>
      </trkpt>
      <trkpt lat="43.01003" lon="1.15568">
        <ele>502.2</ele>
        <time>2025-12-28T09:55:04.000Z</time>
      </trkpt>
      <trkpt lat="43.01008" lon="1.15566">
        <ele>502.2</ele>
        <time>2025-12-28T09:55:05.000Z</time>
      </trkpt>
      <trkpt lat="43.01014" lon="1.15564">
        <ele>502.6</ele>
        <time>2025-12-28T09:55:06.000Z</time>
      </trkpt>
      <trkpt lat="43.01019" lon="1.15562">
        <ele>503.7</ele>
        <time>2025-12-28T09:55:07.000Z</time>
      </trkpt>
      <trkpt lat="43.01024" lon="1.15559">
        <ele>503.7</ele>
        <time>2025-12-28T09:55:08.000Z</time>
      </trkpt>
      <trkpt lat="43.01029" lon="1.15557">
        <ele>504.3</ele>
        <time>2025-12-28T09:55:09.000Z</time>
      </trkpt>
      <trkpt lat="43.01033" lon="1.15554">
        <ele>505.3</ele>
        <time>2025-12-28T09:55:10.000Z</time>
      </trkpt>
      <trkpt lat="43.01038" lon="1.15552">
        <ele>504.6</ele>
        <time>2025-12-28T09:55:11.000Z</time>
      </trkpt>
      <trkpt lat="43.01043" lon="1.1555">
        <ele>505.9</ele>
        <time>2025-12-28T09:55:12.000Z</time>
      </trkpt>
      <trkpt lat="43.01048" lon="1.15547">
        <ele>506.9</ele>
        <time>2025-12-28T09:55:13.000Z</time>
      </trkpt>
      <trkpt lat="43.01053" lon="1.15545">
        <ele>507</ele>
        <time>2025-12-28T09:55:14.000Z</time>
      </trkpt>
      <trkpt lat="43.01057" lon="1.15542">
        <ele>507.5</ele>
        <time>2025-12-28T09:55:15.000Z</time>
      </trkpt>
      <trkpt lat="43.01062" lon="1.1554">
        <ele>508</ele>
        <time>2025-12-28T09:55:16.000Z</time>
      </trkpt>
      <trkpt lat="43.01068" lon="1.15537">
        <ele>508.7</ele>
        <time>2025-12-28T09:55:17.000Z</time>
      </trkpt>
      <trkpt lat="43.01073" lon="1.15536">
        <ele>509.4</ele>
        <time>2025-12-28T09:55:18.000Z</time>
      </trkpt>
      <trkpt lat="43.01077" lon="1.15533">
        <ele>510.6</ele>
        <time>2025-12-28T09:55:19.000Z</time>
      </trkpt>
      <trkpt lat="43.01083" lon="1.15531">
        <ele>510.4</ele>
        <time>2025-12-28T09:55:20.000Z</time>
      </trkpt>
      <trkpt lat="43.01087" lon="1.15529">
        <ele>511.2</ele>
        <time>2025-12-28T09:55:21.000Z</time>
      </trkpt>
      <trkpt lat="43.01093" lon="1.15528">
        <ele>511.9</ele>
        <time>2025-12-28T09:55:22.000Z</time>
      </trkpt>
      <trkpt lat="43.01098" lon="1.15526">
        <ele>512.2</ele>
        <time>2025-12-28T09:55:23.000Z</time>
      </trkpt>
      <trkpt lat="43.01105" lon="1.15523">
        <ele>512.3</ele>
        <time>2025-12-28T09:55:24.000Z</time>
      </trkpt>
      <trkpt lat="43.01109" lon="1.15521">
        <ele>513.1</ele>
        <time>2025-12-28T09:55:25.000Z</time>
      </trkpt>
      <trkpt lat="43.01113" lon="1.15519">
        <ele>513.8</ele>
        <time>2025-12-28T09:55:26.000Z</time>
      </trkpt>
      <trkpt lat="43.01118" lon="1.15517">
        <ele>515.2</ele>
        <time>2025-12-28T09:55:27.000Z</time>
      </trkpt>
      <trkpt lat="43.01123" lon="1.15516">
        <ele>515.7</ele>
        <time>2025-12-28T09:55:28.000Z</time>
      </trkpt>
      <trkpt lat="43.01128" lon="1.15514">
        <ele>516</ele>
        <time>2025-12-28T09:55:29.000Z</time>
      </trkpt>
      <trkpt lat="43.01133" lon="1.15512">
        <ele>516.9</ele>
        <time>2025-12-28T09:55:30.000Z</time>
      </trkpt>
      <trkpt lat="43.01139" lon="1.15509">
        <ele>517.7</ele>
        <time>2025-12-28T09:55:31.000Z</time>
      </trkpt>
      <trkpt lat="43.01143" lon="1.15506">
        <ele>517.7</ele>
        <time>2025-12-28T09:55:32.000Z</time>
      </trkpt>
      <trkpt lat="43.01147" lon="1.15503">
        <ele>517.9</ele>
        <time>2025-12-28T09:55:33.000Z</time>
      </trkpt>
      <trkpt lat="43.01152" lon="1.155">
        <ele>518.2</ele>
        <time>2025-12-28T09:55:34.000Z</time>
      </trkpt>
      <trkpt lat="43.01157" lon="1.15497">
        <ele>518.6</ele>
        <time>2025-12-28T09:55:35.000Z</time>
      </trkpt>
      <trkpt lat="43.01161" lon="1.15495">
        <ele>519.7</ele>
        <time>2025-12-28T09:55:36.000Z</time>
      </trkpt>
      <trkpt lat="43.01167" lon="1.15491">
        <ele>519.3</ele>
        <time>2025-12-28T09:55:37.000Z</time>
      </trkpt>
      <trkpt lat="43.01172" lon="1.15488">
        <ele>518.6</ele>
        <time>2025-12-28T09:55:38.000Z</time>
      </trkpt>
      <trkpt lat="43.01178" lon="1.15485">
        <ele>519.4</ele>
        <time>2025-12-28T09:55:39.000Z</time>
      </trkpt>
      <trkpt lat="43.01183" lon="1.15483">
        <ele>519.8</ele>
        <time>2025-12-28T09:55:40.000Z</time>
      </trkpt>
      <trkpt lat="43.01188" lon="1.15479">
        <ele>520.1</ele>
        <time>2025-12-28T09:55:41.000Z</time>
      </trkpt>
      <trkpt lat="43.01192" lon="1.15477">
        <ele>520.7</ele>
        <time>2025-12-28T09:55:42.000Z</time>
      </trkpt>
      <trkpt lat="43.01196" lon="1.15474">
        <ele>521.2</ele>
        <time>2025-12-28T09:55:43.000Z</time>
      </trkpt>
      <trkpt lat="43.01199" lon="1.15469">
        <ele>521.1</ele>
        <time>2025-12-28T09:55:44.000Z</time>
      </trkpt>
      <trkpt lat="43.01198" lon="1.15465">
        <ele>522.3</ele>
        <time>2025-12-28T09:55:45.000Z</time>
      </trkpt>
      <trkpt lat="43.01198" lon="1.15463">
        <ele>523</ele>
        <time>2025-12-28T09:55:46.000Z</time>
      </trkpt>
      <trkpt lat="43.01193" lon="1.15464">
        <ele>522.4</ele>
        <time>2025-12-28T09:55:47.000Z</time>
      </trkpt>
      <trkpt lat="43.0119" lon="1.15464">
        <ele>522.9</ele>
        <time>2025-12-28T09:55:48.000Z</time>
      </trkpt>
      <trkpt lat="43.01186" lon="1.15466">
        <ele>522.9</ele>
        <time>2025-12-28T09:55:49.000Z</time>
      </trkpt>
      <trkpt lat="43.01182" lon="1.15467">
        <ele>523.4</ele>
        <time>2025-12-28T09:55:50.000Z</time>
      </trkpt>
      <trkpt lat="43.01178" lon="1.15466">
        <ele>523.5</ele>
        <time>2025-12-28T09:55:51.000Z</time>
      </trkpt>
      <trkpt lat="43.01173" lon="1.15467">
        <ele>524.3</ele>
        <time>2025-12-28T09:55:52.000Z</time>
      </trkpt>
      <trkpt lat="43.01168" lon="1.15466">
        <ele>525.3</ele>
        <time>2025-12-28T09:55:53.000Z</time>
      </trkpt>
      <trkpt lat="43.01164" lon="1.15466">
        <ele>526.1</ele>
        <time>2025-12-28T09:55:54.000Z</time>
      </trkpt>
      <trkpt lat="43.01159" lon="1.15465">
        <ele>526.3</ele>
        <time>2025-12-28T09:55:55.000Z</time>
      </trkpt>
      <trkpt lat="43.01155" lon="1.15463">
        <ele>527.3</ele>
        <time>2025-12-28T09:55:56.000Z</time>
      </trkpt>
      <trkpt lat="43.01151" lon="1.15462">
        <ele>527.7</ele>
        <time>2025-12-28T09:55:57.000Z</time>
      </trkpt>
      <trkpt lat="43.01148" lon="1.15459">
        <ele>528.3</ele>
        <time>2025-12-28T09:55:58.000Z</time>
      </trkpt>
      <trkpt lat="43.01145" lon="1.15457">
        <ele>529.2</ele>
        <time>2025-12-28T09:55:59.000Z</time>
      </trkpt>
      <trkpt lat="43.01142" lon="1.15454">
        <ele>529.6</ele>
        <time>2025-12-28T09:56:00.000Z</time>
      </trkpt>
      <trkpt lat="43.01139" lon="1.15452">
        <ele>530.7</ele>
        <time>2025-12-28T09:56:01.000Z</time>
      </trkpt>
      <trkpt lat="43.01136" lon="1.1545">
        <ele>531.9</ele>
        <time>2025-12-28T09:56:02.000Z</time>
      </trkpt>
      <trkpt lat="43.01134" lon="1.15447">
        <ele>532.2</ele>
        <time>2025-12-28T09:56:03.000Z</time>
      </trkpt>
      <trkpt lat="43.01131" lon="1.15444">
        <ele>532.4</ele>
        <time>2025-12-28T09:56:04.000Z</time>
      </trkpt>
      <trkpt lat="43.01129" lon="1.1544">
        <ele>532.6</ele>
        <time>2025-12-28T09:56:05.000Z</time>
      </trkpt>
      <trkpt lat="43.01126" lon="1.15437">
        <ele>532.1</ele>
        <time>2025-12-28T09:56:06.000Z</time>
      </trkpt>
      <trkpt lat="43.01124" lon="1.15433">
        <ele>531.2</ele>
        <time>2025-12-28T09:56:07.000Z</time>
      </trkpt>
      <trkpt lat="43.01121" lon="1.15429">
        <ele>531.1</ele>
        <time>2025-12-28T09:56:08.000Z</time>
      </trkpt>
      <trkpt lat="43.01119" lon="1.15425">
        <ele>531.4</ele>
        <time>2025-12-28T09:56:09.000Z</time>
      </trkpt>
      <trkpt lat="43.01116" lon="1.15421">
        <ele>531.1</ele>
        <time>2025-12-28T09:56:10.000Z</time>
      </trkpt>
      <trkpt lat="43.01113" lon="1.15417">
        <ele>531.4</ele>
        <time>2025-12-28T09:56:11.000Z</time>
      </trkpt>
      <trkpt lat="43.01111" lon="1.15413">
        <ele>531.2</ele>
        <time>2025-12-28T09:56:12.000Z</time>
      </trkpt>
      <trkpt lat="43.01108" lon="1.15409">
        <ele>531.9</ele>
        <time>2025-12-28T09:56:13.000Z</time>
      </trkpt>
      <trkpt lat="43.01106" lon="1.15404">
        <ele>531.7</ele>
        <time>2025-12-28T09:56:14.000Z</time>
      </trkpt>
      <trkpt lat="43.01103" lon="1.154">
        <ele>532</ele>
        <time>2025-12-28T09:56:15.000Z</time>
      </trkpt>
      <trkpt lat="43.011" lon="1.15396">
        <ele>531.8</ele>
        <time>2025-12-28T09:56:16.000Z</time>
      </trkpt>
      <trkpt lat="43.01098" lon="1.15391">
        <ele>531.6</ele>
        <time>2025-12-28T09:56:17.000Z</time>
      </trkpt>
      <trkpt lat="43.01095" lon="1.15387">
        <ele>531.8</ele>
        <time>2025-12-28T09:56:18.000Z</time>
      </trkpt>
      <trkpt lat="43.01092" lon="1.15382">
        <ele>531.7</ele>
        <time>2025-12-28T09:56:19.000Z</time>
      </trkpt>
      <trkpt lat="43.01089" lon="1.15377">
        <ele>531.3</ele>
        <time>2025-12-28T09:56:20.000Z</time>
      </trkpt>
      <trkpt lat="43.01087" lon="1.15371">
        <ele>531.3</ele>
        <time>2025-12-28T09:56:21.000Z</time>
      </trkpt>
      <trkpt lat="43.01084" lon="1.15365">
        <ele>531</ele>
        <time>2025-12-28T09:56:22.000Z</time>
      </trkpt>
      <trkpt lat="43.01082" lon="1.15359">
        <ele>530.9</ele>
        <time>2025-12-28T09:56:23.000Z</time>
      </trkpt>
      <trkpt lat="43.01079" lon="1.15353">
        <ele>530.5</ele>
        <time>2025-12-28T09:56:24.000Z</time>
      </trkpt>
      <trkpt lat="43.01077" lon="1.15347">
        <ele>530.5</ele>
        <time>2025-12-28T09:56:25.000Z</time>
      </trkpt>
      <trkpt lat="43.01075" lon="1.1534">
        <ele>530.1</ele>
        <time>2025-12-28T09:56:26.000Z</time>
      </trkpt>
      <trkpt lat="43.01073" lon="1.15334">
        <ele>529.5</ele>
        <time>2025-12-28T09:56:27.000Z</time>
      </trkpt>
      <trkpt lat="43.0107" lon="1.15328">
        <ele>529.3</ele>
        <time>2025-12-28T09:56:28.000Z</time>
      </trkpt>
      <trkpt lat="43.01068" lon="1.15322">
        <ele>529.1</ele>
        <time>2025-12-28T09:56:29.000Z</time>
      </trkpt>
      <trkpt lat="43.01066" lon="1.15315">
        <ele>528.9</ele>
        <time>2025-12-28T09:56:30.000Z</time>
      </trkpt>
      <trkpt lat="43.01064" lon="1.15308">
        <ele>528.7</ele>
        <time>2025-12-28T09:56:31.000Z</time>
      </trkpt>
      <trkpt lat="43.01062" lon="1.15301">
        <ele>528.4</ele>
        <time>2025-12-28T09:56:32.000Z</time>
      </trkpt>
      <trkpt lat="43.01062" lon="1.15294">
        <ele>528</ele>
        <time>2025-12-28T09:56:33.000Z</time>
      </trkpt>
      <trkpt lat="43.01061" lon="1.15286">
        <ele>527.5</ele>
        <time>2025-12-28T09:56:34.000Z</time>
      </trkpt>
      <trkpt lat="43.01061" lon="1.15278">
        <ele>526.5</ele>
        <time>2025-12-28T09:56:35.000Z</time>
      </trkpt>
      <trkpt lat="43.01061" lon="1.15271">
        <ele>526.1</ele>
        <time>2025-12-28T09:56:36.000Z</time>
      </trkpt>
      <trkpt lat="43.01059" lon="1.15263">
        <ele>525.9</ele>
        <time>2025-12-28T09:56:37.000Z</time>
      </trkpt>
      <trkpt lat="43.01058" lon="1.15256">
        <ele>526</ele>
        <time>2025-12-28T09:56:38.000Z</time>
      </trkpt>
      <trkpt lat="43.01056" lon="1.1525">
        <ele>525.9</ele>
        <time>2025-12-28T09:56:39.000Z</time>
      </trkpt>
      <trkpt lat="43.01052" lon="1.15244">
        <ele>526</ele>
        <time>2025-12-28T09:56:40.000Z</time>
      </trkpt>
      <trkpt lat="43.01049" lon="1.15238">
        <ele>526.6</ele>
        <time>2025-12-28T09:56:41.000Z</time>
      </trkpt>
      <trkpt lat="43.01046" lon="1.15233">
        <ele>527.1</ele>
        <time>2025-12-28T09:56:42.000Z</time>
      </trkpt>
      <trkpt lat="43.01042" lon="1.15227">
        <ele>527.2</ele>
        <time>2025-12-28T09:56:43.000Z</time>
      </trkpt>
      <trkpt lat="43.01039" lon="1.15221">
        <ele>527.6</ele>
        <time>2025-12-28T09:56:44.000Z</time>
      </trkpt>
      <trkpt lat="43.01037" lon="1.15214">
        <ele>527.7</ele>
        <time>2025-12-28T09:56:45.000Z</time>
      </trkpt>
      <trkpt lat="43.01035" lon="1.15208">
        <ele>528.7</ele>
        <time>2025-12-28T09:56:46.000Z</time>
      </trkpt>
      <trkpt lat="43.01033" lon="1.15201">
        <ele>529.2</ele>
        <time>2025-12-28T09:56:47.000Z</time>
      </trkpt>
      <trkpt lat="43.01031" lon="1.15195">
        <ele>529.1</ele>
        <time>2025-12-28T09:56:48.000Z</time>
      </trkpt>
      <trkpt lat="43.01028" lon="1.15189">
        <ele>529.7</ele>
        <time>2025-12-28T09:56:49.000Z</time>
      </trkpt>
      <trkpt lat="43.01025" lon="1.15184">
        <ele>530.2</ele>
        <time>2025-12-28T09:56:50.000Z</time>
      </trkpt>
      <trkpt lat="43.0102" lon="1.15181">
        <ele>530.5</ele>
        <time>2025-12-28T09:56:51.000Z</time>
      </trkpt>
      <trkpt lat="43.01016" lon="1.15176">
        <ele>530.9</ele>
        <time>2025-12-28T09:56:52.000Z</time>
      </trkpt>
      <trkpt lat="43.01012" lon="1.15173">
        <ele>531.1</ele>
        <time>2025-12-28T09:56:53.000Z</time>
      </trkpt>
      <trkpt lat="43.01008" lon="1.15169">
        <ele>531.3</ele>
        <time>2025-12-28T09:56:54.000Z</time>
      </trkpt>
      <trkpt lat="43.01004" lon="1.15165">
        <ele>531.4</ele>
        <time>2025-12-28T09:56:55.000Z</time>
      </trkpt>
      <trkpt lat="43.01" lon="1.15162">
        <ele>532</ele>
        <time>2025-12-28T09:56:56.000Z</time>
      </trkpt>
      <trkpt lat="43.00996" lon="1.15159">
        <ele>532.1</ele>
        <time>2025-12-28T09:56:57.000Z</time>
      </trkpt>
      <trkpt lat="43.00993" lon="1.15155">
        <ele>532.5</ele>
        <time>2025-12-28T09:56:58.000Z</time>
      </trkpt>
      <trkpt lat="43.00989" lon="1.15153">
        <ele>532.8</ele>
        <time>2025-12-28T09:56:59.000Z</time>
      </trkpt>
      <trkpt lat="43.00986" lon="1.15149">
        <ele>532.8</ele>
        <time>2025-12-28T09:57:00.000Z</time>
      </trkpt>
      <trkpt lat="43.00983" lon="1.15145">
        <ele>532.8</ele>
        <time>2025-12-28T09:57:01.000Z</time>
      </trkpt>
      <trkpt lat="43.00981" lon="1.15141">
        <ele>533.4</ele>
        <time>2025-12-28T09:57:02.000Z</time>
      </trkpt>
      <trkpt lat="43.00979" lon="1.15139">
        <ele>534.7</ele>
        <time>2025-12-28T09:57:03.000Z</time>
      </trkpt>
      <trkpt lat="43.00976" lon="1.15137">
        <ele>534.6</ele>
        <time>2025-12-28T09:57:04.000Z</time>
      </trkpt>
      <trkpt lat="43.00974" lon="1.15134">
        <ele>535.2</ele>
        <time>2025-12-28T09:57:05.000Z</time>
      </trkpt>
      <trkpt lat="43.00972" lon="1.15132">
        <ele>535.6</ele>
        <time>2025-12-28T09:57:06.000Z</time>
      </trkpt>
      <trkpt lat="43.0097" lon="1.1513">
        <ele>536.9</ele>
        <time>2025-12-28T09:57:07.000Z</time>
      </trkpt>
      <trkpt lat="43.00966" lon="1.15126">
        <ele>537</ele>
        <time>2025-12-28T09:57:08.000Z</time>
      </trkpt>
      <trkpt lat="43.00962" lon="1.15124">
        <ele>539.6</ele>
        <time>2025-12-28T09:57:09.000Z</time>
      </trkpt>
      <trkpt lat="43.00958" lon="1.15123">
        <ele>537.9</ele>
        <time>2025-12-28T09:57:10.000Z</time>
      </trkpt>
      <trkpt lat="43.00955" lon="1.15121">
        <ele>538.2</ele>
        <time>2025-12-28T09:57:11.000Z</time>
      </trkpt>
      <trkpt lat="43.00952" lon="1.15119">
        <ele>539.2</ele>
        <time>2025-12-28T09:57:12.000Z</time>
      </trkpt>
      <trkpt lat="43.00948" lon="1.15116">
        <ele>539</ele>
        <time>2025-12-28T09:57:13.000Z</time>
      </trkpt>
      <trkpt lat="43.00941" lon="1.15114">
        <ele>539.1</ele>
        <time>2025-12-28T09:57:14.000Z</time>
      </trkpt>
      <trkpt lat="43.00938" lon="1.15113">
        <ele>539.5</ele>
        <time>2025-12-28T09:57:15.000Z</time>
      </trkpt>
      <trkpt lat="43.00934" lon="1.1511">
        <ele>539.5</ele>
        <time>2025-12-28T09:57:16.000Z</time>
      </trkpt>
      <trkpt lat="43.00932" lon="1.15108">
        <ele>540.4</ele>
        <time>2025-12-28T09:57:17.000Z</time>
      </trkpt>
      <trkpt lat="43.00929" lon="1.15106">
        <ele>541.9</ele>
        <time>2025-12-28T09:57:18.000Z</time>
      </trkpt>
      <trkpt lat="43.00925" lon="1.15103">
        <ele>542.3</ele>
        <time>2025-12-28T09:57:19.000Z</time>
      </trkpt>
      <trkpt lat="43.00922" lon="1.15101">
        <ele>543.4</ele>
        <time>2025-12-28T09:57:20.000Z</time>
      </trkpt>
      <trkpt lat="43.00919" lon="1.15099">
        <ele>543.8</ele>
        <time>2025-12-28T09:57:21.000Z</time>
      </trkpt>
      <trkpt lat="43.00915" lon="1.15096">
        <ele>543.5</ele>
        <time>2025-12-28T09:57:22.000Z</time>
      </trkpt>
      <trkpt lat="43.00911" lon="1.15093">
        <ele>543.9</ele>
        <time>2025-12-28T09:57:23.000Z</time>
      </trkpt>
      <trkpt lat="43.00907" lon="1.15091">
        <ele>544</ele>
        <time>2025-12-28T09:57:24.000Z</time>
      </trkpt>
      <trkpt lat="43.00903" lon="1.15089">
        <ele>542.9</ele>
        <time>2025-12-28T09:57:25.000Z</time>
      </trkpt>
      <trkpt lat="43.00899" lon="1.15087">
        <ele>543.3</ele>
        <time>2025-12-28T09:57:26.000Z</time>
      </trkpt>
      <trkpt lat="43.00896" lon="1.15084">
        <ele>544.1</ele>
        <time>2025-12-28T09:57:27.000Z</time>
      </trkpt>
      <trkpt lat="43.00892" lon="1.15081">
        <ele>544.1</ele>
        <time>2025-12-28T09:57:28.000Z</time>
      </trkpt>
      <trkpt lat="43.00889" lon="1.15077">
        <ele>546</ele>
        <time>2025-12-28T09:57:29.000Z</time>
      </trkpt>
      <trkpt lat="43.00887" lon="1.15074">
        <ele>546.1</ele>
        <time>2025-12-28T09:57:30.000Z</time>
      </trkpt>
      <trkpt lat="43.00884" lon="1.15068">
        <ele>545.4</ele>
        <time>2025-12-28T09:57:31.000Z</time>
      </trkpt>
      <trkpt lat="43.00882" lon="1.15063">
        <ele>546.4</ele>
        <time>2025-12-28T09:57:32.000Z</time>
      </trkpt>
      <trkpt lat="43.0088" lon="1.1506">
        <ele>544.9</ele>
        <time>2025-12-28T09:57:33.000Z</time>
      </trkpt>
      <trkpt lat="43.00877" lon="1.15056">
        <ele>545.2</ele>
        <time>2025-12-28T09:57:34.000Z</time>
      </trkpt>
      <trkpt lat="43.00873" lon="1.15052">
        <ele>543.7</ele>
        <time>2025-12-28T09:57:35.000Z</time>
      </trkpt>
      <trkpt lat="43.00869" lon="1.15047">
        <ele>544.1</ele>
        <time>2025-12-28T09:57:36.000Z</time>
      </trkpt>
      <trkpt lat="43.00866" lon="1.15042">
        <ele>544.1</ele>
        <time>2025-12-28T09:57:37.000Z</time>
      </trkpt>
      <trkpt lat="43.00863" lon="1.15038">
        <ele>545.8</ele>
        <time>2025-12-28T09:57:38.000Z</time>
      </trkpt>
      <trkpt lat="43.0086" lon="1.15035">
        <ele>546.8</ele>
        <time>2025-12-28T09:57:39.000Z</time>
      </trkpt>
      <trkpt lat="43.00857" lon="1.15032">
        <ele>547.3</ele>
        <time>2025-12-28T09:57:40.000Z</time>
      </trkpt>
      <trkpt lat="43.00856" lon="1.15029">
        <ele>547.7</ele>
        <time>2025-12-28T09:57:41.000Z</time>
      </trkpt>
      <trkpt lat="43.00853" lon="1.15026">
        <ele>547.6</ele>
        <time>2025-12-28T09:57:42.000Z</time>
      </trkpt>
      <trkpt lat="43.0085" lon="1.15022">
        <ele>547.4</ele>
        <time>2025-12-28T09:57:43.000Z</time>
      </trkpt>
      <trkpt lat="43.00847" lon="1.15019">
        <ele>548.5</ele>
        <time>2025-12-28T09:57:44.000Z</time>
      </trkpt>
      <trkpt lat="43.00844" lon="1.15016">
        <ele>549.5</ele>
        <time>2025-12-28T09:57:45.000Z</time>
      </trkpt>
      <trkpt lat="43.00841" lon="1.15013">
        <ele>549</ele>
        <time>2025-12-28T09:57:46.000Z</time>
      </trkpt>
      <trkpt lat="43.00838" lon="1.1501">
        <ele>548.7</ele>
        <time>2025-12-28T09:57:47.000Z</time>
      </trkpt>
      <trkpt lat="43.00835" lon="1.15006">
        <ele>549.7</ele>
        <time>2025-12-28T09:57:48.000Z</time>
      </trkpt>
      <trkpt lat="43.00833" lon="1.15002">
        <ele>551.3</ele>
        <time>2025-12-28T09:57:49.000Z</time>
      </trkpt>
      <trkpt lat="43.0083" lon="1.14998">
        <ele>552.1</ele>
        <time>2025-12-28T09:57:50.000Z</time>
      </trkpt>
      <trkpt lat="43.00827" lon="1.14995">
        <ele>552.8</ele>
        <time>2025-12-28T09:57:51.000Z</time>
      </trkpt>
      <trkpt lat="43.00824" lon="1.14992">
        <ele>552.8</ele>
        <time>2025-12-28T09:57:52.000Z</time>
      </trkpt>
      <trkpt lat="43.00822" lon="1.14989">
        <ele>553.3</ele>
        <time>2025-12-28T09:57:53.000Z</time>
      </trkpt>
      <trkpt lat="43.00819" lon="1.14987">
        <ele>553.3</ele>
        <time>2025-12-28T09:57:54.000Z</time>
      </trkpt>
      <trkpt lat="43.00816" lon="1.14985">
        <ele>553.1</ele>
        <time>2025-12-28T09:57:55.000Z</time>
      </trkpt>
      <trkpt lat="43.00814" lon="1.14983">
        <ele>552.9</ele>
        <time>2025-12-28T09:57:56.000Z</time>
      </trkpt>
      <trkpt lat="43.00813" lon="1.14982">
        <ele>554.5</ele>
        <time>2025-12-28T09:57:57.000Z</time>
      </trkpt>
      <trkpt lat="43.00811" lon="1.14982">
        <ele>555.6</ele>
        <time>2025-12-28T09:57:58.000Z</time>
      </trkpt>
      <trkpt lat="43.00809" lon="1.14983">
        <ele>555.8</ele>
        <time>2025-12-28T09:57:59.000Z</time>
      </trkpt>
      <trkpt lat="43.00806" lon="1.14983">
        <ele>555.1</ele>
        <time>2025-12-28T09:58:00.000Z</time>
      </trkpt>
      <trkpt lat="43.00804" lon="1.14983">
        <ele>553.6</ele>
        <time>2025-12-28T09:58:01.000Z</time>
      </trkpt>
      <trkpt lat="43.00804" lon="1.14983">
        <ele>554.6</ele>
        <time>2025-12-28T09:58:02.000Z</time>
      </trkpt>
      <trkpt lat="43.00803" lon="1.14983">
        <ele>555.1</ele>
        <time>2025-12-28T09:58:03.000Z</time>
      </trkpt>
      <trkpt lat="43.00803" lon="1.14983">
        <ele>555</ele>
        <time>2025-12-28T09:58:04.000Z</time>
      </trkpt>
      <trkpt lat="43.00803" lon="1.14983">
        <ele>555</ele>
        <time>2025-12-28T09:58:05.000Z</time>
      </trkpt>
      <trkpt lat="43.00803" lon="1.14982">
        <ele>555.1</ele>
        <time>2025-12-28T09:58:06.000Z</time>
      </trkpt>
      <trkpt lat="43.00803" lon="1.14982">
        <ele>555.3</ele>
        <time>2025-12-28T09:58:07.000Z</time>
      </trkpt>
      <trkpt lat="43.00803" lon="1.14982">
        <ele>555.5</ele>
        <time>2025-12-28T09:58:08.000Z</time>
      </trkpt>
      <trkpt lat="43.00803" lon="1.14982">
        <ele>555.5</ele>
        <time>2025-12-28T09:58:09.000Z</time>
      </trkpt>
      <trkpt lat="43.00802" lon="1.14981">
        <ele>555.5</ele>
        <time>2025-12-28T09:58:10.000Z</time>
      </trkpt>
      <trkpt lat="43.00801" lon="1.1498">
        <ele>555.3</ele>
        <time>2025-12-28T09:58:11.000Z</time>
      </trkpt>
      <trkpt lat="43.00801" lon="1.14979">
        <ele>554.3</ele>
        <time>2025-12-28T09:58:12.000Z</time>
      </trkpt>
      <trkpt lat="43.00802" lon="1.14978">
        <ele>554.4</ele>
        <time>2025-12-28T09:58:13.000Z</time>
      </trkpt>
      <trkpt lat="43.00803" lon="1.14977">
        <ele>554.8</ele>
        <time>2025-12-28T09:58:14.000Z</time>
      </trkpt>
      <trkpt lat="43.00804" lon="1.14976">
        <ele>554.7</ele>
        <time>2025-12-28T09:58:15.000Z</time>
      </trkpt>
      <trkpt lat="43.00804" lon="1.14976">
        <ele>554.8</ele>
        <time>2025-12-28T09:58:16.000Z</time>
      </trkpt>
      <trkpt lat="43.00804" lon="1.14976">
        <ele>555</ele>
        <time>2025-12-28T09:58:17.000Z</time>
      </trkpt>
      <trkpt lat="43.00804" lon="1.14975">
        <ele>554.7</ele>
        <time>2025-12-28T09:58:18.000Z</time>
      </trkpt>
      <trkpt lat="43.00804" lon="1.14975">
        <ele>554.5</ele>
        <time>2025-12-28T09:58:19.000Z</time>
      </trkpt>
      <trkpt lat="43.00806" lon="1.14975">
        <ele>557.3</ele>
        <time>2025-12-28T09:58:36.000Z</time>
      </trkpt>
      <trkpt lat="43.00807" lon="1.14975">
        <ele>557.4</ele>
        <time>2025-12-28T09:58:37.000Z</time>
      </trkpt>
      <trkpt lat="43.00808" lon="1.14973">
        <ele>557.1</ele>
        <time>2025-12-28T09:58:38.000Z</time>
      </trkpt>
      <trkpt lat="43.00809" lon="1.14972">
        <ele>557.1</ele>
        <time>2025-12-28T09:58:39.000Z</time>
      </trkpt>
      <trkpt lat="43.00811" lon="1.1497">
        <ele>557.3</ele>
        <time>2025-12-28T09:58:40.000Z</time>
      </trkpt>
      <trkpt lat="43.00814" lon="1.14968">
        <ele>557.7</ele>
        <time>2025-12-28T09:58:41.000Z</time>
      </trkpt>
      <trkpt lat="43.00817" lon="1.14967">
        <ele>557.6</ele>
        <time>2025-12-28T09:58:42.000Z</time>
      </trkpt>
      <trkpt lat="43.0082" lon="1.14967">
        <ele>557.6</ele>
        <time>2025-12-28T09:58:43.000Z</time>
      </trkpt>
      <trkpt lat="43.00823" lon="1.14967">
        <ele>558.2</ele>
        <time>2025-12-28T09:58:44.000Z</time>
      </trkpt>
      <trkpt lat="43.00825" lon="1.14967">
        <ele>558.2</ele>
        <time>2025-12-28T09:58:45.000Z</time>
      </trkpt>
      <trkpt lat="43.00828" lon="1.14967">
        <ele>557.9</ele>
        <time>2025-12-28T09:58:46.000Z</time>
      </trkpt>
      <trkpt lat="43.00831" lon="1.14968">
        <ele>558.1</ele>
        <time>2025-12-28T09:58:47.000Z</time>
      </trkpt>
      <trkpt lat="43.00834" lon="1.14969">
        <ele>558.3</ele>
        <time>2025-12-28T09:58:48.000Z</time>
      </trkpt>
      <trkpt lat="43.00838" lon="1.1497">
        <ele>558.9</ele>
        <time>2025-12-28T09:58:49.000Z</time>
      </trkpt>
      <trkpt lat="43.00842" lon="1.14971">
        <ele>559.2</ele>
        <time>2025-12-28T09:58:50.000Z</time>
      </trkpt>
      <trkpt lat="43.00846" lon="1.14973">
        <ele>559.8</ele>
        <time>2025-12-28T09:58:51.000Z</time>
      </trkpt>
      <trkpt lat="43.00849" lon="1.14974">
        <ele>559.9</ele>
        <time>2025-12-28T09:58:52.000Z</time>
      </trkpt>
      <trkpt lat="43.00852" lon="1.14975">
        <ele>559.7</ele>
        <time>2025-12-28T09:58:53.000Z</time>
      </trkpt>
      <trkpt lat="43.00856" lon="1.14976">
        <ele>559.9</ele>
        <time>2025-12-28T09:58:54.000Z</time>
      </trkpt>
      <trkpt lat="43.00859" lon="1.14977">
        <ele>560.2</ele>
        <time>2025-12-28T09:58:55.000Z</time>
      </trkpt>
      <trkpt lat="43.00862" lon="1.14978">
        <ele>560.8</ele>
        <time>2025-12-28T09:58:56.000Z</time>
      </trkpt>
      <trkpt lat="43.00864" lon="1.14978">
        <ele>560.9</ele>
        <time>2025-12-28T09:58:57.000Z</time>
      </trkpt>
      <trkpt lat="43.00867" lon="1.14979">
        <ele>561</ele>
        <time>2025-12-28T09:58:58.000Z</time>
      </trkpt>
      <trkpt lat="43.0087" lon="1.14979">
        <ele>561.2</ele>
        <time>2025-12-28T09:58:59.000Z</time>
      </trkpt>
      <trkpt lat="43.00873" lon="1.14981">
        <ele>561.3</ele>
        <time>2025-12-28T09:59:00.000Z</time>
      </trkpt>
      <trkpt lat="43.00876" lon="1.14982">
        <ele>561.5</ele>
        <time>2025-12-28T09:59:01.000Z</time>
      </trkpt>
      <trkpt lat="43.00878" lon="1.14983">
        <ele>561.8</ele>
        <time>2025-12-28T09:59:02.000Z</time>
      </trkpt>
      <trkpt lat="43.00881" lon="1.14984">
        <ele>562.3</ele>
        <time>2025-12-28T09:59:03.000Z</time>
      </trkpt>
      <trkpt lat="43.00883" lon="1.14985">
        <ele>562.6</ele>
        <time>2025-12-28T09:59:04.000Z</time>
      </trkpt>
      <trkpt lat="43.00886" lon="1.14986">
        <ele>563</ele>
        <time>2025-12-28T09:59:05.000Z</time>
      </trkpt>
      <trkpt lat="43.00888" lon="1.14987">
        <ele>563.3</ele>
        <time>2025-12-28T09:59:06.000Z</time>
      </trkpt>
      <trkpt lat="43.00891" lon="1.14988">
        <ele>563.8</ele>
        <time>2025-12-28T09:59:07.000Z</time>
      </trkpt>
      <trkpt lat="43.00893" lon="1.14989">
        <ele>564.1</ele>
        <time>2025-12-28T09:59:08.000Z</time>
      </trkpt>
      <trkpt lat="43.00896" lon="1.14989">
        <ele>564.5</ele>
        <time>2025-12-28T09:59:09.000Z</time>
      </trkpt>
      <trkpt lat="43.00899" lon="1.14989">
        <ele>565</ele>
        <time>2025-12-28T09:59:10.000Z</time>
      </trkpt>
      <trkpt lat="43.00901" lon="1.14989">
        <ele>565.4</ele>
        <time>2025-12-28T09:59:11.000Z</time>
      </trkpt>
      <trkpt lat="43.00904" lon="1.1499">
        <ele>565.5</ele>
        <time>2025-12-28T09:59:12.000Z</time>
      </trkpt>
      <trkpt lat="43.00907" lon="1.1499">
        <ele>565.8</ele>
        <time>2025-12-28T09:59:13.000Z</time>
      </trkpt>
      <trkpt lat="43.0091" lon="1.1499">
        <ele>566.1</ele>
        <time>2025-12-28T09:59:14.000Z</time>
      </trkpt>
      <trkpt lat="43.00912" lon="1.14991">
        <ele>566.4</ele>
        <time>2025-12-28T09:59:15.000Z</time>
      </trkpt>
      <trkpt lat="43.00915" lon="1.14991">
        <ele>566.6</ele>
        <time>2025-12-28T09:59:16.000Z</time>
      </trkpt>
      <trkpt lat="43.00917" lon="1.14991">
        <ele>567.1</ele>
        <time>2025-12-28T09:59:17.000Z</time>
      </trkpt>
      <trkpt lat="43.0092" lon="1.14992">
        <ele>567.5</ele>
        <time>2025-12-28T09:59:18.000Z</time>
      </trkpt>
      <trkpt lat="43.00922" lon="1.14992">
        <ele>567.8</ele>
        <time>2025-12-28T09:59:19.000Z</time>
      </trkpt>
      <trkpt lat="43.00925" lon="1.14991">
        <ele>568.2</ele>
        <time>2025-12-28T09:59:20.000Z</time>
      </trkpt>
      <trkpt lat="43.00928" lon="1.14991">
        <ele>568.1</ele>
        <time>2025-12-28T09:59:21.000Z</time>
      </trkpt>
      <trkpt lat="43.00931" lon="1.14992">
        <ele>568.6</ele>
        <time>2025-12-28T09:59:22.000Z</time>
      </trkpt>
      <trkpt lat="43.00933" lon="1.14992">
        <ele>568.4</ele>
        <time>2025-12-28T09:59:23.000Z</time>
      </trkpt>
      <trkpt lat="43.00936" lon="1.14992">
        <ele>568.9</ele>
        <time>2025-12-28T09:59:24.000Z</time>
      </trkpt>
      <trkpt lat="43.00938" lon="1.14992">
        <ele>568.7</ele>
        <time>2025-12-28T09:59:25.000Z</time>
      </trkpt>
      <trkpt lat="43.00941" lon="1.14992">
        <ele>568.8</ele>
        <time>2025-12-28T09:59:26.000Z</time>
      </trkpt>
      <trkpt lat="43.00944" lon="1.14993">
        <ele>568.9</ele>
        <time>2025-12-28T09:59:27.000Z</time>
      </trkpt>
      <trkpt lat="43.00947" lon="1.14993">
        <ele>569.3</ele>
        <time>2025-12-28T09:59:28.000Z</time>
      </trkpt>
      <trkpt lat="43.0095" lon="1.14993">
        <ele>569.5</ele>
        <time>2025-12-28T09:59:29.000Z</time>
      </trkpt>
      <trkpt lat="43.00952" lon="1.14993">
        <ele>569.4</ele>
        <time>2025-12-28T09:59:30.000Z</time>
      </trkpt>
      <trkpt lat="43.00955" lon="1.14992">
        <ele>569.7</ele>
        <time>2025-12-28T09:59:31.000Z</time>
      </trkpt>
      <trkpt lat="43.00958" lon="1.14992">
        <ele>570.3</ele>
        <time>2025-12-28T09:59:32.000Z</time>
      </trkpt>
      <trkpt lat="43.00961" lon="1.14991">
        <ele>570.4</ele>
        <time>2025-12-28T09:59:33.000Z</time>
      </trkpt>
      <trkpt lat="43.00964" lon="1.1499">
        <ele>571.1</ele>
        <time>2025-12-28T09:59:34.000Z</time>
      </trkpt>
      <trkpt lat="43.00966" lon="1.1499">
        <ele>570.6</ele>
        <time>2025-12-28T09:59:35.000Z</time>
      </trkpt>
      <trkpt lat="43.00968" lon="1.14989">
        <ele>571.2</ele>
        <time>2025-12-28T09:59:36.000Z</time>
      </trkpt>
      <trkpt lat="43.00971" lon="1.14988">
        <ele>570.9</ele>
        <time>2025-12-28T09:59:37.000Z</time>
      </trkpt>
      <trkpt lat="43.00973" lon="1.14987">
        <ele>571.5</ele>
        <time>2025-12-28T09:59:38.000Z</time>
      </trkpt>
      <trkpt lat="43.00975" lon="1.14986">
        <ele>571.8</ele>
        <time>2025-12-28T09:59:39.000Z</time>
      </trkpt>
      <trkpt lat="43.00977" lon="1.14983">
        <ele>571.9</ele>
        <time>2025-12-28T09:59:40.000Z</time>
      </trkpt>
      <trkpt lat="43.00979" lon="1.1498">
        <ele>571.8</ele>
        <time>2025-12-28T09:59:41.000Z</time>
      </trkpt>
      <trkpt lat="43.00982" lon="1.14978">
        <ele>572.3</ele>
        <time>2025-12-28T09:59:42.000Z</time>
      </trkpt>
      <trkpt lat="43.00984" lon="1.14976">
        <ele>572.3</ele>
        <time>2025-12-28T09:59:43.000Z</time>
      </trkpt>
      <trkpt lat="43.00986" lon="1.14975">
        <ele>572.6</ele>
        <time>2025-12-28T09:59:44.000Z</time>
      </trkpt>
      <trkpt lat="43.00988" lon="1.14973">
        <ele>573.2</ele>
        <time>2025-12-28T09:59:45.000Z</time>
      </trkpt>
      <trkpt lat="43.0099" lon="1.14971">
        <ele>573.4</ele>
        <time>2025-12-28T09:59:46.000Z</time>
      </trkpt>
      <trkpt lat="43.00993" lon="1.14969">
        <ele>573.8</ele>
        <time>2025-12-28T09:59:47.000Z</time>
      </trkpt>
      <trkpt lat="43.00995" lon="1.14966">
        <ele>573.9</ele>
        <time>2025-12-28T09:59:48.000Z</time>
      </trkpt>
      <trkpt lat="43.00997" lon="1.14964">
        <ele>573.9</ele>
        <time>2025-12-28T09:59:49.000Z</time>
      </trkpt>
      <trkpt lat="43.00999" lon="1.14963">
        <ele>574.1</ele>
        <time>2025-12-28T09:59:50.000Z</time>
      </trkpt>
      <trkpt lat="43.01001" lon="1.14961">
        <ele>574.5</ele>
        <time>2025-12-28T09:59:51.000Z</time>
      </trkpt>
      <trkpt lat="43.01004" lon="1.14959">
        <ele>574.2</ele>
        <time>2025-12-28T09:59:52.000Z</time>
      </trkpt>
      <trkpt lat="43.01006" lon="1.14957">
        <ele>574.4</ele>
        <time>2025-12-28T09:59:53.000Z</time>
      </trkpt>
      <trkpt lat="43.01009" lon="1.14955">
        <ele>574.2</ele>
        <time>2025-12-28T09:59:54.000Z</time>
      </trkpt>
      <trkpt lat="43.01011" lon="1.14953">
        <ele>574.2</ele>
        <time>2025-12-28T09:59:55.000Z</time>
      </trkpt>
      <trkpt lat="43.01013" lon="1.14952">
        <ele>574.4</ele>
        <time>2025-12-28T09:59:56.000Z</time>
      </trkpt>
      <trkpt lat="43.01016" lon="1.1495">
        <ele>574.2</ele>
        <time>2025-12-28T09:59:57.000Z</time>
      </trkpt>
      <trkpt lat="43.01018" lon="1.14948">
        <ele>574.3</ele>
        <time>2025-12-28T09:59:58.000Z</time>
      </trkpt>
      <trkpt lat="43.0102" lon="1.14946">
        <ele>574.4</ele>
        <time>2025-12-28T09:59:59.000Z</time>
      </trkpt>
      <trkpt lat="43.01022" lon="1.14943">
        <ele>574.9</ele>
        <time>2025-12-28T10:00:00.000Z</time>
      </trkpt>
      <trkpt lat="43.01023" lon="1.1494">
        <ele>574.8</ele>
        <time>2025-12-28T10:00:01.000Z</time>
      </trkpt>
      <trkpt lat="43.01025" lon="1.14937">
        <ele>575.4</ele>
        <time>2025-12-28T10:00:02.000Z</time>
      </trkpt>
      <trkpt lat="43.01026" lon="1.14935">
        <ele>575.3</ele>
        <time>2025-12-28T10:00:03.000Z</time>
      </trkpt>
      <trkpt lat="43.01028" lon="1.14932">
        <ele>575.4</ele>
        <time>2025-12-28T10:00:04.000Z</time>
      </trkpt>
      <trkpt lat="43.0103" lon="1.14929">
        <ele>575.2</ele>
        <time>2025-12-28T10:00:05.000Z</time>
      </trkpt>
      <trkpt lat="43.01032" lon="1.14927">
        <ele>575.7</ele>
        <time>2025-12-28T10:00:06.000Z</time>
      </trkpt>
      <trkpt lat="43.01034" lon="1.14925">
        <ele>576</ele>
        <time>2025-12-28T10:00:07.000Z</time>
      </trkpt>
      <trkpt lat="43.01036" lon="1.14923">
        <ele>576.3</ele>
        <time>2025-12-28T10:00:08.000Z</time>
      </trkpt>
      <trkpt lat="43.01038" lon="1.14921">
        <ele>577</ele>
        <time>2025-12-28T10:00:09.000Z</time>
      </trkpt>
      <trkpt lat="43.0104" lon="1.14918">
        <ele>577.1</ele>
        <time>2025-12-28T10:00:10.000Z</time>
      </trkpt>
      <trkpt lat="43.01042" lon="1.14916">
        <ele>577.1</ele>
        <time>2025-12-28T10:00:11.000Z</time>
      </trkpt>
      <trkpt lat="43.01044" lon="1.14914">
        <ele>577.6</ele>
        <time>2025-12-28T10:00:12.000Z</time>
      </trkpt>
      <trkpt lat="43.01046" lon="1.14912">
        <ele>577.7</ele>
        <time>2025-12-28T10:00:13.000Z</time>
      </trkpt>
      <trkpt lat="43.01048" lon="1.14909">
        <ele>577.8</ele>
        <time>2025-12-28T10:00:14.000Z</time>
      </trkpt>
      <trkpt lat="43.0105" lon="1.14907">
        <ele>578</ele>
        <time>2025-12-28T10:00:15.000Z</time>
      </trkpt>
      <trkpt lat="43.01052" lon="1.14904">
        <ele>578</ele>
        <time>2025-12-28T10:00:16.000Z</time>
      </trkpt>
      <trkpt lat="43.01053" lon="1.14901">
        <ele>578.4</ele>
        <time>2025-12-28T10:00:17.000Z</time>
      </trkpt>
      <trkpt lat="43.01054" lon="1.14898">
        <ele>578.4</ele>
        <time>2025-12-28T10:00:18.000Z</time>
      </trkpt>
      <trkpt lat="43.01055" lon="1.14895">
        <ele>578.2</ele>
        <time>2025-12-28T10:00:19.000Z</time>
      </trkpt>
      <trkpt lat="43.01056" lon="1.14892">
        <ele>578.5</ele>
        <time>2025-12-28T10:00:20.000Z</time>
      </trkpt>
      <trkpt lat="43.01057" lon="1.1489">
        <ele>579.1</ele>
        <time>2025-12-28T10:00:21.000Z</time>
      </trkpt>
      <trkpt lat="43.01058" lon="1.14887">
        <ele>579.1</ele>
        <time>2025-12-28T10:00:22.000Z</time>
      </trkpt>
      <trkpt lat="43.01059" lon="1.14885">
        <ele>579.4</ele>
        <time>2025-12-28T10:00:23.000Z</time>
      </trkpt>
      <trkpt lat="43.01061" lon="1.14881">
        <ele>579.6</ele>
        <time>2025-12-28T10:00:24.000Z</time>
      </trkpt>
      <trkpt lat="43.01062" lon="1.14878">
        <ele>579.6</ele>
        <time>2025-12-28T10:00:25.000Z</time>
      </trkpt>
      <trkpt lat="43.01063" lon="1.14875">
        <ele>579.8</ele>
        <time>2025-12-28T10:00:26.000Z</time>
      </trkpt>
      <trkpt lat="43.01065" lon="1.14873">
        <ele>580.4</ele>
        <time>2025-12-28T10:00:27.000Z</time>
      </trkpt>
      <trkpt lat="43.01066" lon="1.1487">
        <ele>580.5</ele>
        <time>2025-12-28T10:00:28.000Z</time>
      </trkpt>
      <trkpt lat="43.01068" lon="1.14868">
        <ele>580.8</ele>
        <time>2025-12-28T10:00:29.000Z</time>
      </trkpt>
      <trkpt lat="43.01071" lon="1.14867">
        <ele>581.1</ele>
        <time>2025-12-28T10:00:30.000Z</time>
      </trkpt>
      <trkpt lat="43.01073" lon="1.14865">
        <ele>581.3</ele>
        <time>2025-12-28T10:00:31.000Z</time>
      </trkpt>
      <trkpt lat="43.01076" lon="1.14863">
        <ele>581.4</ele>
        <time>2025-12-28T10:00:32.000Z</time>
      </trkpt>
      <trkpt lat="43.01078" lon="1.14861">
        <ele>581.8</ele>
        <time>2025-12-28T10:00:33.000Z</time>
      </trkpt>
      <trkpt lat="43.0108" lon="1.14859">
        <ele>582.2</ele>
        <time>2025-12-28T10:00:34.000Z</time>
      </trkpt>
      <trkpt lat="43.01082" lon="1.14858">
        <ele>582.6</ele>
        <time>2025-12-28T10:00:35.000Z</time>
      </trkpt>
      <trkpt lat="43.01085" lon="1.14857">
        <ele>583.1</ele>
        <time>2025-12-28T10:00:36.000Z</time>
      </trkpt>
      <trkpt lat="43.01087" lon="1.14856">
        <ele>584.1</ele>
        <time>2025-12-28T10:00:37.000Z</time>
      </trkpt>
      <trkpt lat="43.01089" lon="1.14855">
        <ele>584.5</ele>
        <time>2025-12-28T10:00:38.000Z</time>
      </trkpt>
      <trkpt lat="43.01091" lon="1.14854">
        <ele>585</ele>
        <time>2025-12-28T10:00:39.000Z</time>
      </trkpt>
      <trkpt lat="43.01093" lon="1.14852">
        <ele>585.3</ele>
        <time>2025-12-28T10:00:40.000Z</time>
      </trkpt>
      <trkpt lat="43.01095" lon="1.14851">
        <ele>585.6</ele>
        <time>2025-12-28T10:00:41.000Z</time>
      </trkpt>
      <trkpt lat="43.01096" lon="1.1485">
        <ele>586.1</ele>
        <time>2025-12-28T10:00:42.000Z</time>
      </trkpt>
      <trkpt lat="43.01098" lon="1.14849">
        <ele>586.3</ele>
        <time>2025-12-28T10:00:43.000Z</time>
      </trkpt>
      <trkpt lat="43.011" lon="1.14848">
        <ele>586.5</ele>
        <time>2025-12-28T10:00:44.000Z</time>
      </trkpt>
      <trkpt lat="43.01103" lon="1.14848">
        <ele>586.3</ele>
        <time>2025-12-28T10:00:45.000Z</time>
      </trkpt>
      <trkpt lat="43.01105" lon="1.14848">
        <ele>586.3</ele>
        <time>2025-12-28T10:00:46.000Z</time>
      </trkpt>
      <trkpt lat="43.01107" lon="1.14848">
        <ele>586.7</ele>
        <time>2025-12-28T10:00:47.000Z</time>
      </trkpt>
      <trkpt lat="43.01109" lon="1.14848">
        <ele>586.8</ele>
        <time>2025-12-28T10:00:48.000Z</time>
      </trkpt>
      <trkpt lat="43.01111" lon="1.14849">
        <ele>587.2</ele>
        <time>2025-12-28T10:00:49.000Z</time>
      </trkpt>
      <trkpt lat="43.01113" lon="1.1485">
        <ele>586.3</ele>
        <time>2025-12-28T10:00:50.000Z</time>
      </trkpt>
      <trkpt lat="43.01114" lon="1.14851">
        <ele>586.8</ele>
        <time>2025-12-28T10:00:51.000Z</time>
      </trkpt>
      <trkpt lat="43.01115" lon="1.14854">
        <ele>586.8</ele>
        <time>2025-12-28T10:00:52.000Z</time>
      </trkpt>
      <trkpt lat="43.01116" lon="1.14857">
        <ele>586.3</ele>
        <time>2025-12-28T10:00:53.000Z</time>
      </trkpt>
      <trkpt lat="43.01118" lon="1.14859">
        <ele>586.7</ele>
        <time>2025-12-28T10:00:54.000Z</time>
      </trkpt>
      <trkpt lat="43.0112" lon="1.14859">
        <ele>585.8</ele>
        <time>2025-12-28T10:00:55.000Z</time>
      </trkpt>
      <trkpt lat="43.01121" lon="1.14859">
        <ele>586.3</ele>
        <time>2025-12-28T10:00:56.000Z</time>
      </trkpt>
      <trkpt lat="43.01121" lon="1.14858">
        <ele>586.5</ele>
        <time>2025-12-28T10:00:57.000Z</time>
      </trkpt>
      <trkpt lat="43.01121" lon="1.14858">
        <ele>586.6</ele>
        <time>2025-12-28T10:00:58.000Z</time>
      </trkpt>
      <trkpt lat="43.01121" lon="1.14858">
        <ele>586.7</ele>
        <time>2025-12-28T10:00:59.000Z</time>
      </trkpt>
      <trkpt lat="43.0112" lon="1.14857">
        <ele>586.9</ele>
        <time>2025-12-28T10:01:00.000Z</time>
      </trkpt>
      <trkpt lat="43.0112" lon="1.14857">
        <ele>587</ele>
        <time>2025-12-28T10:01:01.000Z</time>
      </trkpt>
      <trkpt lat="43.0112" lon="1.14858">
        <ele>586.9</ele>
        <time>2025-12-28T10:01:02.000Z</time>
      </trkpt>
      <trkpt lat="43.01119" lon="1.14858">
        <ele>586.7</ele>
        <time>2025-12-28T10:01:03.000Z</time>
      </trkpt>
      <trkpt lat="43.01119" lon="1.14858">
        <ele>586.8</ele>
        <time>2025-12-28T10:01:04.000Z</time>
      </trkpt>
      <trkpt lat="43.0112" lon="1.14858">
        <ele>586.5</ele>
        <time>2025-12-28T10:01:05.000Z</time>
      </trkpt>
      <trkpt lat="43.0112" lon="1.14859">
        <ele>586.7</ele>
        <time>2025-12-28T10:01:06.000Z</time>
      </trkpt>
      <trkpt lat="43.01122" lon="1.14859">
        <ele>587.2</ele>
        <time>2025-12-28T10:01:07.000Z</time>
      </trkpt>
      <trkpt lat="43.01123" lon="1.14858">
        <ele>587.2</ele>
        <time>2025-12-28T10:01:08.000Z</time>
      </trkpt>
      <trkpt lat="43.01124" lon="1.14858">
        <ele>587.4</ele>
        <time>2025-12-28T10:01:09.000Z</time>
      </trkpt>
      <trkpt lat="43.01125" lon="1.14859">
        <ele>586.9</ele>
        <time>2025-12-28T10:01:10.000Z</time>
      </trkpt>
      <trkpt lat="43.01125" lon="1.14859">
        <ele>588.1</ele>
        <time>2025-12-28T10:01:11.000Z</time>
      </trkpt>
      <trkpt lat="43.01126" lon="1.14859">
        <ele>587.4</ele>
        <time>2025-12-28T10:01:12.000Z</time>
      </trkpt>
      <trkpt lat="43.01127" lon="1.14859">
        <ele>589.9</ele>
        <time>2025-12-28T10:04:40.000Z</time>
      </trkpt>
      <trkpt lat="43.01127" lon="1.14859">
        <ele>590.2</ele>
        <time>2025-12-28T10:04:41.000Z</time>
      </trkpt>
      <trkpt lat="43.01128" lon="1.14859">
        <ele>590.2</ele>
        <time>2025-12-28T10:04:42.000Z</time>
      </trkpt>
      <trkpt lat="43.01129" lon="1.14859">
        <ele>590.7</ele>
        <time>2025-12-28T10:04:43.000Z</time>
      </trkpt>
      <trkpt lat="43.01129" lon="1.1486">
        <ele>590.8</ele>
        <time>2025-12-28T10:04:44.000Z</time>
      </trkpt>
      <trkpt lat="43.01137" lon="1.14863">
        <ele>590</ele>
        <time>2025-12-28T10:04:58.000Z</time>
      </trkpt>
      <trkpt lat="43.0114" lon="1.14864">
        <ele>590.5</ele>
        <time>2025-12-28T10:04:59.000Z</time>
      </trkpt>
      <trkpt lat="43.01143" lon="1.14863">
        <ele>590.6</ele>
        <time>2025-12-28T10:05:00.000Z</time>
      </trkpt>
      <trkpt lat="43.01147" lon="1.14862">
        <ele>590.7</ele>
        <time>2025-12-28T10:05:01.000Z</time>
      </trkpt>
      <trkpt lat="43.01148" lon="1.1486">
        <ele>590.5</ele>
        <time>2025-12-28T10:05:02.000Z</time>
      </trkpt>
      <trkpt lat="43.0115" lon="1.14859">
        <ele>590.5</ele>
        <time>2025-12-28T10:05:03.000Z</time>
      </trkpt>
      <trkpt lat="43.0115" lon="1.14858">
        <ele>590.6</ele>
        <time>2025-12-28T10:05:04.000Z</time>
      </trkpt>
      <trkpt lat="43.01149" lon="1.14857">
        <ele>591.3</ele>
        <time>2025-12-28T10:05:05.000Z</time>
      </trkpt>
      <trkpt lat="43.01149" lon="1.14856">
        <ele>592.2</ele>
        <time>2025-12-28T10:05:06.000Z</time>
      </trkpt>
      <trkpt lat="43.01148" lon="1.14855">
        <ele>592.3</ele>
        <time>2025-12-28T10:05:07.000Z</time>
      </trkpt>
      <trkpt lat="43.01147" lon="1.14854">
        <ele>592.8</ele>
        <time>2025-12-28T10:05:08.000Z</time>
      </trkpt>
      <trkpt lat="43.01146" lon="1.14853">
        <ele>593.4</ele>
        <time>2025-12-28T10:05:09.000Z</time>
      </trkpt>
      <trkpt lat="43.01146" lon="1.14852">
        <ele>592.9</ele>
        <time>2025-12-28T10:05:10.000Z</time>
      </trkpt>
      <trkpt lat="43.01145" lon="1.1485">
        <ele>593</ele>
        <time>2025-12-28T10:05:11.000Z</time>
      </trkpt>
      <trkpt lat="43.01145" lon="1.14847">
        <ele>592.3</ele>
        <time>2025-12-28T10:05:12.000Z</time>
      </trkpt>
      <trkpt lat="43.01144" lon="1.14846">
        <ele>593.6</ele>
        <time>2025-12-28T10:05:13.000Z</time>
      </trkpt>
      <trkpt lat="43.01143" lon="1.14844">
        <ele>593.5</ele>
        <time>2025-12-28T10:05:14.000Z</time>
      </trkpt>
      <trkpt lat="43.01143" lon="1.14842">
        <ele>593.3</ele>
        <time>2025-12-28T10:05:15.000Z</time>
      </trkpt>
      <trkpt lat="43.01142" lon="1.1484">
        <ele>593.8</ele>
        <time>2025-12-28T10:05:16.000Z</time>
      </trkpt>
      <trkpt lat="43.0114" lon="1.14837">
        <ele>593.9</ele>
        <time>2025-12-28T10:05:17.000Z</time>
      </trkpt>
      <trkpt lat="43.01139" lon="1.14835">
        <ele>592.5</ele>
        <time>2025-12-28T10:05:18.000Z</time>
      </trkpt>
      <trkpt lat="43.01137" lon="1.14832">
        <ele>592.7</ele>
        <time>2025-12-28T10:05:19.000Z</time>
      </trkpt>
      <trkpt lat="43.01136" lon="1.14829">
        <ele>591.5</ele>
        <time>2025-12-28T10:05:20.000Z</time>
      </trkpt>
      <trkpt lat="43.01134" lon="1.14827">
        <ele>592.1</ele>
        <time>2025-12-28T10:05:21.000Z</time>
      </trkpt>
      <trkpt lat="43.01132" lon="1.14824">
        <ele>591.6</ele>
        <time>2025-12-28T10:05:22.000Z</time>
      </trkpt>
      <trkpt lat="43.01131" lon="1.14821">
        <ele>591.4</ele>
        <time>2025-12-28T10:05:23.000Z</time>
      </trkpt>
      <trkpt lat="43.01129" lon="1.14819">
        <ele>590.7</ele>
        <time>2025-12-28T10:05:24.000Z</time>
      </trkpt>
      <trkpt lat="43.01128" lon="1.14816">
        <ele>590.4</ele>
        <time>2025-12-28T10:05:25.000Z</time>
      </trkpt>
      <trkpt lat="43.01126" lon="1.14813">
        <ele>590.2</ele>
        <time>2025-12-28T10:05:26.000Z</time>
      </trkpt>
      <trkpt lat="43.01124" lon="1.14811">
        <ele>589.5</ele>
        <time>2025-12-28T10:05:27.000Z</time>
      </trkpt>
      <trkpt lat="43.01123" lon="1.14808">
        <ele>590.2</ele>
        <time>2025-12-28T10:05:28.000Z</time>
      </trkpt>
      <trkpt lat="43.01122" lon="1.14805">
        <ele>590.9</ele>
        <time>2025-12-28T10:05:29.000Z</time>
      </trkpt>
      <trkpt lat="43.0112" lon="1.14802">
        <ele>593.5</ele>
        <time>2025-12-28T10:05:30.000Z</time>
      </trkpt>
      <trkpt lat="43.01119" lon="1.14797">
        <ele>592.6</ele>
        <time>2025-12-28T10:05:31.000Z</time>
      </trkpt>
      <trkpt lat="43.01118" lon="1.14791">
        <ele>591.2</ele>
        <time>2025-12-28T10:05:32.000Z</time>
      </trkpt>
      <trkpt lat="43.01116" lon="1.14785">
        <ele>591.3</ele>
        <time>2025-12-28T10:05:33.000Z</time>
      </trkpt>
      <trkpt lat="43.01115" lon="1.14777">
        <ele>591.2</ele>
        <time>2025-12-28T10:05:34.000Z</time>
      </trkpt>
      <trkpt lat="43.01113" lon="1.14773">
        <ele>589.5</ele>
        <time>2025-12-28T10:05:35.000Z</time>
      </trkpt>
      <trkpt lat="43.01111" lon="1.14768">
        <ele>588.8</ele>
        <time>2025-12-28T10:05:36.000Z</time>
      </trkpt>
      <trkpt lat="43.0111" lon="1.14763">
        <ele>589.1</ele>
        <time>2025-12-28T10:05:37.000Z</time>
      </trkpt>
      <trkpt lat="43.01109" lon="1.14756">
        <ele>589.2</ele>
        <time>2025-12-28T10:05:38.000Z</time>
      </trkpt>
      <trkpt lat="43.01107" lon="1.1475">
        <ele>589</ele>
        <time>2025-12-28T10:05:39.000Z</time>
      </trkpt>
      <trkpt lat="43.01104" lon="1.14743">
        <ele>589</ele>
        <time>2025-12-28T10:05:40.000Z</time>
      </trkpt>
      <trkpt lat="43.01102" lon="1.14738">
        <ele>589.6</ele>
        <time>2025-12-28T10:05:41.000Z</time>
      </trkpt>
      <trkpt lat="43.011" lon="1.14731">
        <ele>590.1</ele>
        <time>2025-12-28T10:05:42.000Z</time>
      </trkpt>
      <trkpt lat="43.01096" lon="1.14727">
        <ele>590.9</ele>
        <time>2025-12-28T10:05:43.000Z</time>
      </trkpt>
      <trkpt lat="43.01093" lon="1.14723">
        <ele>591</ele>
        <time>2025-12-28T10:05:44.000Z</time>
      </trkpt>
      <trkpt lat="43.01089" lon="1.14719">
        <ele>590.1</ele>
        <time>2025-12-28T10:05:45.000Z</time>
      </trkpt>
      <trkpt lat="43.01085" lon="1.14717">
        <ele>588.8</ele>
        <time>2025-12-28T10:05:46.000Z</time>
      </trkpt>
      <trkpt lat="43.01081" lon="1.14713">
        <ele>589</ele>
        <time>2025-12-28T10:05:47.000Z</time>
      </trkpt>
      <trkpt lat="43.01078" lon="1.1471">
        <ele>588.2</ele>
        <time>2025-12-28T10:05:48.000Z</time>
      </trkpt>
      <trkpt lat="43.01075" lon="1.14706">
        <ele>586.2</ele>
        <time>2025-12-28T10:05:49.000Z</time>
      </trkpt>
      <trkpt lat="43.01072" lon="1.14701">
        <ele>585.3</ele>
        <time>2025-12-28T10:05:50.000Z</time>
      </trkpt>
      <trkpt lat="43.01069" lon="1.14699">
        <ele>585</ele>
        <time>2025-12-28T10:05:51.000Z</time>
      </trkpt>
      <trkpt lat="43.01064" lon="1.14695">
        <ele>584.5</ele>
        <time>2025-12-28T10:05:52.000Z</time>
      </trkpt>
      <trkpt lat="43.01061" lon="1.14691">
        <ele>583</ele>
        <time>2025-12-28T10:05:53.000Z</time>
      </trkpt>
      <trkpt lat="43.01059" lon="1.1469">
        <ele>581.6</ele>
        <time>2025-12-28T10:05:54.000Z</time>
      </trkpt>
      <trkpt lat="43.01057" lon="1.14684">
        <ele>580.7</ele>
        <time>2025-12-28T10:05:55.000Z</time>
      </trkpt>
      <trkpt lat="43.01055" lon="1.14681">
        <ele>579.7</ele>
        <time>2025-12-28T10:05:56.000Z</time>
      </trkpt>
      <trkpt lat="43.01053" lon="1.14676">
        <ele>578.6</ele>
        <time>2025-12-28T10:05:57.000Z</time>
      </trkpt>
      <trkpt lat="43.01051" lon="1.14672">
        <ele>577.9</ele>
        <time>2025-12-28T10:05:58.000Z</time>
      </trkpt>
      <trkpt lat="43.01047" lon="1.14666">
        <ele>577.2</ele>
        <time>2025-12-28T10:05:59.000Z</time>
      </trkpt>
      <trkpt lat="43.01043" lon="1.14661">
        <ele>576.9</ele>
        <time>2025-12-28T10:06:00.000Z</time>
      </trkpt>
      <trkpt lat="43.01042" lon="1.14658">
        <ele>577</ele>
        <time>2025-12-28T10:06:01.000Z</time>
      </trkpt>
      <trkpt lat="43.0104" lon="1.14655">
        <ele>577.2</ele>
        <time>2025-12-28T10:06:02.000Z</time>
      </trkpt>
      <trkpt lat="43.01038" lon="1.1465">
        <ele>577</ele>
        <time>2025-12-28T10:06:03.000Z</time>
      </trkpt>
      <trkpt lat="43.01035" lon="1.14644">
        <ele>577.6</ele>
        <time>2025-12-28T10:06:04.000Z</time>
      </trkpt>
      <trkpt lat="43.01033" lon="1.14638">
        <ele>576</ele>
        <time>2025-12-28T10:06:05.000Z</time>
      </trkpt>
      <trkpt lat="43.0103" lon="1.14634">
        <ele>575.4</ele>
        <time>2025-12-28T10:06:06.000Z</time>
      </trkpt>
      <trkpt lat="43.01028" lon="1.14631">
        <ele>575.8</ele>
        <time>2025-12-28T10:06:07.000Z</time>
      </trkpt>
      <trkpt lat="43.01026" lon="1.14628">
        <ele>575.1</ele>
        <time>2025-12-28T10:06:08.000Z</time>
      </trkpt>
      <trkpt lat="43.01024" lon="1.14625">
        <ele>575.4</ele>
        <time>2025-12-28T10:06:09.000Z</time>
      </trkpt>
      <trkpt lat="43.01021" lon="1.14616">
        <ele>575.9</ele>
        <time>2025-12-28T10:06:10.000Z</time>
      </trkpt>
      <trkpt lat="43.01018" lon="1.14611">
        <ele>576.3</ele>
        <time>2025-12-28T10:06:11.000Z</time>
      </trkpt>
      <trkpt lat="43.01016" lon="1.14605">
        <ele>575.3</ele>
        <time>2025-12-28T10:06:12.000Z</time>
      </trkpt>
      <trkpt lat="43.01014" lon="1.14599">
        <ele>574.7</ele>
        <time>2025-12-28T10:06:13.000Z</time>
      </trkpt>
      <trkpt lat="43.01011" lon="1.14595">
        <ele>574.8</ele>
        <time>2025-12-28T10:06:14.000Z</time>
      </trkpt>
      <trkpt lat="43.01009" lon="1.14595">
        <ele>573.8</ele>
        <time>2025-12-28T10:06:15.000Z</time>
      </trkpt>
      <trkpt lat="43.01006" lon="1.14592">
        <ele>571.8</ele>
        <time>2025-12-28T10:06:16.000Z</time>
      </trkpt>
      <trkpt lat="43.01004" lon="1.14587">
        <ele>571.2</ele>
        <time>2025-12-28T10:06:17.000Z</time>
      </trkpt>
      <trkpt lat="43.01003" lon="1.14582">
        <ele>571.3</ele>
        <time>2025-12-28T10:06:18.000Z</time>
      </trkpt>
      <trkpt lat="43.01002" lon="1.14578">
        <ele>569.9</ele>
        <time>2025-12-28T10:06:19.000Z</time>
      </trkpt>
      <trkpt lat="43.00999" lon="1.14576">
        <ele>569.8</ele>
        <time>2025-12-28T10:06:20.000Z</time>
      </trkpt>
      <trkpt lat="43.00995" lon="1.14575">
        <ele>569.7</ele>
        <time>2025-12-28T10:06:21.000Z</time>
      </trkpt>
      <trkpt lat="43.00992" lon="1.14575">
        <ele>567.8</ele>
        <time>2025-12-28T10:06:22.000Z</time>
      </trkpt>
      <trkpt lat="43.00988" lon="1.14573">
        <ele>567.1</ele>
        <time>2025-12-28T10:06:23.000Z</time>
      </trkpt>
      <trkpt lat="43.00985" lon="1.1457">
        <ele>566.7</ele>
        <time>2025-12-28T10:06:24.000Z</time>
      </trkpt>
      <trkpt lat="43.00984" lon="1.14565">
        <ele>566.1</ele>
        <time>2025-12-28T10:06:25.000Z</time>
      </trkpt>
      <trkpt lat="43.00984" lon="1.1456">
        <ele>565.4</ele>
        <time>2025-12-28T10:06:26.000Z</time>
      </trkpt>
      <trkpt lat="43.00982" lon="1.14556">
        <ele>565.1</ele>
        <time>2025-12-28T10:06:27.000Z</time>
      </trkpt>
      <trkpt lat="43.00979" lon="1.14551">
        <ele>565.5</ele>
        <time>2025-12-28T10:06:28.000Z</time>
      </trkpt>
      <trkpt lat="43.00976" lon="1.14546">
        <ele>564.8</ele>
        <time>2025-12-28T10:06:29.000Z</time>
      </trkpt>
      <trkpt lat="43.00975" lon="1.14541">
        <ele>564.4</ele>
        <time>2025-12-28T10:06:30.000Z</time>
      </trkpt>
      <trkpt lat="43.00974" lon="1.14535">
        <ele>562.5</ele>
        <time>2025-12-28T10:06:31.000Z</time>
      </trkpt>
      <trkpt lat="43.00972" lon="1.1453">
        <ele>561.4</ele>
        <time>2025-12-28T10:06:32.000Z</time>
      </trkpt>
      <trkpt lat="43.00969" lon="1.14527">
        <ele>561</ele>
        <time>2025-12-28T10:06:33.000Z</time>
      </trkpt>
      <trkpt lat="43.00966" lon="1.14524">
        <ele>559.3</ele>
        <time>2025-12-28T10:06:34.000Z</time>
      </trkpt>
      <trkpt lat="43.00962" lon="1.14521">
        <ele>560.7</ele>
        <time>2025-12-28T10:06:35.000Z</time>
      </trkpt>
      <trkpt lat="43.00958" lon="1.14517">
        <ele>559.6</ele>
        <time>2025-12-28T10:06:36.000Z</time>
      </trkpt>
      <trkpt lat="43.00957" lon="1.14512">
        <ele>559.8</ele>
        <time>2025-12-28T10:06:37.000Z</time>
      </trkpt>
      <trkpt lat="43.00954" lon="1.14506">
        <ele>559.3</ele>
        <time>2025-12-28T10:06:38.000Z</time>
      </trkpt>
      <trkpt lat="43.00951" lon="1.145">
        <ele>559.3</ele>
        <time>2025-12-28T10:06:39.000Z</time>
      </trkpt>
      <trkpt lat="43.00948" lon="1.14494">
        <ele>559.7</ele>
        <time>2025-12-28T10:06:40.000Z</time>
      </trkpt>
      <trkpt lat="43.00946" lon="1.14486">
        <ele>557.2</ele>
        <time>2025-12-28T10:06:41.000Z</time>
      </trkpt>
      <trkpt lat="43.00943" lon="1.1448">
        <ele>557.5</ele>
        <time>2025-12-28T10:06:42.000Z</time>
      </trkpt>
      <trkpt lat="43.00941" lon="1.14472">
        <ele>557.1</ele>
        <time>2025-12-28T10:06:43.000Z</time>
      </trkpt>
      <trkpt lat="43.00938" lon="1.14464">
        <ele>556.1</ele>
        <time>2025-12-28T10:06:44.000Z</time>
      </trkpt>
      <trkpt lat="43.00935" lon="1.14459">
        <ele>555.9</ele>
        <time>2025-12-28T10:06:45.000Z</time>
      </trkpt>
      <trkpt lat="43.00931" lon="1.14451">
        <ele>555.9</ele>
        <time>2025-12-28T10:06:46.000Z</time>
      </trkpt>
      <trkpt lat="43.0093" lon="1.14442">
        <ele>555.2</ele>
        <time>2025-12-28T10:06:47.000Z</time>
      </trkpt>
      <trkpt lat="43.00929" lon="1.14438">
        <ele>555</ele>
        <time>2025-12-28T10:06:48.000Z</time>
      </trkpt>
      <trkpt lat="43.00926" lon="1.14434">
        <ele>555</ele>
        <time>2025-12-28T10:06:49.000Z</time>
      </trkpt>
      <trkpt lat="43.00923" lon="1.1443">
        <ele>551.7</ele>
        <time>2025-12-28T10:06:50.000Z</time>
      </trkpt>
      <trkpt lat="43.00919" lon="1.14425">
        <ele>551.3</ele>
        <time>2025-12-28T10:06:51.000Z</time>
      </trkpt>
      <trkpt lat="43.00915" lon="1.14424">
        <ele>552.2</ele>
        <time>2025-12-28T10:06:52.000Z</time>
      </trkpt>
      <trkpt lat="43.00913" lon="1.14422">
        <ele>549.8</ele>
        <time>2025-12-28T10:06:53.000Z</time>
      </trkpt>
      <trkpt lat="43.00909" lon="1.14418">
        <ele>547.7</ele>
        <time>2025-12-28T10:06:54.000Z</time>
      </trkpt>
      <trkpt lat="43.00905" lon="1.14417">
        <ele>547.4</ele>
        <time>2025-12-28T10:06:55.000Z</time>
      </trkpt>
      <trkpt lat="43.009" lon="1.14418">
        <ele>544.8</ele>
        <time>2025-12-28T10:06:56.000Z</time>
      </trkpt>
      <trkpt lat="43.00899" lon="1.14423">
        <ele>544.4</ele>
        <time>2025-12-28T10:06:57.000Z</time>
      </trkpt>
      <trkpt lat="43.00896" lon="1.14427">
        <ele>543.7</ele>
        <time>2025-12-28T10:06:58.000Z</time>
      </trkpt>
      <trkpt lat="43.00894" lon="1.1443">
        <ele>541.4</ele>
        <time>2025-12-28T10:06:59.000Z</time>
      </trkpt>
      <trkpt lat="43.00894" lon="1.14437">
        <ele>541.8</ele>
        <time>2025-12-28T10:07:00.000Z</time>
      </trkpt>
      <trkpt lat="43.00892" lon="1.14444">
        <ele>540.3</ele>
        <time>2025-12-28T10:07:01.000Z</time>
      </trkpt>
      <trkpt lat="43.00888" lon="1.14448">
        <ele>538.5</ele>
        <time>2025-12-28T10:07:02.000Z</time>
      </trkpt>
      <trkpt lat="43.00885" lon="1.1445">
        <ele>538.3</ele>
        <time>2025-12-28T10:07:03.000Z</time>
      </trkpt>
      <trkpt lat="43.0088" lon="1.14452">
        <ele>537.3</ele>
        <time>2025-12-28T10:07:04.000Z</time>
      </trkpt>
      <trkpt lat="43.00875" lon="1.14454">
        <ele>536</ele>
        <time>2025-12-28T10:07:05.000Z</time>
      </trkpt>
      <trkpt lat="43.00869" lon="1.14454">
        <ele>536.3</ele>
        <time>2025-12-28T10:07:06.000Z</time>
      </trkpt>
      <trkpt lat="43.00867" lon="1.14449">
        <ele>533.6</ele>
        <time>2025-12-28T10:07:07.000Z</time>
      </trkpt>
      <trkpt lat="43.00862" lon="1.14447">
        <ele>533.1</ele>
        <time>2025-12-28T10:07:08.000Z</time>
      </trkpt>
      <trkpt lat="43.00861" lon="1.14441">
        <ele>532</ele>
        <time>2025-12-28T10:07:09.000Z</time>
      </trkpt>
      <trkpt lat="43.0086" lon="1.14434">
        <ele>532.2</ele>
        <time>2025-12-28T10:07:10.000Z</time>
      </trkpt>
      <trkpt lat="43.0086" lon="1.14424">
        <ele>532.7</ele>
        <time>2025-12-28T10:07:11.000Z</time>
      </trkpt>
      <trkpt lat="43.00864" lon="1.14416">
        <ele>531.6</ele>
        <time>2025-12-28T10:07:12.000Z</time>
      </trkpt>
      <trkpt lat="43.00864" lon="1.14409">
        <ele>531.7</ele>
        <time>2025-12-28T10:07:13.000Z</time>
      </trkpt>
      <trkpt lat="43.00867" lon="1.14403">
        <ele>531.5</ele>
        <time>2025-12-28T10:07:14.000Z</time>
      </trkpt>
      <trkpt lat="43.00867" lon="1.14396">
        <ele>530.6</ele>
        <time>2025-12-28T10:07:15.000Z</time>
      </trkpt>
      <trkpt lat="43.00864" lon="1.14395">
        <ele>531.7</ele>
        <time>2025-12-28T10:07:16.000Z</time>
      </trkpt>
      <trkpt lat="43.00864" lon="1.14394">
        <ele>532</ele>
        <time>2025-12-28T10:07:17.000Z</time>
      </trkpt>
      <trkpt lat="43.00862" lon="1.14397">
        <ele>532.4</ele>
        <time>2025-12-28T10:07:18.000Z</time>
      </trkpt>
      <trkpt lat="43.00857" lon="1.14397">
        <ele>532</ele>
        <time>2025-12-28T10:07:19.000Z</time>
      </trkpt>
      <trkpt lat="43.00853" lon="1.14396">
        <ele>531.8</ele>
        <time>2025-12-28T10:07:20.000Z</time>
      </trkpt>
      <trkpt lat="43.00849" lon="1.14395">
        <ele>530.2</ele>
        <time>2025-12-28T10:07:21.000Z</time>
      </trkpt>
      <trkpt lat="43.00844" lon="1.14395">
        <ele>529.4</ele>
        <time>2025-12-28T10:07:22.000Z</time>
      </trkpt>
      <trkpt lat="43.00838" lon="1.14393">
        <ele>527.9</ele>
        <time>2025-12-28T10:07:23.000Z</time>
      </trkpt>
      <trkpt lat="43.00838" lon="1.14393">
        <ele>528.1</ele>
        <time>2025-12-28T10:07:24.000Z</time>
      </trkpt>
      <trkpt lat="43.00838" lon="1.14393">
        <ele>528.3</ele>
        <time>2025-12-28T10:07:25.000Z</time>
      </trkpt>
      <trkpt lat="43.00838" lon="1.14393">
        <ele>528.3</ele>
        <time>2025-12-28T10:07:26.000Z</time>
      </trkpt>
      <trkpt lat="43.00838" lon="1.14393">
        <ele>528.6</ele>
        <time>2025-12-28T10:07:27.000Z</time>
      </trkpt>
      <trkpt lat="43.00838" lon="1.14393">
        <ele>528.3</ele>
        <time>2025-12-28T10:07:28.000Z</time>
      </trkpt>
      <trkpt lat="43.00838" lon="1.14393">
        <ele>528.3</ele>
        <time>2025-12-28T10:07:29.000Z</time>
      </trkpt>
      <trkpt lat="43.00838" lon="1.14393">
        <ele>528.2</ele>
        <time>2025-12-28T10:07:30.000Z</time>
      </trkpt>
      <trkpt lat="43.00838" lon="1.14391">
        <ele>526.9</ele>
        <time>2025-12-28T10:07:31.000Z</time>
      </trkpt>
      <trkpt lat="43.00838" lon="1.14388">
        <ele>527.9</ele>
        <time>2025-12-28T10:07:32.000Z</time>
      </trkpt>
      <trkpt lat="43.00837" lon="1.14385">
        <ele>527.6</ele>
        <time>2025-12-28T10:07:33.000Z</time>
      </trkpt>
      <trkpt lat="43.00838" lon="1.14381">
        <ele>526.2</ele>
        <time>2025-12-28T10:07:34.000Z</time>
      </trkpt>
      <trkpt lat="43.00837" lon="1.14377">
        <ele>525.7</ele>
        <time>2025-12-28T10:07:35.000Z</time>
      </trkpt>
      <trkpt lat="43.00837" lon="1.14372">
        <ele>526</ele>
        <time>2025-12-28T10:07:36.000Z</time>
      </trkpt>
      <trkpt lat="43.00838" lon="1.14368">
        <ele>526.2</ele>
        <time>2025-12-28T10:07:37.000Z</time>
      </trkpt>
      <trkpt lat="43.00839" lon="1.14363">
        <ele>526</ele>
        <time>2025-12-28T10:07:38.000Z</time>
      </trkpt>
      <trkpt lat="43.00839" lon="1.14357">
        <ele>527</ele>
        <time>2025-12-28T10:07:39.000Z</time>
      </trkpt>
      <trkpt lat="43.00841" lon="1.14351">
        <ele>526.2</ele>
        <time>2025-12-28T10:07:40.000Z</time>
      </trkpt>
      <trkpt lat="43.00842" lon="1.14341">
        <ele>525.7</ele>
        <time>2025-12-28T10:07:41.000Z</time>
      </trkpt>
      <trkpt lat="43.00844" lon="1.14331">
        <ele>524.1</ele>
        <time>2025-12-28T10:07:42.000Z</time>
      </trkpt>
      <trkpt lat="43.00842" lon="1.14322">
        <ele>523.5</ele>
        <time>2025-12-28T10:07:43.000Z</time>
      </trkpt>
      <trkpt lat="43.00842" lon="1.1431">
        <ele>520.6</ele>
        <time>2025-12-28T10:07:44.000Z</time>
      </trkpt>
      <trkpt lat="43.00839" lon="1.14299">
        <ele>520.8</ele>
        <time>2025-12-28T10:07:45.000Z</time>
      </trkpt>
      <trkpt lat="43.00836" lon="1.14287">
        <ele>519.7</ele>
        <time>2025-12-28T10:07:46.000Z</time>
      </trkpt>
      <trkpt lat="43.00831" lon="1.14277">
        <ele>518.3</ele>
        <time>2025-12-28T10:07:47.000Z</time>
      </trkpt>
      <trkpt lat="43.00827" lon="1.14266">
        <ele>517.5</ele>
        <time>2025-12-28T10:07:48.000Z</time>
      </trkpt>
      <trkpt lat="43.00821" lon="1.14259">
        <ele>517.2</ele>
        <time>2025-12-28T10:07:49.000Z</time>
      </trkpt>
      <trkpt lat="43.00816" lon="1.14252">
        <ele>517</ele>
        <time>2025-12-28T10:07:50.000Z</time>
      </trkpt>
      <trkpt lat="43.00809" lon="1.14243">
        <ele>517.1</ele>
        <time>2025-12-28T10:07:51.000Z</time>
      </trkpt>
      <trkpt lat="43.00804" lon="1.14236">
        <ele>517.4</ele>
        <time>2025-12-28T10:07:52.000Z</time>
      </trkpt>
      <trkpt lat="43.00798" lon="1.14232">
        <ele>517.8</ele>
        <time>2025-12-28T10:07:53.000Z</time>
      </trkpt>
      <trkpt lat="43.00793" lon="1.14226">
        <ele>516.1</ele>
        <time>2025-12-28T10:07:54.000Z</time>
      </trkpt>
      <trkpt lat="43.00787" lon="1.14222">
        <ele>515.5</ele>
        <time>2025-12-28T10:07:55.000Z</time>
      </trkpt>
      <trkpt lat="43.00782" lon="1.14215">
        <ele>515.3</ele>
        <time>2025-12-28T10:07:56.000Z</time>
      </trkpt>
      <trkpt lat="43.00776" lon="1.14209">
        <ele>513.9</ele>
        <time>2025-12-28T10:07:57.000Z</time>
      </trkpt>
      <trkpt lat="43.0077" lon="1.14206">
        <ele>513.4</ele>
        <time>2025-12-28T10:07:58.000Z</time>
      </trkpt>
      <trkpt lat="43.00765" lon="1.142">
        <ele>510.8</ele>
        <time>2025-12-28T10:07:59.000Z</time>
      </trkpt>
      <trkpt lat="43.00758" lon="1.14194">
        <ele>510.5</ele>
        <time>2025-12-28T10:08:00.000Z</time>
      </trkpt>
      <trkpt lat="43.00754" lon="1.14187">
        <ele>507.1</ele>
        <time>2025-12-28T10:08:01.000Z</time>
      </trkpt>
      <trkpt lat="43.00748" lon="1.1418">
        <ele>504.5</ele>
        <time>2025-12-28T10:08:02.000Z</time>
      </trkpt>
      <trkpt lat="43.00742" lon="1.14174">
        <ele>503.3</ele>
        <time>2025-12-28T10:08:03.000Z</time>
      </trkpt>
      <trkpt lat="43.00736" lon="1.14166">
        <ele>502.1</ele>
        <time>2025-12-28T10:08:04.000Z</time>
      </trkpt>
      <trkpt lat="43.0073" lon="1.14159">
        <ele>502.3</ele>
        <time>2025-12-28T10:08:05.000Z</time>
      </trkpt>
      <trkpt lat="43.00723" lon="1.14151">
        <ele>500.4</ele>
        <time>2025-12-28T10:08:06.000Z</time>
      </trkpt>
      <trkpt lat="43.00717" lon="1.14143">
        <ele>500.1</ele>
        <time>2025-12-28T10:08:07.000Z</time>
      </trkpt>
      <trkpt lat="43.0071" lon="1.14136">
        <ele>500.3</ele>
        <time>2025-12-28T10:08:08.000Z</time>
      </trkpt>
      <trkpt lat="43.00704" lon="1.14129">
        <ele>500.5</ele>
        <time>2025-12-28T10:08:09.000Z</time>
      </trkpt>
      <trkpt lat="43.00696" lon="1.14123">
        <ele>500.7</ele>
        <time>2025-12-28T10:08:10.000Z</time>
      </trkpt>
      <trkpt lat="43.0069" lon="1.14117">
        <ele>500.7</ele>
        <time>2025-12-28T10:08:11.000Z</time>
      </trkpt>
      <trkpt lat="43.00685" lon="1.14112">
        <ele>500.9</ele>
        <time>2025-12-28T10:08:12.000Z</time>
      </trkpt>
      <trkpt lat="43.0068" lon="1.14107">
        <ele>500.6</ele>
        <time>2025-12-28T10:08:13.000Z</time>
      </trkpt>
      <trkpt lat="43.00677" lon="1.14096">
        <ele>499.9</ele>
        <time>2025-12-28T10:08:14.000Z</time>
      </trkpt>
      <trkpt lat="43.00675" lon="1.14089">
        <ele>502.6</ele>
        <time>2025-12-28T10:08:15.000Z</time>
      </trkpt>
      <trkpt lat="43.0067" lon="1.14082">
        <ele>500.8</ele>
        <time>2025-12-28T10:08:16.000Z</time>
      </trkpt>
      <trkpt lat="43.00665" lon="1.14075">
        <ele>500.2</ele>
        <time>2025-12-28T10:08:17.000Z</time>
      </trkpt>
      <trkpt lat="43.00661" lon="1.14066">
        <ele>498.9</ele>
        <time>2025-12-28T10:08:18.000Z</time>
      </trkpt>
      <trkpt lat="43.00657" lon="1.1406">
        <ele>500.9</ele>
        <time>2025-12-28T10:08:19.000Z</time>
      </trkpt>
      <trkpt lat="43.00652" lon="1.1405">
        <ele>500.7</ele>
        <time>2025-12-28T10:08:20.000Z</time>
      </trkpt>
      <trkpt lat="43.00647" lon="1.14041">
        <ele>501.2</ele>
        <time>2025-12-28T10:08:21.000Z</time>
      </trkpt>
      <trkpt lat="43.0064" lon="1.14034">
        <ele>499.1</ele>
        <time>2025-12-28T10:08:22.000Z</time>
      </trkpt>
      <trkpt lat="43.00635" lon="1.14027">
        <ele>498.2</ele>
        <time>2025-12-28T10:08:23.000Z</time>
      </trkpt>
      <trkpt lat="43.0063" lon="1.14018">
        <ele>497.1</ele>
        <time>2025-12-28T10:08:24.000Z</time>
      </trkpt>
      <trkpt lat="43.00625" lon="1.14009">
        <ele>496.7</ele>
        <time>2025-12-28T10:08:25.000Z</time>
      </trkpt>
      <trkpt lat="43.0062" lon="1.14001">
        <ele>496.1</ele>
        <time>2025-12-28T10:08:26.000Z</time>
      </trkpt>
      <trkpt lat="43.00614" lon="1.13994">
        <ele>495.3</ele>
        <time>2025-12-28T10:08:27.000Z</time>
      </trkpt>
      <trkpt lat="43.00609" lon="1.13987">
        <ele>495</ele>
        <time>2025-12-28T10:08:28.000Z</time>
      </trkpt>
      <trkpt lat="43.00604" lon="1.13981">
        <ele>495.3</ele>
        <time>2025-12-28T10:08:29.000Z</time>
      </trkpt>
      <trkpt lat="43.006" lon="1.13976">
        <ele>494.7</ele>
        <time>2025-12-28T10:08:30.000Z</time>
      </trkpt>
      <trkpt lat="43.00596" lon="1.1397">
        <ele>493.9</ele>
        <time>2025-12-28T10:08:31.000Z</time>
      </trkpt>
      <trkpt lat="43.00593" lon="1.13965">
        <ele>494</ele>
        <time>2025-12-28T10:08:32.000Z</time>
      </trkpt>
      <trkpt lat="43.00589" lon="1.13961">
        <ele>493.9</ele>
        <time>2025-12-28T10:08:33.000Z</time>
      </trkpt>
      <trkpt lat="43.00586" lon="1.13955">
        <ele>494.1</ele>
        <time>2025-12-28T10:08:34.000Z</time>
      </trkpt>
      <trkpt lat="43.00582" lon="1.1395">
        <ele>494.7</ele>
        <time>2025-12-28T10:08:35.000Z</time>
      </trkpt>
      <trkpt lat="43.00579" lon="1.13944">
        <ele>495.1</ele>
        <time>2025-12-28T10:08:36.000Z</time>
      </trkpt>
      <trkpt lat="43.00577" lon="1.13938">
        <ele>494.7</ele>
        <time>2025-12-28T10:08:37.000Z</time>
      </trkpt>
      <trkpt lat="43.00575" lon="1.13931">
        <ele>495.1</ele>
        <time>2025-12-28T10:08:38.000Z</time>
      </trkpt>
      <trkpt lat="43.00572" lon="1.13925">
        <ele>495.3</ele>
        <time>2025-12-28T10:08:39.000Z</time>
      </trkpt>
      <trkpt lat="43.0057" lon="1.13919">
        <ele>495.4</ele>
        <time>2025-12-28T10:08:40.000Z</time>
      </trkpt>
      <trkpt lat="43.00568" lon="1.13913">
        <ele>495.2</ele>
        <time>2025-12-28T10:08:41.000Z</time>
      </trkpt>
      <trkpt lat="43.00565" lon="1.13907">
        <ele>496.7</ele>
        <time>2025-12-28T10:08:42.000Z</time>
      </trkpt>
      <trkpt lat="43.00563" lon="1.13902">
        <ele>495.6</ele>
        <time>2025-12-28T10:08:43.000Z</time>
      </trkpt>
      <trkpt lat="43.00562" lon="1.13897">
        <ele>495.7</ele>
        <time>2025-12-28T10:08:44.000Z</time>
      </trkpt>
      <trkpt lat="43.0056" lon="1.13893">
        <ele>497.2</ele>
        <time>2025-12-28T10:08:45.000Z</time>
      </trkpt>
      <trkpt lat="43.00558" lon="1.13889">
        <ele>495.6</ele>
        <time>2025-12-28T10:08:46.000Z</time>
      </trkpt>
      <trkpt lat="43.00555" lon="1.13884">
        <ele>496</ele>
        <time>2025-12-28T10:08:47.000Z</time>
      </trkpt>
      <trkpt lat="43.00552" lon="1.1388">
        <ele>497.6</ele>
        <time>2025-12-28T10:08:48.000Z</time>
      </trkpt>
      <trkpt lat="43.00548" lon="1.13876">
        <ele>500</ele>
        <time>2025-12-28T10:08:49.000Z</time>
      </trkpt>
      <trkpt lat="43.00546" lon="1.13872">
        <ele>500.5</ele>
        <time>2025-12-28T10:08:50.000Z</time>
      </trkpt>
      <trkpt lat="43.00544" lon="1.13867">
        <ele>499.5</ele>
        <time>2025-12-28T10:08:51.000Z</time>
      </trkpt>
      <trkpt lat="43.00543" lon="1.1386">
        <ele>501</ele>
        <time>2025-12-28T10:08:52.000Z</time>
      </trkpt>
      <trkpt lat="43.00541" lon="1.13855">
        <ele>501.1</ele>
        <time>2025-12-28T10:08:53.000Z</time>
      </trkpt>
      <trkpt lat="43.00538" lon="1.13849">
        <ele>501.5</ele>
        <time>2025-12-28T10:08:54.000Z</time>
      </trkpt>
      <trkpt lat="43.00535" lon="1.13845">
        <ele>501.1</ele>
        <time>2025-12-28T10:08:55.000Z</time>
      </trkpt>
      <trkpt lat="43.00531" lon="1.1384">
        <ele>501</ele>
        <time>2025-12-28T10:08:56.000Z</time>
      </trkpt>
      <trkpt lat="43.00527" lon="1.13834">
        <ele>501.8</ele>
        <time>2025-12-28T10:08:57.000Z</time>
      </trkpt>
      <trkpt lat="43.00518" lon="1.13829">
        <ele>501.1</ele>
        <time>2025-12-28T10:08:58.000Z</time>
      </trkpt>
      <trkpt lat="43.00513" lon="1.13824">
        <ele>500.6</ele>
        <time>2025-12-28T10:08:59.000Z</time>
      </trkpt>
      <trkpt lat="43.00507" lon="1.1382">
        <ele>499.9</ele>
        <time>2025-12-28T10:09:00.000Z</time>
      </trkpt>
      <trkpt lat="43.00502" lon="1.13816">
        <ele>500.3</ele>
        <time>2025-12-28T10:09:01.000Z</time>
      </trkpt>
      <trkpt lat="43.00497" lon="1.13811">
        <ele>500.3</ele>
        <time>2025-12-28T10:09:02.000Z</time>
      </trkpt>
      <trkpt lat="43.00491" lon="1.13805">
        <ele>500.3</ele>
        <time>2025-12-28T10:09:03.000Z</time>
      </trkpt>
      <trkpt lat="43.00485" lon="1.138">
        <ele>499.8</ele>
        <time>2025-12-28T10:09:04.000Z</time>
      </trkpt>
      <trkpt lat="43.0048" lon="1.13794">
        <ele>499.8</ele>
        <time>2025-12-28T10:09:05.000Z</time>
      </trkpt>
      <trkpt lat="43.00474" lon="1.13787">
        <ele>499.6</ele>
        <time>2025-12-28T10:09:06.000Z</time>
      </trkpt>
      <trkpt lat="43.00469" lon="1.1378">
        <ele>498.9</ele>
        <time>2025-12-28T10:09:07.000Z</time>
      </trkpt>
      <trkpt lat="43.00465" lon="1.13774">
        <ele>498.7</ele>
        <time>2025-12-28T10:09:08.000Z</time>
      </trkpt>
      <trkpt lat="43.00461" lon="1.13767">
        <ele>498.8</ele>
        <time>2025-12-28T10:09:09.000Z</time>
      </trkpt>
      <trkpt lat="43.00458" lon="1.13761">
        <ele>499</ele>
        <time>2025-12-28T10:09:10.000Z</time>
      </trkpt>
      <trkpt lat="43.00454" lon="1.13756">
        <ele>498.1</ele>
        <time>2025-12-28T10:09:11.000Z</time>
      </trkpt>
      <trkpt lat="43.00452" lon="1.13753">
        <ele>499</ele>
        <time>2025-12-28T10:09:12.000Z</time>
      </trkpt>
      <trkpt lat="43.0045" lon="1.13751">
        <ele>499.1</ele>
        <time>2025-12-28T10:09:13.000Z</time>
      </trkpt>
      <trkpt lat="43.00447" lon="1.13752">
        <ele>500.1</ele>
        <time>2025-12-28T10:09:14.000Z</time>
      </trkpt>
      <trkpt lat="43.00445" lon="1.13754">
        <ele>499.9</ele>
        <time>2025-12-28T10:09:15.000Z</time>
      </trkpt>
      <trkpt lat="43.00444" lon="1.13756">
        <ele>500.9</ele>
        <time>2025-12-28T10:09:16.000Z</time>
      </trkpt>
      <trkpt lat="43.00442" lon="1.13759">
        <ele>501.2</ele>
        <time>2025-12-28T10:09:17.000Z</time>
      </trkpt>
      <trkpt lat="43.0044" lon="1.13761">
        <ele>501.2</ele>
        <time>2025-12-28T10:09:18.000Z</time>
      </trkpt>
      <trkpt lat="43.00439" lon="1.13763">
        <ele>500.9</ele>
        <time>2025-12-28T10:09:19.000Z</time>
      </trkpt>
      <trkpt lat="43.00438" lon="1.13764">
        <ele>502.4</ele>
        <time>2025-12-28T10:09:20.000Z</time>
      </trkpt>
      <trkpt lat="43.00436" lon="1.13766">
        <ele>503.3</ele>
        <time>2025-12-28T10:09:21.000Z</time>
      </trkpt>
      <trkpt lat="43.00435" lon="1.13767">
        <ele>504.1</ele>
        <time>2025-12-28T10:09:22.000Z</time>
      </trkpt>
      <trkpt lat="43.00433" lon="1.13769">
        <ele>504.5</ele>
        <time>2025-12-28T10:09:23.000Z</time>
      </trkpt>
      <trkpt lat="43.00431" lon="1.13772">
        <ele>505.9</ele>
        <time>2025-12-28T10:09:24.000Z</time>
      </trkpt>
      <trkpt lat="43.0043" lon="1.13775">
        <ele>506</ele>
        <time>2025-12-28T10:09:25.000Z</time>
      </trkpt>
      <trkpt lat="43.00428" lon="1.13778">
        <ele>507.5</ele>
        <time>2025-12-28T10:09:26.000Z</time>
      </trkpt>
      <trkpt lat="43.00426" lon="1.13781">
        <ele>506.3</ele>
        <time>2025-12-28T10:09:27.000Z</time>
      </trkpt>
      <trkpt lat="43.00425" lon="1.13784">
        <ele>506.2</ele>
        <time>2025-12-28T10:09:28.000Z</time>
      </trkpt>
      <trkpt lat="43.00424" lon="1.13787">
        <ele>507.1</ele>
        <time>2025-12-28T10:09:29.000Z</time>
      </trkpt>
      <trkpt lat="43.00423" lon="1.13791">
        <ele>508</ele>
        <time>2025-12-28T10:09:30.000Z</time>
      </trkpt>
      <trkpt lat="43.00421" lon="1.13794">
        <ele>509.8</ele>
        <time>2025-12-28T10:09:31.000Z</time>
      </trkpt>
      <trkpt lat="43.00421" lon="1.13799">
        <ele>509.6</ele>
        <time>2025-12-28T10:09:32.000Z</time>
      </trkpt>
      <trkpt lat="43.0042" lon="1.13804">
        <ele>508.7</ele>
        <time>2025-12-28T10:09:33.000Z</time>
      </trkpt>
      <trkpt lat="43.00419" lon="1.13809">
        <ele>508.6</ele>
        <time>2025-12-28T10:09:34.000Z</time>
      </trkpt>
      <trkpt lat="43.00418" lon="1.13813">
        <ele>507.4</ele>
        <time>2025-12-28T10:09:35.000Z</time>
      </trkpt>
      <trkpt lat="43.00416" lon="1.13817">
        <ele>506.7</ele>
        <time>2025-12-28T10:09:36.000Z</time>
      </trkpt>
      <trkpt lat="43.00414" lon="1.1382">
        <ele>506.3</ele>
        <time>2025-12-28T10:09:37.000Z</time>
      </trkpt>
      <trkpt lat="43.00412" lon="1.13822">
        <ele>506.2</ele>
        <time>2025-12-28T10:09:38.000Z</time>
      </trkpt>
      <trkpt lat="43.00409" lon="1.13824">
        <ele>504.8</ele>
        <time>2025-12-28T10:09:39.000Z</time>
      </trkpt>
      <trkpt lat="43.00406" lon="1.13827">
        <ele>505</ele>
        <time>2025-12-28T10:09:40.000Z</time>
      </trkpt>
      <trkpt lat="43.00403" lon="1.13829">
        <ele>505</ele>
        <time>2025-12-28T10:09:41.000Z</time>
      </trkpt>
      <trkpt lat="43.00399" lon="1.13832">
        <ele>504.9</ele>
        <time>2025-12-28T10:09:42.000Z</time>
      </trkpt>
      <trkpt lat="43.00395" lon="1.13835">
        <ele>503.9</ele>
        <time>2025-12-28T10:09:43.000Z</time>
      </trkpt>
      <trkpt lat="43.00391" lon="1.13835">
        <ele>503.6</ele>
        <time>2025-12-28T10:09:44.000Z</time>
      </trkpt>
      <trkpt lat="43.00387" lon="1.13835">
        <ele>501.3</ele>
        <time>2025-12-28T10:09:45.000Z</time>
      </trkpt>
      <trkpt lat="43.00383" lon="1.13834">
        <ele>501.8</ele>
        <time>2025-12-28T10:09:46.000Z</time>
      </trkpt>
      <trkpt lat="43.00378" lon="1.13838">
        <ele>501.6</ele>
        <time>2025-12-28T10:09:47.000Z</time>
      </trkpt>
      <trkpt lat="43.00375" lon="1.13842">
        <ele>501.8</ele>
        <time>2025-12-28T10:09:48.000Z</time>
      </trkpt>
      <trkpt lat="43.00371" lon="1.13846">
        <ele>501.7</ele>
        <time>2025-12-28T10:09:49.000Z</time>
      </trkpt>
      <trkpt lat="43.00368" lon="1.1385">
        <ele>500.6</ele>
        <time>2025-12-28T10:09:50.000Z</time>
      </trkpt>
      <trkpt lat="43.00363" lon="1.13856">
        <ele>499.9</ele>
        <time>2025-12-28T10:09:51.000Z</time>
      </trkpt>
      <trkpt lat="43.00358" lon="1.13861">
        <ele>500.5</ele>
        <time>2025-12-28T10:09:52.000Z</time>
      </trkpt>
      <trkpt lat="43.00353" lon="1.13865">
        <ele>499.7</ele>
        <time>2025-12-28T10:09:53.000Z</time>
      </trkpt>
      <trkpt lat="43.00346" lon="1.13868">
        <ele>498.3</ele>
        <time>2025-12-28T10:09:54.000Z</time>
      </trkpt>
      <trkpt lat="43.0034" lon="1.13871">
        <ele>498.2</ele>
        <time>2025-12-28T10:09:55.000Z</time>
      </trkpt>
      <trkpt lat="43.00333" lon="1.13874">
        <ele>497.5</ele>
        <time>2025-12-28T10:09:56.000Z</time>
      </trkpt>
      <trkpt lat="43.00326" lon="1.1388">
        <ele>497.6</ele>
        <time>2025-12-28T10:09:57.000Z</time>
      </trkpt>
      <trkpt lat="43.0032" lon="1.13885">
        <ele>497.6</ele>
        <time>2025-12-28T10:09:58.000Z</time>
      </trkpt>
      <trkpt lat="43.00315" lon="1.13889">
        <ele>496.8</ele>
        <time>2025-12-28T10:09:59.000Z</time>
      </trkpt>
      <trkpt lat="43.0031" lon="1.13891">
        <ele>496</ele>
        <time>2025-12-28T10:10:00.000Z</time>
      </trkpt>
      <trkpt lat="43.00304" lon="1.1389">
        <ele>495.3</ele>
        <time>2025-12-28T10:10:01.000Z</time>
      </trkpt>
      <trkpt lat="43.00299" lon="1.13885">
        <ele>494.3</ele>
        <time>2025-12-28T10:10:02.000Z</time>
      </trkpt>
      <trkpt lat="43.00295" lon="1.1388">
        <ele>493.5</ele>
        <time>2025-12-28T10:10:03.000Z</time>
      </trkpt>
      <trkpt lat="43.00291" lon="1.13875">
        <ele>493.4</ele>
        <time>2025-12-28T10:10:04.000Z</time>
      </trkpt>
      <trkpt lat="43.00286" lon="1.1387">
        <ele>493.6</ele>
        <time>2025-12-28T10:10:05.000Z</time>
      </trkpt>
      <trkpt lat="43.00281" lon="1.13863">
        <ele>492.7</ele>
        <time>2025-12-28T10:10:06.000Z</time>
      </trkpt>
      <trkpt lat="43.00276" lon="1.13857">
        <ele>490.5</ele>
        <time>2025-12-28T10:10:07.000Z</time>
      </trkpt>
      <trkpt lat="43.0027" lon="1.1385">
        <ele>490.2</ele>
        <time>2025-12-28T10:10:08.000Z</time>
      </trkpt>
      <trkpt lat="43.00265" lon="1.13844">
        <ele>489.7</ele>
        <time>2025-12-28T10:10:09.000Z</time>
      </trkpt>
      <trkpt lat="43.0026" lon="1.13837">
        <ele>489.3</ele>
        <time>2025-12-28T10:10:10.000Z</time>
      </trkpt>
      <trkpt lat="43.00255" lon="1.13831">
        <ele>489.1</ele>
        <time>2025-12-28T10:10:11.000Z</time>
      </trkpt>
      <trkpt lat="43.00249" lon="1.13824">
        <ele>488.1</ele>
        <time>2025-12-28T10:10:12.000Z</time>
      </trkpt>
      <trkpt lat="43.00243" lon="1.13817">
        <ele>487.6</ele>
        <time>2025-12-28T10:10:13.000Z</time>
      </trkpt>
      <trkpt lat="43.00237" lon="1.1381">
        <ele>486.7</ele>
        <time>2025-12-28T10:10:14.000Z</time>
      </trkpt>
      <trkpt lat="43.00231" lon="1.13802">
        <ele>486.3</ele>
        <time>2025-12-28T10:10:15.000Z</time>
      </trkpt>
      <trkpt lat="43.00226" lon="1.13795">
        <ele>485.3</ele>
        <time>2025-12-28T10:10:16.000Z</time>
      </trkpt>
      <trkpt lat="43.0022" lon="1.13789">
        <ele>485.3</ele>
        <time>2025-12-28T10:10:17.000Z</time>
      </trkpt>
      <trkpt lat="43.00212" lon="1.13785">
        <ele>485.3</ele>
        <time>2025-12-28T10:10:18.000Z</time>
      </trkpt>
      <trkpt lat="43.00204" lon="1.13785">
        <ele>483</ele>
        <time>2025-12-28T10:10:19.000Z</time>
      </trkpt>
      <trkpt lat="43.00196" lon="1.13786">
        <ele>481.7</ele>
        <time>2025-12-28T10:10:20.000Z</time>
      </trkpt>
      <trkpt lat="43.0019" lon="1.13787">
        <ele>481</ele>
        <time>2025-12-28T10:10:21.000Z</time>
      </trkpt>
      <trkpt lat="43.00184" lon="1.13785">
        <ele>479.5</ele>
        <time>2025-12-28T10:10:22.000Z</time>
      </trkpt>
      <trkpt lat="43.00178" lon="1.13781">
        <ele>478.8</ele>
        <time>2025-12-28T10:10:23.000Z</time>
      </trkpt>
      <trkpt lat="43.00176" lon="1.13775">
        <ele>478.2</ele>
        <time>2025-12-28T10:10:24.000Z</time>
      </trkpt>
      <trkpt lat="43.00175" lon="1.13767">
        <ele>477.8</ele>
        <time>2025-12-28T10:10:25.000Z</time>
      </trkpt>
      <trkpt lat="43.00176" lon="1.13763">
        <ele>478.7</ele>
        <time>2025-12-28T10:10:26.000Z</time>
      </trkpt>
      <trkpt lat="43.00178" lon="1.13758">
        <ele>478.8</ele>
        <time>2025-12-28T10:10:27.000Z</time>
      </trkpt>
      <trkpt lat="43.0018" lon="1.13752">
        <ele>479.2</ele>
        <time>2025-12-28T10:10:28.000Z</time>
      </trkpt>
      <trkpt lat="43.00184" lon="1.13746">
        <ele>479.2</ele>
        <time>2025-12-28T10:10:29.000Z</time>
      </trkpt>
      <trkpt lat="43.00188" lon="1.1374">
        <ele>479.2</ele>
        <time>2025-12-28T10:10:30.000Z</time>
      </trkpt>
      <trkpt lat="43.00192" lon="1.13734">
        <ele>479.4</ele>
        <time>2025-12-28T10:10:31.000Z</time>
      </trkpt>
      <trkpt lat="43.00196" lon="1.13728">
        <ele>480</ele>
        <time>2025-12-28T10:10:32.000Z</time>
      </trkpt>
      <trkpt lat="43.002" lon="1.13721">
        <ele>479.5</ele>
        <time>2025-12-28T10:10:33.000Z</time>
      </trkpt>
      <trkpt lat="43.00203" lon="1.13716">
        <ele>479.1</ele>
        <time>2025-12-28T10:10:34.000Z</time>
      </trkpt>
      <trkpt lat="43.00204" lon="1.13709">
        <ele>478.6</ele>
        <time>2025-12-28T10:10:35.000Z</time>
      </trkpt>
      <trkpt lat="43.00205" lon="1.13701">
        <ele>478.6</ele>
        <time>2025-12-28T10:10:36.000Z</time>
      </trkpt>
      <trkpt lat="43.00206" lon="1.13694">
        <ele>478.8</ele>
        <time>2025-12-28T10:10:37.000Z</time>
      </trkpt>
      <trkpt lat="43.00209" lon="1.13686">
        <ele>478.6</ele>
        <time>2025-12-28T10:10:38.000Z</time>
      </trkpt>
      <trkpt lat="43.002" lon="1.13679">
        <ele>478.5</ele>
        <time>2025-12-28T10:10:39.000Z</time>
      </trkpt>
      <trkpt lat="43.00198" lon="1.13669">
        <ele>478.5</ele>
        <time>2025-12-28T10:10:40.000Z</time>
      </trkpt>
      <trkpt lat="43.00201" lon="1.13661">
        <ele>478.6</ele>
        <time>2025-12-28T10:10:41.000Z</time>
      </trkpt>
      <trkpt lat="43.002" lon="1.13653">
        <ele>477.1</ele>
        <time>2025-12-28T10:10:42.000Z</time>
      </trkpt>
      <trkpt lat="43.00201" lon="1.13644">
        <ele>474.4</ele>
        <time>2025-12-28T10:10:43.000Z</time>
      </trkpt>
      <trkpt lat="43.00195" lon="1.13635">
        <ele>476.3</ele>
        <time>2025-12-28T10:10:44.000Z</time>
      </trkpt>
      <trkpt lat="43.00189" lon="1.13627">
        <ele>476.2</ele>
        <time>2025-12-28T10:10:45.000Z</time>
      </trkpt>
      <trkpt lat="43.00181" lon="1.13621">
        <ele>475.8</ele>
        <time>2025-12-28T10:10:46.000Z</time>
      </trkpt>
      <trkpt lat="43.00174" lon="1.13614">
        <ele>475.4</ele>
        <time>2025-12-28T10:10:47.000Z</time>
      </trkpt>
      <trkpt lat="43.0017" lon="1.13608">
        <ele>474</ele>
        <time>2025-12-28T10:10:48.000Z</time>
      </trkpt>
      <trkpt lat="43.00166" lon="1.13603">
        <ele>473.7</ele>
        <time>2025-12-28T10:10:49.000Z</time>
      </trkpt>
      <trkpt lat="43.00164" lon="1.13599">
        <ele>473.5</ele>
        <time>2025-12-28T10:10:50.000Z</time>
      </trkpt>
      <trkpt lat="43.00162" lon="1.13601">
        <ele>472.1</ele>
        <time>2025-12-28T10:10:51.000Z</time>
      </trkpt>
      <trkpt lat="43.00159" lon="1.136">
        <ele>471</ele>
        <time>2025-12-28T10:10:52.000Z</time>
      </trkpt>
      <trkpt lat="43.00154" lon="1.13598">
        <ele>469.8</ele>
        <time>2025-12-28T10:10:53.000Z</time>
      </trkpt>
      <trkpt lat="43.00149" lon="1.13596">
        <ele>467.7</ele>
        <time>2025-12-28T10:10:54.000Z</time>
      </trkpt>
      <trkpt lat="43.00142" lon="1.13595">
        <ele>467</ele>
        <time>2025-12-28T10:10:55.000Z</time>
      </trkpt>
      <trkpt lat="43.00133" lon="1.13591">
        <ele>466.4</ele>
        <time>2025-12-28T10:10:56.000Z</time>
      </trkpt>
      <trkpt lat="43.00124" lon="1.13592">
        <ele>463</ele>
        <time>2025-12-28T10:10:57.000Z</time>
      </trkpt>
      <trkpt lat="43.00117" lon="1.13588">
        <ele>463.6</ele>
        <time>2025-12-28T10:10:58.000Z</time>
      </trkpt>
      <trkpt lat="43.00108" lon="1.13585">
        <ele>463</ele>
        <time>2025-12-28T10:10:59.000Z</time>
      </trkpt>
      <trkpt lat="43.00099" lon="1.13582">
        <ele>460.5</ele>
        <time>2025-12-28T10:11:00.000Z</time>
      </trkpt>
      <trkpt lat="43.00091" lon="1.1358">
        <ele>459.3</ele>
        <time>2025-12-28T10:11:01.000Z</time>
      </trkpt>
      <trkpt lat="43.00081" lon="1.13579">
        <ele>458.6</ele>
        <time>2025-12-28T10:11:02.000Z</time>
      </trkpt>
      <trkpt lat="43.00072" lon="1.13577">
        <ele>452.2</ele>
        <time>2025-12-28T10:11:03.000Z</time>
      </trkpt>
      <trkpt lat="43.00063" lon="1.13577">
        <ele>447.5</ele>
        <time>2025-12-28T10:11:04.000Z</time>
      </trkpt>
      <trkpt lat="43.00057" lon="1.13578">
        <ele>446</ele>
        <time>2025-12-28T10:11:05.000Z</time>
      </trkpt>
      <trkpt lat="43.00049" lon="1.13577">
        <ele>445.3</ele>
        <time>2025-12-28T10:11:06.000Z</time>
      </trkpt>
      <trkpt lat="43.00043" lon="1.13576">
        <ele>444.5</ele>
        <time>2025-12-28T10:11:07.000Z</time>
      </trkpt>
      <trkpt lat="43.00037" lon="1.13576">
        <ele>442.6</ele>
        <time>2025-12-28T10:11:08.000Z</time>
      </trkpt>
      <trkpt lat="43.00033" lon="1.13574">
        <ele>442.5</ele>
        <time>2025-12-28T10:11:09.000Z</time>
      </trkpt>
      <trkpt lat="43.00031" lon="1.13574">
        <ele>442.2</ele>
        <time>2025-12-28T10:11:10.000Z</time>
      </trkpt>
      <trkpt lat="43.0003" lon="1.13572">
        <ele>442</ele>
        <time>2025-12-28T10:11:11.000Z</time>
      </trkpt>
      <trkpt lat="43.00031" lon="1.13569">
        <ele>441.7</ele>
        <time>2025-12-28T10:11:12.000Z</time>
      </trkpt>
      <trkpt lat="43.00031" lon="1.13563">
        <ele>442</ele>
        <time>2025-12-28T10:11:13.000Z</time>
      </trkpt>
      <trkpt lat="43.00032" lon="1.13556">
        <ele>442.5</ele>
        <time>2025-12-28T10:11:14.000Z</time>
      </trkpt>
      <trkpt lat="43.00036" lon="1.13547">
        <ele>441.9</ele>
        <time>2025-12-28T10:11:15.000Z</time>
      </trkpt>
      <trkpt lat="43.00039" lon="1.13539">
        <ele>439.6</ele>
        <time>2025-12-28T10:11:16.000Z</time>
      </trkpt>
      <trkpt lat="43.00043" lon="1.13531">
        <ele>439.7</ele>
        <time>2025-12-28T10:11:17.000Z</time>
      </trkpt>
      <trkpt lat="43.00046" lon="1.13523">
        <ele>438.4</ele>
        <time>2025-12-28T10:11:18.000Z</time>
      </trkpt>
      <trkpt lat="43.00049" lon="1.13518">
        <ele>438.3</ele>
        <time>2025-12-28T10:11:19.000Z</time>
      </trkpt>
      <trkpt lat="43.00051" lon="1.13515">
        <ele>437.4</ele>
        <time>2025-12-28T10:11:20.000Z</time>
      </trkpt>
      <trkpt lat="43.00052" lon="1.13511">
        <ele>437.4</ele>
        <time>2025-12-28T10:11:21.000Z</time>
      </trkpt>
      <trkpt lat="43.00052" lon="1.13506">
        <ele>437.4</ele>
        <time>2025-12-28T10:11:22.000Z</time>
      </trkpt>
      <trkpt lat="43.00051" lon="1.13501">
        <ele>437.3</ele>
        <time>2025-12-28T10:11:23.000Z</time>
      </trkpt>
      <trkpt lat="43.00049" lon="1.13496">
        <ele>437.5</ele>
        <time>2025-12-28T10:11:24.000Z</time>
      </trkpt>
      <trkpt lat="43.00047" lon="1.1349">
        <ele>437.6</ele>
        <time>2025-12-28T10:11:25.000Z</time>
      </trkpt>
      <trkpt lat="43.00045" lon="1.13483">
        <ele>438.1</ele>
        <time>2025-12-28T10:11:26.000Z</time>
      </trkpt>
      <trkpt lat="43.00043" lon="1.13477">
        <ele>438.3</ele>
        <time>2025-12-28T10:11:27.000Z</time>
      </trkpt>
      <trkpt lat="43.00041" lon="1.1347">
        <ele>437.7</ele>
        <time>2025-12-28T10:11:28.000Z</time>
      </trkpt>
      <trkpt lat="43.00039" lon="1.13462">
        <ele>437.2</ele>
        <time>2025-12-28T10:11:29.000Z</time>
      </trkpt>
      <trkpt lat="43.00037" lon="1.13455">
        <ele>435.8</ele>
        <time>2025-12-28T10:11:30.000Z</time>
      </trkpt>
      <trkpt lat="43.00037" lon="1.13449">
        <ele>435.6</ele>
        <time>2025-12-28T10:11:31.000Z</time>
      </trkpt>
      <trkpt lat="43.00039" lon="1.13443">
        <ele>435</ele>
        <time>2025-12-28T10:11:32.000Z</time>
      </trkpt>
      <trkpt lat="43.00043" lon="1.13439">
        <ele>434.7</ele>
        <time>2025-12-28T10:11:33.000Z</time>
      </trkpt>
      <trkpt lat="43.00049" lon="1.13436">
        <ele>434.5</ele>
        <time>2025-12-28T10:11:34.000Z</time>
      </trkpt>
      <trkpt lat="43.00055" lon="1.13433">
        <ele>434.5</ele>
        <time>2025-12-28T10:11:35.000Z</time>
      </trkpt>
      <trkpt lat="43.00061" lon="1.1343">
        <ele>434.3</ele>
        <time>2025-12-28T10:11:36.000Z</time>
      </trkpt>
      <trkpt lat="43.00068" lon="1.13428">
        <ele>434.4</ele>
        <time>2025-12-28T10:11:37.000Z</time>
      </trkpt>
      <trkpt lat="43.00074" lon="1.13425">
        <ele>434.3</ele>
        <time>2025-12-28T10:11:38.000Z</time>
      </trkpt>
      <trkpt lat="43.00081" lon="1.13421">
        <ele>434.1</ele>
        <time>2025-12-28T10:11:39.000Z</time>
      </trkpt>
      <trkpt lat="43.00088" lon="1.13417">
        <ele>434.1</ele>
        <time>2025-12-28T10:11:40.000Z</time>
      </trkpt>
      <trkpt lat="43.00095" lon="1.13414">
        <ele>434</ele>
        <time>2025-12-28T10:11:41.000Z</time>
      </trkpt>
      <trkpt lat="43.00101" lon="1.1341">
        <ele>434.2</ele>
        <time>2025-12-28T10:11:42.000Z</time>
      </trkpt>
      <trkpt lat="43.00107" lon="1.13406">
        <ele>434.5</ele>
        <time>2025-12-28T10:11:43.000Z</time>
      </trkpt>
      <trkpt lat="43.00112" lon="1.13401">
        <ele>435.1</ele>
        <time>2025-12-28T10:11:44.000Z</time>
      </trkpt>
      <trkpt lat="43.00117" lon="1.13396">
        <ele>435.2</ele>
        <time>2025-12-28T10:11:45.000Z</time>
      </trkpt>
      <trkpt lat="43.00118" lon="1.13391">
        <ele>435.6</ele>
        <time>2025-12-28T10:11:46.000Z</time>
      </trkpt>
      <trkpt lat="43.00119" lon="1.13387">
        <ele>435.5</ele>
        <time>2025-12-28T10:11:47.000Z</time>
      </trkpt>
      <trkpt lat="43.00114" lon="1.13388">
        <ele>435.2</ele>
        <time>2025-12-28T10:11:48.000Z</time>
      </trkpt>
      <trkpt lat="43.00112" lon="1.13388">
        <ele>435.4</ele>
        <time>2025-12-28T10:11:49.000Z</time>
      </trkpt>
      <trkpt lat="43.00109" lon="1.13392">
        <ele>435.7</ele>
        <time>2025-12-28T10:11:50.000Z</time>
      </trkpt>
      <trkpt lat="43.00105" lon="1.13395">
        <ele>435.8</ele>
        <time>2025-12-28T10:11:51.000Z</time>
      </trkpt>
      <trkpt lat="43.001" lon="1.13399">
        <ele>436.3</ele>
        <time>2025-12-28T10:11:52.000Z</time>
      </trkpt>
      <trkpt lat="43.00095" lon="1.13402">
        <ele>435.9</ele>
        <time>2025-12-28T10:11:53.000Z</time>
      </trkpt>
      <trkpt lat="43.00091" lon="1.13404">
        <ele>436.4</ele>
        <time>2025-12-28T10:11:54.000Z</time>
      </trkpt>
      <trkpt lat="43.00086" lon="1.13407">
        <ele>436.2</ele>
        <time>2025-12-28T10:11:55.000Z</time>
      </trkpt>
      <trkpt lat="43.00081" lon="1.13409">
        <ele>435.7</ele>
        <time>2025-12-28T10:11:56.000Z</time>
      </trkpt>
      <trkpt lat="43.00076" lon="1.13412">
        <ele>435.5</ele>
        <time>2025-12-28T10:11:57.000Z</time>
      </trkpt>
      <trkpt lat="43.00071" lon="1.13414">
        <ele>435.6</ele>
        <time>2025-12-28T10:11:58.000Z</time>
      </trkpt>
      <trkpt lat="43.00066" lon="1.13417">
        <ele>435.7</ele>
        <time>2025-12-28T10:11:59.000Z</time>
      </trkpt>
      <trkpt lat="43.00062" lon="1.13419">
        <ele>435.6</ele>
        <time>2025-12-28T10:12:00.000Z</time>
      </trkpt>
      <trkpt lat="43.00057" lon="1.1342">
        <ele>436.5</ele>
        <time>2025-12-28T10:12:01.000Z</time>
      </trkpt>
      <trkpt lat="43.00052" lon="1.13423">
        <ele>436.3</ele>
        <time>2025-12-28T10:12:02.000Z</time>
      </trkpt>
      <trkpt lat="43.00046" lon="1.13426">
        <ele>436.1</ele>
        <time>2025-12-28T10:12:03.000Z</time>
      </trkpt>
      <trkpt lat="43.00042" lon="1.13428">
        <ele>436.4</ele>
        <time>2025-12-28T10:12:04.000Z</time>
      </trkpt>
      <trkpt lat="43.00036" lon="1.13429">
        <ele>436.8</ele>
        <time>2025-12-28T10:12:05.000Z</time>
      </trkpt>
      <trkpt lat="43.00032" lon="1.13431">
        <ele>436.6</ele>
        <time>2025-12-28T10:12:06.000Z</time>
      </trkpt>
      <trkpt lat="43.00027" lon="1.13434">
        <ele>436.6</ele>
        <time>2025-12-28T10:12:07.000Z</time>
      </trkpt>
      <trkpt lat="43.00022" lon="1.13435">
        <ele>436.4</ele>
        <time>2025-12-28T10:12:08.000Z</time>
      </trkpt>
      <trkpt lat="43.00016" lon="1.13437">
        <ele>437.9</ele>
        <time>2025-12-28T10:12:09.000Z</time>
      </trkpt>
      <trkpt lat="43.0001" lon="1.1344">
        <ele>437.9</ele>
        <time>2025-12-28T10:12:10.000Z</time>
      </trkpt>
      <trkpt lat="43.00005" lon="1.13442">
        <ele>437.7</ele>
        <time>2025-12-28T10:12:11.000Z</time>
      </trkpt>
      <trkpt lat="42.99999" lon="1.13444">
        <ele>438.1</ele>
        <time>2025-12-28T10:12:12.000Z</time>
      </trkpt>
      <trkpt lat="42.99994" lon="1.13446">
        <ele>437.7</ele>
        <time>2025-12-28T10:12:13.000Z</time>
      </trkpt>
      <trkpt lat="42.99989" lon="1.13448">
        <ele>438</ele>
        <time>2025-12-28T10:12:14.000Z</time>
      </trkpt>
      <trkpt lat="42.99983" lon="1.1345">
        <ele>437.7</ele>
        <time>2025-12-28T10:12:15.000Z</time>
      </trkpt>
      <trkpt lat="42.99978" lon="1.13451">
        <ele>437.2</ele>
        <time>2025-12-28T10:12:16.000Z</time>
      </trkpt>
      <trkpt lat="42.99971" lon="1.13454">
        <ele>436.2</ele>
        <time>2025-12-28T10:12:17.000Z</time>
      </trkpt>
      <trkpt lat="42.99965" lon="1.13456">
        <ele>436.7</ele>
        <time>2025-12-28T10:12:18.000Z</time>
      </trkpt>
      <trkpt lat="42.99959" lon="1.13458">
        <ele>436.4</ele>
        <time>2025-12-28T10:12:19.000Z</time>
      </trkpt>
      <trkpt lat="42.99954" lon="1.13457">
        <ele>436</ele>
        <time>2025-12-28T10:12:20.000Z</time>
      </trkpt>
      <trkpt lat="42.99949" lon="1.13459">
        <ele>435.7</ele>
        <time>2025-12-28T10:12:21.000Z</time>
      </trkpt>
      <trkpt lat="42.99944" lon="1.13461">
        <ele>435.2</ele>
        <time>2025-12-28T10:12:22.000Z</time>
      </trkpt>
      <trkpt lat="42.99939" lon="1.13462">
        <ele>435</ele>
        <time>2025-12-28T10:12:23.000Z</time>
      </trkpt>
      <trkpt lat="42.99935" lon="1.13465">
        <ele>435.6</ele>
        <time>2025-12-28T10:12:24.000Z</time>
      </trkpt>
      <trkpt lat="42.9993" lon="1.13466">
        <ele>435.9</ele>
        <time>2025-12-28T10:12:25.000Z</time>
      </trkpt>
      <trkpt lat="42.99925" lon="1.13468">
        <ele>436.2</ele>
        <time>2025-12-28T10:12:26.000Z</time>
      </trkpt>
      <trkpt lat="42.9992" lon="1.13468">
        <ele>436.2</ele>
        <time>2025-12-28T10:12:27.000Z</time>
      </trkpt>
      <trkpt lat="42.99916" lon="1.13468">
        <ele>435.6</ele>
        <time>2025-12-28T10:12:28.000Z</time>
      </trkpt>
      <trkpt lat="42.99911" lon="1.13468">
        <ele>435.2</ele>
        <time>2025-12-28T10:12:29.000Z</time>
      </trkpt>
      <trkpt lat="42.99906" lon="1.13467">
        <ele>434.6</ele>
        <time>2025-12-28T10:12:30.000Z</time>
      </trkpt>
      <trkpt lat="42.99901" lon="1.13468">
        <ele>434.8</ele>
        <time>2025-12-28T10:12:31.000Z</time>
      </trkpt>
      <trkpt lat="42.99895" lon="1.13471">
        <ele>434.9</ele>
        <time>2025-12-28T10:12:32.000Z</time>
      </trkpt>
      <trkpt lat="42.99889" lon="1.13472">
        <ele>434.5</ele>
        <time>2025-12-28T10:12:33.000Z</time>
      </trkpt>
      <trkpt lat="42.99884" lon="1.13473">
        <ele>434.2</ele>
        <time>2025-12-28T10:12:34.000Z</time>
      </trkpt>
      <trkpt lat="42.9988" lon="1.13473">
        <ele>432.7</ele>
        <time>2025-12-28T10:12:35.000Z</time>
      </trkpt>
      <trkpt lat="42.99874" lon="1.1348">
        <ele>433.3</ele>
        <time>2025-12-28T10:12:36.000Z</time>
      </trkpt>
      <trkpt lat="42.99871" lon="1.13477">
        <ele>432.6</ele>
        <time>2025-12-28T10:12:37.000Z</time>
      </trkpt>
      <trkpt lat="42.99866" lon="1.13474">
        <ele>433.5</ele>
        <time>2025-12-28T10:12:38.000Z</time>
      </trkpt>
      <trkpt lat="42.99861" lon="1.13475">
        <ele>434.5</ele>
        <time>2025-12-28T10:12:39.000Z</time>
      </trkpt>
      <trkpt lat="42.99857" lon="1.13474">
        <ele>435.4</ele>
        <time>2025-12-28T10:12:40.000Z</time>
      </trkpt>
      <trkpt lat="42.99852" lon="1.13472">
        <ele>435.7</ele>
        <time>2025-12-28T10:12:41.000Z</time>
      </trkpt>
      <trkpt lat="42.99846" lon="1.13469">
        <ele>435.2</ele>
        <time>2025-12-28T10:12:42.000Z</time>
      </trkpt>
      <trkpt lat="42.9984" lon="1.13468">
        <ele>435.7</ele>
        <time>2025-12-28T10:12:43.000Z</time>
      </trkpt>
      <trkpt lat="42.99835" lon="1.13466">
        <ele>435.7</ele>
        <time>2025-12-28T10:12:44.000Z</time>
      </trkpt>
      <trkpt lat="42.9983" lon="1.13464">
        <ele>435.8</ele>
        <time>2025-12-28T10:12:45.000Z</time>
      </trkpt>
      <trkpt lat="42.99825" lon="1.13462">
        <ele>436.4</ele>
        <time>2025-12-28T10:12:46.000Z</time>
      </trkpt>
      <trkpt lat="42.9982" lon="1.13459">
        <ele>436.2</ele>
        <time>2025-12-28T10:12:47.000Z</time>
      </trkpt>
      <trkpt lat="42.99816" lon="1.13455">
        <ele>436.9</ele>
        <time>2025-12-28T10:12:48.000Z</time>
      </trkpt>
      <trkpt lat="42.99811" lon="1.13454">
        <ele>437</ele>
        <time>2025-12-28T10:12:49.000Z</time>
      </trkpt>
      <trkpt lat="42.99807" lon="1.13452">
        <ele>437</ele>
        <time>2025-12-28T10:12:50.000Z</time>
      </trkpt>
      <trkpt lat="42.99803" lon="1.1345">
        <ele>438</ele>
        <time>2025-12-28T10:12:51.000Z</time>
      </trkpt>
      <trkpt lat="42.99801" lon="1.1345">
        <ele>439.8</ele>
        <time>2025-12-28T10:12:52.000Z</time>
      </trkpt>
      <trkpt lat="42.99797" lon="1.13447">
        <ele>439.7</ele>
        <time>2025-12-28T10:12:53.000Z</time>
      </trkpt>
      <trkpt lat="42.99793" lon="1.13446">
        <ele>440.3</ele>
        <time>2025-12-28T10:12:54.000Z</time>
      </trkpt>
      <trkpt lat="42.9979" lon="1.13444">
        <ele>441</ele>
        <time>2025-12-28T10:12:55.000Z</time>
      </trkpt>
      <trkpt lat="42.99788" lon="1.13443">
        <ele>441.7</ele>
        <time>2025-12-28T10:12:56.000Z</time>
      </trkpt>
      <trkpt lat="42.99785" lon="1.13442">
        <ele>442.6</ele>
        <time>2025-12-28T10:12:57.000Z</time>
      </trkpt>
      <trkpt lat="42.99783" lon="1.13442">
        <ele>443.2</ele>
        <time>2025-12-28T10:12:58.000Z</time>
      </trkpt>
      <trkpt lat="42.99781" lon="1.13442">
        <ele>445.3</ele>
        <time>2025-12-28T10:12:59.000Z</time>
      </trkpt>
      <trkpt lat="42.99778" lon="1.13442">
        <ele>445.4</ele>
        <time>2025-12-28T10:13:00.000Z</time>
      </trkpt>
      <trkpt lat="42.99775" lon="1.13443">
        <ele>445.5</ele>
        <time>2025-12-28T10:13:01.000Z</time>
      </trkpt>
      <trkpt lat="42.99771" lon="1.13447">
        <ele>445.3</ele>
        <time>2025-12-28T10:13:02.000Z</time>
      </trkpt>
      <trkpt lat="42.99769" lon="1.13451">
        <ele>445.5</ele>
        <time>2025-12-28T10:13:03.000Z</time>
      </trkpt>
      <trkpt lat="42.99766" lon="1.13454">
        <ele>446.5</ele>
        <time>2025-12-28T10:13:04.000Z</time>
      </trkpt>
      <trkpt lat="42.99764" lon="1.13454">
        <ele>447.4</ele>
        <time>2025-12-28T10:13:05.000Z</time>
      </trkpt>
      <trkpt lat="42.99761" lon="1.13454">
        <ele>448.5</ele>
        <time>2025-12-28T10:13:06.000Z</time>
      </trkpt>
      <trkpt lat="42.99759" lon="1.13455">
        <ele>450.8</ele>
        <time>2025-12-28T10:13:07.000Z</time>
      </trkpt>
      <trkpt lat="42.99757" lon="1.13455">
        <ele>451.3</ele>
        <time>2025-12-28T10:13:08.000Z</time>
      </trkpt>
      <trkpt lat="42.99755" lon="1.13454">
        <ele>452.5</ele>
        <time>2025-12-28T10:13:09.000Z</time>
      </trkpt>
      <trkpt lat="42.99753" lon="1.13454">
        <ele>453.2</ele>
        <time>2025-12-28T10:13:10.000Z</time>
      </trkpt>
      <trkpt lat="42.9975" lon="1.13453">
        <ele>453.7</ele>
        <time>2025-12-28T10:13:11.000Z</time>
      </trkpt>
      <trkpt lat="42.99748" lon="1.13452">
        <ele>453.9</ele>
        <time>2025-12-28T10:13:12.000Z</time>
      </trkpt>
      <trkpt lat="42.99746" lon="1.1345">
        <ele>453.6</ele>
        <time>2025-12-28T10:13:13.000Z</time>
      </trkpt>
      <trkpt lat="42.99743" lon="1.13449">
        <ele>454.1</ele>
        <time>2025-12-28T10:13:14.000Z</time>
      </trkpt>
      <trkpt lat="42.99741" lon="1.13447">
        <ele>454.5</ele>
        <time>2025-12-28T10:13:15.000Z</time>
      </trkpt>
      <trkpt lat="42.99739" lon="1.13445">
        <ele>454.5</ele>
        <time>2025-12-28T10:13:16.000Z</time>
      </trkpt>
      <trkpt lat="42.99736" lon="1.13443">
        <ele>455</ele>
        <time>2025-12-28T10:13:17.000Z</time>
      </trkpt>
      <trkpt lat="42.99733" lon="1.13441">
        <ele>455.3</ele>
        <time>2025-12-28T10:13:18.000Z</time>
      </trkpt>
      <trkpt lat="42.99731" lon="1.13439">
        <ele>456</ele>
        <time>2025-12-28T10:13:19.000Z</time>
      </trkpt>
      <trkpt lat="42.99729" lon="1.13438">
        <ele>458.4</ele>
        <time>2025-12-28T10:13:20.000Z</time>
      </trkpt>
      <trkpt lat="42.99726" lon="1.13435">
        <ele>459</ele>
        <time>2025-12-28T10:13:21.000Z</time>
      </trkpt>
      <trkpt lat="42.99723" lon="1.13433">
        <ele>459.8</ele>
        <time>2025-12-28T10:13:22.000Z</time>
      </trkpt>
      <trkpt lat="42.9972" lon="1.13431">
        <ele>459.8</ele>
        <time>2025-12-28T10:13:23.000Z</time>
      </trkpt>
      <trkpt lat="42.99716" lon="1.1343">
        <ele>458.7</ele>
        <time>2025-12-28T10:13:24.000Z</time>
      </trkpt>
      <trkpt lat="42.99714" lon="1.13428">
        <ele>459.4</ele>
        <time>2025-12-28T10:13:25.000Z</time>
      </trkpt>
      <trkpt lat="42.99712" lon="1.13427">
        <ele>459.2</ele>
        <time>2025-12-28T10:13:26.000Z</time>
      </trkpt>
      <trkpt lat="42.99708" lon="1.13426">
        <ele>459.4</ele>
        <time>2025-12-28T10:13:27.000Z</time>
      </trkpt>
      <trkpt lat="42.99703" lon="1.13423">
        <ele>459.4</ele>
        <time>2025-12-28T10:13:28.000Z</time>
      </trkpt>
      <trkpt lat="42.99698" lon="1.1342">
        <ele>459.5</ele>
        <time>2025-12-28T10:13:29.000Z</time>
      </trkpt>
      <trkpt lat="42.99694" lon="1.13417">
        <ele>459.5</ele>
        <time>2025-12-28T10:13:30.000Z</time>
      </trkpt>
      <trkpt lat="42.9969" lon="1.13414">
        <ele>459.1</ele>
        <time>2025-12-28T10:13:31.000Z</time>
      </trkpt>
      <trkpt lat="42.99686" lon="1.13412">
        <ele>459</ele>
        <time>2025-12-28T10:13:32.000Z</time>
      </trkpt>
      <trkpt lat="42.99682" lon="1.1341">
        <ele>458.6</ele>
        <time>2025-12-28T10:13:33.000Z</time>
      </trkpt>
      <trkpt lat="42.99675" lon="1.13409">
        <ele>459.3</ele>
        <time>2025-12-28T10:13:34.000Z</time>
      </trkpt>
      <trkpt lat="42.99672" lon="1.13411">
        <ele>459.7</ele>
        <time>2025-12-28T10:13:35.000Z</time>
      </trkpt>
      <trkpt lat="42.99668" lon="1.13413">
        <ele>459.6</ele>
        <time>2025-12-28T10:13:36.000Z</time>
      </trkpt>
      <trkpt lat="42.99665" lon="1.13414">
        <ele>459.4</ele>
        <time>2025-12-28T10:13:37.000Z</time>
      </trkpt>
      <trkpt lat="42.99661" lon="1.13416">
        <ele>457.3</ele>
        <time>2025-12-28T10:13:38.000Z</time>
      </trkpt>
      <trkpt lat="42.99658" lon="1.13417">
        <ele>458.4</ele>
        <time>2025-12-28T10:13:39.000Z</time>
      </trkpt>
      <trkpt lat="42.99654" lon="1.13418">
        <ele>458.9</ele>
        <time>2025-12-28T10:13:40.000Z</time>
      </trkpt>
      <trkpt lat="42.99651" lon="1.1342">
        <ele>460</ele>
        <time>2025-12-28T10:13:41.000Z</time>
      </trkpt>
      <trkpt lat="42.99648" lon="1.13421">
        <ele>459.9</ele>
        <time>2025-12-28T10:13:42.000Z</time>
      </trkpt>
      <trkpt lat="42.99644" lon="1.13423">
        <ele>459.7</ele>
        <time>2025-12-28T10:13:43.000Z</time>
      </trkpt>
      <trkpt lat="42.9964" lon="1.13425">
        <ele>459.7</ele>
        <time>2025-12-28T10:13:44.000Z</time>
      </trkpt>
      <trkpt lat="42.99636" lon="1.13427">
        <ele>459.5</ele>
        <time>2025-12-28T10:13:45.000Z</time>
      </trkpt>
      <trkpt lat="42.99632" lon="1.1343">
        <ele>460.9</ele>
        <time>2025-12-28T10:13:46.000Z</time>
      </trkpt>
      <trkpt lat="42.99628" lon="1.13432">
        <ele>459.3</ele>
        <time>2025-12-28T10:13:47.000Z</time>
      </trkpt>
      <trkpt lat="42.99625" lon="1.13433">
        <ele>460.8</ele>
        <time>2025-12-28T10:13:48.000Z</time>
      </trkpt>
      <trkpt lat="42.99622" lon="1.13434">
        <ele>460.7</ele>
        <time>2025-12-28T10:13:49.000Z</time>
      </trkpt>
      <trkpt lat="42.99619" lon="1.13435">
        <ele>460.1</ele>
        <time>2025-12-28T10:13:50.000Z</time>
      </trkpt>
      <trkpt lat="42.99616" lon="1.13436">
        <ele>459.6</ele>
        <time>2025-12-28T10:13:51.000Z</time>
      </trkpt>
      <trkpt lat="42.99611" lon="1.13437">
        <ele>460.2</ele>
        <time>2025-12-28T10:13:52.000Z</time>
      </trkpt>
      <trkpt lat="42.99606" lon="1.13438">
        <ele>460.6</ele>
        <time>2025-12-28T10:13:53.000Z</time>
      </trkpt>
      <trkpt lat="42.99603" lon="1.1344">
        <ele>461.5</ele>
        <time>2025-12-28T10:13:54.000Z</time>
      </trkpt>
      <trkpt lat="42.99599" lon="1.13442">
        <ele>461.5</ele>
        <time>2025-12-28T10:13:55.000Z</time>
      </trkpt>
      <trkpt lat="42.99597" lon="1.13442">
        <ele>462.8</ele>
        <time>2025-12-28T10:13:56.000Z</time>
      </trkpt>
      <trkpt lat="42.99593" lon="1.13443">
        <ele>463.5</ele>
        <time>2025-12-28T10:13:57.000Z</time>
      </trkpt>
      <trkpt lat="42.99589" lon="1.13444">
        <ele>462.8</ele>
        <time>2025-12-28T10:13:58.000Z</time>
      </trkpt>
      <trkpt lat="42.99586" lon="1.13445">
        <ele>463.1</ele>
        <time>2025-12-28T10:13:59.000Z</time>
      </trkpt>
      <trkpt lat="42.99582" lon="1.13445">
        <ele>462.7</ele>
        <time>2025-12-28T10:14:00.000Z</time>
      </trkpt>
      <trkpt lat="42.99575" lon="1.13446">
        <ele>461.3</ele>
        <time>2025-12-28T10:14:01.000Z</time>
      </trkpt>
      <trkpt lat="42.99571" lon="1.13448">
        <ele>462.6</ele>
        <time>2025-12-28T10:14:02.000Z</time>
      </trkpt>
      <trkpt lat="42.9957" lon="1.13448">
        <ele>464.7</ele>
        <time>2025-12-28T10:14:03.000Z</time>
      </trkpt>
      <trkpt lat="42.99565" lon="1.1345">
        <ele>466.9</ele>
        <time>2025-12-28T10:14:04.000Z</time>
      </trkpt>
      <trkpt lat="42.9956" lon="1.13451">
        <ele>466.8</ele>
        <time>2025-12-28T10:14:05.000Z</time>
      </trkpt>
      <trkpt lat="42.99554" lon="1.13452">
        <ele>467.2</ele>
        <time>2025-12-28T10:14:06.000Z</time>
      </trkpt>
      <trkpt lat="42.99552" lon="1.13453">
        <ele>468.6</ele>
        <time>2025-12-28T10:14:07.000Z</time>
      </trkpt>
      <trkpt lat="42.99548" lon="1.13454">
        <ele>467.5</ele>
        <time>2025-12-28T10:14:08.000Z</time>
      </trkpt>
      <trkpt lat="42.99544" lon="1.13453">
        <ele>468.6</ele>
        <time>2025-12-28T10:14:09.000Z</time>
      </trkpt>
      <trkpt lat="42.9954" lon="1.13452">
        <ele>469.4</ele>
        <time>2025-12-28T10:14:10.000Z</time>
      </trkpt>
      <trkpt lat="42.99535" lon="1.13453">
        <ele>469.7</ele>
        <time>2025-12-28T10:14:11.000Z</time>
      </trkpt>
      <trkpt lat="42.99531" lon="1.13453">
        <ele>469.8</ele>
        <time>2025-12-28T10:14:12.000Z</time>
      </trkpt>
      <trkpt lat="42.99526" lon="1.13454">
        <ele>467.9</ele>
        <time>2025-12-28T10:14:13.000Z</time>
      </trkpt>
      <trkpt lat="42.9952" lon="1.13455">
        <ele>467.6</ele>
        <time>2025-12-28T10:14:14.000Z</time>
      </trkpt>
      <trkpt lat="42.99515" lon="1.13459">
        <ele>467.3</ele>
        <time>2025-12-28T10:14:15.000Z</time>
      </trkpt>
      <trkpt lat="42.99511" lon="1.13463">
        <ele>467.3</ele>
        <time>2025-12-28T10:14:16.000Z</time>
      </trkpt>
      <trkpt lat="42.99505" lon="1.13465">
        <ele>468.1</ele>
        <time>2025-12-28T10:14:17.000Z</time>
      </trkpt>
      <trkpt lat="42.99501" lon="1.13468">
        <ele>468.3</ele>
        <time>2025-12-28T10:14:18.000Z</time>
      </trkpt>
      <trkpt lat="42.99498" lon="1.1347">
        <ele>468.7</ele>
        <time>2025-12-28T10:14:19.000Z</time>
      </trkpt>
      <trkpt lat="42.99494" lon="1.13473">
        <ele>467.9</ele>
        <time>2025-12-28T10:14:20.000Z</time>
      </trkpt>
      <trkpt lat="42.9949" lon="1.13476">
        <ele>468.1</ele>
        <time>2025-12-28T10:14:21.000Z</time>
      </trkpt>
      <trkpt lat="42.99484" lon="1.13478">
        <ele>467.6</ele>
        <time>2025-12-28T10:14:22.000Z</time>
      </trkpt>
      <trkpt lat="42.9948" lon="1.1348">
        <ele>467.7</ele>
        <time>2025-12-28T10:14:23.000Z</time>
      </trkpt>
      <trkpt lat="42.99475" lon="1.13481">
        <ele>467</ele>
        <time>2025-12-28T10:14:24.000Z</time>
      </trkpt>
      <trkpt lat="42.9947" lon="1.13482">
        <ele>467.1</ele>
        <time>2025-12-28T10:14:25.000Z</time>
      </trkpt>
      <trkpt lat="42.99465" lon="1.13481">
        <ele>466.8</ele>
        <time>2025-12-28T10:14:26.000Z</time>
      </trkpt>
      <trkpt lat="42.99461" lon="1.13479">
        <ele>466.9</ele>
        <time>2025-12-28T10:14:27.000Z</time>
      </trkpt>
      <trkpt lat="42.99457" lon="1.13479">
        <ele>467.2</ele>
        <time>2025-12-28T10:14:28.000Z</time>
      </trkpt>
      <trkpt lat="42.99452" lon="1.13479">
        <ele>467.1</ele>
        <time>2025-12-28T10:14:29.000Z</time>
      </trkpt>
      <trkpt lat="42.99445" lon="1.1348">
        <ele>466.8</ele>
        <time>2025-12-28T10:14:30.000Z</time>
      </trkpt>
      <trkpt lat="42.99442" lon="1.13481">
        <ele>468.3</ele>
        <time>2025-12-28T10:14:31.000Z</time>
      </trkpt>
      <trkpt lat="42.99437" lon="1.13481">
        <ele>468.7</ele>
        <time>2025-12-28T10:14:32.000Z</time>
      </trkpt>
      <trkpt lat="42.99432" lon="1.1348">
        <ele>468</ele>
        <time>2025-12-28T10:14:33.000Z</time>
      </trkpt>
      <trkpt lat="42.99429" lon="1.1348">
        <ele>466.5</ele>
        <time>2025-12-28T10:14:34.000Z</time>
      </trkpt>
      <trkpt lat="42.99424" lon="1.13478">
        <ele>467.6</ele>
        <time>2025-12-28T10:14:35.000Z</time>
      </trkpt>
      <trkpt lat="42.99417" lon="1.13478">
        <ele>466.2</ele>
        <time>2025-12-28T10:14:36.000Z</time>
      </trkpt>
      <trkpt lat="42.99412" lon="1.13477">
        <ele>465.7</ele>
        <time>2025-12-28T10:14:37.000Z</time>
      </trkpt>
      <trkpt lat="42.99406" lon="1.13477">
        <ele>465.5</ele>
        <time>2025-12-28T10:14:38.000Z</time>
      </trkpt>
      <trkpt lat="42.99401" lon="1.13477">
        <ele>464.9</ele>
        <time>2025-12-28T10:14:39.000Z</time>
      </trkpt>
      <trkpt lat="42.99397" lon="1.13476">
        <ele>466.2</ele>
        <time>2025-12-28T10:14:40.000Z</time>
      </trkpt>
      <trkpt lat="42.9939" lon="1.13475">
        <ele>465.6</ele>
        <time>2025-12-28T10:14:41.000Z</time>
      </trkpt>
      <trkpt lat="42.99384" lon="1.13473">
        <ele>466.6</ele>
        <time>2025-12-28T10:14:42.000Z</time>
      </trkpt>
      <trkpt lat="42.99379" lon="1.13471">
        <ele>464.9</ele>
        <time>2025-12-28T10:14:43.000Z</time>
      </trkpt>
      <trkpt lat="42.99376" lon="1.13467">
        <ele>465.9</ele>
        <time>2025-12-28T10:14:44.000Z</time>
      </trkpt>
      <trkpt lat="42.9937" lon="1.13462">
        <ele>466.1</ele>
        <time>2025-12-28T10:14:45.000Z</time>
      </trkpt>
      <trkpt lat="42.99366" lon="1.13456">
        <ele>466.4</ele>
        <time>2025-12-28T10:14:46.000Z</time>
      </trkpt>
      <trkpt lat="42.99362" lon="1.13452">
        <ele>466.6</ele>
        <time>2025-12-28T10:14:47.000Z</time>
      </trkpt>
      <trkpt lat="42.99359" lon="1.13447">
        <ele>466.4</ele>
        <time>2025-12-28T10:14:48.000Z</time>
      </trkpt>
      <trkpt lat="42.99354" lon="1.13442">
        <ele>466.2</ele>
        <time>2025-12-28T10:14:49.000Z</time>
      </trkpt>
      <trkpt lat="42.99349" lon="1.13436">
        <ele>465.6</ele>
        <time>2025-12-28T10:14:50.000Z</time>
      </trkpt>
      <trkpt lat="42.99344" lon="1.13429">
        <ele>465.2</ele>
        <time>2025-12-28T10:14:51.000Z</time>
      </trkpt>
      <trkpt lat="42.99339" lon="1.13425">
        <ele>465.1</ele>
        <time>2025-12-28T10:14:52.000Z</time>
      </trkpt>
      <trkpt lat="42.99335" lon="1.1342">
        <ele>464.6</ele>
        <time>2025-12-28T10:14:53.000Z</time>
      </trkpt>
      <trkpt lat="42.99329" lon="1.13417">
        <ele>464.4</ele>
        <time>2025-12-28T10:14:54.000Z</time>
      </trkpt>
      <trkpt lat="42.99323" lon="1.13416">
        <ele>464.3</ele>
        <time>2025-12-28T10:14:55.000Z</time>
      </trkpt>
      <trkpt lat="42.99318" lon="1.13414">
        <ele>465.2</ele>
        <time>2025-12-28T10:14:56.000Z</time>
      </trkpt>
      <trkpt lat="42.99313" lon="1.13412">
        <ele>465</ele>
        <time>2025-12-28T10:14:57.000Z</time>
      </trkpt>
      <trkpt lat="42.99308" lon="1.1341">
        <ele>465.2</ele>
        <time>2025-12-28T10:14:58.000Z</time>
      </trkpt>
      <trkpt lat="42.99303" lon="1.13409">
        <ele>465.1</ele>
        <time>2025-12-28T10:14:59.000Z</time>
      </trkpt>
      <trkpt lat="42.99298" lon="1.13407">
        <ele>465.9</ele>
        <time>2025-12-28T10:15:00.000Z</time>
      </trkpt>
      <trkpt lat="42.99293" lon="1.13407">
        <ele>466.6</ele>
        <time>2025-12-28T10:15:01.000Z</time>
      </trkpt>
      <trkpt lat="42.99287" lon="1.13406">
        <ele>466</ele>
        <time>2025-12-28T10:15:02.000Z</time>
      </trkpt>
      <trkpt lat="42.99283" lon="1.13406">
        <ele>466.9</ele>
        <time>2025-12-28T10:15:03.000Z</time>
      </trkpt>
      <trkpt lat="42.99277" lon="1.13405">
        <ele>466.5</ele>
        <time>2025-12-28T10:15:04.000Z</time>
      </trkpt>
      <trkpt lat="42.99273" lon="1.13404">
        <ele>467.2</ele>
        <time>2025-12-28T10:15:05.000Z</time>
      </trkpt>
      <trkpt lat="42.99268" lon="1.13403">
        <ele>465.9</ele>
        <time>2025-12-28T10:15:06.000Z</time>
      </trkpt>
      <trkpt lat="42.99263" lon="1.13402">
        <ele>465</ele>
        <time>2025-12-28T10:15:07.000Z</time>
      </trkpt>
      <trkpt lat="42.99258" lon="1.13402">
        <ele>464.5</ele>
        <time>2025-12-28T10:15:08.000Z</time>
      </trkpt>
      <trkpt lat="42.99254" lon="1.13403">
        <ele>464.5</ele>
        <time>2025-12-28T10:15:09.000Z</time>
      </trkpt>
      <trkpt lat="42.99248" lon="1.13402">
        <ele>466</ele>
        <time>2025-12-28T10:15:10.000Z</time>
      </trkpt>
      <trkpt lat="42.99243" lon="1.13399">
        <ele>465.7</ele>
        <time>2025-12-28T10:15:11.000Z</time>
      </trkpt>
      <trkpt lat="42.99239" lon="1.13397">
        <ele>466.8</ele>
        <time>2025-12-28T10:15:12.000Z</time>
      </trkpt>
      <trkpt lat="42.99234" lon="1.13395">
        <ele>467.1</ele>
        <time>2025-12-28T10:15:13.000Z</time>
      </trkpt>
      <trkpt lat="42.9923" lon="1.13391">
        <ele>466.4</ele>
        <time>2025-12-28T10:15:14.000Z</time>
      </trkpt>
      <trkpt lat="42.99224" lon="1.13389">
        <ele>466.1</ele>
        <time>2025-12-28T10:15:15.000Z</time>
      </trkpt>
      <trkpt lat="42.9922" lon="1.13386">
        <ele>466.2</ele>
        <time>2025-12-28T10:15:16.000Z</time>
      </trkpt>
      <trkpt lat="42.99215" lon="1.13384">
        <ele>465.4</ele>
        <time>2025-12-28T10:15:17.000Z</time>
      </trkpt>
      <trkpt lat="42.9921" lon="1.13381">
        <ele>465.3</ele>
        <time>2025-12-28T10:15:18.000Z</time>
      </trkpt>
      <trkpt lat="42.99205" lon="1.13379">
        <ele>465.2</ele>
        <time>2025-12-28T10:15:19.000Z</time>
      </trkpt>
      <trkpt lat="42.992" lon="1.13376">
        <ele>465.3</ele>
        <time>2025-12-28T10:15:20.000Z</time>
      </trkpt>
      <trkpt lat="42.99195" lon="1.13374">
        <ele>464.9</ele>
        <time>2025-12-28T10:15:21.000Z</time>
      </trkpt>
      <trkpt lat="42.99189" lon="1.13371">
        <ele>464.4</ele>
        <time>2025-12-28T10:15:22.000Z</time>
      </trkpt>
      <trkpt lat="42.99185" lon="1.13369">
        <ele>464.7</ele>
        <time>2025-12-28T10:15:23.000Z</time>
      </trkpt>
      <trkpt lat="42.9918" lon="1.13366">
        <ele>465.1</ele>
        <time>2025-12-28T10:15:24.000Z</time>
      </trkpt>
      <trkpt lat="42.99177" lon="1.13365">
        <ele>464.8</ele>
        <time>2025-12-28T10:15:25.000Z</time>
      </trkpt>
      <trkpt lat="42.99173" lon="1.13363">
        <ele>464.5</ele>
        <time>2025-12-28T10:15:26.000Z</time>
      </trkpt>
      <trkpt lat="42.99169" lon="1.13361">
        <ele>464.2</ele>
        <time>2025-12-28T10:15:27.000Z</time>
      </trkpt>
      <trkpt lat="42.99164" lon="1.1336">
        <ele>464.3</ele>
        <time>2025-12-28T10:15:28.000Z</time>
      </trkpt>
      <trkpt lat="42.99159" lon="1.13358">
        <ele>464.3</ele>
        <time>2025-12-28T10:15:29.000Z</time>
      </trkpt>
      <trkpt lat="42.99153" lon="1.13356">
        <ele>464.3</ele>
        <time>2025-12-28T10:15:30.000Z</time>
      </trkpt>
      <trkpt lat="42.99147" lon="1.13355">
        <ele>464.5</ele>
        <time>2025-12-28T10:15:31.000Z</time>
      </trkpt>
      <trkpt lat="42.99141" lon="1.13355">
        <ele>464.6</ele>
        <time>2025-12-28T10:15:32.000Z</time>
      </trkpt>
      <trkpt lat="42.99135" lon="1.13354">
        <ele>464.4</ele>
        <time>2025-12-28T10:15:33.000Z</time>
      </trkpt>
      <trkpt lat="42.99129" lon="1.13354">
        <ele>464.1</ele>
        <time>2025-12-28T10:15:34.000Z</time>
      </trkpt>
      <trkpt lat="42.99124" lon="1.13354">
        <ele>464.3</ele>
        <time>2025-12-28T10:15:35.000Z</time>
      </trkpt>
      <trkpt lat="42.99119" lon="1.13354">
        <ele>464.1</ele>
        <time>2025-12-28T10:15:36.000Z</time>
      </trkpt>
      <trkpt lat="42.99113" lon="1.13355">
        <ele>464</ele>
        <time>2025-12-28T10:15:37.000Z</time>
      </trkpt>
      <trkpt lat="42.99108" lon="1.13356">
        <ele>464.1</ele>
        <time>2025-12-28T10:15:38.000Z</time>
      </trkpt>
      <trkpt lat="42.99103" lon="1.13356">
        <ele>464.5</ele>
        <time>2025-12-28T10:15:39.000Z</time>
      </trkpt>
      <trkpt lat="42.99098" lon="1.13357">
        <ele>464.6</ele>
        <time>2025-12-28T10:15:40.000Z</time>
      </trkpt>
      <trkpt lat="42.99093" lon="1.13358">
        <ele>464.9</ele>
        <time>2025-12-28T10:15:41.000Z</time>
      </trkpt>
      <trkpt lat="42.99087" lon="1.13359">
        <ele>465.2</ele>
        <time>2025-12-28T10:15:42.000Z</time>
      </trkpt>
      <trkpt lat="42.99082" lon="1.13359">
        <ele>465.2</ele>
        <time>2025-12-28T10:15:43.000Z</time>
      </trkpt>
      <trkpt lat="42.99078" lon="1.13359">
        <ele>465.5</ele>
        <time>2025-12-28T10:15:44.000Z</time>
      </trkpt>
      <trkpt lat="42.99073" lon="1.1336">
        <ele>465.7</ele>
        <time>2025-12-28T10:15:45.000Z</time>
      </trkpt>
      <trkpt lat="42.99068" lon="1.1336">
        <ele>465.8</ele>
        <time>2025-12-28T10:15:46.000Z</time>
      </trkpt>
      <trkpt lat="42.99065" lon="1.13361">
        <ele>466.2</ele>
        <time>2025-12-28T10:15:47.000Z</time>
      </trkpt>
      <trkpt lat="42.99062" lon="1.13362">
        <ele>466.8</ele>
        <time>2025-12-28T10:15:48.000Z</time>
      </trkpt>
      <trkpt lat="42.99058" lon="1.13362">
        <ele>466.9</ele>
        <time>2025-12-28T10:15:49.000Z</time>
      </trkpt>
      <trkpt lat="42.99054" lon="1.13362">
        <ele>467</ele>
        <time>2025-12-28T10:15:50.000Z</time>
      </trkpt>
      <trkpt lat="42.9905" lon="1.13363">
        <ele>466.8</ele>
        <time>2025-12-28T10:15:51.000Z</time>
      </trkpt>
      <trkpt lat="42.99046" lon="1.13364">
        <ele>467.1</ele>
        <time>2025-12-28T10:15:52.000Z</time>
      </trkpt>
      <trkpt lat="42.99042" lon="1.13365">
        <ele>467.1</ele>
        <time>2025-12-28T10:15:53.000Z</time>
      </trkpt>
      <trkpt lat="42.99038" lon="1.13365">
        <ele>467.1</ele>
        <time>2025-12-28T10:15:54.000Z</time>
      </trkpt>
      <trkpt lat="42.99035" lon="1.13366">
        <ele>467.3</ele>
        <time>2025-12-28T10:15:55.000Z</time>
      </trkpt>
      <trkpt lat="42.99031" lon="1.13366">
        <ele>467.6</ele>
        <time>2025-12-28T10:15:56.000Z</time>
      </trkpt>
      <trkpt lat="42.99027" lon="1.13366">
        <ele>467.9</ele>
        <time>2025-12-28T10:15:57.000Z</time>
      </trkpt>
      <trkpt lat="42.99025" lon="1.13367">
        <ele>467.9</ele>
        <time>2025-12-28T10:15:58.000Z</time>
      </trkpt>
      <trkpt lat="42.99022" lon="1.13367">
        <ele>467.8</ele>
        <time>2025-12-28T10:15:59.000Z</time>
      </trkpt>
      <trkpt lat="42.99018" lon="1.13367">
        <ele>467.9</ele>
        <time>2025-12-28T10:16:00.000Z</time>
      </trkpt>
      <trkpt lat="42.99015" lon="1.13368">
        <ele>468.5</ele>
        <time>2025-12-28T10:16:01.000Z</time>
      </trkpt>
      <trkpt lat="42.99012" lon="1.13368">
        <ele>468.7</ele>
        <time>2025-12-28T10:16:02.000Z</time>
      </trkpt>
      <trkpt lat="42.99009" lon="1.13368">
        <ele>468.7</ele>
        <time>2025-12-28T10:16:03.000Z</time>
      </trkpt>
      <trkpt lat="42.99005" lon="1.13368">
        <ele>468.6</ele>
        <time>2025-12-28T10:16:04.000Z</time>
      </trkpt>
      <trkpt lat="42.99002" lon="1.13368">
        <ele>468.5</ele>
        <time>2025-12-28T10:16:05.000Z</time>
      </trkpt>
      <trkpt lat="42.98998" lon="1.13368">
        <ele>468.9</ele>
        <time>2025-12-28T10:16:06.000Z</time>
      </trkpt>
      <trkpt lat="42.98994" lon="1.13368">
        <ele>469</ele>
        <time>2025-12-28T10:16:07.000Z</time>
      </trkpt>
      <trkpt lat="42.9899" lon="1.13368">
        <ele>468.7</ele>
        <time>2025-12-28T10:16:08.000Z</time>
      </trkpt>
      <trkpt lat="42.98986" lon="1.13368">
        <ele>469</ele>
        <time>2025-12-28T10:16:09.000Z</time>
      </trkpt>
      <trkpt lat="42.98982" lon="1.13367">
        <ele>469.2</ele>
        <time>2025-12-28T10:16:10.000Z</time>
      </trkpt>
      <trkpt lat="42.98978" lon="1.13367">
        <ele>469.5</ele>
        <time>2025-12-28T10:16:11.000Z</time>
      </trkpt>
      <trkpt lat="42.98974" lon="1.13367">
        <ele>469.5</ele>
        <time>2025-12-28T10:16:12.000Z</time>
      </trkpt>
      <trkpt lat="42.9897" lon="1.13367">
        <ele>469.8</ele>
        <time>2025-12-28T10:16:13.000Z</time>
      </trkpt>
      <trkpt lat="42.98965" lon="1.13366">
        <ele>469.6</ele>
        <time>2025-12-28T10:16:14.000Z</time>
      </trkpt>
      <trkpt lat="42.98961" lon="1.13365">
        <ele>469.6</ele>
        <time>2025-12-28T10:16:15.000Z</time>
      </trkpt>
      <trkpt lat="42.98957" lon="1.13363">
        <ele>469.7</ele>
        <time>2025-12-28T10:16:16.000Z</time>
      </trkpt>
      <trkpt lat="42.98953" lon="1.13362">
        <ele>469.7</ele>
        <time>2025-12-28T10:16:17.000Z</time>
      </trkpt>
      <trkpt lat="42.98949" lon="1.13361">
        <ele>469.3</ele>
        <time>2025-12-28T10:16:18.000Z</time>
      </trkpt>
      <trkpt lat="42.98946" lon="1.1336">
        <ele>469.2</ele>
        <time>2025-12-28T10:16:19.000Z</time>
      </trkpt>
      <trkpt lat="42.98942" lon="1.13358">
        <ele>469.3</ele>
        <time>2025-12-28T10:16:20.000Z</time>
      </trkpt>
      <trkpt lat="42.98939" lon="1.13356">
        <ele>469.6</ele>
        <time>2025-12-28T10:16:21.000Z</time>
      </trkpt>
      <trkpt lat="42.98939" lon="1.13352">
        <ele>469.5</ele>
        <time>2025-12-28T10:16:22.000Z</time>
      </trkpt>
      <trkpt lat="42.9894" lon="1.13348">
        <ele>468.9</ele>
        <time>2025-12-28T10:16:23.000Z</time>
      </trkpt>
      <trkpt lat="42.98942" lon="1.13344">
        <ele>469.3</ele>
        <time>2025-12-28T10:16:24.000Z</time>
      </trkpt>
      <trkpt lat="42.98944" lon="1.13341">
        <ele>469.4</ele>
        <time>2025-12-28T10:16:25.000Z</time>
      </trkpt>
      <trkpt lat="42.98946" lon="1.13337">
        <ele>469.9</ele>
        <time>2025-12-28T10:16:26.000Z</time>
      </trkpt>
      <trkpt lat="42.98947" lon="1.13334">
        <ele>469.9</ele>
        <time>2025-12-28T10:16:27.000Z</time>
      </trkpt>
      <trkpt lat="42.98949" lon="1.1333">
        <ele>470</ele>
        <time>2025-12-28T10:16:28.000Z</time>
      </trkpt>
      <trkpt lat="42.98951" lon="1.13326">
        <ele>470.3</ele>
        <time>2025-12-28T10:16:29.000Z</time>
      </trkpt>
      <trkpt lat="42.98953" lon="1.13322">
        <ele>470.7</ele>
        <time>2025-12-28T10:16:30.000Z</time>
      </trkpt>
      <trkpt lat="42.98955" lon="1.13318">
        <ele>470.6</ele>
        <time>2025-12-28T10:16:31.000Z</time>
      </trkpt>
      <trkpt lat="42.98957" lon="1.13314">
        <ele>470.6</ele>
        <time>2025-12-28T10:16:32.000Z</time>
      </trkpt>
      <trkpt lat="42.98959" lon="1.1331">
        <ele>470.6</ele>
        <time>2025-12-28T10:16:33.000Z</time>
      </trkpt>
      <trkpt lat="42.98962" lon="1.13306">
        <ele>471.1</ele>
        <time>2025-12-28T10:16:34.000Z</time>
      </trkpt>
      <trkpt lat="42.98964" lon="1.13302">
        <ele>471.4</ele>
        <time>2025-12-28T10:16:35.000Z</time>
      </trkpt>
      <trkpt lat="42.98966" lon="1.13297">
        <ele>471.3</ele>
        <time>2025-12-28T10:16:36.000Z</time>
      </trkpt>
      <trkpt lat="42.98969" lon="1.13293">
        <ele>471.8</ele>
        <time>2025-12-28T10:16:37.000Z</time>
      </trkpt>
      <trkpt lat="42.98971" lon="1.13288">
        <ele>472</ele>
        <time>2025-12-28T10:16:38.000Z</time>
      </trkpt>
      <trkpt lat="42.98973" lon="1.13284">
        <ele>472.3</ele>
        <time>2025-12-28T10:16:39.000Z</time>
      </trkpt>
      <trkpt lat="42.98975" lon="1.1328">
        <ele>472.7</ele>
        <time>2025-12-28T10:16:40.000Z</time>
      </trkpt>
      <trkpt lat="42.98978" lon="1.13275">
        <ele>473</ele>
        <time>2025-12-28T10:16:41.000Z</time>
      </trkpt>
      <trkpt lat="42.9898" lon="1.13271">
        <ele>473.7</ele>
        <time>2025-12-28T10:16:42.000Z</time>
      </trkpt>
      <trkpt lat="42.98982" lon="1.13267">
        <ele>473.8</ele>
        <time>2025-12-28T10:16:43.000Z</time>
      </trkpt>
      <trkpt lat="42.98985" lon="1.13263">
        <ele>474.7</ele>
        <time>2025-12-28T10:16:44.000Z</time>
      </trkpt>
      <trkpt lat="42.98987" lon="1.13258">
        <ele>474.9</ele>
        <time>2025-12-28T10:16:45.000Z</time>
      </trkpt>
      <trkpt lat="42.9899" lon="1.13254">
        <ele>475.2</ele>
        <time>2025-12-28T10:16:46.000Z</time>
      </trkpt>
      <trkpt lat="42.98992" lon="1.1325">
        <ele>475.2</ele>
        <time>2025-12-28T10:16:47.000Z</time>
      </trkpt>
      <trkpt lat="42.98995" lon="1.13246">
        <ele>474.9</ele>
        <time>2025-12-28T10:16:48.000Z</time>
      </trkpt>
      <trkpt lat="42.98997" lon="1.13241">
        <ele>475.3</ele>
        <time>2025-12-28T10:16:49.000Z</time>
      </trkpt>
      <trkpt lat="42.98999" lon="1.13237">
        <ele>475.5</ele>
        <time>2025-12-28T10:16:50.000Z</time>
      </trkpt>
      <trkpt lat="42.99002" lon="1.13233">
        <ele>475.6</ele>
        <time>2025-12-28T10:16:51.000Z</time>
      </trkpt>
      <trkpt lat="42.99004" lon="1.13229">
        <ele>475.9</ele>
        <time>2025-12-28T10:16:52.000Z</time>
      </trkpt>
      <trkpt lat="42.99007" lon="1.13225">
        <ele>476.5</ele>
        <time>2025-12-28T10:16:53.000Z</time>
      </trkpt>
      <trkpt lat="42.99009" lon="1.13221">
        <ele>476.7</ele>
        <time>2025-12-28T10:16:54.000Z</time>
      </trkpt>
      <trkpt lat="42.99012" lon="1.13217">
        <ele>477.1</ele>
        <time>2025-12-28T10:16:55.000Z</time>
      </trkpt>
      <trkpt lat="42.99014" lon="1.13213">
        <ele>477.2</ele>
        <time>2025-12-28T10:16:56.000Z</time>
      </trkpt>
      <trkpt lat="42.99016" lon="1.13208">
        <ele>477.7</ele>
        <time>2025-12-28T10:16:57.000Z</time>
      </trkpt>
      <trkpt lat="42.99019" lon="1.13204">
        <ele>478.4</ele>
        <time>2025-12-28T10:16:58.000Z</time>
      </trkpt>
      <trkpt lat="42.99021" lon="1.13199">
        <ele>478.8</ele>
        <time>2025-12-28T10:16:59.000Z</time>
      </trkpt>
      <trkpt lat="42.99022" lon="1.13195">
        <ele>478.8</ele>
        <time>2025-12-28T10:17:00.000Z</time>
      </trkpt>
      <trkpt lat="42.99024" lon="1.1319">
        <ele>478.8</ele>
        <time>2025-12-28T10:17:01.000Z</time>
      </trkpt>
      <trkpt lat="42.99025" lon="1.13185">
        <ele>478.7</ele>
        <time>2025-12-28T10:17:02.000Z</time>
      </trkpt>
      <trkpt lat="42.99027" lon="1.1318">
        <ele>479</ele>
        <time>2025-12-28T10:17:03.000Z</time>
      </trkpt>
      <trkpt lat="42.99029" lon="1.13176">
        <ele>478.9</ele>
        <time>2025-12-28T10:17:04.000Z</time>
      </trkpt>
      <trkpt lat="42.99031" lon="1.13171">
        <ele>478.9</ele>
        <time>2025-12-28T10:17:05.000Z</time>
      </trkpt>
      <trkpt lat="42.99032" lon="1.13167">
        <ele>479.5</ele>
        <time>2025-12-28T10:17:06.000Z</time>
      </trkpt>
      <trkpt lat="42.99034" lon="1.13163">
        <ele>480.3</ele>
        <time>2025-12-28T10:17:07.000Z</time>
      </trkpt>
      <trkpt lat="42.99035" lon="1.13159">
        <ele>481.7</ele>
        <time>2025-12-28T10:17:08.000Z</time>
      </trkpt>
      <trkpt lat="42.99037" lon="1.13155">
        <ele>482.2</ele>
        <time>2025-12-28T10:17:09.000Z</time>
      </trkpt>
      <trkpt lat="42.99039" lon="1.1315">
        <ele>483.3</ele>
        <time>2025-12-28T10:17:10.000Z</time>
      </trkpt>
      <trkpt lat="42.9904" lon="1.13145">
        <ele>483.5</ele>
        <time>2025-12-28T10:17:11.000Z</time>
      </trkpt>
      <trkpt lat="42.99042" lon="1.13141">
        <ele>483.6</ele>
        <time>2025-12-28T10:17:12.000Z</time>
      </trkpt>
      <trkpt lat="42.99044" lon="1.13137">
        <ele>482.5</ele>
        <time>2025-12-28T10:17:13.000Z</time>
      </trkpt>
      <trkpt lat="42.99045" lon="1.13132">
        <ele>482.7</ele>
        <time>2025-12-28T10:17:14.000Z</time>
      </trkpt>
      <trkpt lat="42.99047" lon="1.13128">
        <ele>482.5</ele>
        <time>2025-12-28T10:17:15.000Z</time>
      </trkpt>
      <trkpt lat="42.99049" lon="1.13124">
        <ele>482.8</ele>
        <time>2025-12-28T10:17:16.000Z</time>
      </trkpt>
      <trkpt lat="42.99051" lon="1.1312">
        <ele>482.8</ele>
        <time>2025-12-28T10:17:17.000Z</time>
      </trkpt>
      <trkpt lat="42.99052" lon="1.13115">
        <ele>483.3</ele>
        <time>2025-12-28T10:17:18.000Z</time>
      </trkpt>
      <trkpt lat="42.99054" lon="1.13111">
        <ele>483.9</ele>
        <time>2025-12-28T10:17:19.000Z</time>
      </trkpt>
      <trkpt lat="42.99055" lon="1.13107">
        <ele>484.5</ele>
        <time>2025-12-28T10:17:20.000Z</time>
      </trkpt>
      <trkpt lat="42.99057" lon="1.13104">
        <ele>485.9</ele>
        <time>2025-12-28T10:17:21.000Z</time>
      </trkpt>
      <trkpt lat="42.99058" lon="1.131">
        <ele>486.4</ele>
        <time>2025-12-28T10:17:22.000Z</time>
      </trkpt>
      <trkpt lat="42.99059" lon="1.13096">
        <ele>487.1</ele>
        <time>2025-12-28T10:17:23.000Z</time>
      </trkpt>
      <trkpt lat="42.9906" lon="1.13093">
        <ele>487.5</ele>
        <time>2025-12-28T10:17:24.000Z</time>
      </trkpt>
      <trkpt lat="42.99061" lon="1.13089">
        <ele>487.5</ele>
        <time>2025-12-28T10:17:25.000Z</time>
      </trkpt>
      <trkpt lat="42.99063" lon="1.13085">
        <ele>487.5</ele>
        <time>2025-12-28T10:17:26.000Z</time>
      </trkpt>
      <trkpt lat="42.99065" lon="1.1308">
        <ele>488.1</ele>
        <time>2025-12-28T10:17:27.000Z</time>
      </trkpt>
      <trkpt lat="42.99066" lon="1.13077">
        <ele>489</ele>
        <time>2025-12-28T10:17:28.000Z</time>
      </trkpt>
      <trkpt lat="42.99067" lon="1.13074">
        <ele>489.8</ele>
        <time>2025-12-28T10:17:29.000Z</time>
      </trkpt>
      <trkpt lat="42.99068" lon="1.1307">
        <ele>490</ele>
        <time>2025-12-28T10:17:30.000Z</time>
      </trkpt>
      <trkpt lat="42.99069" lon="1.13066">
        <ele>489.6</ele>
        <time>2025-12-28T10:17:31.000Z</time>
      </trkpt>
      <trkpt lat="42.9907" lon="1.13064">
        <ele>490.6</ele>
        <time>2025-12-28T10:17:32.000Z</time>
      </trkpt>
      <trkpt lat="42.99071" lon="1.13061">
        <ele>490.6</ele>
        <time>2025-12-28T10:17:33.000Z</time>
      </trkpt>
      <trkpt lat="42.99073" lon="1.13058">
        <ele>492</ele>
        <time>2025-12-28T10:17:34.000Z</time>
      </trkpt>
      <trkpt lat="42.99075" lon="1.13055">
        <ele>491.9</ele>
        <time>2025-12-28T10:17:35.000Z</time>
      </trkpt>
      <trkpt lat="42.99076" lon="1.13053">
        <ele>492</ele>
        <time>2025-12-28T10:17:36.000Z</time>
      </trkpt>
      <trkpt lat="42.99078" lon="1.1305">
        <ele>491.3</ele>
        <time>2025-12-28T10:17:37.000Z</time>
      </trkpt>
      <trkpt lat="42.9908" lon="1.13047">
        <ele>492.3</ele>
        <time>2025-12-28T10:17:38.000Z</time>
      </trkpt>
      <trkpt lat="42.99081" lon="1.13045">
        <ele>493.2</ele>
        <time>2025-12-28T10:17:39.000Z</time>
      </trkpt>
      <trkpt lat="42.99083" lon="1.1304">
        <ele>493.3</ele>
        <time>2025-12-28T10:17:40.000Z</time>
      </trkpt>
      <trkpt lat="42.99084" lon="1.13037">
        <ele>493.1</ele>
        <time>2025-12-28T10:17:41.000Z</time>
      </trkpt>
      <trkpt lat="42.99085" lon="1.13035">
        <ele>494.3</ele>
        <time>2025-12-28T10:17:42.000Z</time>
      </trkpt>
      <trkpt lat="42.99087" lon="1.13033">
        <ele>495</ele>
        <time>2025-12-28T10:17:43.000Z</time>
      </trkpt>
      <trkpt lat="42.99088" lon="1.13031">
        <ele>495</ele>
        <time>2025-12-28T10:17:44.000Z</time>
      </trkpt>
      <trkpt lat="42.99089" lon="1.13028">
        <ele>495.8</ele>
        <time>2025-12-28T10:17:45.000Z</time>
      </trkpt>
      <trkpt lat="42.99091" lon="1.13025">
        <ele>496.9</ele>
        <time>2025-12-28T10:17:46.000Z</time>
      </trkpt>
      <trkpt lat="42.99093" lon="1.13021">
        <ele>496.6</ele>
        <time>2025-12-28T10:17:47.000Z</time>
      </trkpt>
      <trkpt lat="42.99094" lon="1.13018">
        <ele>496.5</ele>
        <time>2025-12-28T10:17:48.000Z</time>
      </trkpt>
      <trkpt lat="42.99096" lon="1.13014">
        <ele>497.3</ele>
        <time>2025-12-28T10:17:49.000Z</time>
      </trkpt>
      <trkpt lat="42.99097" lon="1.13012">
        <ele>497</ele>
        <time>2025-12-28T10:17:50.000Z</time>
      </trkpt>
      <trkpt lat="42.99099" lon="1.13009">
        <ele>497.4</ele>
        <time>2025-12-28T10:17:51.000Z</time>
      </trkpt>
      <trkpt lat="42.991" lon="1.13006">
        <ele>497.8</ele>
        <time>2025-12-28T10:17:52.000Z</time>
      </trkpt>
      <trkpt lat="42.99101" lon="1.13003">
        <ele>496.6</ele>
        <time>2025-12-28T10:17:53.000Z</time>
      </trkpt>
      <trkpt lat="42.99102" lon="1.13">
        <ele>495.8</ele>
        <time>2025-12-28T10:17:54.000Z</time>
      </trkpt>
      <trkpt lat="42.99103" lon="1.12997">
        <ele>496.9</ele>
        <time>2025-12-28T10:17:55.000Z</time>
      </trkpt>
      <trkpt lat="42.99104" lon="1.12993">
        <ele>497.4</ele>
        <time>2025-12-28T10:17:56.000Z</time>
      </trkpt>
      <trkpt lat="42.99105" lon="1.12991">
        <ele>497.8</ele>
        <time>2025-12-28T10:17:57.000Z</time>
      </trkpt>
      <trkpt lat="42.99107" lon="1.12988">
        <ele>497.3</ele>
        <time>2025-12-28T10:17:58.000Z</time>
      </trkpt>
      <trkpt lat="42.99108" lon="1.12985">
        <ele>497.3</ele>
        <time>2025-12-28T10:17:59.000Z</time>
      </trkpt>
      <trkpt lat="42.9911" lon="1.12981">
        <ele>497.9</ele>
        <time>2025-12-28T10:18:00.000Z</time>
      </trkpt>
      <trkpt lat="42.99111" lon="1.12977">
        <ele>497.6</ele>
        <time>2025-12-28T10:18:01.000Z</time>
      </trkpt>
      <trkpt lat="42.99112" lon="1.12974">
        <ele>497.2</ele>
        <time>2025-12-28T10:18:02.000Z</time>
      </trkpt>
      <trkpt lat="42.99114" lon="1.1297">
        <ele>498.3</ele>
        <time>2025-12-28T10:18:03.000Z</time>
      </trkpt>
      <trkpt lat="42.99115" lon="1.12966">
        <ele>497.8</ele>
        <time>2025-12-28T10:18:04.000Z</time>
      </trkpt>
      <trkpt lat="42.99117" lon="1.12962">
        <ele>499.1</ele>
        <time>2025-12-28T10:18:05.000Z</time>
      </trkpt>
      <trkpt lat="42.99118" lon="1.12958">
        <ele>500.4</ele>
        <time>2025-12-28T10:18:06.000Z</time>
      </trkpt>
      <trkpt lat="42.9912" lon="1.12955">
        <ele>501.2</ele>
        <time>2025-12-28T10:18:07.000Z</time>
      </trkpt>
      <trkpt lat="42.99121" lon="1.12952">
        <ele>502.1</ele>
        <time>2025-12-28T10:18:08.000Z</time>
      </trkpt>
      <trkpt lat="42.99122" lon="1.1295">
        <ele>502.8</ele>
        <time>2025-12-28T10:18:09.000Z</time>
      </trkpt>
      <trkpt lat="42.99123" lon="1.12947">
        <ele>504.3</ele>
        <time>2025-12-28T10:18:10.000Z</time>
      </trkpt>
      <trkpt lat="42.99124" lon="1.12944">
        <ele>505.4</ele>
        <time>2025-12-28T10:18:11.000Z</time>
      </trkpt>
      <trkpt lat="42.99125" lon="1.12941">
        <ele>506.8</ele>
        <time>2025-12-28T10:18:12.000Z</time>
      </trkpt>
      <trkpt lat="42.99126" lon="1.12938">
        <ele>506.9</ele>
        <time>2025-12-28T10:18:13.000Z</time>
      </trkpt>
      <trkpt lat="42.99127" lon="1.12935">
        <ele>507</ele>
        <time>2025-12-28T10:18:14.000Z</time>
      </trkpt>
      <trkpt lat="42.99128" lon="1.12931">
        <ele>507.3</ele>
        <time>2025-12-28T10:18:15.000Z</time>
      </trkpt>
      <trkpt lat="42.99129" lon="1.12926">
        <ele>508.8</ele>
        <time>2025-12-28T10:18:16.000Z</time>
      </trkpt>
      <trkpt lat="42.99131" lon="1.12921">
        <ele>508.9</ele>
        <time>2025-12-28T10:18:17.000Z</time>
      </trkpt>
      <trkpt lat="42.99133" lon="1.12916">
        <ele>508.8</ele>
        <time>2025-12-28T10:18:18.000Z</time>
      </trkpt>
      <trkpt lat="42.99134" lon="1.12911">
        <ele>508.4</ele>
        <time>2025-12-28T10:18:19.000Z</time>
      </trkpt>
      <trkpt lat="42.99135" lon="1.12906">
        <ele>508.2</ele>
        <time>2025-12-28T10:18:20.000Z</time>
      </trkpt>
      <trkpt lat="42.99137" lon="1.129">
        <ele>507.6</ele>
        <time>2025-12-28T10:18:21.000Z</time>
      </trkpt>
      <trkpt lat="42.99139" lon="1.12895">
        <ele>507.1</ele>
        <time>2025-12-28T10:18:22.000Z</time>
      </trkpt>
      <trkpt lat="42.9914" lon="1.12891">
        <ele>507.1</ele>
        <time>2025-12-28T10:18:23.000Z</time>
      </trkpt>
      <trkpt lat="42.99141" lon="1.12886">
        <ele>506.5</ele>
        <time>2025-12-28T10:18:24.000Z</time>
      </trkpt>
      <trkpt lat="42.99142" lon="1.12883">
        <ele>506.4</ele>
        <time>2025-12-28T10:18:25.000Z</time>
      </trkpt>
      <trkpt lat="42.99143" lon="1.1288">
        <ele>507.2</ele>
        <time>2025-12-28T10:18:26.000Z</time>
      </trkpt>
      <trkpt lat="42.99145" lon="1.12876">
        <ele>508.6</ele>
        <time>2025-12-28T10:18:27.000Z</time>
      </trkpt>
      <trkpt lat="42.99146" lon="1.12874">
        <ele>510.6</ele>
        <time>2025-12-28T10:18:28.000Z</time>
      </trkpt>
      <trkpt lat="42.99147" lon="1.1287">
        <ele>510.5</ele>
        <time>2025-12-28T10:18:29.000Z</time>
      </trkpt>
      <trkpt lat="42.99149" lon="1.12867">
        <ele>510.5</ele>
        <time>2025-12-28T10:18:30.000Z</time>
      </trkpt>
      <trkpt lat="42.9915" lon="1.12864">
        <ele>510.9</ele>
        <time>2025-12-28T10:18:31.000Z</time>
      </trkpt>
      <trkpt lat="42.99151" lon="1.12861">
        <ele>510.4</ele>
        <time>2025-12-28T10:18:32.000Z</time>
      </trkpt>
      <trkpt lat="42.99152" lon="1.12858">
        <ele>510.5</ele>
        <time>2025-12-28T10:18:33.000Z</time>
      </trkpt>
      <trkpt lat="42.99153" lon="1.12855">
        <ele>510.9</ele>
        <time>2025-12-28T10:18:34.000Z</time>
      </trkpt>
      <trkpt lat="42.99154" lon="1.12853">
        <ele>510.7</ele>
        <time>2025-12-28T10:18:35.000Z</time>
      </trkpt>
      <trkpt lat="42.99156" lon="1.12849">
        <ele>511.7</ele>
        <time>2025-12-28T10:18:36.000Z</time>
      </trkpt>
      <trkpt lat="42.99156" lon="1.12845">
        <ele>511.5</ele>
        <time>2025-12-28T10:18:37.000Z</time>
      </trkpt>
      <trkpt lat="42.99157" lon="1.12841">
        <ele>511.8</ele>
        <time>2025-12-28T10:18:38.000Z</time>
      </trkpt>
      <trkpt lat="42.99158" lon="1.12838">
        <ele>512.7</ele>
        <time>2025-12-28T10:18:39.000Z</time>
      </trkpt>
      <trkpt lat="42.9916" lon="1.12834">
        <ele>512.6</ele>
        <time>2025-12-28T10:18:40.000Z</time>
      </trkpt>
      <trkpt lat="42.9916" lon="1.1283">
        <ele>512.2</ele>
        <time>2025-12-28T10:18:41.000Z</time>
      </trkpt>
      <trkpt lat="42.99161" lon="1.12826">
        <ele>513.5</ele>
        <time>2025-12-28T10:18:42.000Z</time>
      </trkpt>
      <trkpt lat="42.99163" lon="1.12823">
        <ele>513.4</ele>
        <time>2025-12-28T10:18:43.000Z</time>
      </trkpt>
      <trkpt lat="42.99164" lon="1.12821">
        <ele>513.4</ele>
        <time>2025-12-28T10:18:44.000Z</time>
      </trkpt>
      <trkpt lat="42.99164" lon="1.12821">
        <ele>513.2</ele>
        <time>2025-12-28T10:18:45.000Z</time>
      </trkpt>
      <trkpt lat="42.99165" lon="1.12821">
        <ele>513.8</ele>
        <time>2025-12-28T10:18:46.000Z</time>
      </trkpt>
      <trkpt lat="42.99165" lon="1.12821">
        <ele>513.9</ele>
        <time>2025-12-28T10:18:47.000Z</time>
      </trkpt>
      <trkpt lat="42.99165" lon="1.12821">
        <ele>513.1</ele>
        <time>2025-12-28T10:18:48.000Z</time>
      </trkpt>
      <trkpt lat="42.99165" lon="1.1282">
        <ele>512.8</ele>
        <time>2025-12-28T10:18:49.000Z</time>
      </trkpt>
      <trkpt lat="42.99166" lon="1.1282">
        <ele>512.7</ele>
        <time>2025-12-28T10:18:50.000Z</time>
      </trkpt>
      <trkpt lat="42.99166" lon="1.12818">
        <ele>512.1</ele>
        <time>2025-12-28T10:18:51.000Z</time>
      </trkpt>
      <trkpt lat="42.99165" lon="1.12817">
        <ele>511.5</ele>
        <time>2025-12-28T10:18:52.000Z</time>
      </trkpt>
      <trkpt lat="42.99166" lon="1.12816">
        <ele>511.6</ele>
        <time>2025-12-28T10:18:53.000Z</time>
      </trkpt>
      <trkpt lat="42.99168" lon="1.12814">
        <ele>510.9</ele>
        <time>2025-12-28T10:18:54.000Z</time>
      </trkpt>
      <trkpt lat="42.9917" lon="1.12812">
        <ele>511.3</ele>
        <time>2025-12-28T10:18:55.000Z</time>
      </trkpt>
      <trkpt lat="42.9917" lon="1.12809">
        <ele>510.3</ele>
        <time>2025-12-28T10:18:56.000Z</time>
      </trkpt>
      <trkpt lat="42.99171" lon="1.12805">
        <ele>510.7</ele>
        <time>2025-12-28T10:18:57.000Z</time>
      </trkpt>
      <trkpt lat="42.99171" lon="1.12803">
        <ele>510.5</ele>
        <time>2025-12-28T10:18:58.000Z</time>
      </trkpt>
      <trkpt lat="42.99172" lon="1.12801">
        <ele>510.1</ele>
        <time>2025-12-28T10:18:59.000Z</time>
      </trkpt>
      <trkpt lat="42.99172" lon="1.12799">
        <ele>511</ele>
        <time>2025-12-28T10:19:00.000Z</time>
      </trkpt>
      <trkpt lat="42.99173" lon="1.12797">
        <ele>510.3</ele>
        <time>2025-12-28T10:19:01.000Z</time>
      </trkpt>
      <trkpt lat="42.99174" lon="1.12795">
        <ele>510.9</ele>
        <time>2025-12-28T10:19:02.000Z</time>
      </trkpt>
      <trkpt lat="42.99175" lon="1.12794">
        <ele>509.9</ele>
        <time>2025-12-28T10:19:03.000Z</time>
      </trkpt>
      <trkpt lat="42.99174" lon="1.12793">
        <ele>510.6</ele>
        <time>2025-12-28T10:19:04.000Z</time>
      </trkpt>
      <trkpt lat="42.99174" lon="1.12792">
        <ele>510.4</ele>
        <time>2025-12-28T10:19:05.000Z</time>
      </trkpt>
      <trkpt lat="42.99173" lon="1.12791">
        <ele>510.7</ele>
        <time>2025-12-28T10:19:06.000Z</time>
      </trkpt>
      <trkpt lat="42.99173" lon="1.1279">
        <ele>511.3</ele>
        <time>2025-12-28T10:19:07.000Z</time>
      </trkpt>
      <trkpt lat="42.99172" lon="1.12788">
        <ele>511.4</ele>
        <time>2025-12-28T10:19:08.000Z</time>
      </trkpt>
      <trkpt lat="42.99172" lon="1.12788">
        <ele>512</ele>
        <time>2025-12-28T10:19:09.000Z</time>
      </trkpt>
      <trkpt lat="42.99172" lon="1.12786">
        <ele>511.7</ele>
        <time>2025-12-28T10:19:10.000Z</time>
      </trkpt>
      <trkpt lat="42.99171" lon="1.12785">
        <ele>512.9</ele>
        <time>2025-12-28T10:19:11.000Z</time>
      </trkpt>
      <trkpt lat="42.99171" lon="1.12783">
        <ele>513.6</ele>
        <time>2025-12-28T10:19:12.000Z</time>
      </trkpt>
      <trkpt lat="42.9917" lon="1.12782">
        <ele>514</ele>
        <time>2025-12-28T10:19:13.000Z</time>
      </trkpt>
      <trkpt lat="42.99169" lon="1.1278">
        <ele>513.2</ele>
        <time>2025-12-28T10:19:14.000Z</time>
      </trkpt>
      <trkpt lat="42.99169" lon="1.12777">
        <ele>513.1</ele>
        <time>2025-12-28T10:19:15.000Z</time>
      </trkpt>
      <trkpt lat="42.99169" lon="1.12774">
        <ele>511.2</ele>
        <time>2025-12-28T10:19:16.000Z</time>
      </trkpt>
      <trkpt lat="42.99169" lon="1.12772">
        <ele>510.7</ele>
        <time>2025-12-28T10:19:17.000Z</time>
      </trkpt>
      <trkpt lat="42.99168" lon="1.1277">
        <ele>509.3</ele>
        <time>2025-12-28T10:19:18.000Z</time>
      </trkpt>
      <trkpt lat="42.99166" lon="1.12768">
        <ele>508.9</ele>
        <time>2025-12-28T10:19:19.000Z</time>
      </trkpt>
      <trkpt lat="42.99166" lon="1.12766">
        <ele>508.3</ele>
        <time>2025-12-28T10:19:20.000Z</time>
      </trkpt>
      <trkpt lat="42.99165" lon="1.12765">
        <ele>508</ele>
        <time>2025-12-28T10:19:21.000Z</time>
      </trkpt>
      <trkpt lat="42.99165" lon="1.12762">
        <ele>508.8</ele>
        <time>2025-12-28T10:19:22.000Z</time>
      </trkpt>
      <trkpt lat="42.99164" lon="1.12759">
        <ele>508.6</ele>
        <time>2025-12-28T10:19:23.000Z</time>
      </trkpt>
      <trkpt lat="42.99162" lon="1.12758">
        <ele>509.7</ele>
        <time>2025-12-28T10:19:24.000Z</time>
      </trkpt>
      <trkpt lat="42.99161" lon="1.12756">
        <ele>510.7</ele>
        <time>2025-12-28T10:19:25.000Z</time>
      </trkpt>
      <trkpt lat="42.99159" lon="1.12754">
        <ele>511.3</ele>
        <time>2025-12-28T10:19:26.000Z</time>
      </trkpt>
      <trkpt lat="42.99157" lon="1.12752">
        <ele>511.5</ele>
        <time>2025-12-28T10:19:27.000Z</time>
      </trkpt>
      <trkpt lat="42.99155" lon="1.12751">
        <ele>512</ele>
        <time>2025-12-28T10:19:28.000Z</time>
      </trkpt>
      <trkpt lat="42.99153" lon="1.1275">
        <ele>512.9</ele>
        <time>2025-12-28T10:19:29.000Z</time>
      </trkpt>
      <trkpt lat="42.99151" lon="1.12749">
        <ele>512.3</ele>
        <time>2025-12-28T10:19:30.000Z</time>
      </trkpt>
      <trkpt lat="42.99149" lon="1.12748">
        <ele>513.9</ele>
        <time>2025-12-28T10:19:31.000Z</time>
      </trkpt>
      <trkpt lat="42.99146" lon="1.12748">
        <ele>514.5</ele>
        <time>2025-12-28T10:19:32.000Z</time>
      </trkpt>
      <trkpt lat="42.99144" lon="1.12747">
        <ele>514.6</ele>
        <time>2025-12-28T10:19:33.000Z</time>
      </trkpt>
      <trkpt lat="42.99142" lon="1.12747">
        <ele>515.6</ele>
        <time>2025-12-28T10:19:34.000Z</time>
      </trkpt>
      <trkpt lat="42.99139" lon="1.12746">
        <ele>515.8</ele>
        <time>2025-12-28T10:19:35.000Z</time>
      </trkpt>
      <trkpt lat="42.99136" lon="1.12746">
        <ele>515.3</ele>
        <time>2025-12-28T10:19:36.000Z</time>
      </trkpt>
      <trkpt lat="42.99134" lon="1.12745">
        <ele>515.1</ele>
        <time>2025-12-28T10:19:37.000Z</time>
      </trkpt>
      <trkpt lat="42.99131" lon="1.12743">
        <ele>514.9</ele>
        <time>2025-12-28T10:19:38.000Z</time>
      </trkpt>
      <trkpt lat="42.99129" lon="1.12741">
        <ele>515.8</ele>
        <time>2025-12-28T10:19:39.000Z</time>
      </trkpt>
      <trkpt lat="42.99127" lon="1.12739">
        <ele>515.5</ele>
        <time>2025-12-28T10:19:40.000Z</time>
      </trkpt>
      <trkpt lat="42.99125" lon="1.12738">
        <ele>516.2</ele>
        <time>2025-12-28T10:19:41.000Z</time>
      </trkpt>
      <trkpt lat="42.99122" lon="1.12736">
        <ele>517.5</ele>
        <time>2025-12-28T10:19:42.000Z</time>
      </trkpt>
      <trkpt lat="42.9912" lon="1.12734">
        <ele>517.6</ele>
        <time>2025-12-28T10:19:43.000Z</time>
      </trkpt>
      <trkpt lat="42.99119" lon="1.12731">
        <ele>517.9</ele>
        <time>2025-12-28T10:19:44.000Z</time>
      </trkpt>
      <trkpt lat="42.99119" lon="1.12729">
        <ele>519</ele>
        <time>2025-12-28T10:19:45.000Z</time>
      </trkpt>
      <trkpt lat="42.99118" lon="1.12727">
        <ele>519.1</ele>
        <time>2025-12-28T10:19:46.000Z</time>
      </trkpt>
      <trkpt lat="42.99116" lon="1.12725">
        <ele>519</ele>
        <time>2025-12-28T10:19:47.000Z</time>
      </trkpt>
      <trkpt lat="42.99115" lon="1.12724">
        <ele>518.4</ele>
        <time>2025-12-28T10:19:48.000Z</time>
      </trkpt>
      <trkpt lat="42.99113" lon="1.12722">
        <ele>518.2</ele>
        <time>2025-12-28T10:19:49.000Z</time>
      </trkpt>
      <trkpt lat="42.99111" lon="1.12721">
        <ele>519.7</ele>
        <time>2025-12-28T10:19:50.000Z</time>
      </trkpt>
      <trkpt lat="42.9911" lon="1.12721">
        <ele>519.9</ele>
        <time>2025-12-28T10:19:51.000Z</time>
      </trkpt>
      <trkpt lat="42.99109" lon="1.12722">
        <ele>521.6</ele>
        <time>2025-12-28T10:19:52.000Z</time>
      </trkpt>
      <trkpt lat="42.99109" lon="1.12722">
        <ele>521.9</ele>
        <time>2025-12-28T10:19:53.000Z</time>
      </trkpt>
      <trkpt lat="42.99108" lon="1.12723">
        <ele>522.1</ele>
        <time>2025-12-28T10:19:54.000Z</time>
      </trkpt>
      <trkpt lat="42.99108" lon="1.12723">
        <ele>522</ele>
        <time>2025-12-28T10:19:55.000Z</time>
      </trkpt>
      <trkpt lat="42.99108" lon="1.12722">
        <ele>522.5</ele>
        <time>2025-12-28T10:19:56.000Z</time>
      </trkpt>
      <trkpt lat="42.99108" lon="1.12722">
        <ele>522.8</ele>
        <time>2025-12-28T10:19:57.000Z</time>
      </trkpt>
      <trkpt lat="42.99108" lon="1.12722">
        <ele>522.6</ele>
        <time>2025-12-28T10:19:58.000Z</time>
      </trkpt>
      <trkpt lat="42.99108" lon="1.12722">
        <ele>522.6</ele>
        <time>2025-12-28T10:19:59.000Z</time>
      </trkpt>
      <trkpt lat="42.99107" lon="1.12723">
        <ele>522.6</ele>
        <time>2025-12-28T10:20:00.000Z</time>
      </trkpt>
      <trkpt lat="42.99106" lon="1.12723">
        <ele>521.7</ele>
        <time>2025-12-28T10:20:01.000Z</time>
      </trkpt>
      <trkpt lat="42.99104" lon="1.12724">
        <ele>523.3</ele>
        <time>2025-12-28T10:20:02.000Z</time>
      </trkpt>
      <trkpt lat="42.99101" lon="1.12725">
        <ele>523</ele>
        <time>2025-12-28T10:20:03.000Z</time>
      </trkpt>
      <trkpt lat="42.99099" lon="1.12726">
        <ele>522.2</ele>
        <time>2025-12-28T10:20:04.000Z</time>
      </trkpt>
      <trkpt lat="42.99097" lon="1.12727">
        <ele>522.5</ele>
        <time>2025-12-28T10:20:05.000Z</time>
      </trkpt>
      <trkpt lat="42.99094" lon="1.12728">
        <ele>522.7</ele>
        <time>2025-12-28T10:20:06.000Z</time>
      </trkpt>
      <trkpt lat="42.9909" lon="1.12728">
        <ele>522.9</ele>
        <time>2025-12-28T10:20:07.000Z</time>
      </trkpt>
      <trkpt lat="42.99088" lon="1.12728">
        <ele>524.4</ele>
        <time>2025-12-28T10:20:08.000Z</time>
      </trkpt>
      <trkpt lat="42.99086" lon="1.12726">
        <ele>525.1</ele>
        <time>2025-12-28T10:20:09.000Z</time>
      </trkpt>
      <trkpt lat="42.99082" lon="1.12724">
        <ele>525.1</ele>
        <time>2025-12-28T10:20:10.000Z</time>
      </trkpt>
      <trkpt lat="42.99078" lon="1.12723">
        <ele>526.1</ele>
        <time>2025-12-28T10:20:11.000Z</time>
      </trkpt>
      <trkpt lat="42.99076" lon="1.12722">
        <ele>527.6</ele>
        <time>2025-12-28T10:20:12.000Z</time>
      </trkpt>
      <trkpt lat="42.99072" lon="1.12722">
        <ele>528.4</ele>
        <time>2025-12-28T10:20:13.000Z</time>
      </trkpt>
      <trkpt lat="42.9907" lon="1.12721">
        <ele>527.7</ele>
        <time>2025-12-28T10:20:14.000Z</time>
      </trkpt>
      <trkpt lat="42.99066" lon="1.12721">
        <ele>526.7</ele>
        <time>2025-12-28T10:20:15.000Z</time>
      </trkpt>
      <trkpt lat="42.99064" lon="1.1272">
        <ele>529.3</ele>
        <time>2025-12-28T10:20:16.000Z</time>
      </trkpt>
      <trkpt lat="42.99061" lon="1.12717">
        <ele>529.6</ele>
        <time>2025-12-28T10:20:17.000Z</time>
      </trkpt>
      <trkpt lat="42.99058" lon="1.12715">
        <ele>529.8</ele>
        <time>2025-12-28T10:20:18.000Z</time>
      </trkpt>
      <trkpt lat="42.99056" lon="1.12712">
        <ele>529.4</ele>
        <time>2025-12-28T10:20:19.000Z</time>
      </trkpt>
      <trkpt lat="42.99055" lon="1.12709">
        <ele>530.1</ele>
        <time>2025-12-28T10:20:20.000Z</time>
      </trkpt>
      <trkpt lat="42.99053" lon="1.12707">
        <ele>530.1</ele>
        <time>2025-12-28T10:20:21.000Z</time>
      </trkpt>
      <trkpt lat="42.99051" lon="1.12705">
        <ele>529.3</ele>
        <time>2025-12-28T10:20:22.000Z</time>
      </trkpt>
      <trkpt lat="42.99049" lon="1.12703">
        <ele>529.2</ele>
        <time>2025-12-28T10:20:23.000Z</time>
      </trkpt>
      <trkpt lat="42.99048" lon="1.12702">
        <ele>529.9</ele>
        <time>2025-12-28T10:20:24.000Z</time>
      </trkpt>
      <trkpt lat="42.99046" lon="1.12701">
        <ele>531.1</ele>
        <time>2025-12-28T10:20:25.000Z</time>
      </trkpt>
      <trkpt lat="42.99043" lon="1.127">
        <ele>531.1</ele>
        <time>2025-12-28T10:20:26.000Z</time>
      </trkpt>
      <trkpt lat="42.99042" lon="1.12699">
        <ele>531</ele>
        <time>2025-12-28T10:20:27.000Z</time>
      </trkpt>
      <trkpt lat="42.9904" lon="1.12697">
        <ele>531.4</ele>
        <time>2025-12-28T10:20:28.000Z</time>
      </trkpt>
      <trkpt lat="42.99038" lon="1.12696">
        <ele>531.4</ele>
        <time>2025-12-28T10:20:29.000Z</time>
      </trkpt>
      <trkpt lat="42.99036" lon="1.12694">
        <ele>531.7</ele>
        <time>2025-12-28T10:20:30.000Z</time>
      </trkpt>
      <trkpt lat="42.99035" lon="1.12692">
        <ele>531.9</ele>
        <time>2025-12-28T10:20:31.000Z</time>
      </trkpt>
      <trkpt lat="42.99034" lon="1.1269">
        <ele>530.5</ele>
        <time>2025-12-28T10:20:32.000Z</time>
      </trkpt>
      <trkpt lat="42.99032" lon="1.12688">
        <ele>529.8</ele>
        <time>2025-12-28T10:20:33.000Z</time>
      </trkpt>
      <trkpt lat="42.99031" lon="1.12687">
        <ele>529.8</ele>
        <time>2025-12-28T10:20:34.000Z</time>
      </trkpt>
      <trkpt lat="42.9903" lon="1.12686">
        <ele>530.5</ele>
        <time>2025-12-28T10:20:35.000Z</time>
      </trkpt>
      <trkpt lat="42.99028" lon="1.12684">
        <ele>531.3</ele>
        <time>2025-12-28T10:20:36.000Z</time>
      </trkpt>
      <trkpt lat="42.99026" lon="1.12684">
        <ele>531</ele>
        <time>2025-12-28T10:20:37.000Z</time>
      </trkpt>
      <trkpt lat="42.99023" lon="1.12683">
        <ele>530.8</ele>
        <time>2025-12-28T10:20:38.000Z</time>
      </trkpt>
      <trkpt lat="42.99021" lon="1.12682">
        <ele>531</ele>
        <time>2025-12-28T10:20:39.000Z</time>
      </trkpt>
      <trkpt lat="42.99018" lon="1.12681">
        <ele>530.8</ele>
        <time>2025-12-28T10:20:40.000Z</time>
      </trkpt>
      <trkpt lat="42.99015" lon="1.12679">
        <ele>530.7</ele>
        <time>2025-12-28T10:20:41.000Z</time>
      </trkpt>
      <trkpt lat="42.99013" lon="1.12677">
        <ele>531.2</ele>
        <time>2025-12-28T10:20:42.000Z</time>
      </trkpt>
      <trkpt lat="42.9901" lon="1.12675">
        <ele>531.6</ele>
        <time>2025-12-28T10:20:43.000Z</time>
      </trkpt>
      <trkpt lat="42.99008" lon="1.12673">
        <ele>531.6</ele>
        <time>2025-12-28T10:20:44.000Z</time>
      </trkpt>
      <trkpt lat="42.99005" lon="1.12672">
        <ele>531.8</ele>
        <time>2025-12-28T10:20:45.000Z</time>
      </trkpt>
      <trkpt lat="42.99003" lon="1.1267">
        <ele>531.8</ele>
        <time>2025-12-28T10:20:46.000Z</time>
      </trkpt>
      <trkpt lat="42.99001" lon="1.12669">
        <ele>532.6</ele>
        <time>2025-12-28T10:20:47.000Z</time>
      </trkpt>
      <trkpt lat="42.98999" lon="1.12668">
        <ele>532.6</ele>
        <time>2025-12-28T10:20:48.000Z</time>
      </trkpt>
      <trkpt lat="42.98996" lon="1.12667">
        <ele>532.6</ele>
        <time>2025-12-28T10:20:49.000Z</time>
      </trkpt>
      <trkpt lat="42.98994" lon="1.12665">
        <ele>532.8</ele>
        <time>2025-12-28T10:20:50.000Z</time>
      </trkpt>
      <trkpt lat="42.98991" lon="1.12662">
        <ele>531.9</ele>
        <time>2025-12-28T10:20:51.000Z</time>
      </trkpt>
      <trkpt lat="42.9899" lon="1.1266">
        <ele>532.1</ele>
        <time>2025-12-28T10:20:52.000Z</time>
      </trkpt>
      <trkpt lat="42.98988" lon="1.12658">
        <ele>531.9</ele>
        <time>2025-12-28T10:20:53.000Z</time>
      </trkpt>
      <trkpt lat="42.98987" lon="1.12656">
        <ele>531.6</ele>
        <time>2025-12-28T10:20:54.000Z</time>
      </trkpt>
      <trkpt lat="42.98986" lon="1.12655">
        <ele>532.8</ele>
        <time>2025-12-28T10:20:55.000Z</time>
      </trkpt>
      <trkpt lat="42.98986" lon="1.12652">
        <ele>533.5</ele>
        <time>2025-12-28T10:20:56.000Z</time>
      </trkpt>
      <trkpt lat="42.98986" lon="1.12649">
        <ele>534.5</ele>
        <time>2025-12-28T10:20:57.000Z</time>
      </trkpt>
      <trkpt lat="42.98986" lon="1.12647">
        <ele>535.4</ele>
        <time>2025-12-28T10:20:58.000Z</time>
      </trkpt>
      <trkpt lat="42.98985" lon="1.12645">
        <ele>535.8</ele>
        <time>2025-12-28T10:20:59.000Z</time>
      </trkpt>
      <trkpt lat="42.98985" lon="1.12642">
        <ele>534.3</ele>
        <time>2025-12-28T10:21:00.000Z</time>
      </trkpt>
      <trkpt lat="42.98984" lon="1.12638">
        <ele>533.4</ele>
        <time>2025-12-28T10:21:01.000Z</time>
      </trkpt>
      <trkpt lat="42.98983" lon="1.12636">
        <ele>533.3</ele>
        <time>2025-12-28T10:21:02.000Z</time>
      </trkpt>
      <trkpt lat="42.98982" lon="1.12634">
        <ele>534.6</ele>
        <time>2025-12-28T10:21:03.000Z</time>
      </trkpt>
      <trkpt lat="42.9898" lon="1.12631">
        <ele>534.6</ele>
        <time>2025-12-28T10:21:04.000Z</time>
      </trkpt>
      <trkpt lat="42.98979" lon="1.12629">
        <ele>533.2</ele>
        <time>2025-12-28T10:21:05.000Z</time>
      </trkpt>
      <trkpt lat="42.98979" lon="1.12627">
        <ele>532.7</ele>
        <time>2025-12-28T10:21:06.000Z</time>
      </trkpt>
      <trkpt lat="42.9898" lon="1.12624">
        <ele>531.5</ele>
        <time>2025-12-28T10:21:07.000Z</time>
      </trkpt>
      <trkpt lat="42.98981" lon="1.12622">
        <ele>532.2</ele>
        <time>2025-12-28T10:21:08.000Z</time>
      </trkpt>
      <trkpt lat="42.98981" lon="1.12618">
        <ele>532.9</ele>
        <time>2025-12-28T10:21:09.000Z</time>
      </trkpt>
      <trkpt lat="42.98984" lon="1.12615">
        <ele>532.6</ele>
        <time>2025-12-28T10:21:10.000Z</time>
      </trkpt>
      <trkpt lat="42.98986" lon="1.12612">
        <ele>531.2</ele>
        <time>2025-12-28T10:21:11.000Z</time>
      </trkpt>
      <trkpt lat="42.98987" lon="1.1261">
        <ele>530.8</ele>
        <time>2025-12-28T10:21:12.000Z</time>
      </trkpt>
      <trkpt lat="42.98988" lon="1.12608">
        <ele>529</ele>
        <time>2025-12-28T10:21:13.000Z</time>
      </trkpt>
      <trkpt lat="42.98989" lon="1.12605">
        <ele>530.3</ele>
        <time>2025-12-28T10:21:14.000Z</time>
      </trkpt>
      <trkpt lat="42.98989" lon="1.12602">
        <ele>529.3</ele>
        <time>2025-12-28T10:21:15.000Z</time>
      </trkpt>
      <trkpt lat="42.9899" lon="1.12598">
        <ele>529.5</ele>
        <time>2025-12-28T10:21:16.000Z</time>
      </trkpt>
      <trkpt lat="42.98989" lon="1.12595">
        <ele>528.7</ele>
        <time>2025-12-28T10:21:17.000Z</time>
      </trkpt>
      <trkpt lat="42.98989" lon="1.12592">
        <ele>528</ele>
        <time>2025-12-28T10:21:18.000Z</time>
      </trkpt>
      <trkpt lat="42.98988" lon="1.12588">
        <ele>527.7</ele>
        <time>2025-12-28T10:21:19.000Z</time>
      </trkpt>
      <trkpt lat="42.98988" lon="1.12586">
        <ele>528.3</ele>
        <time>2025-12-28T10:21:20.000Z</time>
      </trkpt>
      <trkpt lat="42.98986" lon="1.12583">
        <ele>527.4</ele>
        <time>2025-12-28T10:21:21.000Z</time>
      </trkpt>
      <trkpt lat="42.98984" lon="1.1258">
        <ele>528.7</ele>
        <time>2025-12-28T10:21:22.000Z</time>
      </trkpt>
      <trkpt lat="42.98982" lon="1.12578">
        <ele>529.6</ele>
        <time>2025-12-28T10:21:23.000Z</time>
      </trkpt>
      <trkpt lat="42.9898" lon="1.12575">
        <ele>529.1</ele>
        <time>2025-12-28T10:21:24.000Z</time>
      </trkpt>
      <trkpt lat="42.98978" lon="1.12573">
        <ele>529</ele>
        <time>2025-12-28T10:21:25.000Z</time>
      </trkpt>
      <trkpt lat="42.98975" lon="1.1257">
        <ele>529.5</ele>
        <time>2025-12-28T10:21:26.000Z</time>
      </trkpt>
      <trkpt lat="42.98973" lon="1.12569">
        <ele>529.5</ele>
        <time>2025-12-28T10:21:27.000Z</time>
      </trkpt>
      <trkpt lat="42.98971" lon="1.12567">
        <ele>529.1</ele>
        <time>2025-12-28T10:21:28.000Z</time>
      </trkpt>
      <trkpt lat="42.98969" lon="1.12565">
        <ele>528.7</ele>
        <time>2025-12-28T10:21:29.000Z</time>
      </trkpt>
      <trkpt lat="42.98967" lon="1.12564">
        <ele>527</ele>
        <time>2025-12-28T10:21:30.000Z</time>
      </trkpt>
      <trkpt lat="42.98965" lon="1.12562">
        <ele>525.5</ele>
        <time>2025-12-28T10:21:31.000Z</time>
      </trkpt>
      <trkpt lat="42.98962" lon="1.12558">
        <ele>525.1</ele>
        <time>2025-12-28T10:21:32.000Z</time>
      </trkpt>
      <trkpt lat="42.9896" lon="1.12555">
        <ele>524.6</ele>
        <time>2025-12-28T10:21:33.000Z</time>
      </trkpt>
      <trkpt lat="42.98959" lon="1.12553">
        <ele>522.6</ele>
        <time>2025-12-28T10:21:34.000Z</time>
      </trkpt>
      <trkpt lat="42.98957" lon="1.12551">
        <ele>521.7</ele>
        <time>2025-12-28T10:21:35.000Z</time>
      </trkpt>
      <trkpt lat="42.98955" lon="1.12549">
        <ele>521.7</ele>
        <time>2025-12-28T10:21:36.000Z</time>
      </trkpt>
      <trkpt lat="42.98952" lon="1.12546">
        <ele>521.9</ele>
        <time>2025-12-28T10:21:37.000Z</time>
      </trkpt>
      <trkpt lat="42.9895" lon="1.12544">
        <ele>521.8</ele>
        <time>2025-12-28T10:21:38.000Z</time>
      </trkpt>
      <trkpt lat="42.98948" lon="1.12543">
        <ele>522.4</ele>
        <time>2025-12-28T10:21:39.000Z</time>
      </trkpt>
      <trkpt lat="42.98946" lon="1.12542">
        <ele>522.1</ele>
        <time>2025-12-28T10:21:40.000Z</time>
      </trkpt>
      <trkpt lat="42.98943" lon="1.12541">
        <ele>522.3</ele>
        <time>2025-12-28T10:21:41.000Z</time>
      </trkpt>
      <trkpt lat="42.98941" lon="1.12539">
        <ele>522.3</ele>
        <time>2025-12-28T10:21:42.000Z</time>
      </trkpt>
      <trkpt lat="42.98938" lon="1.12539">
        <ele>523.1</ele>
        <time>2025-12-28T10:21:43.000Z</time>
      </trkpt>
      <trkpt lat="42.98936" lon="1.12538">
        <ele>523.7</ele>
        <time>2025-12-28T10:21:44.000Z</time>
      </trkpt>
      <trkpt lat="42.98934" lon="1.12538">
        <ele>522.6</ele>
        <time>2025-12-28T10:21:45.000Z</time>
      </trkpt>
      <trkpt lat="42.98931" lon="1.12537">
        <ele>523.5</ele>
        <time>2025-12-28T10:21:46.000Z</time>
      </trkpt>
      <trkpt lat="42.98929" lon="1.12537">
        <ele>523.4</ele>
        <time>2025-12-28T10:21:47.000Z</time>
      </trkpt>
      <trkpt lat="42.98926" lon="1.12536">
        <ele>523.5</ele>
        <time>2025-12-28T10:21:48.000Z</time>
      </trkpt>
      <trkpt lat="42.98924" lon="1.12536">
        <ele>521.7</ele>
        <time>2025-12-28T10:21:49.000Z</time>
      </trkpt>
      <trkpt lat="42.98922" lon="1.12536">
        <ele>521.6</ele>
        <time>2025-12-28T10:21:50.000Z</time>
      </trkpt>
      <trkpt lat="42.9892" lon="1.12536">
        <ele>521.7</ele>
        <time>2025-12-28T10:21:51.000Z</time>
      </trkpt>
      <trkpt lat="42.9892" lon="1.12535">
        <ele>521.8</ele>
        <time>2025-12-28T10:21:52.000Z</time>
      </trkpt>
      <trkpt lat="42.98918" lon="1.12533">
        <ele>521.3</ele>
        <time>2025-12-28T10:21:53.000Z</time>
      </trkpt>
      <trkpt lat="42.98916" lon="1.12531">
        <ele>521.8</ele>
        <time>2025-12-28T10:21:54.000Z</time>
      </trkpt>
      <trkpt lat="42.98913" lon="1.1253">
        <ele>522.4</ele>
        <time>2025-12-28T10:21:55.000Z</time>
      </trkpt>
      <trkpt lat="42.98912" lon="1.1253">
        <ele>522.2</ele>
        <time>2025-12-28T10:21:56.000Z</time>
      </trkpt>
      <trkpt lat="42.9891" lon="1.12529">
        <ele>521.6</ele>
        <time>2025-12-28T10:21:57.000Z</time>
      </trkpt>
      <trkpt lat="42.98909" lon="1.12528">
        <ele>522.9</ele>
        <time>2025-12-28T10:21:58.000Z</time>
      </trkpt>
      <trkpt lat="42.98907" lon="1.12527">
        <ele>523.1</ele>
        <time>2025-12-28T10:21:59.000Z</time>
      </trkpt>
      <trkpt lat="42.98904" lon="1.12526">
        <ele>522.3</ele>
        <time>2025-12-28T10:22:00.000Z</time>
      </trkpt>
      <trkpt lat="42.98901" lon="1.12525">
        <ele>522.1</ele>
        <time>2025-12-28T10:22:01.000Z</time>
      </trkpt>
      <trkpt lat="42.98899" lon="1.12523">
        <ele>522.2</ele>
        <time>2025-12-28T10:22:02.000Z</time>
      </trkpt>
      <trkpt lat="42.98897" lon="1.12523">
        <ele>522.2</ele>
        <time>2025-12-28T10:22:03.000Z</time>
      </trkpt>
      <trkpt lat="42.98896" lon="1.12522">
        <ele>521.9</ele>
        <time>2025-12-28T10:22:04.000Z</time>
      </trkpt>
      <trkpt lat="42.98894" lon="1.12521">
        <ele>521.8</ele>
        <time>2025-12-28T10:22:05.000Z</time>
      </trkpt>
      <trkpt lat="42.98892" lon="1.1252">
        <ele>522.4</ele>
        <time>2025-12-28T10:22:06.000Z</time>
      </trkpt>
      <trkpt lat="42.98889" lon="1.12519">
        <ele>522.2</ele>
        <time>2025-12-28T10:22:07.000Z</time>
      </trkpt>
      <trkpt lat="42.98887" lon="1.12518">
        <ele>521.2</ele>
        <time>2025-12-28T10:22:08.000Z</time>
      </trkpt>
      <trkpt lat="42.98885" lon="1.12517">
        <ele>519.7</ele>
        <time>2025-12-28T10:22:09.000Z</time>
      </trkpt>
      <trkpt lat="42.98883" lon="1.12516">
        <ele>520.2</ele>
        <time>2025-12-28T10:22:10.000Z</time>
      </trkpt>
      <trkpt lat="42.98882" lon="1.12515">
        <ele>521.1</ele>
        <time>2025-12-28T10:22:11.000Z</time>
      </trkpt>
      <trkpt lat="42.9888" lon="1.12512">
        <ele>523.3</ele>
        <time>2025-12-28T10:22:12.000Z</time>
      </trkpt>
      <trkpt lat="42.98879" lon="1.1251">
        <ele>523.3</ele>
        <time>2025-12-28T10:22:13.000Z</time>
      </trkpt>
      <trkpt lat="42.98879" lon="1.12507">
        <ele>522.3</ele>
        <time>2025-12-28T10:22:14.000Z</time>
      </trkpt>
      <trkpt lat="42.98878" lon="1.12504">
        <ele>520.8</ele>
        <time>2025-12-28T10:22:15.000Z</time>
      </trkpt>
      <trkpt lat="42.98877" lon="1.12501">
        <ele>519.9</ele>
        <time>2025-12-28T10:22:16.000Z</time>
      </trkpt>
      <trkpt lat="42.98876" lon="1.12498">
        <ele>520.7</ele>
        <time>2025-12-28T10:22:17.000Z</time>
      </trkpt>
      <trkpt lat="42.98875" lon="1.12496">
        <ele>521.4</ele>
        <time>2025-12-28T10:22:18.000Z</time>
      </trkpt>
      <trkpt lat="42.98875" lon="1.12495">
        <ele>521.6</ele>
        <time>2025-12-28T10:22:19.000Z</time>
      </trkpt>
      <trkpt lat="42.98874" lon="1.12494">
        <ele>522</ele>
        <time>2025-12-28T10:22:20.000Z</time>
      </trkpt>
      <trkpt lat="42.98873" lon="1.12493">
        <ele>522.7</ele>
        <time>2025-12-28T10:22:21.000Z</time>
      </trkpt>
      <trkpt lat="42.98872" lon="1.12492">
        <ele>523.3</ele>
        <time>2025-12-28T10:22:22.000Z</time>
      </trkpt>
      <trkpt lat="42.98872" lon="1.12492">
        <ele>523.3</ele>
        <time>2025-12-28T10:22:23.000Z</time>
      </trkpt>
      <trkpt lat="42.98872" lon="1.12492">
        <ele>523.3</ele>
        <time>2025-12-28T10:22:24.000Z</time>
      </trkpt>
      <trkpt lat="42.98871" lon="1.12492">
        <ele>523.5</ele>
        <time>2025-12-28T10:22:25.000Z</time>
      </trkpt>
      <trkpt lat="42.98871" lon="1.12492">
        <ele>523.3</ele>
        <time>2025-12-28T10:22:26.000Z</time>
      </trkpt>
      <trkpt lat="42.9887" lon="1.12491">
        <ele>523.2</ele>
        <time>2025-12-28T10:22:27.000Z</time>
      </trkpt>
      <trkpt lat="42.9887" lon="1.1249">
        <ele>522.9</ele>
        <time>2025-12-28T10:22:28.000Z</time>
      </trkpt>
      <trkpt lat="42.98869" lon="1.12489">
        <ele>523.2</ele>
        <time>2025-12-28T10:22:29.000Z</time>
      </trkpt>
      <trkpt lat="42.98868" lon="1.12488">
        <ele>523.8</ele>
        <time>2025-12-28T10:22:30.000Z</time>
      </trkpt>
      <trkpt lat="42.98866" lon="1.12486">
        <ele>523.8</ele>
        <time>2025-12-28T10:22:31.000Z</time>
      </trkpt>
      <trkpt lat="42.98864" lon="1.12484">
        <ele>524.2</ele>
        <time>2025-12-28T10:22:32.000Z</time>
      </trkpt>
      <trkpt lat="42.98862" lon="1.12482">
        <ele>524.8</ele>
        <time>2025-12-28T10:22:33.000Z</time>
      </trkpt>
      <trkpt lat="42.9886" lon="1.1248">
        <ele>526.1</ele>
        <time>2025-12-28T10:22:34.000Z</time>
      </trkpt>
      <trkpt lat="42.98859" lon="1.1248">
        <ele>526.1</ele>
        <time>2025-12-28T10:22:35.000Z</time>
      </trkpt>
      <trkpt lat="42.98859" lon="1.1248">
        <ele>526.3</ele>
        <time>2025-12-28T10:22:36.000Z</time>
      </trkpt>
      <trkpt lat="42.98859" lon="1.1248">
        <ele>525.7</ele>
        <time>2025-12-28T10:22:37.000Z</time>
      </trkpt>
      <trkpt lat="42.98858" lon="1.12479">
        <ele>526</ele>
        <time>2025-12-28T10:22:38.000Z</time>
      </trkpt>
      <trkpt lat="42.98858" lon="1.12479">
        <ele>526</ele>
        <time>2025-12-28T10:22:39.000Z</time>
      </trkpt>
      <trkpt lat="42.98858" lon="1.12478">
        <ele>525.7</ele>
        <time>2025-12-28T10:22:40.000Z</time>
      </trkpt>
      <trkpt lat="42.98858" lon="1.12478">
        <ele>525</ele>
        <time>2025-12-28T10:22:41.000Z</time>
      </trkpt>
      <trkpt lat="42.98858" lon="1.12477">
        <ele>524.6</ele>
        <time>2025-12-28T10:22:42.000Z</time>
      </trkpt>
      <trkpt lat="42.98858" lon="1.12477">
        <ele>524.4</ele>
        <time>2025-12-28T10:22:43.000Z</time>
      </trkpt>
      <trkpt lat="42.98856" lon="1.12476">
        <ele>524.8</ele>
        <time>2025-12-28T10:22:59.000Z</time>
      </trkpt>
      <trkpt lat="42.98854" lon="1.12475">
        <ele>524.5</ele>
        <time>2025-12-28T10:23:00.000Z</time>
      </trkpt>
      <trkpt lat="42.98853" lon="1.12473">
        <ele>524.1</ele>
        <time>2025-12-28T10:23:01.000Z</time>
      </trkpt>
      <trkpt lat="42.98851" lon="1.12472">
        <ele>522.9</ele>
        <time>2025-12-28T10:23:02.000Z</time>
      </trkpt>
      <trkpt lat="42.9885" lon="1.12471">
        <ele>523.3</ele>
        <time>2025-12-28T10:23:03.000Z</time>
      </trkpt>
      <trkpt lat="42.98848" lon="1.1247">
        <ele>523.1</ele>
        <time>2025-12-28T10:23:04.000Z</time>
      </trkpt>
      <trkpt lat="42.98847" lon="1.12469">
        <ele>522.6</ele>
        <time>2025-12-28T10:23:05.000Z</time>
      </trkpt>
      <trkpt lat="42.98845" lon="1.12469">
        <ele>523.5</ele>
        <time>2025-12-28T10:23:06.000Z</time>
      </trkpt>
      <trkpt lat="42.98844" lon="1.12468">
        <ele>523.2</ele>
        <time>2025-12-28T10:23:07.000Z</time>
      </trkpt>
      <trkpt lat="42.98842" lon="1.12468">
        <ele>523.6</ele>
        <time>2025-12-28T10:23:08.000Z</time>
      </trkpt>
      <trkpt lat="42.9884" lon="1.12467">
        <ele>525</ele>
        <time>2025-12-28T10:23:09.000Z</time>
      </trkpt>
      <trkpt lat="42.98839" lon="1.12466">
        <ele>524.5</ele>
        <time>2025-12-28T10:23:10.000Z</time>
      </trkpt>
      <trkpt lat="42.98837" lon="1.12465">
        <ele>523.8</ele>
        <time>2025-12-28T10:23:11.000Z</time>
      </trkpt>
      <trkpt lat="42.98836" lon="1.12465">
        <ele>523.6</ele>
        <time>2025-12-28T10:23:12.000Z</time>
      </trkpt>
      <trkpt lat="42.98834" lon="1.12465">
        <ele>522.4</ele>
        <time>2025-12-28T10:23:13.000Z</time>
      </trkpt>
      <trkpt lat="42.98832" lon="1.12464">
        <ele>522.5</ele>
        <time>2025-12-28T10:23:14.000Z</time>
      </trkpt>
      <trkpt lat="42.9883" lon="1.12464">
        <ele>523.5</ele>
        <time>2025-12-28T10:23:15.000Z</time>
      </trkpt>
      <trkpt lat="42.98829" lon="1.12464">
        <ele>521.6</ele>
        <time>2025-12-28T10:23:16.000Z</time>
      </trkpt>
      <trkpt lat="42.98828" lon="1.12464">
        <ele>522.3</ele>
        <time>2025-12-28T10:23:17.000Z</time>
      </trkpt>
      <trkpt lat="42.98827" lon="1.12464">
        <ele>522</ele>
        <time>2025-12-28T10:23:18.000Z</time>
      </trkpt>
      <trkpt lat="42.98825" lon="1.12464">
        <ele>522.6</ele>
        <time>2025-12-28T10:23:19.000Z</time>
      </trkpt>
      <trkpt lat="42.98823" lon="1.12462">
        <ele>522.1</ele>
        <time>2025-12-28T10:23:20.000Z</time>
      </trkpt>
      <trkpt lat="42.98822" lon="1.12461">
        <ele>522.8</ele>
        <time>2025-12-28T10:23:21.000Z</time>
      </trkpt>
      <trkpt lat="42.9882" lon="1.12461">
        <ele>522.6</ele>
        <time>2025-12-28T10:23:22.000Z</time>
      </trkpt>
      <trkpt lat="42.98817" lon="1.12461">
        <ele>522.8</ele>
        <time>2025-12-28T10:23:23.000Z</time>
      </trkpt>
      <trkpt lat="42.98816" lon="1.12462">
        <ele>522.7</ele>
        <time>2025-12-28T10:23:24.000Z</time>
      </trkpt>
      <trkpt lat="42.98814" lon="1.12462">
        <ele>522.6</ele>
        <time>2025-12-28T10:23:25.000Z</time>
      </trkpt>
      <trkpt lat="42.98812" lon="1.12461">
        <ele>523.6</ele>
        <time>2025-12-28T10:23:26.000Z</time>
      </trkpt>
      <trkpt lat="42.9881" lon="1.1246">
        <ele>524.3</ele>
        <time>2025-12-28T10:23:27.000Z</time>
      </trkpt>
      <trkpt lat="42.98809" lon="1.12459">
        <ele>525.4</ele>
        <time>2025-12-28T10:23:28.000Z</time>
      </trkpt>
      <trkpt lat="42.98806" lon="1.12457">
        <ele>524.9</ele>
        <time>2025-12-28T10:23:29.000Z</time>
      </trkpt>
      <trkpt lat="42.98803" lon="1.12455">
        <ele>525.6</ele>
        <time>2025-12-28T10:23:30.000Z</time>
      </trkpt>
      <trkpt lat="42.988" lon="1.12453">
        <ele>525.7</ele>
        <time>2025-12-28T10:23:31.000Z</time>
      </trkpt>
      <trkpt lat="42.98797" lon="1.12452">
        <ele>526.3</ele>
        <time>2025-12-28T10:23:32.000Z</time>
      </trkpt>
      <trkpt lat="42.98794" lon="1.12451">
        <ele>525.4</ele>
        <time>2025-12-28T10:23:33.000Z</time>
      </trkpt>
      <trkpt lat="42.9879" lon="1.12451">
        <ele>524</ele>
        <time>2025-12-28T10:23:34.000Z</time>
      </trkpt>
      <trkpt lat="42.98788" lon="1.1245">
        <ele>524.3</ele>
        <time>2025-12-28T10:23:35.000Z</time>
      </trkpt>
      <trkpt lat="42.98786" lon="1.12451">
        <ele>523.8</ele>
        <time>2025-12-28T10:23:36.000Z</time>
      </trkpt>
      <trkpt lat="42.98784" lon="1.12451">
        <ele>524.3</ele>
        <time>2025-12-28T10:23:37.000Z</time>
      </trkpt>
      <trkpt lat="42.98782" lon="1.12452">
        <ele>524.2</ele>
        <time>2025-12-28T10:23:38.000Z</time>
      </trkpt>
      <trkpt lat="42.9878" lon="1.12451">
        <ele>525.6</ele>
        <time>2025-12-28T10:23:39.000Z</time>
      </trkpt>
      <trkpt lat="42.98778" lon="1.12451">
        <ele>525.9</ele>
        <time>2025-12-28T10:23:40.000Z</time>
      </trkpt>
      <trkpt lat="42.98776" lon="1.12451">
        <ele>526.7</ele>
        <time>2025-12-28T10:23:41.000Z</time>
      </trkpt>
      <trkpt lat="42.98773" lon="1.12451">
        <ele>523.9</ele>
        <time>2025-12-28T10:23:42.000Z</time>
      </trkpt>
      <trkpt lat="42.98771" lon="1.1245">
        <ele>524.7</ele>
        <time>2025-12-28T10:23:43.000Z</time>
      </trkpt>
      <trkpt lat="42.98768" lon="1.12451">
        <ele>524.1</ele>
        <time>2025-12-28T10:23:44.000Z</time>
      </trkpt>
      <trkpt lat="42.98767" lon="1.12451">
        <ele>524.6</ele>
        <time>2025-12-28T10:23:45.000Z</time>
      </trkpt>
      <trkpt lat="42.98766" lon="1.12451">
        <ele>524.8</ele>
        <time>2025-12-28T10:23:46.000Z</time>
      </trkpt>
      <trkpt lat="42.98764" lon="1.12451">
        <ele>524.2</ele>
        <time>2025-12-28T10:23:47.000Z</time>
      </trkpt>
      <trkpt lat="42.98762" lon="1.1245">
        <ele>523</ele>
        <time>2025-12-28T10:23:48.000Z</time>
      </trkpt>
      <trkpt lat="42.98759" lon="1.1245">
        <ele>524.2</ele>
        <time>2025-12-28T10:23:49.000Z</time>
      </trkpt>
      <trkpt lat="42.98757" lon="1.12449">
        <ele>526</ele>
        <time>2025-12-28T10:23:50.000Z</time>
      </trkpt>
      <trkpt lat="42.98754" lon="1.12449">
        <ele>526</ele>
        <time>2025-12-28T10:23:51.000Z</time>
      </trkpt>
      <trkpt lat="42.98752" lon="1.12449">
        <ele>526.4</ele>
        <time>2025-12-28T10:23:52.000Z</time>
      </trkpt>
      <trkpt lat="42.9875" lon="1.12449">
        <ele>526</ele>
        <time>2025-12-28T10:23:53.000Z</time>
      </trkpt>
      <trkpt lat="42.98747" lon="1.12449">
        <ele>526</ele>
        <time>2025-12-28T10:23:54.000Z</time>
      </trkpt>
      <trkpt lat="42.98745" lon="1.12449">
        <ele>526.2</ele>
        <time>2025-12-28T10:23:55.000Z</time>
      </trkpt>
      <trkpt lat="42.98743" lon="1.1245">
        <ele>525.9</ele>
        <time>2025-12-28T10:23:56.000Z</time>
      </trkpt>
      <trkpt lat="42.9874" lon="1.12451">
        <ele>525.7</ele>
        <time>2025-12-28T10:23:57.000Z</time>
      </trkpt>
      <trkpt lat="42.98737" lon="1.12452">
        <ele>525.1</ele>
        <time>2025-12-28T10:23:58.000Z</time>
      </trkpt>
      <trkpt lat="42.98734" lon="1.12452">
        <ele>524.2</ele>
        <time>2025-12-28T10:23:59.000Z</time>
      </trkpt>
      <trkpt lat="42.98733" lon="1.12453">
        <ele>524.9</ele>
        <time>2025-12-28T10:24:00.000Z</time>
      </trkpt>
      <trkpt lat="42.98732" lon="1.12454">
        <ele>524.5</ele>
        <time>2025-12-28T10:24:01.000Z</time>
      </trkpt>
      <trkpt lat="42.9873" lon="1.12454">
        <ele>524.7</ele>
        <time>2025-12-28T10:24:02.000Z</time>
      </trkpt>
      <trkpt lat="42.98728" lon="1.12455">
        <ele>522.9</ele>
        <time>2025-12-28T10:24:03.000Z</time>
      </trkpt>
      <trkpt lat="42.98725" lon="1.12455">
        <ele>523</ele>
        <time>2025-12-28T10:24:04.000Z</time>
      </trkpt>
      <trkpt lat="42.98722" lon="1.12455">
        <ele>523.1</ele>
        <time>2025-12-28T10:24:05.000Z</time>
      </trkpt>
      <trkpt lat="42.98718" lon="1.12456">
        <ele>522.7</ele>
        <time>2025-12-28T10:24:06.000Z</time>
      </trkpt>
      <trkpt lat="42.98714" lon="1.12456">
        <ele>522.7</ele>
        <time>2025-12-28T10:24:07.000Z</time>
      </trkpt>
      <trkpt lat="42.9871" lon="1.12456">
        <ele>522.3</ele>
        <time>2025-12-28T10:24:08.000Z</time>
      </trkpt>
      <trkpt lat="42.98707" lon="1.12456">
        <ele>522</ele>
        <time>2025-12-28T10:24:09.000Z</time>
      </trkpt>
      <trkpt lat="42.98704" lon="1.12457">
        <ele>522.1</ele>
        <time>2025-12-28T10:24:10.000Z</time>
      </trkpt>
      <trkpt lat="42.987" lon="1.12457">
        <ele>521.3</ele>
        <time>2025-12-28T10:24:11.000Z</time>
      </trkpt>
      <trkpt lat="42.98696" lon="1.12456">
        <ele>520.6</ele>
        <time>2025-12-28T10:24:12.000Z</time>
      </trkpt>
      <trkpt lat="42.98693" lon="1.12455">
        <ele>521.2</ele>
        <time>2025-12-28T10:24:13.000Z</time>
      </trkpt>
      <trkpt lat="42.98692" lon="1.12455">
        <ele>521.6</ele>
        <time>2025-12-28T10:24:14.000Z</time>
      </trkpt>
      <trkpt lat="42.98691" lon="1.12456">
        <ele>521.9</ele>
        <time>2025-12-28T10:24:15.000Z</time>
      </trkpt>
      <trkpt lat="42.98689" lon="1.12455">
        <ele>521.2</ele>
        <time>2025-12-28T10:24:16.000Z</time>
      </trkpt>
      <trkpt lat="42.98688" lon="1.12454">
        <ele>521.5</ele>
        <time>2025-12-28T10:24:17.000Z</time>
      </trkpt>
      <trkpt lat="42.98686" lon="1.12453">
        <ele>521.8</ele>
        <time>2025-12-28T10:24:18.000Z</time>
      </trkpt>
      <trkpt lat="42.98683" lon="1.12453">
        <ele>522.9</ele>
        <time>2025-12-28T10:24:19.000Z</time>
      </trkpt>
      <trkpt lat="42.98681" lon="1.12452">
        <ele>523.8</ele>
        <time>2025-12-28T10:24:20.000Z</time>
      </trkpt>
      <trkpt lat="42.98679" lon="1.1245">
        <ele>524</ele>
        <time>2025-12-28T10:24:21.000Z</time>
      </trkpt>
      <trkpt lat="42.98676" lon="1.12448">
        <ele>523.7</ele>
        <time>2025-12-28T10:24:22.000Z</time>
      </trkpt>
      <trkpt lat="42.98674" lon="1.12446">
        <ele>524.3</ele>
        <time>2025-12-28T10:24:23.000Z</time>
      </trkpt>
      <trkpt lat="42.98672" lon="1.12443">
        <ele>525.2</ele>
        <time>2025-12-28T10:24:24.000Z</time>
      </trkpt>
      <trkpt lat="42.98671" lon="1.12441">
        <ele>524.6</ele>
        <time>2025-12-28T10:24:25.000Z</time>
      </trkpt>
      <trkpt lat="42.98669" lon="1.12438">
        <ele>523.4</ele>
        <time>2025-12-28T10:24:26.000Z</time>
      </trkpt>
      <trkpt lat="42.98666" lon="1.12435">
        <ele>523.2</ele>
        <time>2025-12-28T10:24:27.000Z</time>
      </trkpt>
      <trkpt lat="42.98664" lon="1.12432">
        <ele>523.4</ele>
        <time>2025-12-28T10:24:28.000Z</time>
      </trkpt>
      <trkpt lat="42.98663" lon="1.12431">
        <ele>523.6</ele>
        <time>2025-12-28T10:24:29.000Z</time>
      </trkpt>
      <trkpt lat="42.98662" lon="1.1243">
        <ele>524.5</ele>
        <time>2025-12-28T10:24:30.000Z</time>
      </trkpt>
      <trkpt lat="42.98661" lon="1.12429">
        <ele>525</ele>
        <time>2025-12-28T10:24:31.000Z</time>
      </trkpt>
      <trkpt lat="42.98661" lon="1.12428">
        <ele>525.9</ele>
        <time>2025-12-28T10:24:32.000Z</time>
      </trkpt>
      <trkpt lat="42.9866" lon="1.12428">
        <ele>526.4</ele>
        <time>2025-12-28T10:24:33.000Z</time>
      </trkpt>
      <trkpt lat="42.9866" lon="1.12428">
        <ele>525.1</ele>
        <time>2025-12-28T10:24:34.000Z</time>
      </trkpt>
      <trkpt lat="42.98659" lon="1.12428">
        <ele>526</ele>
        <time>2025-12-28T10:24:35.000Z</time>
      </trkpt>
      <trkpt lat="42.98658" lon="1.12427">
        <ele>525.1</ele>
        <time>2025-12-28T10:24:36.000Z</time>
      </trkpt>
      <trkpt lat="42.98657" lon="1.12426">
        <ele>524.8</ele>
        <time>2025-12-28T10:24:37.000Z</time>
      </trkpt>
      <trkpt lat="42.98656" lon="1.12426">
        <ele>525.3</ele>
        <time>2025-12-28T10:24:38.000Z</time>
      </trkpt>
      <trkpt lat="42.98655" lon="1.12426">
        <ele>525.9</ele>
        <time>2025-12-28T10:24:39.000Z</time>
      </trkpt>
      <trkpt lat="42.98654" lon="1.12427">
        <ele>525.9</ele>
        <time>2025-12-28T10:24:40.000Z</time>
      </trkpt>
      <trkpt lat="42.98654" lon="1.12427">
        <ele>526.4</ele>
        <time>2025-12-28T10:24:41.000Z</time>
      </trkpt>
      <trkpt lat="42.98654" lon="1.12428">
        <ele>525.9</ele>
        <time>2025-12-28T10:24:42.000Z</time>
      </trkpt>
      <trkpt lat="42.98654" lon="1.12428">
        <ele>525</ele>
        <time>2025-12-28T10:24:43.000Z</time>
      </trkpt>
      <trkpt lat="42.98655" lon="1.12428">
        <ele>524.8</ele>
        <time>2025-12-28T10:24:44.000Z</time>
      </trkpt>
      <trkpt lat="42.98655" lon="1.12428">
        <ele>524.9</ele>
        <time>2025-12-28T10:24:45.000Z</time>
      </trkpt>
      <trkpt lat="42.98655" lon="1.12428">
        <ele>526.3</ele>
        <time>2025-12-28T10:24:46.000Z</time>
      </trkpt>
      <trkpt lat="42.98656" lon="1.12427">
        <ele>524</ele>
        <time>2025-12-28T10:24:47.000Z</time>
      </trkpt>
      <trkpt lat="42.98657" lon="1.12426">
        <ele>522.6</ele>
        <time>2025-12-28T10:24:48.000Z</time>
      </trkpt>
      <trkpt lat="42.98657" lon="1.12426">
        <ele>522</ele>
        <time>2025-12-28T10:24:49.000Z</time>
      </trkpt>
      <trkpt lat="42.98657" lon="1.12426">
        <ele>522.8</ele>
        <time>2025-12-28T10:24:50.000Z</time>
      </trkpt>
      <trkpt lat="42.98657" lon="1.12426">
        <ele>523.4</ele>
        <time>2025-12-28T10:24:51.000Z</time>
      </trkpt>
      <trkpt lat="42.98657" lon="1.12426">
        <ele>523.2</ele>
        <time>2025-12-28T10:24:52.000Z</time>
      </trkpt>
      <trkpt lat="42.98656" lon="1.12427">
        <ele>522.9</ele>
        <time>2025-12-28T10:24:53.000Z</time>
      </trkpt>
      <trkpt lat="42.98656" lon="1.12427">
        <ele>522.7</ele>
        <time>2025-12-28T10:24:54.000Z</time>
      </trkpt>
      <trkpt lat="42.98657" lon="1.12426">
        <ele>523.1</ele>
        <time>2025-12-28T10:24:55.000Z</time>
      </trkpt>
      <trkpt lat="42.98656" lon="1.12426">
        <ele>522.9</ele>
        <time>2025-12-28T10:24:56.000Z</time>
      </trkpt>
      <trkpt lat="42.98657" lon="1.12426">
        <ele>523</ele>
        <time>2025-12-28T10:24:57.000Z</time>
      </trkpt>
      <trkpt lat="42.98656" lon="1.12428">
        <ele>522.7</ele>
        <time>2025-12-28T10:24:58.000Z</time>
      </trkpt>
      <trkpt lat="42.98654" lon="1.1243">
        <ele>522.6</ele>
        <time>2025-12-28T10:24:59.000Z</time>
      </trkpt>
      <trkpt lat="42.98653" lon="1.12431">
        <ele>522.6</ele>
        <time>2025-12-28T10:25:00.000Z</time>
      </trkpt>
      <trkpt lat="42.98653" lon="1.12432">
        <ele>521.5</ele>
        <time>2025-12-28T10:25:01.000Z</time>
      </trkpt>
      <trkpt lat="42.98657" lon="1.12426">
        <ele>522.1</ele>
        <time>2025-12-28T10:25:15.000Z</time>
      </trkpt>
      <trkpt lat="42.98658" lon="1.12425">
        <ele>522.6</ele>
        <time>2025-12-28T10:25:16.000Z</time>
      </trkpt>
      <trkpt lat="42.98657" lon="1.12424">
        <ele>522.9</ele>
        <time>2025-12-28T10:25:17.000Z</time>
      </trkpt>
      <trkpt lat="42.98657" lon="1.12422">
        <ele>523.5</ele>
        <time>2025-12-28T10:25:18.000Z</time>
      </trkpt>
      <trkpt lat="42.98656" lon="1.1242">
        <ele>523.8</ele>
        <time>2025-12-28T10:25:19.000Z</time>
      </trkpt>
      <trkpt lat="42.98655" lon="1.12418">
        <ele>522.8</ele>
        <time>2025-12-28T10:25:20.000Z</time>
      </trkpt>
      <trkpt lat="42.98654" lon="1.12414">
        <ele>523.1</ele>
        <time>2025-12-28T10:25:21.000Z</time>
      </trkpt>
      <trkpt lat="42.98653" lon="1.1241">
        <ele>523</ele>
        <time>2025-12-28T10:25:22.000Z</time>
      </trkpt>
      <trkpt lat="42.98653" lon="1.12405">
        <ele>522.5</ele>
        <time>2025-12-28T10:25:23.000Z</time>
      </trkpt>
      <trkpt lat="42.98652" lon="1.12402">
        <ele>523.9</ele>
        <time>2025-12-28T10:25:24.000Z</time>
      </trkpt>
      <trkpt lat="42.98651" lon="1.12401">
        <ele>525.1</ele>
        <time>2025-12-28T10:25:25.000Z</time>
      </trkpt>
      <trkpt lat="42.9865" lon="1.124">
        <ele>525.1</ele>
        <time>2025-12-28T10:25:26.000Z</time>
      </trkpt>
      <trkpt lat="42.98649" lon="1.12398">
        <ele>525.9</ele>
        <time>2025-12-28T10:25:27.000Z</time>
      </trkpt>
      <trkpt lat="42.98647" lon="1.12396">
        <ele>526.1</ele>
        <time>2025-12-28T10:25:28.000Z</time>
      </trkpt>
      <trkpt lat="42.98645" lon="1.12393">
        <ele>526.1</ele>
        <time>2025-12-28T10:25:29.000Z</time>
      </trkpt>
      <trkpt lat="42.98643" lon="1.12391">
        <ele>525.6</ele>
        <time>2025-12-28T10:25:30.000Z</time>
      </trkpt>
      <trkpt lat="42.98642" lon="1.12389">
        <ele>526.1</ele>
        <time>2025-12-28T10:25:31.000Z</time>
      </trkpt>
      <trkpt lat="42.9864" lon="1.12387">
        <ele>526.2</ele>
        <time>2025-12-28T10:25:32.000Z</time>
      </trkpt>
      <trkpt lat="42.98638" lon="1.12385">
        <ele>528.1</ele>
        <time>2025-12-28T10:25:33.000Z</time>
      </trkpt>
      <trkpt lat="42.98637" lon="1.12383">
        <ele>527.1</ele>
        <time>2025-12-28T10:25:34.000Z</time>
      </trkpt>
      <trkpt lat="42.98634" lon="1.12382">
        <ele>528.1</ele>
        <time>2025-12-28T10:25:35.000Z</time>
      </trkpt>
      <trkpt lat="42.98632" lon="1.12381">
        <ele>528.7</ele>
        <time>2025-12-28T10:25:36.000Z</time>
      </trkpt>
      <trkpt lat="42.9863" lon="1.1238">
        <ele>528.2</ele>
        <time>2025-12-28T10:25:37.000Z</time>
      </trkpt>
      <trkpt lat="42.98627" lon="1.12379">
        <ele>526.8</ele>
        <time>2025-12-28T10:25:38.000Z</time>
      </trkpt>
      <trkpt lat="42.98625" lon="1.12378">
        <ele>526.7</ele>
        <time>2025-12-28T10:25:39.000Z</time>
      </trkpt>
      <trkpt lat="42.98623" lon="1.12376">
        <ele>525.1</ele>
        <time>2025-12-28T10:25:40.000Z</time>
      </trkpt>
      <trkpt lat="42.98621" lon="1.12374">
        <ele>525.9</ele>
        <time>2025-12-28T10:25:41.000Z</time>
      </trkpt>
      <trkpt lat="42.9862" lon="1.12372">
        <ele>526.5</ele>
        <time>2025-12-28T10:25:42.000Z</time>
      </trkpt>
      <trkpt lat="42.98617" lon="1.12371">
        <ele>524.6</ele>
        <time>2025-12-28T10:25:43.000Z</time>
      </trkpt>
      <trkpt lat="42.98615" lon="1.12369">
        <ele>524.7</ele>
        <time>2025-12-28T10:25:44.000Z</time>
      </trkpt>
      <trkpt lat="42.98611" lon="1.12367">
        <ele>525.3</ele>
        <time>2025-12-28T10:25:45.000Z</time>
      </trkpt>
      <trkpt lat="42.98608" lon="1.12364">
        <ele>525.9</ele>
        <time>2025-12-28T10:25:46.000Z</time>
      </trkpt>
      <trkpt lat="42.98606" lon="1.12363">
        <ele>526.6</ele>
        <time>2025-12-28T10:25:47.000Z</time>
      </trkpt>
      <trkpt lat="42.98603" lon="1.1236">
        <ele>524.2</ele>
        <time>2025-12-28T10:25:48.000Z</time>
      </trkpt>
      <trkpt lat="42.98601" lon="1.12359">
        <ele>523.5</ele>
        <time>2025-12-28T10:25:49.000Z</time>
      </trkpt>
      <trkpt lat="42.986" lon="1.12358">
        <ele>523</ele>
        <time>2025-12-28T10:25:50.000Z</time>
      </trkpt>
      <trkpt lat="42.98598" lon="1.12356">
        <ele>522.1</ele>
        <time>2025-12-28T10:25:51.000Z</time>
      </trkpt>
      <trkpt lat="42.98595" lon="1.12355">
        <ele>523.7</ele>
        <time>2025-12-28T10:25:52.000Z</time>
      </trkpt>
      <trkpt lat="42.98593" lon="1.12355">
        <ele>523.8</ele>
        <time>2025-12-28T10:25:53.000Z</time>
      </trkpt>
      <trkpt lat="42.9859" lon="1.12354">
        <ele>523.9</ele>
        <time>2025-12-28T10:25:54.000Z</time>
      </trkpt>
      <trkpt lat="42.98587" lon="1.12354">
        <ele>524.1</ele>
        <time>2025-12-28T10:25:55.000Z</time>
      </trkpt>
      <trkpt lat="42.98584" lon="1.12354">
        <ele>523.9</ele>
        <time>2025-12-28T10:25:56.000Z</time>
      </trkpt>
      <trkpt lat="42.98582" lon="1.12353">
        <ele>522.9</ele>
        <time>2025-12-28T10:25:57.000Z</time>
      </trkpt>
      <trkpt lat="42.98581" lon="1.12352">
        <ele>523.1</ele>
        <time>2025-12-28T10:25:58.000Z</time>
      </trkpt>
      <trkpt lat="42.98579" lon="1.12351">
        <ele>522.9</ele>
        <time>2025-12-28T10:25:59.000Z</time>
      </trkpt>
      <trkpt lat="42.98576" lon="1.1235">
        <ele>522</ele>
        <time>2025-12-28T10:26:00.000Z</time>
      </trkpt>
      <trkpt lat="42.98574" lon="1.12349">
        <ele>523.3</ele>
        <time>2025-12-28T10:26:01.000Z</time>
      </trkpt>
      <trkpt lat="42.98572" lon="1.12348">
        <ele>522.5</ele>
        <time>2025-12-28T10:26:02.000Z</time>
      </trkpt>
      <trkpt lat="42.9857" lon="1.12348">
        <ele>522.7</ele>
        <time>2025-12-28T10:26:03.000Z</time>
      </trkpt>
      <trkpt lat="42.98568" lon="1.12348">
        <ele>522.9</ele>
        <time>2025-12-28T10:26:04.000Z</time>
      </trkpt>
      <trkpt lat="42.98565" lon="1.12348">
        <ele>522.2</ele>
        <time>2025-12-28T10:26:05.000Z</time>
      </trkpt>
      <trkpt lat="42.98564" lon="1.12349">
        <ele>523.9</ele>
        <time>2025-12-28T10:26:06.000Z</time>
      </trkpt>
      <trkpt lat="42.98563" lon="1.12351">
        <ele>524.7</ele>
        <time>2025-12-28T10:26:07.000Z</time>
      </trkpt>
      <trkpt lat="42.9856" lon="1.12353">
        <ele>525.6</ele>
        <time>2025-12-28T10:26:08.000Z</time>
      </trkpt>
      <trkpt lat="42.98558" lon="1.12353">
        <ele>525.2</ele>
        <time>2025-12-28T10:26:09.000Z</time>
      </trkpt>
      <trkpt lat="42.98556" lon="1.12354">
        <ele>526.4</ele>
        <time>2025-12-28T10:26:10.000Z</time>
      </trkpt>
      <trkpt lat="42.98554" lon="1.12354">
        <ele>526.3</ele>
        <time>2025-12-28T10:26:11.000Z</time>
      </trkpt>
      <trkpt lat="42.98552" lon="1.12352">
        <ele>524.2</ele>
        <time>2025-12-28T10:26:12.000Z</time>
      </trkpt>
      <trkpt lat="42.98551" lon="1.1235">
        <ele>522.6</ele>
        <time>2025-12-28T10:26:13.000Z</time>
      </trkpt>
      <trkpt lat="42.98549" lon="1.12348">
        <ele>522.4</ele>
        <time>2025-12-28T10:26:14.000Z</time>
      </trkpt>
      <trkpt lat="42.98546" lon="1.12346">
        <ele>522.1</ele>
        <time>2025-12-28T10:26:15.000Z</time>
      </trkpt>
      <trkpt lat="42.98544" lon="1.12343">
        <ele>520.6</ele>
        <time>2025-12-28T10:26:16.000Z</time>
      </trkpt>
      <trkpt lat="42.98542" lon="1.12341">
        <ele>520.6</ele>
        <time>2025-12-28T10:26:17.000Z</time>
      </trkpt>
      <trkpt lat="42.9854" lon="1.12339">
        <ele>520.7</ele>
        <time>2025-12-28T10:26:18.000Z</time>
      </trkpt>
      <trkpt lat="42.98537" lon="1.12338">
        <ele>519.2</ele>
        <time>2025-12-28T10:26:19.000Z</time>
      </trkpt>
      <trkpt lat="42.98536" lon="1.12339">
        <ele>520.5</ele>
        <time>2025-12-28T10:26:20.000Z</time>
      </trkpt>
      <trkpt lat="42.98535" lon="1.12339">
        <ele>519.9</ele>
        <time>2025-12-28T10:26:21.000Z</time>
      </trkpt>
      <trkpt lat="42.98533" lon="1.12338">
        <ele>519</ele>
        <time>2025-12-28T10:26:22.000Z</time>
      </trkpt>
      <trkpt lat="42.9853" lon="1.12337">
        <ele>520.1</ele>
        <time>2025-12-28T10:26:23.000Z</time>
      </trkpt>
      <trkpt lat="42.98527" lon="1.12335">
        <ele>519.1</ele>
        <time>2025-12-28T10:26:24.000Z</time>
      </trkpt>
      <trkpt lat="42.98524" lon="1.12335">
        <ele>518.9</ele>
        <time>2025-12-28T10:26:25.000Z</time>
      </trkpt>
      <trkpt lat="42.98521" lon="1.12335">
        <ele>518.3</ele>
        <time>2025-12-28T10:26:26.000Z</time>
      </trkpt>
      <trkpt lat="42.98518" lon="1.12335">
        <ele>519.3</ele>
        <time>2025-12-28T10:26:27.000Z</time>
      </trkpt>
      <trkpt lat="42.98515" lon="1.12334">
        <ele>519.2</ele>
        <time>2025-12-28T10:26:28.000Z</time>
      </trkpt>
      <trkpt lat="42.98512" lon="1.12333">
        <ele>518.2</ele>
        <time>2025-12-28T10:26:29.000Z</time>
      </trkpt>
      <trkpt lat="42.98509" lon="1.12331">
        <ele>517</ele>
        <time>2025-12-28T10:26:30.000Z</time>
      </trkpt>
      <trkpt lat="42.98506" lon="1.12329">
        <ele>519.2</ele>
        <time>2025-12-28T10:26:31.000Z</time>
      </trkpt>
      <trkpt lat="42.98502" lon="1.12327">
        <ele>518.1</ele>
        <time>2025-12-28T10:26:32.000Z</time>
      </trkpt>
      <trkpt lat="42.98499" lon="1.12325">
        <ele>518.3</ele>
        <time>2025-12-28T10:26:33.000Z</time>
      </trkpt>
      <trkpt lat="42.98496" lon="1.12325">
        <ele>517.7</ele>
        <time>2025-12-28T10:26:34.000Z</time>
      </trkpt>
      <trkpt lat="42.98494" lon="1.12327">
        <ele>517.3</ele>
        <time>2025-12-28T10:26:35.000Z</time>
      </trkpt>
      <trkpt lat="42.98492" lon="1.12328">
        <ele>518.2</ele>
        <time>2025-12-28T10:26:36.000Z</time>
      </trkpt>
      <trkpt lat="42.9849" lon="1.12328">
        <ele>517.3</ele>
        <time>2025-12-28T10:26:37.000Z</time>
      </trkpt>
      <trkpt lat="42.98488" lon="1.12328">
        <ele>517.4</ele>
        <time>2025-12-28T10:26:38.000Z</time>
      </trkpt>
      <trkpt lat="42.98485" lon="1.12329">
        <ele>517.9</ele>
        <time>2025-12-28T10:26:39.000Z</time>
      </trkpt>
      <trkpt lat="42.98482" lon="1.1233">
        <ele>516.7</ele>
        <time>2025-12-28T10:26:40.000Z</time>
      </trkpt>
      <trkpt lat="42.9848" lon="1.12331">
        <ele>517.3</ele>
        <time>2025-12-28T10:26:41.000Z</time>
      </trkpt>
      <trkpt lat="42.98478" lon="1.12332">
        <ele>517.5</ele>
        <time>2025-12-28T10:26:42.000Z</time>
      </trkpt>
      <trkpt lat="42.98476" lon="1.12333">
        <ele>517.3</ele>
        <time>2025-12-28T10:26:43.000Z</time>
      </trkpt>
      <trkpt lat="42.98474" lon="1.12334">
        <ele>516</ele>
        <time>2025-12-28T10:26:44.000Z</time>
      </trkpt>
      <trkpt lat="42.98472" lon="1.12336">
        <ele>515.6</ele>
        <time>2025-12-28T10:26:45.000Z</time>
      </trkpt>
      <trkpt lat="42.9847" lon="1.12337">
        <ele>515.9</ele>
        <time>2025-12-28T10:26:46.000Z</time>
      </trkpt>
      <trkpt lat="42.98468" lon="1.12338">
        <ele>515.6</ele>
        <time>2025-12-28T10:26:47.000Z</time>
      </trkpt>
      <trkpt lat="42.98467" lon="1.12339">
        <ele>514.4</ele>
        <time>2025-12-28T10:26:48.000Z</time>
      </trkpt>
      <trkpt lat="42.98466" lon="1.1234">
        <ele>513.6</ele>
        <time>2025-12-28T10:26:49.000Z</time>
      </trkpt>
      <trkpt lat="42.98465" lon="1.1234">
        <ele>513.1</ele>
        <time>2025-12-28T10:26:50.000Z</time>
      </trkpt>
      <trkpt lat="42.98464" lon="1.1234">
        <ele>512.5</ele>
        <time>2025-12-28T10:26:51.000Z</time>
      </trkpt>
      <trkpt lat="42.98462" lon="1.12339">
        <ele>512.6</ele>
        <time>2025-12-28T10:26:52.000Z</time>
      </trkpt>
      <trkpt lat="42.98461" lon="1.12338">
        <ele>512.5</ele>
        <time>2025-12-28T10:26:53.000Z</time>
      </trkpt>
      <trkpt lat="42.9846" lon="1.12337">
        <ele>512.4</ele>
        <time>2025-12-28T10:26:54.000Z</time>
      </trkpt>
      <trkpt lat="42.98459" lon="1.12336">
        <ele>511.9</ele>
        <time>2025-12-28T10:26:55.000Z</time>
      </trkpt>
      <trkpt lat="42.98459" lon="1.12333">
        <ele>513</ele>
        <time>2025-12-28T10:26:56.000Z</time>
      </trkpt>
      <trkpt lat="42.98458" lon="1.1233">
        <ele>513</ele>
        <time>2025-12-28T10:26:57.000Z</time>
      </trkpt>
      <trkpt lat="42.98457" lon="1.12327">
        <ele>513.7</ele>
        <time>2025-12-28T10:26:58.000Z</time>
      </trkpt>
      <trkpt lat="42.98456" lon="1.12324">
        <ele>514</ele>
        <time>2025-12-28T10:26:59.000Z</time>
      </trkpt>
      <trkpt lat="42.98456" lon="1.1232">
        <ele>513.8</ele>
        <time>2025-12-28T10:27:00.000Z</time>
      </trkpt>
      <trkpt lat="42.98455" lon="1.12315">
        <ele>513.8</ele>
        <time>2025-12-28T10:27:01.000Z</time>
      </trkpt>
      <trkpt lat="42.98455" lon="1.12311">
        <ele>513</ele>
        <time>2025-12-28T10:27:02.000Z</time>
      </trkpt>
      <trkpt lat="42.98455" lon="1.12307">
        <ele>511.7</ele>
        <time>2025-12-28T10:27:03.000Z</time>
      </trkpt>
      <trkpt lat="42.98456" lon="1.12303">
        <ele>512</ele>
        <time>2025-12-28T10:27:04.000Z</time>
      </trkpt>
      <trkpt lat="42.98456" lon="1.12301">
        <ele>511.7</ele>
        <time>2025-12-28T10:27:05.000Z</time>
      </trkpt>
      <trkpt lat="42.98458" lon="1.12298">
        <ele>512.7</ele>
        <time>2025-12-28T10:27:06.000Z</time>
      </trkpt>
      <trkpt lat="42.98459" lon="1.12295">
        <ele>512</ele>
        <time>2025-12-28T10:27:07.000Z</time>
      </trkpt>
      <trkpt lat="42.9846" lon="1.12291">
        <ele>512.6</ele>
        <time>2025-12-28T10:27:08.000Z</time>
      </trkpt>
      <trkpt lat="42.98462" lon="1.12287">
        <ele>510.9</ele>
        <time>2025-12-28T10:27:09.000Z</time>
      </trkpt>
      <trkpt lat="42.98464" lon="1.12283">
        <ele>509.9</ele>
        <time>2025-12-28T10:27:10.000Z</time>
      </trkpt>
      <trkpt lat="42.98465" lon="1.1228">
        <ele>509.4</ele>
        <time>2025-12-28T10:27:11.000Z</time>
      </trkpt>
      <trkpt lat="42.98467" lon="1.12277">
        <ele>511</ele>
        <time>2025-12-28T10:27:12.000Z</time>
      </trkpt>
      <trkpt lat="42.98468" lon="1.12275">
        <ele>510.9</ele>
        <time>2025-12-28T10:27:13.000Z</time>
      </trkpt>
      <trkpt lat="42.98468" lon="1.12274">
        <ele>509.6</ele>
        <time>2025-12-28T10:27:14.000Z</time>
      </trkpt>
      <trkpt lat="42.98467" lon="1.12274">
        <ele>510.2</ele>
        <time>2025-12-28T10:27:15.000Z</time>
      </trkpt>
      <trkpt lat="42.98465" lon="1.12275">
        <ele>513.1</ele>
        <time>2025-12-28T10:27:53.000Z</time>
      </trkpt>
      <trkpt lat="42.98465" lon="1.12274">
        <ele>513.1</ele>
        <time>2025-12-28T10:27:54.000Z</time>
      </trkpt>
      <trkpt lat="42.98464" lon="1.12274">
        <ele>513.7</ele>
        <time>2025-12-28T10:27:55.000Z</time>
      </trkpt>
      <trkpt lat="42.98464" lon="1.12274">
        <ele>513.4</ele>
        <time>2025-12-28T10:27:56.000Z</time>
      </trkpt>
      <trkpt lat="42.98463" lon="1.12274">
        <ele>513.5</ele>
        <time>2025-12-28T10:27:57.000Z</time>
      </trkpt>
      <trkpt lat="42.98462" lon="1.12273">
        <ele>513.9</ele>
        <time>2025-12-28T10:27:58.000Z</time>
      </trkpt>
      <trkpt lat="42.98461" lon="1.12272">
        <ele>513.8</ele>
        <time>2025-12-28T10:27:59.000Z</time>
      </trkpt>
      <trkpt lat="42.98461" lon="1.12272">
        <ele>513.8</ele>
        <time>2025-12-28T10:28:00.000Z</time>
      </trkpt>
      <trkpt lat="42.98461" lon="1.12272">
        <ele>514.7</ele>
        <time>2025-12-28T10:28:01.000Z</time>
      </trkpt>
      <trkpt lat="42.98461" lon="1.12272">
        <ele>515.6</ele>
        <time>2025-12-28T10:28:02.000Z</time>
      </trkpt>
      <trkpt lat="42.98461" lon="1.12271">
        <ele>514.9</ele>
        <time>2025-12-28T10:28:03.000Z</time>
      </trkpt>
      <trkpt lat="42.9846" lon="1.12269">
        <ele>515</ele>
        <time>2025-12-28T10:28:04.000Z</time>
      </trkpt>
      <trkpt lat="42.98459" lon="1.12267">
        <ele>514.7</ele>
        <time>2025-12-28T10:28:05.000Z</time>
      </trkpt>
      <trkpt lat="42.98457" lon="1.12266">
        <ele>515.6</ele>
        <time>2025-12-28T10:28:06.000Z</time>
      </trkpt>
      <trkpt lat="42.98456" lon="1.12265">
        <ele>514.8</ele>
        <time>2025-12-28T10:28:07.000Z</time>
      </trkpt>
      <trkpt lat="42.98454" lon="1.12266">
        <ele>514.2</ele>
        <time>2025-12-28T10:28:08.000Z</time>
      </trkpt>
      <trkpt lat="42.98453" lon="1.12266">
        <ele>514.1</ele>
        <time>2025-12-28T10:28:09.000Z</time>
      </trkpt>
      <trkpt lat="42.98454" lon="1.12265">
        <ele>514.5</ele>
        <time>2025-12-28T10:28:10.000Z</time>
      </trkpt>
      <trkpt lat="42.98454" lon="1.12265">
        <ele>514.6</ele>
        <time>2025-12-28T10:28:11.000Z</time>
      </trkpt>
      <trkpt lat="42.98451" lon="1.12263">
        <ele>515.5</ele>
        <time>2025-12-28T10:28:26.000Z</time>
      </trkpt>
      <trkpt lat="42.98449" lon="1.12264">
        <ele>514.9</ele>
        <time>2025-12-28T10:28:27.000Z</time>
      </trkpt>
      <trkpt lat="42.98446" lon="1.12264">
        <ele>514.4</ele>
        <time>2025-12-28T10:28:28.000Z</time>
      </trkpt>
      <trkpt lat="42.98443" lon="1.12264">
        <ele>514.6</ele>
        <time>2025-12-28T10:28:29.000Z</time>
      </trkpt>
      <trkpt lat="42.9844" lon="1.12263">
        <ele>514.5</ele>
        <time>2025-12-28T10:28:30.000Z</time>
      </trkpt>
      <trkpt lat="42.98437" lon="1.12261">
        <ele>514.8</ele>
        <time>2025-12-28T10:28:31.000Z</time>
      </trkpt>
      <trkpt lat="42.98433" lon="1.1226">
        <ele>514.6</ele>
        <time>2025-12-28T10:28:32.000Z</time>
      </trkpt>
      <trkpt lat="42.9843" lon="1.12258">
        <ele>514.6</ele>
        <time>2025-12-28T10:28:33.000Z</time>
      </trkpt>
      <trkpt lat="42.98428" lon="1.12257">
        <ele>514.6</ele>
        <time>2025-12-28T10:28:34.000Z</time>
      </trkpt>
      <trkpt lat="42.98425" lon="1.12255">
        <ele>514.3</ele>
        <time>2025-12-28T10:28:35.000Z</time>
      </trkpt>
      <trkpt lat="42.98423" lon="1.12252">
        <ele>514.6</ele>
        <time>2025-12-28T10:28:36.000Z</time>
      </trkpt>
      <trkpt lat="42.9842" lon="1.12249">
        <ele>515.3</ele>
        <time>2025-12-28T10:28:37.000Z</time>
      </trkpt>
      <trkpt lat="42.98418" lon="1.12247">
        <ele>516.3</ele>
        <time>2025-12-28T10:28:38.000Z</time>
      </trkpt>
      <trkpt lat="42.98415" lon="1.12245">
        <ele>517.1</ele>
        <time>2025-12-28T10:28:39.000Z</time>
      </trkpt>
      <trkpt lat="42.98413" lon="1.12242">
        <ele>517.4</ele>
        <time>2025-12-28T10:28:40.000Z</time>
      </trkpt>
      <trkpt lat="42.98412" lon="1.12239">
        <ele>516.7</ele>
        <time>2025-12-28T10:28:41.000Z</time>
      </trkpt>
      <trkpt lat="42.9841" lon="1.12237">
        <ele>516.7</ele>
        <time>2025-12-28T10:28:42.000Z</time>
      </trkpt>
      <trkpt lat="42.98407" lon="1.12235">
        <ele>516.6</ele>
        <time>2025-12-28T10:28:43.000Z</time>
      </trkpt>
      <trkpt lat="42.98405" lon="1.12233">
        <ele>518.2</ele>
        <time>2025-12-28T10:28:44.000Z</time>
      </trkpt>
      <trkpt lat="42.98403" lon="1.12231">
        <ele>517.7</ele>
        <time>2025-12-28T10:28:45.000Z</time>
      </trkpt>
      <trkpt lat="42.98401" lon="1.12228">
        <ele>517.8</ele>
        <time>2025-12-28T10:28:46.000Z</time>
      </trkpt>
      <trkpt lat="42.98399" lon="1.12224">
        <ele>518.4</ele>
        <time>2025-12-28T10:28:47.000Z</time>
      </trkpt>
      <trkpt lat="42.98398" lon="1.12221">
        <ele>518</ele>
        <time>2025-12-28T10:28:48.000Z</time>
      </trkpt>
      <trkpt lat="42.98396" lon="1.12217">
        <ele>517.7</ele>
        <time>2025-12-28T10:28:49.000Z</time>
      </trkpt>
      <trkpt lat="42.98394" lon="1.12213">
        <ele>518.3</ele>
        <time>2025-12-28T10:28:50.000Z</time>
      </trkpt>
      <trkpt lat="42.98393" lon="1.12209">
        <ele>520.4</ele>
        <time>2025-12-28T10:28:51.000Z</time>
      </trkpt>
      <trkpt lat="42.98391" lon="1.12206">
        <ele>520.5</ele>
        <time>2025-12-28T10:28:52.000Z</time>
      </trkpt>
      <trkpt lat="42.98389" lon="1.12202">
        <ele>520.6</ele>
        <time>2025-12-28T10:28:53.000Z</time>
      </trkpt>
      <trkpt lat="42.98387" lon="1.122">
        <ele>523.4</ele>
        <time>2025-12-28T10:28:54.000Z</time>
      </trkpt>
      <trkpt lat="42.98384" lon="1.12196">
        <ele>522.5</ele>
        <time>2025-12-28T10:28:55.000Z</time>
      </trkpt>
      <trkpt lat="42.98381" lon="1.12194">
        <ele>523.4</ele>
        <time>2025-12-28T10:28:56.000Z</time>
      </trkpt>
      <trkpt lat="42.98377" lon="1.12192">
        <ele>523.7</ele>
        <time>2025-12-28T10:28:57.000Z</time>
      </trkpt>
      <trkpt lat="42.98373" lon="1.1219">
        <ele>523.1</ele>
        <time>2025-12-28T10:28:58.000Z</time>
      </trkpt>
      <trkpt lat="42.9837" lon="1.12189">
        <ele>524.7</ele>
        <time>2025-12-28T10:28:59.000Z</time>
      </trkpt>
      <trkpt lat="42.98366" lon="1.12187">
        <ele>524.7</ele>
        <time>2025-12-28T10:29:00.000Z</time>
      </trkpt>
      <trkpt lat="42.98363" lon="1.12185">
        <ele>525.4</ele>
        <time>2025-12-28T10:29:01.000Z</time>
      </trkpt>
      <trkpt lat="42.9836" lon="1.12184">
        <ele>525.1</ele>
        <time>2025-12-28T10:29:02.000Z</time>
      </trkpt>
      <trkpt lat="42.98357" lon="1.12182">
        <ele>525.6</ele>
        <time>2025-12-28T10:29:03.000Z</time>
      </trkpt>
      <trkpt lat="42.98353" lon="1.12179">
        <ele>524.8</ele>
        <time>2025-12-28T10:29:04.000Z</time>
      </trkpt>
      <trkpt lat="42.98349" lon="1.12175">
        <ele>525.4</ele>
        <time>2025-12-28T10:29:05.000Z</time>
      </trkpt>
      <trkpt lat="42.98345" lon="1.12173">
        <ele>525.7</ele>
        <time>2025-12-28T10:29:06.000Z</time>
      </trkpt>
      <trkpt lat="42.98341" lon="1.1217">
        <ele>523.6</ele>
        <time>2025-12-28T10:29:07.000Z</time>
      </trkpt>
      <trkpt lat="42.98337" lon="1.12167">
        <ele>522.8</ele>
        <time>2025-12-28T10:29:08.000Z</time>
      </trkpt>
      <trkpt lat="42.98333" lon="1.12164">
        <ele>521.5</ele>
        <time>2025-12-28T10:29:09.000Z</time>
      </trkpt>
      <trkpt lat="42.98329" lon="1.1216">
        <ele>520.7</ele>
        <time>2025-12-28T10:29:10.000Z</time>
      </trkpt>
      <trkpt lat="42.98326" lon="1.1216">
        <ele>519.9</ele>
        <time>2025-12-28T10:29:11.000Z</time>
      </trkpt>
      <trkpt lat="42.98324" lon="1.12162">
        <ele>522.2</ele>
        <time>2025-12-28T10:29:12.000Z</time>
      </trkpt>
      <trkpt lat="42.98323" lon="1.12166">
        <ele>522.6</ele>
        <time>2025-12-28T10:29:13.000Z</time>
      </trkpt>
      <trkpt lat="42.98322" lon="1.1217">
        <ele>522.6</ele>
        <time>2025-12-28T10:29:14.000Z</time>
      </trkpt>
      <trkpt lat="42.98322" lon="1.12174">
        <ele>522.9</ele>
        <time>2025-12-28T10:29:15.000Z</time>
      </trkpt>
      <trkpt lat="42.98321" lon="1.12178">
        <ele>523.6</ele>
        <time>2025-12-28T10:29:16.000Z</time>
      </trkpt>
      <trkpt lat="42.9832" lon="1.12182">
        <ele>522.9</ele>
        <time>2025-12-28T10:29:17.000Z</time>
      </trkpt>
      <trkpt lat="42.9832" lon="1.12187">
        <ele>523.3</ele>
        <time>2025-12-28T10:29:18.000Z</time>
      </trkpt>
      <trkpt lat="42.98319" lon="1.12193">
        <ele>523.1</ele>
        <time>2025-12-28T10:29:19.000Z</time>
      </trkpt>
      <trkpt lat="42.98319" lon="1.12196">
        <ele>524.1</ele>
        <time>2025-12-28T10:29:20.000Z</time>
      </trkpt>
      <trkpt lat="42.9832" lon="1.122">
        <ele>523.6</ele>
        <time>2025-12-28T10:29:21.000Z</time>
      </trkpt>
      <trkpt lat="42.9832" lon="1.12204">
        <ele>523.9</ele>
        <time>2025-12-28T10:29:22.000Z</time>
      </trkpt>
      <trkpt lat="42.9832" lon="1.12208">
        <ele>523.3</ele>
        <time>2025-12-28T10:29:23.000Z</time>
      </trkpt>
      <trkpt lat="42.98321" lon="1.12213">
        <ele>524.7</ele>
        <time>2025-12-28T10:29:24.000Z</time>
      </trkpt>
      <trkpt lat="42.98321" lon="1.12218">
        <ele>523.3</ele>
        <time>2025-12-28T10:29:25.000Z</time>
      </trkpt>
      <trkpt lat="42.9832" lon="1.12223">
        <ele>523.5</ele>
        <time>2025-12-28T10:29:26.000Z</time>
      </trkpt>
      <trkpt lat="42.98319" lon="1.12228">
        <ele>521.3</ele>
        <time>2025-12-28T10:29:27.000Z</time>
      </trkpt>
      <trkpt lat="42.98317" lon="1.12233">
        <ele>521.3</ele>
        <time>2025-12-28T10:29:28.000Z</time>
      </trkpt>
      <trkpt lat="42.98316" lon="1.12237">
        <ele>521.3</ele>
        <time>2025-12-28T10:29:29.000Z</time>
      </trkpt>
      <trkpt lat="42.98314" lon="1.12241">
        <ele>521.3</ele>
        <time>2025-12-28T10:29:30.000Z</time>
      </trkpt>
      <trkpt lat="42.98311" lon="1.12246">
        <ele>520.3</ele>
        <time>2025-12-28T10:29:31.000Z</time>
      </trkpt>
      <trkpt lat="42.98309" lon="1.1225">
        <ele>519.9</ele>
        <time>2025-12-28T10:29:32.000Z</time>
      </trkpt>
      <trkpt lat="42.98306" lon="1.12253">
        <ele>518.6</ele>
        <time>2025-12-28T10:29:33.000Z</time>
      </trkpt>
      <trkpt lat="42.98303" lon="1.12257">
        <ele>519.1</ele>
        <time>2025-12-28T10:29:34.000Z</time>
      </trkpt>
      <trkpt lat="42.98298" lon="1.12262">
        <ele>517.7</ele>
        <time>2025-12-28T10:29:35.000Z</time>
      </trkpt>
      <trkpt lat="42.98294" lon="1.12266">
        <ele>518.5</ele>
        <time>2025-12-28T10:29:36.000Z</time>
      </trkpt>
      <trkpt lat="42.98289" lon="1.1227">
        <ele>517.4</ele>
        <time>2025-12-28T10:29:37.000Z</time>
      </trkpt>
      <trkpt lat="42.98283" lon="1.12275">
        <ele>516.3</ele>
        <time>2025-12-28T10:29:38.000Z</time>
      </trkpt>
      <trkpt lat="42.98279" lon="1.1228">
        <ele>514.2</ele>
        <time>2025-12-28T10:29:39.000Z</time>
      </trkpt>
      <trkpt lat="42.98275" lon="1.12284">
        <ele>514.6</ele>
        <time>2025-12-28T10:29:40.000Z</time>
      </trkpt>
      <trkpt lat="42.98275" lon="1.12285">
        <ele>514.8</ele>
        <time>2025-12-28T10:29:41.000Z</time>
      </trkpt>
      <trkpt lat="42.98274" lon="1.12287">
        <ele>514.5</ele>
        <time>2025-12-28T10:29:42.000Z</time>
      </trkpt>
      <trkpt lat="42.98275" lon="1.12287">
        <ele>514.5</ele>
        <time>2025-12-28T10:29:43.000Z</time>
      </trkpt>
      <trkpt lat="42.98275" lon="1.12288">
        <ele>514.7</ele>
        <time>2025-12-28T10:29:44.000Z</time>
      </trkpt>
      <trkpt lat="42.98275" lon="1.12288">
        <ele>515</ele>
        <time>2025-12-28T10:29:45.000Z</time>
      </trkpt>
      <trkpt lat="42.98275" lon="1.12288">
        <ele>515.2</ele>
        <time>2025-12-28T10:29:46.000Z</time>
      </trkpt>
      <trkpt lat="42.98274" lon="1.12288">
        <ele>515.2</ele>
        <time>2025-12-28T10:29:47.000Z</time>
      </trkpt>
      <trkpt lat="42.98274" lon="1.12288">
        <ele>515.4</ele>
        <time>2025-12-28T10:29:48.000Z</time>
      </trkpt>
      <trkpt lat="42.98273" lon="1.12289">
        <ele>515.9</ele>
        <time>2025-12-28T10:29:49.000Z</time>
      </trkpt>
      <trkpt lat="42.98273" lon="1.1229">
        <ele>515.8</ele>
        <time>2025-12-28T10:29:50.000Z</time>
      </trkpt>
      <trkpt lat="42.98273" lon="1.12291">
        <ele>515.4</ele>
        <time>2025-12-28T10:29:51.000Z</time>
      </trkpt>
      <trkpt lat="42.98273" lon="1.12291">
        <ele>515.5</ele>
        <time>2025-12-28T10:29:52.000Z</time>
      </trkpt>
      <trkpt lat="42.98273" lon="1.12293">
        <ele>515.4</ele>
        <time>2025-12-28T10:29:53.000Z</time>
      </trkpt>
      <trkpt lat="42.98272" lon="1.12295">
        <ele>514.9</ele>
        <time>2025-12-28T10:29:54.000Z</time>
      </trkpt>
      <trkpt lat="42.9827" lon="1.12296">
        <ele>514.8</ele>
        <time>2025-12-28T10:29:55.000Z</time>
      </trkpt>
      <trkpt lat="42.9827" lon="1.12298">
        <ele>515</ele>
        <time>2025-12-28T10:29:56.000Z</time>
      </trkpt>
      <trkpt lat="42.98269" lon="1.12299">
        <ele>515.5</ele>
        <time>2025-12-28T10:29:57.000Z</time>
      </trkpt>
      <trkpt lat="42.98268" lon="1.123">
        <ele>516</ele>
        <time>2025-12-28T10:29:58.000Z</time>
      </trkpt>
      <trkpt lat="42.98268" lon="1.12301">
        <ele>516.9</ele>
        <time>2025-12-28T10:29:59.000Z</time>
      </trkpt>
      <trkpt lat="42.98268" lon="1.12302">
        <ele>516.7</ele>
        <time>2025-12-28T10:30:00.000Z</time>
      </trkpt>
      <trkpt lat="42.98268" lon="1.12302">
        <ele>517.2</ele>
        <time>2025-12-28T10:30:01.000Z</time>
      </trkpt>
      <trkpt lat="42.98267" lon="1.12303">
        <ele>518.4</ele>
        <time>2025-12-28T10:30:02.000Z</time>
      </trkpt>
      <trkpt lat="42.98267" lon="1.12304">
        <ele>517.8</ele>
        <time>2025-12-28T10:30:03.000Z</time>
      </trkpt>
      <trkpt lat="42.98266" lon="1.12304">
        <ele>517.7</ele>
        <time>2025-12-28T10:30:04.000Z</time>
      </trkpt>
      <trkpt lat="42.98266" lon="1.12304">
        <ele>518</ele>
        <time>2025-12-28T10:30:05.000Z</time>
      </trkpt>
      <trkpt lat="42.98266" lon="1.12304">
        <ele>518.5</ele>
        <time>2025-12-28T10:30:06.000Z</time>
      </trkpt>
      <trkpt lat="42.98266" lon="1.12304">
        <ele>518.7</ele>
        <time>2025-12-28T10:30:07.000Z</time>
      </trkpt>
      <trkpt lat="42.98266" lon="1.12303">
        <ele>518.8</ele>
        <time>2025-12-28T10:30:08.000Z</time>
      </trkpt>
      <trkpt lat="42.98266" lon="1.12303">
        <ele>519.1</ele>
        <time>2025-12-28T10:30:09.000Z</time>
      </trkpt>
      <trkpt lat="42.98266" lon="1.12303">
        <ele>519</ele>
        <time>2025-12-28T10:30:10.000Z</time>
      </trkpt>
      <trkpt lat="42.98266" lon="1.12303">
        <ele>518.7</ele>
        <time>2025-12-28T10:30:11.000Z</time>
      </trkpt>
      <trkpt lat="42.98266" lon="1.12303">
        <ele>518.5</ele>
        <time>2025-12-28T10:30:12.000Z</time>
      </trkpt>
      <trkpt lat="42.98266" lon="1.12305">
        <ele>519.1</ele>
        <time>2025-12-28T10:30:13.000Z</time>
      </trkpt>
      <trkpt lat="42.98265" lon="1.12306">
        <ele>518.3</ele>
        <time>2025-12-28T10:30:14.000Z</time>
      </trkpt>
      <trkpt lat="42.98264" lon="1.12309">
        <ele>519.2</ele>
        <time>2025-12-28T10:30:15.000Z</time>
      </trkpt>
      <trkpt lat="42.98261" lon="1.12311">
        <ele>518.1</ele>
        <time>2025-12-28T10:30:16.000Z</time>
      </trkpt>
      <trkpt lat="42.98259" lon="1.12313">
        <ele>519.6</ele>
        <time>2025-12-28T10:30:17.000Z</time>
      </trkpt>
      <trkpt lat="42.98257" lon="1.12316">
        <ele>519.7</ele>
        <time>2025-12-28T10:30:18.000Z</time>
      </trkpt>
      <trkpt lat="42.98256" lon="1.1232">
        <ele>519.7</ele>
        <time>2025-12-28T10:30:19.000Z</time>
      </trkpt>
      <trkpt lat="42.98254" lon="1.12324">
        <ele>520.4</ele>
        <time>2025-12-28T10:30:20.000Z</time>
      </trkpt>
      <trkpt lat="42.9825" lon="1.12331">
        <ele>521.7</ele>
        <time>2025-12-28T10:30:21.000Z</time>
      </trkpt>
      <trkpt lat="42.98246" lon="1.12335">
        <ele>520.3</ele>
        <time>2025-12-28T10:30:22.000Z</time>
      </trkpt>
      <trkpt lat="42.98243" lon="1.12341">
        <ele>519.8</ele>
        <time>2025-12-28T10:30:23.000Z</time>
      </trkpt>
      <trkpt lat="42.9824" lon="1.12346">
        <ele>519.9</ele>
        <time>2025-12-28T10:30:24.000Z</time>
      </trkpt>
      <trkpt lat="42.98236" lon="1.12353">
        <ele>516</ele>
        <time>2025-12-28T10:30:25.000Z</time>
      </trkpt>
      <trkpt lat="42.98235" lon="1.12362">
        <ele>514.6</ele>
        <time>2025-12-28T10:30:26.000Z</time>
      </trkpt>
      <trkpt lat="42.98232" lon="1.12372">
        <ele>513.6</ele>
        <time>2025-12-28T10:30:27.000Z</time>
      </trkpt>
      <trkpt lat="42.98233" lon="1.12381">
        <ele>512.6</ele>
        <time>2025-12-28T10:30:28.000Z</time>
      </trkpt>
      <trkpt lat="42.98234" lon="1.12392">
        <ele>512.5</ele>
        <time>2025-12-28T10:30:29.000Z</time>
      </trkpt>
      <trkpt lat="42.98234" lon="1.12401">
        <ele>512.3</ele>
        <time>2025-12-28T10:30:30.000Z</time>
      </trkpt>
      <trkpt lat="42.98235" lon="1.12401">
        <ele>510.6</ele>
        <time>2025-12-28T10:30:31.000Z</time>
      </trkpt>
      <trkpt lat="42.98234" lon="1.12406">
        <ele>510.6</ele>
        <time>2025-12-28T10:30:32.000Z</time>
      </trkpt>
      <trkpt lat="42.98233" lon="1.12409">
        <ele>509.7</ele>
        <time>2025-12-28T10:30:33.000Z</time>
      </trkpt>
      <trkpt lat="42.9823" lon="1.12417">
        <ele>507.7</ele>
        <time>2025-12-28T10:30:34.000Z</time>
      </trkpt>
      <trkpt lat="42.98228" lon="1.12424">
        <ele>506.8</ele>
        <time>2025-12-28T10:30:35.000Z</time>
      </trkpt>
      <trkpt lat="42.9823" lon="1.12431">
        <ele>506.1</ele>
        <time>2025-12-28T10:30:36.000Z</time>
      </trkpt>
      <trkpt lat="42.98231" lon="1.12439">
        <ele>506.5</ele>
        <time>2025-12-28T10:30:37.000Z</time>
      </trkpt>
      <trkpt lat="42.98232" lon="1.12443">
        <ele>506.5</ele>
        <time>2025-12-28T10:30:38.000Z</time>
      </trkpt>
      <trkpt lat="42.98233" lon="1.1245">
        <ele>505.1</ele>
        <time>2025-12-28T10:30:39.000Z</time>
      </trkpt>
      <trkpt lat="42.98231" lon="1.12455">
        <ele>504.1</ele>
        <time>2025-12-28T10:30:40.000Z</time>
      </trkpt>
      <trkpt lat="42.98229" lon="1.12458">
        <ele>501.6</ele>
        <time>2025-12-28T10:30:41.000Z</time>
      </trkpt>
      <trkpt lat="42.98226" lon="1.12463">
        <ele>501.2</ele>
        <time>2025-12-28T10:30:42.000Z</time>
      </trkpt>
      <trkpt lat="42.98223" lon="1.12468">
        <ele>500.4</ele>
        <time>2025-12-28T10:30:43.000Z</time>
      </trkpt>
      <trkpt lat="42.98222" lon="1.12473">
        <ele>499.9</ele>
        <time>2025-12-28T10:30:44.000Z</time>
      </trkpt>
      <trkpt lat="42.98219" lon="1.12475">
        <ele>498.5</ele>
        <time>2025-12-28T10:30:45.000Z</time>
      </trkpt>
      <trkpt lat="42.98217" lon="1.12479">
        <ele>497.8</ele>
        <time>2025-12-28T10:30:46.000Z</time>
      </trkpt>
      <trkpt lat="42.98213" lon="1.12483">
        <ele>497.9</ele>
        <time>2025-12-28T10:30:47.000Z</time>
      </trkpt>
      <trkpt lat="42.98211" lon="1.1249">
        <ele>496.7</ele>
        <time>2025-12-28T10:30:48.000Z</time>
      </trkpt>
      <trkpt lat="42.98207" lon="1.12494">
        <ele>495.2</ele>
        <time>2025-12-28T10:30:49.000Z</time>
      </trkpt>
      <trkpt lat="42.98204" lon="1.12501">
        <ele>494.5</ele>
        <time>2025-12-28T10:30:50.000Z</time>
      </trkpt>
      <trkpt lat="42.98204" lon="1.12505">
        <ele>494</ele>
        <time>2025-12-28T10:30:51.000Z</time>
      </trkpt>
      <trkpt lat="42.98205" lon="1.12509">
        <ele>494.1</ele>
        <time>2025-12-28T10:30:52.000Z</time>
      </trkpt>
      <trkpt lat="42.98205" lon="1.12507">
        <ele>492.6</ele>
        <time>2025-12-28T10:30:53.000Z</time>
      </trkpt>
      <trkpt lat="42.98205" lon="1.12507">
        <ele>492.8</ele>
        <time>2025-12-28T10:30:54.000Z</time>
      </trkpt>
      <trkpt lat="42.98206" lon="1.12507">
        <ele>493</ele>
        <time>2025-12-28T10:30:55.000Z</time>
      </trkpt>
      <trkpt lat="42.98206" lon="1.12507">
        <ele>493.5</ele>
        <time>2025-12-28T10:30:56.000Z</time>
      </trkpt>
      <trkpt lat="42.98205" lon="1.12507">
        <ele>493.8</ele>
        <time>2025-12-28T10:30:57.000Z</time>
      </trkpt>
      <trkpt lat="42.98205" lon="1.12508">
        <ele>494.2</ele>
        <time>2025-12-28T10:30:58.000Z</time>
      </trkpt>
      <trkpt lat="42.98205" lon="1.12509">
        <ele>494.1</ele>
        <time>2025-12-28T10:30:59.000Z</time>
      </trkpt>
      <trkpt lat="42.98205" lon="1.12509">
        <ele>494.2</ele>
        <time>2025-12-28T10:31:00.000Z</time>
      </trkpt>
      <trkpt lat="42.98204" lon="1.1251">
        <ele>494</ele>
        <time>2025-12-28T10:31:01.000Z</time>
      </trkpt>
      <trkpt lat="42.98204" lon="1.12512">
        <ele>493.6</ele>
        <time>2025-12-28T10:31:02.000Z</time>
      </trkpt>
      <trkpt lat="42.98204" lon="1.12514">
        <ele>493.8</ele>
        <time>2025-12-28T10:31:03.000Z</time>
      </trkpt>
      <trkpt lat="42.98204" lon="1.12516">
        <ele>493.9</ele>
        <time>2025-12-28T10:31:04.000Z</time>
      </trkpt>
      <trkpt lat="42.98205" lon="1.12516">
        <ele>493.2</ele>
        <time>2025-12-28T10:31:05.000Z</time>
      </trkpt>
      <trkpt lat="42.98205" lon="1.12515">
        <ele>493</ele>
        <time>2025-12-28T10:31:06.000Z</time>
      </trkpt>
      <trkpt lat="42.98205" lon="1.12515">
        <ele>493.2</ele>
        <time>2025-12-28T10:31:07.000Z</time>
      </trkpt>
      <trkpt lat="42.98204" lon="1.12515">
        <ele>493</ele>
        <time>2025-12-28T10:31:08.000Z</time>
      </trkpt>
      <trkpt lat="42.98204" lon="1.12515">
        <ele>493.1</ele>
        <time>2025-12-28T10:31:09.000Z</time>
      </trkpt>
      <trkpt lat="42.98204" lon="1.12515">
        <ele>493.1</ele>
        <time>2025-12-28T10:31:10.000Z</time>
      </trkpt>
      <trkpt lat="42.98204" lon="1.12516">
        <ele>493.2</ele>
        <time>2025-12-28T10:31:11.000Z</time>
      </trkpt>
      <trkpt lat="42.98204" lon="1.12516">
        <ele>493.2</ele>
        <time>2025-12-28T10:31:12.000Z</time>
      </trkpt>
      <trkpt lat="42.98204" lon="1.12516">
        <ele>493.2</ele>
        <time>2025-12-28T10:31:13.000Z</time>
      </trkpt>
      <trkpt lat="42.98204" lon="1.12516">
        <ele>493.2</ele>
        <time>2025-12-28T10:31:14.000Z</time>
      </trkpt>
      <trkpt lat="42.98204" lon="1.12516">
        <ele>493.1</ele>
        <time>2025-12-28T10:31:15.000Z</time>
      </trkpt>
      <trkpt lat="42.98205" lon="1.12517">
        <ele>493.3</ele>
        <time>2025-12-28T10:31:16.000Z</time>
      </trkpt>
      <trkpt lat="42.98205" lon="1.12519">
        <ele>493.7</ele>
        <time>2025-12-28T10:31:17.000Z</time>
      </trkpt>
      <trkpt lat="42.98206" lon="1.1252">
        <ele>493.2</ele>
        <time>2025-12-28T10:31:18.000Z</time>
      </trkpt>
      <trkpt lat="42.98207" lon="1.12521">
        <ele>493.1</ele>
        <time>2025-12-28T10:31:19.000Z</time>
      </trkpt>
      <trkpt lat="42.98208" lon="1.12523">
        <ele>492.9</ele>
        <time>2025-12-28T10:31:20.000Z</time>
      </trkpt>
      <trkpt lat="42.98208" lon="1.12525">
        <ele>493.1</ele>
        <time>2025-12-28T10:31:21.000Z</time>
      </trkpt>
      <trkpt lat="42.98209" lon="1.12527">
        <ele>493.6</ele>
        <time>2025-12-28T10:31:22.000Z</time>
      </trkpt>
      <trkpt lat="42.9821" lon="1.12528">
        <ele>493.7</ele>
        <time>2025-12-28T10:31:23.000Z</time>
      </trkpt>
      <trkpt lat="42.98211" lon="1.12529">
        <ele>493.4</ele>
        <time>2025-12-28T10:31:24.000Z</time>
      </trkpt>
      <trkpt lat="42.98212" lon="1.1253">
        <ele>492</ele>
        <time>2025-12-28T10:31:25.000Z</time>
      </trkpt>
      <trkpt lat="42.98213" lon="1.1253">
        <ele>491.6</ele>
        <time>2025-12-28T10:31:26.000Z</time>
      </trkpt>
      <trkpt lat="42.98213" lon="1.12531">
        <ele>491.3</ele>
        <time>2025-12-28T10:31:27.000Z</time>
      </trkpt>
      <trkpt lat="42.98217" lon="1.12533">
        <ele>493.4</ele>
        <time>2025-12-28T10:31:48.000Z</time>
      </trkpt>
      <trkpt lat="42.98221" lon="1.12535">
        <ele>491.8</ele>
        <time>2025-12-28T10:31:49.000Z</time>
      </trkpt>
      <trkpt lat="42.98224" lon="1.12539">
        <ele>492.5</ele>
        <time>2025-12-28T10:31:50.000Z</time>
      </trkpt>
      <trkpt lat="42.98228" lon="1.12542">
        <ele>491</ele>
        <time>2025-12-28T10:31:51.000Z</time>
      </trkpt>
      <trkpt lat="42.98232" lon="1.12545">
        <ele>490.8</ele>
        <time>2025-12-28T10:31:52.000Z</time>
      </trkpt>
      <trkpt lat="42.98238" lon="1.12552">
        <ele>490.7</ele>
        <time>2025-12-28T10:31:53.000Z</time>
      </trkpt>
      <trkpt lat="42.98243" lon="1.12555">
        <ele>489.1</ele>
        <time>2025-12-28T10:31:54.000Z</time>
      </trkpt>
      <trkpt lat="42.98245" lon="1.1256">
        <ele>489.4</ele>
        <time>2025-12-28T10:31:55.000Z</time>
      </trkpt>
      <trkpt lat="42.98248" lon="1.12566">
        <ele>488.7</ele>
        <time>2025-12-28T10:31:56.000Z</time>
      </trkpt>
      <trkpt lat="42.98247" lon="1.12573">
        <ele>487.4</ele>
        <time>2025-12-28T10:31:57.000Z</time>
      </trkpt>
      <trkpt lat="42.98245" lon="1.12577">
        <ele>486.2</ele>
        <time>2025-12-28T10:31:58.000Z</time>
      </trkpt>
      <trkpt lat="42.98241" lon="1.12583">
        <ele>484.4</ele>
        <time>2025-12-28T10:31:59.000Z</time>
      </trkpt>
      <trkpt lat="42.98238" lon="1.12589">
        <ele>484.5</ele>
        <time>2025-12-28T10:32:00.000Z</time>
      </trkpt>
      <trkpt lat="42.98236" lon="1.12598">
        <ele>483.1</ele>
        <time>2025-12-28T10:32:01.000Z</time>
      </trkpt>
      <trkpt lat="42.98232" lon="1.12607">
        <ele>482.1</ele>
        <time>2025-12-28T10:32:02.000Z</time>
      </trkpt>
      <trkpt lat="42.9823" lon="1.12613">
        <ele>480.7</ele>
        <time>2025-12-28T10:32:03.000Z</time>
      </trkpt>
      <trkpt lat="42.98226" lon="1.12621">
        <ele>478.7</ele>
        <time>2025-12-28T10:32:04.000Z</time>
      </trkpt>
      <trkpt lat="42.98223" lon="1.12629">
        <ele>478.8</ele>
        <time>2025-12-28T10:32:05.000Z</time>
      </trkpt>
      <trkpt lat="42.98221" lon="1.12638">
        <ele>477.4</ele>
        <time>2025-12-28T10:32:06.000Z</time>
      </trkpt>
      <trkpt lat="42.98217" lon="1.12646">
        <ele>477</ele>
        <time>2025-12-28T10:32:07.000Z</time>
      </trkpt>
      <trkpt lat="42.98214" lon="1.12653">
        <ele>476.5</ele>
        <time>2025-12-28T10:32:08.000Z</time>
      </trkpt>
      <trkpt lat="42.9821" lon="1.12661">
        <ele>475.5</ele>
        <time>2025-12-28T10:32:09.000Z</time>
      </trkpt>
      <trkpt lat="42.98207" lon="1.12669">
        <ele>474.9</ele>
        <time>2025-12-28T10:32:10.000Z</time>
      </trkpt>
      <trkpt lat="42.98203" lon="1.12677">
        <ele>474.5</ele>
        <time>2025-12-28T10:32:11.000Z</time>
      </trkpt>
      <trkpt lat="42.98199" lon="1.12685">
        <ele>473.9</ele>
        <time>2025-12-28T10:32:12.000Z</time>
      </trkpt>
      <trkpt lat="42.98195" lon="1.12693">
        <ele>473.7</ele>
        <time>2025-12-28T10:32:13.000Z</time>
      </trkpt>
      <trkpt lat="42.98192" lon="1.12702">
        <ele>473.9</ele>
        <time>2025-12-28T10:32:14.000Z</time>
      </trkpt>
      <trkpt lat="42.98189" lon="1.1271">
        <ele>473.2</ele>
        <time>2025-12-28T10:32:15.000Z</time>
      </trkpt>
      <trkpt lat="42.98185" lon="1.12719">
        <ele>473</ele>
        <time>2025-12-28T10:32:16.000Z</time>
      </trkpt>
      <trkpt lat="42.98182" lon="1.12725">
        <ele>472.3</ele>
        <time>2025-12-28T10:32:17.000Z</time>
      </trkpt>
      <trkpt lat="42.98182" lon="1.1273">
        <ele>472.3</ele>
        <time>2025-12-28T10:32:18.000Z</time>
      </trkpt>
      <trkpt lat="42.98183" lon="1.12734">
        <ele>473.3</ele>
        <time>2025-12-28T10:32:19.000Z</time>
      </trkpt>
      <trkpt lat="42.98185" lon="1.12738">
        <ele>473.6</ele>
        <time>2025-12-28T10:32:20.000Z</time>
      </trkpt>
      <trkpt lat="42.98189" lon="1.12737">
        <ele>473.7</ele>
        <time>2025-12-28T10:32:21.000Z</time>
      </trkpt>
      <trkpt lat="42.98193" lon="1.12739">
        <ele>473.7</ele>
        <time>2025-12-28T10:32:22.000Z</time>
      </trkpt>
      <trkpt lat="42.98197" lon="1.1274">
        <ele>472.7</ele>
        <time>2025-12-28T10:32:23.000Z</time>
      </trkpt>
      <trkpt lat="42.982" lon="1.12741">
        <ele>472</ele>
        <time>2025-12-28T10:32:24.000Z</time>
      </trkpt>
      <trkpt lat="42.98204" lon="1.12742">
        <ele>472.7</ele>
        <time>2025-12-28T10:32:25.000Z</time>
      </trkpt>
      <trkpt lat="42.98207" lon="1.12743">
        <ele>472.9</ele>
        <time>2025-12-28T10:32:26.000Z</time>
      </trkpt>
      <trkpt lat="42.9821" lon="1.12744">
        <ele>473.1</ele>
        <time>2025-12-28T10:32:27.000Z</time>
      </trkpt>
      <trkpt lat="42.98214" lon="1.12746">
        <ele>472.7</ele>
        <time>2025-12-28T10:32:28.000Z</time>
      </trkpt>
      <trkpt lat="42.98217" lon="1.12749">
        <ele>472.8</ele>
        <time>2025-12-28T10:32:29.000Z</time>
      </trkpt>
      <trkpt lat="42.9822" lon="1.12751">
        <ele>472.6</ele>
        <time>2025-12-28T10:32:30.000Z</time>
      </trkpt>
      <trkpt lat="42.98224" lon="1.12754">
        <ele>472.7</ele>
        <time>2025-12-28T10:32:31.000Z</time>
      </trkpt>
      <trkpt lat="42.98227" lon="1.12756">
        <ele>472.7</ele>
        <time>2025-12-28T10:32:32.000Z</time>
      </trkpt>
      <trkpt lat="42.9823" lon="1.12759">
        <ele>472.9</ele>
        <time>2025-12-28T10:32:33.000Z</time>
      </trkpt>
      <trkpt lat="42.98234" lon="1.12762">
        <ele>472.9</ele>
        <time>2025-12-28T10:32:34.000Z</time>
      </trkpt>
      <trkpt lat="42.98237" lon="1.12765">
        <ele>473.1</ele>
        <time>2025-12-28T10:32:35.000Z</time>
      </trkpt>
      <trkpt lat="42.9824" lon="1.12767">
        <ele>473.1</ele>
        <time>2025-12-28T10:32:36.000Z</time>
      </trkpt>
      <trkpt lat="42.98243" lon="1.1277">
        <ele>472.9</ele>
        <time>2025-12-28T10:32:37.000Z</time>
      </trkpt>
      <trkpt lat="42.98247" lon="1.12772">
        <ele>473</ele>
        <time>2025-12-28T10:32:38.000Z</time>
      </trkpt>
      <trkpt lat="42.9825" lon="1.12774">
        <ele>473.1</ele>
        <time>2025-12-28T10:32:39.000Z</time>
      </trkpt>
      <trkpt lat="42.98253" lon="1.12777">
        <ele>473.4</ele>
        <time>2025-12-28T10:32:40.000Z</time>
      </trkpt>
      <trkpt lat="42.98256" lon="1.12779">
        <ele>473.6</ele>
        <time>2025-12-28T10:32:41.000Z</time>
      </trkpt>
      <trkpt lat="42.9826" lon="1.12782">
        <ele>473.5</ele>
        <time>2025-12-28T10:32:42.000Z</time>
      </trkpt>
      <trkpt lat="42.98263" lon="1.12785">
        <ele>473.4</ele>
        <time>2025-12-28T10:32:43.000Z</time>
      </trkpt>
      <trkpt lat="42.98266" lon="1.12788">
        <ele>473.4</ele>
        <time>2025-12-28T10:32:44.000Z</time>
      </trkpt>
      <trkpt lat="42.9827" lon="1.1279">
        <ele>473.3</ele>
        <time>2025-12-28T10:32:45.000Z</time>
      </trkpt>
      <trkpt lat="42.98273" lon="1.12793">
        <ele>473.1</ele>
        <time>2025-12-28T10:32:46.000Z</time>
      </trkpt>
      <trkpt lat="42.98277" lon="1.12795">
        <ele>472.7</ele>
        <time>2025-12-28T10:32:47.000Z</time>
      </trkpt>
      <trkpt lat="42.9828" lon="1.12798">
        <ele>472.5</ele>
        <time>2025-12-28T10:32:48.000Z</time>
      </trkpt>
      <trkpt lat="42.98284" lon="1.12803">
        <ele>472.1</ele>
        <time>2025-12-28T10:32:49.000Z</time>
      </trkpt>
      <trkpt lat="42.98287" lon="1.12807">
        <ele>472</ele>
        <time>2025-12-28T10:32:50.000Z</time>
      </trkpt>
      <trkpt lat="42.9829" lon="1.12813">
        <ele>472.5</ele>
        <time>2025-12-28T10:32:51.000Z</time>
      </trkpt>
      <trkpt lat="42.98292" lon="1.12819">
        <ele>473.1</ele>
        <time>2025-12-28T10:32:52.000Z</time>
      </trkpt>
      <trkpt lat="42.98295" lon="1.12825">
        <ele>473.6</ele>
        <time>2025-12-28T10:32:53.000Z</time>
      </trkpt>
      <trkpt lat="42.98298" lon="1.12829">
        <ele>473.9</ele>
        <time>2025-12-28T10:32:54.000Z</time>
      </trkpt>
      <trkpt lat="42.98301" lon="1.12833">
        <ele>474.4</ele>
        <time>2025-12-28T10:32:55.000Z</time>
      </trkpt>
      <trkpt lat="42.98304" lon="1.12837">
        <ele>474.5</ele>
        <time>2025-12-28T10:32:56.000Z</time>
      </trkpt>
      <trkpt lat="42.98307" lon="1.12841">
        <ele>474.8</ele>
        <time>2025-12-28T10:32:57.000Z</time>
      </trkpt>
      <trkpt lat="42.98309" lon="1.12845">
        <ele>475</ele>
        <time>2025-12-28T10:32:58.000Z</time>
      </trkpt>
      <trkpt lat="42.98312" lon="1.12849">
        <ele>474.9</ele>
        <time>2025-12-28T10:32:59.000Z</time>
      </trkpt>
      <trkpt lat="42.98314" lon="1.12853">
        <ele>475</ele>
        <time>2025-12-28T10:33:00.000Z</time>
      </trkpt>
      <trkpt lat="42.98317" lon="1.12857">
        <ele>474.8</ele>
        <time>2025-12-28T10:33:01.000Z</time>
      </trkpt>
      <trkpt lat="42.98319" lon="1.12861">
        <ele>474.9</ele>
        <time>2025-12-28T10:33:02.000Z</time>
      </trkpt>
      <trkpt lat="42.98322" lon="1.12865">
        <ele>474.5</ele>
        <time>2025-12-28T10:33:03.000Z</time>
      </trkpt>
      <trkpt lat="42.98325" lon="1.12869">
        <ele>474.7</ele>
        <time>2025-12-28T10:33:04.000Z</time>
      </trkpt>
      <trkpt lat="42.98328" lon="1.12872">
        <ele>474.8</ele>
        <time>2025-12-28T10:33:05.000Z</time>
      </trkpt>
      <trkpt lat="42.98331" lon="1.12875">
        <ele>474.6</ele>
        <time>2025-12-28T10:33:06.000Z</time>
      </trkpt>
      <trkpt lat="42.98333" lon="1.12879">
        <ele>474.2</ele>
        <time>2025-12-28T10:33:07.000Z</time>
      </trkpt>
      <trkpt lat="42.98336" lon="1.12883">
        <ele>474.2</ele>
        <time>2025-12-28T10:33:08.000Z</time>
      </trkpt>
      <trkpt lat="42.98339" lon="1.12886">
        <ele>474.1</ele>
        <time>2025-12-28T10:33:09.000Z</time>
      </trkpt>
      <trkpt lat="42.98342" lon="1.12889">
        <ele>474.3</ele>
        <time>2025-12-28T10:33:10.000Z</time>
      </trkpt>
      <trkpt lat="42.98345" lon="1.12892">
        <ele>474.4</ele>
        <time>2025-12-28T10:33:11.000Z</time>
      </trkpt>
      <trkpt lat="42.98347" lon="1.12895">
        <ele>474.8</ele>
        <time>2025-12-28T10:33:12.000Z</time>
      </trkpt>
      <trkpt lat="42.98349" lon="1.12898">
        <ele>475.2</ele>
        <time>2025-12-28T10:33:13.000Z</time>
      </trkpt>
      <trkpt lat="42.98352" lon="1.12902">
        <ele>475.1</ele>
        <time>2025-12-28T10:33:14.000Z</time>
      </trkpt>
      <trkpt lat="42.98354" lon="1.12905">
        <ele>475.3</ele>
        <time>2025-12-28T10:33:15.000Z</time>
      </trkpt>
      <trkpt lat="42.98357" lon="1.12908">
        <ele>475.5</ele>
        <time>2025-12-28T10:33:16.000Z</time>
      </trkpt>
      <trkpt lat="42.9836" lon="1.12911">
        <ele>475.3</ele>
        <time>2025-12-28T10:33:17.000Z</time>
      </trkpt>
      <trkpt lat="42.98363" lon="1.12913">
        <ele>475.3</ele>
        <time>2025-12-28T10:33:18.000Z</time>
      </trkpt>
      <trkpt lat="42.98366" lon="1.12916">
        <ele>475.1</ele>
        <time>2025-12-28T10:33:19.000Z</time>
      </trkpt>
      <trkpt lat="42.98369" lon="1.12919">
        <ele>475.2</ele>
        <time>2025-12-28T10:33:20.000Z</time>
      </trkpt>
      <trkpt lat="42.98372" lon="1.12921">
        <ele>475.3</ele>
        <time>2025-12-28T10:33:21.000Z</time>
      </trkpt>
      <trkpt lat="42.98375" lon="1.12924">
        <ele>475.3</ele>
        <time>2025-12-28T10:33:22.000Z</time>
      </trkpt>
      <trkpt lat="42.98379" lon="1.12927">
        <ele>475.1</ele>
        <time>2025-12-28T10:33:23.000Z</time>
      </trkpt>
      <trkpt lat="42.98382" lon="1.12929">
        <ele>475</ele>
        <time>2025-12-28T10:33:24.000Z</time>
      </trkpt>
      <trkpt lat="42.98385" lon="1.12932">
        <ele>474.9</ele>
        <time>2025-12-28T10:33:25.000Z</time>
      </trkpt>
      <trkpt lat="42.98388" lon="1.12935">
        <ele>474.4</ele>
        <time>2025-12-28T10:33:26.000Z</time>
      </trkpt>
      <trkpt lat="42.98391" lon="1.12937">
        <ele>474.5</ele>
        <time>2025-12-28T10:33:27.000Z</time>
      </trkpt>
      <trkpt lat="42.98394" lon="1.1294">
        <ele>474.6</ele>
        <time>2025-12-28T10:33:28.000Z</time>
      </trkpt>
      <trkpt lat="42.98397" lon="1.12942">
        <ele>474.2</ele>
        <time>2025-12-28T10:33:29.000Z</time>
      </trkpt>
      <trkpt lat="42.98401" lon="1.12944">
        <ele>474.2</ele>
        <time>2025-12-28T10:33:30.000Z</time>
      </trkpt>
      <trkpt lat="42.98404" lon="1.12946">
        <ele>474.4</ele>
        <time>2025-12-28T10:33:31.000Z</time>
      </trkpt>
      <trkpt lat="42.98407" lon="1.12949">
        <ele>474.4</ele>
        <time>2025-12-28T10:33:32.000Z</time>
      </trkpt>
      <trkpt lat="42.9841" lon="1.12951">
        <ele>474.6</ele>
        <time>2025-12-28T10:33:33.000Z</time>
      </trkpt>
      <trkpt lat="42.98412" lon="1.12953">
        <ele>474.3</ele>
        <time>2025-12-28T10:33:34.000Z</time>
      </trkpt>
      <trkpt lat="42.98415" lon="1.12955">
        <ele>474.1</ele>
        <time>2025-12-28T10:33:35.000Z</time>
      </trkpt>
      <trkpt lat="42.98418" lon="1.12957">
        <ele>473.7</ele>
        <time>2025-12-28T10:33:36.000Z</time>
      </trkpt>
      <trkpt lat="42.98421" lon="1.1296">
        <ele>473.7</ele>
        <time>2025-12-28T10:33:37.000Z</time>
      </trkpt>
      <trkpt lat="42.98423" lon="1.12963">
        <ele>473.8</ele>
        <time>2025-12-28T10:33:38.000Z</time>
      </trkpt>
      <trkpt lat="42.98426" lon="1.12966">
        <ele>473.7</ele>
        <time>2025-12-28T10:33:39.000Z</time>
      </trkpt>
      <trkpt lat="42.98429" lon="1.12969">
        <ele>473.5</ele>
        <time>2025-12-28T10:33:40.000Z</time>
      </trkpt>
      <trkpt lat="42.98432" lon="1.12972">
        <ele>473.7</ele>
        <time>2025-12-28T10:33:41.000Z</time>
      </trkpt>
      <trkpt lat="42.98435" lon="1.12975">
        <ele>473.7</ele>
        <time>2025-12-28T10:33:42.000Z</time>
      </trkpt>
      <trkpt lat="42.98439" lon="1.12978">
        <ele>474.4</ele>
        <time>2025-12-28T10:33:43.000Z</time>
      </trkpt>
      <trkpt lat="42.98441" lon="1.12981">
        <ele>474.3</ele>
        <time>2025-12-28T10:33:44.000Z</time>
      </trkpt>
      <trkpt lat="42.98444" lon="1.12984">
        <ele>474.6</ele>
        <time>2025-12-28T10:33:45.000Z</time>
      </trkpt>
      <trkpt lat="42.98447" lon="1.12987">
        <ele>474.7</ele>
        <time>2025-12-28T10:33:46.000Z</time>
      </trkpt>
      <trkpt lat="42.9845" lon="1.12989">
        <ele>474.3</ele>
        <time>2025-12-28T10:33:47.000Z</time>
      </trkpt>
      <trkpt lat="42.98453" lon="1.12991">
        <ele>474.2</ele>
        <time>2025-12-28T10:33:48.000Z</time>
      </trkpt>
      <trkpt lat="42.98456" lon="1.12994">
        <ele>474.3</ele>
        <time>2025-12-28T10:33:49.000Z</time>
      </trkpt>
      <trkpt lat="42.98459" lon="1.12997">
        <ele>474</ele>
        <time>2025-12-28T10:33:50.000Z</time>
      </trkpt>
      <trkpt lat="42.98462" lon="1.13">
        <ele>474.4</ele>
        <time>2025-12-28T10:33:51.000Z</time>
      </trkpt>
      <trkpt lat="42.98465" lon="1.13003">
        <ele>474.2</ele>
        <time>2025-12-28T10:33:52.000Z</time>
      </trkpt>
      <trkpt lat="42.98468" lon="1.13006">
        <ele>474.3</ele>
        <time>2025-12-28T10:33:53.000Z</time>
      </trkpt>
      <trkpt lat="42.98471" lon="1.13009">
        <ele>474.8</ele>
        <time>2025-12-28T10:33:54.000Z</time>
      </trkpt>
      <trkpt lat="42.98474" lon="1.13012">
        <ele>475.1</ele>
        <time>2025-12-28T10:33:55.000Z</time>
      </trkpt>
      <trkpt lat="42.98477" lon="1.13015">
        <ele>475</ele>
        <time>2025-12-28T10:33:56.000Z</time>
      </trkpt>
      <trkpt lat="42.9848" lon="1.13018">
        <ele>475.5</ele>
        <time>2025-12-28T10:33:57.000Z</time>
      </trkpt>
      <trkpt lat="42.98483" lon="1.13021">
        <ele>475.8</ele>
        <time>2025-12-28T10:33:58.000Z</time>
      </trkpt>
      <trkpt lat="42.98486" lon="1.13024">
        <ele>475.9</ele>
        <time>2025-12-28T10:33:59.000Z</time>
      </trkpt>
      <trkpt lat="42.98489" lon="1.13027">
        <ele>475.8</ele>
        <time>2025-12-28T10:34:00.000Z</time>
      </trkpt>
      <trkpt lat="42.98492" lon="1.1303">
        <ele>475.4</ele>
        <time>2025-12-28T10:34:01.000Z</time>
      </trkpt>
      <trkpt lat="42.98496" lon="1.13033">
        <ele>475.2</ele>
        <time>2025-12-28T10:34:02.000Z</time>
      </trkpt>
      <trkpt lat="42.98499" lon="1.13036">
        <ele>475.5</ele>
        <time>2025-12-28T10:34:03.000Z</time>
      </trkpt>
      <trkpt lat="42.98502" lon="1.13039">
        <ele>475.5</ele>
        <time>2025-12-28T10:34:04.000Z</time>
      </trkpt>
      <trkpt lat="42.98505" lon="1.13041">
        <ele>475.5</ele>
        <time>2025-12-28T10:34:05.000Z</time>
      </trkpt>
      <trkpt lat="42.98508" lon="1.13044">
        <ele>475.5</ele>
        <time>2025-12-28T10:34:06.000Z</time>
      </trkpt>
      <trkpt lat="42.98511" lon="1.13046">
        <ele>475.6</ele>
        <time>2025-12-28T10:34:07.000Z</time>
      </trkpt>
      <trkpt lat="42.98515" lon="1.13049">
        <ele>475.9</ele>
        <time>2025-12-28T10:34:08.000Z</time>
      </trkpt>
      <trkpt lat="42.98518" lon="1.13052">
        <ele>475.9</ele>
        <time>2025-12-28T10:34:09.000Z</time>
      </trkpt>
      <trkpt lat="42.98521" lon="1.13055">
        <ele>476.1</ele>
        <time>2025-12-28T10:34:10.000Z</time>
      </trkpt>
      <trkpt lat="42.98524" lon="1.13057">
        <ele>476.2</ele>
        <time>2025-12-28T10:34:11.000Z</time>
      </trkpt>
      <trkpt lat="42.98527" lon="1.1306">
        <ele>476</ele>
        <time>2025-12-28T10:34:12.000Z</time>
      </trkpt>
      <trkpt lat="42.98531" lon="1.13063">
        <ele>476.2</ele>
        <time>2025-12-28T10:34:13.000Z</time>
      </trkpt>
      <trkpt lat="42.98534" lon="1.13066">
        <ele>476.1</ele>
        <time>2025-12-28T10:34:14.000Z</time>
      </trkpt>
      <trkpt lat="42.98537" lon="1.13069">
        <ele>476.2</ele>
        <time>2025-12-28T10:34:15.000Z</time>
      </trkpt>
      <trkpt lat="42.98541" lon="1.13072">
        <ele>476.1</ele>
        <time>2025-12-28T10:34:16.000Z</time>
      </trkpt>
      <trkpt lat="42.98544" lon="1.13075">
        <ele>475.7</ele>
        <time>2025-12-28T10:34:17.000Z</time>
      </trkpt>
      <trkpt lat="42.98548" lon="1.13079">
        <ele>475.6</ele>
        <time>2025-12-28T10:34:18.000Z</time>
      </trkpt>
      <trkpt lat="42.98551" lon="1.13082">
        <ele>475.7</ele>
        <time>2025-12-28T10:34:19.000Z</time>
      </trkpt>
      <trkpt lat="42.98555" lon="1.13084">
        <ele>476.1</ele>
        <time>2025-12-28T10:34:20.000Z</time>
      </trkpt>
      <trkpt lat="42.98559" lon="1.13087">
        <ele>476.1</ele>
        <time>2025-12-28T10:34:21.000Z</time>
      </trkpt>
      <trkpt lat="42.98562" lon="1.1309">
        <ele>476.1</ele>
        <time>2025-12-28T10:34:22.000Z</time>
      </trkpt>
      <trkpt lat="42.98565" lon="1.13093">
        <ele>475.8</ele>
        <time>2025-12-28T10:34:23.000Z</time>
      </trkpt>
      <trkpt lat="42.98568" lon="1.13096">
        <ele>475.8</ele>
        <time>2025-12-28T10:34:24.000Z</time>
      </trkpt>
      <trkpt lat="42.98572" lon="1.13099">
        <ele>475.8</ele>
        <time>2025-12-28T10:34:25.000Z</time>
      </trkpt>
      <trkpt lat="42.98575" lon="1.13102">
        <ele>476</ele>
        <time>2025-12-28T10:34:26.000Z</time>
      </trkpt>
      <trkpt lat="42.98578" lon="1.13105">
        <ele>475.7</ele>
        <time>2025-12-28T10:34:27.000Z</time>
      </trkpt>
      <trkpt lat="42.98582" lon="1.13108">
        <ele>475.7</ele>
        <time>2025-12-28T10:34:28.000Z</time>
      </trkpt>
      <trkpt lat="42.98585" lon="1.1311">
        <ele>475.3</ele>
        <time>2025-12-28T10:34:29.000Z</time>
      </trkpt>
      <trkpt lat="42.98589" lon="1.13113">
        <ele>475.3</ele>
        <time>2025-12-28T10:34:30.000Z</time>
      </trkpt>
      <trkpt lat="42.98593" lon="1.13115">
        <ele>475.3</ele>
        <time>2025-12-28T10:34:31.000Z</time>
      </trkpt>
      <trkpt lat="42.98596" lon="1.13118">
        <ele>475.2</ele>
        <time>2025-12-28T10:34:32.000Z</time>
      </trkpt>
      <trkpt lat="42.986" lon="1.1312">
        <ele>475.2</ele>
        <time>2025-12-28T10:34:33.000Z</time>
      </trkpt>
      <trkpt lat="42.98603" lon="1.13123">
        <ele>475</ele>
        <time>2025-12-28T10:34:34.000Z</time>
      </trkpt>
      <trkpt lat="42.98607" lon="1.13125">
        <ele>475</ele>
        <time>2025-12-28T10:34:35.000Z</time>
      </trkpt>
      <trkpt lat="42.9861" lon="1.13127">
        <ele>475</ele>
        <time>2025-12-28T10:34:36.000Z</time>
      </trkpt>
      <trkpt lat="42.98614" lon="1.13129">
        <ele>474.9</ele>
        <time>2025-12-28T10:34:37.000Z</time>
      </trkpt>
      <trkpt lat="42.98617" lon="1.13132">
        <ele>474.8</ele>
        <time>2025-12-28T10:34:38.000Z</time>
      </trkpt>
      <trkpt lat="42.98621" lon="1.13134">
        <ele>474.5</ele>
        <time>2025-12-28T10:34:39.000Z</time>
      </trkpt>
      <trkpt lat="42.98625" lon="1.13136">
        <ele>474.1</ele>
        <time>2025-12-28T10:34:40.000Z</time>
      </trkpt>
      <trkpt lat="42.98629" lon="1.13139">
        <ele>473.7</ele>
        <time>2025-12-28T10:34:41.000Z</time>
      </trkpt>
      <trkpt lat="42.98633" lon="1.13142">
        <ele>473.5</ele>
        <time>2025-12-28T10:34:42.000Z</time>
      </trkpt>
      <trkpt lat="42.98637" lon="1.13146">
        <ele>472.9</ele>
        <time>2025-12-28T10:34:43.000Z</time>
      </trkpt>
      <trkpt lat="42.98641" lon="1.13149">
        <ele>473.1</ele>
        <time>2025-12-28T10:34:44.000Z</time>
      </trkpt>
      <trkpt lat="42.98645" lon="1.13152">
        <ele>473.2</ele>
        <time>2025-12-28T10:34:45.000Z</time>
      </trkpt>
      <trkpt lat="42.98648" lon="1.13156">
        <ele>473.2</ele>
        <time>2025-12-28T10:34:46.000Z</time>
      </trkpt>
      <trkpt lat="42.98652" lon="1.1316">
        <ele>473.5</ele>
        <time>2025-12-28T10:34:47.000Z</time>
      </trkpt>
      <trkpt lat="42.98655" lon="1.13163">
        <ele>473.5</ele>
        <time>2025-12-28T10:34:48.000Z</time>
      </trkpt>
      <trkpt lat="42.98659" lon="1.13167">
        <ele>473.2</ele>
        <time>2025-12-28T10:34:49.000Z</time>
      </trkpt>
      <trkpt lat="42.98663" lon="1.13171">
        <ele>473.2</ele>
        <time>2025-12-28T10:34:50.000Z</time>
      </trkpt>
      <trkpt lat="42.98667" lon="1.13174">
        <ele>473.4</ele>
        <time>2025-12-28T10:34:51.000Z</time>
      </trkpt>
      <trkpt lat="42.98671" lon="1.13178">
        <ele>473.5</ele>
        <time>2025-12-28T10:34:52.000Z</time>
      </trkpt>
      <trkpt lat="42.98675" lon="1.13181">
        <ele>473.4</ele>
        <time>2025-12-28T10:34:53.000Z</time>
      </trkpt>
      <trkpt lat="42.98678" lon="1.13184">
        <ele>473.4</ele>
        <time>2025-12-28T10:34:54.000Z</time>
      </trkpt>
      <trkpt lat="42.98682" lon="1.13187">
        <ele>473.2</ele>
        <time>2025-12-28T10:34:55.000Z</time>
      </trkpt>
      <trkpt lat="42.98686" lon="1.13189">
        <ele>473.1</ele>
        <time>2025-12-28T10:34:56.000Z</time>
      </trkpt>
      <trkpt lat="42.98692" lon="1.13191">
        <ele>473.5</ele>
        <time>2025-12-28T10:34:57.000Z</time>
      </trkpt>
      <trkpt lat="42.98696" lon="1.13194">
        <ele>473.4</ele>
        <time>2025-12-28T10:34:58.000Z</time>
      </trkpt>
      <trkpt lat="42.987" lon="1.13197">
        <ele>473.1</ele>
        <time>2025-12-28T10:34:59.000Z</time>
      </trkpt>
      <trkpt lat="42.98705" lon="1.132">
        <ele>473.2</ele>
        <time>2025-12-28T10:35:00.000Z</time>
      </trkpt>
      <trkpt lat="42.98709" lon="1.13203">
        <ele>473.4</ele>
        <time>2025-12-28T10:35:01.000Z</time>
      </trkpt>
      <trkpt lat="42.98713" lon="1.13205">
        <ele>473.7</ele>
        <time>2025-12-28T10:35:02.000Z</time>
      </trkpt>
      <trkpt lat="42.98717" lon="1.13207">
        <ele>474.2</ele>
        <time>2025-12-28T10:35:03.000Z</time>
      </trkpt>
      <trkpt lat="42.98721" lon="1.1321">
        <ele>474.1</ele>
        <time>2025-12-28T10:35:04.000Z</time>
      </trkpt>
      <trkpt lat="42.98726" lon="1.13211">
        <ele>474.2</ele>
        <time>2025-12-28T10:35:05.000Z</time>
      </trkpt>
      <trkpt lat="42.9873" lon="1.13213">
        <ele>474.2</ele>
        <time>2025-12-28T10:35:06.000Z</time>
      </trkpt>
      <trkpt lat="42.98734" lon="1.13216">
        <ele>474.2</ele>
        <time>2025-12-28T10:35:07.000Z</time>
      </trkpt>
      <trkpt lat="42.98739" lon="1.13218">
        <ele>474.5</ele>
        <time>2025-12-28T10:35:08.000Z</time>
      </trkpt>
      <trkpt lat="42.98743" lon="1.1322">
        <ele>474.5</ele>
        <time>2025-12-28T10:35:09.000Z</time>
      </trkpt>
      <trkpt lat="42.98747" lon="1.13222">
        <ele>474.3</ele>
        <time>2025-12-28T10:35:10.000Z</time>
      </trkpt>
      <trkpt lat="42.9875" lon="1.13224">
        <ele>474.4</ele>
        <time>2025-12-28T10:35:11.000Z</time>
      </trkpt>
      <trkpt lat="42.98754" lon="1.13227">
        <ele>474.6</ele>
        <time>2025-12-28T10:35:12.000Z</time>
      </trkpt>
      <trkpt lat="42.98758" lon="1.13229">
        <ele>474.6</ele>
        <time>2025-12-28T10:35:13.000Z</time>
      </trkpt>
      <trkpt lat="42.98763" lon="1.13231">
        <ele>474.7</ele>
        <time>2025-12-28T10:35:14.000Z</time>
      </trkpt>
      <trkpt lat="42.98767" lon="1.13233">
        <ele>474.8</ele>
        <time>2025-12-28T10:35:15.000Z</time>
      </trkpt>
      <trkpt lat="42.9877" lon="1.13236">
        <ele>474.9</ele>
        <time>2025-12-28T10:35:16.000Z</time>
      </trkpt>
      <trkpt lat="42.98774" lon="1.1324">
        <ele>474.6</ele>
        <time>2025-12-28T10:35:17.000Z</time>
      </trkpt>
      <trkpt lat="42.98778" lon="1.13243">
        <ele>474.5</ele>
        <time>2025-12-28T10:35:18.000Z</time>
      </trkpt>
      <trkpt lat="42.98782" lon="1.13247">
        <ele>474.5</ele>
        <time>2025-12-28T10:35:19.000Z</time>
      </trkpt>
      <trkpt lat="42.98786" lon="1.1325">
        <ele>474</ele>
        <time>2025-12-28T10:35:20.000Z</time>
      </trkpt>
      <trkpt lat="42.9879" lon="1.13254">
        <ele>473.8</ele>
        <time>2025-12-28T10:35:21.000Z</time>
      </trkpt>
      <trkpt lat="42.98794" lon="1.13257">
        <ele>473.9</ele>
        <time>2025-12-28T10:35:22.000Z</time>
      </trkpt>
      <trkpt lat="42.98798" lon="1.1326">
        <ele>473.5</ele>
        <time>2025-12-28T10:35:23.000Z</time>
      </trkpt>
      <trkpt lat="42.98802" lon="1.13264">
        <ele>473</ele>
        <time>2025-12-28T10:35:24.000Z</time>
      </trkpt>
      <trkpt lat="42.98806" lon="1.13267">
        <ele>472.9</ele>
        <time>2025-12-28T10:35:25.000Z</time>
      </trkpt>
      <trkpt lat="42.9881" lon="1.13271">
        <ele>472.9</ele>
        <time>2025-12-28T10:35:26.000Z</time>
      </trkpt>
      <trkpt lat="42.98814" lon="1.13275">
        <ele>473</ele>
        <time>2025-12-28T10:35:27.000Z</time>
      </trkpt>
      <trkpt lat="42.98819" lon="1.13278">
        <ele>473</ele>
        <time>2025-12-28T10:35:28.000Z</time>
      </trkpt>
      <trkpt lat="42.98823" lon="1.13282">
        <ele>472.9</ele>
        <time>2025-12-28T10:35:29.000Z</time>
      </trkpt>
      <trkpt lat="42.98828" lon="1.13285">
        <ele>472.7</ele>
        <time>2025-12-28T10:35:30.000Z</time>
      </trkpt>
      <trkpt lat="42.98832" lon="1.13289">
        <ele>472.5</ele>
        <time>2025-12-28T10:35:31.000Z</time>
      </trkpt>
      <trkpt lat="42.98837" lon="1.13292">
        <ele>472.2</ele>
        <time>2025-12-28T10:35:32.000Z</time>
      </trkpt>
      <trkpt lat="42.98842" lon="1.13295">
        <ele>471.8</ele>
        <time>2025-12-28T10:35:33.000Z</time>
      </trkpt>
      <trkpt lat="42.98846" lon="1.13299">
        <ele>472.1</ele>
        <time>2025-12-28T10:35:34.000Z</time>
      </trkpt>
      <trkpt lat="42.98851" lon="1.13303">
        <ele>472</ele>
        <time>2025-12-28T10:35:35.000Z</time>
      </trkpt>
      <trkpt lat="42.98856" lon="1.13306">
        <ele>471.6</ele>
        <time>2025-12-28T10:35:36.000Z</time>
      </trkpt>
      <trkpt lat="42.9886" lon="1.13311">
        <ele>471.5</ele>
        <time>2025-12-28T10:35:37.000Z</time>
      </trkpt>
      <trkpt lat="42.98865" lon="1.13315">
        <ele>471.7</ele>
        <time>2025-12-28T10:35:38.000Z</time>
      </trkpt>
      <trkpt lat="42.98869" lon="1.13318">
        <ele>471.1</ele>
        <time>2025-12-28T10:35:39.000Z</time>
      </trkpt>
      <trkpt lat="42.98875" lon="1.13323">
        <ele>471</ele>
        <time>2025-12-28T10:35:40.000Z</time>
      </trkpt>
      <trkpt lat="42.9888" lon="1.13326">
        <ele>470.5</ele>
        <time>2025-12-28T10:35:41.000Z</time>
      </trkpt>
      <trkpt lat="42.98885" lon="1.1333">
        <ele>470.2</ele>
        <time>2025-12-28T10:35:42.000Z</time>
      </trkpt>
      <trkpt lat="42.9889" lon="1.13333">
        <ele>469.9</ele>
        <time>2025-12-28T10:35:43.000Z</time>
      </trkpt>
      <trkpt lat="42.98895" lon="1.13337">
        <ele>470.1</ele>
        <time>2025-12-28T10:35:44.000Z</time>
      </trkpt>
      <trkpt lat="42.989" lon="1.1334">
        <ele>470</ele>
        <time>2025-12-28T10:35:45.000Z</time>
      </trkpt>
      <trkpt lat="42.98905" lon="1.13344">
        <ele>469.9</ele>
        <time>2025-12-28T10:35:46.000Z</time>
      </trkpt>
      <trkpt lat="42.9891" lon="1.13347">
        <ele>469.7</ele>
        <time>2025-12-28T10:35:47.000Z</time>
      </trkpt>
      <trkpt lat="42.98915" lon="1.1335">
        <ele>469.4</ele>
        <time>2025-12-28T10:35:48.000Z</time>
      </trkpt>
      <trkpt lat="42.9892" lon="1.13352">
        <ele>469.8</ele>
        <time>2025-12-28T10:35:49.000Z</time>
      </trkpt>
      <trkpt lat="42.98925" lon="1.13355">
        <ele>469.8</ele>
        <time>2025-12-28T10:35:50.000Z</time>
      </trkpt>
      <trkpt lat="42.98929" lon="1.13359">
        <ele>469.5</ele>
        <time>2025-12-28T10:35:51.000Z</time>
      </trkpt>
      <trkpt lat="42.98932" lon="1.13364">
        <ele>469.6</ele>
        <time>2025-12-28T10:35:52.000Z</time>
      </trkpt>
      <trkpt lat="42.98933" lon="1.13371">
        <ele>470.1</ele>
        <time>2025-12-28T10:35:53.000Z</time>
      </trkpt>
      <trkpt lat="42.98933" lon="1.1338">
        <ele>469.2</ele>
        <time>2025-12-28T10:35:54.000Z</time>
      </trkpt>
      <trkpt lat="42.9893" lon="1.13386">
        <ele>468.5</ele>
        <time>2025-12-28T10:35:55.000Z</time>
      </trkpt>
      <trkpt lat="42.98926" lon="1.13393">
        <ele>467.9</ele>
        <time>2025-12-28T10:35:56.000Z</time>
      </trkpt>
      <trkpt lat="42.98923" lon="1.134">
        <ele>468.2</ele>
        <time>2025-12-28T10:35:57.000Z</time>
      </trkpt>
      <trkpt lat="42.9892" lon="1.13409">
        <ele>467.7</ele>
        <time>2025-12-28T10:35:58.000Z</time>
      </trkpt>
      <trkpt lat="42.98917" lon="1.13418">
        <ele>467.5</ele>
        <time>2025-12-28T10:35:59.000Z</time>
      </trkpt>
      <trkpt lat="42.98913" lon="1.13427">
        <ele>467.1</ele>
        <time>2025-12-28T10:36:00.000Z</time>
      </trkpt>
      <trkpt lat="42.98911" lon="1.13436">
        <ele>467.1</ele>
        <time>2025-12-28T10:36:01.000Z</time>
      </trkpt>
      <trkpt lat="42.98907" lon="1.13447">
        <ele>466.9</ele>
        <time>2025-12-28T10:36:02.000Z</time>
      </trkpt>
      <trkpt lat="42.98904" lon="1.13455">
        <ele>466.9</ele>
        <time>2025-12-28T10:36:03.000Z</time>
      </trkpt>
      <trkpt lat="42.98902" lon="1.13465">
        <ele>466.3</ele>
        <time>2025-12-28T10:36:04.000Z</time>
      </trkpt>
      <trkpt lat="42.98898" lon="1.13475">
        <ele>466.4</ele>
        <time>2025-12-28T10:36:05.000Z</time>
      </trkpt>
      <trkpt lat="42.98897" lon="1.13483">
        <ele>465.8</ele>
        <time>2025-12-28T10:36:06.000Z</time>
      </trkpt>
      <trkpt lat="42.98895" lon="1.13492">
        <ele>466.2</ele>
        <time>2025-12-28T10:36:07.000Z</time>
      </trkpt>
      <trkpt lat="42.98893" lon="1.13502">
        <ele>465.3</ele>
        <time>2025-12-28T10:36:08.000Z</time>
      </trkpt>
      <trkpt lat="42.98891" lon="1.13511">
        <ele>464.6</ele>
        <time>2025-12-28T10:36:09.000Z</time>
      </trkpt>
      <trkpt lat="42.9889" lon="1.13521">
        <ele>464.2</ele>
        <time>2025-12-28T10:36:10.000Z</time>
      </trkpt>
      <trkpt lat="42.98889" lon="1.1353">
        <ele>464.2</ele>
        <time>2025-12-28T10:36:11.000Z</time>
      </trkpt>
      <trkpt lat="42.98891" lon="1.13538">
        <ele>464.8</ele>
        <time>2025-12-28T10:36:12.000Z</time>
      </trkpt>
      <trkpt lat="42.98892" lon="1.13546">
        <ele>464.8</ele>
        <time>2025-12-28T10:36:13.000Z</time>
      </trkpt>
      <trkpt lat="42.98893" lon="1.13555">
        <ele>464.6</ele>
        <time>2025-12-28T10:36:14.000Z</time>
      </trkpt>
      <trkpt lat="42.98894" lon="1.13564">
        <ele>464.6</ele>
        <time>2025-12-28T10:36:15.000Z</time>
      </trkpt>
      <trkpt lat="42.98896" lon="1.13572">
        <ele>464.8</ele>
        <time>2025-12-28T10:36:16.000Z</time>
      </trkpt>
      <trkpt lat="42.98898" lon="1.1358">
        <ele>464.1</ele>
        <time>2025-12-28T10:36:17.000Z</time>
      </trkpt>
      <trkpt lat="42.989" lon="1.13589">
        <ele>464.3</ele>
        <time>2025-12-28T10:36:18.000Z</time>
      </trkpt>
      <trkpt lat="42.98901" lon="1.13597">
        <ele>464</ele>
        <time>2025-12-28T10:36:19.000Z</time>
      </trkpt>
      <trkpt lat="42.98903" lon="1.13605">
        <ele>463.9</ele>
        <time>2025-12-28T10:36:20.000Z</time>
      </trkpt>
      <trkpt lat="42.98903" lon="1.13613">
        <ele>463.8</ele>
        <time>2025-12-28T10:36:21.000Z</time>
      </trkpt>
      <trkpt lat="42.98904" lon="1.13622">
        <ele>462.5</ele>
        <time>2025-12-28T10:36:22.000Z</time>
      </trkpt>
      <trkpt lat="42.98904" lon="1.1363">
        <ele>462.5</ele>
        <time>2025-12-28T10:36:23.000Z</time>
      </trkpt>
      <trkpt lat="42.98905" lon="1.13639">
        <ele>462.1</ele>
        <time>2025-12-28T10:36:24.000Z</time>
      </trkpt>
      <trkpt lat="42.98905" lon="1.13646">
        <ele>462</ele>
        <time>2025-12-28T10:36:25.000Z</time>
      </trkpt>
      <trkpt lat="42.98905" lon="1.13654">
        <ele>462.1</ele>
        <time>2025-12-28T10:36:26.000Z</time>
      </trkpt>
      <trkpt lat="42.98902" lon="1.13661">
        <ele>462.5</ele>
        <time>2025-12-28T10:36:27.000Z</time>
      </trkpt>
      <trkpt lat="42.98899" lon="1.13668">
        <ele>462.3</ele>
        <time>2025-12-28T10:36:28.000Z</time>
      </trkpt>
      <trkpt lat="42.98895" lon="1.13675">
        <ele>462.3</ele>
        <time>2025-12-28T10:36:29.000Z</time>
      </trkpt>
      <trkpt lat="42.98891" lon="1.13681">
        <ele>462.3</ele>
        <time>2025-12-28T10:36:30.000Z</time>
      </trkpt>
      <trkpt lat="42.98886" lon="1.13687">
        <ele>462.4</ele>
        <time>2025-12-28T10:36:31.000Z</time>
      </trkpt>
      <trkpt lat="42.98883" lon="1.13693">
        <ele>462.4</ele>
        <time>2025-12-28T10:36:32.000Z</time>
      </trkpt>
      <trkpt lat="42.98878" lon="1.13699">
        <ele>462.8</ele>
        <time>2025-12-28T10:36:33.000Z</time>
      </trkpt>
      <trkpt lat="42.98874" lon="1.13704">
        <ele>462.6</ele>
        <time>2025-12-28T10:36:34.000Z</time>
      </trkpt>
      <trkpt lat="42.98869" lon="1.13709">
        <ele>462.2</ele>
        <time>2025-12-28T10:36:35.000Z</time>
      </trkpt>
      <trkpt lat="42.98863" lon="1.13712">
        <ele>462.7</ele>
        <time>2025-12-28T10:36:36.000Z</time>
      </trkpt>
      <trkpt lat="42.98858" lon="1.13715">
        <ele>462.7</ele>
        <time>2025-12-28T10:36:37.000Z</time>
      </trkpt>
      <trkpt lat="42.98854" lon="1.13718">
        <ele>462.7</ele>
        <time>2025-12-28T10:36:38.000Z</time>
      </trkpt>
      <trkpt lat="42.98849" lon="1.13721">
        <ele>462.8</ele>
        <time>2025-12-28T10:36:39.000Z</time>
      </trkpt>
      <trkpt lat="42.98843" lon="1.13724">
        <ele>462.6</ele>
        <time>2025-12-28T10:36:40.000Z</time>
      </trkpt>
      <trkpt lat="42.98838" lon="1.13726">
        <ele>462.6</ele>
        <time>2025-12-28T10:36:41.000Z</time>
      </trkpt>
      <trkpt lat="42.98833" lon="1.13728">
        <ele>462.7</ele>
        <time>2025-12-28T10:36:42.000Z</time>
      </trkpt>
      <trkpt lat="42.98828" lon="1.13731">
        <ele>462.9</ele>
        <time>2025-12-28T10:36:43.000Z</time>
      </trkpt>
      <trkpt lat="42.98822" lon="1.13732">
        <ele>463.3</ele>
        <time>2025-12-28T10:36:44.000Z</time>
      </trkpt>
      <trkpt lat="42.98817" lon="1.13734">
        <ele>463.1</ele>
        <time>2025-12-28T10:36:45.000Z</time>
      </trkpt>
      <trkpt lat="42.98811" lon="1.13735">
        <ele>463.4</ele>
        <time>2025-12-28T10:36:46.000Z</time>
      </trkpt>
      <trkpt lat="42.98806" lon="1.13736">
        <ele>463.6</ele>
        <time>2025-12-28T10:36:47.000Z</time>
      </trkpt>
      <trkpt lat="42.988" lon="1.13737">
        <ele>463.6</ele>
        <time>2025-12-28T10:36:48.000Z</time>
      </trkpt>
      <trkpt lat="42.98795" lon="1.13738">
        <ele>463.9</ele>
        <time>2025-12-28T10:36:49.000Z</time>
      </trkpt>
      <trkpt lat="42.9879" lon="1.13738">
        <ele>464.3</ele>
        <time>2025-12-28T10:36:50.000Z</time>
      </trkpt>
      <trkpt lat="42.98784" lon="1.13738">
        <ele>464.3</ele>
        <time>2025-12-28T10:36:51.000Z</time>
      </trkpt>
      <trkpt lat="42.98779" lon="1.13739">
        <ele>464.3</ele>
        <time>2025-12-28T10:36:52.000Z</time>
      </trkpt>
      <trkpt lat="42.98773" lon="1.1374">
        <ele>464.2</ele>
        <time>2025-12-28T10:36:53.000Z</time>
      </trkpt>
      <trkpt lat="42.98768" lon="1.13741">
        <ele>463.8</ele>
        <time>2025-12-28T10:36:54.000Z</time>
      </trkpt>
      <trkpt lat="42.98763" lon="1.13741">
        <ele>463.8</ele>
        <time>2025-12-28T10:36:55.000Z</time>
      </trkpt>
      <trkpt lat="42.98758" lon="1.13741">
        <ele>463.8</ele>
        <time>2025-12-28T10:36:56.000Z</time>
      </trkpt>
      <trkpt lat="42.98753" lon="1.13742">
        <ele>463.7</ele>
        <time>2025-12-28T10:36:57.000Z</time>
      </trkpt>
      <trkpt lat="42.98747" lon="1.13743">
        <ele>463.7</ele>
        <time>2025-12-28T10:36:58.000Z</time>
      </trkpt>
      <trkpt lat="42.98742" lon="1.13743">
        <ele>463.6</ele>
        <time>2025-12-28T10:36:59.000Z</time>
      </trkpt>
      <trkpt lat="42.98736" lon="1.13744">
        <ele>463.5</ele>
        <time>2025-12-28T10:37:00.000Z</time>
      </trkpt>
      <trkpt lat="42.98731" lon="1.13744">
        <ele>463.8</ele>
        <time>2025-12-28T10:37:01.000Z</time>
      </trkpt>
      <trkpt lat="42.98725" lon="1.13745">
        <ele>463.7</ele>
        <time>2025-12-28T10:37:02.000Z</time>
      </trkpt>
      <trkpt lat="42.9872" lon="1.13745">
        <ele>463.7</ele>
        <time>2025-12-28T10:37:03.000Z</time>
      </trkpt>
      <trkpt lat="42.98714" lon="1.13744">
        <ele>463.8</ele>
        <time>2025-12-28T10:37:04.000Z</time>
      </trkpt>
      <trkpt lat="42.98709" lon="1.13744">
        <ele>463.8</ele>
        <time>2025-12-28T10:37:05.000Z</time>
      </trkpt>
      <trkpt lat="42.98704" lon="1.13743">
        <ele>463.6</ele>
        <time>2025-12-28T10:37:06.000Z</time>
      </trkpt>
      <trkpt lat="42.98698" lon="1.13743">
        <ele>463.6</ele>
        <time>2025-12-28T10:37:07.000Z</time>
      </trkpt>
      <trkpt lat="42.98693" lon="1.13742">
        <ele>463.5</ele>
        <time>2025-12-28T10:37:08.000Z</time>
      </trkpt>
      <trkpt lat="42.98688" lon="1.13742">
        <ele>463.6</ele>
        <time>2025-12-28T10:37:09.000Z</time>
      </trkpt>
      <trkpt lat="42.98684" lon="1.13742">
        <ele>464.1</ele>
        <time>2025-12-28T10:37:10.000Z</time>
      </trkpt>
      <trkpt lat="42.98679" lon="1.13742">
        <ele>464</ele>
        <time>2025-12-28T10:37:11.000Z</time>
      </trkpt>
      <trkpt lat="42.98674" lon="1.13743">
        <ele>463.9</ele>
        <time>2025-12-28T10:37:12.000Z</time>
      </trkpt>
      <trkpt lat="42.9867" lon="1.13743">
        <ele>463.9</ele>
        <time>2025-12-28T10:37:13.000Z</time>
      </trkpt>
      <trkpt lat="42.98664" lon="1.13743">
        <ele>463.6</ele>
        <time>2025-12-28T10:37:14.000Z</time>
      </trkpt>
      <trkpt lat="42.98659" lon="1.13744">
        <ele>463.2</ele>
        <time>2025-12-28T10:37:15.000Z</time>
      </trkpt>
      <trkpt lat="42.98654" lon="1.13746">
        <ele>463.1</ele>
        <time>2025-12-28T10:37:16.000Z</time>
      </trkpt>
      <trkpt lat="42.98648" lon="1.13747">
        <ele>462.7</ele>
        <time>2025-12-28T10:37:17.000Z</time>
      </trkpt>
      <trkpt lat="42.98642" lon="1.13749">
        <ele>461.2</ele>
        <time>2025-12-28T10:37:18.000Z</time>
      </trkpt>
      <trkpt lat="42.98637" lon="1.13752">
        <ele>461</ele>
        <time>2025-12-28T10:37:19.000Z</time>
      </trkpt>
      <trkpt lat="42.98631" lon="1.13756">
        <ele>460.6</ele>
        <time>2025-12-28T10:37:20.000Z</time>
      </trkpt>
      <trkpt lat="42.98625" lon="1.1376">
        <ele>460.5</ele>
        <time>2025-12-28T10:37:21.000Z</time>
      </trkpt>
      <trkpt lat="42.98617" lon="1.13769">
        <ele>461.4</ele>
        <time>2025-12-28T10:37:22.000Z</time>
      </trkpt>
      <trkpt lat="42.98611" lon="1.13779">
        <ele>460.4</ele>
        <time>2025-12-28T10:37:23.000Z</time>
      </trkpt>
      <trkpt lat="42.98607" lon="1.13788">
        <ele>458.3</ele>
        <time>2025-12-28T10:37:24.000Z</time>
      </trkpt>
      <trkpt lat="42.98603" lon="1.13799">
        <ele>456.9</ele>
        <time>2025-12-28T10:37:25.000Z</time>
      </trkpt>
      <trkpt lat="42.98598" lon="1.1381">
        <ele>455.4</ele>
        <time>2025-12-28T10:37:26.000Z</time>
      </trkpt>
      <trkpt lat="42.98593" lon="1.13822">
        <ele>453.8</ele>
        <time>2025-12-28T10:37:27.000Z</time>
      </trkpt>
      <trkpt lat="42.98588" lon="1.13832">
        <ele>452.5</ele>
        <time>2025-12-28T10:37:28.000Z</time>
      </trkpt>
      <trkpt lat="42.98584" lon="1.13841">
        <ele>451.2</ele>
        <time>2025-12-28T10:37:29.000Z</time>
      </trkpt>
      <trkpt lat="42.98579" lon="1.13848">
        <ele>450.2</ele>
        <time>2025-12-28T10:37:30.000Z</time>
      </trkpt>
      <trkpt lat="42.98576" lon="1.13854">
        <ele>449.5</ele>
        <time>2025-12-28T10:37:31.000Z</time>
      </trkpt>
      <trkpt lat="42.98574" lon="1.13859">
        <ele>449</ele>
        <time>2025-12-28T10:37:32.000Z</time>
      </trkpt>
      <trkpt lat="42.98573" lon="1.13862">
        <ele>448.5</ele>
        <time>2025-12-28T10:37:33.000Z</time>
      </trkpt>
      <trkpt lat="42.98573" lon="1.13866">
        <ele>449.7</ele>
        <time>2025-12-28T10:37:34.000Z</time>
      </trkpt>
      <trkpt lat="42.98574" lon="1.1387">
        <ele>448.3</ele>
        <time>2025-12-28T10:37:35.000Z</time>
      </trkpt>
      <trkpt lat="42.98576" lon="1.13873">
        <ele>448.4</ele>
        <time>2025-12-28T10:37:36.000Z</time>
      </trkpt>
      <trkpt lat="42.9858" lon="1.13874">
        <ele>447.8</ele>
        <time>2025-12-28T10:37:37.000Z</time>
      </trkpt>
      <trkpt lat="42.98584" lon="1.13875">
        <ele>448.1</ele>
        <time>2025-12-28T10:37:38.000Z</time>
      </trkpt>
      <trkpt lat="42.98588" lon="1.13877">
        <ele>447.6</ele>
        <time>2025-12-28T10:37:39.000Z</time>
      </trkpt>
      <trkpt lat="42.98592" lon="1.13879">
        <ele>447.8</ele>
        <time>2025-12-28T10:37:40.000Z</time>
      </trkpt>
      <trkpt lat="42.98596" lon="1.13881">
        <ele>448.1</ele>
        <time>2025-12-28T10:37:41.000Z</time>
      </trkpt>
      <trkpt lat="42.986" lon="1.13884">
        <ele>447.9</ele>
        <time>2025-12-28T10:37:42.000Z</time>
      </trkpt>
      <trkpt lat="42.98603" lon="1.13887">
        <ele>447.8</ele>
        <time>2025-12-28T10:37:43.000Z</time>
      </trkpt>
      <trkpt lat="42.98602" lon="1.13896">
        <ele>447.5</ele>
        <time>2025-12-28T10:37:44.000Z</time>
      </trkpt>
      <trkpt lat="42.98602" lon="1.13903">
        <ele>446.8</ele>
        <time>2025-12-28T10:37:45.000Z</time>
      </trkpt>
      <trkpt lat="42.98601" lon="1.13908">
        <ele>446.4</ele>
        <time>2025-12-28T10:37:46.000Z</time>
      </trkpt>
      <trkpt lat="42.98599" lon="1.13915">
        <ele>445.8</ele>
        <time>2025-12-28T10:37:47.000Z</time>
      </trkpt>
      <trkpt lat="42.98597" lon="1.13921">
        <ele>444.7</ele>
        <time>2025-12-28T10:37:48.000Z</time>
      </trkpt>
      <trkpt lat="42.98597" lon="1.13927">
        <ele>444.4</ele>
        <time>2025-12-28T10:37:49.000Z</time>
      </trkpt>
      <trkpt lat="42.98598" lon="1.13932">
        <ele>444.3</ele>
        <time>2025-12-28T10:37:50.000Z</time>
      </trkpt>
      <trkpt lat="42.98601" lon="1.13934">
        <ele>444.2</ele>
        <time>2025-12-28T10:37:51.000Z</time>
      </trkpt>
      <trkpt lat="42.98605" lon="1.13935">
        <ele>444</ele>
        <time>2025-12-28T10:37:52.000Z</time>
      </trkpt>
      <trkpt lat="42.9861" lon="1.13936">
        <ele>443.7</ele>
        <time>2025-12-28T10:37:53.000Z</time>
      </trkpt>
      <trkpt lat="42.98614" lon="1.13935">
        <ele>442.4</ele>
        <time>2025-12-28T10:37:54.000Z</time>
      </trkpt>
      <trkpt lat="42.98619" lon="1.13931">
        <ele>442.3</ele>
        <time>2025-12-28T10:37:55.000Z</time>
      </trkpt>
      <trkpt lat="42.98624" lon="1.13928">
        <ele>441.9</ele>
        <time>2025-12-28T10:37:56.000Z</time>
      </trkpt>
      <trkpt lat="42.98629" lon="1.13926">
        <ele>442</ele>
        <time>2025-12-28T10:37:57.000Z</time>
      </trkpt>
      <trkpt lat="42.98634" lon="1.13924">
        <ele>441.6</ele>
        <time>2025-12-28T10:37:58.000Z</time>
      </trkpt>
      <trkpt lat="42.98639" lon="1.13922">
        <ele>441.9</ele>
        <time>2025-12-28T10:37:59.000Z</time>
      </trkpt>
      <trkpt lat="42.98643" lon="1.13921">
        <ele>441.7</ele>
        <time>2025-12-28T10:38:00.000Z</time>
      </trkpt>
      <trkpt lat="42.98648" lon="1.13921">
        <ele>441.6</ele>
        <time>2025-12-28T10:38:01.000Z</time>
      </trkpt>
      <trkpt lat="42.98652" lon="1.13921">
        <ele>441.9</ele>
        <time>2025-12-28T10:38:02.000Z</time>
      </trkpt>
      <trkpt lat="42.98657" lon="1.13921">
        <ele>441.9</ele>
        <time>2025-12-28T10:38:03.000Z</time>
      </trkpt>
      <trkpt lat="42.98661" lon="1.1392">
        <ele>442.3</ele>
        <time>2025-12-28T10:38:04.000Z</time>
      </trkpt>
      <trkpt lat="42.98666" lon="1.1392">
        <ele>441.9</ele>
        <time>2025-12-28T10:38:05.000Z</time>
      </trkpt>
      <trkpt lat="42.9867" lon="1.13919">
        <ele>441.9</ele>
        <time>2025-12-28T10:38:06.000Z</time>
      </trkpt>
      <trkpt lat="42.98674" lon="1.13917">
        <ele>441.7</ele>
        <time>2025-12-28T10:38:07.000Z</time>
      </trkpt>
      <trkpt lat="42.98678" lon="1.13916">
        <ele>441.8</ele>
        <time>2025-12-28T10:38:08.000Z</time>
      </trkpt>
      <trkpt lat="42.98682" lon="1.13914">
        <ele>441.8</ele>
        <time>2025-12-28T10:38:09.000Z</time>
      </trkpt>
      <trkpt lat="42.98685" lon="1.13912">
        <ele>441.6</ele>
        <time>2025-12-28T10:38:10.000Z</time>
      </trkpt>
      <trkpt lat="42.98688" lon="1.13911">
        <ele>441.5</ele>
        <time>2025-12-28T10:38:11.000Z</time>
      </trkpt>
      <trkpt lat="42.9869" lon="1.13912">
        <ele>443.1</ele>
        <time>2025-12-28T10:38:12.000Z</time>
      </trkpt>
      <trkpt lat="42.98691" lon="1.13915">
        <ele>442.7</ele>
        <time>2025-12-28T10:38:13.000Z</time>
      </trkpt>
      <trkpt lat="42.98692" lon="1.13919">
        <ele>442.2</ele>
        <time>2025-12-28T10:38:14.000Z</time>
      </trkpt>
      <trkpt lat="42.98692" lon="1.13924">
        <ele>442.6</ele>
        <time>2025-12-28T10:38:15.000Z</time>
      </trkpt>
      <trkpt lat="42.98693" lon="1.13929">
        <ele>442.9</ele>
        <time>2025-12-28T10:38:16.000Z</time>
      </trkpt>
      <trkpt lat="42.98694" lon="1.13932">
        <ele>443.4</ele>
        <time>2025-12-28T10:38:17.000Z</time>
      </trkpt>
      <trkpt lat="42.98696" lon="1.13934">
        <ele>442.9</ele>
        <time>2025-12-28T10:38:18.000Z</time>
      </trkpt>
      <trkpt lat="42.98698" lon="1.13934">
        <ele>443.3</ele>
        <time>2025-12-28T10:38:19.000Z</time>
      </trkpt>
      <trkpt lat="42.987" lon="1.13934">
        <ele>443</ele>
        <time>2025-12-28T10:38:20.000Z</time>
      </trkpt>
      <trkpt lat="42.98702" lon="1.13932">
        <ele>442.7</ele>
        <time>2025-12-28T10:38:21.000Z</time>
      </trkpt>
      <trkpt lat="42.98704" lon="1.13931">
        <ele>442.8</ele>
        <time>2025-12-28T10:38:22.000Z</time>
      </trkpt>
      <trkpt lat="42.98705" lon="1.13929">
        <ele>443</ele>
        <time>2025-12-28T10:38:23.000Z</time>
      </trkpt>
      <trkpt lat="42.98707" lon="1.13928">
        <ele>443.1</ele>
        <time>2025-12-28T10:38:24.000Z</time>
      </trkpt>
      <trkpt lat="42.98709" lon="1.13926">
        <ele>443.3</ele>
        <time>2025-12-28T10:38:25.000Z</time>
      </trkpt>
      <trkpt lat="42.98711" lon="1.13925">
        <ele>443.5</ele>
        <time>2025-12-28T10:38:26.000Z</time>
      </trkpt>
      <trkpt lat="42.98712" lon="1.13925">
        <ele>443.3</ele>
        <time>2025-12-28T10:38:27.000Z</time>
      </trkpt>
      <trkpt lat="42.98714" lon="1.13924">
        <ele>442.9</ele>
        <time>2025-12-28T10:38:28.000Z</time>
      </trkpt>
      <trkpt lat="42.98716" lon="1.13923">
        <ele>442.7</ele>
        <time>2025-12-28T10:38:29.000Z</time>
      </trkpt>
      <trkpt lat="42.98717" lon="1.13922">
        <ele>442.5</ele>
        <time>2025-12-28T10:38:30.000Z</time>
      </trkpt>
      <trkpt lat="42.98718" lon="1.13922">
        <ele>442.8</ele>
        <time>2025-12-28T10:38:31.000Z</time>
      </trkpt>
    </trkseg>
  </trk>
</gpx>